<?xml version="1.0" encoding="UTF-8" standalone="no" ?>
<gpx xmlns="http://www.topografix.com/GPX/1/1" xmlns:xsi="http://www.w3.org/2001/XMLSchema-instance" xsi:schemaLocation="http://www.topografix.com/GPX/1/1 http://www.topografix.com/GPX/1/1/gpx.xsd" version="1.1" creator="VisuGPX - https://www.visugpx.com">
  <metadata>
    <name>La Croix de Fresse</name>
    <desc><![CDATA[Faite le 12/09/22]]></desc>
  </metadata>
  <trk>
    <name><![CDATA[Le Menil Randonnée]]></name>
    <trkseg>
      <trkpt lat="47.8809" lon="6.81409">
        <ele>661</ele>
        <time>2022-09-12T07:33:23Z</time>
      </trkpt>
      <trkpt lat="47.8809" lon="6.8141">
        <ele>661</ele>
        <time>2022-09-12T07:33:24Z</time>
      </trkpt>
      <trkpt lat="47.8809" lon="6.8141">
        <ele>661</ele>
        <time>2022-09-12T07:33:25Z</time>
      </trkpt>
      <trkpt lat="47.8809" lon="6.81411">
        <ele>661</ele>
        <time>2022-09-12T07:33:26Z</time>
      </trkpt>
      <trkpt lat="47.88089" lon="6.81411">
        <ele>661</ele>
        <time>2022-09-12T07:33:27Z</time>
      </trkpt>
      <trkpt lat="47.88089" lon="6.81412">
        <ele>660</ele>
        <time>2022-09-12T07:33:43Z</time>
      </trkpt>
      <trkpt lat="47.88089" lon="6.81412">
        <ele>660</ele>
        <time>2022-09-12T07:33:44Z</time>
      </trkpt>
      <trkpt lat="47.88089" lon="6.81412">
        <ele>660</ele>
        <time>2022-09-12T07:33:45Z</time>
      </trkpt>
      <trkpt lat="47.88089" lon="6.81412">
        <ele>661</ele>
        <time>2022-09-12T07:33:46Z</time>
      </trkpt>
      <trkpt lat="47.88088" lon="6.81412">
        <ele>661</ele>
        <time>2022-09-12T07:33:47Z</time>
      </trkpt>
      <trkpt lat="47.88088" lon="6.81411">
        <ele>661</ele>
        <time>2022-09-12T07:33:48Z</time>
      </trkpt>
      <trkpt lat="47.88088" lon="6.8141">
        <ele>661</ele>
        <time>2022-09-12T07:33:49Z</time>
      </trkpt>
      <trkpt lat="47.88087" lon="6.81409">
        <ele>661</ele>
        <time>2022-09-12T07:33:50Z</time>
      </trkpt>
      <trkpt lat="47.88087" lon="6.81408">
        <ele>661</ele>
        <time>2022-09-12T07:33:51Z</time>
      </trkpt>
      <trkpt lat="47.88087" lon="6.81407">
        <ele>661</ele>
        <time>2022-09-12T07:33:52Z</time>
      </trkpt>
      <trkpt lat="47.88087" lon="6.81406">
        <ele>661</ele>
        <time>2022-09-12T07:33:53Z</time>
      </trkpt>
      <trkpt lat="47.88087" lon="6.81405">
        <ele>661</ele>
        <time>2022-09-12T07:33:54Z</time>
      </trkpt>
      <trkpt lat="47.88086" lon="6.81404">
        <ele>661</ele>
        <time>2022-09-12T07:33:55Z</time>
      </trkpt>
      <trkpt lat="47.88086" lon="6.81402">
        <ele>661</ele>
        <time>2022-09-12T07:33:56Z</time>
      </trkpt>
      <trkpt lat="47.88086" lon="6.81401">
        <ele>661</ele>
        <time>2022-09-12T07:33:57Z</time>
      </trkpt>
      <trkpt lat="47.88086" lon="6.814">
        <ele>661</ele>
        <time>2022-09-12T07:33:58Z</time>
      </trkpt>
      <trkpt lat="47.88086" lon="6.81398">
        <ele>661</ele>
        <time>2022-09-12T07:33:59Z</time>
      </trkpt>
      <trkpt lat="47.88086" lon="6.81397">
        <ele>661</ele>
        <time>2022-09-12T07:34:00Z</time>
      </trkpt>
      <trkpt lat="47.88086" lon="6.81396">
        <ele>661</ele>
        <time>2022-09-12T07:34:01Z</time>
      </trkpt>
      <trkpt lat="47.88086" lon="6.81394">
        <ele>661</ele>
        <time>2022-09-12T07:34:02Z</time>
      </trkpt>
      <trkpt lat="47.88086" lon="6.81393">
        <ele>661</ele>
        <time>2022-09-12T07:34:03Z</time>
      </trkpt>
      <trkpt lat="47.88086" lon="6.81391">
        <ele>661</ele>
        <time>2022-09-12T07:34:04Z</time>
      </trkpt>
      <trkpt lat="47.88086" lon="6.8139">
        <ele>661</ele>
        <time>2022-09-12T07:34:05Z</time>
      </trkpt>
      <trkpt lat="47.88086" lon="6.81388">
        <ele>662</ele>
        <time>2022-09-12T07:34:06Z</time>
      </trkpt>
      <trkpt lat="47.88086" lon="6.81387">
        <ele>662</ele>
        <time>2022-09-12T07:34:07Z</time>
      </trkpt>
      <trkpt lat="47.88086" lon="6.81385">
        <ele>662</ele>
        <time>2022-09-12T07:34:08Z</time>
      </trkpt>
      <trkpt lat="47.88086" lon="6.81384">
        <ele>662</ele>
        <time>2022-09-12T07:34:09Z</time>
      </trkpt>
      <trkpt lat="47.88086" lon="6.81383">
        <ele>662</ele>
        <time>2022-09-12T07:34:10Z</time>
      </trkpt>
      <trkpt lat="47.88086" lon="6.81382">
        <ele>663</ele>
        <time>2022-09-12T07:34:11Z</time>
      </trkpt>
      <trkpt lat="47.88086" lon="6.81382">
        <ele>663</ele>
        <time>2022-09-12T07:34:12Z</time>
      </trkpt>
      <trkpt lat="47.88086" lon="6.81381">
        <ele>663</ele>
        <time>2022-09-12T07:34:13Z</time>
      </trkpt>
      <trkpt lat="47.88086" lon="6.8138">
        <ele>663</ele>
        <time>2022-09-12T07:34:14Z</time>
      </trkpt>
      <trkpt lat="47.88086" lon="6.8138">
        <ele>663</ele>
        <time>2022-09-12T07:34:15Z</time>
      </trkpt>
      <trkpt lat="47.88086" lon="6.81379">
        <ele>663</ele>
        <time>2022-09-12T07:34:16Z</time>
      </trkpt>
      <trkpt lat="47.88087" lon="6.81377">
        <ele>663</ele>
        <time>2022-09-12T07:34:24Z</time>
      </trkpt>
      <trkpt lat="47.88087" lon="6.81377">
        <ele>663</ele>
        <time>2022-09-12T07:34:25Z</time>
      </trkpt>
      <trkpt lat="47.88087" lon="6.81376">
        <ele>664</ele>
        <time>2022-09-12T07:34:26Z</time>
      </trkpt>
      <trkpt lat="47.88087" lon="6.81375">
        <ele>664</ele>
        <time>2022-09-12T07:34:27Z</time>
      </trkpt>
      <trkpt lat="47.88087" lon="6.81374">
        <ele>664</ele>
        <time>2022-09-12T07:34:28Z</time>
      </trkpt>
      <trkpt lat="47.88087" lon="6.81373">
        <ele>664</ele>
        <time>2022-09-12T07:34:29Z</time>
      </trkpt>
      <trkpt lat="47.88087" lon="6.81372">
        <ele>664</ele>
        <time>2022-09-12T07:34:30Z</time>
      </trkpt>
      <trkpt lat="47.88087" lon="6.81371">
        <ele>664</ele>
        <time>2022-09-12T07:34:37Z</time>
      </trkpt>
      <trkpt lat="47.88088" lon="6.8137">
        <ele>664</ele>
        <time>2022-09-12T07:34:38Z</time>
      </trkpt>
      <trkpt lat="47.88088" lon="6.8137">
        <ele>664</ele>
        <time>2022-09-12T07:34:39Z</time>
      </trkpt>
      <trkpt lat="47.88088" lon="6.81369">
        <ele>664</ele>
        <time>2022-09-12T07:34:40Z</time>
      </trkpt>
      <trkpt lat="47.88088" lon="6.81368">
        <ele>665</ele>
        <time>2022-09-12T07:34:41Z</time>
      </trkpt>
      <trkpt lat="47.88088" lon="6.81367">
        <ele>665</ele>
        <time>2022-09-12T07:34:42Z</time>
      </trkpt>
      <trkpt lat="47.88088" lon="6.81366">
        <ele>665</ele>
        <time>2022-09-12T07:34:43Z</time>
      </trkpt>
      <trkpt lat="47.88088" lon="6.81365">
        <ele>665</ele>
        <time>2022-09-12T07:34:44Z</time>
      </trkpt>
      <trkpt lat="47.88088" lon="6.81364">
        <ele>665</ele>
        <time>2022-09-12T07:34:45Z</time>
      </trkpt>
      <trkpt lat="47.88088" lon="6.81363">
        <ele>665</ele>
        <time>2022-09-12T07:34:46Z</time>
      </trkpt>
      <trkpt lat="47.88088" lon="6.81362">
        <ele>665</ele>
        <time>2022-09-12T07:34:47Z</time>
      </trkpt>
      <trkpt lat="47.88088" lon="6.81361">
        <ele>665</ele>
        <time>2022-09-12T07:34:48Z</time>
      </trkpt>
      <trkpt lat="47.88088" lon="6.8136">
        <ele>665</ele>
        <time>2022-09-12T07:34:49Z</time>
      </trkpt>
      <trkpt lat="47.88087" lon="6.81359">
        <ele>665</ele>
        <time>2022-09-12T07:34:50Z</time>
      </trkpt>
      <trkpt lat="47.88087" lon="6.81358">
        <ele>665</ele>
        <time>2022-09-12T07:34:51Z</time>
      </trkpt>
      <trkpt lat="47.88087" lon="6.81357">
        <ele>665</ele>
        <time>2022-09-12T07:34:52Z</time>
      </trkpt>
      <trkpt lat="47.88087" lon="6.81356">
        <ele>665</ele>
        <time>2022-09-12T07:34:53Z</time>
      </trkpt>
      <trkpt lat="47.88087" lon="6.81355">
        <ele>665</ele>
        <time>2022-09-12T07:34:54Z</time>
      </trkpt>
      <trkpt lat="47.88087" lon="6.81354">
        <ele>665</ele>
        <time>2022-09-12T07:34:55Z</time>
      </trkpt>
      <trkpt lat="47.88088" lon="6.81353">
        <ele>666</ele>
        <time>2022-09-12T07:35:03Z</time>
      </trkpt>
      <trkpt lat="47.88088" lon="6.81352">
        <ele>666</ele>
        <time>2022-09-12T07:35:04Z</time>
      </trkpt>
      <trkpt lat="47.88089" lon="6.81351">
        <ele>666</ele>
        <time>2022-09-12T07:35:05Z</time>
      </trkpt>
      <trkpt lat="47.88089" lon="6.8135">
        <ele>667</ele>
        <time>2022-09-12T07:35:06Z</time>
      </trkpt>
      <trkpt lat="47.88089" lon="6.81349">
        <ele>667</ele>
        <time>2022-09-12T07:35:07Z</time>
      </trkpt>
      <trkpt lat="47.88089" lon="6.81347">
        <ele>667</ele>
        <time>2022-09-12T07:35:08Z</time>
      </trkpt>
      <trkpt lat="47.88089" lon="6.81345">
        <ele>667</ele>
        <time>2022-09-12T07:35:09Z</time>
      </trkpt>
      <trkpt lat="47.88089" lon="6.81344">
        <ele>667</ele>
        <time>2022-09-12T07:35:10Z</time>
      </trkpt>
      <trkpt lat="47.88089" lon="6.81342">
        <ele>667</ele>
        <time>2022-09-12T07:35:11Z</time>
      </trkpt>
      <trkpt lat="47.88088" lon="6.8134">
        <ele>667</ele>
        <time>2022-09-12T07:35:20Z</time>
      </trkpt>
      <trkpt lat="47.88088" lon="6.81339">
        <ele>667</ele>
        <time>2022-09-12T07:35:21Z</time>
      </trkpt>
      <trkpt lat="47.88088" lon="6.81338">
        <ele>667</ele>
        <time>2022-09-12T07:35:22Z</time>
      </trkpt>
      <trkpt lat="47.88088" lon="6.81337">
        <ele>667</ele>
        <time>2022-09-12T07:35:23Z</time>
      </trkpt>
      <trkpt lat="47.88088" lon="6.81336">
        <ele>667</ele>
        <time>2022-09-12T07:35:24Z</time>
      </trkpt>
      <trkpt lat="47.88088" lon="6.81335">
        <ele>667</ele>
        <time>2022-09-12T07:35:25Z</time>
      </trkpt>
      <trkpt lat="47.88088" lon="6.81334">
        <ele>668</ele>
        <time>2022-09-12T07:35:26Z</time>
      </trkpt>
      <trkpt lat="47.88088" lon="6.81333">
        <ele>668</ele>
        <time>2022-09-12T07:35:27Z</time>
      </trkpt>
      <trkpt lat="47.88088" lon="6.81332">
        <ele>668</ele>
        <time>2022-09-12T07:35:28Z</time>
      </trkpt>
      <trkpt lat="47.88088" lon="6.81331">
        <ele>668</ele>
        <time>2022-09-12T07:35:29Z</time>
      </trkpt>
      <trkpt lat="47.88088" lon="6.8133">
        <ele>668</ele>
        <time>2022-09-12T07:35:30Z</time>
      </trkpt>
      <trkpt lat="47.88088" lon="6.81328">
        <ele>668</ele>
        <time>2022-09-12T07:35:31Z</time>
      </trkpt>
      <trkpt lat="47.88087" lon="6.81327">
        <ele>668</ele>
        <time>2022-09-12T07:35:32Z</time>
      </trkpt>
      <trkpt lat="47.88087" lon="6.81326">
        <ele>668</ele>
        <time>2022-09-12T07:35:33Z</time>
      </trkpt>
      <trkpt lat="47.88087" lon="6.81324">
        <ele>668</ele>
        <time>2022-09-12T07:35:34Z</time>
      </trkpt>
      <trkpt lat="47.88087" lon="6.81323">
        <ele>668</ele>
        <time>2022-09-12T07:35:35Z</time>
      </trkpt>
      <trkpt lat="47.88087" lon="6.81322">
        <ele>668</ele>
        <time>2022-09-12T07:35:36Z</time>
      </trkpt>
      <trkpt lat="47.88087" lon="6.8132">
        <ele>668</ele>
        <time>2022-09-12T07:35:37Z</time>
      </trkpt>
      <trkpt lat="47.88087" lon="6.81319">
        <ele>668</ele>
        <time>2022-09-12T07:35:38Z</time>
      </trkpt>
      <trkpt lat="47.88087" lon="6.81317">
        <ele>668</ele>
        <time>2022-09-12T07:35:39Z</time>
      </trkpt>
      <trkpt lat="47.88087" lon="6.81316">
        <ele>668</ele>
        <time>2022-09-12T07:35:40Z</time>
      </trkpt>
      <trkpt lat="47.88087" lon="6.81314">
        <ele>669</ele>
        <time>2022-09-12T07:35:41Z</time>
      </trkpt>
      <trkpt lat="47.88087" lon="6.81313">
        <ele>669</ele>
        <time>2022-09-12T07:35:42Z</time>
      </trkpt>
      <trkpt lat="47.88087" lon="6.81312">
        <ele>669</ele>
        <time>2022-09-12T07:35:43Z</time>
      </trkpt>
      <trkpt lat="47.88087" lon="6.81311">
        <ele>669</ele>
        <time>2022-09-12T07:35:44Z</time>
      </trkpt>
      <trkpt lat="47.88087" lon="6.81309">
        <ele>669</ele>
        <time>2022-09-12T07:35:45Z</time>
      </trkpt>
      <trkpt lat="47.88087" lon="6.81308">
        <ele>670</ele>
        <time>2022-09-12T07:35:46Z</time>
      </trkpt>
      <trkpt lat="47.88087" lon="6.81307">
        <ele>670</ele>
        <time>2022-09-12T07:35:47Z</time>
      </trkpt>
      <trkpt lat="47.88086" lon="6.81306">
        <ele>670</ele>
        <time>2022-09-12T07:35:48Z</time>
      </trkpt>
      <trkpt lat="47.88086" lon="6.81304">
        <ele>670</ele>
        <time>2022-09-12T07:35:49Z</time>
      </trkpt>
      <trkpt lat="47.88086" lon="6.81303">
        <ele>670</ele>
        <time>2022-09-12T07:35:50Z</time>
      </trkpt>
      <trkpt lat="47.88086" lon="6.81302">
        <ele>670</ele>
        <time>2022-09-12T07:35:51Z</time>
      </trkpt>
      <trkpt lat="47.88086" lon="6.81301">
        <ele>670</ele>
        <time>2022-09-12T07:35:52Z</time>
      </trkpt>
      <trkpt lat="47.88087" lon="6.813">
        <ele>670</ele>
        <time>2022-09-12T07:35:53Z</time>
      </trkpt>
      <trkpt lat="47.88087" lon="6.81299">
        <ele>670</ele>
        <time>2022-09-12T07:35:54Z</time>
      </trkpt>
      <trkpt lat="47.88087" lon="6.81297">
        <ele>670</ele>
        <time>2022-09-12T07:35:55Z</time>
      </trkpt>
      <trkpt lat="47.88087" lon="6.81296">
        <ele>671</ele>
        <time>2022-09-12T07:35:56Z</time>
      </trkpt>
      <trkpt lat="47.88087" lon="6.81295">
        <ele>671</ele>
        <time>2022-09-12T07:35:57Z</time>
      </trkpt>
      <trkpt lat="47.88087" lon="6.81294">
        <ele>671</ele>
        <time>2022-09-12T07:35:58Z</time>
      </trkpt>
      <trkpt lat="47.88087" lon="6.81293">
        <ele>671</ele>
        <time>2022-09-12T07:35:59Z</time>
      </trkpt>
      <trkpt lat="47.88087" lon="6.81292">
        <ele>671</ele>
        <time>2022-09-12T07:36:00Z</time>
      </trkpt>
      <trkpt lat="47.88086" lon="6.8129">
        <ele>672</ele>
        <time>2022-09-12T07:36:01Z</time>
      </trkpt>
      <trkpt lat="47.88086" lon="6.81289">
        <ele>672</ele>
        <time>2022-09-12T07:36:02Z</time>
      </trkpt>
      <trkpt lat="47.88086" lon="6.81288">
        <ele>672</ele>
        <time>2022-09-12T07:36:03Z</time>
      </trkpt>
      <trkpt lat="47.88086" lon="6.81287">
        <ele>672</ele>
        <time>2022-09-12T07:36:04Z</time>
      </trkpt>
      <trkpt lat="47.88086" lon="6.81285">
        <ele>672</ele>
        <time>2022-09-12T07:36:05Z</time>
      </trkpt>
      <trkpt lat="47.88085" lon="6.81284">
        <ele>672</ele>
        <time>2022-09-12T07:36:06Z</time>
      </trkpt>
      <trkpt lat="47.88085" lon="6.81282">
        <ele>672</ele>
        <time>2022-09-12T07:36:07Z</time>
      </trkpt>
      <trkpt lat="47.88085" lon="6.81281">
        <ele>672</ele>
        <time>2022-09-12T07:36:08Z</time>
      </trkpt>
      <trkpt lat="47.88085" lon="6.8128">
        <ele>672</ele>
        <time>2022-09-12T07:36:09Z</time>
      </trkpt>
      <trkpt lat="47.88085" lon="6.81278">
        <ele>672</ele>
        <time>2022-09-12T07:36:10Z</time>
      </trkpt>
      <trkpt lat="47.88085" lon="6.81277">
        <ele>673</ele>
        <time>2022-09-12T07:36:11Z</time>
      </trkpt>
      <trkpt lat="47.88085" lon="6.81276">
        <ele>673</ele>
        <time>2022-09-12T07:36:12Z</time>
      </trkpt>
      <trkpt lat="47.88084" lon="6.81274">
        <ele>673</ele>
        <time>2022-09-12T07:36:13Z</time>
      </trkpt>
      <trkpt lat="47.88084" lon="6.81273">
        <ele>673</ele>
        <time>2022-09-12T07:36:14Z</time>
      </trkpt>
      <trkpt lat="47.88084" lon="6.81271">
        <ele>673</ele>
        <time>2022-09-12T07:36:15Z</time>
      </trkpt>
      <trkpt lat="47.88084" lon="6.8127">
        <ele>673</ele>
        <time>2022-09-12T07:36:16Z</time>
      </trkpt>
      <trkpt lat="47.88084" lon="6.81269">
        <ele>673</ele>
        <time>2022-09-12T07:36:17Z</time>
      </trkpt>
      <trkpt lat="47.88084" lon="6.81267">
        <ele>673</ele>
        <time>2022-09-12T07:36:18Z</time>
      </trkpt>
      <trkpt lat="47.88084" lon="6.81266">
        <ele>673</ele>
        <time>2022-09-12T07:36:19Z</time>
      </trkpt>
      <trkpt lat="47.88084" lon="6.81265">
        <ele>673</ele>
        <time>2022-09-12T07:36:20Z</time>
      </trkpt>
      <trkpt lat="47.88084" lon="6.81264">
        <ele>674</ele>
        <time>2022-09-12T07:36:21Z</time>
      </trkpt>
      <trkpt lat="47.88085" lon="6.81262">
        <ele>674</ele>
        <time>2022-09-12T07:36:22Z</time>
      </trkpt>
      <trkpt lat="47.88085" lon="6.81261">
        <ele>674</ele>
        <time>2022-09-12T07:36:23Z</time>
      </trkpt>
      <trkpt lat="47.88085" lon="6.8126">
        <ele>674</ele>
        <time>2022-09-12T07:36:24Z</time>
      </trkpt>
      <trkpt lat="47.88085" lon="6.81259">
        <ele>674</ele>
        <time>2022-09-12T07:36:25Z</time>
      </trkpt>
      <trkpt lat="47.88085" lon="6.81257">
        <ele>674</ele>
        <time>2022-09-12T07:36:26Z</time>
      </trkpt>
      <trkpt lat="47.88085" lon="6.81256">
        <ele>674</ele>
        <time>2022-09-12T07:36:27Z</time>
      </trkpt>
      <trkpt lat="47.88085" lon="6.81255">
        <ele>674</ele>
        <time>2022-09-12T07:36:28Z</time>
      </trkpt>
      <trkpt lat="47.88086" lon="6.81253">
        <ele>675</ele>
        <time>2022-09-12T07:37:17Z</time>
      </trkpt>
      <trkpt lat="47.88087" lon="6.81253">
        <ele>675</ele>
        <time>2022-09-12T07:37:18Z</time>
      </trkpt>
      <trkpt lat="47.88088" lon="6.81252">
        <ele>675</ele>
        <time>2022-09-12T07:37:19Z</time>
      </trkpt>
      <trkpt lat="47.88088" lon="6.81252">
        <ele>675</ele>
        <time>2022-09-12T07:37:20Z</time>
      </trkpt>
      <trkpt lat="47.88089" lon="6.81251">
        <ele>675</ele>
        <time>2022-09-12T07:37:21Z</time>
      </trkpt>
      <trkpt lat="47.88089" lon="6.81251">
        <ele>675</ele>
        <time>2022-09-12T07:37:22Z</time>
      </trkpt>
      <trkpt lat="47.88089" lon="6.81251">
        <ele>675</ele>
        <time>2022-09-12T07:37:23Z</time>
      </trkpt>
      <trkpt lat="47.88089" lon="6.8125">
        <ele>675</ele>
        <time>2022-09-12T07:37:24Z</time>
      </trkpt>
      <trkpt lat="47.88089" lon="6.8125">
        <ele>675</ele>
        <time>2022-09-12T07:37:25Z</time>
      </trkpt>
      <trkpt lat="47.88088" lon="6.81248">
        <ele>676</ele>
        <time>2022-09-12T07:37:38Z</time>
      </trkpt>
      <trkpt lat="47.88087" lon="6.81247">
        <ele>676</ele>
        <time>2022-09-12T07:37:39Z</time>
      </trkpt>
      <trkpt lat="47.88086" lon="6.81246">
        <ele>676</ele>
        <time>2022-09-12T07:37:40Z</time>
      </trkpt>
      <trkpt lat="47.88086" lon="6.81245">
        <ele>676</ele>
        <time>2022-09-12T07:37:41Z</time>
      </trkpt>
      <trkpt lat="47.88086" lon="6.81245">
        <ele>676</ele>
        <time>2022-09-12T07:37:42Z</time>
      </trkpt>
      <trkpt lat="47.88085" lon="6.81243">
        <ele>676</ele>
        <time>2022-09-12T07:37:43Z</time>
      </trkpt>
      <trkpt lat="47.88085" lon="6.81242">
        <ele>676</ele>
        <time>2022-09-12T07:37:44Z</time>
      </trkpt>
      <trkpt lat="47.88085" lon="6.81241">
        <ele>676</ele>
        <time>2022-09-12T07:37:45Z</time>
      </trkpt>
      <trkpt lat="47.88085" lon="6.8124">
        <ele>676</ele>
        <time>2022-09-12T07:37:46Z</time>
      </trkpt>
      <trkpt lat="47.88084" lon="6.81239">
        <ele>676</ele>
        <time>2022-09-12T07:37:47Z</time>
      </trkpt>
      <trkpt lat="47.88084" lon="6.81237">
        <ele>676</ele>
        <time>2022-09-12T07:37:48Z</time>
      </trkpt>
      <trkpt lat="47.88084" lon="6.81236">
        <ele>676</ele>
        <time>2022-09-12T07:37:49Z</time>
      </trkpt>
      <trkpt lat="47.88084" lon="6.81234">
        <ele>676</ele>
        <time>2022-09-12T07:37:50Z</time>
      </trkpt>
      <trkpt lat="47.88084" lon="6.81233">
        <ele>677</ele>
        <time>2022-09-12T07:37:51Z</time>
      </trkpt>
      <trkpt lat="47.88084" lon="6.81232">
        <ele>677</ele>
        <time>2022-09-12T07:37:52Z</time>
      </trkpt>
      <trkpt lat="47.88083" lon="6.8123">
        <ele>677</ele>
        <time>2022-09-12T07:37:53Z</time>
      </trkpt>
      <trkpt lat="47.88083" lon="6.81229">
        <ele>677</ele>
        <time>2022-09-12T07:37:54Z</time>
      </trkpt>
      <trkpt lat="47.88083" lon="6.81228">
        <ele>677</ele>
        <time>2022-09-12T07:37:55Z</time>
      </trkpt>
      <trkpt lat="47.88083" lon="6.81227">
        <ele>677</ele>
        <time>2022-09-12T07:37:56Z</time>
      </trkpt>
      <trkpt lat="47.88082" lon="6.81226">
        <ele>677</ele>
        <time>2022-09-12T07:37:57Z</time>
      </trkpt>
      <trkpt lat="47.88082" lon="6.81225">
        <ele>677</ele>
        <time>2022-09-12T07:37:58Z</time>
      </trkpt>
      <trkpt lat="47.88082" lon="6.81224">
        <ele>678</ele>
        <time>2022-09-12T07:37:59Z</time>
      </trkpt>
      <trkpt lat="47.88082" lon="6.81223">
        <ele>678</ele>
        <time>2022-09-12T07:38:00Z</time>
      </trkpt>
      <trkpt lat="47.88081" lon="6.81221">
        <ele>679</ele>
        <time>2022-09-12T07:38:01Z</time>
      </trkpt>
      <trkpt lat="47.88081" lon="6.8122">
        <ele>679</ele>
        <time>2022-09-12T07:38:02Z</time>
      </trkpt>
      <trkpt lat="47.88081" lon="6.81219">
        <ele>679</ele>
        <time>2022-09-12T07:38:03Z</time>
      </trkpt>
      <trkpt lat="47.88081" lon="6.81218">
        <ele>679</ele>
        <time>2022-09-12T07:38:04Z</time>
      </trkpt>
      <trkpt lat="47.88081" lon="6.81216">
        <ele>679</ele>
        <time>2022-09-12T07:38:05Z</time>
      </trkpt>
      <trkpt lat="47.88081" lon="6.81215">
        <ele>679</ele>
        <time>2022-09-12T07:38:06Z</time>
      </trkpt>
      <trkpt lat="47.88081" lon="6.81214">
        <ele>679</ele>
        <time>2022-09-12T07:38:07Z</time>
      </trkpt>
      <trkpt lat="47.8808" lon="6.81213">
        <ele>679</ele>
        <time>2022-09-12T07:38:08Z</time>
      </trkpt>
      <trkpt lat="47.8808" lon="6.81211">
        <ele>679</ele>
        <time>2022-09-12T07:38:09Z</time>
      </trkpt>
      <trkpt lat="47.8808" lon="6.8121">
        <ele>679</ele>
        <time>2022-09-12T07:38:10Z</time>
      </trkpt>
      <trkpt lat="47.8808" lon="6.81209">
        <ele>679</ele>
        <time>2022-09-12T07:38:11Z</time>
      </trkpt>
      <trkpt lat="47.88079" lon="6.81208">
        <ele>679</ele>
        <time>2022-09-12T07:38:12Z</time>
      </trkpt>
      <trkpt lat="47.88079" lon="6.81206">
        <ele>679</ele>
        <time>2022-09-12T07:38:13Z</time>
      </trkpt>
      <trkpt lat="47.88078" lon="6.81205">
        <ele>679</ele>
        <time>2022-09-12T07:38:14Z</time>
      </trkpt>
      <trkpt lat="47.88078" lon="6.81204">
        <ele>679</ele>
        <time>2022-09-12T07:38:15Z</time>
      </trkpt>
      <trkpt lat="47.88078" lon="6.81203">
        <ele>680</ele>
        <time>2022-09-12T07:38:16Z</time>
      </trkpt>
      <trkpt lat="47.88077" lon="6.81201">
        <ele>680</ele>
        <time>2022-09-12T07:38:17Z</time>
      </trkpt>
      <trkpt lat="47.88077" lon="6.812">
        <ele>680</ele>
        <time>2022-09-12T07:38:18Z</time>
      </trkpt>
      <trkpt lat="47.88077" lon="6.81199">
        <ele>680</ele>
        <time>2022-09-12T07:38:19Z</time>
      </trkpt>
      <trkpt lat="47.88076" lon="6.81198">
        <ele>680</ele>
        <time>2022-09-12T07:38:20Z</time>
      </trkpt>
      <trkpt lat="47.88076" lon="6.81196">
        <ele>681</ele>
        <time>2022-09-12T07:38:21Z</time>
      </trkpt>
      <trkpt lat="47.88076" lon="6.81195">
        <ele>681</ele>
        <time>2022-09-12T07:38:22Z</time>
      </trkpt>
      <trkpt lat="47.88075" lon="6.81193">
        <ele>681</ele>
        <time>2022-09-12T07:38:23Z</time>
      </trkpt>
      <trkpt lat="47.88075" lon="6.81192">
        <ele>681</ele>
        <time>2022-09-12T07:38:24Z</time>
      </trkpt>
      <trkpt lat="47.88075" lon="6.8119">
        <ele>681</ele>
        <time>2022-09-12T07:38:25Z</time>
      </trkpt>
      <trkpt lat="47.88075" lon="6.81189">
        <ele>681</ele>
        <time>2022-09-12T07:38:26Z</time>
      </trkpt>
      <trkpt lat="47.88075" lon="6.81188">
        <ele>681</ele>
        <time>2022-09-12T07:38:27Z</time>
      </trkpt>
      <trkpt lat="47.88075" lon="6.81187">
        <ele>681</ele>
        <time>2022-09-12T07:38:28Z</time>
      </trkpt>
      <trkpt lat="47.88075" lon="6.81186">
        <ele>681</ele>
        <time>2022-09-12T07:38:29Z</time>
      </trkpt>
      <trkpt lat="47.88075" lon="6.81184">
        <ele>681</ele>
        <time>2022-09-12T07:38:30Z</time>
      </trkpt>
      <trkpt lat="47.88075" lon="6.81183">
        <ele>682</ele>
        <time>2022-09-12T07:38:31Z</time>
      </trkpt>
      <trkpt lat="47.88075" lon="6.81182">
        <ele>682</ele>
        <time>2022-09-12T07:38:32Z</time>
      </trkpt>
      <trkpt lat="47.88074" lon="6.81181">
        <ele>682</ele>
        <time>2022-09-12T07:38:33Z</time>
      </trkpt>
      <trkpt lat="47.88074" lon="6.8118">
        <ele>682</ele>
        <time>2022-09-12T07:38:34Z</time>
      </trkpt>
      <trkpt lat="47.88074" lon="6.8118">
        <ele>682</ele>
        <time>2022-09-12T07:38:35Z</time>
      </trkpt>
      <trkpt lat="47.88073" lon="6.81179">
        <ele>682</ele>
        <time>2022-09-12T07:38:36Z</time>
      </trkpt>
      <trkpt lat="47.88073" lon="6.81178">
        <ele>682</ele>
        <time>2022-09-12T07:38:37Z</time>
      </trkpt>
      <trkpt lat="47.88072" lon="6.81178">
        <ele>682</ele>
        <time>2022-09-12T07:38:38Z</time>
      </trkpt>
      <trkpt lat="47.88071" lon="6.81177">
        <ele>682</ele>
        <time>2022-09-12T07:38:39Z</time>
      </trkpt>
      <trkpt lat="47.8807" lon="6.81177">
        <ele>682</ele>
        <time>2022-09-12T07:38:40Z</time>
      </trkpt>
      <trkpt lat="47.8807" lon="6.81177">
        <ele>683</ele>
        <time>2022-09-12T07:38:41Z</time>
      </trkpt>
      <trkpt lat="47.88069" lon="6.81176">
        <ele>683</ele>
        <time>2022-09-12T07:38:42Z</time>
      </trkpt>
      <trkpt lat="47.88068" lon="6.81176">
        <ele>683</ele>
        <time>2022-09-12T07:38:43Z</time>
      </trkpt>
      <trkpt lat="47.88067" lon="6.81176">
        <ele>683</ele>
        <time>2022-09-12T07:38:44Z</time>
      </trkpt>
      <trkpt lat="47.88067" lon="6.81176">
        <ele>683</ele>
        <time>2022-09-12T07:38:45Z</time>
      </trkpt>
      <trkpt lat="47.88066" lon="6.81176">
        <ele>684</ele>
        <time>2022-09-12T07:38:46Z</time>
      </trkpt>
      <trkpt lat="47.88065" lon="6.81176">
        <ele>684</ele>
        <time>2022-09-12T07:38:47Z</time>
      </trkpt>
      <trkpt lat="47.88065" lon="6.81176">
        <ele>684</ele>
        <time>2022-09-12T07:38:48Z</time>
      </trkpt>
      <trkpt lat="47.88064" lon="6.81176">
        <ele>684</ele>
        <time>2022-09-12T07:38:49Z</time>
      </trkpt>
      <trkpt lat="47.88064" lon="6.81177">
        <ele>684</ele>
        <time>2022-09-12T07:38:50Z</time>
      </trkpt>
      <trkpt lat="47.88063" lon="6.81177">
        <ele>684</ele>
        <time>2022-09-12T07:38:51Z</time>
      </trkpt>
      <trkpt lat="47.88063" lon="6.81178">
        <ele>684</ele>
        <time>2022-09-12T07:38:52Z</time>
      </trkpt>
      <trkpt lat="47.88063" lon="6.81178">
        <ele>684</ele>
        <time>2022-09-12T07:38:53Z</time>
      </trkpt>
      <trkpt lat="47.88062" lon="6.81179">
        <ele>684</ele>
        <time>2022-09-12T07:38:54Z</time>
      </trkpt>
      <trkpt lat="47.88062" lon="6.8118">
        <ele>684</ele>
        <time>2022-09-12T07:38:55Z</time>
      </trkpt>
      <trkpt lat="47.88061" lon="6.81181">
        <ele>685</ele>
        <time>2022-09-12T07:38:56Z</time>
      </trkpt>
      <trkpt lat="47.88061" lon="6.81182">
        <ele>685</ele>
        <time>2022-09-12T07:38:57Z</time>
      </trkpt>
      <trkpt lat="47.8806" lon="6.81182">
        <ele>685</ele>
        <time>2022-09-12T07:38:58Z</time>
      </trkpt>
      <trkpt lat="47.8806" lon="6.81183">
        <ele>685</ele>
        <time>2022-09-12T07:38:59Z</time>
      </trkpt>
      <trkpt lat="47.8806" lon="6.81184">
        <ele>685</ele>
        <time>2022-09-12T07:39:00Z</time>
      </trkpt>
      <trkpt lat="47.88059" lon="6.81185">
        <ele>686</ele>
        <time>2022-09-12T07:39:01Z</time>
      </trkpt>
      <trkpt lat="47.88059" lon="6.81186">
        <ele>686</ele>
        <time>2022-09-12T07:39:02Z</time>
      </trkpt>
      <trkpt lat="47.88058" lon="6.81186">
        <ele>686</ele>
        <time>2022-09-12T07:39:03Z</time>
      </trkpt>
      <trkpt lat="47.88058" lon="6.81186">
        <ele>686</ele>
        <time>2022-09-12T07:39:04Z</time>
      </trkpt>
      <trkpt lat="47.88058" lon="6.81187">
        <ele>686</ele>
        <time>2022-09-12T07:39:05Z</time>
      </trkpt>
      <trkpt lat="47.88058" lon="6.81188">
        <ele>687</ele>
        <time>2022-09-12T07:39:06Z</time>
      </trkpt>
      <trkpt lat="47.88057" lon="6.81189">
        <ele>687</ele>
        <time>2022-09-12T07:39:07Z</time>
      </trkpt>
      <trkpt lat="47.88057" lon="6.81189">
        <ele>687</ele>
        <time>2022-09-12T07:39:08Z</time>
      </trkpt>
      <trkpt lat="47.88057" lon="6.8119">
        <ele>687</ele>
        <time>2022-09-12T07:39:09Z</time>
      </trkpt>
      <trkpt lat="47.88057" lon="6.8119">
        <ele>687</ele>
        <time>2022-09-12T07:39:10Z</time>
      </trkpt>
      <trkpt lat="47.88057" lon="6.81192">
        <ele>688</ele>
        <time>2022-09-12T07:39:11Z</time>
      </trkpt>
      <trkpt lat="47.88056" lon="6.81193">
        <ele>688</ele>
        <time>2022-09-12T07:39:12Z</time>
      </trkpt>
      <trkpt lat="47.88056" lon="6.81194">
        <ele>688</ele>
        <time>2022-09-12T07:39:21Z</time>
      </trkpt>
      <trkpt lat="47.88056" lon="6.81195">
        <ele>688</ele>
        <time>2022-09-12T07:39:22Z</time>
      </trkpt>
      <trkpt lat="47.88055" lon="6.81196">
        <ele>688</ele>
        <time>2022-09-12T07:39:23Z</time>
      </trkpt>
      <trkpt lat="47.88055" lon="6.81196">
        <ele>688</ele>
        <time>2022-09-12T07:39:24Z</time>
      </trkpt>
      <trkpt lat="47.88055" lon="6.81197">
        <ele>688</ele>
        <time>2022-09-12T07:39:25Z</time>
      </trkpt>
      <trkpt lat="47.88055" lon="6.81198">
        <ele>689</ele>
        <time>2022-09-12T07:39:26Z</time>
      </trkpt>
      <trkpt lat="47.88055" lon="6.81198">
        <ele>689</ele>
        <time>2022-09-12T07:39:27Z</time>
      </trkpt>
      <trkpt lat="47.88055" lon="6.81199">
        <ele>689</ele>
        <time>2022-09-12T07:39:28Z</time>
      </trkpt>
      <trkpt lat="47.88054" lon="6.812">
        <ele>689</ele>
        <time>2022-09-12T07:39:29Z</time>
      </trkpt>
      <trkpt lat="47.88054" lon="6.81201">
        <ele>689</ele>
        <time>2022-09-12T07:39:30Z</time>
      </trkpt>
      <trkpt lat="47.88054" lon="6.81202">
        <ele>690</ele>
        <time>2022-09-12T07:39:31Z</time>
      </trkpt>
      <trkpt lat="47.88054" lon="6.81203">
        <ele>690</ele>
        <time>2022-09-12T07:39:32Z</time>
      </trkpt>
      <trkpt lat="47.88054" lon="6.81204">
        <ele>690</ele>
        <time>2022-09-12T07:39:33Z</time>
      </trkpt>
      <trkpt lat="47.88054" lon="6.81206">
        <ele>690</ele>
        <time>2022-09-12T07:39:34Z</time>
      </trkpt>
      <trkpt lat="47.88053" lon="6.81206">
        <ele>690</ele>
        <time>2022-09-12T07:39:35Z</time>
      </trkpt>
      <trkpt lat="47.88053" lon="6.81207">
        <ele>690</ele>
        <time>2022-09-12T07:39:36Z</time>
      </trkpt>
      <trkpt lat="47.88053" lon="6.81208">
        <ele>690</ele>
        <time>2022-09-12T07:39:37Z</time>
      </trkpt>
      <trkpt lat="47.88053" lon="6.81209">
        <ele>690</ele>
        <time>2022-09-12T07:39:38Z</time>
      </trkpt>
      <trkpt lat="47.88052" lon="6.81212">
        <ele>692</ele>
        <time>2022-09-12T07:39:47Z</time>
      </trkpt>
      <trkpt lat="47.88052" lon="6.81213">
        <ele>692</ele>
        <time>2022-09-12T07:39:48Z</time>
      </trkpt>
      <trkpt lat="47.88052" lon="6.81214">
        <ele>692</ele>
        <time>2022-09-12T07:39:49Z</time>
      </trkpt>
      <trkpt lat="47.88052" lon="6.81215">
        <ele>692</ele>
        <time>2022-09-12T07:39:50Z</time>
      </trkpt>
      <trkpt lat="47.88052" lon="6.81216">
        <ele>693</ele>
        <time>2022-09-12T07:39:51Z</time>
      </trkpt>
      <trkpt lat="47.88051" lon="6.81217">
        <ele>693</ele>
        <time>2022-09-12T07:39:52Z</time>
      </trkpt>
      <trkpt lat="47.88051" lon="6.81218">
        <ele>693</ele>
        <time>2022-09-12T07:39:53Z</time>
      </trkpt>
      <trkpt lat="47.88051" lon="6.81219">
        <ele>693</ele>
        <time>2022-09-12T07:39:54Z</time>
      </trkpt>
      <trkpt lat="47.8805" lon="6.8122">
        <ele>693</ele>
        <time>2022-09-12T07:39:55Z</time>
      </trkpt>
      <trkpt lat="47.8805" lon="6.81221">
        <ele>693</ele>
        <time>2022-09-12T07:39:56Z</time>
      </trkpt>
      <trkpt lat="47.88049" lon="6.81221">
        <ele>693</ele>
        <time>2022-09-12T07:39:57Z</time>
      </trkpt>
      <trkpt lat="47.88049" lon="6.81222">
        <ele>693</ele>
        <time>2022-09-12T07:39:58Z</time>
      </trkpt>
      <trkpt lat="47.88048" lon="6.81223">
        <ele>693</ele>
        <time>2022-09-12T07:39:59Z</time>
      </trkpt>
      <trkpt lat="47.88048" lon="6.81224">
        <ele>693</ele>
        <time>2022-09-12T07:40:00Z</time>
      </trkpt>
      <trkpt lat="47.88047" lon="6.81224">
        <ele>694</ele>
        <time>2022-09-12T07:40:01Z</time>
      </trkpt>
      <trkpt lat="47.88047" lon="6.81225">
        <ele>694</ele>
        <time>2022-09-12T07:40:02Z</time>
      </trkpt>
      <trkpt lat="47.88047" lon="6.81226">
        <ele>694</ele>
        <time>2022-09-12T07:40:03Z</time>
      </trkpt>
      <trkpt lat="47.88046" lon="6.81227">
        <ele>694</ele>
        <time>2022-09-12T07:40:04Z</time>
      </trkpt>
      <trkpt lat="47.88046" lon="6.81228">
        <ele>694</ele>
        <time>2022-09-12T07:40:05Z</time>
      </trkpt>
      <trkpt lat="47.88046" lon="6.81229">
        <ele>695</ele>
        <time>2022-09-12T07:40:06Z</time>
      </trkpt>
      <trkpt lat="47.88046" lon="6.8123">
        <ele>695</ele>
        <time>2022-09-12T07:40:07Z</time>
      </trkpt>
      <trkpt lat="47.88046" lon="6.81232">
        <ele>695</ele>
        <time>2022-09-12T07:40:08Z</time>
      </trkpt>
      <trkpt lat="47.88045" lon="6.81233">
        <ele>695</ele>
        <time>2022-09-12T07:40:09Z</time>
      </trkpt>
      <trkpt lat="47.88045" lon="6.81234">
        <ele>695</ele>
        <time>2022-09-12T07:40:10Z</time>
      </trkpt>
      <trkpt lat="47.88044" lon="6.81235">
        <ele>695</ele>
        <time>2022-09-12T07:40:11Z</time>
      </trkpt>
      <trkpt lat="47.88043" lon="6.81237">
        <ele>695</ele>
        <time>2022-09-12T07:40:12Z</time>
      </trkpt>
      <trkpt lat="47.88042" lon="6.81238">
        <ele>695</ele>
        <time>2022-09-12T07:40:13Z</time>
      </trkpt>
      <trkpt lat="47.88041" lon="6.81239">
        <ele>695</ele>
        <time>2022-09-12T07:40:14Z</time>
      </trkpt>
      <trkpt lat="47.8804" lon="6.8124">
        <ele>695</ele>
        <time>2022-09-12T07:40:15Z</time>
      </trkpt>
      <trkpt lat="47.8804" lon="6.81241">
        <ele>696</ele>
        <time>2022-09-12T07:40:16Z</time>
      </trkpt>
      <trkpt lat="47.8804" lon="6.81241">
        <ele>696</ele>
        <time>2022-09-12T07:40:17Z</time>
      </trkpt>
      <trkpt lat="47.88039" lon="6.81242">
        <ele>696</ele>
        <time>2022-09-12T07:40:18Z</time>
      </trkpt>
      <trkpt lat="47.88038" lon="6.81243">
        <ele>696</ele>
        <time>2022-09-12T07:40:19Z</time>
      </trkpt>
      <trkpt lat="47.88038" lon="6.81244">
        <ele>696</ele>
        <time>2022-09-12T07:40:20Z</time>
      </trkpt>
      <trkpt lat="47.88037" lon="6.81245">
        <ele>697</ele>
        <time>2022-09-12T07:40:21Z</time>
      </trkpt>
      <trkpt lat="47.88037" lon="6.81246">
        <ele>697</ele>
        <time>2022-09-12T07:40:22Z</time>
      </trkpt>
      <trkpt lat="47.88037" lon="6.81247">
        <ele>697</ele>
        <time>2022-09-12T07:40:23Z</time>
      </trkpt>
      <trkpt lat="47.88037" lon="6.81247">
        <ele>697</ele>
        <time>2022-09-12T07:40:24Z</time>
      </trkpt>
      <trkpt lat="47.88036" lon="6.81248">
        <ele>697</ele>
        <time>2022-09-12T07:40:25Z</time>
      </trkpt>
      <trkpt lat="47.88036" lon="6.81248">
        <ele>697</ele>
        <time>2022-09-12T07:40:26Z</time>
      </trkpt>
      <trkpt lat="47.88035" lon="6.81249">
        <ele>697</ele>
        <time>2022-09-12T07:40:27Z</time>
      </trkpt>
      <trkpt lat="47.88035" lon="6.8125">
        <ele>697</ele>
        <time>2022-09-12T07:40:28Z</time>
      </trkpt>
      <trkpt lat="47.88035" lon="6.81251">
        <ele>697</ele>
        <time>2022-09-12T07:40:29Z</time>
      </trkpt>
      <trkpt lat="47.88034" lon="6.81251">
        <ele>697</ele>
        <time>2022-09-12T07:40:30Z</time>
      </trkpt>
      <trkpt lat="47.88034" lon="6.81252">
        <ele>698</ele>
        <time>2022-09-12T07:40:31Z</time>
      </trkpt>
      <trkpt lat="47.88033" lon="6.81253">
        <ele>698</ele>
        <time>2022-09-12T07:40:32Z</time>
      </trkpt>
      <trkpt lat="47.88033" lon="6.81254">
        <ele>698</ele>
        <time>2022-09-12T07:40:33Z</time>
      </trkpt>
      <trkpt lat="47.88033" lon="6.81254">
        <ele>698</ele>
        <time>2022-09-12T07:40:34Z</time>
      </trkpt>
      <trkpt lat="47.88032" lon="6.81255">
        <ele>698</ele>
        <time>2022-09-12T07:40:35Z</time>
      </trkpt>
      <trkpt lat="47.88032" lon="6.81256">
        <ele>699</ele>
        <time>2022-09-12T07:40:36Z</time>
      </trkpt>
      <trkpt lat="47.88031" lon="6.81257">
        <ele>699</ele>
        <time>2022-09-12T07:40:37Z</time>
      </trkpt>
      <trkpt lat="47.88031" lon="6.81258">
        <ele>699</ele>
        <time>2022-09-12T07:40:38Z</time>
      </trkpt>
      <trkpt lat="47.8803" lon="6.81259">
        <ele>699</ele>
        <time>2022-09-12T07:40:39Z</time>
      </trkpt>
      <trkpt lat="47.8803" lon="6.8126">
        <ele>699</ele>
        <time>2022-09-12T07:40:40Z</time>
      </trkpt>
      <trkpt lat="47.8803" lon="6.81261">
        <ele>700</ele>
        <time>2022-09-12T07:40:41Z</time>
      </trkpt>
      <trkpt lat="47.88029" lon="6.81262">
        <ele>700</ele>
        <time>2022-09-12T07:40:42Z</time>
      </trkpt>
      <trkpt lat="47.88029" lon="6.81263">
        <ele>700</ele>
        <time>2022-09-12T07:40:43Z</time>
      </trkpt>
      <trkpt lat="47.88029" lon="6.81264">
        <ele>700</ele>
        <time>2022-09-12T07:40:44Z</time>
      </trkpt>
      <trkpt lat="47.88029" lon="6.81265">
        <ele>700</ele>
        <time>2022-09-12T07:40:45Z</time>
      </trkpt>
      <trkpt lat="47.88029" lon="6.81266">
        <ele>700</ele>
        <time>2022-09-12T07:40:46Z</time>
      </trkpt>
      <trkpt lat="47.88028" lon="6.81267">
        <ele>700</ele>
        <time>2022-09-12T07:40:47Z</time>
      </trkpt>
      <trkpt lat="47.88028" lon="6.81267">
        <ele>700</ele>
        <time>2022-09-12T07:40:48Z</time>
      </trkpt>
      <trkpt lat="47.88028" lon="6.81268">
        <ele>700</ele>
        <time>2022-09-12T07:40:49Z</time>
      </trkpt>
      <trkpt lat="47.88027" lon="6.81269">
        <ele>700</ele>
        <time>2022-09-12T07:40:50Z</time>
      </trkpt>
      <trkpt lat="47.88027" lon="6.81269">
        <ele>701</ele>
        <time>2022-09-12T07:40:51Z</time>
      </trkpt>
      <trkpt lat="47.88027" lon="6.8127">
        <ele>701</ele>
        <time>2022-09-12T07:40:52Z</time>
      </trkpt>
      <trkpt lat="47.88026" lon="6.8127">
        <ele>701</ele>
        <time>2022-09-12T07:40:53Z</time>
      </trkpt>
      <trkpt lat="47.88026" lon="6.81271">
        <ele>701</ele>
        <time>2022-09-12T07:40:54Z</time>
      </trkpt>
      <trkpt lat="47.88026" lon="6.81271">
        <ele>701</ele>
        <time>2022-09-12T07:40:55Z</time>
      </trkpt>
      <trkpt lat="47.88025" lon="6.81272">
        <ele>702</ele>
        <time>2022-09-12T07:40:56Z</time>
      </trkpt>
      <trkpt lat="47.88025" lon="6.81273">
        <ele>702</ele>
        <time>2022-09-12T07:40:57Z</time>
      </trkpt>
      <trkpt lat="47.88024" lon="6.81274">
        <ele>702</ele>
        <time>2022-09-12T07:40:58Z</time>
      </trkpt>
      <trkpt lat="47.88024" lon="6.81275">
        <ele>702</ele>
        <time>2022-09-12T07:40:59Z</time>
      </trkpt>
      <trkpt lat="47.88023" lon="6.81276">
        <ele>702</ele>
        <time>2022-09-12T07:41:00Z</time>
      </trkpt>
      <trkpt lat="47.88022" lon="6.81277">
        <ele>703</ele>
        <time>2022-09-12T07:41:01Z</time>
      </trkpt>
      <trkpt lat="47.88022" lon="6.81278">
        <ele>703</ele>
        <time>2022-09-12T07:41:02Z</time>
      </trkpt>
      <trkpt lat="47.88021" lon="6.81278">
        <ele>703</ele>
        <time>2022-09-12T07:41:03Z</time>
      </trkpt>
      <trkpt lat="47.88021" lon="6.81279">
        <ele>703</ele>
        <time>2022-09-12T07:41:04Z</time>
      </trkpt>
      <trkpt lat="47.8802" lon="6.8128">
        <ele>703</ele>
        <time>2022-09-12T07:41:05Z</time>
      </trkpt>
      <trkpt lat="47.8802" lon="6.81281">
        <ele>703</ele>
        <time>2022-09-12T07:41:06Z</time>
      </trkpt>
      <trkpt lat="47.8802" lon="6.81282">
        <ele>703</ele>
        <time>2022-09-12T07:41:07Z</time>
      </trkpt>
      <trkpt lat="47.88019" lon="6.81283">
        <ele>703</ele>
        <time>2022-09-12T07:41:08Z</time>
      </trkpt>
      <trkpt lat="47.88019" lon="6.81284">
        <ele>703</ele>
        <time>2022-09-12T07:41:09Z</time>
      </trkpt>
      <trkpt lat="47.88018" lon="6.81285">
        <ele>703</ele>
        <time>2022-09-12T07:41:10Z</time>
      </trkpt>
      <trkpt lat="47.88018" lon="6.81285">
        <ele>704</ele>
        <time>2022-09-12T07:41:11Z</time>
      </trkpt>
      <trkpt lat="47.88017" lon="6.81286">
        <ele>704</ele>
        <time>2022-09-12T07:41:12Z</time>
      </trkpt>
      <trkpt lat="47.88017" lon="6.81287">
        <ele>704</ele>
        <time>2022-09-12T07:41:13Z</time>
      </trkpt>
      <trkpt lat="47.88017" lon="6.81287">
        <ele>704</ele>
        <time>2022-09-12T07:41:14Z</time>
      </trkpt>
      <trkpt lat="47.88016" lon="6.81288">
        <ele>704</ele>
        <time>2022-09-12T07:41:15Z</time>
      </trkpt>
      <trkpt lat="47.88015" lon="6.81289">
        <ele>705</ele>
        <time>2022-09-12T07:41:16Z</time>
      </trkpt>
      <trkpt lat="47.88015" lon="6.8129">
        <ele>705</ele>
        <time>2022-09-12T07:41:17Z</time>
      </trkpt>
      <trkpt lat="47.88014" lon="6.81291">
        <ele>705</ele>
        <time>2022-09-12T07:41:18Z</time>
      </trkpt>
      <trkpt lat="47.88014" lon="6.81292">
        <ele>705</ele>
        <time>2022-09-12T07:41:19Z</time>
      </trkpt>
      <trkpt lat="47.88013" lon="6.81293">
        <ele>705</ele>
        <time>2022-09-12T07:41:20Z</time>
      </trkpt>
      <trkpt lat="47.88013" lon="6.81294">
        <ele>705</ele>
        <time>2022-09-12T07:41:21Z</time>
      </trkpt>
      <trkpt lat="47.88013" lon="6.81294">
        <ele>705</ele>
        <time>2022-09-12T07:41:22Z</time>
      </trkpt>
      <trkpt lat="47.88012" lon="6.81295">
        <ele>705</ele>
        <time>2022-09-12T07:41:23Z</time>
      </trkpt>
      <trkpt lat="47.88011" lon="6.81296">
        <ele>705</ele>
        <time>2022-09-12T07:41:24Z</time>
      </trkpt>
      <trkpt lat="47.88011" lon="6.81297">
        <ele>705</ele>
        <time>2022-09-12T07:41:25Z</time>
      </trkpt>
      <trkpt lat="47.8801" lon="6.81298">
        <ele>706</ele>
        <time>2022-09-12T07:41:26Z</time>
      </trkpt>
      <trkpt lat="47.8801" lon="6.81298">
        <ele>706</ele>
        <time>2022-09-12T07:41:27Z</time>
      </trkpt>
      <trkpt lat="47.88009" lon="6.81299">
        <ele>706</ele>
        <time>2022-09-12T07:41:28Z</time>
      </trkpt>
      <trkpt lat="47.88009" lon="6.813">
        <ele>706</ele>
        <time>2022-09-12T07:41:29Z</time>
      </trkpt>
      <trkpt lat="47.88008" lon="6.81301">
        <ele>706</ele>
        <time>2022-09-12T07:41:30Z</time>
      </trkpt>
      <trkpt lat="47.88008" lon="6.81302">
        <ele>707</ele>
        <time>2022-09-12T07:41:31Z</time>
      </trkpt>
      <trkpt lat="47.88008" lon="6.81303">
        <ele>707</ele>
        <time>2022-09-12T07:41:32Z</time>
      </trkpt>
      <trkpt lat="47.88007" lon="6.81304">
        <ele>707</ele>
        <time>2022-09-12T07:41:33Z</time>
      </trkpt>
      <trkpt lat="47.88007" lon="6.81305">
        <ele>707</ele>
        <time>2022-09-12T07:41:34Z</time>
      </trkpt>
      <trkpt lat="47.88007" lon="6.81305">
        <ele>707</ele>
        <time>2022-09-12T07:41:35Z</time>
      </trkpt>
      <trkpt lat="47.88006" lon="6.81306">
        <ele>708</ele>
        <time>2022-09-12T07:41:36Z</time>
      </trkpt>
      <trkpt lat="47.88006" lon="6.81307">
        <ele>708</ele>
        <time>2022-09-12T07:41:37Z</time>
      </trkpt>
      <trkpt lat="47.88005" lon="6.81308">
        <ele>708</ele>
        <time>2022-09-12T07:41:38Z</time>
      </trkpt>
      <trkpt lat="47.88005" lon="6.81309">
        <ele>708</ele>
        <time>2022-09-12T07:41:39Z</time>
      </trkpt>
      <trkpt lat="47.88004" lon="6.8131">
        <ele>708</ele>
        <time>2022-09-12T07:41:40Z</time>
      </trkpt>
      <trkpt lat="47.88004" lon="6.81311">
        <ele>708</ele>
        <time>2022-09-12T07:41:41Z</time>
      </trkpt>
      <trkpt lat="47.88003" lon="6.81311">
        <ele>708</ele>
        <time>2022-09-12T07:41:42Z</time>
      </trkpt>
      <trkpt lat="47.88003" lon="6.81312">
        <ele>708</ele>
        <time>2022-09-12T07:41:43Z</time>
      </trkpt>
      <trkpt lat="47.88002" lon="6.81313">
        <ele>708</ele>
        <time>2022-09-12T07:41:44Z</time>
      </trkpt>
      <trkpt lat="47.88001" lon="6.81314">
        <ele>708</ele>
        <time>2022-09-12T07:41:45Z</time>
      </trkpt>
      <trkpt lat="47.88001" lon="6.81314">
        <ele>709</ele>
        <time>2022-09-12T07:41:46Z</time>
      </trkpt>
      <trkpt lat="47.88" lon="6.81315">
        <ele>709</ele>
        <time>2022-09-12T07:41:47Z</time>
      </trkpt>
      <trkpt lat="47.87999" lon="6.81315">
        <ele>709</ele>
        <time>2022-09-12T07:41:48Z</time>
      </trkpt>
      <trkpt lat="47.87998" lon="6.81316">
        <ele>709</ele>
        <time>2022-09-12T07:41:49Z</time>
      </trkpt>
      <trkpt lat="47.87998" lon="6.81317">
        <ele>709</ele>
        <time>2022-09-12T07:41:50Z</time>
      </trkpt>
      <trkpt lat="47.87997" lon="6.81318">
        <ele>709</ele>
        <time>2022-09-12T07:41:51Z</time>
      </trkpt>
      <trkpt lat="47.87997" lon="6.81319">
        <ele>709</ele>
        <time>2022-09-12T07:41:52Z</time>
      </trkpt>
      <trkpt lat="47.87997" lon="6.8132">
        <ele>709</ele>
        <time>2022-09-12T07:41:53Z</time>
      </trkpt>
      <trkpt lat="47.87996" lon="6.81321">
        <ele>709</ele>
        <time>2022-09-12T07:41:54Z</time>
      </trkpt>
      <trkpt lat="47.87996" lon="6.81322">
        <ele>709</ele>
        <time>2022-09-12T07:41:55Z</time>
      </trkpt>
      <trkpt lat="47.87996" lon="6.81323">
        <ele>710</ele>
        <time>2022-09-12T07:41:56Z</time>
      </trkpt>
      <trkpt lat="47.87995" lon="6.81323">
        <ele>710</ele>
        <time>2022-09-12T07:41:57Z</time>
      </trkpt>
      <trkpt lat="47.87995" lon="6.81324">
        <ele>710</ele>
        <time>2022-09-12T07:41:58Z</time>
      </trkpt>
      <trkpt lat="47.87995" lon="6.81325">
        <ele>710</ele>
        <time>2022-09-12T07:41:59Z</time>
      </trkpt>
      <trkpt lat="47.87994" lon="6.81326">
        <ele>710</ele>
        <time>2022-09-12T07:42:00Z</time>
      </trkpt>
      <trkpt lat="47.87994" lon="6.81327">
        <ele>711</ele>
        <time>2022-09-12T07:42:01Z</time>
      </trkpt>
      <trkpt lat="47.87994" lon="6.81328">
        <ele>711</ele>
        <time>2022-09-12T07:42:02Z</time>
      </trkpt>
      <trkpt lat="47.87993" lon="6.81329">
        <ele>711</ele>
        <time>2022-09-12T07:42:03Z</time>
      </trkpt>
      <trkpt lat="47.87993" lon="6.81329">
        <ele>711</ele>
        <time>2022-09-12T07:42:04Z</time>
      </trkpt>
      <trkpt lat="47.87993" lon="6.8133">
        <ele>711</ele>
        <time>2022-09-12T07:42:05Z</time>
      </trkpt>
      <trkpt lat="47.87992" lon="6.8133">
        <ele>711</ele>
        <time>2022-09-12T07:42:06Z</time>
      </trkpt>
      <trkpt lat="47.87992" lon="6.81331">
        <ele>711</ele>
        <time>2022-09-12T07:42:07Z</time>
      </trkpt>
      <trkpt lat="47.87992" lon="6.81332">
        <ele>711</ele>
        <time>2022-09-12T07:42:08Z</time>
      </trkpt>
      <trkpt lat="47.87991" lon="6.81332">
        <ele>711</ele>
        <time>2022-09-12T07:42:09Z</time>
      </trkpt>
      <trkpt lat="47.87991" lon="6.81333">
        <ele>711</ele>
        <time>2022-09-12T07:42:10Z</time>
      </trkpt>
      <trkpt lat="47.8799" lon="6.81333">
        <ele>712</ele>
        <time>2022-09-12T07:42:11Z</time>
      </trkpt>
      <trkpt lat="47.8799" lon="6.81334">
        <ele>712</ele>
        <time>2022-09-12T07:42:12Z</time>
      </trkpt>
      <trkpt lat="47.87989" lon="6.81334">
        <ele>712</ele>
        <time>2022-09-12T07:42:13Z</time>
      </trkpt>
      <trkpt lat="47.87989" lon="6.81335">
        <ele>712</ele>
        <time>2022-09-12T07:42:14Z</time>
      </trkpt>
      <trkpt lat="47.87988" lon="6.81336">
        <ele>712</ele>
        <time>2022-09-12T07:42:15Z</time>
      </trkpt>
      <trkpt lat="47.87988" lon="6.81337">
        <ele>712</ele>
        <time>2022-09-12T07:42:16Z</time>
      </trkpt>
      <trkpt lat="47.87987" lon="6.81337">
        <ele>712</ele>
        <time>2022-09-12T07:42:17Z</time>
      </trkpt>
      <trkpt lat="47.87987" lon="6.81338">
        <ele>712</ele>
        <time>2022-09-12T07:42:18Z</time>
      </trkpt>
      <trkpt lat="47.87987" lon="6.81339">
        <ele>712</ele>
        <time>2022-09-12T07:42:19Z</time>
      </trkpt>
      <trkpt lat="47.87986" lon="6.8134">
        <ele>712</ele>
        <time>2022-09-12T07:42:20Z</time>
      </trkpt>
      <trkpt lat="47.87985" lon="6.8134">
        <ele>713</ele>
        <time>2022-09-12T07:42:21Z</time>
      </trkpt>
      <trkpt lat="47.87985" lon="6.81341">
        <ele>713</ele>
        <time>2022-09-12T07:42:22Z</time>
      </trkpt>
      <trkpt lat="47.87985" lon="6.81341">
        <ele>713</ele>
        <time>2022-09-12T07:42:23Z</time>
      </trkpt>
      <trkpt lat="47.87984" lon="6.81342">
        <ele>713</ele>
        <time>2022-09-12T07:42:24Z</time>
      </trkpt>
      <trkpt lat="47.87984" lon="6.81343">
        <ele>714</ele>
        <time>2022-09-12T07:42:37Z</time>
      </trkpt>
      <trkpt lat="47.87983" lon="6.81344">
        <ele>714</ele>
        <time>2022-09-12T07:42:38Z</time>
      </trkpt>
      <trkpt lat="47.87983" lon="6.81345">
        <ele>714</ele>
        <time>2022-09-12T07:42:39Z</time>
      </trkpt>
      <trkpt lat="47.87982" lon="6.81345">
        <ele>714</ele>
        <time>2022-09-12T07:42:40Z</time>
      </trkpt>
      <trkpt lat="47.87982" lon="6.81346">
        <ele>715</ele>
        <time>2022-09-12T07:42:41Z</time>
      </trkpt>
      <trkpt lat="47.87982" lon="6.81346">
        <ele>715</ele>
        <time>2022-09-12T07:42:42Z</time>
      </trkpt>
      <trkpt lat="47.87981" lon="6.81347">
        <ele>715</ele>
        <time>2022-09-12T07:42:43Z</time>
      </trkpt>
      <trkpt lat="47.87981" lon="6.81347">
        <ele>715</ele>
        <time>2022-09-12T07:42:44Z</time>
      </trkpt>
      <trkpt lat="47.8798" lon="6.81347">
        <ele>715</ele>
        <time>2022-09-12T07:42:45Z</time>
      </trkpt>
      <trkpt lat="47.8798" lon="6.81348">
        <ele>715</ele>
        <time>2022-09-12T07:42:46Z</time>
      </trkpt>
      <trkpt lat="47.8798" lon="6.81348">
        <ele>715</ele>
        <time>2022-09-12T07:42:47Z</time>
      </trkpt>
      <trkpt lat="47.8798" lon="6.81348">
        <ele>715</ele>
        <time>2022-09-12T07:42:48Z</time>
      </trkpt>
      <trkpt lat="47.87979" lon="6.81348">
        <ele>715</ele>
        <time>2022-09-12T07:42:49Z</time>
      </trkpt>
      <trkpt lat="47.87979" lon="6.81349">
        <ele>715</ele>
        <time>2022-09-12T07:42:50Z</time>
      </trkpt>
      <trkpt lat="47.87978" lon="6.81349">
        <ele>715</ele>
        <time>2022-09-12T07:42:51Z</time>
      </trkpt>
      <trkpt lat="47.87977" lon="6.8135">
        <ele>715</ele>
        <time>2022-09-12T07:42:52Z</time>
      </trkpt>
      <trkpt lat="47.87977" lon="6.8135">
        <ele>715</ele>
        <time>2022-09-12T07:42:53Z</time>
      </trkpt>
      <trkpt lat="47.87976" lon="6.8135">
        <ele>715</ele>
        <time>2022-09-12T07:42:54Z</time>
      </trkpt>
      <trkpt lat="47.87976" lon="6.81351">
        <ele>715</ele>
        <time>2022-09-12T07:42:55Z</time>
      </trkpt>
      <trkpt lat="47.87975" lon="6.81351">
        <ele>716</ele>
        <time>2022-09-12T07:42:56Z</time>
      </trkpt>
      <trkpt lat="47.87974" lon="6.81351">
        <ele>716</ele>
        <time>2022-09-12T07:42:57Z</time>
      </trkpt>
      <trkpt lat="47.87973" lon="6.81352">
        <ele>716</ele>
        <time>2022-09-12T07:42:58Z</time>
      </trkpt>
      <trkpt lat="47.87972" lon="6.81352">
        <ele>716</ele>
        <time>2022-09-12T07:42:59Z</time>
      </trkpt>
      <trkpt lat="47.87972" lon="6.81352">
        <ele>716</ele>
        <time>2022-09-12T07:43:00Z</time>
      </trkpt>
      <trkpt lat="47.87971" lon="6.81352">
        <ele>717</ele>
        <time>2022-09-12T07:43:01Z</time>
      </trkpt>
      <trkpt lat="47.8797" lon="6.81353">
        <ele>717</ele>
        <time>2022-09-12T07:43:02Z</time>
      </trkpt>
      <trkpt lat="47.87969" lon="6.81353">
        <ele>717</ele>
        <time>2022-09-12T07:43:03Z</time>
      </trkpt>
      <trkpt lat="47.87968" lon="6.81353">
        <ele>717</ele>
        <time>2022-09-12T07:43:04Z</time>
      </trkpt>
      <trkpt lat="47.87967" lon="6.81353">
        <ele>717</ele>
        <time>2022-09-12T07:43:05Z</time>
      </trkpt>
      <trkpt lat="47.87966" lon="6.81353">
        <ele>718</ele>
        <time>2022-09-12T07:43:06Z</time>
      </trkpt>
      <trkpt lat="47.87966" lon="6.81353">
        <ele>718</ele>
        <time>2022-09-12T07:43:07Z</time>
      </trkpt>
      <trkpt lat="47.87965" lon="6.81353">
        <ele>718</ele>
        <time>2022-09-12T07:43:08Z</time>
      </trkpt>
      <trkpt lat="47.87964" lon="6.81353">
        <ele>718</ele>
        <time>2022-09-12T07:43:09Z</time>
      </trkpt>
      <trkpt lat="47.87963" lon="6.81354">
        <ele>718</ele>
        <time>2022-09-12T07:43:10Z</time>
      </trkpt>
      <trkpt lat="47.87962" lon="6.81354">
        <ele>719</ele>
        <time>2022-09-12T07:43:11Z</time>
      </trkpt>
      <trkpt lat="47.87962" lon="6.81354">
        <ele>719</ele>
        <time>2022-09-12T07:43:12Z</time>
      </trkpt>
      <trkpt lat="47.87961" lon="6.81355">
        <ele>719</ele>
        <time>2022-09-12T07:43:13Z</time>
      </trkpt>
      <trkpt lat="47.8796" lon="6.81356">
        <ele>719</ele>
        <time>2022-09-12T07:43:14Z</time>
      </trkpt>
      <trkpt lat="47.8796" lon="6.81356">
        <ele>719</ele>
        <time>2022-09-12T07:43:15Z</time>
      </trkpt>
      <trkpt lat="47.87959" lon="6.81357">
        <ele>719</ele>
        <time>2022-09-12T07:43:16Z</time>
      </trkpt>
      <trkpt lat="47.87958" lon="6.81358">
        <ele>719</ele>
        <time>2022-09-12T07:43:17Z</time>
      </trkpt>
      <trkpt lat="47.87958" lon="6.81358">
        <ele>719</ele>
        <time>2022-09-12T07:43:18Z</time>
      </trkpt>
      <trkpt lat="47.87957" lon="6.81359">
        <ele>719</ele>
        <time>2022-09-12T07:43:19Z</time>
      </trkpt>
      <trkpt lat="47.87956" lon="6.8136">
        <ele>719</ele>
        <time>2022-09-12T07:43:20Z</time>
      </trkpt>
      <trkpt lat="47.87956" lon="6.8136">
        <ele>720</ele>
        <time>2022-09-12T07:43:21Z</time>
      </trkpt>
      <trkpt lat="47.87955" lon="6.81361">
        <ele>720</ele>
        <time>2022-09-12T07:43:22Z</time>
      </trkpt>
      <trkpt lat="47.87955" lon="6.81362">
        <ele>720</ele>
        <time>2022-09-12T07:43:23Z</time>
      </trkpt>
      <trkpt lat="47.87954" lon="6.81364">
        <ele>720</ele>
        <time>2022-09-12T07:43:24Z</time>
      </trkpt>
      <trkpt lat="47.87954" lon="6.81365">
        <ele>720</ele>
        <time>2022-09-12T07:43:25Z</time>
      </trkpt>
      <trkpt lat="47.87953" lon="6.81366">
        <ele>721</ele>
        <time>2022-09-12T07:43:26Z</time>
      </trkpt>
      <trkpt lat="47.87953" lon="6.81368">
        <ele>721</ele>
        <time>2022-09-12T07:43:27Z</time>
      </trkpt>
      <trkpt lat="47.87952" lon="6.81369">
        <ele>721</ele>
        <time>2022-09-12T07:43:28Z</time>
      </trkpt>
      <trkpt lat="47.87951" lon="6.8137">
        <ele>721</ele>
        <time>2022-09-12T07:43:29Z</time>
      </trkpt>
      <trkpt lat="47.87951" lon="6.81371">
        <ele>721</ele>
        <time>2022-09-12T07:43:30Z</time>
      </trkpt>
      <trkpt lat="47.8795" lon="6.81372">
        <ele>721</ele>
        <time>2022-09-12T07:43:31Z</time>
      </trkpt>
      <trkpt lat="47.87949" lon="6.81372">
        <ele>721</ele>
        <time>2022-09-12T07:43:32Z</time>
      </trkpt>
      <trkpt lat="47.87949" lon="6.81373">
        <ele>721</ele>
        <time>2022-09-12T07:43:33Z</time>
      </trkpt>
      <trkpt lat="47.87948" lon="6.81373">
        <ele>721</ele>
        <time>2022-09-12T07:43:34Z</time>
      </trkpt>
      <trkpt lat="47.87948" lon="6.81374">
        <ele>721</ele>
        <time>2022-09-12T07:43:35Z</time>
      </trkpt>
      <trkpt lat="47.87947" lon="6.81374">
        <ele>722</ele>
        <time>2022-09-12T07:43:36Z</time>
      </trkpt>
      <trkpt lat="47.87946" lon="6.81374">
        <ele>722</ele>
        <time>2022-09-12T07:43:37Z</time>
      </trkpt>
      <trkpt lat="47.87946" lon="6.81375">
        <ele>722</ele>
        <time>2022-09-12T07:43:38Z</time>
      </trkpt>
      <trkpt lat="47.87945" lon="6.81375">
        <ele>723</ele>
        <time>2022-09-12T07:43:39Z</time>
      </trkpt>
      <trkpt lat="47.87944" lon="6.81376">
        <ele>723</ele>
        <time>2022-09-12T07:43:40Z</time>
      </trkpt>
      <trkpt lat="47.87944" lon="6.81376">
        <ele>724</ele>
        <time>2022-09-12T07:43:41Z</time>
      </trkpt>
      <trkpt lat="47.87943" lon="6.81376">
        <ele>724</ele>
        <time>2022-09-12T07:43:42Z</time>
      </trkpt>
      <trkpt lat="47.87943" lon="6.81377">
        <ele>724</ele>
        <time>2022-09-12T07:43:43Z</time>
      </trkpt>
      <trkpt lat="47.87942" lon="6.81378">
        <ele>724</ele>
        <time>2022-09-12T07:43:44Z</time>
      </trkpt>
      <trkpt lat="47.87941" lon="6.81378">
        <ele>724</ele>
        <time>2022-09-12T07:43:45Z</time>
      </trkpt>
      <trkpt lat="47.8794" lon="6.81379">
        <ele>724</ele>
        <time>2022-09-12T07:43:46Z</time>
      </trkpt>
      <trkpt lat="47.87939" lon="6.81379">
        <ele>724</ele>
        <time>2022-09-12T07:43:47Z</time>
      </trkpt>
      <trkpt lat="47.87938" lon="6.8138">
        <ele>724</ele>
        <time>2022-09-12T07:43:48Z</time>
      </trkpt>
      <trkpt lat="47.87937" lon="6.81381">
        <ele>724</ele>
        <time>2022-09-12T07:43:49Z</time>
      </trkpt>
      <trkpt lat="47.87936" lon="6.81381">
        <ele>724</ele>
        <time>2022-09-12T07:43:50Z</time>
      </trkpt>
      <trkpt lat="47.87936" lon="6.81382">
        <ele>725</ele>
        <time>2022-09-12T07:43:51Z</time>
      </trkpt>
      <trkpt lat="47.87935" lon="6.81382">
        <ele>725</ele>
        <time>2022-09-12T07:43:52Z</time>
      </trkpt>
      <trkpt lat="47.87934" lon="6.81383">
        <ele>725</ele>
        <time>2022-09-12T07:43:53Z</time>
      </trkpt>
      <trkpt lat="47.87934" lon="6.81383">
        <ele>725</ele>
        <time>2022-09-12T07:43:54Z</time>
      </trkpt>
      <trkpt lat="47.87933" lon="6.81384">
        <ele>725</ele>
        <time>2022-09-12T07:43:55Z</time>
      </trkpt>
      <trkpt lat="47.87932" lon="6.81385">
        <ele>726</ele>
        <time>2022-09-12T07:43:56Z</time>
      </trkpt>
      <trkpt lat="47.87931" lon="6.81385">
        <ele>726</ele>
        <time>2022-09-12T07:43:57Z</time>
      </trkpt>
      <trkpt lat="47.8793" lon="6.81386">
        <ele>726</ele>
        <time>2022-09-12T07:43:58Z</time>
      </trkpt>
      <trkpt lat="47.8793" lon="6.81387">
        <ele>726</ele>
        <time>2022-09-12T07:43:59Z</time>
      </trkpt>
      <trkpt lat="47.87929" lon="6.81388">
        <ele>726</ele>
        <time>2022-09-12T07:44:00Z</time>
      </trkpt>
      <trkpt lat="47.87928" lon="6.81389">
        <ele>726</ele>
        <time>2022-09-12T07:44:01Z</time>
      </trkpt>
      <trkpt lat="47.87927" lon="6.81389">
        <ele>726</ele>
        <time>2022-09-12T07:44:02Z</time>
      </trkpt>
      <trkpt lat="47.87926" lon="6.8139">
        <ele>726</ele>
        <time>2022-09-12T07:44:03Z</time>
      </trkpt>
      <trkpt lat="47.87926" lon="6.8139">
        <ele>726</ele>
        <time>2022-09-12T07:44:04Z</time>
      </trkpt>
      <trkpt lat="47.87925" lon="6.81391">
        <ele>726</ele>
        <time>2022-09-12T07:44:05Z</time>
      </trkpt>
      <trkpt lat="47.87924" lon="6.81391">
        <ele>727</ele>
        <time>2022-09-12T07:44:06Z</time>
      </trkpt>
      <trkpt lat="47.87923" lon="6.81391">
        <ele>727</ele>
        <time>2022-09-12T07:44:07Z</time>
      </trkpt>
      <trkpt lat="47.87922" lon="6.81392">
        <ele>727</ele>
        <time>2022-09-12T07:44:08Z</time>
      </trkpt>
      <trkpt lat="47.87921" lon="6.81392">
        <ele>727</ele>
        <time>2022-09-12T07:44:09Z</time>
      </trkpt>
      <trkpt lat="47.87921" lon="6.81392">
        <ele>727</ele>
        <time>2022-09-12T07:44:10Z</time>
      </trkpt>
      <trkpt lat="47.8792" lon="6.81393">
        <ele>728</ele>
        <time>2022-09-12T07:44:11Z</time>
      </trkpt>
      <trkpt lat="47.87919" lon="6.81394">
        <ele>728</ele>
        <time>2022-09-12T07:44:12Z</time>
      </trkpt>
      <trkpt lat="47.87918" lon="6.81394">
        <ele>728</ele>
        <time>2022-09-12T07:44:13Z</time>
      </trkpt>
      <trkpt lat="47.87918" lon="6.81395">
        <ele>728</ele>
        <time>2022-09-12T07:44:14Z</time>
      </trkpt>
      <trkpt lat="47.87917" lon="6.81395">
        <ele>728</ele>
        <time>2022-09-12T07:44:15Z</time>
      </trkpt>
      <trkpt lat="47.87916" lon="6.81395">
        <ele>728</ele>
        <time>2022-09-12T07:44:16Z</time>
      </trkpt>
      <trkpt lat="47.87915" lon="6.81396">
        <ele>728</ele>
        <time>2022-09-12T07:44:17Z</time>
      </trkpt>
      <trkpt lat="47.87915" lon="6.81396">
        <ele>728</ele>
        <time>2022-09-12T07:44:18Z</time>
      </trkpt>
      <trkpt lat="47.87914" lon="6.81397">
        <ele>728</ele>
        <time>2022-09-12T07:44:19Z</time>
      </trkpt>
      <trkpt lat="47.87913" lon="6.81397">
        <ele>728</ele>
        <time>2022-09-12T07:44:20Z</time>
      </trkpt>
      <trkpt lat="47.87913" lon="6.81398">
        <ele>729</ele>
        <time>2022-09-12T07:44:21Z</time>
      </trkpt>
      <trkpt lat="47.87912" lon="6.81399">
        <ele>729</ele>
        <time>2022-09-12T07:44:22Z</time>
      </trkpt>
      <trkpt lat="47.87912" lon="6.81399">
        <ele>729</ele>
        <time>2022-09-12T07:44:23Z</time>
      </trkpt>
      <trkpt lat="47.87911" lon="6.814">
        <ele>729</ele>
        <time>2022-09-12T07:44:24Z</time>
      </trkpt>
      <trkpt lat="47.87911" lon="6.81401">
        <ele>729</ele>
        <time>2022-09-12T07:44:25Z</time>
      </trkpt>
      <trkpt lat="47.8791" lon="6.81402">
        <ele>730</ele>
        <time>2022-09-12T07:44:26Z</time>
      </trkpt>
      <trkpt lat="47.8791" lon="6.81402">
        <ele>730</ele>
        <time>2022-09-12T07:44:27Z</time>
      </trkpt>
      <trkpt lat="47.8791" lon="6.81403">
        <ele>730</ele>
        <time>2022-09-12T07:44:28Z</time>
      </trkpt>
      <trkpt lat="47.87909" lon="6.81404">
        <ele>730</ele>
        <time>2022-09-12T07:44:29Z</time>
      </trkpt>
      <trkpt lat="47.87908" lon="6.81405">
        <ele>730</ele>
        <time>2022-09-12T07:44:30Z</time>
      </trkpt>
      <trkpt lat="47.87908" lon="6.81405">
        <ele>730</ele>
        <time>2022-09-12T07:44:31Z</time>
      </trkpt>
      <trkpt lat="47.87907" lon="6.81406">
        <ele>730</ele>
        <time>2022-09-12T07:44:32Z</time>
      </trkpt>
      <trkpt lat="47.87907" lon="6.81407">
        <ele>730</ele>
        <time>2022-09-12T07:44:33Z</time>
      </trkpt>
      <trkpt lat="47.87906" lon="6.81407">
        <ele>730</ele>
        <time>2022-09-12T07:44:34Z</time>
      </trkpt>
      <trkpt lat="47.87906" lon="6.81408">
        <ele>730</ele>
        <time>2022-09-12T07:44:35Z</time>
      </trkpt>
      <trkpt lat="47.87905" lon="6.81408">
        <ele>731</ele>
        <time>2022-09-12T07:44:36Z</time>
      </trkpt>
      <trkpt lat="47.87904" lon="6.81409">
        <ele>731</ele>
        <time>2022-09-12T07:44:37Z</time>
      </trkpt>
      <trkpt lat="47.87904" lon="6.8141">
        <ele>731</ele>
        <time>2022-09-12T07:44:38Z</time>
      </trkpt>
      <trkpt lat="47.87903" lon="6.81411">
        <ele>731</ele>
        <time>2022-09-12T07:44:39Z</time>
      </trkpt>
      <trkpt lat="47.87902" lon="6.81412">
        <ele>731</ele>
        <time>2022-09-12T07:44:40Z</time>
      </trkpt>
      <trkpt lat="47.87902" lon="6.81412">
        <ele>731</ele>
        <time>2022-09-12T07:44:41Z</time>
      </trkpt>
      <trkpt lat="47.87901" lon="6.81413">
        <ele>731</ele>
        <time>2022-09-12T07:44:42Z</time>
      </trkpt>
      <trkpt lat="47.879" lon="6.81414">
        <ele>731</ele>
        <time>2022-09-12T07:44:43Z</time>
      </trkpt>
      <trkpt lat="47.879" lon="6.81415">
        <ele>731</ele>
        <time>2022-09-12T07:44:44Z</time>
      </trkpt>
      <trkpt lat="47.87899" lon="6.81416">
        <ele>731</ele>
        <time>2022-09-12T07:44:45Z</time>
      </trkpt>
      <trkpt lat="47.87899" lon="6.81417">
        <ele>731</ele>
        <time>2022-09-12T07:44:46Z</time>
      </trkpt>
      <trkpt lat="47.87899" lon="6.81418">
        <ele>731</ele>
        <time>2022-09-12T07:44:47Z</time>
      </trkpt>
      <trkpt lat="47.87899" lon="6.81419">
        <ele>731</ele>
        <time>2022-09-12T07:44:48Z</time>
      </trkpt>
      <trkpt lat="47.879" lon="6.8142">
        <ele>731</ele>
        <time>2022-09-12T07:44:49Z</time>
      </trkpt>
      <trkpt lat="47.879" lon="6.81421">
        <ele>731</ele>
        <time>2022-09-12T07:44:50Z</time>
      </trkpt>
      <trkpt lat="47.879" lon="6.81422">
        <ele>732</ele>
        <time>2022-09-12T07:44:51Z</time>
      </trkpt>
      <trkpt lat="47.87899" lon="6.81423">
        <ele>732</ele>
        <time>2022-09-12T07:44:52Z</time>
      </trkpt>
      <trkpt lat="47.87899" lon="6.81424">
        <ele>732</ele>
        <time>2022-09-12T07:44:53Z</time>
      </trkpt>
      <trkpt lat="47.87899" lon="6.81425">
        <ele>732</ele>
        <time>2022-09-12T07:44:54Z</time>
      </trkpt>
      <trkpt lat="47.87899" lon="6.81426">
        <ele>732</ele>
        <time>2022-09-12T07:44:55Z</time>
      </trkpt>
      <trkpt lat="47.87898" lon="6.81427">
        <ele>732</ele>
        <time>2022-09-12T07:44:56Z</time>
      </trkpt>
      <trkpt lat="47.87898" lon="6.81428">
        <ele>732</ele>
        <time>2022-09-12T07:44:57Z</time>
      </trkpt>
      <trkpt lat="47.87898" lon="6.81429">
        <ele>732</ele>
        <time>2022-09-12T07:44:58Z</time>
      </trkpt>
      <trkpt lat="47.87898" lon="6.8143">
        <ele>732</ele>
        <time>2022-09-12T07:44:59Z</time>
      </trkpt>
      <trkpt lat="47.87897" lon="6.81431">
        <ele>732</ele>
        <time>2022-09-12T07:45:00Z</time>
      </trkpt>
      <trkpt lat="47.87897" lon="6.81432">
        <ele>733</ele>
        <time>2022-09-12T07:45:01Z</time>
      </trkpt>
      <trkpt lat="47.87896" lon="6.81433">
        <ele>733</ele>
        <time>2022-09-12T07:45:02Z</time>
      </trkpt>
      <trkpt lat="47.87896" lon="6.81434">
        <ele>733</ele>
        <time>2022-09-12T07:45:03Z</time>
      </trkpt>
      <trkpt lat="47.87895" lon="6.81435">
        <ele>733</ele>
        <time>2022-09-12T07:45:04Z</time>
      </trkpt>
      <trkpt lat="47.87895" lon="6.81436">
        <ele>733</ele>
        <time>2022-09-12T07:45:05Z</time>
      </trkpt>
      <trkpt lat="47.87895" lon="6.81437">
        <ele>734</ele>
        <time>2022-09-12T07:45:06Z</time>
      </trkpt>
      <trkpt lat="47.87894" lon="6.81438">
        <ele>734</ele>
        <time>2022-09-12T07:45:07Z</time>
      </trkpt>
      <trkpt lat="47.87894" lon="6.81439">
        <ele>734</ele>
        <time>2022-09-12T07:45:08Z</time>
      </trkpt>
      <trkpt lat="47.87894" lon="6.8144">
        <ele>734</ele>
        <time>2022-09-12T07:45:09Z</time>
      </trkpt>
      <trkpt lat="47.87893" lon="6.81441">
        <ele>734</ele>
        <time>2022-09-12T07:45:10Z</time>
      </trkpt>
      <trkpt lat="47.87893" lon="6.81441">
        <ele>734</ele>
        <time>2022-09-12T07:45:11Z</time>
      </trkpt>
      <trkpt lat="47.87893" lon="6.81442">
        <ele>734</ele>
        <time>2022-09-12T07:45:12Z</time>
      </trkpt>
      <trkpt lat="47.87893" lon="6.81443">
        <ele>734</ele>
        <time>2022-09-12T07:45:13Z</time>
      </trkpt>
      <trkpt lat="47.87892" lon="6.81444">
        <ele>734</ele>
        <time>2022-09-12T07:45:14Z</time>
      </trkpt>
      <trkpt lat="47.87892" lon="6.81445">
        <ele>734</ele>
        <time>2022-09-12T07:45:15Z</time>
      </trkpt>
      <trkpt lat="47.87891" lon="6.81446">
        <ele>734</ele>
        <time>2022-09-12T07:45:16Z</time>
      </trkpt>
      <trkpt lat="47.87891" lon="6.81447">
        <ele>734</ele>
        <time>2022-09-12T07:45:17Z</time>
      </trkpt>
      <trkpt lat="47.8789" lon="6.81448">
        <ele>734</ele>
        <time>2022-09-12T07:45:18Z</time>
      </trkpt>
      <trkpt lat="47.8789" lon="6.81449">
        <ele>734</ele>
        <time>2022-09-12T07:45:19Z</time>
      </trkpt>
      <trkpt lat="47.87889" lon="6.8145">
        <ele>734</ele>
        <time>2022-09-12T07:45:20Z</time>
      </trkpt>
      <trkpt lat="47.87889" lon="6.81451">
        <ele>735</ele>
        <time>2022-09-12T07:45:21Z</time>
      </trkpt>
      <trkpt lat="47.87889" lon="6.81452">
        <ele>735</ele>
        <time>2022-09-12T07:45:22Z</time>
      </trkpt>
      <trkpt lat="47.87889" lon="6.81453">
        <ele>735</ele>
        <time>2022-09-12T07:45:23Z</time>
      </trkpt>
      <trkpt lat="47.87889" lon="6.81454">
        <ele>735</ele>
        <time>2022-09-12T07:45:24Z</time>
      </trkpt>
      <trkpt lat="47.87889" lon="6.81455">
        <ele>735</ele>
        <time>2022-09-12T07:45:25Z</time>
      </trkpt>
      <trkpt lat="47.87888" lon="6.81456">
        <ele>736</ele>
        <time>2022-09-12T07:45:26Z</time>
      </trkpt>
      <trkpt lat="47.87888" lon="6.81457">
        <ele>736</ele>
        <time>2022-09-12T07:45:27Z</time>
      </trkpt>
      <trkpt lat="47.87888" lon="6.81458">
        <ele>736</ele>
        <time>2022-09-12T07:45:28Z</time>
      </trkpt>
      <trkpt lat="47.87888" lon="6.8146">
        <ele>736</ele>
        <time>2022-09-12T07:45:29Z</time>
      </trkpt>
      <trkpt lat="47.87888" lon="6.81461">
        <ele>736</ele>
        <time>2022-09-12T07:45:30Z</time>
      </trkpt>
      <trkpt lat="47.87888" lon="6.81462">
        <ele>737</ele>
        <time>2022-09-12T07:45:31Z</time>
      </trkpt>
      <trkpt lat="47.87888" lon="6.81463">
        <ele>737</ele>
        <time>2022-09-12T07:45:32Z</time>
      </trkpt>
      <trkpt lat="47.87888" lon="6.81464">
        <ele>737</ele>
        <time>2022-09-12T07:45:33Z</time>
      </trkpt>
      <trkpt lat="47.87888" lon="6.81465">
        <ele>737</ele>
        <time>2022-09-12T07:45:34Z</time>
      </trkpt>
      <trkpt lat="47.87887" lon="6.81466">
        <ele>737</ele>
        <time>2022-09-12T07:45:35Z</time>
      </trkpt>
      <trkpt lat="47.87887" lon="6.81467">
        <ele>737</ele>
        <time>2022-09-12T07:45:36Z</time>
      </trkpt>
      <trkpt lat="47.87887" lon="6.81468">
        <ele>737</ele>
        <time>2022-09-12T07:45:37Z</time>
      </trkpt>
      <trkpt lat="47.87887" lon="6.8147">
        <ele>737</ele>
        <time>2022-09-12T07:45:38Z</time>
      </trkpt>
      <trkpt lat="47.87887" lon="6.81471">
        <ele>737</ele>
        <time>2022-09-12T07:45:39Z</time>
      </trkpt>
      <trkpt lat="47.87887" lon="6.81472">
        <ele>737</ele>
        <time>2022-09-12T07:45:40Z</time>
      </trkpt>
      <trkpt lat="47.87887" lon="6.81473">
        <ele>738</ele>
        <time>2022-09-12T07:45:41Z</time>
      </trkpt>
      <trkpt lat="47.87886" lon="6.81475">
        <ele>738</ele>
        <time>2022-09-12T07:45:42Z</time>
      </trkpt>
      <trkpt lat="47.87886" lon="6.81476">
        <ele>738</ele>
        <time>2022-09-12T07:45:43Z</time>
      </trkpt>
      <trkpt lat="47.87886" lon="6.81477">
        <ele>738</ele>
        <time>2022-09-12T07:45:44Z</time>
      </trkpt>
      <trkpt lat="47.87886" lon="6.81478">
        <ele>738</ele>
        <time>2022-09-12T07:45:45Z</time>
      </trkpt>
      <trkpt lat="47.87885" lon="6.81479">
        <ele>738</ele>
        <time>2022-09-12T07:45:46Z</time>
      </trkpt>
      <trkpt lat="47.87885" lon="6.8148">
        <ele>738</ele>
        <time>2022-09-12T07:45:47Z</time>
      </trkpt>
      <trkpt lat="47.87885" lon="6.81481">
        <ele>738</ele>
        <time>2022-09-12T07:45:48Z</time>
      </trkpt>
      <trkpt lat="47.87885" lon="6.81483">
        <ele>738</ele>
        <time>2022-09-12T07:45:49Z</time>
      </trkpt>
      <trkpt lat="47.87885" lon="6.81484">
        <ele>738</ele>
        <time>2022-09-12T07:45:50Z</time>
      </trkpt>
      <trkpt lat="47.87885" lon="6.81485">
        <ele>739</ele>
        <time>2022-09-12T07:45:51Z</time>
      </trkpt>
      <trkpt lat="47.87885" lon="6.81486">
        <ele>739</ele>
        <time>2022-09-12T07:45:52Z</time>
      </trkpt>
      <trkpt lat="47.87885" lon="6.81487">
        <ele>739</ele>
        <time>2022-09-12T07:45:53Z</time>
      </trkpt>
      <trkpt lat="47.87885" lon="6.81488">
        <ele>739</ele>
        <time>2022-09-12T07:45:54Z</time>
      </trkpt>
      <trkpt lat="47.87884" lon="6.81489">
        <ele>739</ele>
        <time>2022-09-12T07:45:55Z</time>
      </trkpt>
      <trkpt lat="47.87884" lon="6.81491">
        <ele>740</ele>
        <time>2022-09-12T07:45:56Z</time>
      </trkpt>
      <trkpt lat="47.87884" lon="6.81491">
        <ele>740</ele>
        <time>2022-09-12T07:45:57Z</time>
      </trkpt>
      <trkpt lat="47.87884" lon="6.81492">
        <ele>740</ele>
        <time>2022-09-12T07:45:58Z</time>
      </trkpt>
      <trkpt lat="47.87884" lon="6.81493">
        <ele>740</ele>
        <time>2022-09-12T07:45:59Z</time>
      </trkpt>
      <trkpt lat="47.87883" lon="6.81494">
        <ele>740</ele>
        <time>2022-09-12T07:46:00Z</time>
      </trkpt>
      <trkpt lat="47.87883" lon="6.81495">
        <ele>740</ele>
        <time>2022-09-12T07:46:01Z</time>
      </trkpt>
      <trkpt lat="47.87882" lon="6.81496">
        <ele>740</ele>
        <time>2022-09-12T07:46:02Z</time>
      </trkpt>
      <trkpt lat="47.87882" lon="6.81497">
        <ele>740</ele>
        <time>2022-09-12T07:46:03Z</time>
      </trkpt>
      <trkpt lat="47.87882" lon="6.81498">
        <ele>740</ele>
        <time>2022-09-12T07:46:04Z</time>
      </trkpt>
      <trkpt lat="47.87881" lon="6.81499">
        <ele>740</ele>
        <time>2022-09-12T07:46:05Z</time>
      </trkpt>
      <trkpt lat="47.87881" lon="6.815">
        <ele>741</ele>
        <time>2022-09-12T07:46:06Z</time>
      </trkpt>
      <trkpt lat="47.87881" lon="6.81501">
        <ele>741</ele>
        <time>2022-09-12T07:46:07Z</time>
      </trkpt>
      <trkpt lat="47.87881" lon="6.81503">
        <ele>741</ele>
        <time>2022-09-12T07:46:08Z</time>
      </trkpt>
      <trkpt lat="47.87881" lon="6.81504">
        <ele>741</ele>
        <time>2022-09-12T07:46:09Z</time>
      </trkpt>
      <trkpt lat="47.87881" lon="6.81505">
        <ele>741</ele>
        <time>2022-09-12T07:46:10Z</time>
      </trkpt>
      <trkpt lat="47.87881" lon="6.81506">
        <ele>741</ele>
        <time>2022-09-12T07:46:11Z</time>
      </trkpt>
      <trkpt lat="47.8788" lon="6.81507">
        <ele>741</ele>
        <time>2022-09-12T07:46:12Z</time>
      </trkpt>
      <trkpt lat="47.8788" lon="6.81509">
        <ele>741</ele>
        <time>2022-09-12T07:46:13Z</time>
      </trkpt>
      <trkpt lat="47.8788" lon="6.8151">
        <ele>741</ele>
        <time>2022-09-12T07:46:14Z</time>
      </trkpt>
      <trkpt lat="47.8788" lon="6.81511">
        <ele>741</ele>
        <time>2022-09-12T07:46:15Z</time>
      </trkpt>
      <trkpt lat="47.87879" lon="6.81512">
        <ele>742</ele>
        <time>2022-09-12T07:46:16Z</time>
      </trkpt>
      <trkpt lat="47.87879" lon="6.81514">
        <ele>742</ele>
        <time>2022-09-12T07:46:17Z</time>
      </trkpt>
      <trkpt lat="47.87878" lon="6.81515">
        <ele>742</ele>
        <time>2022-09-12T07:46:18Z</time>
      </trkpt>
      <trkpt lat="47.87878" lon="6.81516">
        <ele>742</ele>
        <time>2022-09-12T07:46:19Z</time>
      </trkpt>
      <trkpt lat="47.87878" lon="6.81517">
        <ele>742</ele>
        <time>2022-09-12T07:46:20Z</time>
      </trkpt>
      <trkpt lat="47.87878" lon="6.81519">
        <ele>742</ele>
        <time>2022-09-12T07:46:21Z</time>
      </trkpt>
      <trkpt lat="47.87879" lon="6.8152">
        <ele>742</ele>
        <time>2022-09-12T07:46:22Z</time>
      </trkpt>
      <trkpt lat="47.87879" lon="6.81521">
        <ele>742</ele>
        <time>2022-09-12T07:46:23Z</time>
      </trkpt>
      <trkpt lat="47.87879" lon="6.81522">
        <ele>742</ele>
        <time>2022-09-12T07:46:24Z</time>
      </trkpt>
      <trkpt lat="47.87879" lon="6.81523">
        <ele>742</ele>
        <time>2022-09-12T07:46:25Z</time>
      </trkpt>
      <trkpt lat="47.8788" lon="6.81525">
        <ele>743</ele>
        <time>2022-09-12T07:46:26Z</time>
      </trkpt>
      <trkpt lat="47.8788" lon="6.81526">
        <ele>743</ele>
        <time>2022-09-12T07:46:27Z</time>
      </trkpt>
      <trkpt lat="47.8788" lon="6.81527">
        <ele>743</ele>
        <time>2022-09-12T07:46:28Z</time>
      </trkpt>
      <trkpt lat="47.8788" lon="6.81528">
        <ele>743</ele>
        <time>2022-09-12T07:46:29Z</time>
      </trkpt>
      <trkpt lat="47.8788" lon="6.8153">
        <ele>743</ele>
        <time>2022-09-12T07:46:30Z</time>
      </trkpt>
      <trkpt lat="47.8788" lon="6.81531">
        <ele>744</ele>
        <time>2022-09-12T07:46:31Z</time>
      </trkpt>
      <trkpt lat="47.8788" lon="6.81532">
        <ele>744</ele>
        <time>2022-09-12T07:46:32Z</time>
      </trkpt>
      <trkpt lat="47.8788" lon="6.81534">
        <ele>744</ele>
        <time>2022-09-12T07:46:33Z</time>
      </trkpt>
      <trkpt lat="47.8788" lon="6.81535">
        <ele>744</ele>
        <time>2022-09-12T07:46:34Z</time>
      </trkpt>
      <trkpt lat="47.8788" lon="6.81536">
        <ele>744</ele>
        <time>2022-09-12T07:46:35Z</time>
      </trkpt>
      <trkpt lat="47.8788" lon="6.81537">
        <ele>744</ele>
        <time>2022-09-12T07:46:36Z</time>
      </trkpt>
      <trkpt lat="47.8788" lon="6.81539">
        <ele>744</ele>
        <time>2022-09-12T07:46:37Z</time>
      </trkpt>
      <trkpt lat="47.8788" lon="6.8154">
        <ele>744</ele>
        <time>2022-09-12T07:46:38Z</time>
      </trkpt>
      <trkpt lat="47.8788" lon="6.81541">
        <ele>744</ele>
        <time>2022-09-12T07:46:39Z</time>
      </trkpt>
      <trkpt lat="47.8788" lon="6.81543">
        <ele>744</ele>
        <time>2022-09-12T07:46:40Z</time>
      </trkpt>
      <trkpt lat="47.87879" lon="6.81544">
        <ele>744</ele>
        <time>2022-09-12T07:46:41Z</time>
      </trkpt>
      <trkpt lat="47.87879" lon="6.81546">
        <ele>744</ele>
        <time>2022-09-12T07:46:42Z</time>
      </trkpt>
      <trkpt lat="47.87878" lon="6.81547">
        <ele>744</ele>
        <time>2022-09-12T07:46:43Z</time>
      </trkpt>
      <trkpt lat="47.87878" lon="6.81548">
        <ele>744</ele>
        <time>2022-09-12T07:46:44Z</time>
      </trkpt>
      <trkpt lat="47.87878" lon="6.8155">
        <ele>744</ele>
        <time>2022-09-12T07:46:45Z</time>
      </trkpt>
      <trkpt lat="47.87878" lon="6.81551">
        <ele>745</ele>
        <time>2022-09-12T07:46:46Z</time>
      </trkpt>
      <trkpt lat="47.87877" lon="6.81553">
        <ele>745</ele>
        <time>2022-09-12T07:46:47Z</time>
      </trkpt>
      <trkpt lat="47.87877" lon="6.81554">
        <ele>745</ele>
        <time>2022-09-12T07:46:48Z</time>
      </trkpt>
      <trkpt lat="47.87877" lon="6.81556">
        <ele>745</ele>
        <time>2022-09-12T07:46:49Z</time>
      </trkpt>
      <trkpt lat="47.87877" lon="6.81557">
        <ele>745</ele>
        <time>2022-09-12T07:46:50Z</time>
      </trkpt>
      <trkpt lat="47.87877" lon="6.81558">
        <ele>745</ele>
        <time>2022-09-12T07:46:51Z</time>
      </trkpt>
      <trkpt lat="47.87877" lon="6.8156">
        <ele>745</ele>
        <time>2022-09-12T07:46:52Z</time>
      </trkpt>
      <trkpt lat="47.87876" lon="6.81561">
        <ele>745</ele>
        <time>2022-09-12T07:46:53Z</time>
      </trkpt>
      <trkpt lat="47.87876" lon="6.81562">
        <ele>745</ele>
        <time>2022-09-12T07:46:54Z</time>
      </trkpt>
      <trkpt lat="47.87876" lon="6.81564">
        <ele>745</ele>
        <time>2022-09-12T07:46:55Z</time>
      </trkpt>
      <trkpt lat="47.87876" lon="6.81564">
        <ele>746</ele>
        <time>2022-09-12T07:46:56Z</time>
      </trkpt>
      <trkpt lat="47.87876" lon="6.81565">
        <ele>746</ele>
        <time>2022-09-12T07:46:57Z</time>
      </trkpt>
      <trkpt lat="47.87875" lon="6.81565">
        <ele>746</ele>
        <time>2022-09-12T07:46:58Z</time>
      </trkpt>
      <trkpt lat="47.87875" lon="6.81565">
        <ele>746</ele>
        <time>2022-09-12T07:46:59Z</time>
      </trkpt>
      <trkpt lat="47.87875" lon="6.81566">
        <ele>746</ele>
        <time>2022-09-12T07:47:00Z</time>
      </trkpt>
      <trkpt lat="47.87875" lon="6.81567">
        <ele>746</ele>
        <time>2022-09-12T07:47:01Z</time>
      </trkpt>
      <trkpt lat="47.87875" lon="6.81567">
        <ele>746</ele>
        <time>2022-09-12T07:47:02Z</time>
      </trkpt>
      <trkpt lat="47.87874" lon="6.81568">
        <ele>746</ele>
        <time>2022-09-12T07:47:03Z</time>
      </trkpt>
      <trkpt lat="47.87874" lon="6.81569">
        <ele>746</ele>
        <time>2022-09-12T07:47:04Z</time>
      </trkpt>
      <trkpt lat="47.87874" lon="6.8157">
        <ele>746</ele>
        <time>2022-09-12T07:47:05Z</time>
      </trkpt>
      <trkpt lat="47.87873" lon="6.81571">
        <ele>746</ele>
        <time>2022-09-12T07:47:06Z</time>
      </trkpt>
      <trkpt lat="47.87873" lon="6.81572">
        <ele>746</ele>
        <time>2022-09-12T07:47:07Z</time>
      </trkpt>
      <trkpt lat="47.87873" lon="6.81574">
        <ele>746</ele>
        <time>2022-09-12T07:47:08Z</time>
      </trkpt>
      <trkpt lat="47.87873" lon="6.81575">
        <ele>746</ele>
        <time>2022-09-12T07:47:09Z</time>
      </trkpt>
      <trkpt lat="47.87872" lon="6.81577">
        <ele>746</ele>
        <time>2022-09-12T07:47:10Z</time>
      </trkpt>
      <trkpt lat="47.87872" lon="6.81578">
        <ele>747</ele>
        <time>2022-09-12T07:47:11Z</time>
      </trkpt>
      <trkpt lat="47.87872" lon="6.81579">
        <ele>747</ele>
        <time>2022-09-12T07:47:12Z</time>
      </trkpt>
      <trkpt lat="47.87871" lon="6.81581">
        <ele>747</ele>
        <time>2022-09-12T07:47:13Z</time>
      </trkpt>
      <trkpt lat="47.87871" lon="6.81582">
        <ele>747</ele>
        <time>2022-09-12T07:47:14Z</time>
      </trkpt>
      <trkpt lat="47.87871" lon="6.81583">
        <ele>747</ele>
        <time>2022-09-12T07:47:15Z</time>
      </trkpt>
      <trkpt lat="47.8787" lon="6.81584">
        <ele>747</ele>
        <time>2022-09-12T07:47:16Z</time>
      </trkpt>
      <trkpt lat="47.8787" lon="6.81585">
        <ele>747</ele>
        <time>2022-09-12T07:47:17Z</time>
      </trkpt>
      <trkpt lat="47.8787" lon="6.81586">
        <ele>747</ele>
        <time>2022-09-12T07:47:18Z</time>
      </trkpt>
      <trkpt lat="47.87869" lon="6.81588">
        <ele>747</ele>
        <time>2022-09-12T07:47:19Z</time>
      </trkpt>
      <trkpt lat="47.87869" lon="6.81589">
        <ele>747</ele>
        <time>2022-09-12T07:47:20Z</time>
      </trkpt>
      <trkpt lat="47.87869" lon="6.8159">
        <ele>748</ele>
        <time>2022-09-12T07:47:21Z</time>
      </trkpt>
      <trkpt lat="47.87868" lon="6.81592">
        <ele>748</ele>
        <time>2022-09-12T07:47:22Z</time>
      </trkpt>
      <trkpt lat="47.87868" lon="6.81593">
        <ele>748</ele>
        <time>2022-09-12T07:47:23Z</time>
      </trkpt>
      <trkpt lat="47.87868" lon="6.81595">
        <ele>748</ele>
        <time>2022-09-12T07:47:24Z</time>
      </trkpt>
      <trkpt lat="47.87867" lon="6.81596">
        <ele>748</ele>
        <time>2022-09-12T07:47:25Z</time>
      </trkpt>
      <trkpt lat="47.87867" lon="6.81598">
        <ele>748</ele>
        <time>2022-09-12T07:47:26Z</time>
      </trkpt>
      <trkpt lat="47.87867" lon="6.81599">
        <ele>748</ele>
        <time>2022-09-12T07:47:27Z</time>
      </trkpt>
      <trkpt lat="47.87866" lon="6.816">
        <ele>748</ele>
        <time>2022-09-12T07:47:28Z</time>
      </trkpt>
      <trkpt lat="47.87866" lon="6.81601">
        <ele>748</ele>
        <time>2022-09-12T07:47:29Z</time>
      </trkpt>
      <trkpt lat="47.87865" lon="6.81603">
        <ele>748</ele>
        <time>2022-09-12T07:47:30Z</time>
      </trkpt>
      <trkpt lat="47.87865" lon="6.81604">
        <ele>749</ele>
        <time>2022-09-12T07:47:31Z</time>
      </trkpt>
      <trkpt lat="47.87865" lon="6.81605">
        <ele>749</ele>
        <time>2022-09-12T07:47:32Z</time>
      </trkpt>
      <trkpt lat="47.87865" lon="6.81606">
        <ele>749</ele>
        <time>2022-09-12T07:47:33Z</time>
      </trkpt>
      <trkpt lat="47.87864" lon="6.81607">
        <ele>749</ele>
        <time>2022-09-12T07:47:34Z</time>
      </trkpt>
      <trkpt lat="47.87864" lon="6.81607">
        <ele>749</ele>
        <time>2022-09-12T07:47:35Z</time>
      </trkpt>
      <trkpt lat="47.87864" lon="6.81608">
        <ele>749</ele>
        <time>2022-09-12T07:47:36Z</time>
      </trkpt>
      <trkpt lat="47.87864" lon="6.81608">
        <ele>749</ele>
        <time>2022-09-12T07:47:37Z</time>
      </trkpt>
      <trkpt lat="47.87864" lon="6.81608">
        <ele>749</ele>
        <time>2022-09-12T07:47:38Z</time>
      </trkpt>
      <trkpt lat="47.87864" lon="6.81608">
        <ele>749</ele>
        <time>2022-09-12T07:47:39Z</time>
      </trkpt>
      <trkpt lat="47.87864" lon="6.81609">
        <ele>749</ele>
        <time>2022-09-12T07:47:40Z</time>
      </trkpt>
      <trkpt lat="47.87864" lon="6.8161">
        <ele>749</ele>
        <time>2022-09-12T07:47:41Z</time>
      </trkpt>
      <trkpt lat="47.87863" lon="6.81611">
        <ele>749</ele>
        <time>2022-09-12T07:47:42Z</time>
      </trkpt>
      <trkpt lat="47.87863" lon="6.81611">
        <ele>749</ele>
        <time>2022-09-12T07:47:43Z</time>
      </trkpt>
      <trkpt lat="47.87862" lon="6.81612">
        <ele>749</ele>
        <time>2022-09-12T07:47:44Z</time>
      </trkpt>
      <trkpt lat="47.87862" lon="6.81613">
        <ele>749</ele>
        <time>2022-09-12T07:47:45Z</time>
      </trkpt>
      <trkpt lat="47.87861" lon="6.81614">
        <ele>750</ele>
        <time>2022-09-12T07:47:46Z</time>
      </trkpt>
      <trkpt lat="47.8786" lon="6.81614">
        <ele>750</ele>
        <time>2022-09-12T07:47:47Z</time>
      </trkpt>
      <trkpt lat="47.8786" lon="6.81615">
        <ele>750</ele>
        <time>2022-09-12T07:47:48Z</time>
      </trkpt>
      <trkpt lat="47.87859" lon="6.81616">
        <ele>750</ele>
        <time>2022-09-12T07:47:49Z</time>
      </trkpt>
      <trkpt lat="47.87859" lon="6.81617">
        <ele>750</ele>
        <time>2022-09-12T07:47:50Z</time>
      </trkpt>
      <trkpt lat="47.87858" lon="6.81618">
        <ele>750</ele>
        <time>2022-09-12T07:47:51Z</time>
      </trkpt>
      <trkpt lat="47.87857" lon="6.81619">
        <ele>750</ele>
        <time>2022-09-12T07:47:52Z</time>
      </trkpt>
      <trkpt lat="47.87857" lon="6.8162">
        <ele>750</ele>
        <time>2022-09-12T07:47:53Z</time>
      </trkpt>
      <trkpt lat="47.87856" lon="6.81622">
        <ele>750</ele>
        <time>2022-09-12T07:47:54Z</time>
      </trkpt>
      <trkpt lat="47.87855" lon="6.81623">
        <ele>750</ele>
        <time>2022-09-12T07:47:55Z</time>
      </trkpt>
      <trkpt lat="47.87855" lon="6.81625">
        <ele>751</ele>
        <time>2022-09-12T07:47:56Z</time>
      </trkpt>
      <trkpt lat="47.87854" lon="6.81626">
        <ele>751</ele>
        <time>2022-09-12T07:47:57Z</time>
      </trkpt>
      <trkpt lat="47.87853" lon="6.81627">
        <ele>751</ele>
        <time>2022-09-12T07:47:58Z</time>
      </trkpt>
      <trkpt lat="47.87852" lon="6.81628">
        <ele>751</ele>
        <time>2022-09-12T07:47:59Z</time>
      </trkpt>
      <trkpt lat="47.87851" lon="6.81629">
        <ele>751</ele>
        <time>2022-09-12T07:48:00Z</time>
      </trkpt>
      <trkpt lat="47.87851" lon="6.8163">
        <ele>752</ele>
        <time>2022-09-12T07:48:01Z</time>
      </trkpt>
      <trkpt lat="47.8785" lon="6.81631">
        <ele>752</ele>
        <time>2022-09-12T07:48:02Z</time>
      </trkpt>
      <trkpt lat="47.87849" lon="6.81632">
        <ele>752</ele>
        <time>2022-09-12T07:48:03Z</time>
      </trkpt>
      <trkpt lat="47.87849" lon="6.81634">
        <ele>752</ele>
        <time>2022-09-12T07:48:04Z</time>
      </trkpt>
      <trkpt lat="47.87848" lon="6.81635">
        <ele>752</ele>
        <time>2022-09-12T07:48:05Z</time>
      </trkpt>
      <trkpt lat="47.87848" lon="6.81636">
        <ele>752</ele>
        <time>2022-09-12T07:48:06Z</time>
      </trkpt>
      <trkpt lat="47.87847" lon="6.81637">
        <ele>752</ele>
        <time>2022-09-12T07:48:07Z</time>
      </trkpt>
      <trkpt lat="47.87847" lon="6.81638">
        <ele>752</ele>
        <time>2022-09-12T07:48:08Z</time>
      </trkpt>
      <trkpt lat="47.87846" lon="6.81639">
        <ele>752</ele>
        <time>2022-09-12T07:48:09Z</time>
      </trkpt>
      <trkpt lat="47.87845" lon="6.81639">
        <ele>752</ele>
        <time>2022-09-12T07:48:10Z</time>
      </trkpt>
      <trkpt lat="47.87844" lon="6.8164">
        <ele>753</ele>
        <time>2022-09-12T07:48:11Z</time>
      </trkpt>
      <trkpt lat="47.87843" lon="6.81641">
        <ele>753</ele>
        <time>2022-09-12T07:48:12Z</time>
      </trkpt>
      <trkpt lat="47.87842" lon="6.81642">
        <ele>753</ele>
        <time>2022-09-12T07:48:13Z</time>
      </trkpt>
      <trkpt lat="47.87841" lon="6.81643">
        <ele>753</ele>
        <time>2022-09-12T07:48:14Z</time>
      </trkpt>
      <trkpt lat="47.87841" lon="6.81643">
        <ele>753</ele>
        <time>2022-09-12T07:48:15Z</time>
      </trkpt>
      <trkpt lat="47.8784" lon="6.81644">
        <ele>754</ele>
        <time>2022-09-12T07:48:16Z</time>
      </trkpt>
      <trkpt lat="47.87839" lon="6.81645">
        <ele>754</ele>
        <time>2022-09-12T07:48:17Z</time>
      </trkpt>
      <trkpt lat="47.87838" lon="6.81645">
        <ele>754</ele>
        <time>2022-09-12T07:48:18Z</time>
      </trkpt>
      <trkpt lat="47.87838" lon="6.81646">
        <ele>754</ele>
        <time>2022-09-12T07:48:19Z</time>
      </trkpt>
      <trkpt lat="47.87837" lon="6.81647">
        <ele>754</ele>
        <time>2022-09-12T07:48:20Z</time>
      </trkpt>
      <trkpt lat="47.87836" lon="6.81648">
        <ele>754</ele>
        <time>2022-09-12T07:48:21Z</time>
      </trkpt>
      <trkpt lat="47.87836" lon="6.81649">
        <ele>754</ele>
        <time>2022-09-12T07:48:22Z</time>
      </trkpt>
      <trkpt lat="47.87835" lon="6.81649">
        <ele>754</ele>
        <time>2022-09-12T07:48:23Z</time>
      </trkpt>
      <trkpt lat="47.87834" lon="6.8165">
        <ele>755</ele>
        <time>2022-09-12T07:48:24Z</time>
      </trkpt>
      <trkpt lat="47.87833" lon="6.81651">
        <ele>755</ele>
        <time>2022-09-12T07:48:25Z</time>
      </trkpt>
      <trkpt lat="47.87833" lon="6.81652">
        <ele>756</ele>
        <time>2022-09-12T07:48:26Z</time>
      </trkpt>
      <trkpt lat="47.87832" lon="6.81653">
        <ele>756</ele>
        <time>2022-09-12T07:48:27Z</time>
      </trkpt>
      <trkpt lat="47.87831" lon="6.81654">
        <ele>756</ele>
        <time>2022-09-12T07:48:28Z</time>
      </trkpt>
      <trkpt lat="47.8783" lon="6.81655">
        <ele>756</ele>
        <time>2022-09-12T07:48:29Z</time>
      </trkpt>
      <trkpt lat="47.87829" lon="6.81655">
        <ele>756</ele>
        <time>2022-09-12T07:48:30Z</time>
      </trkpt>
      <trkpt lat="47.87829" lon="6.81656">
        <ele>756</ele>
        <time>2022-09-12T07:48:31Z</time>
      </trkpt>
      <trkpt lat="47.87828" lon="6.81657">
        <ele>756</ele>
        <time>2022-09-12T07:48:32Z</time>
      </trkpt>
      <trkpt lat="47.87827" lon="6.81658">
        <ele>756</ele>
        <time>2022-09-12T07:48:33Z</time>
      </trkpt>
      <trkpt lat="47.87826" lon="6.81659">
        <ele>756</ele>
        <time>2022-09-12T07:48:34Z</time>
      </trkpt>
      <trkpt lat="47.87825" lon="6.8166">
        <ele>756</ele>
        <time>2022-09-12T07:48:35Z</time>
      </trkpt>
      <trkpt lat="47.87825" lon="6.81661">
        <ele>757</ele>
        <time>2022-09-12T07:48:36Z</time>
      </trkpt>
      <trkpt lat="47.87824" lon="6.81662">
        <ele>757</ele>
        <time>2022-09-12T07:48:37Z</time>
      </trkpt>
      <trkpt lat="47.87823" lon="6.81663">
        <ele>757</ele>
        <time>2022-09-12T07:48:38Z</time>
      </trkpt>
      <trkpt lat="47.87822" lon="6.81664">
        <ele>757</ele>
        <time>2022-09-12T07:48:39Z</time>
      </trkpt>
      <trkpt lat="47.87821" lon="6.81665">
        <ele>757</ele>
        <time>2022-09-12T07:48:40Z</time>
      </trkpt>
      <trkpt lat="47.8782" lon="6.81666">
        <ele>757</ele>
        <time>2022-09-12T07:48:41Z</time>
      </trkpt>
      <trkpt lat="47.8782" lon="6.81667">
        <ele>757</ele>
        <time>2022-09-12T07:48:42Z</time>
      </trkpt>
      <trkpt lat="47.87819" lon="6.81667">
        <ele>757</ele>
        <time>2022-09-12T07:48:43Z</time>
      </trkpt>
      <trkpt lat="47.87818" lon="6.81668">
        <ele>757</ele>
        <time>2022-09-12T07:48:44Z</time>
      </trkpt>
      <trkpt lat="47.87818" lon="6.81669">
        <ele>757</ele>
        <time>2022-09-12T07:48:45Z</time>
      </trkpt>
      <trkpt lat="47.87817" lon="6.8167">
        <ele>758</ele>
        <time>2022-09-12T07:48:46Z</time>
      </trkpt>
      <trkpt lat="47.87817" lon="6.81671">
        <ele>758</ele>
        <time>2022-09-12T07:48:47Z</time>
      </trkpt>
      <trkpt lat="47.87816" lon="6.81671">
        <ele>758</ele>
        <time>2022-09-12T07:48:48Z</time>
      </trkpt>
      <trkpt lat="47.87815" lon="6.81672">
        <ele>758</ele>
        <time>2022-09-12T07:48:49Z</time>
      </trkpt>
      <trkpt lat="47.87815" lon="6.81673">
        <ele>758</ele>
        <time>2022-09-12T07:48:50Z</time>
      </trkpt>
      <trkpt lat="47.87814" lon="6.81673">
        <ele>758</ele>
        <time>2022-09-12T07:48:51Z</time>
      </trkpt>
      <trkpt lat="47.87814" lon="6.81674">
        <ele>758</ele>
        <time>2022-09-12T07:48:52Z</time>
      </trkpt>
      <trkpt lat="47.87814" lon="6.81675">
        <ele>759</ele>
        <time>2022-09-12T07:48:53Z</time>
      </trkpt>
      <trkpt lat="47.87813" lon="6.81676">
        <ele>759</ele>
        <time>2022-09-12T07:48:54Z</time>
      </trkpt>
      <trkpt lat="47.87813" lon="6.81677">
        <ele>760</ele>
        <time>2022-09-12T07:48:55Z</time>
      </trkpt>
      <trkpt lat="47.87812" lon="6.81678">
        <ele>761</ele>
        <time>2022-09-12T07:48:56Z</time>
      </trkpt>
      <trkpt lat="47.87812" lon="6.81679">
        <ele>761</ele>
        <time>2022-09-12T07:48:57Z</time>
      </trkpt>
      <trkpt lat="47.87811" lon="6.81679">
        <ele>761</ele>
        <time>2022-09-12T07:48:58Z</time>
      </trkpt>
      <trkpt lat="47.8781" lon="6.8168">
        <ele>761</ele>
        <time>2022-09-12T07:48:59Z</time>
      </trkpt>
      <trkpt lat="47.8781" lon="6.81681">
        <ele>761</ele>
        <time>2022-09-12T07:49:00Z</time>
      </trkpt>
      <trkpt lat="47.87809" lon="6.81681">
        <ele>761</ele>
        <time>2022-09-12T07:49:01Z</time>
      </trkpt>
      <trkpt lat="47.87808" lon="6.81682">
        <ele>761</ele>
        <time>2022-09-12T07:49:02Z</time>
      </trkpt>
      <trkpt lat="47.87807" lon="6.81683">
        <ele>761</ele>
        <time>2022-09-12T07:49:03Z</time>
      </trkpt>
      <trkpt lat="47.87807" lon="6.81683">
        <ele>761</ele>
        <time>2022-09-12T07:49:04Z</time>
      </trkpt>
      <trkpt lat="47.87806" lon="6.81684">
        <ele>761</ele>
        <time>2022-09-12T07:49:05Z</time>
      </trkpt>
      <trkpt lat="47.87806" lon="6.81684">
        <ele>761</ele>
        <time>2022-09-12T07:49:06Z</time>
      </trkpt>
      <trkpt lat="47.87806" lon="6.81685">
        <ele>761</ele>
        <time>2022-09-12T07:49:07Z</time>
      </trkpt>
      <trkpt lat="47.87805" lon="6.81686">
        <ele>761</ele>
        <time>2022-09-12T07:49:08Z</time>
      </trkpt>
      <trkpt lat="47.87805" lon="6.81686">
        <ele>761</ele>
        <time>2022-09-12T07:49:09Z</time>
      </trkpt>
      <trkpt lat="47.87804" lon="6.81687">
        <ele>761</ele>
        <time>2022-09-12T07:49:10Z</time>
      </trkpt>
      <trkpt lat="47.87803" lon="6.81687">
        <ele>761</ele>
        <time>2022-09-12T07:49:11Z</time>
      </trkpt>
      <trkpt lat="47.87803" lon="6.81688">
        <ele>761</ele>
        <time>2022-09-12T07:49:12Z</time>
      </trkpt>
      <trkpt lat="47.87802" lon="6.81688">
        <ele>761</ele>
        <time>2022-09-12T07:49:13Z</time>
      </trkpt>
      <trkpt lat="47.87801" lon="6.81688">
        <ele>761</ele>
        <time>2022-09-12T07:49:14Z</time>
      </trkpt>
      <trkpt lat="47.87801" lon="6.81689">
        <ele>761</ele>
        <time>2022-09-12T07:49:15Z</time>
      </trkpt>
      <trkpt lat="47.878" lon="6.81689">
        <ele>762</ele>
        <time>2022-09-12T07:49:16Z</time>
      </trkpt>
      <trkpt lat="47.87799" lon="6.8169">
        <ele>762</ele>
        <time>2022-09-12T07:49:17Z</time>
      </trkpt>
      <trkpt lat="47.87799" lon="6.8169">
        <ele>762</ele>
        <time>2022-09-12T07:49:18Z</time>
      </trkpt>
      <trkpt lat="47.87798" lon="6.81691">
        <ele>762</ele>
        <time>2022-09-12T07:49:19Z</time>
      </trkpt>
      <trkpt lat="47.87797" lon="6.81691">
        <ele>762</ele>
        <time>2022-09-12T07:49:20Z</time>
      </trkpt>
      <trkpt lat="47.87796" lon="6.81691">
        <ele>762</ele>
        <time>2022-09-12T07:49:21Z</time>
      </trkpt>
      <trkpt lat="47.87795" lon="6.81691">
        <ele>762</ele>
        <time>2022-09-12T07:49:22Z</time>
      </trkpt>
      <trkpt lat="47.87794" lon="6.81692">
        <ele>762</ele>
        <time>2022-09-12T07:49:23Z</time>
      </trkpt>
      <trkpt lat="47.87793" lon="6.81692">
        <ele>762</ele>
        <time>2022-09-12T07:49:24Z</time>
      </trkpt>
      <trkpt lat="47.87792" lon="6.81692">
        <ele>762</ele>
        <time>2022-09-12T07:49:25Z</time>
      </trkpt>
      <trkpt lat="47.87791" lon="6.81693">
        <ele>763</ele>
        <time>2022-09-12T07:49:26Z</time>
      </trkpt>
      <trkpt lat="47.8779" lon="6.81693">
        <ele>763</ele>
        <time>2022-09-12T07:49:27Z</time>
      </trkpt>
      <trkpt lat="47.8779" lon="6.81693">
        <ele>763</ele>
        <time>2022-09-12T07:49:28Z</time>
      </trkpt>
      <trkpt lat="47.87789" lon="6.81694">
        <ele>763</ele>
        <time>2022-09-12T07:49:29Z</time>
      </trkpt>
      <trkpt lat="47.87789" lon="6.81695">
        <ele>763</ele>
        <time>2022-09-12T07:49:30Z</time>
      </trkpt>
      <trkpt lat="47.87788" lon="6.81695">
        <ele>764</ele>
        <time>2022-09-12T07:49:31Z</time>
      </trkpt>
      <trkpt lat="47.87788" lon="6.81696">
        <ele>764</ele>
        <time>2022-09-12T07:49:32Z</time>
      </trkpt>
      <trkpt lat="47.87787" lon="6.81697">
        <ele>764</ele>
        <time>2022-09-12T07:49:33Z</time>
      </trkpt>
      <trkpt lat="47.87786" lon="6.81698">
        <ele>764</ele>
        <time>2022-09-12T07:49:34Z</time>
      </trkpt>
      <trkpt lat="47.87785" lon="6.81698">
        <ele>764</ele>
        <time>2022-09-12T07:49:35Z</time>
      </trkpt>
      <trkpt lat="47.87785" lon="6.81699">
        <ele>764</ele>
        <time>2022-09-12T07:49:36Z</time>
      </trkpt>
      <trkpt lat="47.87784" lon="6.81699">
        <ele>764</ele>
        <time>2022-09-12T07:49:37Z</time>
      </trkpt>
      <trkpt lat="47.87783" lon="6.81699">
        <ele>764</ele>
        <time>2022-09-12T07:49:38Z</time>
      </trkpt>
      <trkpt lat="47.87782" lon="6.81699">
        <ele>764</ele>
        <time>2022-09-12T07:49:39Z</time>
      </trkpt>
      <trkpt lat="47.87782" lon="6.81699">
        <ele>764</ele>
        <time>2022-09-12T07:49:40Z</time>
      </trkpt>
      <trkpt lat="47.87781" lon="6.81699">
        <ele>765</ele>
        <time>2022-09-12T07:49:41Z</time>
      </trkpt>
      <trkpt lat="47.8778" lon="6.817">
        <ele>765</ele>
        <time>2022-09-12T07:49:42Z</time>
      </trkpt>
      <trkpt lat="47.87779" lon="6.817">
        <ele>765</ele>
        <time>2022-09-12T07:49:43Z</time>
      </trkpt>
      <trkpt lat="47.87778" lon="6.817">
        <ele>765</ele>
        <time>2022-09-12T07:49:44Z</time>
      </trkpt>
      <trkpt lat="47.87778" lon="6.817">
        <ele>765</ele>
        <time>2022-09-12T07:49:45Z</time>
      </trkpt>
      <trkpt lat="47.87777" lon="6.81701">
        <ele>766</ele>
        <time>2022-09-12T07:49:46Z</time>
      </trkpt>
      <trkpt lat="47.87776" lon="6.81701">
        <ele>766</ele>
        <time>2022-09-12T07:49:47Z</time>
      </trkpt>
      <trkpt lat="47.87775" lon="6.81702">
        <ele>766</ele>
        <time>2022-09-12T07:49:48Z</time>
      </trkpt>
      <trkpt lat="47.87774" lon="6.81702">
        <ele>766</ele>
        <time>2022-09-12T07:49:49Z</time>
      </trkpt>
      <trkpt lat="47.87773" lon="6.81702">
        <ele>766</ele>
        <time>2022-09-12T07:49:50Z</time>
      </trkpt>
      <trkpt lat="47.87773" lon="6.81703">
        <ele>766</ele>
        <time>2022-09-12T07:49:51Z</time>
      </trkpt>
      <trkpt lat="47.87772" lon="6.81703">
        <ele>766</ele>
        <time>2022-09-12T07:49:52Z</time>
      </trkpt>
      <trkpt lat="47.87771" lon="6.81704">
        <ele>766</ele>
        <time>2022-09-12T07:49:53Z</time>
      </trkpt>
      <trkpt lat="47.87771" lon="6.81704">
        <ele>766</ele>
        <time>2022-09-12T07:49:54Z</time>
      </trkpt>
      <trkpt lat="47.8777" lon="6.81705">
        <ele>766</ele>
        <time>2022-09-12T07:49:55Z</time>
      </trkpt>
      <trkpt lat="47.87769" lon="6.81705">
        <ele>767</ele>
        <time>2022-09-12T07:49:56Z</time>
      </trkpt>
      <trkpt lat="47.87768" lon="6.81705">
        <ele>767</ele>
        <time>2022-09-12T07:49:57Z</time>
      </trkpt>
      <trkpt lat="47.87768" lon="6.81705">
        <ele>767</ele>
        <time>2022-09-12T07:49:58Z</time>
      </trkpt>
      <trkpt lat="47.87767" lon="6.81705">
        <ele>767</ele>
        <time>2022-09-12T07:49:59Z</time>
      </trkpt>
      <trkpt lat="47.87767" lon="6.81706">
        <ele>767</ele>
        <time>2022-09-12T07:50:00Z</time>
      </trkpt>
      <trkpt lat="47.87766" lon="6.81706">
        <ele>768</ele>
        <time>2022-09-12T07:50:01Z</time>
      </trkpt>
      <trkpt lat="47.87765" lon="6.81706">
        <ele>769</ele>
        <time>2022-09-12T07:50:07Z</time>
      </trkpt>
      <trkpt lat="47.87765" lon="6.81707">
        <ele>769</ele>
        <time>2022-09-12T07:50:08Z</time>
      </trkpt>
      <trkpt lat="47.87764" lon="6.81708">
        <ele>769</ele>
        <time>2022-09-12T07:50:09Z</time>
      </trkpt>
      <trkpt lat="47.87763" lon="6.81708">
        <ele>769</ele>
        <time>2022-09-12T07:50:10Z</time>
      </trkpt>
      <trkpt lat="47.87762" lon="6.81709">
        <ele>769</ele>
        <time>2022-09-12T07:50:11Z</time>
      </trkpt>
      <trkpt lat="47.87761" lon="6.81709">
        <ele>769</ele>
        <time>2022-09-12T07:50:12Z</time>
      </trkpt>
      <trkpt lat="47.8776" lon="6.81709">
        <ele>769</ele>
        <time>2022-09-12T07:50:13Z</time>
      </trkpt>
      <trkpt lat="47.87759" lon="6.81709">
        <ele>769</ele>
        <time>2022-09-12T07:50:14Z</time>
      </trkpt>
      <trkpt lat="47.87759" lon="6.81708">
        <ele>769</ele>
        <time>2022-09-12T07:50:15Z</time>
      </trkpt>
      <trkpt lat="47.87758" lon="6.81709">
        <ele>770</ele>
        <time>2022-09-12T07:50:16Z</time>
      </trkpt>
      <trkpt lat="47.87757" lon="6.81709">
        <ele>770</ele>
        <time>2022-09-12T07:50:17Z</time>
      </trkpt>
      <trkpt lat="47.87757" lon="6.81709">
        <ele>771</ele>
        <time>2022-09-12T07:51:07Z</time>
      </trkpt>
      <trkpt lat="47.87756" lon="6.81709">
        <ele>771</ele>
        <time>2022-09-12T07:51:08Z</time>
      </trkpt>
      <trkpt lat="47.87755" lon="6.8171">
        <ele>771</ele>
        <time>2022-09-12T07:51:09Z</time>
      </trkpt>
      <trkpt lat="47.87755" lon="6.8171">
        <ele>771</ele>
        <time>2022-09-12T07:51:10Z</time>
      </trkpt>
      <trkpt lat="47.87754" lon="6.8171">
        <ele>771</ele>
        <time>2022-09-12T07:51:11Z</time>
      </trkpt>
      <trkpt lat="47.87754" lon="6.8171">
        <ele>771</ele>
        <time>2022-09-12T07:51:12Z</time>
      </trkpt>
      <trkpt lat="47.87753" lon="6.8171">
        <ele>771</ele>
        <time>2022-09-12T07:51:13Z</time>
      </trkpt>
      <trkpt lat="47.87752" lon="6.81711">
        <ele>771</ele>
        <time>2022-09-12T07:51:14Z</time>
      </trkpt>
      <trkpt lat="47.87751" lon="6.81711">
        <ele>771</ele>
        <time>2022-09-12T07:51:15Z</time>
      </trkpt>
      <trkpt lat="47.87751" lon="6.81711">
        <ele>772</ele>
        <time>2022-09-12T07:51:16Z</time>
      </trkpt>
      <trkpt lat="47.8775" lon="6.81712">
        <ele>772</ele>
        <time>2022-09-12T07:51:17Z</time>
      </trkpt>
      <trkpt lat="47.87748" lon="6.81712">
        <ele>773</ele>
        <time>2022-09-12T07:51:26Z</time>
      </trkpt>
      <trkpt lat="47.87747" lon="6.81712">
        <ele>773</ele>
        <time>2022-09-12T07:51:27Z</time>
      </trkpt>
      <trkpt lat="47.87746" lon="6.81713">
        <ele>773</ele>
        <time>2022-09-12T07:51:28Z</time>
      </trkpt>
      <trkpt lat="47.87745" lon="6.81713">
        <ele>773</ele>
        <time>2022-09-12T07:51:29Z</time>
      </trkpt>
      <trkpt lat="47.87744" lon="6.81713">
        <ele>773</ele>
        <time>2022-09-12T07:51:30Z</time>
      </trkpt>
      <trkpt lat="47.87743" lon="6.81713">
        <ele>773</ele>
        <time>2022-09-12T07:51:31Z</time>
      </trkpt>
      <trkpt lat="47.87743" lon="6.81713">
        <ele>773</ele>
        <time>2022-09-12T07:51:32Z</time>
      </trkpt>
      <trkpt lat="47.87742" lon="6.81713">
        <ele>773</ele>
        <time>2022-09-12T07:51:33Z</time>
      </trkpt>
      <trkpt lat="47.87741" lon="6.81713">
        <ele>773</ele>
        <time>2022-09-12T07:51:34Z</time>
      </trkpt>
      <trkpt lat="47.8774" lon="6.81714">
        <ele>773</ele>
        <time>2022-09-12T07:51:35Z</time>
      </trkpt>
      <trkpt lat="47.8774" lon="6.81714">
        <ele>774</ele>
        <time>2022-09-12T07:51:36Z</time>
      </trkpt>
      <trkpt lat="47.87739" lon="6.81714">
        <ele>774</ele>
        <time>2022-09-12T07:51:37Z</time>
      </trkpt>
      <trkpt lat="47.87738" lon="6.81714">
        <ele>774</ele>
        <time>2022-09-12T07:51:38Z</time>
      </trkpt>
      <trkpt lat="47.87737" lon="6.81714">
        <ele>774</ele>
        <time>2022-09-12T07:51:39Z</time>
      </trkpt>
      <trkpt lat="47.87737" lon="6.81714">
        <ele>774</ele>
        <time>2022-09-12T07:51:40Z</time>
      </trkpt>
      <trkpt lat="47.87736" lon="6.81714">
        <ele>775</ele>
        <time>2022-09-12T07:51:41Z</time>
      </trkpt>
      <trkpt lat="47.87735" lon="6.81714">
        <ele>775</ele>
        <time>2022-09-12T07:51:42Z</time>
      </trkpt>
      <trkpt lat="47.87734" lon="6.81714">
        <ele>775</ele>
        <time>2022-09-12T07:51:43Z</time>
      </trkpt>
      <trkpt lat="47.87733" lon="6.81714">
        <ele>775</ele>
        <time>2022-09-12T07:51:44Z</time>
      </trkpt>
      <trkpt lat="47.87732" lon="6.81714">
        <ele>775</ele>
        <time>2022-09-12T07:51:45Z</time>
      </trkpt>
      <trkpt lat="47.87731" lon="6.81715">
        <ele>775</ele>
        <time>2022-09-12T07:51:46Z</time>
      </trkpt>
      <trkpt lat="47.8773" lon="6.81715">
        <ele>775</ele>
        <time>2022-09-12T07:51:47Z</time>
      </trkpt>
      <trkpt lat="47.87729" lon="6.81716">
        <ele>775</ele>
        <time>2022-09-12T07:51:48Z</time>
      </trkpt>
      <trkpt lat="47.87728" lon="6.81716">
        <ele>775</ele>
        <time>2022-09-12T07:51:49Z</time>
      </trkpt>
      <trkpt lat="47.87728" lon="6.81716">
        <ele>775</ele>
        <time>2022-09-12T07:51:50Z</time>
      </trkpt>
      <trkpt lat="47.87727" lon="6.81717">
        <ele>776</ele>
        <time>2022-09-12T07:51:51Z</time>
      </trkpt>
      <trkpt lat="47.87726" lon="6.81717">
        <ele>776</ele>
        <time>2022-09-12T07:51:52Z</time>
      </trkpt>
      <trkpt lat="47.87726" lon="6.81717">
        <ele>776</ele>
        <time>2022-09-12T07:51:53Z</time>
      </trkpt>
      <trkpt lat="47.87725" lon="6.81717">
        <ele>776</ele>
        <time>2022-09-12T07:51:54Z</time>
      </trkpt>
      <trkpt lat="47.87724" lon="6.81717">
        <ele>776</ele>
        <time>2022-09-12T07:51:55Z</time>
      </trkpt>
      <trkpt lat="47.87723" lon="6.81718">
        <ele>777</ele>
        <time>2022-09-12T07:51:56Z</time>
      </trkpt>
      <trkpt lat="47.87723" lon="6.81718">
        <ele>777</ele>
        <time>2022-09-12T07:51:57Z</time>
      </trkpt>
      <trkpt lat="47.87722" lon="6.81718">
        <ele>777</ele>
        <time>2022-09-12T07:51:58Z</time>
      </trkpt>
      <trkpt lat="47.87721" lon="6.81718">
        <ele>777</ele>
        <time>2022-09-12T07:51:59Z</time>
      </trkpt>
      <trkpt lat="47.8772" lon="6.81719">
        <ele>777</ele>
        <time>2022-09-12T07:52:00Z</time>
      </trkpt>
      <trkpt lat="47.87719" lon="6.81719">
        <ele>778</ele>
        <time>2022-09-12T07:52:01Z</time>
      </trkpt>
      <trkpt lat="47.87718" lon="6.8172">
        <ele>778</ele>
        <time>2022-09-12T07:52:02Z</time>
      </trkpt>
      <trkpt lat="47.87717" lon="6.8172">
        <ele>778</ele>
        <time>2022-09-12T07:52:03Z</time>
      </trkpt>
      <trkpt lat="47.87716" lon="6.81721">
        <ele>778</ele>
        <time>2022-09-12T07:52:04Z</time>
      </trkpt>
      <trkpt lat="47.87715" lon="6.81721">
        <ele>778</ele>
        <time>2022-09-12T07:52:05Z</time>
      </trkpt>
      <trkpt lat="47.87714" lon="6.81721">
        <ele>778</ele>
        <time>2022-09-12T07:52:06Z</time>
      </trkpt>
      <trkpt lat="47.87713" lon="6.81721">
        <ele>778</ele>
        <time>2022-09-12T07:52:07Z</time>
      </trkpt>
      <trkpt lat="47.87712" lon="6.81721">
        <ele>778</ele>
        <time>2022-09-12T07:52:08Z</time>
      </trkpt>
      <trkpt lat="47.87711" lon="6.81721">
        <ele>778</ele>
        <time>2022-09-12T07:52:09Z</time>
      </trkpt>
      <trkpt lat="47.8771" lon="6.81721">
        <ele>778</ele>
        <time>2022-09-12T07:52:10Z</time>
      </trkpt>
      <trkpt lat="47.87709" lon="6.81721">
        <ele>779</ele>
        <time>2022-09-12T07:52:11Z</time>
      </trkpt>
      <trkpt lat="47.87708" lon="6.81721">
        <ele>779</ele>
        <time>2022-09-12T07:52:12Z</time>
      </trkpt>
      <trkpt lat="47.87707" lon="6.81722">
        <ele>779</ele>
        <time>2022-09-12T07:52:13Z</time>
      </trkpt>
      <trkpt lat="47.87706" lon="6.81722">
        <ele>779</ele>
        <time>2022-09-12T07:52:14Z</time>
      </trkpt>
      <trkpt lat="47.87705" lon="6.81722">
        <ele>779</ele>
        <time>2022-09-12T07:52:15Z</time>
      </trkpt>
      <trkpt lat="47.87704" lon="6.81722">
        <ele>780</ele>
        <time>2022-09-12T07:52:16Z</time>
      </trkpt>
      <trkpt lat="47.87703" lon="6.81722">
        <ele>780</ele>
        <time>2022-09-12T07:52:17Z</time>
      </trkpt>
      <trkpt lat="47.87703" lon="6.81722">
        <ele>780</ele>
        <time>2022-09-12T07:52:18Z</time>
      </trkpt>
      <trkpt lat="47.87702" lon="6.81722">
        <ele>780</ele>
        <time>2022-09-12T07:52:19Z</time>
      </trkpt>
      <trkpt lat="47.87701" lon="6.81722">
        <ele>780</ele>
        <time>2022-09-12T07:52:20Z</time>
      </trkpt>
      <trkpt lat="47.87701" lon="6.81722">
        <ele>780</ele>
        <time>2022-09-12T07:52:21Z</time>
      </trkpt>
      <trkpt lat="47.877" lon="6.81722">
        <ele>780</ele>
        <time>2022-09-12T07:52:22Z</time>
      </trkpt>
      <trkpt lat="47.87699" lon="6.81722">
        <ele>780</ele>
        <time>2022-09-12T07:52:23Z</time>
      </trkpt>
      <trkpt lat="47.87698" lon="6.81722">
        <ele>780</ele>
        <time>2022-09-12T07:52:24Z</time>
      </trkpt>
      <trkpt lat="47.87697" lon="6.81722">
        <ele>780</ele>
        <time>2022-09-12T07:52:25Z</time>
      </trkpt>
      <trkpt lat="47.87696" lon="6.81722">
        <ele>781</ele>
        <time>2022-09-12T07:52:26Z</time>
      </trkpt>
      <trkpt lat="47.87695" lon="6.81722">
        <ele>781</ele>
        <time>2022-09-12T07:52:27Z</time>
      </trkpt>
      <trkpt lat="47.87695" lon="6.81722">
        <ele>781</ele>
        <time>2022-09-12T07:52:28Z</time>
      </trkpt>
      <trkpt lat="47.87694" lon="6.81722">
        <ele>781</ele>
        <time>2022-09-12T07:52:29Z</time>
      </trkpt>
      <trkpt lat="47.87693" lon="6.81722">
        <ele>781</ele>
        <time>2022-09-12T07:52:30Z</time>
      </trkpt>
      <trkpt lat="47.87692" lon="6.81722">
        <ele>782</ele>
        <time>2022-09-12T07:52:31Z</time>
      </trkpt>
      <trkpt lat="47.87691" lon="6.81722">
        <ele>782</ele>
        <time>2022-09-12T07:52:32Z</time>
      </trkpt>
      <trkpt lat="47.8769" lon="6.81722">
        <ele>782</ele>
        <time>2022-09-12T07:52:33Z</time>
      </trkpt>
      <trkpt lat="47.87689" lon="6.81722">
        <ele>782</ele>
        <time>2022-09-12T07:52:34Z</time>
      </trkpt>
      <trkpt lat="47.87689" lon="6.81722">
        <ele>782</ele>
        <time>2022-09-12T07:52:35Z</time>
      </trkpt>
      <trkpt lat="47.87688" lon="6.81722">
        <ele>782</ele>
        <time>2022-09-12T07:52:36Z</time>
      </trkpt>
      <trkpt lat="47.87687" lon="6.81721">
        <ele>782</ele>
        <time>2022-09-12T07:52:37Z</time>
      </trkpt>
      <trkpt lat="47.87686" lon="6.81721">
        <ele>782</ele>
        <time>2022-09-12T07:52:38Z</time>
      </trkpt>
      <trkpt lat="47.87686" lon="6.8172">
        <ele>782</ele>
        <time>2022-09-12T07:52:39Z</time>
      </trkpt>
      <trkpt lat="47.87685" lon="6.8172">
        <ele>782</ele>
        <time>2022-09-12T07:52:40Z</time>
      </trkpt>
      <trkpt lat="47.87684" lon="6.81719">
        <ele>783</ele>
        <time>2022-09-12T07:52:41Z</time>
      </trkpt>
      <trkpt lat="47.87683" lon="6.81718">
        <ele>783</ele>
        <time>2022-09-12T07:52:42Z</time>
      </trkpt>
      <trkpt lat="47.87682" lon="6.81718">
        <ele>783</ele>
        <time>2022-09-12T07:52:43Z</time>
      </trkpt>
      <trkpt lat="47.87682" lon="6.81717">
        <ele>783</ele>
        <time>2022-09-12T07:52:44Z</time>
      </trkpt>
      <trkpt lat="47.87681" lon="6.81716">
        <ele>783</ele>
        <time>2022-09-12T07:52:45Z</time>
      </trkpt>
      <trkpt lat="47.8768" lon="6.81716">
        <ele>783</ele>
        <time>2022-09-12T07:52:46Z</time>
      </trkpt>
      <trkpt lat="47.87679" lon="6.81714">
        <ele>783</ele>
        <time>2022-09-12T07:52:47Z</time>
      </trkpt>
      <trkpt lat="47.87678" lon="6.81713">
        <ele>783</ele>
        <time>2022-09-12T07:52:48Z</time>
      </trkpt>
      <trkpt lat="47.87677" lon="6.81712">
        <ele>783</ele>
        <time>2022-09-12T07:52:49Z</time>
      </trkpt>
      <trkpt lat="47.87676" lon="6.81711">
        <ele>783</ele>
        <time>2022-09-12T07:52:50Z</time>
      </trkpt>
      <trkpt lat="47.87676" lon="6.8171">
        <ele>784</ele>
        <time>2022-09-12T07:52:51Z</time>
      </trkpt>
      <trkpt lat="47.87675" lon="6.81709">
        <ele>784</ele>
        <time>2022-09-12T07:52:52Z</time>
      </trkpt>
      <trkpt lat="47.87675" lon="6.81708">
        <ele>784</ele>
        <time>2022-09-12T07:52:53Z</time>
      </trkpt>
      <trkpt lat="47.87674" lon="6.81707">
        <ele>784</ele>
        <time>2022-09-12T07:52:54Z</time>
      </trkpt>
      <trkpt lat="47.87673" lon="6.81706">
        <ele>784</ele>
        <time>2022-09-12T07:52:55Z</time>
      </trkpt>
      <trkpt lat="47.87673" lon="6.81706">
        <ele>784</ele>
        <time>2022-09-12T07:52:56Z</time>
      </trkpt>
      <trkpt lat="47.87672" lon="6.81706">
        <ele>784</ele>
        <time>2022-09-12T07:52:57Z</time>
      </trkpt>
      <trkpt lat="47.87671" lon="6.81705">
        <ele>784</ele>
        <time>2022-09-12T07:52:58Z</time>
      </trkpt>
      <trkpt lat="47.8767" lon="6.81705">
        <ele>784</ele>
        <time>2022-09-12T07:52:59Z</time>
      </trkpt>
      <trkpt lat="47.87669" lon="6.81705">
        <ele>784</ele>
        <time>2022-09-12T07:53:00Z</time>
      </trkpt>
      <trkpt lat="47.87668" lon="6.81705">
        <ele>785</ele>
        <time>2022-09-12T07:53:01Z</time>
      </trkpt>
      <trkpt lat="47.87667" lon="6.81706">
        <ele>785</ele>
        <time>2022-09-12T07:53:02Z</time>
      </trkpt>
      <trkpt lat="47.87666" lon="6.81706">
        <ele>785</ele>
        <time>2022-09-12T07:53:03Z</time>
      </trkpt>
      <trkpt lat="47.87665" lon="6.81706">
        <ele>785</ele>
        <time>2022-09-12T07:53:04Z</time>
      </trkpt>
      <trkpt lat="47.87663" lon="6.81706">
        <ele>786</ele>
        <time>2022-09-12T07:53:14Z</time>
      </trkpt>
      <trkpt lat="47.87663" lon="6.81706">
        <ele>786</ele>
        <time>2022-09-12T07:53:15Z</time>
      </trkpt>
      <trkpt lat="47.87662" lon="6.81706">
        <ele>786</ele>
        <time>2022-09-12T07:53:16Z</time>
      </trkpt>
      <trkpt lat="47.87661" lon="6.81706">
        <ele>786</ele>
        <time>2022-09-12T07:53:17Z</time>
      </trkpt>
      <trkpt lat="47.87661" lon="6.81706">
        <ele>786</ele>
        <time>2022-09-12T07:53:18Z</time>
      </trkpt>
      <trkpt lat="47.8766" lon="6.81705">
        <ele>786</ele>
        <time>2022-09-12T07:53:19Z</time>
      </trkpt>
      <trkpt lat="47.87659" lon="6.81705">
        <ele>786</ele>
        <time>2022-09-12T07:53:20Z</time>
      </trkpt>
      <trkpt lat="47.87658" lon="6.81705">
        <ele>786</ele>
        <time>2022-09-12T07:53:21Z</time>
      </trkpt>
      <trkpt lat="47.87657" lon="6.81705">
        <ele>786</ele>
        <time>2022-09-12T07:53:22Z</time>
      </trkpt>
      <trkpt lat="47.87656" lon="6.81704">
        <ele>786</ele>
        <time>2022-09-12T07:53:23Z</time>
      </trkpt>
      <trkpt lat="47.87655" lon="6.81704">
        <ele>786</ele>
        <time>2022-09-12T07:53:24Z</time>
      </trkpt>
      <trkpt lat="47.87654" lon="6.81704">
        <ele>786</ele>
        <time>2022-09-12T07:53:25Z</time>
      </trkpt>
      <trkpt lat="47.87654" lon="6.81704">
        <ele>786</ele>
        <time>2022-09-12T07:53:26Z</time>
      </trkpt>
      <trkpt lat="47.87653" lon="6.81704">
        <ele>786</ele>
        <time>2022-09-12T07:53:27Z</time>
      </trkpt>
      <trkpt lat="47.87652" lon="6.81705">
        <ele>786</ele>
        <time>2022-09-12T07:53:28Z</time>
      </trkpt>
      <trkpt lat="47.87652" lon="6.81705">
        <ele>787</ele>
        <time>2022-09-12T07:53:29Z</time>
      </trkpt>
      <trkpt lat="47.87651" lon="6.81705">
        <ele>787</ele>
        <time>2022-09-12T07:53:30Z</time>
      </trkpt>
      <trkpt lat="47.87651" lon="6.81706">
        <ele>788</ele>
        <time>2022-09-12T07:53:31Z</time>
      </trkpt>
      <trkpt lat="47.8765" lon="6.81707">
        <ele>788</ele>
        <time>2022-09-12T07:53:32Z</time>
      </trkpt>
      <trkpt lat="47.87649" lon="6.81707">
        <ele>788</ele>
        <time>2022-09-12T07:53:33Z</time>
      </trkpt>
      <trkpt lat="47.87649" lon="6.81708">
        <ele>788</ele>
        <time>2022-09-12T07:53:34Z</time>
      </trkpt>
      <trkpt lat="47.87648" lon="6.81709">
        <ele>788</ele>
        <time>2022-09-12T07:53:35Z</time>
      </trkpt>
      <trkpt lat="47.87648" lon="6.81709">
        <ele>789</ele>
        <time>2022-09-12T07:53:36Z</time>
      </trkpt>
      <trkpt lat="47.87647" lon="6.8171">
        <ele>789</ele>
        <time>2022-09-12T07:53:37Z</time>
      </trkpt>
      <trkpt lat="47.87646" lon="6.8171">
        <ele>789</ele>
        <time>2022-09-12T07:53:38Z</time>
      </trkpt>
      <trkpt lat="47.87646" lon="6.81711">
        <ele>789</ele>
        <time>2022-09-12T07:53:39Z</time>
      </trkpt>
      <trkpt lat="47.87646" lon="6.81711">
        <ele>789</ele>
        <time>2022-09-12T07:53:40Z</time>
      </trkpt>
      <trkpt lat="47.87645" lon="6.81712">
        <ele>789</ele>
        <time>2022-09-12T07:53:41Z</time>
      </trkpt>
      <trkpt lat="47.87644" lon="6.81712">
        <ele>789</ele>
        <time>2022-09-12T07:53:42Z</time>
      </trkpt>
      <trkpt lat="47.87644" lon="6.81713">
        <ele>789</ele>
        <time>2022-09-12T07:53:43Z</time>
      </trkpt>
      <trkpt lat="47.87643" lon="6.81713">
        <ele>789</ele>
        <time>2022-09-12T07:53:44Z</time>
      </trkpt>
      <trkpt lat="47.87642" lon="6.81713">
        <ele>789</ele>
        <time>2022-09-12T07:53:45Z</time>
      </trkpt>
      <trkpt lat="47.87642" lon="6.81714">
        <ele>789</ele>
        <time>2022-09-12T07:53:46Z</time>
      </trkpt>
      <trkpt lat="47.87641" lon="6.81714">
        <ele>789</ele>
        <time>2022-09-12T07:53:47Z</time>
      </trkpt>
      <trkpt lat="47.87641" lon="6.81715">
        <ele>789</ele>
        <time>2022-09-12T07:53:48Z</time>
      </trkpt>
      <trkpt lat="47.8764" lon="6.81715">
        <ele>789</ele>
        <time>2022-09-12T07:53:49Z</time>
      </trkpt>
      <trkpt lat="47.87639" lon="6.81716">
        <ele>789</ele>
        <time>2022-09-12T07:53:50Z</time>
      </trkpt>
      <trkpt lat="47.87639" lon="6.81716">
        <ele>790</ele>
        <time>2022-09-12T07:53:51Z</time>
      </trkpt>
      <trkpt lat="47.87638" lon="6.81716">
        <ele>790</ele>
        <time>2022-09-12T07:53:52Z</time>
      </trkpt>
      <trkpt lat="47.87638" lon="6.81717">
        <ele>790</ele>
        <time>2022-09-12T07:53:53Z</time>
      </trkpt>
      <trkpt lat="47.87638" lon="6.81717">
        <ele>790</ele>
        <time>2022-09-12T07:53:54Z</time>
      </trkpt>
      <trkpt lat="47.87637" lon="6.81718">
        <ele>790</ele>
        <time>2022-09-12T07:53:55Z</time>
      </trkpt>
      <trkpt lat="47.87636" lon="6.81718">
        <ele>790</ele>
        <time>2022-09-12T07:53:56Z</time>
      </trkpt>
      <trkpt lat="47.87636" lon="6.81719">
        <ele>790</ele>
        <time>2022-09-12T07:53:57Z</time>
      </trkpt>
      <trkpt lat="47.87635" lon="6.8172">
        <ele>790</ele>
        <time>2022-09-12T07:53:58Z</time>
      </trkpt>
      <trkpt lat="47.87634" lon="6.8172">
        <ele>790</ele>
        <time>2022-09-12T07:53:59Z</time>
      </trkpt>
      <trkpt lat="47.87633" lon="6.81721">
        <ele>790</ele>
        <time>2022-09-12T07:54:00Z</time>
      </trkpt>
      <trkpt lat="47.87633" lon="6.81722">
        <ele>791</ele>
        <time>2022-09-12T07:54:01Z</time>
      </trkpt>
      <trkpt lat="47.87632" lon="6.81723">
        <ele>791</ele>
        <time>2022-09-12T07:54:02Z</time>
      </trkpt>
      <trkpt lat="47.87632" lon="6.81723">
        <ele>791</ele>
        <time>2022-09-12T07:54:03Z</time>
      </trkpt>
      <trkpt lat="47.87632" lon="6.81724">
        <ele>791</ele>
        <time>2022-09-12T07:54:04Z</time>
      </trkpt>
      <trkpt lat="47.87631" lon="6.81724">
        <ele>791</ele>
        <time>2022-09-12T07:54:05Z</time>
      </trkpt>
      <trkpt lat="47.87631" lon="6.81725">
        <ele>791</ele>
        <time>2022-09-12T07:54:06Z</time>
      </trkpt>
      <trkpt lat="47.87631" lon="6.81726">
        <ele>791</ele>
        <time>2022-09-12T07:54:07Z</time>
      </trkpt>
      <trkpt lat="47.8763" lon="6.81726">
        <ele>791</ele>
        <time>2022-09-12T07:54:08Z</time>
      </trkpt>
      <trkpt lat="47.8763" lon="6.81727">
        <ele>791</ele>
        <time>2022-09-12T07:54:09Z</time>
      </trkpt>
      <trkpt lat="47.87629" lon="6.81728">
        <ele>791</ele>
        <time>2022-09-12T07:54:10Z</time>
      </trkpt>
      <trkpt lat="47.87629" lon="6.81729">
        <ele>791</ele>
        <time>2022-09-12T07:54:11Z</time>
      </trkpt>
      <trkpt lat="47.87629" lon="6.8173">
        <ele>791</ele>
        <time>2022-09-12T07:54:12Z</time>
      </trkpt>
      <trkpt lat="47.87629" lon="6.81731">
        <ele>791</ele>
        <time>2022-09-12T07:54:13Z</time>
      </trkpt>
      <trkpt lat="47.87629" lon="6.81732">
        <ele>791</ele>
        <time>2022-09-12T07:54:14Z</time>
      </trkpt>
      <trkpt lat="47.87629" lon="6.81733">
        <ele>791</ele>
        <time>2022-09-12T07:54:15Z</time>
      </trkpt>
      <trkpt lat="47.87629" lon="6.81734">
        <ele>792</ele>
        <time>2022-09-12T07:54:16Z</time>
      </trkpt>
      <trkpt lat="47.87629" lon="6.81735">
        <ele>792</ele>
        <time>2022-09-12T07:54:17Z</time>
      </trkpt>
      <trkpt lat="47.87629" lon="6.81736">
        <ele>792</ele>
        <time>2022-09-12T07:54:18Z</time>
      </trkpt>
      <trkpt lat="47.87629" lon="6.81737">
        <ele>792</ele>
        <time>2022-09-12T07:54:19Z</time>
      </trkpt>
      <trkpt lat="47.87629" lon="6.81738">
        <ele>792</ele>
        <time>2022-09-12T07:54:20Z</time>
      </trkpt>
      <trkpt lat="47.87629" lon="6.8174">
        <ele>792</ele>
        <time>2022-09-12T07:54:21Z</time>
      </trkpt>
      <trkpt lat="47.87629" lon="6.81741">
        <ele>792</ele>
        <time>2022-09-12T07:54:22Z</time>
      </trkpt>
      <trkpt lat="47.87628" lon="6.81742">
        <ele>792</ele>
        <time>2022-09-12T07:54:23Z</time>
      </trkpt>
      <trkpt lat="47.87628" lon="6.81743">
        <ele>792</ele>
        <time>2022-09-12T07:54:24Z</time>
      </trkpt>
      <trkpt lat="47.87627" lon="6.81744">
        <ele>792</ele>
        <time>2022-09-12T07:54:25Z</time>
      </trkpt>
      <trkpt lat="47.87627" lon="6.81745">
        <ele>792</ele>
        <time>2022-09-12T07:54:26Z</time>
      </trkpt>
      <trkpt lat="47.87626" lon="6.81746">
        <ele>792</ele>
        <time>2022-09-12T07:54:27Z</time>
      </trkpt>
      <trkpt lat="47.87626" lon="6.81747">
        <ele>792</ele>
        <time>2022-09-12T07:54:28Z</time>
      </trkpt>
      <trkpt lat="47.87626" lon="6.81748">
        <ele>792</ele>
        <time>2022-09-12T07:54:29Z</time>
      </trkpt>
      <trkpt lat="47.87626" lon="6.81749">
        <ele>792</ele>
        <time>2022-09-12T07:54:30Z</time>
      </trkpt>
      <trkpt lat="47.87625" lon="6.8175">
        <ele>793</ele>
        <time>2022-09-12T07:54:31Z</time>
      </trkpt>
      <trkpt lat="47.87625" lon="6.81752">
        <ele>793</ele>
        <time>2022-09-12T07:54:32Z</time>
      </trkpt>
      <trkpt lat="47.87625" lon="6.81753">
        <ele>793</ele>
        <time>2022-09-12T07:54:33Z</time>
      </trkpt>
      <trkpt lat="47.87625" lon="6.81754">
        <ele>793</ele>
        <time>2022-09-12T07:54:34Z</time>
      </trkpt>
      <trkpt lat="47.87624" lon="6.81755">
        <ele>793</ele>
        <time>2022-09-12T07:54:35Z</time>
      </trkpt>
      <trkpt lat="47.87624" lon="6.81756">
        <ele>794</ele>
        <time>2022-09-12T07:54:36Z</time>
      </trkpt>
      <trkpt lat="47.87624" lon="6.81757">
        <ele>794</ele>
        <time>2022-09-12T07:54:37Z</time>
      </trkpt>
      <trkpt lat="47.87623" lon="6.81758">
        <ele>794</ele>
        <time>2022-09-12T07:54:38Z</time>
      </trkpt>
      <trkpt lat="47.87623" lon="6.81759">
        <ele>794</ele>
        <time>2022-09-12T07:54:39Z</time>
      </trkpt>
      <trkpt lat="47.87622" lon="6.81761">
        <ele>794</ele>
        <time>2022-09-12T07:54:40Z</time>
      </trkpt>
      <trkpt lat="47.87622" lon="6.81762">
        <ele>794</ele>
        <time>2022-09-12T07:54:41Z</time>
      </trkpt>
      <trkpt lat="47.87621" lon="6.81763">
        <ele>794</ele>
        <time>2022-09-12T07:54:42Z</time>
      </trkpt>
      <trkpt lat="47.87621" lon="6.81764">
        <ele>794</ele>
        <time>2022-09-12T07:54:43Z</time>
      </trkpt>
      <trkpt lat="47.8762" lon="6.81765">
        <ele>794</ele>
        <time>2022-09-12T07:54:44Z</time>
      </trkpt>
      <trkpt lat="47.87619" lon="6.81766">
        <ele>794</ele>
        <time>2022-09-12T07:54:45Z</time>
      </trkpt>
      <trkpt lat="47.87619" lon="6.81767">
        <ele>795</ele>
        <time>2022-09-12T07:54:46Z</time>
      </trkpt>
      <trkpt lat="47.87618" lon="6.81768">
        <ele>795</ele>
        <time>2022-09-12T07:54:47Z</time>
      </trkpt>
      <trkpt lat="47.87618" lon="6.81769">
        <ele>795</ele>
        <time>2022-09-12T07:54:48Z</time>
      </trkpt>
      <trkpt lat="47.87617" lon="6.8177">
        <ele>795</ele>
        <time>2022-09-12T07:54:49Z</time>
      </trkpt>
      <trkpt lat="47.87617" lon="6.81772">
        <ele>795</ele>
        <time>2022-09-12T07:54:50Z</time>
      </trkpt>
      <trkpt lat="47.87616" lon="6.81773">
        <ele>795</ele>
        <time>2022-09-12T07:54:51Z</time>
      </trkpt>
      <trkpt lat="47.87615" lon="6.81774">
        <ele>795</ele>
        <time>2022-09-12T07:54:52Z</time>
      </trkpt>
      <trkpt lat="47.87615" lon="6.81775">
        <ele>795</ele>
        <time>2022-09-12T07:54:53Z</time>
      </trkpt>
      <trkpt lat="47.87614" lon="6.81776">
        <ele>795</ele>
        <time>2022-09-12T07:54:54Z</time>
      </trkpt>
      <trkpt lat="47.87613" lon="6.81777">
        <ele>795</ele>
        <time>2022-09-12T07:54:55Z</time>
      </trkpt>
      <trkpt lat="47.87613" lon="6.81778">
        <ele>796</ele>
        <time>2022-09-12T07:54:56Z</time>
      </trkpt>
      <trkpt lat="47.87612" lon="6.81779">
        <ele>796</ele>
        <time>2022-09-12T07:54:57Z</time>
      </trkpt>
      <trkpt lat="47.87612" lon="6.8178">
        <ele>796</ele>
        <time>2022-09-12T07:54:58Z</time>
      </trkpt>
      <trkpt lat="47.87611" lon="6.81781">
        <ele>796</ele>
        <time>2022-09-12T07:54:59Z</time>
      </trkpt>
      <trkpt lat="47.87611" lon="6.81782">
        <ele>796</ele>
        <time>2022-09-12T07:55:00Z</time>
      </trkpt>
      <trkpt lat="47.8761" lon="6.81783">
        <ele>796</ele>
        <time>2022-09-12T07:55:01Z</time>
      </trkpt>
      <trkpt lat="47.8761" lon="6.81784">
        <ele>796</ele>
        <time>2022-09-12T07:55:02Z</time>
      </trkpt>
      <trkpt lat="47.87609" lon="6.81785">
        <ele>796</ele>
        <time>2022-09-12T07:55:03Z</time>
      </trkpt>
      <trkpt lat="47.87608" lon="6.81786">
        <ele>796</ele>
        <time>2022-09-12T07:55:04Z</time>
      </trkpt>
      <trkpt lat="47.87608" lon="6.81787">
        <ele>796</ele>
        <time>2022-09-12T07:55:05Z</time>
      </trkpt>
      <trkpt lat="47.87607" lon="6.81788">
        <ele>796</ele>
        <time>2022-09-12T07:55:06Z</time>
      </trkpt>
      <trkpt lat="47.87607" lon="6.81789">
        <ele>796</ele>
        <time>2022-09-12T07:55:07Z</time>
      </trkpt>
      <trkpt lat="47.87607" lon="6.8179">
        <ele>796</ele>
        <time>2022-09-12T07:55:08Z</time>
      </trkpt>
      <trkpt lat="47.87606" lon="6.81791">
        <ele>796</ele>
        <time>2022-09-12T07:55:09Z</time>
      </trkpt>
      <trkpt lat="47.87605" lon="6.81792">
        <ele>797</ele>
        <time>2022-09-12T07:55:42Z</time>
      </trkpt>
      <trkpt lat="47.87604" lon="6.81793">
        <ele>797</ele>
        <time>2022-09-12T07:55:43Z</time>
      </trkpt>
      <trkpt lat="47.87604" lon="6.81794">
        <ele>797</ele>
        <time>2022-09-12T07:55:44Z</time>
      </trkpt>
      <trkpt lat="47.87605" lon="6.81795">
        <ele>797</ele>
        <time>2022-09-12T07:58:21Z</time>
      </trkpt>
      <trkpt lat="47.87605" lon="6.81795">
        <ele>797</ele>
        <time>2022-09-12T07:58:22Z</time>
      </trkpt>
      <trkpt lat="47.87606" lon="6.81795">
        <ele>797</ele>
        <time>2022-09-12T07:58:23Z</time>
      </trkpt>
      <trkpt lat="47.87605" lon="6.81794">
        <ele>797</ele>
        <time>2022-09-12T07:58:24Z</time>
      </trkpt>
      <trkpt lat="47.87605" lon="6.81794">
        <ele>797</ele>
        <time>2022-09-12T07:58:25Z</time>
      </trkpt>
      <trkpt lat="47.87605" lon="6.81793">
        <ele>797</ele>
        <time>2022-09-12T07:58:26Z</time>
      </trkpt>
      <trkpt lat="47.87604" lon="6.81792">
        <ele>797</ele>
        <time>2022-09-12T07:58:27Z</time>
      </trkpt>
      <trkpt lat="47.87604" lon="6.81791">
        <ele>797</ele>
        <time>2022-09-12T07:58:28Z</time>
      </trkpt>
      <trkpt lat="47.87603" lon="6.8179">
        <ele>797</ele>
        <time>2022-09-12T07:58:29Z</time>
      </trkpt>
      <trkpt lat="47.87603" lon="6.81789">
        <ele>797</ele>
        <time>2022-09-12T07:58:30Z</time>
      </trkpt>
      <trkpt lat="47.87602" lon="6.81787">
        <ele>798</ele>
        <time>2022-09-12T07:58:31Z</time>
      </trkpt>
      <trkpt lat="47.87602" lon="6.81786">
        <ele>798</ele>
        <time>2022-09-12T07:58:32Z</time>
      </trkpt>
      <trkpt lat="47.87602" lon="6.81785">
        <ele>798</ele>
        <time>2022-09-12T07:58:33Z</time>
      </trkpt>
      <trkpt lat="47.87601" lon="6.81783">
        <ele>798</ele>
        <time>2022-09-12T07:58:34Z</time>
      </trkpt>
      <trkpt lat="47.87601" lon="6.81782">
        <ele>798</ele>
        <time>2022-09-12T07:58:35Z</time>
      </trkpt>
      <trkpt lat="47.87601" lon="6.81781">
        <ele>798</ele>
        <time>2022-09-12T07:58:36Z</time>
      </trkpt>
      <trkpt lat="47.87601" lon="6.81781">
        <ele>798</ele>
        <time>2022-09-12T07:58:37Z</time>
      </trkpt>
      <trkpt lat="47.87601" lon="6.81779">
        <ele>798</ele>
        <time>2022-09-12T07:58:38Z</time>
      </trkpt>
      <trkpt lat="47.87601" lon="6.81778">
        <ele>798</ele>
        <time>2022-09-12T07:58:39Z</time>
      </trkpt>
      <trkpt lat="47.87601" lon="6.81777">
        <ele>798</ele>
        <time>2022-09-12T07:58:40Z</time>
      </trkpt>
      <trkpt lat="47.87601" lon="6.81776">
        <ele>799</ele>
        <time>2022-09-12T07:58:41Z</time>
      </trkpt>
      <trkpt lat="47.87601" lon="6.81774">
        <ele>799</ele>
        <time>2022-09-12T07:58:42Z</time>
      </trkpt>
      <trkpt lat="47.87601" lon="6.81773">
        <ele>799</ele>
        <time>2022-09-12T07:58:43Z</time>
      </trkpt>
      <trkpt lat="47.87601" lon="6.81772">
        <ele>799</ele>
        <time>2022-09-12T07:58:44Z</time>
      </trkpt>
      <trkpt lat="47.87601" lon="6.81771">
        <ele>799</ele>
        <time>2022-09-12T07:58:45Z</time>
      </trkpt>
      <trkpt lat="47.87601" lon="6.81771">
        <ele>799</ele>
        <time>2022-09-12T07:58:46Z</time>
      </trkpt>
      <trkpt lat="47.87601" lon="6.8177">
        <ele>799</ele>
        <time>2022-09-12T07:58:47Z</time>
      </trkpt>
      <trkpt lat="47.87601" lon="6.81769">
        <ele>799</ele>
        <time>2022-09-12T07:58:48Z</time>
      </trkpt>
      <trkpt lat="47.87601" lon="6.81767">
        <ele>799</ele>
        <time>2022-09-12T07:58:49Z</time>
      </trkpt>
      <trkpt lat="47.87601" lon="6.81766">
        <ele>799</ele>
        <time>2022-09-12T07:58:50Z</time>
      </trkpt>
      <trkpt lat="47.87601" lon="6.81765">
        <ele>800</ele>
        <time>2022-09-12T07:58:51Z</time>
      </trkpt>
      <trkpt lat="47.876" lon="6.81764">
        <ele>800</ele>
        <time>2022-09-12T07:58:52Z</time>
      </trkpt>
      <trkpt lat="47.876" lon="6.81763">
        <ele>800</ele>
        <time>2022-09-12T07:58:53Z</time>
      </trkpt>
      <trkpt lat="47.876" lon="6.81761">
        <ele>800</ele>
        <time>2022-09-12T07:58:54Z</time>
      </trkpt>
      <trkpt lat="47.876" lon="6.8176">
        <ele>800</ele>
        <time>2022-09-12T07:58:55Z</time>
      </trkpt>
      <trkpt lat="47.876" lon="6.81759">
        <ele>801</ele>
        <time>2022-09-12T07:58:56Z</time>
      </trkpt>
      <trkpt lat="47.876" lon="6.81757">
        <ele>801</ele>
        <time>2022-09-12T07:58:57Z</time>
      </trkpt>
      <trkpt lat="47.876" lon="6.81757">
        <ele>801</ele>
        <time>2022-09-12T07:58:58Z</time>
      </trkpt>
      <trkpt lat="47.876" lon="6.81756">
        <ele>801</ele>
        <time>2022-09-12T07:58:59Z</time>
      </trkpt>
      <trkpt lat="47.876" lon="6.81755">
        <ele>801</ele>
        <time>2022-09-12T07:59:00Z</time>
      </trkpt>
      <trkpt lat="47.876" lon="6.81754">
        <ele>801</ele>
        <time>2022-09-12T07:59:01Z</time>
      </trkpt>
      <trkpt lat="47.876" lon="6.81752">
        <ele>801</ele>
        <time>2022-09-12T07:59:02Z</time>
      </trkpt>
      <trkpt lat="47.876" lon="6.81751">
        <ele>801</ele>
        <time>2022-09-12T07:59:03Z</time>
      </trkpt>
      <trkpt lat="47.87599" lon="6.8175">
        <ele>801</ele>
        <time>2022-09-12T07:59:04Z</time>
      </trkpt>
      <trkpt lat="47.87599" lon="6.81748">
        <ele>801</ele>
        <time>2022-09-12T07:59:05Z</time>
      </trkpt>
      <trkpt lat="47.87599" lon="6.81747">
        <ele>801</ele>
        <time>2022-09-12T07:59:06Z</time>
      </trkpt>
      <trkpt lat="47.87598" lon="6.81745">
        <ele>801</ele>
        <time>2022-09-12T07:59:07Z</time>
      </trkpt>
      <trkpt lat="47.87598" lon="6.81744">
        <ele>801</ele>
        <time>2022-09-12T07:59:08Z</time>
      </trkpt>
      <trkpt lat="47.87597" lon="6.81743">
        <ele>801</ele>
        <time>2022-09-12T07:59:09Z</time>
      </trkpt>
      <trkpt lat="47.87597" lon="6.81741">
        <ele>801</ele>
        <time>2022-09-12T07:59:10Z</time>
      </trkpt>
      <trkpt lat="47.87597" lon="6.8174">
        <ele>801</ele>
        <time>2022-09-12T07:59:11Z</time>
      </trkpt>
      <trkpt lat="47.87597" lon="6.81739">
        <ele>801</ele>
        <time>2022-09-12T07:59:12Z</time>
      </trkpt>
      <trkpt lat="47.87597" lon="6.81737">
        <ele>801</ele>
        <time>2022-09-12T07:59:13Z</time>
      </trkpt>
      <trkpt lat="47.87597" lon="6.81736">
        <ele>801</ele>
        <time>2022-09-12T07:59:14Z</time>
      </trkpt>
      <trkpt lat="47.87598" lon="6.81735">
        <ele>801</ele>
        <time>2022-09-12T07:59:15Z</time>
      </trkpt>
      <trkpt lat="47.87598" lon="6.81734">
        <ele>802</ele>
        <time>2022-09-12T07:59:16Z</time>
      </trkpt>
      <trkpt lat="47.87598" lon="6.81733">
        <ele>802</ele>
        <time>2022-09-12T07:59:17Z</time>
      </trkpt>
      <trkpt lat="47.87598" lon="6.81731">
        <ele>802</ele>
        <time>2022-09-12T07:59:18Z</time>
      </trkpt>
      <trkpt lat="47.87598" lon="6.8173">
        <ele>802</ele>
        <time>2022-09-12T07:59:19Z</time>
      </trkpt>
      <trkpt lat="47.87598" lon="6.81729">
        <ele>802</ele>
        <time>2022-09-12T07:59:20Z</time>
      </trkpt>
      <trkpt lat="47.87598" lon="6.81727">
        <ele>802</ele>
        <time>2022-09-12T07:59:21Z</time>
      </trkpt>
      <trkpt lat="47.87598" lon="6.81726">
        <ele>802</ele>
        <time>2022-09-12T07:59:22Z</time>
      </trkpt>
      <trkpt lat="47.87598" lon="6.81725">
        <ele>802</ele>
        <time>2022-09-12T07:59:23Z</time>
      </trkpt>
      <trkpt lat="47.87598" lon="6.81723">
        <ele>802</ele>
        <time>2022-09-12T07:59:24Z</time>
      </trkpt>
      <trkpt lat="47.87599" lon="6.81722">
        <ele>802</ele>
        <time>2022-09-12T07:59:25Z</time>
      </trkpt>
      <trkpt lat="47.87599" lon="6.81721">
        <ele>803</ele>
        <time>2022-09-12T07:59:26Z</time>
      </trkpt>
      <trkpt lat="47.87599" lon="6.81719">
        <ele>804</ele>
        <time>2022-09-12T07:59:33Z</time>
      </trkpt>
      <trkpt lat="47.87599" lon="6.81718">
        <ele>804</ele>
        <time>2022-09-12T07:59:34Z</time>
      </trkpt>
      <trkpt lat="47.87599" lon="6.81717">
        <ele>804</ele>
        <time>2022-09-12T07:59:35Z</time>
      </trkpt>
      <trkpt lat="47.87599" lon="6.81716">
        <ele>804</ele>
        <time>2022-09-12T07:59:36Z</time>
      </trkpt>
      <trkpt lat="47.87599" lon="6.81715">
        <ele>804</ele>
        <time>2022-09-12T07:59:37Z</time>
      </trkpt>
      <trkpt lat="47.876" lon="6.81713">
        <ele>804</ele>
        <time>2022-09-12T07:59:38Z</time>
      </trkpt>
      <trkpt lat="47.876" lon="6.81712">
        <ele>804</ele>
        <time>2022-09-12T07:59:39Z</time>
      </trkpt>
      <trkpt lat="47.87601" lon="6.81711">
        <ele>804</ele>
        <time>2022-09-12T07:59:40Z</time>
      </trkpt>
      <trkpt lat="47.87601" lon="6.81709">
        <ele>804</ele>
        <time>2022-09-12T07:59:41Z</time>
      </trkpt>
      <trkpt lat="47.87602" lon="6.81708">
        <ele>804</ele>
        <time>2022-09-12T07:59:42Z</time>
      </trkpt>
      <trkpt lat="47.87602" lon="6.81707">
        <ele>804</ele>
        <time>2022-09-12T07:59:43Z</time>
      </trkpt>
      <trkpt lat="47.87603" lon="6.81706">
        <ele>804</ele>
        <time>2022-09-12T07:59:44Z</time>
      </trkpt>
      <trkpt lat="47.87603" lon="6.81705">
        <ele>804</ele>
        <time>2022-09-12T07:59:45Z</time>
      </trkpt>
      <trkpt lat="47.87603" lon="6.81704">
        <ele>804</ele>
        <time>2022-09-12T07:59:46Z</time>
      </trkpt>
      <trkpt lat="47.87604" lon="6.81703">
        <ele>804</ele>
        <time>2022-09-12T07:59:47Z</time>
      </trkpt>
      <trkpt lat="47.87604" lon="6.81701">
        <ele>804</ele>
        <time>2022-09-12T07:59:48Z</time>
      </trkpt>
      <trkpt lat="47.87604" lon="6.817">
        <ele>804</ele>
        <time>2022-09-12T07:59:49Z</time>
      </trkpt>
      <trkpt lat="47.87604" lon="6.81699">
        <ele>804</ele>
        <time>2022-09-12T07:59:50Z</time>
      </trkpt>
      <trkpt lat="47.87605" lon="6.81698">
        <ele>805</ele>
        <time>2022-09-12T07:59:51Z</time>
      </trkpt>
      <trkpt lat="47.87605" lon="6.81696">
        <ele>805</ele>
        <time>2022-09-12T07:59:52Z</time>
      </trkpt>
      <trkpt lat="47.87605" lon="6.81695">
        <ele>805</ele>
        <time>2022-09-12T07:59:53Z</time>
      </trkpt>
      <trkpt lat="47.87605" lon="6.81694">
        <ele>805</ele>
        <time>2022-09-12T07:59:54Z</time>
      </trkpt>
      <trkpt lat="47.87606" lon="6.81693">
        <ele>805</ele>
        <time>2022-09-12T07:59:55Z</time>
      </trkpt>
      <trkpt lat="47.87606" lon="6.81692">
        <ele>806</ele>
        <time>2022-09-12T07:59:56Z</time>
      </trkpt>
      <trkpt lat="47.87606" lon="6.81691">
        <ele>806</ele>
        <time>2022-09-12T07:59:57Z</time>
      </trkpt>
      <trkpt lat="47.87607" lon="6.81689">
        <ele>806</ele>
        <time>2022-09-12T07:59:58Z</time>
      </trkpt>
      <trkpt lat="47.87607" lon="6.81688">
        <ele>806</ele>
        <time>2022-09-12T07:59:59Z</time>
      </trkpt>
      <trkpt lat="47.87607" lon="6.81687">
        <ele>806</ele>
        <time>2022-09-12T08:00:00Z</time>
      </trkpt>
      <trkpt lat="47.87608" lon="6.81686">
        <ele>806</ele>
        <time>2022-09-12T08:00:01Z</time>
      </trkpt>
      <trkpt lat="47.87608" lon="6.81685">
        <ele>806</ele>
        <time>2022-09-12T08:00:02Z</time>
      </trkpt>
      <trkpt lat="47.87608" lon="6.81684">
        <ele>806</ele>
        <time>2022-09-12T08:00:03Z</time>
      </trkpt>
      <trkpt lat="47.87609" lon="6.81683">
        <ele>806</ele>
        <time>2022-09-12T08:00:04Z</time>
      </trkpt>
      <trkpt lat="47.87609" lon="6.81682">
        <ele>806</ele>
        <time>2022-09-12T08:00:05Z</time>
      </trkpt>
      <trkpt lat="47.87609" lon="6.81681">
        <ele>807</ele>
        <time>2022-09-12T08:00:06Z</time>
      </trkpt>
      <trkpt lat="47.8761" lon="6.8168">
        <ele>807</ele>
        <time>2022-09-12T08:00:07Z</time>
      </trkpt>
      <trkpt lat="47.8761" lon="6.81679">
        <ele>807</ele>
        <time>2022-09-12T08:00:08Z</time>
      </trkpt>
      <trkpt lat="47.8761" lon="6.81678">
        <ele>807</ele>
        <time>2022-09-12T08:00:09Z</time>
      </trkpt>
      <trkpt lat="47.8761" lon="6.81676">
        <ele>807</ele>
        <time>2022-09-12T08:00:10Z</time>
      </trkpt>
      <trkpt lat="47.87611" lon="6.81675">
        <ele>807</ele>
        <time>2022-09-12T08:00:11Z</time>
      </trkpt>
      <trkpt lat="47.87611" lon="6.81674">
        <ele>807</ele>
        <time>2022-09-12T08:00:12Z</time>
      </trkpt>
      <trkpt lat="47.87611" lon="6.81673">
        <ele>807</ele>
        <time>2022-09-12T08:00:13Z</time>
      </trkpt>
      <trkpt lat="47.87612" lon="6.81672">
        <ele>807</ele>
        <time>2022-09-12T08:00:14Z</time>
      </trkpt>
      <trkpt lat="47.87612" lon="6.81671">
        <ele>807</ele>
        <time>2022-09-12T08:00:15Z</time>
      </trkpt>
      <trkpt lat="47.87612" lon="6.81669">
        <ele>807</ele>
        <time>2022-09-12T08:00:16Z</time>
      </trkpt>
      <trkpt lat="47.87613" lon="6.81668">
        <ele>807</ele>
        <time>2022-09-12T08:00:17Z</time>
      </trkpt>
      <trkpt lat="47.87613" lon="6.81667">
        <ele>807</ele>
        <time>2022-09-12T08:00:18Z</time>
      </trkpt>
      <trkpt lat="47.87613" lon="6.81666">
        <ele>807</ele>
        <time>2022-09-12T08:00:19Z</time>
      </trkpt>
      <trkpt lat="47.87614" lon="6.81665">
        <ele>807</ele>
        <time>2022-09-12T08:00:20Z</time>
      </trkpt>
      <trkpt lat="47.87614" lon="6.81664">
        <ele>807</ele>
        <time>2022-09-12T08:00:21Z</time>
      </trkpt>
      <trkpt lat="47.87614" lon="6.81663">
        <ele>807</ele>
        <time>2022-09-12T08:00:22Z</time>
      </trkpt>
      <trkpt lat="47.87613" lon="6.81661">
        <ele>807</ele>
        <time>2022-09-12T08:00:23Z</time>
      </trkpt>
      <trkpt lat="47.87613" lon="6.8166">
        <ele>807</ele>
        <time>2022-09-12T08:00:24Z</time>
      </trkpt>
      <trkpt lat="47.87613" lon="6.81658">
        <ele>807</ele>
        <time>2022-09-12T08:00:25Z</time>
      </trkpt>
      <trkpt lat="47.87613" lon="6.81657">
        <ele>807</ele>
        <time>2022-09-12T08:00:26Z</time>
      </trkpt>
      <trkpt lat="47.87613" lon="6.81655">
        <ele>807</ele>
        <time>2022-09-12T08:00:27Z</time>
      </trkpt>
      <trkpt lat="47.87614" lon="6.81654">
        <ele>807</ele>
        <time>2022-09-12T08:00:28Z</time>
      </trkpt>
      <trkpt lat="47.87614" lon="6.81653">
        <ele>807</ele>
        <time>2022-09-12T08:00:29Z</time>
      </trkpt>
      <trkpt lat="47.87614" lon="6.81653">
        <ele>807</ele>
        <time>2022-09-12T08:00:30Z</time>
      </trkpt>
      <trkpt lat="47.87615" lon="6.81651">
        <ele>807</ele>
        <time>2022-09-12T08:00:31Z</time>
      </trkpt>
      <trkpt lat="47.87616" lon="6.8165">
        <ele>807</ele>
        <time>2022-09-12T08:00:32Z</time>
      </trkpt>
      <trkpt lat="47.87616" lon="6.81649">
        <ele>807</ele>
        <time>2022-09-12T08:00:33Z</time>
      </trkpt>
      <trkpt lat="47.87617" lon="6.81648">
        <ele>807</ele>
        <time>2022-09-12T08:00:34Z</time>
      </trkpt>
      <trkpt lat="47.87617" lon="6.81647">
        <ele>807</ele>
        <time>2022-09-12T08:00:35Z</time>
      </trkpt>
      <trkpt lat="47.87618" lon="6.81646">
        <ele>807</ele>
        <time>2022-09-12T08:00:36Z</time>
      </trkpt>
      <trkpt lat="47.87618" lon="6.81645">
        <ele>807</ele>
        <time>2022-09-12T08:00:37Z</time>
      </trkpt>
      <trkpt lat="47.87619" lon="6.81644">
        <ele>807</ele>
        <time>2022-09-12T08:00:38Z</time>
      </trkpt>
      <trkpt lat="47.87619" lon="6.81643">
        <ele>807</ele>
        <time>2022-09-12T08:00:39Z</time>
      </trkpt>
      <trkpt lat="47.87619" lon="6.81642">
        <ele>807</ele>
        <time>2022-09-12T08:00:40Z</time>
      </trkpt>
      <trkpt lat="47.8762" lon="6.81641">
        <ele>808</ele>
        <time>2022-09-12T08:00:41Z</time>
      </trkpt>
      <trkpt lat="47.8762" lon="6.8164">
        <ele>808</ele>
        <time>2022-09-12T08:00:42Z</time>
      </trkpt>
      <trkpt lat="47.8762" lon="6.81639">
        <ele>808</ele>
        <time>2022-09-12T08:00:43Z</time>
      </trkpt>
      <trkpt lat="47.87621" lon="6.81637">
        <ele>808</ele>
        <time>2022-09-12T08:00:44Z</time>
      </trkpt>
      <trkpt lat="47.87621" lon="6.81636">
        <ele>808</ele>
        <time>2022-09-12T08:00:45Z</time>
      </trkpt>
      <trkpt lat="47.87621" lon="6.81635">
        <ele>808</ele>
        <time>2022-09-12T08:00:46Z</time>
      </trkpt>
      <trkpt lat="47.87621" lon="6.81634">
        <ele>808</ele>
        <time>2022-09-12T08:00:47Z</time>
      </trkpt>
      <trkpt lat="47.87622" lon="6.81633">
        <ele>808</ele>
        <time>2022-09-12T08:00:48Z</time>
      </trkpt>
      <trkpt lat="47.87622" lon="6.81631">
        <ele>808</ele>
        <time>2022-09-12T08:00:49Z</time>
      </trkpt>
      <trkpt lat="47.87623" lon="6.81629">
        <ele>808</ele>
        <time>2022-09-12T08:00:50Z</time>
      </trkpt>
      <trkpt lat="47.87623" lon="6.81628">
        <ele>808</ele>
        <time>2022-09-12T08:00:51Z</time>
      </trkpt>
      <trkpt lat="47.87623" lon="6.81626">
        <ele>808</ele>
        <time>2022-09-12T08:00:52Z</time>
      </trkpt>
      <trkpt lat="47.87623" lon="6.81625">
        <ele>808</ele>
        <time>2022-09-12T08:00:53Z</time>
      </trkpt>
      <trkpt lat="47.87624" lon="6.81623">
        <ele>808</ele>
        <time>2022-09-12T08:00:54Z</time>
      </trkpt>
      <trkpt lat="47.87624" lon="6.81623">
        <ele>808</ele>
        <time>2022-09-12T08:00:55Z</time>
      </trkpt>
      <trkpt lat="47.87624" lon="6.81622">
        <ele>809</ele>
        <time>2022-09-12T08:00:56Z</time>
      </trkpt>
      <trkpt lat="47.87625" lon="6.81621">
        <ele>809</ele>
        <time>2022-09-12T08:00:57Z</time>
      </trkpt>
      <trkpt lat="47.87625" lon="6.8162">
        <ele>809</ele>
        <time>2022-09-12T08:00:58Z</time>
      </trkpt>
      <trkpt lat="47.87626" lon="6.81619">
        <ele>809</ele>
        <time>2022-09-12T08:00:59Z</time>
      </trkpt>
      <trkpt lat="47.87626" lon="6.81618">
        <ele>809</ele>
        <time>2022-09-12T08:01:00Z</time>
      </trkpt>
      <trkpt lat="47.87627" lon="6.81617">
        <ele>809</ele>
        <time>2022-09-12T08:01:01Z</time>
      </trkpt>
      <trkpt lat="47.87627" lon="6.81616">
        <ele>809</ele>
        <time>2022-09-12T08:01:02Z</time>
      </trkpt>
      <trkpt lat="47.87628" lon="6.81615">
        <ele>809</ele>
        <time>2022-09-12T08:01:03Z</time>
      </trkpt>
      <trkpt lat="47.87629" lon="6.81614">
        <ele>809</ele>
        <time>2022-09-12T08:01:04Z</time>
      </trkpt>
      <trkpt lat="47.8763" lon="6.81613">
        <ele>809</ele>
        <time>2022-09-12T08:01:05Z</time>
      </trkpt>
      <trkpt lat="47.8763" lon="6.81612">
        <ele>810</ele>
        <time>2022-09-12T08:01:06Z</time>
      </trkpt>
      <trkpt lat="47.87631" lon="6.81611">
        <ele>810</ele>
        <time>2022-09-12T08:01:07Z</time>
      </trkpt>
      <trkpt lat="47.87632" lon="6.8161">
        <ele>810</ele>
        <time>2022-09-12T08:01:08Z</time>
      </trkpt>
      <trkpt lat="47.87633" lon="6.8161">
        <ele>810</ele>
        <time>2022-09-12T08:01:09Z</time>
      </trkpt>
      <trkpt lat="47.87634" lon="6.81609">
        <ele>810</ele>
        <time>2022-09-12T08:01:10Z</time>
      </trkpt>
      <trkpt lat="47.87634" lon="6.81609">
        <ele>811</ele>
        <time>2022-09-12T08:01:11Z</time>
      </trkpt>
      <trkpt lat="47.87635" lon="6.81608">
        <ele>811</ele>
        <time>2022-09-12T08:01:12Z</time>
      </trkpt>
      <trkpt lat="47.87635" lon="6.81608">
        <ele>811</ele>
        <time>2022-09-12T08:01:13Z</time>
      </trkpt>
      <trkpt lat="47.87636" lon="6.81607">
        <ele>811</ele>
        <time>2022-09-12T08:01:14Z</time>
      </trkpt>
      <trkpt lat="47.87636" lon="6.81606">
        <ele>811</ele>
        <time>2022-09-12T08:01:15Z</time>
      </trkpt>
      <trkpt lat="47.87637" lon="6.81605">
        <ele>811</ele>
        <time>2022-09-12T08:01:16Z</time>
      </trkpt>
      <trkpt lat="47.87638" lon="6.81604">
        <ele>811</ele>
        <time>2022-09-12T08:01:17Z</time>
      </trkpt>
      <trkpt lat="47.87639" lon="6.81603">
        <ele>811</ele>
        <time>2022-09-12T08:01:18Z</time>
      </trkpt>
      <trkpt lat="47.8764" lon="6.81602">
        <ele>811</ele>
        <time>2022-09-12T08:01:19Z</time>
      </trkpt>
      <trkpt lat="47.8764" lon="6.81601">
        <ele>811</ele>
        <time>2022-09-12T08:01:20Z</time>
      </trkpt>
      <trkpt lat="47.87641" lon="6.816">
        <ele>812</ele>
        <time>2022-09-12T08:01:21Z</time>
      </trkpt>
      <trkpt lat="47.87642" lon="6.81599">
        <ele>812</ele>
        <time>2022-09-12T08:01:22Z</time>
      </trkpt>
      <trkpt lat="47.87643" lon="6.81598">
        <ele>812</ele>
        <time>2022-09-12T08:01:23Z</time>
      </trkpt>
      <trkpt lat="47.87643" lon="6.81597">
        <ele>812</ele>
        <time>2022-09-12T08:01:24Z</time>
      </trkpt>
      <trkpt lat="47.87644" lon="6.81596">
        <ele>812</ele>
        <time>2022-09-12T08:01:25Z</time>
      </trkpt>
      <trkpt lat="47.87645" lon="6.81596">
        <ele>812</ele>
        <time>2022-09-12T08:01:26Z</time>
      </trkpt>
      <trkpt lat="47.87646" lon="6.81595">
        <ele>812</ele>
        <time>2022-09-12T08:01:27Z</time>
      </trkpt>
      <trkpt lat="47.87647" lon="6.81594">
        <ele>812</ele>
        <time>2022-09-12T08:01:28Z</time>
      </trkpt>
      <trkpt lat="47.87647" lon="6.81593">
        <ele>812</ele>
        <time>2022-09-12T08:01:29Z</time>
      </trkpt>
      <trkpt lat="47.87648" lon="6.81592">
        <ele>812</ele>
        <time>2022-09-12T08:01:30Z</time>
      </trkpt>
      <trkpt lat="47.87648" lon="6.81591">
        <ele>812</ele>
        <time>2022-09-12T08:01:31Z</time>
      </trkpt>
      <trkpt lat="47.87649" lon="6.8159">
        <ele>811</ele>
        <time>2022-09-12T08:01:32Z</time>
      </trkpt>
      <trkpt lat="47.87649" lon="6.81589">
        <ele>811</ele>
        <time>2022-09-12T08:01:33Z</time>
      </trkpt>
      <trkpt lat="47.8765" lon="6.81588">
        <ele>811</ele>
        <time>2022-09-12T08:01:34Z</time>
      </trkpt>
      <trkpt lat="47.87651" lon="6.81587">
        <ele>811</ele>
        <time>2022-09-12T08:01:35Z</time>
      </trkpt>
      <trkpt lat="47.87652" lon="6.81587">
        <ele>811</ele>
        <time>2022-09-12T08:01:36Z</time>
      </trkpt>
      <trkpt lat="47.87652" lon="6.81586">
        <ele>811</ele>
        <time>2022-09-12T08:01:37Z</time>
      </trkpt>
      <trkpt lat="47.87653" lon="6.81585">
        <ele>811</ele>
        <time>2022-09-12T08:01:38Z</time>
      </trkpt>
      <trkpt lat="47.87654" lon="6.81585">
        <ele>811</ele>
        <time>2022-09-12T08:01:39Z</time>
      </trkpt>
      <trkpt lat="47.87655" lon="6.81584">
        <ele>811</ele>
        <time>2022-09-12T08:01:40Z</time>
      </trkpt>
      <trkpt lat="47.87656" lon="6.81584">
        <ele>811</ele>
        <time>2022-09-12T08:01:41Z</time>
      </trkpt>
      <trkpt lat="47.87657" lon="6.81583">
        <ele>811</ele>
        <time>2022-09-12T08:01:42Z</time>
      </trkpt>
      <trkpt lat="47.87658" lon="6.81582">
        <ele>811</ele>
        <time>2022-09-12T08:01:43Z</time>
      </trkpt>
      <trkpt lat="47.87658" lon="6.81581">
        <ele>811</ele>
        <time>2022-09-12T08:01:44Z</time>
      </trkpt>
      <trkpt lat="47.87659" lon="6.81581">
        <ele>811</ele>
        <time>2022-09-12T08:01:45Z</time>
      </trkpt>
      <trkpt lat="47.8766" lon="6.8158">
        <ele>811</ele>
        <time>2022-09-12T08:01:46Z</time>
      </trkpt>
      <trkpt lat="47.87661" lon="6.81579">
        <ele>811</ele>
        <time>2022-09-12T08:01:47Z</time>
      </trkpt>
      <trkpt lat="47.87662" lon="6.81578">
        <ele>811</ele>
        <time>2022-09-12T08:01:48Z</time>
      </trkpt>
      <trkpt lat="47.87663" lon="6.81578">
        <ele>811</ele>
        <time>2022-09-12T08:01:49Z</time>
      </trkpt>
      <trkpt lat="47.87664" lon="6.81577">
        <ele>811</ele>
        <time>2022-09-12T08:01:50Z</time>
      </trkpt>
      <trkpt lat="47.87665" lon="6.81576">
        <ele>811</ele>
        <time>2022-09-12T08:01:51Z</time>
      </trkpt>
      <trkpt lat="47.87666" lon="6.81576">
        <ele>811</ele>
        <time>2022-09-12T08:01:52Z</time>
      </trkpt>
      <trkpt lat="47.87667" lon="6.81575">
        <ele>811</ele>
        <time>2022-09-12T08:01:53Z</time>
      </trkpt>
      <trkpt lat="47.87667" lon="6.81574">
        <ele>812</ele>
        <time>2022-09-12T08:01:54Z</time>
      </trkpt>
      <trkpt lat="47.87668" lon="6.81574">
        <ele>812</ele>
        <time>2022-09-12T08:01:55Z</time>
      </trkpt>
      <trkpt lat="47.87669" lon="6.81573">
        <ele>813</ele>
        <time>2022-09-12T08:01:56Z</time>
      </trkpt>
      <trkpt lat="47.8767" lon="6.81572">
        <ele>813</ele>
        <time>2022-09-12T08:01:57Z</time>
      </trkpt>
      <trkpt lat="47.87671" lon="6.81572">
        <ele>813</ele>
        <time>2022-09-12T08:01:58Z</time>
      </trkpt>
      <trkpt lat="47.87672" lon="6.81571">
        <ele>813</ele>
        <time>2022-09-12T08:01:59Z</time>
      </trkpt>
      <trkpt lat="47.87673" lon="6.8157">
        <ele>813</ele>
        <time>2022-09-12T08:02:00Z</time>
      </trkpt>
      <trkpt lat="47.87674" lon="6.81569">
        <ele>813</ele>
        <time>2022-09-12T08:02:01Z</time>
      </trkpt>
      <trkpt lat="47.87675" lon="6.81568">
        <ele>813</ele>
        <time>2022-09-12T08:02:02Z</time>
      </trkpt>
      <trkpt lat="47.87675" lon="6.81568">
        <ele>813</ele>
        <time>2022-09-12T08:02:03Z</time>
      </trkpt>
      <trkpt lat="47.87676" lon="6.81567">
        <ele>813</ele>
        <time>2022-09-12T08:02:04Z</time>
      </trkpt>
      <trkpt lat="47.87677" lon="6.81566">
        <ele>813</ele>
        <time>2022-09-12T08:02:05Z</time>
      </trkpt>
      <trkpt lat="47.87678" lon="6.81565">
        <ele>813</ele>
        <time>2022-09-12T08:02:06Z</time>
      </trkpt>
      <trkpt lat="47.87679" lon="6.81564">
        <ele>812</ele>
        <time>2022-09-12T08:02:07Z</time>
      </trkpt>
      <trkpt lat="47.87679" lon="6.81563">
        <ele>812</ele>
        <time>2022-09-12T08:02:08Z</time>
      </trkpt>
      <trkpt lat="47.8768" lon="6.81562">
        <ele>812</ele>
        <time>2022-09-12T08:02:09Z</time>
      </trkpt>
      <trkpt lat="47.8768" lon="6.81561">
        <ele>812</ele>
        <time>2022-09-12T08:02:10Z</time>
      </trkpt>
      <trkpt lat="47.87681" lon="6.8156">
        <ele>812</ele>
        <time>2022-09-12T08:02:11Z</time>
      </trkpt>
      <trkpt lat="47.87681" lon="6.8156">
        <ele>812</ele>
        <time>2022-09-12T08:02:12Z</time>
      </trkpt>
      <trkpt lat="47.87682" lon="6.81559">
        <ele>812</ele>
        <time>2022-09-12T08:02:13Z</time>
      </trkpt>
      <trkpt lat="47.87682" lon="6.81558">
        <ele>812</ele>
        <time>2022-09-12T08:02:14Z</time>
      </trkpt>
      <trkpt lat="47.87683" lon="6.81558">
        <ele>812</ele>
        <time>2022-09-12T08:02:15Z</time>
      </trkpt>
      <trkpt lat="47.87683" lon="6.81557">
        <ele>812</ele>
        <time>2022-09-12T08:02:16Z</time>
      </trkpt>
      <trkpt lat="47.87683" lon="6.81557">
        <ele>812</ele>
        <time>2022-09-12T08:02:17Z</time>
      </trkpt>
      <trkpt lat="47.87684" lon="6.81556">
        <ele>812</ele>
        <time>2022-09-12T08:02:18Z</time>
      </trkpt>
      <trkpt lat="47.87684" lon="6.81556">
        <ele>812</ele>
        <time>2022-09-12T08:02:19Z</time>
      </trkpt>
      <trkpt lat="47.87685" lon="6.81555">
        <ele>812</ele>
        <time>2022-09-12T08:02:20Z</time>
      </trkpt>
      <trkpt lat="47.87686" lon="6.81554">
        <ele>812</ele>
        <time>2022-09-12T08:02:21Z</time>
      </trkpt>
      <trkpt lat="47.87686" lon="6.81553">
        <ele>812</ele>
        <time>2022-09-12T08:02:22Z</time>
      </trkpt>
      <trkpt lat="47.87687" lon="6.81552">
        <ele>812</ele>
        <time>2022-09-12T08:02:23Z</time>
      </trkpt>
      <trkpt lat="47.87687" lon="6.81551">
        <ele>812</ele>
        <time>2022-09-12T08:02:24Z</time>
      </trkpt>
      <trkpt lat="47.87687" lon="6.8155">
        <ele>812</ele>
        <time>2022-09-12T08:02:25Z</time>
      </trkpt>
      <trkpt lat="47.87688" lon="6.81549">
        <ele>812</ele>
        <time>2022-09-12T08:02:26Z</time>
      </trkpt>
      <trkpt lat="47.87689" lon="6.81548">
        <ele>812</ele>
        <time>2022-09-12T08:02:27Z</time>
      </trkpt>
      <trkpt lat="47.87689" lon="6.81547">
        <ele>812</ele>
        <time>2022-09-12T08:02:28Z</time>
      </trkpt>
      <trkpt lat="47.8769" lon="6.81546">
        <ele>812</ele>
        <time>2022-09-12T08:02:29Z</time>
      </trkpt>
      <trkpt lat="47.8769" lon="6.81545">
        <ele>812</ele>
        <time>2022-09-12T08:02:30Z</time>
      </trkpt>
      <trkpt lat="47.87691" lon="6.81544">
        <ele>812</ele>
        <time>2022-09-12T08:02:31Z</time>
      </trkpt>
      <trkpt lat="47.87691" lon="6.81543">
        <ele>812</ele>
        <time>2022-09-12T08:02:32Z</time>
      </trkpt>
      <trkpt lat="47.87691" lon="6.81542">
        <ele>812</ele>
        <time>2022-09-12T08:02:33Z</time>
      </trkpt>
      <trkpt lat="47.87692" lon="6.81541">
        <ele>812</ele>
        <time>2022-09-12T08:02:34Z</time>
      </trkpt>
      <trkpt lat="47.87692" lon="6.8154">
        <ele>812</ele>
        <time>2022-09-12T08:02:35Z</time>
      </trkpt>
      <trkpt lat="47.87692" lon="6.81539">
        <ele>812</ele>
        <time>2022-09-12T08:02:36Z</time>
      </trkpt>
      <trkpt lat="47.87692" lon="6.81538">
        <ele>811</ele>
        <time>2022-09-12T08:02:37Z</time>
      </trkpt>
      <trkpt lat="47.87692" lon="6.81537">
        <ele>811</ele>
        <time>2022-09-12T08:02:38Z</time>
      </trkpt>
      <trkpt lat="47.87692" lon="6.81536">
        <ele>811</ele>
        <time>2022-09-12T08:02:39Z</time>
      </trkpt>
      <trkpt lat="47.87693" lon="6.81535">
        <ele>811</ele>
        <time>2022-09-12T08:02:40Z</time>
      </trkpt>
      <trkpt lat="47.87693" lon="6.81534">
        <ele>811</ele>
        <time>2022-09-12T08:02:41Z</time>
      </trkpt>
      <trkpt lat="47.87693" lon="6.81533">
        <ele>811</ele>
        <time>2022-09-12T08:02:42Z</time>
      </trkpt>
      <trkpt lat="47.87693" lon="6.81532">
        <ele>811</ele>
        <time>2022-09-12T08:02:43Z</time>
      </trkpt>
      <trkpt lat="47.87693" lon="6.8153">
        <ele>811</ele>
        <time>2022-09-12T08:02:44Z</time>
      </trkpt>
      <trkpt lat="47.87694" lon="6.81528">
        <ele>811</ele>
        <time>2022-09-12T08:02:50Z</time>
      </trkpt>
      <trkpt lat="47.87694" lon="6.81527">
        <ele>811</ele>
        <time>2022-09-12T08:02:51Z</time>
      </trkpt>
      <trkpt lat="47.87694" lon="6.81526">
        <ele>811</ele>
        <time>2022-09-12T08:02:52Z</time>
      </trkpt>
      <trkpt lat="47.87694" lon="6.81525">
        <ele>811</ele>
        <time>2022-09-12T08:02:53Z</time>
      </trkpt>
      <trkpt lat="47.87695" lon="6.81524">
        <ele>811</ele>
        <time>2022-09-12T08:02:54Z</time>
      </trkpt>
      <trkpt lat="47.87695" lon="6.81523">
        <ele>811</ele>
        <time>2022-09-12T08:02:55Z</time>
      </trkpt>
      <trkpt lat="47.87695" lon="6.81521">
        <ele>811</ele>
        <time>2022-09-12T08:02:56Z</time>
      </trkpt>
      <trkpt lat="47.87696" lon="6.8152">
        <ele>810</ele>
        <time>2022-09-12T08:02:57Z</time>
      </trkpt>
      <trkpt lat="47.87696" lon="6.81519">
        <ele>810</ele>
        <time>2022-09-12T08:02:58Z</time>
      </trkpt>
      <trkpt lat="47.87697" lon="6.81518">
        <ele>810</ele>
        <time>2022-09-12T08:02:59Z</time>
      </trkpt>
      <trkpt lat="47.87697" lon="6.81516">
        <ele>810</ele>
        <time>2022-09-12T08:03:00Z</time>
      </trkpt>
      <trkpt lat="47.87697" lon="6.81515">
        <ele>810</ele>
        <time>2022-09-12T08:03:01Z</time>
      </trkpt>
      <trkpt lat="47.87697" lon="6.81513">
        <ele>810</ele>
        <time>2022-09-12T08:03:02Z</time>
      </trkpt>
      <trkpt lat="47.87698" lon="6.81512">
        <ele>810</ele>
        <time>2022-09-12T08:03:03Z</time>
      </trkpt>
      <trkpt lat="47.87698" lon="6.8151">
        <ele>810</ele>
        <time>2022-09-12T08:03:04Z</time>
      </trkpt>
      <trkpt lat="47.87698" lon="6.81509">
        <ele>810</ele>
        <time>2022-09-12T08:03:05Z</time>
      </trkpt>
      <trkpt lat="47.87699" lon="6.81507">
        <ele>811</ele>
        <time>2022-09-12T08:03:06Z</time>
      </trkpt>
      <trkpt lat="47.87699" lon="6.81505">
        <ele>811</ele>
        <time>2022-09-12T08:03:07Z</time>
      </trkpt>
      <trkpt lat="47.877" lon="6.81504">
        <ele>811</ele>
        <time>2022-09-12T08:03:08Z</time>
      </trkpt>
      <trkpt lat="47.877" lon="6.81502">
        <ele>811</ele>
        <time>2022-09-12T08:03:09Z</time>
      </trkpt>
      <trkpt lat="47.87701" lon="6.81501">
        <ele>811</ele>
        <time>2022-09-12T08:03:10Z</time>
      </trkpt>
      <trkpt lat="47.87701" lon="6.81499">
        <ele>811</ele>
        <time>2022-09-12T08:03:11Z</time>
      </trkpt>
      <trkpt lat="47.87701" lon="6.81497">
        <ele>811</ele>
        <time>2022-09-12T08:03:12Z</time>
      </trkpt>
      <trkpt lat="47.87702" lon="6.81496">
        <ele>811</ele>
        <time>2022-09-12T08:03:13Z</time>
      </trkpt>
      <trkpt lat="47.87702" lon="6.81494">
        <ele>811</ele>
        <time>2022-09-12T08:03:14Z</time>
      </trkpt>
      <trkpt lat="47.87703" lon="6.81493">
        <ele>811</ele>
        <time>2022-09-12T08:03:15Z</time>
      </trkpt>
      <trkpt lat="47.87703" lon="6.81491">
        <ele>811</ele>
        <time>2022-09-12T08:03:16Z</time>
      </trkpt>
      <trkpt lat="47.87704" lon="6.8149">
        <ele>811</ele>
        <time>2022-09-12T08:03:17Z</time>
      </trkpt>
      <trkpt lat="47.87704" lon="6.81489">
        <ele>811</ele>
        <time>2022-09-12T08:03:18Z</time>
      </trkpt>
      <trkpt lat="47.87704" lon="6.81488">
        <ele>811</ele>
        <time>2022-09-12T08:03:19Z</time>
      </trkpt>
      <trkpt lat="47.87705" lon="6.81487">
        <ele>811</ele>
        <time>2022-09-12T08:03:20Z</time>
      </trkpt>
      <trkpt lat="47.87705" lon="6.81485">
        <ele>811</ele>
        <time>2022-09-12T08:03:21Z</time>
      </trkpt>
      <trkpt lat="47.87705" lon="6.81484">
        <ele>811</ele>
        <time>2022-09-12T08:03:22Z</time>
      </trkpt>
      <trkpt lat="47.87705" lon="6.81483">
        <ele>811</ele>
        <time>2022-09-12T08:03:23Z</time>
      </trkpt>
      <trkpt lat="47.87706" lon="6.81482">
        <ele>811</ele>
        <time>2022-09-12T08:03:24Z</time>
      </trkpt>
      <trkpt lat="47.87706" lon="6.81481">
        <ele>811</ele>
        <time>2022-09-12T08:03:25Z</time>
      </trkpt>
      <trkpt lat="47.87706" lon="6.81479">
        <ele>812</ele>
        <time>2022-09-12T08:03:26Z</time>
      </trkpt>
      <trkpt lat="47.87706" lon="6.81478">
        <ele>812</ele>
        <time>2022-09-12T08:03:27Z</time>
      </trkpt>
      <trkpt lat="47.87707" lon="6.81477">
        <ele>812</ele>
        <time>2022-09-12T08:03:28Z</time>
      </trkpt>
      <trkpt lat="47.87707" lon="6.81476">
        <ele>812</ele>
        <time>2022-09-12T08:03:29Z</time>
      </trkpt>
      <trkpt lat="47.87708" lon="6.81475">
        <ele>812</ele>
        <time>2022-09-12T08:03:30Z</time>
      </trkpt>
      <trkpt lat="47.87708" lon="6.81474">
        <ele>812</ele>
        <time>2022-09-12T08:03:31Z</time>
      </trkpt>
      <trkpt lat="47.87709" lon="6.81473">
        <ele>812</ele>
        <time>2022-09-12T08:03:32Z</time>
      </trkpt>
      <trkpt lat="47.87709" lon="6.81472">
        <ele>812</ele>
        <time>2022-09-12T08:03:33Z</time>
      </trkpt>
      <trkpt lat="47.8771" lon="6.81471">
        <ele>812</ele>
        <time>2022-09-12T08:03:34Z</time>
      </trkpt>
      <trkpt lat="47.8771" lon="6.81471">
        <ele>812</ele>
        <time>2022-09-12T08:03:35Z</time>
      </trkpt>
      <trkpt lat="47.87711" lon="6.8147">
        <ele>812</ele>
        <time>2022-09-12T08:03:36Z</time>
      </trkpt>
      <trkpt lat="47.87711" lon="6.8147">
        <ele>812</ele>
        <time>2022-09-12T08:03:37Z</time>
      </trkpt>
      <trkpt lat="47.87711" lon="6.81469">
        <ele>812</ele>
        <time>2022-09-12T08:03:38Z</time>
      </trkpt>
      <trkpt lat="47.87711" lon="6.81469">
        <ele>812</ele>
        <time>2022-09-12T08:03:39Z</time>
      </trkpt>
      <trkpt lat="47.87711" lon="6.81469">
        <ele>812</ele>
        <time>2022-09-12T08:03:40Z</time>
      </trkpt>
      <trkpt lat="47.87711" lon="6.81469">
        <ele>813</ele>
        <time>2022-09-12T08:03:41Z</time>
      </trkpt>
      <trkpt lat="47.87711" lon="6.81468">
        <ele>813</ele>
        <time>2022-09-12T08:03:42Z</time>
      </trkpt>
      <trkpt lat="47.87711" lon="6.81467">
        <ele>813</ele>
        <time>2022-09-12T08:03:43Z</time>
      </trkpt>
      <trkpt lat="47.87711" lon="6.81466">
        <ele>813</ele>
        <time>2022-09-12T08:03:44Z</time>
      </trkpt>
      <trkpt lat="47.87711" lon="6.81465">
        <ele>813</ele>
        <time>2022-09-12T08:03:45Z</time>
      </trkpt>
      <trkpt lat="47.87711" lon="6.81464">
        <ele>813</ele>
        <time>2022-09-12T08:03:46Z</time>
      </trkpt>
      <trkpt lat="47.87711" lon="6.81463">
        <ele>813</ele>
        <time>2022-09-12T08:03:47Z</time>
      </trkpt>
      <trkpt lat="47.87711" lon="6.81462">
        <ele>813</ele>
        <time>2022-09-12T08:03:48Z</time>
      </trkpt>
      <trkpt lat="47.87712" lon="6.81461">
        <ele>813</ele>
        <time>2022-09-12T08:03:49Z</time>
      </trkpt>
      <trkpt lat="47.87712" lon="6.8146">
        <ele>813</ele>
        <time>2022-09-12T08:03:50Z</time>
      </trkpt>
      <trkpt lat="47.87713" lon="6.81459">
        <ele>813</ele>
        <time>2022-09-12T08:03:51Z</time>
      </trkpt>
      <trkpt lat="47.87713" lon="6.81458">
        <ele>813</ele>
        <time>2022-09-12T08:03:52Z</time>
      </trkpt>
      <trkpt lat="47.87714" lon="6.81457">
        <ele>813</ele>
        <time>2022-09-12T08:03:53Z</time>
      </trkpt>
      <trkpt lat="47.87714" lon="6.81456">
        <ele>813</ele>
        <time>2022-09-12T08:03:54Z</time>
      </trkpt>
      <trkpt lat="47.87714" lon="6.81455">
        <ele>813</ele>
        <time>2022-09-12T08:03:55Z</time>
      </trkpt>
      <trkpt lat="47.87715" lon="6.81454">
        <ele>813</ele>
        <time>2022-09-12T08:03:56Z</time>
      </trkpt>
      <trkpt lat="47.87715" lon="6.81453">
        <ele>813</ele>
        <time>2022-09-12T08:03:57Z</time>
      </trkpt>
      <trkpt lat="47.87716" lon="6.81452">
        <ele>813</ele>
        <time>2022-09-12T08:03:58Z</time>
      </trkpt>
      <trkpt lat="47.87716" lon="6.81451">
        <ele>813</ele>
        <time>2022-09-12T08:03:59Z</time>
      </trkpt>
      <trkpt lat="47.87717" lon="6.8145">
        <ele>813</ele>
        <time>2022-09-12T08:04:00Z</time>
      </trkpt>
      <trkpt lat="47.87718" lon="6.81449">
        <ele>813</ele>
        <time>2022-09-12T08:04:01Z</time>
      </trkpt>
      <trkpt lat="47.87718" lon="6.81448">
        <ele>813</ele>
        <time>2022-09-12T08:04:02Z</time>
      </trkpt>
      <trkpt lat="47.87719" lon="6.81448">
        <ele>813</ele>
        <time>2022-09-12T08:04:03Z</time>
      </trkpt>
      <trkpt lat="47.8772" lon="6.81447">
        <ele>813</ele>
        <time>2022-09-12T08:04:04Z</time>
      </trkpt>
      <trkpt lat="47.87721" lon="6.81446">
        <ele>813</ele>
        <time>2022-09-12T08:04:05Z</time>
      </trkpt>
      <trkpt lat="47.87721" lon="6.81444">
        <ele>813</ele>
        <time>2022-09-12T08:04:06Z</time>
      </trkpt>
      <trkpt lat="47.87722" lon="6.81443">
        <ele>813</ele>
        <time>2022-09-12T08:04:07Z</time>
      </trkpt>
      <trkpt lat="47.87722" lon="6.81442">
        <ele>813</ele>
        <time>2022-09-12T08:04:08Z</time>
      </trkpt>
      <trkpt lat="47.87722" lon="6.81441">
        <ele>813</ele>
        <time>2022-09-12T08:04:09Z</time>
      </trkpt>
      <trkpt lat="47.87723" lon="6.81439">
        <ele>813</ele>
        <time>2022-09-12T08:04:10Z</time>
      </trkpt>
      <trkpt lat="47.87723" lon="6.81438">
        <ele>813</ele>
        <time>2022-09-12T08:04:11Z</time>
      </trkpt>
      <trkpt lat="47.87723" lon="6.81436">
        <ele>813</ele>
        <time>2022-09-12T08:04:12Z</time>
      </trkpt>
      <trkpt lat="47.87723" lon="6.81434">
        <ele>813</ele>
        <time>2022-09-12T08:04:13Z</time>
      </trkpt>
      <trkpt lat="47.87723" lon="6.81433">
        <ele>813</ele>
        <time>2022-09-12T08:04:14Z</time>
      </trkpt>
      <trkpt lat="47.87724" lon="6.81431">
        <ele>813</ele>
        <time>2022-09-12T08:04:15Z</time>
      </trkpt>
      <trkpt lat="47.87724" lon="6.8143">
        <ele>813</ele>
        <time>2022-09-12T08:04:16Z</time>
      </trkpt>
      <trkpt lat="47.87725" lon="6.81428">
        <ele>813</ele>
        <time>2022-09-12T08:04:17Z</time>
      </trkpt>
      <trkpt lat="47.87725" lon="6.81427">
        <ele>813</ele>
        <time>2022-09-12T08:04:18Z</time>
      </trkpt>
      <trkpt lat="47.87726" lon="6.81426">
        <ele>813</ele>
        <time>2022-09-12T08:04:19Z</time>
      </trkpt>
      <trkpt lat="47.87727" lon="6.81424">
        <ele>813</ele>
        <time>2022-09-12T08:04:20Z</time>
      </trkpt>
      <trkpt lat="47.87727" lon="6.81423">
        <ele>813</ele>
        <time>2022-09-12T08:04:21Z</time>
      </trkpt>
      <trkpt lat="47.87727" lon="6.81422">
        <ele>812</ele>
        <time>2022-09-12T08:04:22Z</time>
      </trkpt>
      <trkpt lat="47.87727" lon="6.8142">
        <ele>812</ele>
        <time>2022-09-12T08:04:23Z</time>
      </trkpt>
      <trkpt lat="47.87727" lon="6.81419">
        <ele>812</ele>
        <time>2022-09-12T08:04:24Z</time>
      </trkpt>
      <trkpt lat="47.87727" lon="6.81418">
        <ele>812</ele>
        <time>2022-09-12T08:04:25Z</time>
      </trkpt>
      <trkpt lat="47.87727" lon="6.81417">
        <ele>812</ele>
        <time>2022-09-12T08:04:26Z</time>
      </trkpt>
      <trkpt lat="47.87727" lon="6.81416">
        <ele>812</ele>
        <time>2022-09-12T08:04:27Z</time>
      </trkpt>
      <trkpt lat="47.87727" lon="6.81415">
        <ele>812</ele>
        <time>2022-09-12T08:04:28Z</time>
      </trkpt>
      <trkpt lat="47.87727" lon="6.81414">
        <ele>812</ele>
        <time>2022-09-12T08:04:29Z</time>
      </trkpt>
      <trkpt lat="47.87727" lon="6.81413">
        <ele>812</ele>
        <time>2022-09-12T08:04:30Z</time>
      </trkpt>
      <trkpt lat="47.87727" lon="6.81412">
        <ele>812</ele>
        <time>2022-09-12T08:04:31Z</time>
      </trkpt>
      <trkpt lat="47.87727" lon="6.81411">
        <ele>812</ele>
        <time>2022-09-12T08:04:32Z</time>
      </trkpt>
      <trkpt lat="47.87727" lon="6.81409">
        <ele>812</ele>
        <time>2022-09-12T08:04:33Z</time>
      </trkpt>
      <trkpt lat="47.87728" lon="6.81408">
        <ele>812</ele>
        <time>2022-09-12T08:04:34Z</time>
      </trkpt>
      <trkpt lat="47.87728" lon="6.81407">
        <ele>812</ele>
        <time>2022-09-12T08:04:35Z</time>
      </trkpt>
      <trkpt lat="47.87728" lon="6.81406">
        <ele>812</ele>
        <time>2022-09-12T08:04:36Z</time>
      </trkpt>
      <trkpt lat="47.87728" lon="6.81405">
        <ele>812</ele>
        <time>2022-09-12T08:04:37Z</time>
      </trkpt>
      <trkpt lat="47.87728" lon="6.81402">
        <ele>812</ele>
        <time>2022-09-12T08:04:43Z</time>
      </trkpt>
      <trkpt lat="47.87727" lon="6.81401">
        <ele>812</ele>
        <time>2022-09-12T08:04:44Z</time>
      </trkpt>
      <trkpt lat="47.87727" lon="6.81401">
        <ele>812</ele>
        <time>2022-09-12T08:04:45Z</time>
      </trkpt>
      <trkpt lat="47.87727" lon="6.814">
        <ele>812</ele>
        <time>2022-09-12T08:04:46Z</time>
      </trkpt>
      <trkpt lat="47.87727" lon="6.81399">
        <ele>812</ele>
        <time>2022-09-12T08:04:47Z</time>
      </trkpt>
      <trkpt lat="47.87727" lon="6.81398">
        <ele>812</ele>
        <time>2022-09-12T08:04:48Z</time>
      </trkpt>
      <trkpt lat="47.87727" lon="6.81397">
        <ele>812</ele>
        <time>2022-09-12T08:04:49Z</time>
      </trkpt>
      <trkpt lat="47.87727" lon="6.81396">
        <ele>812</ele>
        <time>2022-09-12T08:04:50Z</time>
      </trkpt>
      <trkpt lat="47.87727" lon="6.81395">
        <ele>812</ele>
        <time>2022-09-12T08:04:51Z</time>
      </trkpt>
      <trkpt lat="47.87727" lon="6.81394">
        <ele>812</ele>
        <time>2022-09-12T08:04:52Z</time>
      </trkpt>
      <trkpt lat="47.87727" lon="6.81393">
        <ele>812</ele>
        <time>2022-09-12T08:04:53Z</time>
      </trkpt>
      <trkpt lat="47.87728" lon="6.81392">
        <ele>812</ele>
        <time>2022-09-12T08:04:54Z</time>
      </trkpt>
      <trkpt lat="47.87728" lon="6.81391">
        <ele>812</ele>
        <time>2022-09-12T08:04:55Z</time>
      </trkpt>
      <trkpt lat="47.87728" lon="6.8139">
        <ele>812</ele>
        <time>2022-09-12T08:04:56Z</time>
      </trkpt>
      <trkpt lat="47.87728" lon="6.81389">
        <ele>812</ele>
        <time>2022-09-12T08:04:57Z</time>
      </trkpt>
      <trkpt lat="47.87728" lon="6.81387">
        <ele>812</ele>
        <time>2022-09-12T08:04:58Z</time>
      </trkpt>
      <trkpt lat="47.87728" lon="6.81386">
        <ele>812</ele>
        <time>2022-09-12T08:04:59Z</time>
      </trkpt>
      <trkpt lat="47.87729" lon="6.81385">
        <ele>812</ele>
        <time>2022-09-12T08:05:00Z</time>
      </trkpt>
      <trkpt lat="47.87729" lon="6.81384">
        <ele>812</ele>
        <time>2022-09-12T08:05:01Z</time>
      </trkpt>
      <trkpt lat="47.8773" lon="6.81382">
        <ele>812</ele>
        <time>2022-09-12T08:05:02Z</time>
      </trkpt>
      <trkpt lat="47.8773" lon="6.81381">
        <ele>812</ele>
        <time>2022-09-12T08:05:03Z</time>
      </trkpt>
      <trkpt lat="47.8773" lon="6.8138">
        <ele>812</ele>
        <time>2022-09-12T08:05:04Z</time>
      </trkpt>
      <trkpt lat="47.87731" lon="6.81379">
        <ele>812</ele>
        <time>2022-09-12T08:05:05Z</time>
      </trkpt>
      <trkpt lat="47.87731" lon="6.81378">
        <ele>812</ele>
        <time>2022-09-12T08:05:06Z</time>
      </trkpt>
      <trkpt lat="47.87732" lon="6.81377">
        <ele>811</ele>
        <time>2022-09-12T08:05:07Z</time>
      </trkpt>
      <trkpt lat="47.87732" lon="6.81376">
        <ele>811</ele>
        <time>2022-09-12T08:05:08Z</time>
      </trkpt>
      <trkpt lat="47.87733" lon="6.81375">
        <ele>811</ele>
        <time>2022-09-12T08:05:09Z</time>
      </trkpt>
      <trkpt lat="47.87733" lon="6.81374">
        <ele>811</ele>
        <time>2022-09-12T08:05:10Z</time>
      </trkpt>
      <trkpt lat="47.87734" lon="6.81373">
        <ele>811</ele>
        <time>2022-09-12T08:05:11Z</time>
      </trkpt>
      <trkpt lat="47.87734" lon="6.81372">
        <ele>811</ele>
        <time>2022-09-12T08:05:12Z</time>
      </trkpt>
      <trkpt lat="47.87735" lon="6.8137">
        <ele>811</ele>
        <time>2022-09-12T08:05:13Z</time>
      </trkpt>
      <trkpt lat="47.87735" lon="6.81369">
        <ele>811</ele>
        <time>2022-09-12T08:05:14Z</time>
      </trkpt>
      <trkpt lat="47.87735" lon="6.81367">
        <ele>811</ele>
        <time>2022-09-12T08:05:15Z</time>
      </trkpt>
      <trkpt lat="47.87735" lon="6.81365">
        <ele>811</ele>
        <time>2022-09-12T08:05:16Z</time>
      </trkpt>
      <trkpt lat="47.87736" lon="6.81364">
        <ele>811</ele>
        <time>2022-09-12T08:05:17Z</time>
      </trkpt>
      <trkpt lat="47.87736" lon="6.81362">
        <ele>811</ele>
        <time>2022-09-12T08:05:18Z</time>
      </trkpt>
      <trkpt lat="47.87737" lon="6.8136">
        <ele>811</ele>
        <time>2022-09-12T08:05:19Z</time>
      </trkpt>
      <trkpt lat="47.87738" lon="6.81359">
        <ele>811</ele>
        <time>2022-09-12T08:05:20Z</time>
      </trkpt>
      <trkpt lat="47.87738" lon="6.81357">
        <ele>811</ele>
        <time>2022-09-12T08:05:21Z</time>
      </trkpt>
      <trkpt lat="47.87739" lon="6.81355">
        <ele>811</ele>
        <time>2022-09-12T08:05:22Z</time>
      </trkpt>
      <trkpt lat="47.87739" lon="6.81354">
        <ele>811</ele>
        <time>2022-09-12T08:05:23Z</time>
      </trkpt>
      <trkpt lat="47.8774" lon="6.81352">
        <ele>811</ele>
        <time>2022-09-12T08:05:24Z</time>
      </trkpt>
      <trkpt lat="47.87741" lon="6.81351">
        <ele>811</ele>
        <time>2022-09-12T08:05:25Z</time>
      </trkpt>
      <trkpt lat="47.87741" lon="6.8135">
        <ele>811</ele>
        <time>2022-09-12T08:05:26Z</time>
      </trkpt>
      <trkpt lat="47.87741" lon="6.81348">
        <ele>811</ele>
        <time>2022-09-12T08:05:27Z</time>
      </trkpt>
      <trkpt lat="47.87742" lon="6.81347">
        <ele>811</ele>
        <time>2022-09-12T08:05:28Z</time>
      </trkpt>
      <trkpt lat="47.87742" lon="6.81346">
        <ele>811</ele>
        <time>2022-09-12T08:05:29Z</time>
      </trkpt>
      <trkpt lat="47.87743" lon="6.81345">
        <ele>811</ele>
        <time>2022-09-12T08:05:30Z</time>
      </trkpt>
      <trkpt lat="47.87743" lon="6.81344">
        <ele>811</ele>
        <time>2022-09-12T08:05:31Z</time>
      </trkpt>
      <trkpt lat="47.87743" lon="6.81343">
        <ele>811</ele>
        <time>2022-09-12T08:05:32Z</time>
      </trkpt>
      <trkpt lat="47.87743" lon="6.81342">
        <ele>811</ele>
        <time>2022-09-12T08:05:33Z</time>
      </trkpt>
      <trkpt lat="47.87744" lon="6.81341">
        <ele>811</ele>
        <time>2022-09-12T08:05:34Z</time>
      </trkpt>
      <trkpt lat="47.87744" lon="6.8134">
        <ele>811</ele>
        <time>2022-09-12T08:05:35Z</time>
      </trkpt>
      <trkpt lat="47.87745" lon="6.81339">
        <ele>811</ele>
        <time>2022-09-12T08:05:36Z</time>
      </trkpt>
      <trkpt lat="47.87745" lon="6.81339">
        <ele>810</ele>
        <time>2022-09-12T08:05:37Z</time>
      </trkpt>
      <trkpt lat="47.87745" lon="6.81338">
        <ele>810</ele>
        <time>2022-09-12T08:05:38Z</time>
      </trkpt>
      <trkpt lat="47.87746" lon="6.81338">
        <ele>810</ele>
        <time>2022-09-12T08:05:39Z</time>
      </trkpt>
      <trkpt lat="47.87746" lon="6.81337">
        <ele>810</ele>
        <time>2022-09-12T08:05:40Z</time>
      </trkpt>
      <trkpt lat="47.87747" lon="6.81336">
        <ele>810</ele>
        <time>2022-09-12T08:05:41Z</time>
      </trkpt>
      <trkpt lat="47.87747" lon="6.81336">
        <ele>810</ele>
        <time>2022-09-12T08:05:42Z</time>
      </trkpt>
      <trkpt lat="47.87748" lon="6.81334">
        <ele>810</ele>
        <time>2022-09-12T08:05:43Z</time>
      </trkpt>
      <trkpt lat="47.87748" lon="6.81333">
        <ele>810</ele>
        <time>2022-09-12T08:05:44Z</time>
      </trkpt>
      <trkpt lat="47.87748" lon="6.81332">
        <ele>810</ele>
        <time>2022-09-12T08:05:45Z</time>
      </trkpt>
      <trkpt lat="47.87749" lon="6.81331">
        <ele>810</ele>
        <time>2022-09-12T08:05:46Z</time>
      </trkpt>
      <trkpt lat="47.87749" lon="6.81329">
        <ele>810</ele>
        <time>2022-09-12T08:05:47Z</time>
      </trkpt>
      <trkpt lat="47.8775" lon="6.81328">
        <ele>810</ele>
        <time>2022-09-12T08:05:48Z</time>
      </trkpt>
      <trkpt lat="47.87751" lon="6.81327">
        <ele>810</ele>
        <time>2022-09-12T08:05:49Z</time>
      </trkpt>
      <trkpt lat="47.87751" lon="6.81326">
        <ele>810</ele>
        <time>2022-09-12T08:05:50Z</time>
      </trkpt>
      <trkpt lat="47.87753" lon="6.81326">
        <ele>810</ele>
        <time>2022-09-12T08:05:51Z</time>
      </trkpt>
      <trkpt lat="47.87754" lon="6.81325">
        <ele>810</ele>
        <time>2022-09-12T08:05:52Z</time>
      </trkpt>
      <trkpt lat="47.87755" lon="6.81324">
        <ele>810</ele>
        <time>2022-09-12T08:05:53Z</time>
      </trkpt>
      <trkpt lat="47.87756" lon="6.81324">
        <ele>810</ele>
        <time>2022-09-12T08:05:54Z</time>
      </trkpt>
      <trkpt lat="47.87756" lon="6.81323">
        <ele>810</ele>
        <time>2022-09-12T08:05:55Z</time>
      </trkpt>
      <trkpt lat="47.87757" lon="6.81322">
        <ele>810</ele>
        <time>2022-09-12T08:05:56Z</time>
      </trkpt>
      <trkpt lat="47.87758" lon="6.81321">
        <ele>809</ele>
        <time>2022-09-12T08:05:57Z</time>
      </trkpt>
      <trkpt lat="47.87758" lon="6.8132">
        <ele>809</ele>
        <time>2022-09-12T08:05:58Z</time>
      </trkpt>
      <trkpt lat="47.87759" lon="6.81319">
        <ele>809</ele>
        <time>2022-09-12T08:05:59Z</time>
      </trkpt>
      <trkpt lat="47.8776" lon="6.81319">
        <ele>809</ele>
        <time>2022-09-12T08:06:00Z</time>
      </trkpt>
      <trkpt lat="47.8776" lon="6.81318">
        <ele>809</ele>
        <time>2022-09-12T08:06:01Z</time>
      </trkpt>
      <trkpt lat="47.87761" lon="6.81317">
        <ele>809</ele>
        <time>2022-09-12T08:06:02Z</time>
      </trkpt>
      <trkpt lat="47.87762" lon="6.81316">
        <ele>809</ele>
        <time>2022-09-12T08:06:03Z</time>
      </trkpt>
      <trkpt lat="47.87763" lon="6.81315">
        <ele>809</ele>
        <time>2022-09-12T08:06:04Z</time>
      </trkpt>
      <trkpt lat="47.87763" lon="6.81314">
        <ele>809</ele>
        <time>2022-09-12T08:06:05Z</time>
      </trkpt>
      <trkpt lat="47.87764" lon="6.81312">
        <ele>809</ele>
        <time>2022-09-12T08:06:06Z</time>
      </trkpt>
      <trkpt lat="47.87765" lon="6.81311">
        <ele>809</ele>
        <time>2022-09-12T08:06:07Z</time>
      </trkpt>
      <trkpt lat="47.87765" lon="6.8131">
        <ele>809</ele>
        <time>2022-09-12T08:06:08Z</time>
      </trkpt>
      <trkpt lat="47.87766" lon="6.81308">
        <ele>809</ele>
        <time>2022-09-12T08:06:09Z</time>
      </trkpt>
      <trkpt lat="47.87766" lon="6.81307">
        <ele>809</ele>
        <time>2022-09-12T08:06:10Z</time>
      </trkpt>
      <trkpt lat="47.87767" lon="6.81306">
        <ele>809</ele>
        <time>2022-09-12T08:06:11Z</time>
      </trkpt>
      <trkpt lat="47.87768" lon="6.81305">
        <ele>809</ele>
        <time>2022-09-12T08:06:12Z</time>
      </trkpt>
      <trkpt lat="47.87769" lon="6.81304">
        <ele>809</ele>
        <time>2022-09-12T08:06:13Z</time>
      </trkpt>
      <trkpt lat="47.87769" lon="6.81303">
        <ele>809</ele>
        <time>2022-09-12T08:06:14Z</time>
      </trkpt>
      <trkpt lat="47.8777" lon="6.81301">
        <ele>809</ele>
        <time>2022-09-12T08:06:15Z</time>
      </trkpt>
      <trkpt lat="47.87771" lon="6.813">
        <ele>809</ele>
        <time>2022-09-12T08:06:16Z</time>
      </trkpt>
      <trkpt lat="47.87771" lon="6.81298">
        <ele>809</ele>
        <time>2022-09-12T08:06:17Z</time>
      </trkpt>
      <trkpt lat="47.87772" lon="6.81297">
        <ele>809</ele>
        <time>2022-09-12T08:06:18Z</time>
      </trkpt>
      <trkpt lat="47.87772" lon="6.81295">
        <ele>809</ele>
        <time>2022-09-12T08:06:19Z</time>
      </trkpt>
      <trkpt lat="47.87772" lon="6.81293">
        <ele>809</ele>
        <time>2022-09-12T08:06:20Z</time>
      </trkpt>
      <trkpt lat="47.87773" lon="6.81292">
        <ele>809</ele>
        <time>2022-09-12T08:06:21Z</time>
      </trkpt>
      <trkpt lat="47.87773" lon="6.8129">
        <ele>809</ele>
        <time>2022-09-12T08:06:22Z</time>
      </trkpt>
      <trkpt lat="47.87773" lon="6.81288">
        <ele>809</ele>
        <time>2022-09-12T08:06:23Z</time>
      </trkpt>
      <trkpt lat="47.87773" lon="6.81287">
        <ele>809</ele>
        <time>2022-09-12T08:06:24Z</time>
      </trkpt>
      <trkpt lat="47.87773" lon="6.81285">
        <ele>809</ele>
        <time>2022-09-12T08:06:25Z</time>
      </trkpt>
      <trkpt lat="47.87773" lon="6.81284">
        <ele>809</ele>
        <time>2022-09-12T08:06:26Z</time>
      </trkpt>
      <trkpt lat="47.87773" lon="6.81282">
        <ele>809</ele>
        <time>2022-09-12T08:06:27Z</time>
      </trkpt>
      <trkpt lat="47.87773" lon="6.81281">
        <ele>809</ele>
        <time>2022-09-12T08:06:28Z</time>
      </trkpt>
      <trkpt lat="47.87772" lon="6.81279">
        <ele>809</ele>
        <time>2022-09-12T08:06:29Z</time>
      </trkpt>
      <trkpt lat="47.87772" lon="6.81278">
        <ele>809</ele>
        <time>2022-09-12T08:06:30Z</time>
      </trkpt>
      <trkpt lat="47.87772" lon="6.81276">
        <ele>809</ele>
        <time>2022-09-12T08:06:31Z</time>
      </trkpt>
      <trkpt lat="47.87771" lon="6.81275">
        <ele>809</ele>
        <time>2022-09-12T08:06:32Z</time>
      </trkpt>
      <trkpt lat="47.87772" lon="6.81274">
        <ele>809</ele>
        <time>2022-09-12T08:06:33Z</time>
      </trkpt>
      <trkpt lat="47.87772" lon="6.81273">
        <ele>809</ele>
        <time>2022-09-12T08:06:34Z</time>
      </trkpt>
      <trkpt lat="47.87772" lon="6.81272">
        <ele>809</ele>
        <time>2022-09-12T08:06:35Z</time>
      </trkpt>
      <trkpt lat="47.87772" lon="6.81271">
        <ele>809</ele>
        <time>2022-09-12T08:06:36Z</time>
      </trkpt>
      <trkpt lat="47.87772" lon="6.8127">
        <ele>809</ele>
        <time>2022-09-12T08:06:37Z</time>
      </trkpt>
      <trkpt lat="47.87772" lon="6.81269">
        <ele>809</ele>
        <time>2022-09-12T08:06:38Z</time>
      </trkpt>
      <trkpt lat="47.87772" lon="6.81268">
        <ele>809</ele>
        <time>2022-09-12T08:06:39Z</time>
      </trkpt>
      <trkpt lat="47.87773" lon="6.81267">
        <ele>809</ele>
        <time>2022-09-12T08:06:40Z</time>
      </trkpt>
      <trkpt lat="47.87773" lon="6.81267">
        <ele>809</ele>
        <time>2022-09-12T08:06:41Z</time>
      </trkpt>
      <trkpt lat="47.87774" lon="6.81266">
        <ele>809</ele>
        <time>2022-09-12T08:06:42Z</time>
      </trkpt>
      <trkpt lat="47.87774" lon="6.81265">
        <ele>809</ele>
        <time>2022-09-12T08:06:43Z</time>
      </trkpt>
      <trkpt lat="47.87775" lon="6.81265">
        <ele>809</ele>
        <time>2022-09-12T08:06:44Z</time>
      </trkpt>
      <trkpt lat="47.87776" lon="6.81264">
        <ele>809</ele>
        <time>2022-09-12T08:06:45Z</time>
      </trkpt>
      <trkpt lat="47.87776" lon="6.81264">
        <ele>809</ele>
        <time>2022-09-12T08:06:46Z</time>
      </trkpt>
      <trkpt lat="47.87779" lon="6.81264">
        <ele>809</ele>
        <time>2022-09-12T08:10:04Z</time>
      </trkpt>
      <trkpt lat="47.8778" lon="6.81264">
        <ele>809</ele>
        <time>2022-09-12T08:10:05Z</time>
      </trkpt>
      <trkpt lat="47.87781" lon="6.81264">
        <ele>810</ele>
        <time>2022-09-12T08:10:06Z</time>
      </trkpt>
      <trkpt lat="47.87781" lon="6.81264">
        <ele>810</ele>
        <time>2022-09-12T08:10:07Z</time>
      </trkpt>
      <trkpt lat="47.87781" lon="6.81265">
        <ele>810</ele>
        <time>2022-09-12T08:10:08Z</time>
      </trkpt>
      <trkpt lat="47.8778" lon="6.81265">
        <ele>810</ele>
        <time>2022-09-12T08:10:09Z</time>
      </trkpt>
      <trkpt lat="47.8778" lon="6.81266">
        <ele>810</ele>
        <time>2022-09-12T08:10:10Z</time>
      </trkpt>
      <trkpt lat="47.87779" lon="6.81266">
        <ele>810</ele>
        <time>2022-09-12T08:10:11Z</time>
      </trkpt>
      <trkpt lat="47.87778" lon="6.81267">
        <ele>810</ele>
        <time>2022-09-12T08:10:12Z</time>
      </trkpt>
      <trkpt lat="47.87777" lon="6.81267">
        <ele>810</ele>
        <time>2022-09-12T08:10:13Z</time>
      </trkpt>
      <trkpt lat="47.87776" lon="6.81267">
        <ele>810</ele>
        <time>2022-09-12T08:10:14Z</time>
      </trkpt>
      <trkpt lat="47.87775" lon="6.81267">
        <ele>810</ele>
        <time>2022-09-12T08:10:15Z</time>
      </trkpt>
      <trkpt lat="47.87775" lon="6.81267">
        <ele>810</ele>
        <time>2022-09-12T08:10:16Z</time>
      </trkpt>
      <trkpt lat="47.87774" lon="6.81267">
        <ele>810</ele>
        <time>2022-09-12T08:10:17Z</time>
      </trkpt>
      <trkpt lat="47.87773" lon="6.81267">
        <ele>810</ele>
        <time>2022-09-12T08:10:18Z</time>
      </trkpt>
      <trkpt lat="47.87772" lon="6.81266">
        <ele>810</ele>
        <time>2022-09-12T08:10:19Z</time>
      </trkpt>
      <trkpt lat="47.87771" lon="6.81266">
        <ele>810</ele>
        <time>2022-09-12T08:10:20Z</time>
      </trkpt>
      <trkpt lat="47.8777" lon="6.81265">
        <ele>810</ele>
        <time>2022-09-12T08:10:21Z</time>
      </trkpt>
      <trkpt lat="47.8777" lon="6.81265">
        <ele>810</ele>
        <time>2022-09-12T08:10:22Z</time>
      </trkpt>
      <trkpt lat="47.87769" lon="6.81264">
        <ele>810</ele>
        <time>2022-09-12T08:10:23Z</time>
      </trkpt>
      <trkpt lat="47.87768" lon="6.81263">
        <ele>810</ele>
        <time>2022-09-12T08:10:24Z</time>
      </trkpt>
      <trkpt lat="47.87768" lon="6.81262">
        <ele>810</ele>
        <time>2022-09-12T08:10:25Z</time>
      </trkpt>
      <trkpt lat="47.87767" lon="6.81262">
        <ele>810</ele>
        <time>2022-09-12T08:10:26Z</time>
      </trkpt>
      <trkpt lat="47.87767" lon="6.81261">
        <ele>810</ele>
        <time>2022-09-12T08:10:27Z</time>
      </trkpt>
      <trkpt lat="47.87766" lon="6.8126">
        <ele>810</ele>
        <time>2022-09-12T08:10:28Z</time>
      </trkpt>
      <trkpt lat="47.87766" lon="6.81259">
        <ele>810</ele>
        <time>2022-09-12T08:10:29Z</time>
      </trkpt>
      <trkpt lat="47.87765" lon="6.81258">
        <ele>810</ele>
        <time>2022-09-12T08:10:30Z</time>
      </trkpt>
      <trkpt lat="47.87765" lon="6.81257">
        <ele>810</ele>
        <time>2022-09-12T08:10:31Z</time>
      </trkpt>
      <trkpt lat="47.87764" lon="6.81256">
        <ele>810</ele>
        <time>2022-09-12T08:10:32Z</time>
      </trkpt>
      <trkpt lat="47.87763" lon="6.81255">
        <ele>810</ele>
        <time>2022-09-12T08:10:33Z</time>
      </trkpt>
      <trkpt lat="47.87762" lon="6.81254">
        <ele>810</ele>
        <time>2022-09-12T08:10:34Z</time>
      </trkpt>
      <trkpt lat="47.87762" lon="6.81253">
        <ele>810</ele>
        <time>2022-09-12T08:10:35Z</time>
      </trkpt>
      <trkpt lat="47.87761" lon="6.81252">
        <ele>810</ele>
        <time>2022-09-12T08:10:36Z</time>
      </trkpt>
      <trkpt lat="47.87761" lon="6.81251">
        <ele>810</ele>
        <time>2022-09-12T08:10:37Z</time>
      </trkpt>
      <trkpt lat="47.8776" lon="6.8125">
        <ele>810</ele>
        <time>2022-09-12T08:10:38Z</time>
      </trkpt>
      <trkpt lat="47.8776" lon="6.81249">
        <ele>810</ele>
        <time>2022-09-12T08:10:39Z</time>
      </trkpt>
      <trkpt lat="47.87759" lon="6.81248">
        <ele>810</ele>
        <time>2022-09-12T08:10:40Z</time>
      </trkpt>
      <trkpt lat="47.87759" lon="6.81247">
        <ele>810</ele>
        <time>2022-09-12T08:10:41Z</time>
      </trkpt>
      <trkpt lat="47.87758" lon="6.81245">
        <ele>809</ele>
        <time>2022-09-12T08:10:42Z</time>
      </trkpt>
      <trkpt lat="47.87758" lon="6.81244">
        <ele>809</ele>
        <time>2022-09-12T08:10:43Z</time>
      </trkpt>
      <trkpt lat="47.87758" lon="6.81243">
        <ele>809</ele>
        <time>2022-09-12T08:10:44Z</time>
      </trkpt>
      <trkpt lat="47.87757" lon="6.81242">
        <ele>809</ele>
        <time>2022-09-12T08:10:45Z</time>
      </trkpt>
      <trkpt lat="47.87757" lon="6.81241">
        <ele>809</ele>
        <time>2022-09-12T08:10:46Z</time>
      </trkpt>
      <trkpt lat="47.87756" lon="6.8124">
        <ele>809</ele>
        <time>2022-09-12T08:10:47Z</time>
      </trkpt>
      <trkpt lat="47.87755" lon="6.81239">
        <ele>809</ele>
        <time>2022-09-12T08:10:48Z</time>
      </trkpt>
      <trkpt lat="47.87755" lon="6.81238">
        <ele>809</ele>
        <time>2022-09-12T08:10:49Z</time>
      </trkpt>
      <trkpt lat="47.87754" lon="6.81237">
        <ele>809</ele>
        <time>2022-09-12T08:10:50Z</time>
      </trkpt>
      <trkpt lat="47.87753" lon="6.81236">
        <ele>809</ele>
        <time>2022-09-12T08:10:51Z</time>
      </trkpt>
      <trkpt lat="47.87752" lon="6.81235">
        <ele>809</ele>
        <time>2022-09-12T08:10:52Z</time>
      </trkpt>
      <trkpt lat="47.87751" lon="6.81234">
        <ele>809</ele>
        <time>2022-09-12T08:10:53Z</time>
      </trkpt>
      <trkpt lat="47.8775" lon="6.81234">
        <ele>809</ele>
        <time>2022-09-12T08:10:54Z</time>
      </trkpt>
      <trkpt lat="47.87749" lon="6.81233">
        <ele>809</ele>
        <time>2022-09-12T08:10:55Z</time>
      </trkpt>
      <trkpt lat="47.87748" lon="6.81232">
        <ele>810</ele>
        <time>2022-09-12T08:10:56Z</time>
      </trkpt>
      <trkpt lat="47.87748" lon="6.81232">
        <ele>810</ele>
        <time>2022-09-12T08:10:57Z</time>
      </trkpt>
      <trkpt lat="47.87747" lon="6.81231">
        <ele>810</ele>
        <time>2022-09-12T08:10:58Z</time>
      </trkpt>
      <trkpt lat="47.87746" lon="6.8123">
        <ele>810</ele>
        <time>2022-09-12T08:10:59Z</time>
      </trkpt>
      <trkpt lat="47.87745" lon="6.8123">
        <ele>810</ele>
        <time>2022-09-12T08:11:00Z</time>
      </trkpt>
      <trkpt lat="47.87744" lon="6.81229">
        <ele>810</ele>
        <time>2022-09-12T08:11:01Z</time>
      </trkpt>
      <trkpt lat="47.87743" lon="6.81228">
        <ele>810</ele>
        <time>2022-09-12T08:11:02Z</time>
      </trkpt>
      <trkpt lat="47.87742" lon="6.81228">
        <ele>810</ele>
        <time>2022-09-12T08:11:03Z</time>
      </trkpt>
      <trkpt lat="47.87741" lon="6.81227">
        <ele>810</ele>
        <time>2022-09-12T08:11:04Z</time>
      </trkpt>
      <trkpt lat="47.8774" lon="6.81227">
        <ele>810</ele>
        <time>2022-09-12T08:11:05Z</time>
      </trkpt>
      <trkpt lat="47.87739" lon="6.81226">
        <ele>810</ele>
        <time>2022-09-12T08:11:06Z</time>
      </trkpt>
      <trkpt lat="47.87738" lon="6.81225">
        <ele>810</ele>
        <time>2022-09-12T08:11:07Z</time>
      </trkpt>
      <trkpt lat="47.87737" lon="6.81224">
        <ele>810</ele>
        <time>2022-09-12T08:11:08Z</time>
      </trkpt>
      <trkpt lat="47.87737" lon="6.81223">
        <ele>810</ele>
        <time>2022-09-12T08:11:09Z</time>
      </trkpt>
      <trkpt lat="47.87736" lon="6.81222">
        <ele>810</ele>
        <time>2022-09-12T08:11:10Z</time>
      </trkpt>
      <trkpt lat="47.87735" lon="6.81221">
        <ele>811</ele>
        <time>2022-09-12T08:11:11Z</time>
      </trkpt>
      <trkpt lat="47.87735" lon="6.8122">
        <ele>811</ele>
        <time>2022-09-12T08:11:12Z</time>
      </trkpt>
      <trkpt lat="47.87734" lon="6.8122">
        <ele>811</ele>
        <time>2022-09-12T08:11:13Z</time>
      </trkpt>
      <trkpt lat="47.87734" lon="6.81219">
        <ele>811</ele>
        <time>2022-09-12T08:11:14Z</time>
      </trkpt>
      <trkpt lat="47.87733" lon="6.81218">
        <ele>811</ele>
        <time>2022-09-12T08:11:15Z</time>
      </trkpt>
      <trkpt lat="47.87732" lon="6.81217">
        <ele>811</ele>
        <time>2022-09-12T08:11:16Z</time>
      </trkpt>
      <trkpt lat="47.87731" lon="6.81217">
        <ele>811</ele>
        <time>2022-09-12T08:11:17Z</time>
      </trkpt>
      <trkpt lat="47.8773" lon="6.81216">
        <ele>811</ele>
        <time>2022-09-12T08:11:18Z</time>
      </trkpt>
      <trkpt lat="47.87729" lon="6.81216">
        <ele>811</ele>
        <time>2022-09-12T08:11:19Z</time>
      </trkpt>
      <trkpt lat="47.87728" lon="6.81215">
        <ele>811</ele>
        <time>2022-09-12T08:11:20Z</time>
      </trkpt>
      <trkpt lat="47.87728" lon="6.81214">
        <ele>812</ele>
        <time>2022-09-12T08:11:21Z</time>
      </trkpt>
      <trkpt lat="47.87727" lon="6.81214">
        <ele>812</ele>
        <time>2022-09-12T08:11:22Z</time>
      </trkpt>
      <trkpt lat="47.87726" lon="6.81213">
        <ele>812</ele>
        <time>2022-09-12T08:11:23Z</time>
      </trkpt>
      <trkpt lat="47.87725" lon="6.81212">
        <ele>812</ele>
        <time>2022-09-12T08:11:24Z</time>
      </trkpt>
      <trkpt lat="47.87724" lon="6.81212">
        <ele>812</ele>
        <time>2022-09-12T08:11:25Z</time>
      </trkpt>
      <trkpt lat="47.87723" lon="6.81211">
        <ele>812</ele>
        <time>2022-09-12T08:11:26Z</time>
      </trkpt>
      <trkpt lat="47.87722" lon="6.81211">
        <ele>812</ele>
        <time>2022-09-12T08:11:27Z</time>
      </trkpt>
      <trkpt lat="47.87721" lon="6.8121">
        <ele>812</ele>
        <time>2022-09-12T08:11:28Z</time>
      </trkpt>
      <trkpt lat="47.8772" lon="6.8121">
        <ele>812</ele>
        <time>2022-09-12T08:11:29Z</time>
      </trkpt>
      <trkpt lat="47.87719" lon="6.81209">
        <ele>812</ele>
        <time>2022-09-12T08:11:30Z</time>
      </trkpt>
      <trkpt lat="47.87718" lon="6.81209">
        <ele>812</ele>
        <time>2022-09-12T08:11:31Z</time>
      </trkpt>
      <trkpt lat="47.87717" lon="6.81209">
        <ele>812</ele>
        <time>2022-09-12T08:11:32Z</time>
      </trkpt>
      <trkpt lat="47.87716" lon="6.81208">
        <ele>812</ele>
        <time>2022-09-12T08:11:33Z</time>
      </trkpt>
      <trkpt lat="47.87715" lon="6.81208">
        <ele>812</ele>
        <time>2022-09-12T08:11:34Z</time>
      </trkpt>
      <trkpt lat="47.87713" lon="6.81207">
        <ele>812</ele>
        <time>2022-09-12T08:11:35Z</time>
      </trkpt>
      <trkpt lat="47.87712" lon="6.81206">
        <ele>812</ele>
        <time>2022-09-12T08:11:36Z</time>
      </trkpt>
      <trkpt lat="47.87711" lon="6.81206">
        <ele>812</ele>
        <time>2022-09-12T08:11:37Z</time>
      </trkpt>
      <trkpt lat="47.8771" lon="6.81205">
        <ele>812</ele>
        <time>2022-09-12T08:11:38Z</time>
      </trkpt>
      <trkpt lat="47.8771" lon="6.81204">
        <ele>812</ele>
        <time>2022-09-12T08:11:39Z</time>
      </trkpt>
      <trkpt lat="47.87709" lon="6.81204">
        <ele>812</ele>
        <time>2022-09-12T08:11:40Z</time>
      </trkpt>
      <trkpt lat="47.87708" lon="6.81203">
        <ele>813</ele>
        <time>2022-09-12T08:11:41Z</time>
      </trkpt>
      <trkpt lat="47.87707" lon="6.81202">
        <ele>813</ele>
        <time>2022-09-12T08:11:42Z</time>
      </trkpt>
      <trkpt lat="47.87706" lon="6.81202">
        <ele>813</ele>
        <time>2022-09-12T08:11:43Z</time>
      </trkpt>
      <trkpt lat="47.87705" lon="6.81201">
        <ele>813</ele>
        <time>2022-09-12T08:11:44Z</time>
      </trkpt>
      <trkpt lat="47.87705" lon="6.812">
        <ele>813</ele>
        <time>2022-09-12T08:11:45Z</time>
      </trkpt>
      <trkpt lat="47.87704" lon="6.81199">
        <ele>813</ele>
        <time>2022-09-12T08:11:46Z</time>
      </trkpt>
      <trkpt lat="47.87703" lon="6.81198">
        <ele>812</ele>
        <time>2022-09-12T08:11:47Z</time>
      </trkpt>
      <trkpt lat="47.87702" lon="6.81197">
        <ele>812</ele>
        <time>2022-09-12T08:11:48Z</time>
      </trkpt>
      <trkpt lat="47.87701" lon="6.81196">
        <ele>812</ele>
        <time>2022-09-12T08:11:49Z</time>
      </trkpt>
      <trkpt lat="47.877" lon="6.81195">
        <ele>812</ele>
        <time>2022-09-12T08:11:50Z</time>
      </trkpt>
      <trkpt lat="47.877" lon="6.81194">
        <ele>812</ele>
        <time>2022-09-12T08:11:51Z</time>
      </trkpt>
      <trkpt lat="47.87699" lon="6.81193">
        <ele>812</ele>
        <time>2022-09-12T08:11:52Z</time>
      </trkpt>
      <trkpt lat="47.87698" lon="6.81193">
        <ele>812</ele>
        <time>2022-09-12T08:11:53Z</time>
      </trkpt>
      <trkpt lat="47.87697" lon="6.81192">
        <ele>812</ele>
        <time>2022-09-12T08:11:54Z</time>
      </trkpt>
      <trkpt lat="47.87697" lon="6.81191">
        <ele>812</ele>
        <time>2022-09-12T08:11:55Z</time>
      </trkpt>
      <trkpt lat="47.87696" lon="6.81191">
        <ele>813</ele>
        <time>2022-09-12T08:11:56Z</time>
      </trkpt>
      <trkpt lat="47.87696" lon="6.8119">
        <ele>813</ele>
        <time>2022-09-12T08:11:57Z</time>
      </trkpt>
      <trkpt lat="47.87695" lon="6.8119">
        <ele>813</ele>
        <time>2022-09-12T08:11:58Z</time>
      </trkpt>
      <trkpt lat="47.87694" lon="6.81189">
        <ele>813</ele>
        <time>2022-09-12T08:11:59Z</time>
      </trkpt>
      <trkpt lat="47.87694" lon="6.81189">
        <ele>813</ele>
        <time>2022-09-12T08:12:00Z</time>
      </trkpt>
      <trkpt lat="47.87693" lon="6.81188">
        <ele>813</ele>
        <time>2022-09-12T08:12:01Z</time>
      </trkpt>
      <trkpt lat="47.87692" lon="6.81188">
        <ele>813</ele>
        <time>2022-09-12T08:12:02Z</time>
      </trkpt>
      <trkpt lat="47.87691" lon="6.81187">
        <ele>813</ele>
        <time>2022-09-12T08:12:03Z</time>
      </trkpt>
      <trkpt lat="47.8769" lon="6.81186">
        <ele>813</ele>
        <time>2022-09-12T08:12:04Z</time>
      </trkpt>
      <trkpt lat="47.87689" lon="6.81185">
        <ele>813</ele>
        <time>2022-09-12T08:12:05Z</time>
      </trkpt>
      <trkpt lat="47.87688" lon="6.81184">
        <ele>813</ele>
        <time>2022-09-12T08:12:06Z</time>
      </trkpt>
      <trkpt lat="47.87687" lon="6.81184">
        <ele>813</ele>
        <time>2022-09-12T08:12:07Z</time>
      </trkpt>
      <trkpt lat="47.87686" lon="6.81183">
        <ele>813</ele>
        <time>2022-09-12T08:12:08Z</time>
      </trkpt>
      <trkpt lat="47.87685" lon="6.81182">
        <ele>813</ele>
        <time>2022-09-12T08:12:09Z</time>
      </trkpt>
      <trkpt lat="47.87684" lon="6.81182">
        <ele>813</ele>
        <time>2022-09-12T08:12:10Z</time>
      </trkpt>
      <trkpt lat="47.87683" lon="6.81181">
        <ele>814</ele>
        <time>2022-09-12T08:12:11Z</time>
      </trkpt>
      <trkpt lat="47.87681" lon="6.81181">
        <ele>814</ele>
        <time>2022-09-12T08:12:12Z</time>
      </trkpt>
      <trkpt lat="47.8768" lon="6.8118">
        <ele>814</ele>
        <time>2022-09-12T08:12:13Z</time>
      </trkpt>
      <trkpt lat="47.87679" lon="6.8118">
        <ele>814</ele>
        <time>2022-09-12T08:12:14Z</time>
      </trkpt>
      <trkpt lat="47.87678" lon="6.81179">
        <ele>814</ele>
        <time>2022-09-12T08:12:15Z</time>
      </trkpt>
      <trkpt lat="47.87677" lon="6.81179">
        <ele>814</ele>
        <time>2022-09-12T08:12:16Z</time>
      </trkpt>
      <trkpt lat="47.87676" lon="6.81178">
        <ele>814</ele>
        <time>2022-09-12T08:12:17Z</time>
      </trkpt>
      <trkpt lat="47.87675" lon="6.81177">
        <ele>814</ele>
        <time>2022-09-12T08:12:18Z</time>
      </trkpt>
      <trkpt lat="47.87674" lon="6.81177">
        <ele>814</ele>
        <time>2022-09-12T08:12:19Z</time>
      </trkpt>
      <trkpt lat="47.87673" lon="6.81176">
        <ele>814</ele>
        <time>2022-09-12T08:12:20Z</time>
      </trkpt>
      <trkpt lat="47.87672" lon="6.81176">
        <ele>815</ele>
        <time>2022-09-12T08:12:21Z</time>
      </trkpt>
      <trkpt lat="47.87671" lon="6.81175">
        <ele>815</ele>
        <time>2022-09-12T08:12:22Z</time>
      </trkpt>
      <trkpt lat="47.8767" lon="6.81175">
        <ele>815</ele>
        <time>2022-09-12T08:12:23Z</time>
      </trkpt>
      <trkpt lat="47.87669" lon="6.81174">
        <ele>815</ele>
        <time>2022-09-12T08:12:24Z</time>
      </trkpt>
      <trkpt lat="47.87669" lon="6.81174">
        <ele>815</ele>
        <time>2022-09-12T08:12:25Z</time>
      </trkpt>
      <trkpt lat="47.87668" lon="6.81173">
        <ele>815</ele>
        <time>2022-09-12T08:12:26Z</time>
      </trkpt>
      <trkpt lat="47.87667" lon="6.81173">
        <ele>815</ele>
        <time>2022-09-12T08:12:27Z</time>
      </trkpt>
      <trkpt lat="47.87666" lon="6.81172">
        <ele>815</ele>
        <time>2022-09-12T08:12:28Z</time>
      </trkpt>
      <trkpt lat="47.87665" lon="6.81172">
        <ele>815</ele>
        <time>2022-09-12T08:12:29Z</time>
      </trkpt>
      <trkpt lat="47.87664" lon="6.81172">
        <ele>815</ele>
        <time>2022-09-12T08:12:30Z</time>
      </trkpt>
      <trkpt lat="47.87663" lon="6.81171">
        <ele>815</ele>
        <time>2022-09-12T08:12:31Z</time>
      </trkpt>
      <trkpt lat="47.87662" lon="6.81171">
        <ele>815</ele>
        <time>2022-09-12T08:12:32Z</time>
      </trkpt>
      <trkpt lat="47.87661" lon="6.8117">
        <ele>815</ele>
        <time>2022-09-12T08:12:33Z</time>
      </trkpt>
      <trkpt lat="47.8766" lon="6.81169">
        <ele>815</ele>
        <time>2022-09-12T08:12:34Z</time>
      </trkpt>
      <trkpt lat="47.87659" lon="6.81169">
        <ele>815</ele>
        <time>2022-09-12T08:12:35Z</time>
      </trkpt>
      <trkpt lat="47.87658" lon="6.81168">
        <ele>816</ele>
        <time>2022-09-12T08:12:36Z</time>
      </trkpt>
      <trkpt lat="47.87657" lon="6.81167">
        <ele>816</ele>
        <time>2022-09-12T08:12:37Z</time>
      </trkpt>
      <trkpt lat="47.87656" lon="6.81166">
        <ele>816</ele>
        <time>2022-09-12T08:12:38Z</time>
      </trkpt>
      <trkpt lat="47.87656" lon="6.81166">
        <ele>816</ele>
        <time>2022-09-12T08:12:39Z</time>
      </trkpt>
      <trkpt lat="47.87655" lon="6.81165">
        <ele>816</ele>
        <time>2022-09-12T08:12:40Z</time>
      </trkpt>
      <trkpt lat="47.87654" lon="6.81164">
        <ele>816</ele>
        <time>2022-09-12T08:12:41Z</time>
      </trkpt>
      <trkpt lat="47.87653" lon="6.81164">
        <ele>816</ele>
        <time>2022-09-12T08:12:42Z</time>
      </trkpt>
      <trkpt lat="47.87652" lon="6.81163">
        <ele>816</ele>
        <time>2022-09-12T08:12:43Z</time>
      </trkpt>
      <trkpt lat="47.87651" lon="6.81162">
        <ele>816</ele>
        <time>2022-09-12T08:12:44Z</time>
      </trkpt>
      <trkpt lat="47.8765" lon="6.81161">
        <ele>816</ele>
        <time>2022-09-12T08:12:45Z</time>
      </trkpt>
      <trkpt lat="47.8765" lon="6.8116">
        <ele>816</ele>
        <time>2022-09-12T08:12:46Z</time>
      </trkpt>
      <trkpt lat="47.87649" lon="6.81159">
        <ele>816</ele>
        <time>2022-09-12T08:12:47Z</time>
      </trkpt>
      <trkpt lat="47.87648" lon="6.81159">
        <ele>816</ele>
        <time>2022-09-12T08:12:48Z</time>
      </trkpt>
      <trkpt lat="47.87647" lon="6.81158">
        <ele>816</ele>
        <time>2022-09-12T08:12:49Z</time>
      </trkpt>
      <trkpt lat="47.87647" lon="6.81157">
        <ele>816</ele>
        <time>2022-09-12T08:12:50Z</time>
      </trkpt>
      <trkpt lat="47.87646" lon="6.81157">
        <ele>817</ele>
        <time>2022-09-12T08:12:51Z</time>
      </trkpt>
      <trkpt lat="47.87645" lon="6.81156">
        <ele>817</ele>
        <time>2022-09-12T08:12:52Z</time>
      </trkpt>
      <trkpt lat="47.87645" lon="6.81156">
        <ele>817</ele>
        <time>2022-09-12T08:12:53Z</time>
      </trkpt>
      <trkpt lat="47.87644" lon="6.81155">
        <ele>817</ele>
        <time>2022-09-12T08:12:54Z</time>
      </trkpt>
      <trkpt lat="47.87644" lon="6.81155">
        <ele>817</ele>
        <time>2022-09-12T08:12:55Z</time>
      </trkpt>
      <trkpt lat="47.87643" lon="6.81155">
        <ele>817</ele>
        <time>2022-09-12T08:12:56Z</time>
      </trkpt>
      <trkpt lat="47.87643" lon="6.81154">
        <ele>817</ele>
        <time>2022-09-12T08:12:57Z</time>
      </trkpt>
      <trkpt lat="47.87642" lon="6.81154">
        <ele>817</ele>
        <time>2022-09-12T08:12:58Z</time>
      </trkpt>
      <trkpt lat="47.87641" lon="6.81154">
        <ele>817</ele>
        <time>2022-09-12T08:12:59Z</time>
      </trkpt>
      <trkpt lat="47.87641" lon="6.81153">
        <ele>817</ele>
        <time>2022-09-12T08:13:00Z</time>
      </trkpt>
      <trkpt lat="47.8764" lon="6.81153">
        <ele>817</ele>
        <time>2022-09-12T08:13:01Z</time>
      </trkpt>
      <trkpt lat="47.87639" lon="6.81152">
        <ele>817</ele>
        <time>2022-09-12T08:13:02Z</time>
      </trkpt>
      <trkpt lat="47.87638" lon="6.81151">
        <ele>817</ele>
        <time>2022-09-12T08:13:03Z</time>
      </trkpt>
      <trkpt lat="47.87638" lon="6.8115">
        <ele>817</ele>
        <time>2022-09-12T08:13:04Z</time>
      </trkpt>
      <trkpt lat="47.87637" lon="6.81149">
        <ele>817</ele>
        <time>2022-09-12T08:13:05Z</time>
      </trkpt>
      <trkpt lat="47.87636" lon="6.81148">
        <ele>817</ele>
        <time>2022-09-12T08:13:06Z</time>
      </trkpt>
      <trkpt lat="47.87635" lon="6.81147">
        <ele>816</ele>
        <time>2022-09-12T08:13:07Z</time>
      </trkpt>
      <trkpt lat="47.87635" lon="6.81146">
        <ele>816</ele>
        <time>2022-09-12T08:13:08Z</time>
      </trkpt>
      <trkpt lat="47.87634" lon="6.81145">
        <ele>816</ele>
        <time>2022-09-12T08:13:09Z</time>
      </trkpt>
      <trkpt lat="47.87633" lon="6.81144">
        <ele>816</ele>
        <time>2022-09-12T08:13:10Z</time>
      </trkpt>
      <trkpt lat="47.87633" lon="6.81144">
        <ele>816</ele>
        <time>2022-09-12T08:13:11Z</time>
      </trkpt>
      <trkpt lat="47.87632" lon="6.81143">
        <ele>816</ele>
        <time>2022-09-12T08:13:12Z</time>
      </trkpt>
      <trkpt lat="47.87631" lon="6.81142">
        <ele>816</ele>
        <time>2022-09-12T08:13:13Z</time>
      </trkpt>
      <trkpt lat="47.8763" lon="6.81141">
        <ele>816</ele>
        <time>2022-09-12T08:13:14Z</time>
      </trkpt>
      <trkpt lat="47.8763" lon="6.8114">
        <ele>816</ele>
        <time>2022-09-12T08:13:15Z</time>
      </trkpt>
      <trkpt lat="47.87629" lon="6.81139">
        <ele>816</ele>
        <time>2022-09-12T08:13:16Z</time>
      </trkpt>
      <trkpt lat="47.87629" lon="6.81138">
        <ele>815</ele>
        <time>2022-09-12T08:13:17Z</time>
      </trkpt>
      <trkpt lat="47.87628" lon="6.81137">
        <ele>815</ele>
        <time>2022-09-12T08:13:18Z</time>
      </trkpt>
      <trkpt lat="47.87628" lon="6.81136">
        <ele>815</ele>
        <time>2022-09-12T08:13:19Z</time>
      </trkpt>
      <trkpt lat="47.87627" lon="6.81135">
        <ele>815</ele>
        <time>2022-09-12T08:13:20Z</time>
      </trkpt>
      <trkpt lat="47.87627" lon="6.81134">
        <ele>815</ele>
        <time>2022-09-12T08:13:21Z</time>
      </trkpt>
      <trkpt lat="47.87626" lon="6.81133">
        <ele>815</ele>
        <time>2022-09-12T08:13:22Z</time>
      </trkpt>
      <trkpt lat="47.87626" lon="6.81132">
        <ele>815</ele>
        <time>2022-09-12T08:13:23Z</time>
      </trkpt>
      <trkpt lat="47.87625" lon="6.81132">
        <ele>815</ele>
        <time>2022-09-12T08:13:24Z</time>
      </trkpt>
      <trkpt lat="47.87625" lon="6.81131">
        <ele>815</ele>
        <time>2022-09-12T08:13:25Z</time>
      </trkpt>
      <trkpt lat="47.87624" lon="6.8113">
        <ele>815</ele>
        <time>2022-09-12T08:13:26Z</time>
      </trkpt>
      <trkpt lat="47.87624" lon="6.81129">
        <ele>815</ele>
        <time>2022-09-12T08:13:27Z</time>
      </trkpt>
      <trkpt lat="47.87623" lon="6.81128">
        <ele>815</ele>
        <time>2022-09-12T08:13:28Z</time>
      </trkpt>
      <trkpt lat="47.87622" lon="6.81127">
        <ele>815</ele>
        <time>2022-09-12T08:13:29Z</time>
      </trkpt>
      <trkpt lat="47.87622" lon="6.81126">
        <ele>815</ele>
        <time>2022-09-12T08:13:30Z</time>
      </trkpt>
      <trkpt lat="47.87621" lon="6.81125">
        <ele>815</ele>
        <time>2022-09-12T08:13:31Z</time>
      </trkpt>
      <trkpt lat="47.8762" lon="6.81124">
        <ele>815</ele>
        <time>2022-09-12T08:13:32Z</time>
      </trkpt>
      <trkpt lat="47.8762" lon="6.81123">
        <ele>815</ele>
        <time>2022-09-12T08:13:33Z</time>
      </trkpt>
      <trkpt lat="47.87619" lon="6.81121">
        <ele>815</ele>
        <time>2022-09-12T08:13:34Z</time>
      </trkpt>
      <trkpt lat="47.87619" lon="6.8112">
        <ele>815</ele>
        <time>2022-09-12T08:13:35Z</time>
      </trkpt>
      <trkpt lat="47.87618" lon="6.81119">
        <ele>816</ele>
        <time>2022-09-12T08:13:36Z</time>
      </trkpt>
      <trkpt lat="47.87617" lon="6.81118">
        <ele>816</ele>
        <time>2022-09-12T08:13:37Z</time>
      </trkpt>
      <trkpt lat="47.87616" lon="6.81117">
        <ele>816</ele>
        <time>2022-09-12T08:13:38Z</time>
      </trkpt>
      <trkpt lat="47.87616" lon="6.81116">
        <ele>816</ele>
        <time>2022-09-12T08:13:39Z</time>
      </trkpt>
      <trkpt lat="47.87615" lon="6.81115">
        <ele>816</ele>
        <time>2022-09-12T08:13:40Z</time>
      </trkpt>
      <trkpt lat="47.87614" lon="6.81114">
        <ele>816</ele>
        <time>2022-09-12T08:13:41Z</time>
      </trkpt>
      <trkpt lat="47.87613" lon="6.81114">
        <ele>816</ele>
        <time>2022-09-12T08:13:42Z</time>
      </trkpt>
      <trkpt lat="47.87613" lon="6.81113">
        <ele>816</ele>
        <time>2022-09-12T08:13:43Z</time>
      </trkpt>
      <trkpt lat="47.87612" lon="6.81112">
        <ele>816</ele>
        <time>2022-09-12T08:13:44Z</time>
      </trkpt>
      <trkpt lat="47.87611" lon="6.81111">
        <ele>816</ele>
        <time>2022-09-12T08:13:45Z</time>
      </trkpt>
      <trkpt lat="47.8761" lon="6.8111">
        <ele>816</ele>
        <time>2022-09-12T08:13:46Z</time>
      </trkpt>
      <trkpt lat="47.87609" lon="6.81109">
        <ele>816</ele>
        <time>2022-09-12T08:13:47Z</time>
      </trkpt>
      <trkpt lat="47.87608" lon="6.81108">
        <ele>816</ele>
        <time>2022-09-12T08:13:48Z</time>
      </trkpt>
      <trkpt lat="47.87607" lon="6.81107">
        <ele>816</ele>
        <time>2022-09-12T08:13:49Z</time>
      </trkpt>
      <trkpt lat="47.87606" lon="6.81106">
        <ele>816</ele>
        <time>2022-09-12T08:13:50Z</time>
      </trkpt>
      <trkpt lat="47.87606" lon="6.81106">
        <ele>816</ele>
        <time>2022-09-12T08:13:51Z</time>
      </trkpt>
      <trkpt lat="47.87605" lon="6.81105">
        <ele>816</ele>
        <time>2022-09-12T08:13:52Z</time>
      </trkpt>
      <trkpt lat="47.87604" lon="6.81104">
        <ele>816</ele>
        <time>2022-09-12T08:13:53Z</time>
      </trkpt>
      <trkpt lat="47.87603" lon="6.81104">
        <ele>816</ele>
        <time>2022-09-12T08:13:54Z</time>
      </trkpt>
      <trkpt lat="47.87602" lon="6.81103">
        <ele>816</ele>
        <time>2022-09-12T08:13:55Z</time>
      </trkpt>
      <trkpt lat="47.87601" lon="6.81103">
        <ele>817</ele>
        <time>2022-09-12T08:13:56Z</time>
      </trkpt>
      <trkpt lat="47.876" lon="6.81102">
        <ele>817</ele>
        <time>2022-09-12T08:13:57Z</time>
      </trkpt>
      <trkpt lat="47.87599" lon="6.81102">
        <ele>817</ele>
        <time>2022-09-12T08:13:58Z</time>
      </trkpt>
      <trkpt lat="47.87599" lon="6.81102">
        <ele>817</ele>
        <time>2022-09-12T08:13:59Z</time>
      </trkpt>
      <trkpt lat="47.87599" lon="6.81102">
        <ele>817</ele>
        <time>2022-09-12T08:14:00Z</time>
      </trkpt>
      <trkpt lat="47.87598" lon="6.81102">
        <ele>817</ele>
        <time>2022-09-12T08:14:01Z</time>
      </trkpt>
      <trkpt lat="47.87598" lon="6.81102">
        <ele>817</ele>
        <time>2022-09-12T08:14:02Z</time>
      </trkpt>
      <trkpt lat="47.87597" lon="6.81102">
        <ele>817</ele>
        <time>2022-09-12T08:14:03Z</time>
      </trkpt>
      <trkpt lat="47.87596" lon="6.81102">
        <ele>817</ele>
        <time>2022-09-12T08:14:04Z</time>
      </trkpt>
      <trkpt lat="47.87596" lon="6.81103">
        <ele>817</ele>
        <time>2022-09-12T08:14:05Z</time>
      </trkpt>
      <trkpt lat="47.87595" lon="6.81103">
        <ele>818</ele>
        <time>2022-09-12T08:14:06Z</time>
      </trkpt>
      <trkpt lat="47.87595" lon="6.81104">
        <ele>818</ele>
        <time>2022-09-12T08:14:07Z</time>
      </trkpt>
      <trkpt lat="47.87594" lon="6.81105">
        <ele>818</ele>
        <time>2022-09-12T08:14:08Z</time>
      </trkpt>
      <trkpt lat="47.87594" lon="6.81105">
        <ele>819</ele>
        <time>2022-09-12T08:14:09Z</time>
      </trkpt>
      <trkpt lat="47.87593" lon="6.81106">
        <ele>819</ele>
        <time>2022-09-12T08:14:10Z</time>
      </trkpt>
      <trkpt lat="47.87593" lon="6.81106">
        <ele>820</ele>
        <time>2022-09-12T08:14:11Z</time>
      </trkpt>
      <trkpt lat="47.87592" lon="6.81107">
        <ele>820</ele>
        <time>2022-09-12T08:14:12Z</time>
      </trkpt>
      <trkpt lat="47.87592" lon="6.81108">
        <ele>820</ele>
        <time>2022-09-12T08:14:13Z</time>
      </trkpt>
      <trkpt lat="47.87591" lon="6.81108">
        <ele>820</ele>
        <time>2022-09-12T08:14:14Z</time>
      </trkpt>
      <trkpt lat="47.87591" lon="6.81109">
        <ele>820</ele>
        <time>2022-09-12T08:14:15Z</time>
      </trkpt>
      <trkpt lat="47.87591" lon="6.81109">
        <ele>821</ele>
        <time>2022-09-12T08:14:16Z</time>
      </trkpt>
      <trkpt lat="47.8759" lon="6.8111">
        <ele>821</ele>
        <time>2022-09-12T08:14:17Z</time>
      </trkpt>
      <trkpt lat="47.8759" lon="6.81111">
        <ele>821</ele>
        <time>2022-09-12T08:14:18Z</time>
      </trkpt>
      <trkpt lat="47.87589" lon="6.81112">
        <ele>821</ele>
        <time>2022-09-12T08:14:19Z</time>
      </trkpt>
      <trkpt lat="47.87589" lon="6.81112">
        <ele>821</ele>
        <time>2022-09-12T08:14:20Z</time>
      </trkpt>
      <trkpt lat="47.87588" lon="6.81113">
        <ele>821</ele>
        <time>2022-09-12T08:14:21Z</time>
      </trkpt>
      <trkpt lat="47.87588" lon="6.81113">
        <ele>821</ele>
        <time>2022-09-12T08:14:22Z</time>
      </trkpt>
      <trkpt lat="47.87587" lon="6.81114">
        <ele>821</ele>
        <time>2022-09-12T08:14:23Z</time>
      </trkpt>
      <trkpt lat="47.87586" lon="6.81115">
        <ele>821</ele>
        <time>2022-09-12T08:14:24Z</time>
      </trkpt>
      <trkpt lat="47.87586" lon="6.81115">
        <ele>821</ele>
        <time>2022-09-12T08:14:25Z</time>
      </trkpt>
      <trkpt lat="47.87585" lon="6.81116">
        <ele>822</ele>
        <time>2022-09-12T08:14:26Z</time>
      </trkpt>
      <trkpt lat="47.87584" lon="6.81116">
        <ele>822</ele>
        <time>2022-09-12T08:14:27Z</time>
      </trkpt>
      <trkpt lat="47.87584" lon="6.81117">
        <ele>822</ele>
        <time>2022-09-12T08:14:28Z</time>
      </trkpt>
      <trkpt lat="47.87583" lon="6.81117">
        <ele>822</ele>
        <time>2022-09-12T08:14:29Z</time>
      </trkpt>
      <trkpt lat="47.87583" lon="6.81118">
        <ele>822</ele>
        <time>2022-09-12T08:14:30Z</time>
      </trkpt>
      <trkpt lat="47.87582" lon="6.81118">
        <ele>823</ele>
        <time>2022-09-12T08:14:31Z</time>
      </trkpt>
      <trkpt lat="47.87581" lon="6.81119">
        <ele>823</ele>
        <time>2022-09-12T08:14:32Z</time>
      </trkpt>
      <trkpt lat="47.87581" lon="6.8112">
        <ele>823</ele>
        <time>2022-09-12T08:14:33Z</time>
      </trkpt>
      <trkpt lat="47.8758" lon="6.8112">
        <ele>823</ele>
        <time>2022-09-12T08:14:34Z</time>
      </trkpt>
      <trkpt lat="47.8758" lon="6.81121">
        <ele>823</ele>
        <time>2022-09-12T08:14:35Z</time>
      </trkpt>
      <trkpt lat="47.87579" lon="6.81122">
        <ele>823</ele>
        <time>2022-09-12T08:14:36Z</time>
      </trkpt>
      <trkpt lat="47.87578" lon="6.81122">
        <ele>823</ele>
        <time>2022-09-12T08:14:37Z</time>
      </trkpt>
      <trkpt lat="47.87577" lon="6.81123">
        <ele>823</ele>
        <time>2022-09-12T08:14:38Z</time>
      </trkpt>
      <trkpt lat="47.87576" lon="6.81123">
        <ele>823</ele>
        <time>2022-09-12T08:14:39Z</time>
      </trkpt>
      <trkpt lat="47.87575" lon="6.81124">
        <ele>823</ele>
        <time>2022-09-12T08:14:40Z</time>
      </trkpt>
      <trkpt lat="47.87575" lon="6.81125">
        <ele>824</ele>
        <time>2022-09-12T08:14:41Z</time>
      </trkpt>
      <trkpt lat="47.87574" lon="6.81125">
        <ele>824</ele>
        <time>2022-09-12T08:14:42Z</time>
      </trkpt>
      <trkpt lat="47.87574" lon="6.81126">
        <ele>824</ele>
        <time>2022-09-12T08:14:43Z</time>
      </trkpt>
      <trkpt lat="47.87573" lon="6.81127">
        <ele>824</ele>
        <time>2022-09-12T08:14:44Z</time>
      </trkpt>
      <trkpt lat="47.87573" lon="6.81128">
        <ele>824</ele>
        <time>2022-09-12T08:14:45Z</time>
      </trkpt>
      <trkpt lat="47.87572" lon="6.81129">
        <ele>824</ele>
        <time>2022-09-12T08:14:46Z</time>
      </trkpt>
      <trkpt lat="47.87572" lon="6.81131">
        <ele>824</ele>
        <time>2022-09-12T08:14:47Z</time>
      </trkpt>
      <trkpt lat="47.87572" lon="6.81132">
        <ele>824</ele>
        <time>2022-09-12T08:14:48Z</time>
      </trkpt>
      <trkpt lat="47.87571" lon="6.81133">
        <ele>824</ele>
        <time>2022-09-12T08:14:49Z</time>
      </trkpt>
      <trkpt lat="47.87571" lon="6.81134">
        <ele>824</ele>
        <time>2022-09-12T08:14:50Z</time>
      </trkpt>
      <trkpt lat="47.87571" lon="6.81135">
        <ele>824</ele>
        <time>2022-09-12T08:14:51Z</time>
      </trkpt>
      <trkpt lat="47.8757" lon="6.81136">
        <ele>824</ele>
        <time>2022-09-12T08:14:52Z</time>
      </trkpt>
      <trkpt lat="47.8757" lon="6.81137">
        <ele>824</ele>
        <time>2022-09-12T08:14:53Z</time>
      </trkpt>
      <trkpt lat="47.87569" lon="6.81138">
        <ele>824</ele>
        <time>2022-09-12T08:14:54Z</time>
      </trkpt>
      <trkpt lat="47.87569" lon="6.81139">
        <ele>824</ele>
        <time>2022-09-12T08:14:55Z</time>
      </trkpt>
      <trkpt lat="47.87568" lon="6.81139">
        <ele>824</ele>
        <time>2022-09-12T08:14:56Z</time>
      </trkpt>
      <trkpt lat="47.87567" lon="6.8114">
        <ele>824</ele>
        <time>2022-09-12T08:14:57Z</time>
      </trkpt>
      <trkpt lat="47.87567" lon="6.8114">
        <ele>824</ele>
        <time>2022-09-12T08:14:58Z</time>
      </trkpt>
      <trkpt lat="47.87566" lon="6.8114">
        <ele>824</ele>
        <time>2022-09-12T08:14:59Z</time>
      </trkpt>
      <trkpt lat="47.87565" lon="6.81139">
        <ele>824</ele>
        <time>2022-09-12T08:16:18Z</time>
      </trkpt>
      <trkpt lat="47.87564" lon="6.81139">
        <ele>824</ele>
        <time>2022-09-12T08:16:19Z</time>
      </trkpt>
      <trkpt lat="47.87564" lon="6.81138">
        <ele>824</ele>
        <time>2022-09-12T08:16:20Z</time>
      </trkpt>
      <trkpt lat="47.87565" lon="6.81138">
        <ele>824</ele>
        <time>2022-09-12T08:16:21Z</time>
      </trkpt>
      <trkpt lat="47.87565" lon="6.81139">
        <ele>824</ele>
        <time>2022-09-12T08:16:22Z</time>
      </trkpt>
      <trkpt lat="47.87565" lon="6.81139">
        <ele>824</ele>
        <time>2022-09-12T08:16:23Z</time>
      </trkpt>
      <trkpt lat="47.87565" lon="6.8114">
        <ele>824</ele>
        <time>2022-09-12T08:16:24Z</time>
      </trkpt>
      <trkpt lat="47.87566" lon="6.81141">
        <ele>824</ele>
        <time>2022-09-12T08:16:25Z</time>
      </trkpt>
      <trkpt lat="47.87566" lon="6.81142">
        <ele>824</ele>
        <time>2022-09-12T08:16:26Z</time>
      </trkpt>
      <trkpt lat="47.87567" lon="6.81144">
        <ele>824</ele>
        <time>2022-09-12T08:16:27Z</time>
      </trkpt>
      <trkpt lat="47.87567" lon="6.81145">
        <ele>824</ele>
        <time>2022-09-12T08:16:28Z</time>
      </trkpt>
      <trkpt lat="47.87568" lon="6.81147">
        <ele>824</ele>
        <time>2022-09-12T08:16:29Z</time>
      </trkpt>
      <trkpt lat="47.87568" lon="6.81148">
        <ele>824</ele>
        <time>2022-09-12T08:16:30Z</time>
      </trkpt>
      <trkpt lat="47.87568" lon="6.8115">
        <ele>824</ele>
        <time>2022-09-12T08:16:31Z</time>
      </trkpt>
      <trkpt lat="47.87568" lon="6.81151">
        <ele>824</ele>
        <time>2022-09-12T08:16:32Z</time>
      </trkpt>
      <trkpt lat="47.87568" lon="6.81153">
        <ele>824</ele>
        <time>2022-09-12T08:16:33Z</time>
      </trkpt>
      <trkpt lat="47.87568" lon="6.81154">
        <ele>824</ele>
        <time>2022-09-12T08:16:34Z</time>
      </trkpt>
      <trkpt lat="47.87568" lon="6.81155">
        <ele>824</ele>
        <time>2022-09-12T08:16:35Z</time>
      </trkpt>
      <trkpt lat="47.87569" lon="6.81156">
        <ele>825</ele>
        <time>2022-09-12T08:16:36Z</time>
      </trkpt>
      <trkpt lat="47.87569" lon="6.81158">
        <ele>825</ele>
        <time>2022-09-12T08:16:37Z</time>
      </trkpt>
      <trkpt lat="47.87569" lon="6.81159">
        <ele>825</ele>
        <time>2022-09-12T08:16:38Z</time>
      </trkpt>
      <trkpt lat="47.8757" lon="6.8116">
        <ele>825</ele>
        <time>2022-09-12T08:16:39Z</time>
      </trkpt>
      <trkpt lat="47.8757" lon="6.81161">
        <ele>825</ele>
        <time>2022-09-12T08:16:40Z</time>
      </trkpt>
      <trkpt lat="47.8757" lon="6.81163">
        <ele>825</ele>
        <time>2022-09-12T08:16:41Z</time>
      </trkpt>
      <trkpt lat="47.87571" lon="6.81164">
        <ele>825</ele>
        <time>2022-09-12T08:16:42Z</time>
      </trkpt>
      <trkpt lat="47.87571" lon="6.81165">
        <ele>825</ele>
        <time>2022-09-12T08:16:43Z</time>
      </trkpt>
      <trkpt lat="47.87571" lon="6.81167">
        <ele>825</ele>
        <time>2022-09-12T08:16:44Z</time>
      </trkpt>
      <trkpt lat="47.87571" lon="6.81168">
        <ele>825</ele>
        <time>2022-09-12T08:16:45Z</time>
      </trkpt>
      <trkpt lat="47.87572" lon="6.8117">
        <ele>826</ele>
        <time>2022-09-12T08:16:46Z</time>
      </trkpt>
      <trkpt lat="47.87572" lon="6.81171">
        <ele>826</ele>
        <time>2022-09-12T08:16:47Z</time>
      </trkpt>
      <trkpt lat="47.87572" lon="6.81173">
        <ele>826</ele>
        <time>2022-09-12T08:16:48Z</time>
      </trkpt>
      <trkpt lat="47.87572" lon="6.81174">
        <ele>826</ele>
        <time>2022-09-12T08:16:49Z</time>
      </trkpt>
      <trkpt lat="47.87573" lon="6.81175">
        <ele>826</ele>
        <time>2022-09-12T08:16:50Z</time>
      </trkpt>
      <trkpt lat="47.87573" lon="6.81176">
        <ele>826</ele>
        <time>2022-09-12T08:16:51Z</time>
      </trkpt>
      <trkpt lat="47.87573" lon="6.81177">
        <ele>826</ele>
        <time>2022-09-12T08:16:52Z</time>
      </trkpt>
      <trkpt lat="47.87573" lon="6.81179">
        <ele>826</ele>
        <time>2022-09-12T08:16:53Z</time>
      </trkpt>
      <trkpt lat="47.87573" lon="6.8118">
        <ele>826</ele>
        <time>2022-09-12T08:16:54Z</time>
      </trkpt>
      <trkpt lat="47.87574" lon="6.81181">
        <ele>826</ele>
        <time>2022-09-12T08:16:55Z</time>
      </trkpt>
      <trkpt lat="47.87574" lon="6.81182">
        <ele>827</ele>
        <time>2022-09-12T08:16:56Z</time>
      </trkpt>
      <trkpt lat="47.87574" lon="6.81184">
        <ele>827</ele>
        <time>2022-09-12T08:16:57Z</time>
      </trkpt>
      <trkpt lat="47.87574" lon="6.81185">
        <ele>827</ele>
        <time>2022-09-12T08:16:58Z</time>
      </trkpt>
      <trkpt lat="47.87575" lon="6.81186">
        <ele>827</ele>
        <time>2022-09-12T08:16:59Z</time>
      </trkpt>
      <trkpt lat="47.87575" lon="6.81188">
        <ele>827</ele>
        <time>2022-09-12T08:17:00Z</time>
      </trkpt>
      <trkpt lat="47.87576" lon="6.81188">
        <ele>827</ele>
        <time>2022-09-12T08:17:01Z</time>
      </trkpt>
      <trkpt lat="47.87576" lon="6.81189">
        <ele>827</ele>
        <time>2022-09-12T08:17:02Z</time>
      </trkpt>
      <trkpt lat="47.87577" lon="6.8119">
        <ele>827</ele>
        <time>2022-09-12T08:17:03Z</time>
      </trkpt>
      <trkpt lat="47.87577" lon="6.81191">
        <ele>827</ele>
        <time>2022-09-12T08:17:04Z</time>
      </trkpt>
      <trkpt lat="47.87578" lon="6.81192">
        <ele>827</ele>
        <time>2022-09-12T08:17:05Z</time>
      </trkpt>
      <trkpt lat="47.87578" lon="6.81193">
        <ele>827</ele>
        <time>2022-09-12T08:17:06Z</time>
      </trkpt>
      <trkpt lat="47.87579" lon="6.81194">
        <ele>827</ele>
        <time>2022-09-12T08:17:07Z</time>
      </trkpt>
      <trkpt lat="47.87579" lon="6.81195">
        <ele>827</ele>
        <time>2022-09-12T08:17:08Z</time>
      </trkpt>
      <trkpt lat="47.87579" lon="6.81195">
        <ele>827</ele>
        <time>2022-09-12T08:17:09Z</time>
      </trkpt>
      <trkpt lat="47.87579" lon="6.81196">
        <ele>827</ele>
        <time>2022-09-12T08:17:10Z</time>
      </trkpt>
      <trkpt lat="47.8758" lon="6.81197">
        <ele>828</ele>
        <time>2022-09-12T08:17:11Z</time>
      </trkpt>
      <trkpt lat="47.8758" lon="6.81198">
        <ele>828</ele>
        <time>2022-09-12T08:17:12Z</time>
      </trkpt>
      <trkpt lat="47.8758" lon="6.81199">
        <ele>828</ele>
        <time>2022-09-12T08:17:13Z</time>
      </trkpt>
      <trkpt lat="47.8758" lon="6.812">
        <ele>828</ele>
        <time>2022-09-12T08:17:14Z</time>
      </trkpt>
      <trkpt lat="47.8758" lon="6.81201">
        <ele>828</ele>
        <time>2022-09-12T08:17:15Z</time>
      </trkpt>
      <trkpt lat="47.87581" lon="6.81203">
        <ele>828</ele>
        <time>2022-09-12T08:17:16Z</time>
      </trkpt>
      <trkpt lat="47.8758" lon="6.81204">
        <ele>828</ele>
        <time>2022-09-12T08:17:17Z</time>
      </trkpt>
      <trkpt lat="47.8758" lon="6.81205">
        <ele>828</ele>
        <time>2022-09-12T08:17:18Z</time>
      </trkpt>
      <trkpt lat="47.8758" lon="6.81206">
        <ele>828</ele>
        <time>2022-09-12T08:17:19Z</time>
      </trkpt>
      <trkpt lat="47.8758" lon="6.81207">
        <ele>828</ele>
        <time>2022-09-12T08:17:20Z</time>
      </trkpt>
      <trkpt lat="47.8758" lon="6.81209">
        <ele>828</ele>
        <time>2022-09-12T08:17:21Z</time>
      </trkpt>
      <trkpt lat="47.87579" lon="6.8121">
        <ele>828</ele>
        <time>2022-09-12T08:17:22Z</time>
      </trkpt>
      <trkpt lat="47.87579" lon="6.81212">
        <ele>828</ele>
        <time>2022-09-12T08:17:23Z</time>
      </trkpt>
      <trkpt lat="47.87579" lon="6.81213">
        <ele>828</ele>
        <time>2022-09-12T08:17:24Z</time>
      </trkpt>
      <trkpt lat="47.87579" lon="6.81215">
        <ele>828</ele>
        <time>2022-09-12T08:17:25Z</time>
      </trkpt>
      <trkpt lat="47.8758" lon="6.81216">
        <ele>829</ele>
        <time>2022-09-12T08:17:26Z</time>
      </trkpt>
      <trkpt lat="47.8758" lon="6.81218">
        <ele>829</ele>
        <time>2022-09-12T08:17:27Z</time>
      </trkpt>
      <trkpt lat="47.87581" lon="6.8122">
        <ele>829</ele>
        <time>2022-09-12T08:17:28Z</time>
      </trkpt>
      <trkpt lat="47.87581" lon="6.81221">
        <ele>829</ele>
        <time>2022-09-12T08:17:29Z</time>
      </trkpt>
      <trkpt lat="47.87582" lon="6.81223">
        <ele>829</ele>
        <time>2022-09-12T08:17:30Z</time>
      </trkpt>
      <trkpt lat="47.87582" lon="6.81224">
        <ele>829</ele>
        <time>2022-09-12T08:17:31Z</time>
      </trkpt>
      <trkpt lat="47.87582" lon="6.81226">
        <ele>829</ele>
        <time>2022-09-12T08:17:32Z</time>
      </trkpt>
      <trkpt lat="47.87583" lon="6.81227">
        <ele>829</ele>
        <time>2022-09-12T08:17:33Z</time>
      </trkpt>
      <trkpt lat="47.87583" lon="6.81228">
        <ele>829</ele>
        <time>2022-09-12T08:17:34Z</time>
      </trkpt>
      <trkpt lat="47.87583" lon="6.8123">
        <ele>829</ele>
        <time>2022-09-12T08:17:35Z</time>
      </trkpt>
      <trkpt lat="47.87583" lon="6.81231">
        <ele>829</ele>
        <time>2022-09-12T08:17:36Z</time>
      </trkpt>
      <trkpt lat="47.87584" lon="6.81233">
        <ele>829</ele>
        <time>2022-09-12T08:17:37Z</time>
      </trkpt>
      <trkpt lat="47.87584" lon="6.81234">
        <ele>829</ele>
        <time>2022-09-12T08:17:38Z</time>
      </trkpt>
      <trkpt lat="47.87584" lon="6.81235">
        <ele>829</ele>
        <time>2022-09-12T08:17:39Z</time>
      </trkpt>
      <trkpt lat="47.87584" lon="6.81237">
        <ele>829</ele>
        <time>2022-09-12T08:17:40Z</time>
      </trkpt>
      <trkpt lat="47.87584" lon="6.81239">
        <ele>830</ele>
        <time>2022-09-12T08:17:41Z</time>
      </trkpt>
      <trkpt lat="47.87584" lon="6.8124">
        <ele>830</ele>
        <time>2022-09-12T08:17:42Z</time>
      </trkpt>
      <trkpt lat="47.87585" lon="6.81241">
        <ele>830</ele>
        <time>2022-09-12T08:17:43Z</time>
      </trkpt>
      <trkpt lat="47.87585" lon="6.81243">
        <ele>830</ele>
        <time>2022-09-12T08:17:44Z</time>
      </trkpt>
      <trkpt lat="47.87585" lon="6.81244">
        <ele>830</ele>
        <time>2022-09-12T08:17:45Z</time>
      </trkpt>
      <trkpt lat="47.87585" lon="6.81246">
        <ele>830</ele>
        <time>2022-09-12T08:17:46Z</time>
      </trkpt>
      <trkpt lat="47.87585" lon="6.81247">
        <ele>830</ele>
        <time>2022-09-12T08:17:47Z</time>
      </trkpt>
      <trkpt lat="47.87585" lon="6.81249">
        <ele>830</ele>
        <time>2022-09-12T08:17:48Z</time>
      </trkpt>
      <trkpt lat="47.87585" lon="6.81251">
        <ele>830</ele>
        <time>2022-09-12T08:17:49Z</time>
      </trkpt>
      <trkpt lat="47.87586" lon="6.81252">
        <ele>830</ele>
        <time>2022-09-12T08:17:50Z</time>
      </trkpt>
      <trkpt lat="47.87586" lon="6.81254">
        <ele>830</ele>
        <time>2022-09-12T08:17:51Z</time>
      </trkpt>
      <trkpt lat="47.87586" lon="6.81255">
        <ele>830</ele>
        <time>2022-09-12T08:17:52Z</time>
      </trkpt>
      <trkpt lat="47.87586" lon="6.81257">
        <ele>830</ele>
        <time>2022-09-12T08:17:53Z</time>
      </trkpt>
      <trkpt lat="47.87586" lon="6.81258">
        <ele>830</ele>
        <time>2022-09-12T08:17:54Z</time>
      </trkpt>
      <trkpt lat="47.87587" lon="6.8126">
        <ele>830</ele>
        <time>2022-09-12T08:17:55Z</time>
      </trkpt>
      <trkpt lat="47.87587" lon="6.81261">
        <ele>830</ele>
        <time>2022-09-12T08:17:56Z</time>
      </trkpt>
      <trkpt lat="47.87587" lon="6.81263">
        <ele>830</ele>
        <time>2022-09-12T08:17:57Z</time>
      </trkpt>
      <trkpt lat="47.87587" lon="6.81264">
        <ele>830</ele>
        <time>2022-09-12T08:17:58Z</time>
      </trkpt>
      <trkpt lat="47.87587" lon="6.81266">
        <ele>830</ele>
        <time>2022-09-12T08:17:59Z</time>
      </trkpt>
      <trkpt lat="47.87588" lon="6.81267">
        <ele>830</ele>
        <time>2022-09-12T08:18:00Z</time>
      </trkpt>
      <trkpt lat="47.87588" lon="6.81268">
        <ele>830</ele>
        <time>2022-09-12T08:18:01Z</time>
      </trkpt>
      <trkpt lat="47.87588" lon="6.8127">
        <ele>830</ele>
        <time>2022-09-12T08:18:02Z</time>
      </trkpt>
      <trkpt lat="47.87588" lon="6.81271">
        <ele>830</ele>
        <time>2022-09-12T08:18:03Z</time>
      </trkpt>
      <trkpt lat="47.87589" lon="6.81273">
        <ele>830</ele>
        <time>2022-09-12T08:18:04Z</time>
      </trkpt>
      <trkpt lat="47.87589" lon="6.81274">
        <ele>830</ele>
        <time>2022-09-12T08:18:05Z</time>
      </trkpt>
      <trkpt lat="47.87589" lon="6.81275">
        <ele>830</ele>
        <time>2022-09-12T08:18:06Z</time>
      </trkpt>
      <trkpt lat="47.87589" lon="6.81277">
        <ele>830</ele>
        <time>2022-09-12T08:18:07Z</time>
      </trkpt>
      <trkpt lat="47.8759" lon="6.81278">
        <ele>830</ele>
        <time>2022-09-12T08:18:08Z</time>
      </trkpt>
      <trkpt lat="47.8759" lon="6.8128">
        <ele>830</ele>
        <time>2022-09-12T08:18:09Z</time>
      </trkpt>
      <trkpt lat="47.87591" lon="6.81281">
        <ele>830</ele>
        <time>2022-09-12T08:18:10Z</time>
      </trkpt>
      <trkpt lat="47.87591" lon="6.81283">
        <ele>831</ele>
        <time>2022-09-12T08:18:11Z</time>
      </trkpt>
      <trkpt lat="47.87591" lon="6.81284">
        <ele>831</ele>
        <time>2022-09-12T08:18:12Z</time>
      </trkpt>
      <trkpt lat="47.87592" lon="6.81286">
        <ele>831</ele>
        <time>2022-09-12T08:18:13Z</time>
      </trkpt>
      <trkpt lat="47.87592" lon="6.81287">
        <ele>831</ele>
        <time>2022-09-12T08:18:14Z</time>
      </trkpt>
      <trkpt lat="47.87592" lon="6.81288">
        <ele>831</ele>
        <time>2022-09-12T08:18:15Z</time>
      </trkpt>
      <trkpt lat="47.87592" lon="6.8129">
        <ele>831</ele>
        <time>2022-09-12T08:18:16Z</time>
      </trkpt>
      <trkpt lat="47.87592" lon="6.81291">
        <ele>831</ele>
        <time>2022-09-12T08:18:17Z</time>
      </trkpt>
      <trkpt lat="47.87592" lon="6.81292">
        <ele>831</ele>
        <time>2022-09-12T08:18:18Z</time>
      </trkpt>
      <trkpt lat="47.87591" lon="6.81293">
        <ele>831</ele>
        <time>2022-09-12T08:18:19Z</time>
      </trkpt>
      <trkpt lat="47.87591" lon="6.81295">
        <ele>831</ele>
        <time>2022-09-12T08:18:20Z</time>
      </trkpt>
      <trkpt lat="47.87591" lon="6.81296">
        <ele>831</ele>
        <time>2022-09-12T08:18:21Z</time>
      </trkpt>
      <trkpt lat="47.87591" lon="6.81297">
        <ele>831</ele>
        <time>2022-09-12T08:18:22Z</time>
      </trkpt>
      <trkpt lat="47.87591" lon="6.81298">
        <ele>831</ele>
        <time>2022-09-12T08:18:23Z</time>
      </trkpt>
      <trkpt lat="47.87591" lon="6.813">
        <ele>831</ele>
        <time>2022-09-12T08:18:24Z</time>
      </trkpt>
      <trkpt lat="47.87591" lon="6.81301">
        <ele>831</ele>
        <time>2022-09-12T08:18:25Z</time>
      </trkpt>
      <trkpt lat="47.87591" lon="6.81302">
        <ele>831</ele>
        <time>2022-09-12T08:18:26Z</time>
      </trkpt>
      <trkpt lat="47.87591" lon="6.81303">
        <ele>831</ele>
        <time>2022-09-12T08:18:27Z</time>
      </trkpt>
      <trkpt lat="47.8759" lon="6.81304">
        <ele>831</ele>
        <time>2022-09-12T08:18:28Z</time>
      </trkpt>
      <trkpt lat="47.8759" lon="6.81306">
        <ele>831</ele>
        <time>2022-09-12T08:18:29Z</time>
      </trkpt>
      <trkpt lat="47.8759" lon="6.81307">
        <ele>831</ele>
        <time>2022-09-12T08:18:30Z</time>
      </trkpt>
      <trkpt lat="47.8759" lon="6.81308">
        <ele>831</ele>
        <time>2022-09-12T08:18:31Z</time>
      </trkpt>
      <trkpt lat="47.87589" lon="6.81309">
        <ele>831</ele>
        <time>2022-09-12T08:18:32Z</time>
      </trkpt>
      <trkpt lat="47.87589" lon="6.8131">
        <ele>831</ele>
        <time>2022-09-12T08:18:33Z</time>
      </trkpt>
      <trkpt lat="47.87589" lon="6.81312">
        <ele>831</ele>
        <time>2022-09-12T08:18:34Z</time>
      </trkpt>
      <trkpt lat="47.87589" lon="6.81313">
        <ele>831</ele>
        <time>2022-09-12T08:18:35Z</time>
      </trkpt>
      <trkpt lat="47.87589" lon="6.81315">
        <ele>831</ele>
        <time>2022-09-12T08:18:36Z</time>
      </trkpt>
      <trkpt lat="47.87589" lon="6.81316">
        <ele>831</ele>
        <time>2022-09-12T08:18:37Z</time>
      </trkpt>
      <trkpt lat="47.87589" lon="6.81318">
        <ele>831</ele>
        <time>2022-09-12T08:18:38Z</time>
      </trkpt>
      <trkpt lat="47.87589" lon="6.8132">
        <ele>831</ele>
        <time>2022-09-12T08:18:39Z</time>
      </trkpt>
      <trkpt lat="47.87589" lon="6.81321">
        <ele>831</ele>
        <time>2022-09-12T08:18:40Z</time>
      </trkpt>
      <trkpt lat="47.8759" lon="6.81323">
        <ele>832</ele>
        <time>2022-09-12T08:18:41Z</time>
      </trkpt>
      <trkpt lat="47.8759" lon="6.81325">
        <ele>832</ele>
        <time>2022-09-12T08:18:42Z</time>
      </trkpt>
      <trkpt lat="47.8759" lon="6.81327">
        <ele>832</ele>
        <time>2022-09-12T08:18:43Z</time>
      </trkpt>
      <trkpt lat="47.8759" lon="6.81329">
        <ele>832</ele>
        <time>2022-09-12T08:18:44Z</time>
      </trkpt>
      <trkpt lat="47.8759" lon="6.8133">
        <ele>832</ele>
        <time>2022-09-12T08:18:45Z</time>
      </trkpt>
      <trkpt lat="47.8759" lon="6.81332">
        <ele>832</ele>
        <time>2022-09-12T08:18:46Z</time>
      </trkpt>
      <trkpt lat="47.8759" lon="6.81333">
        <ele>832</ele>
        <time>2022-09-12T08:18:47Z</time>
      </trkpt>
      <trkpt lat="47.87589" lon="6.81335">
        <ele>832</ele>
        <time>2022-09-12T08:18:48Z</time>
      </trkpt>
      <trkpt lat="47.87589" lon="6.81336">
        <ele>832</ele>
        <time>2022-09-12T08:18:49Z</time>
      </trkpt>
      <trkpt lat="47.87589" lon="6.81337">
        <ele>832</ele>
        <time>2022-09-12T08:18:50Z</time>
      </trkpt>
      <trkpt lat="47.87589" lon="6.81339">
        <ele>832</ele>
        <time>2022-09-12T08:18:51Z</time>
      </trkpt>
      <trkpt lat="47.87589" lon="6.8134">
        <ele>832</ele>
        <time>2022-09-12T08:18:52Z</time>
      </trkpt>
      <trkpt lat="47.87589" lon="6.81342">
        <ele>832</ele>
        <time>2022-09-12T08:18:53Z</time>
      </trkpt>
      <trkpt lat="47.87589" lon="6.81343">
        <ele>832</ele>
        <time>2022-09-12T08:18:54Z</time>
      </trkpt>
      <trkpt lat="47.87589" lon="6.81345">
        <ele>832</ele>
        <time>2022-09-12T08:18:55Z</time>
      </trkpt>
      <trkpt lat="47.87589" lon="6.81346">
        <ele>832</ele>
        <time>2022-09-12T08:18:56Z</time>
      </trkpt>
      <trkpt lat="47.87589" lon="6.81348">
        <ele>832</ele>
        <time>2022-09-12T08:18:57Z</time>
      </trkpt>
      <trkpt lat="47.87589" lon="6.81349">
        <ele>832</ele>
        <time>2022-09-12T08:18:58Z</time>
      </trkpt>
      <trkpt lat="47.87589" lon="6.8135">
        <ele>832</ele>
        <time>2022-09-12T08:18:59Z</time>
      </trkpt>
      <trkpt lat="47.87589" lon="6.81352">
        <ele>832</ele>
        <time>2022-09-12T08:19:00Z</time>
      </trkpt>
      <trkpt lat="47.87589" lon="6.81353">
        <ele>833</ele>
        <time>2022-09-12T08:19:01Z</time>
      </trkpt>
      <trkpt lat="47.87589" lon="6.81354">
        <ele>833</ele>
        <time>2022-09-12T08:19:02Z</time>
      </trkpt>
      <trkpt lat="47.87589" lon="6.81355">
        <ele>833</ele>
        <time>2022-09-12T08:19:03Z</time>
      </trkpt>
      <trkpt lat="47.87589" lon="6.81357">
        <ele>833</ele>
        <time>2022-09-12T08:19:04Z</time>
      </trkpt>
      <trkpt lat="47.87589" lon="6.81358">
        <ele>833</ele>
        <time>2022-09-12T08:19:05Z</time>
      </trkpt>
      <trkpt lat="47.87589" lon="6.81359">
        <ele>834</ele>
        <time>2022-09-12T08:19:06Z</time>
      </trkpt>
      <trkpt lat="47.87588" lon="6.8136">
        <ele>834</ele>
        <time>2022-09-12T08:19:07Z</time>
      </trkpt>
      <trkpt lat="47.87588" lon="6.81361">
        <ele>834</ele>
        <time>2022-09-12T08:19:08Z</time>
      </trkpt>
      <trkpt lat="47.87588" lon="6.81362">
        <ele>834</ele>
        <time>2022-09-12T08:19:09Z</time>
      </trkpt>
      <trkpt lat="47.87587" lon="6.81364">
        <ele>834</ele>
        <time>2022-09-12T08:19:10Z</time>
      </trkpt>
      <trkpt lat="47.87587" lon="6.81365">
        <ele>834</ele>
        <time>2022-09-12T08:19:11Z</time>
      </trkpt>
      <trkpt lat="47.87587" lon="6.81367">
        <ele>834</ele>
        <time>2022-09-12T08:19:12Z</time>
      </trkpt>
      <trkpt lat="47.87586" lon="6.81368">
        <ele>834</ele>
        <time>2022-09-12T08:19:13Z</time>
      </trkpt>
      <trkpt lat="47.87586" lon="6.81369">
        <ele>834</ele>
        <time>2022-09-12T08:19:14Z</time>
      </trkpt>
      <trkpt lat="47.87586" lon="6.81371">
        <ele>834</ele>
        <time>2022-09-12T08:19:15Z</time>
      </trkpt>
      <trkpt lat="47.87585" lon="6.81372">
        <ele>834</ele>
        <time>2022-09-12T08:19:16Z</time>
      </trkpt>
      <trkpt lat="47.87585" lon="6.81373">
        <ele>834</ele>
        <time>2022-09-12T08:19:17Z</time>
      </trkpt>
      <trkpt lat="47.87585" lon="6.81374">
        <ele>834</ele>
        <time>2022-09-12T08:19:18Z</time>
      </trkpt>
      <trkpt lat="47.87585" lon="6.81375">
        <ele>834</ele>
        <time>2022-09-12T08:19:19Z</time>
      </trkpt>
      <trkpt lat="47.87585" lon="6.81377">
        <ele>834</ele>
        <time>2022-09-12T08:19:20Z</time>
      </trkpt>
      <trkpt lat="47.87585" lon="6.81378">
        <ele>835</ele>
        <time>2022-09-12T08:19:21Z</time>
      </trkpt>
      <trkpt lat="47.87585" lon="6.8138">
        <ele>835</ele>
        <time>2022-09-12T08:19:22Z</time>
      </trkpt>
      <trkpt lat="47.87585" lon="6.81381">
        <ele>835</ele>
        <time>2022-09-12T08:19:23Z</time>
      </trkpt>
      <trkpt lat="47.87586" lon="6.81383">
        <ele>835</ele>
        <time>2022-09-12T08:19:24Z</time>
      </trkpt>
      <trkpt lat="47.87585" lon="6.81385">
        <ele>835</ele>
        <time>2022-09-12T08:19:25Z</time>
      </trkpt>
      <trkpt lat="47.87585" lon="6.81386">
        <ele>835</ele>
        <time>2022-09-12T08:19:26Z</time>
      </trkpt>
      <trkpt lat="47.87585" lon="6.81387">
        <ele>835</ele>
        <time>2022-09-12T08:19:27Z</time>
      </trkpt>
      <trkpt lat="47.87585" lon="6.81389">
        <ele>835</ele>
        <time>2022-09-12T08:19:28Z</time>
      </trkpt>
      <trkpt lat="47.87585" lon="6.8139">
        <ele>835</ele>
        <time>2022-09-12T08:19:29Z</time>
      </trkpt>
      <trkpt lat="47.87585" lon="6.81391">
        <ele>835</ele>
        <time>2022-09-12T08:19:30Z</time>
      </trkpt>
      <trkpt lat="47.87585" lon="6.81393">
        <ele>836</ele>
        <time>2022-09-12T08:19:31Z</time>
      </trkpt>
      <trkpt lat="47.87585" lon="6.81394">
        <ele>836</ele>
        <time>2022-09-12T08:19:32Z</time>
      </trkpt>
      <trkpt lat="47.87585" lon="6.81396">
        <ele>836</ele>
        <time>2022-09-12T08:19:33Z</time>
      </trkpt>
      <trkpt lat="47.87584" lon="6.81397">
        <ele>836</ele>
        <time>2022-09-12T08:19:34Z</time>
      </trkpt>
      <trkpt lat="47.87584" lon="6.81398">
        <ele>836</ele>
        <time>2022-09-12T08:19:35Z</time>
      </trkpt>
      <trkpt lat="47.87584" lon="6.814">
        <ele>836</ele>
        <time>2022-09-12T08:19:36Z</time>
      </trkpt>
      <trkpt lat="47.87584" lon="6.81401">
        <ele>836</ele>
        <time>2022-09-12T08:19:37Z</time>
      </trkpt>
      <trkpt lat="47.87584" lon="6.81402">
        <ele>836</ele>
        <time>2022-09-12T08:19:38Z</time>
      </trkpt>
      <trkpt lat="47.87583" lon="6.81404">
        <ele>836</ele>
        <time>2022-09-12T08:19:39Z</time>
      </trkpt>
      <trkpt lat="47.87583" lon="6.81405">
        <ele>836</ele>
        <time>2022-09-12T08:19:40Z</time>
      </trkpt>
      <trkpt lat="47.87583" lon="6.81406">
        <ele>837</ele>
        <time>2022-09-12T08:19:41Z</time>
      </trkpt>
      <trkpt lat="47.87583" lon="6.81408">
        <ele>837</ele>
        <time>2022-09-12T08:19:42Z</time>
      </trkpt>
      <trkpt lat="47.87583" lon="6.81409">
        <ele>837</ele>
        <time>2022-09-12T08:19:43Z</time>
      </trkpt>
      <trkpt lat="47.87582" lon="6.81411">
        <ele>837</ele>
        <time>2022-09-12T08:19:44Z</time>
      </trkpt>
      <trkpt lat="47.87582" lon="6.81412">
        <ele>837</ele>
        <time>2022-09-12T08:19:45Z</time>
      </trkpt>
      <trkpt lat="47.87582" lon="6.81413">
        <ele>838</ele>
        <time>2022-09-12T08:19:46Z</time>
      </trkpt>
      <trkpt lat="47.87582" lon="6.81414">
        <ele>838</ele>
        <time>2022-09-12T08:19:47Z</time>
      </trkpt>
      <trkpt lat="47.87582" lon="6.81415">
        <ele>838</ele>
        <time>2022-09-12T08:19:48Z</time>
      </trkpt>
      <trkpt lat="47.87582" lon="6.81416">
        <ele>838</ele>
        <time>2022-09-12T08:19:49Z</time>
      </trkpt>
      <trkpt lat="47.87582" lon="6.81417">
        <ele>838</ele>
        <time>2022-09-12T08:19:50Z</time>
      </trkpt>
      <trkpt lat="47.87582" lon="6.81418">
        <ele>839</ele>
        <time>2022-09-12T08:19:51Z</time>
      </trkpt>
      <trkpt lat="47.87582" lon="6.81419">
        <ele>839</ele>
        <time>2022-09-12T08:19:52Z</time>
      </trkpt>
      <trkpt lat="47.87582" lon="6.8142">
        <ele>839</ele>
        <time>2022-09-12T08:19:53Z</time>
      </trkpt>
      <trkpt lat="47.87582" lon="6.81421">
        <ele>839</ele>
        <time>2022-09-12T08:19:54Z</time>
      </trkpt>
      <trkpt lat="47.87582" lon="6.81422">
        <ele>839</ele>
        <time>2022-09-12T08:19:55Z</time>
      </trkpt>
      <trkpt lat="47.87582" lon="6.81423">
        <ele>839</ele>
        <time>2022-09-12T08:19:56Z</time>
      </trkpt>
      <trkpt lat="47.87582" lon="6.81425">
        <ele>839</ele>
        <time>2022-09-12T08:19:57Z</time>
      </trkpt>
      <trkpt lat="47.87582" lon="6.81426">
        <ele>839</ele>
        <time>2022-09-12T08:19:58Z</time>
      </trkpt>
      <trkpt lat="47.87582" lon="6.81427">
        <ele>839</ele>
        <time>2022-09-12T08:19:59Z</time>
      </trkpt>
      <trkpt lat="47.87582" lon="6.81428">
        <ele>839</ele>
        <time>2022-09-12T08:20:00Z</time>
      </trkpt>
      <trkpt lat="47.87582" lon="6.81429">
        <ele>840</ele>
        <time>2022-09-12T08:20:01Z</time>
      </trkpt>
      <trkpt lat="47.87583" lon="6.8143">
        <ele>839</ele>
        <time>2022-09-12T08:20:02Z</time>
      </trkpt>
      <trkpt lat="47.87583" lon="6.81431">
        <ele>839</ele>
        <time>2022-09-12T08:20:03Z</time>
      </trkpt>
      <trkpt lat="47.87583" lon="6.81432">
        <ele>839</ele>
        <time>2022-09-12T08:20:04Z</time>
      </trkpt>
      <trkpt lat="47.87582" lon="6.81433">
        <ele>840</ele>
        <time>2022-09-12T08:20:47Z</time>
      </trkpt>
      <trkpt lat="47.87582" lon="6.81434">
        <ele>840</ele>
        <time>2022-09-12T08:20:48Z</time>
      </trkpt>
      <trkpt lat="47.87582" lon="6.81434">
        <ele>840</ele>
        <time>2022-09-12T08:20:49Z</time>
      </trkpt>
      <trkpt lat="47.87582" lon="6.81434">
        <ele>840</ele>
        <time>2022-09-12T08:20:50Z</time>
      </trkpt>
      <trkpt lat="47.87582" lon="6.81433">
        <ele>840</ele>
        <time>2022-09-12T08:20:51Z</time>
      </trkpt>
      <trkpt lat="47.87582" lon="6.81433">
        <ele>840</ele>
        <time>2022-09-12T08:20:52Z</time>
      </trkpt>
      <trkpt lat="47.87583" lon="6.81432">
        <ele>840</ele>
        <time>2022-09-12T08:20:53Z</time>
      </trkpt>
      <trkpt lat="47.87583" lon="6.81431">
        <ele>840</ele>
        <time>2022-09-12T08:20:54Z</time>
      </trkpt>
      <trkpt lat="47.87584" lon="6.8143">
        <ele>840</ele>
        <time>2022-09-12T08:20:55Z</time>
      </trkpt>
      <trkpt lat="47.87584" lon="6.81429">
        <ele>840</ele>
        <time>2022-09-12T08:22:10Z</time>
      </trkpt>
      <trkpt lat="47.87584" lon="6.81428">
        <ele>840</ele>
        <time>2022-09-12T08:22:11Z</time>
      </trkpt>
      <trkpt lat="47.87584" lon="6.81428">
        <ele>840</ele>
        <time>2022-09-12T08:22:12Z</time>
      </trkpt>
      <trkpt lat="47.87585" lon="6.81427">
        <ele>840</ele>
        <time>2022-09-12T08:22:13Z</time>
      </trkpt>
      <trkpt lat="47.87585" lon="6.81426">
        <ele>840</ele>
        <time>2022-09-12T08:22:14Z</time>
      </trkpt>
      <trkpt lat="47.87586" lon="6.81426">
        <ele>840</ele>
        <time>2022-09-12T08:22:15Z</time>
      </trkpt>
      <trkpt lat="47.87586" lon="6.81425">
        <ele>840</ele>
        <time>2022-09-12T08:22:16Z</time>
      </trkpt>
      <trkpt lat="47.87587" lon="6.81425">
        <ele>839</ele>
        <time>2022-09-12T08:22:17Z</time>
      </trkpt>
      <trkpt lat="47.87588" lon="6.81424">
        <ele>839</ele>
        <time>2022-09-12T08:22:18Z</time>
      </trkpt>
      <trkpt lat="47.87589" lon="6.81425">
        <ele>839</ele>
        <time>2022-09-12T08:22:19Z</time>
      </trkpt>
      <trkpt lat="47.8759" lon="6.81425">
        <ele>839</ele>
        <time>2022-09-12T08:22:20Z</time>
      </trkpt>
      <trkpt lat="47.8759" lon="6.81425">
        <ele>839</ele>
        <time>2022-09-12T08:22:21Z</time>
      </trkpt>
      <trkpt lat="47.87591" lon="6.81425">
        <ele>839</ele>
        <time>2022-09-12T08:22:22Z</time>
      </trkpt>
      <trkpt lat="47.87591" lon="6.81426">
        <ele>839</ele>
        <time>2022-09-12T08:22:23Z</time>
      </trkpt>
      <trkpt lat="47.87592" lon="6.81426">
        <ele>839</ele>
        <time>2022-09-12T08:22:24Z</time>
      </trkpt>
      <trkpt lat="47.87593" lon="6.81427">
        <ele>839</ele>
        <time>2022-09-12T08:22:25Z</time>
      </trkpt>
      <trkpt lat="47.87594" lon="6.81427">
        <ele>839</ele>
        <time>2022-09-12T08:22:26Z</time>
      </trkpt>
      <trkpt lat="47.87595" lon="6.81428">
        <ele>839</ele>
        <time>2022-09-12T08:22:27Z</time>
      </trkpt>
      <trkpt lat="47.87596" lon="6.81428">
        <ele>839</ele>
        <time>2022-09-12T08:22:28Z</time>
      </trkpt>
      <trkpt lat="47.87596" lon="6.81429">
        <ele>839</ele>
        <time>2022-09-12T08:22:29Z</time>
      </trkpt>
      <trkpt lat="47.87597" lon="6.8143">
        <ele>839</ele>
        <time>2022-09-12T08:22:30Z</time>
      </trkpt>
      <trkpt lat="47.87598" lon="6.8143">
        <ele>839</ele>
        <time>2022-09-12T08:22:31Z</time>
      </trkpt>
      <trkpt lat="47.87599" lon="6.81431">
        <ele>838</ele>
        <time>2022-09-12T08:22:32Z</time>
      </trkpt>
      <trkpt lat="47.87599" lon="6.81432">
        <ele>838</ele>
        <time>2022-09-12T08:22:33Z</time>
      </trkpt>
      <trkpt lat="47.876" lon="6.81433">
        <ele>838</ele>
        <time>2022-09-12T08:22:34Z</time>
      </trkpt>
      <trkpt lat="47.87601" lon="6.81435">
        <ele>838</ele>
        <time>2022-09-12T08:22:35Z</time>
      </trkpt>
      <trkpt lat="47.87602" lon="6.81436">
        <ele>838</ele>
        <time>2022-09-12T08:22:36Z</time>
      </trkpt>
      <trkpt lat="47.87602" lon="6.81437">
        <ele>838</ele>
        <time>2022-09-12T08:22:37Z</time>
      </trkpt>
      <trkpt lat="47.87603" lon="6.81439">
        <ele>838</ele>
        <time>2022-09-12T08:22:38Z</time>
      </trkpt>
      <trkpt lat="47.87603" lon="6.8144">
        <ele>838</ele>
        <time>2022-09-12T08:22:39Z</time>
      </trkpt>
      <trkpt lat="47.87604" lon="6.81442">
        <ele>838</ele>
        <time>2022-09-12T08:22:40Z</time>
      </trkpt>
      <trkpt lat="47.87604" lon="6.81444">
        <ele>838</ele>
        <time>2022-09-12T08:22:41Z</time>
      </trkpt>
      <trkpt lat="47.87605" lon="6.81445">
        <ele>838</ele>
        <time>2022-09-12T08:22:42Z</time>
      </trkpt>
      <trkpt lat="47.87605" lon="6.81447">
        <ele>838</ele>
        <time>2022-09-12T08:22:43Z</time>
      </trkpt>
      <trkpt lat="47.87606" lon="6.81449">
        <ele>838</ele>
        <time>2022-09-12T08:22:44Z</time>
      </trkpt>
      <trkpt lat="47.87607" lon="6.8145">
        <ele>838</ele>
        <time>2022-09-12T08:22:45Z</time>
      </trkpt>
      <trkpt lat="47.87608" lon="6.81452">
        <ele>838</ele>
        <time>2022-09-12T08:22:46Z</time>
      </trkpt>
      <trkpt lat="47.87609" lon="6.81453">
        <ele>837</ele>
        <time>2022-09-12T08:22:47Z</time>
      </trkpt>
      <trkpt lat="47.8761" lon="6.81455">
        <ele>837</ele>
        <time>2022-09-12T08:22:48Z</time>
      </trkpt>
      <trkpt lat="47.8761" lon="6.81456">
        <ele>837</ele>
        <time>2022-09-12T08:22:49Z</time>
      </trkpt>
      <trkpt lat="47.87611" lon="6.81458">
        <ele>837</ele>
        <time>2022-09-12T08:22:50Z</time>
      </trkpt>
      <trkpt lat="47.87612" lon="6.8146">
        <ele>837</ele>
        <time>2022-09-12T08:22:51Z</time>
      </trkpt>
      <trkpt lat="47.87613" lon="6.81461">
        <ele>837</ele>
        <time>2022-09-12T08:22:52Z</time>
      </trkpt>
      <trkpt lat="47.87613" lon="6.81463">
        <ele>837</ele>
        <time>2022-09-12T08:22:53Z</time>
      </trkpt>
      <trkpt lat="47.87614" lon="6.81465">
        <ele>838</ele>
        <time>2022-09-12T08:22:54Z</time>
      </trkpt>
      <trkpt lat="47.87615" lon="6.81467">
        <ele>838</ele>
        <time>2022-09-12T08:22:55Z</time>
      </trkpt>
      <trkpt lat="47.87615" lon="6.81469">
        <ele>839</ele>
        <time>2022-09-12T08:22:56Z</time>
      </trkpt>
      <trkpt lat="47.87616" lon="6.8147">
        <ele>838</ele>
        <time>2022-09-12T08:22:57Z</time>
      </trkpt>
      <trkpt lat="47.87616" lon="6.81472">
        <ele>838</ele>
        <time>2022-09-12T08:22:58Z</time>
      </trkpt>
      <trkpt lat="47.87617" lon="6.81474">
        <ele>838</ele>
        <time>2022-09-12T08:22:59Z</time>
      </trkpt>
      <trkpt lat="47.87617" lon="6.81476">
        <ele>838</ele>
        <time>2022-09-12T08:23:00Z</time>
      </trkpt>
      <trkpt lat="47.87618" lon="6.81477">
        <ele>838</ele>
        <time>2022-09-12T08:23:01Z</time>
      </trkpt>
      <trkpt lat="47.87618" lon="6.81479">
        <ele>838</ele>
        <time>2022-09-12T08:23:02Z</time>
      </trkpt>
      <trkpt lat="47.87619" lon="6.81481">
        <ele>838</ele>
        <time>2022-09-12T08:23:03Z</time>
      </trkpt>
      <trkpt lat="47.87619" lon="6.81483">
        <ele>838</ele>
        <time>2022-09-12T08:23:04Z</time>
      </trkpt>
      <trkpt lat="47.87619" lon="6.81485">
        <ele>838</ele>
        <time>2022-09-12T08:23:05Z</time>
      </trkpt>
      <trkpt lat="47.87619" lon="6.81487">
        <ele>838</ele>
        <time>2022-09-12T08:23:06Z</time>
      </trkpt>
      <trkpt lat="47.87618" lon="6.81489">
        <ele>838</ele>
        <time>2022-09-12T08:23:07Z</time>
      </trkpt>
      <trkpt lat="47.87618" lon="6.81491">
        <ele>838</ele>
        <time>2022-09-12T08:23:08Z</time>
      </trkpt>
      <trkpt lat="47.87617" lon="6.81493">
        <ele>838</ele>
        <time>2022-09-12T08:23:09Z</time>
      </trkpt>
      <trkpt lat="47.87617" lon="6.81494">
        <ele>838</ele>
        <time>2022-09-12T08:23:10Z</time>
      </trkpt>
      <trkpt lat="47.87617" lon="6.81496">
        <ele>838</ele>
        <time>2022-09-12T08:23:11Z</time>
      </trkpt>
      <trkpt lat="47.87616" lon="6.81498">
        <ele>838</ele>
        <time>2022-09-12T08:23:12Z</time>
      </trkpt>
      <trkpt lat="47.87616" lon="6.81499">
        <ele>838</ele>
        <time>2022-09-12T08:23:13Z</time>
      </trkpt>
      <trkpt lat="47.87616" lon="6.81501">
        <ele>838</ele>
        <time>2022-09-12T08:23:14Z</time>
      </trkpt>
      <trkpt lat="47.87616" lon="6.81502">
        <ele>838</ele>
        <time>2022-09-12T08:23:15Z</time>
      </trkpt>
      <trkpt lat="47.87615" lon="6.81504">
        <ele>838</ele>
        <time>2022-09-12T08:23:16Z</time>
      </trkpt>
      <trkpt lat="47.87615" lon="6.81505">
        <ele>838</ele>
        <time>2022-09-12T08:23:17Z</time>
      </trkpt>
      <trkpt lat="47.87615" lon="6.81507">
        <ele>838</ele>
        <time>2022-09-12T08:23:18Z</time>
      </trkpt>
      <trkpt lat="47.87614" lon="6.81508">
        <ele>838</ele>
        <time>2022-09-12T08:23:19Z</time>
      </trkpt>
      <trkpt lat="47.87614" lon="6.81509">
        <ele>838</ele>
        <time>2022-09-12T08:23:20Z</time>
      </trkpt>
      <trkpt lat="47.87613" lon="6.81511">
        <ele>838</ele>
        <time>2022-09-12T08:23:21Z</time>
      </trkpt>
      <trkpt lat="47.87613" lon="6.81512">
        <ele>838</ele>
        <time>2022-09-12T08:23:22Z</time>
      </trkpt>
      <trkpt lat="47.87612" lon="6.81513">
        <ele>838</ele>
        <time>2022-09-12T08:23:23Z</time>
      </trkpt>
      <trkpt lat="47.87611" lon="6.81515">
        <ele>838</ele>
        <time>2022-09-12T08:23:24Z</time>
      </trkpt>
      <trkpt lat="47.87611" lon="6.81516">
        <ele>838</ele>
        <time>2022-09-12T08:23:25Z</time>
      </trkpt>
      <trkpt lat="47.8761" lon="6.81517">
        <ele>838</ele>
        <time>2022-09-12T08:23:26Z</time>
      </trkpt>
      <trkpt lat="47.8761" lon="6.81519">
        <ele>838</ele>
        <time>2022-09-12T08:23:27Z</time>
      </trkpt>
      <trkpt lat="47.87609" lon="6.8152">
        <ele>838</ele>
        <time>2022-09-12T08:23:28Z</time>
      </trkpt>
      <trkpt lat="47.87609" lon="6.81521">
        <ele>838</ele>
        <time>2022-09-12T08:23:29Z</time>
      </trkpt>
      <trkpt lat="47.87608" lon="6.81523">
        <ele>838</ele>
        <time>2022-09-12T08:23:30Z</time>
      </trkpt>
      <trkpt lat="47.87608" lon="6.81524">
        <ele>838</ele>
        <time>2022-09-12T08:23:31Z</time>
      </trkpt>
      <trkpt lat="47.87607" lon="6.81526">
        <ele>838</ele>
        <time>2022-09-12T08:23:32Z</time>
      </trkpt>
      <trkpt lat="47.87607" lon="6.81528">
        <ele>838</ele>
        <time>2022-09-12T08:23:33Z</time>
      </trkpt>
      <trkpt lat="47.87607" lon="6.81529">
        <ele>838</ele>
        <time>2022-09-12T08:23:34Z</time>
      </trkpt>
      <trkpt lat="47.87606" lon="6.81531">
        <ele>838</ele>
        <time>2022-09-12T08:23:35Z</time>
      </trkpt>
      <trkpt lat="47.87606" lon="6.81532">
        <ele>838</ele>
        <time>2022-09-12T08:23:36Z</time>
      </trkpt>
      <trkpt lat="47.87605" lon="6.81534">
        <ele>837</ele>
        <time>2022-09-12T08:23:37Z</time>
      </trkpt>
      <trkpt lat="47.87605" lon="6.81535">
        <ele>837</ele>
        <time>2022-09-12T08:23:38Z</time>
      </trkpt>
      <trkpt lat="47.87604" lon="6.81536">
        <ele>837</ele>
        <time>2022-09-12T08:23:39Z</time>
      </trkpt>
      <trkpt lat="47.87603" lon="6.81538">
        <ele>837</ele>
        <time>2022-09-12T08:23:40Z</time>
      </trkpt>
      <trkpt lat="47.87603" lon="6.81539">
        <ele>837</ele>
        <time>2022-09-12T08:23:41Z</time>
      </trkpt>
      <trkpt lat="47.87602" lon="6.8154">
        <ele>837</ele>
        <time>2022-09-12T08:23:42Z</time>
      </trkpt>
      <trkpt lat="47.87602" lon="6.81541">
        <ele>837</ele>
        <time>2022-09-12T08:23:43Z</time>
      </trkpt>
      <trkpt lat="47.87601" lon="6.81542">
        <ele>837</ele>
        <time>2022-09-12T08:23:44Z</time>
      </trkpt>
      <trkpt lat="47.876" lon="6.81543">
        <ele>837</ele>
        <time>2022-09-12T08:23:45Z</time>
      </trkpt>
      <trkpt lat="47.87599" lon="6.81544">
        <ele>837</ele>
        <time>2022-09-12T08:23:46Z</time>
      </trkpt>
      <trkpt lat="47.87599" lon="6.81545">
        <ele>837</ele>
        <time>2022-09-12T08:23:47Z</time>
      </trkpt>
      <trkpt lat="47.87598" lon="6.81546">
        <ele>837</ele>
        <time>2022-09-12T08:23:48Z</time>
      </trkpt>
      <trkpt lat="47.87596" lon="6.81547">
        <ele>837</ele>
        <time>2022-09-12T08:23:49Z</time>
      </trkpt>
      <trkpt lat="47.87595" lon="6.81548">
        <ele>837</ele>
        <time>2022-09-12T08:23:50Z</time>
      </trkpt>
      <trkpt lat="47.87594" lon="6.81549">
        <ele>837</ele>
        <time>2022-09-12T08:23:51Z</time>
      </trkpt>
      <trkpt lat="47.87592" lon="6.8155">
        <ele>837</ele>
        <time>2022-09-12T08:23:52Z</time>
      </trkpt>
      <trkpt lat="47.87591" lon="6.8155">
        <ele>837</ele>
        <time>2022-09-12T08:24:21Z</time>
      </trkpt>
      <trkpt lat="47.87591" lon="6.81551">
        <ele>837</ele>
        <time>2022-09-12T08:24:22Z</time>
      </trkpt>
      <trkpt lat="47.8759" lon="6.81551">
        <ele>837</ele>
        <time>2022-09-12T08:24:23Z</time>
      </trkpt>
      <trkpt lat="47.87589" lon="6.81551">
        <ele>837</ele>
        <time>2022-09-12T08:24:24Z</time>
      </trkpt>
      <trkpt lat="47.87589" lon="6.81551">
        <ele>837</ele>
        <time>2022-09-12T08:24:25Z</time>
      </trkpt>
      <trkpt lat="47.87588" lon="6.81551">
        <ele>838</ele>
        <time>2022-09-12T08:24:26Z</time>
      </trkpt>
      <trkpt lat="47.87587" lon="6.81551">
        <ele>838</ele>
        <time>2022-09-12T08:24:27Z</time>
      </trkpt>
      <trkpt lat="47.87586" lon="6.81551">
        <ele>838</ele>
        <time>2022-09-12T08:24:28Z</time>
      </trkpt>
      <trkpt lat="47.87585" lon="6.81551">
        <ele>838</ele>
        <time>2022-09-12T08:24:29Z</time>
      </trkpt>
      <trkpt lat="47.87584" lon="6.81551">
        <ele>838</ele>
        <time>2022-09-12T08:24:30Z</time>
      </trkpt>
      <trkpt lat="47.87582" lon="6.81551">
        <ele>838</ele>
        <time>2022-09-12T08:24:31Z</time>
      </trkpt>
      <trkpt lat="47.87581" lon="6.81551">
        <ele>838</ele>
        <time>2022-09-12T08:24:32Z</time>
      </trkpt>
      <trkpt lat="47.8758" lon="6.81551">
        <ele>838</ele>
        <time>2022-09-12T08:24:33Z</time>
      </trkpt>
      <trkpt lat="47.87579" lon="6.81551">
        <ele>838</ele>
        <time>2022-09-12T08:24:34Z</time>
      </trkpt>
      <trkpt lat="47.87578" lon="6.81551">
        <ele>838</ele>
        <time>2022-09-12T08:24:35Z</time>
      </trkpt>
      <trkpt lat="47.87577" lon="6.81551">
        <ele>838</ele>
        <time>2022-09-12T08:24:36Z</time>
      </trkpt>
      <trkpt lat="47.87575" lon="6.81551">
        <ele>838</ele>
        <time>2022-09-12T08:24:37Z</time>
      </trkpt>
      <trkpt lat="47.87574" lon="6.81551">
        <ele>838</ele>
        <time>2022-09-12T08:24:38Z</time>
      </trkpt>
      <trkpt lat="47.87573" lon="6.81551">
        <ele>838</ele>
        <time>2022-09-12T08:24:39Z</time>
      </trkpt>
      <trkpt lat="47.87572" lon="6.81551">
        <ele>838</ele>
        <time>2022-09-12T08:24:40Z</time>
      </trkpt>
      <trkpt lat="47.87571" lon="6.8155">
        <ele>839</ele>
        <time>2022-09-12T08:24:41Z</time>
      </trkpt>
      <trkpt lat="47.8757" lon="6.8155">
        <ele>839</ele>
        <time>2022-09-12T08:24:42Z</time>
      </trkpt>
      <trkpt lat="47.87569" lon="6.8155">
        <ele>839</ele>
        <time>2022-09-12T08:24:43Z</time>
      </trkpt>
      <trkpt lat="47.87567" lon="6.8155">
        <ele>839</ele>
        <time>2022-09-12T08:24:56Z</time>
      </trkpt>
      <trkpt lat="47.87567" lon="6.81551">
        <ele>839</ele>
        <time>2022-09-12T08:24:57Z</time>
      </trkpt>
      <trkpt lat="47.87566" lon="6.81551">
        <ele>839</ele>
        <time>2022-09-12T08:24:58Z</time>
      </trkpt>
      <trkpt lat="47.87565" lon="6.81551">
        <ele>839</ele>
        <time>2022-09-12T08:24:59Z</time>
      </trkpt>
      <trkpt lat="47.87565" lon="6.81551">
        <ele>839</ele>
        <time>2022-09-12T08:25:00Z</time>
      </trkpt>
      <trkpt lat="47.87564" lon="6.81551">
        <ele>839</ele>
        <time>2022-09-12T08:25:01Z</time>
      </trkpt>
      <trkpt lat="47.87563" lon="6.81551">
        <ele>839</ele>
        <time>2022-09-12T08:25:02Z</time>
      </trkpt>
      <trkpt lat="47.87562" lon="6.81551">
        <ele>839</ele>
        <time>2022-09-12T08:25:03Z</time>
      </trkpt>
      <trkpt lat="47.87561" lon="6.81551">
        <ele>839</ele>
        <time>2022-09-12T08:25:04Z</time>
      </trkpt>
      <trkpt lat="47.8756" lon="6.81551">
        <ele>839</ele>
        <time>2022-09-12T08:25:05Z</time>
      </trkpt>
      <trkpt lat="47.8756" lon="6.81551">
        <ele>840</ele>
        <time>2022-09-12T08:25:06Z</time>
      </trkpt>
      <trkpt lat="47.87559" lon="6.81552">
        <ele>839</ele>
        <time>2022-09-12T08:25:07Z</time>
      </trkpt>
      <trkpt lat="47.87558" lon="6.81552">
        <ele>839</ele>
        <time>2022-09-12T08:25:08Z</time>
      </trkpt>
      <trkpt lat="47.87558" lon="6.81553">
        <ele>839</ele>
        <time>2022-09-12T08:25:09Z</time>
      </trkpt>
      <trkpt lat="47.87557" lon="6.81553">
        <ele>839</ele>
        <time>2022-09-12T08:25:10Z</time>
      </trkpt>
      <trkpt lat="47.87556" lon="6.81554">
        <ele>839</ele>
        <time>2022-09-12T08:25:11Z</time>
      </trkpt>
      <trkpt lat="47.87556" lon="6.81555">
        <ele>839</ele>
        <time>2022-09-12T08:25:12Z</time>
      </trkpt>
      <trkpt lat="47.87555" lon="6.81556">
        <ele>839</ele>
        <time>2022-09-12T08:25:13Z</time>
      </trkpt>
      <trkpt lat="47.87555" lon="6.81557">
        <ele>839</ele>
        <time>2022-09-12T08:25:14Z</time>
      </trkpt>
      <trkpt lat="47.87555" lon="6.81559">
        <ele>839</ele>
        <time>2022-09-12T08:25:15Z</time>
      </trkpt>
      <trkpt lat="47.87554" lon="6.8156">
        <ele>840</ele>
        <time>2022-09-12T08:25:16Z</time>
      </trkpt>
      <trkpt lat="47.87554" lon="6.81561">
        <ele>840</ele>
        <time>2022-09-12T08:25:17Z</time>
      </trkpt>
      <trkpt lat="47.87554" lon="6.81563">
        <ele>840</ele>
        <time>2022-09-12T08:25:18Z</time>
      </trkpt>
      <trkpt lat="47.87554" lon="6.81564">
        <ele>840</ele>
        <time>2022-09-12T08:25:19Z</time>
      </trkpt>
      <trkpt lat="47.87553" lon="6.81565">
        <ele>840</ele>
        <time>2022-09-12T08:25:20Z</time>
      </trkpt>
      <trkpt lat="47.87553" lon="6.81567">
        <ele>840</ele>
        <time>2022-09-12T08:25:21Z</time>
      </trkpt>
      <trkpt lat="47.87553" lon="6.81568">
        <ele>840</ele>
        <time>2022-09-12T08:25:22Z</time>
      </trkpt>
      <trkpt lat="47.87553" lon="6.8157">
        <ele>840</ele>
        <time>2022-09-12T08:25:23Z</time>
      </trkpt>
      <trkpt lat="47.87552" lon="6.81571">
        <ele>840</ele>
        <time>2022-09-12T08:25:24Z</time>
      </trkpt>
      <trkpt lat="47.87552" lon="6.81572">
        <ele>840</ele>
        <time>2022-09-12T08:25:25Z</time>
      </trkpt>
      <trkpt lat="47.87552" lon="6.81574">
        <ele>840</ele>
        <time>2022-09-12T08:25:26Z</time>
      </trkpt>
      <trkpt lat="47.87552" lon="6.81575">
        <ele>840</ele>
        <time>2022-09-12T08:25:27Z</time>
      </trkpt>
      <trkpt lat="47.87552" lon="6.81576">
        <ele>840</ele>
        <time>2022-09-12T08:25:28Z</time>
      </trkpt>
      <trkpt lat="47.87551" lon="6.81577">
        <ele>840</ele>
        <time>2022-09-12T08:25:29Z</time>
      </trkpt>
      <trkpt lat="47.87551" lon="6.81578">
        <ele>840</ele>
        <time>2022-09-12T08:25:30Z</time>
      </trkpt>
      <trkpt lat="47.87551" lon="6.81579">
        <ele>841</ele>
        <time>2022-09-12T08:25:31Z</time>
      </trkpt>
      <trkpt lat="47.87551" lon="6.8158">
        <ele>841</ele>
        <time>2022-09-12T08:25:32Z</time>
      </trkpt>
      <trkpt lat="47.87551" lon="6.81582">
        <ele>841</ele>
        <time>2022-09-12T08:25:33Z</time>
      </trkpt>
      <trkpt lat="47.87551" lon="6.81583">
        <ele>841</ele>
        <time>2022-09-12T08:25:34Z</time>
      </trkpt>
      <trkpt lat="47.8755" lon="6.81584">
        <ele>841</ele>
        <time>2022-09-12T08:25:35Z</time>
      </trkpt>
      <trkpt lat="47.8755" lon="6.81585">
        <ele>842</ele>
        <time>2022-09-12T08:25:36Z</time>
      </trkpt>
      <trkpt lat="47.87549" lon="6.81586">
        <ele>842</ele>
        <time>2022-09-12T08:25:37Z</time>
      </trkpt>
      <trkpt lat="47.87549" lon="6.81587">
        <ele>842</ele>
        <time>2022-09-12T08:25:38Z</time>
      </trkpt>
      <trkpt lat="47.87548" lon="6.81588">
        <ele>842</ele>
        <time>2022-09-12T08:25:39Z</time>
      </trkpt>
      <trkpt lat="47.87548" lon="6.8159">
        <ele>842</ele>
        <time>2022-09-12T08:25:40Z</time>
      </trkpt>
      <trkpt lat="47.87547" lon="6.81591">
        <ele>842</ele>
        <time>2022-09-12T08:25:41Z</time>
      </trkpt>
      <trkpt lat="47.87547" lon="6.81592">
        <ele>842</ele>
        <time>2022-09-12T08:25:42Z</time>
      </trkpt>
      <trkpt lat="47.87546" lon="6.81594">
        <ele>842</ele>
        <time>2022-09-12T08:25:43Z</time>
      </trkpt>
      <trkpt lat="47.87545" lon="6.81595">
        <ele>842</ele>
        <time>2022-09-12T08:25:44Z</time>
      </trkpt>
      <trkpt lat="47.87545" lon="6.81596">
        <ele>842</ele>
        <time>2022-09-12T08:25:45Z</time>
      </trkpt>
      <trkpt lat="47.87544" lon="6.81598">
        <ele>843</ele>
        <time>2022-09-12T08:25:46Z</time>
      </trkpt>
      <trkpt lat="47.87543" lon="6.81599">
        <ele>843</ele>
        <time>2022-09-12T08:25:47Z</time>
      </trkpt>
      <trkpt lat="47.87543" lon="6.81601">
        <ele>843</ele>
        <time>2022-09-12T08:25:48Z</time>
      </trkpt>
      <trkpt lat="47.87543" lon="6.81602">
        <ele>843</ele>
        <time>2022-09-12T08:25:49Z</time>
      </trkpt>
      <trkpt lat="47.87542" lon="6.81604">
        <ele>843</ele>
        <time>2022-09-12T08:25:50Z</time>
      </trkpt>
      <trkpt lat="47.87542" lon="6.81605">
        <ele>843</ele>
        <time>2022-09-12T08:25:51Z</time>
      </trkpt>
      <trkpt lat="47.87542" lon="6.81607">
        <ele>843</ele>
        <time>2022-09-12T08:25:52Z</time>
      </trkpt>
      <trkpt lat="47.87542" lon="6.81608">
        <ele>843</ele>
        <time>2022-09-12T08:25:53Z</time>
      </trkpt>
      <trkpt lat="47.87542" lon="6.81609">
        <ele>843</ele>
        <time>2022-09-12T08:25:54Z</time>
      </trkpt>
      <trkpt lat="47.87541" lon="6.81611">
        <ele>843</ele>
        <time>2022-09-12T08:25:55Z</time>
      </trkpt>
      <trkpt lat="47.87541" lon="6.81612">
        <ele>843</ele>
        <time>2022-09-12T08:25:56Z</time>
      </trkpt>
      <trkpt lat="47.87541" lon="6.81613">
        <ele>843</ele>
        <time>2022-09-12T08:25:57Z</time>
      </trkpt>
      <trkpt lat="47.8754" lon="6.81615">
        <ele>843</ele>
        <time>2022-09-12T08:25:58Z</time>
      </trkpt>
      <trkpt lat="47.8754" lon="6.81617">
        <ele>843</ele>
        <time>2022-09-12T08:25:59Z</time>
      </trkpt>
      <trkpt lat="47.8754" lon="6.81618">
        <ele>843</ele>
        <time>2022-09-12T08:26:00Z</time>
      </trkpt>
      <trkpt lat="47.8754" lon="6.8162">
        <ele>844</ele>
        <time>2022-09-12T08:26:01Z</time>
      </trkpt>
      <trkpt lat="47.87539" lon="6.81621">
        <ele>844</ele>
        <time>2022-09-12T08:26:02Z</time>
      </trkpt>
      <trkpt lat="47.87539" lon="6.81622">
        <ele>844</ele>
        <time>2022-09-12T08:26:03Z</time>
      </trkpt>
      <trkpt lat="47.87538" lon="6.81624">
        <ele>844</ele>
        <time>2022-09-12T08:26:04Z</time>
      </trkpt>
      <trkpt lat="47.87538" lon="6.81626">
        <ele>844</ele>
        <time>2022-09-12T08:26:05Z</time>
      </trkpt>
      <trkpt lat="47.87538" lon="6.81627">
        <ele>845</ele>
        <time>2022-09-12T08:26:06Z</time>
      </trkpt>
      <trkpt lat="47.87538" lon="6.81629">
        <ele>845</ele>
        <time>2022-09-12T08:26:07Z</time>
      </trkpt>
      <trkpt lat="47.87538" lon="6.8163">
        <ele>845</ele>
        <time>2022-09-12T08:26:08Z</time>
      </trkpt>
      <trkpt lat="47.87537" lon="6.81631">
        <ele>845</ele>
        <time>2022-09-12T08:26:09Z</time>
      </trkpt>
      <trkpt lat="47.87537" lon="6.81632">
        <ele>845</ele>
        <time>2022-09-12T08:26:10Z</time>
      </trkpt>
      <trkpt lat="47.87537" lon="6.81633">
        <ele>845</ele>
        <time>2022-09-12T08:26:11Z</time>
      </trkpt>
      <trkpt lat="47.87536" lon="6.81634">
        <ele>845</ele>
        <time>2022-09-12T08:26:12Z</time>
      </trkpt>
      <trkpt lat="47.87535" lon="6.81635">
        <ele>845</ele>
        <time>2022-09-12T08:26:13Z</time>
      </trkpt>
      <trkpt lat="47.87535" lon="6.81636">
        <ele>845</ele>
        <time>2022-09-12T08:26:14Z</time>
      </trkpt>
      <trkpt lat="47.87535" lon="6.81636">
        <ele>845</ele>
        <time>2022-09-12T08:26:15Z</time>
      </trkpt>
      <trkpt lat="47.87534" lon="6.81637">
        <ele>846</ele>
        <time>2022-09-12T08:26:16Z</time>
      </trkpt>
      <trkpt lat="47.87534" lon="6.81638">
        <ele>846</ele>
        <time>2022-09-12T08:26:17Z</time>
      </trkpt>
      <trkpt lat="47.87534" lon="6.81639">
        <ele>846</ele>
        <time>2022-09-12T08:26:18Z</time>
      </trkpt>
      <trkpt lat="47.87534" lon="6.81639">
        <ele>846</ele>
        <time>2022-09-12T08:26:19Z</time>
      </trkpt>
      <trkpt lat="47.87533" lon="6.8164">
        <ele>846</ele>
        <time>2022-09-12T08:26:20Z</time>
      </trkpt>
      <trkpt lat="47.87533" lon="6.81641">
        <ele>847</ele>
        <time>2022-09-12T08:26:21Z</time>
      </trkpt>
      <trkpt lat="47.87533" lon="6.81642">
        <ele>848</ele>
        <time>2022-09-12T08:26:31Z</time>
      </trkpt>
      <trkpt lat="47.87532" lon="6.81643">
        <ele>848</ele>
        <time>2022-09-12T08:26:32Z</time>
      </trkpt>
      <trkpt lat="47.87532" lon="6.81643">
        <ele>848</ele>
        <time>2022-09-12T08:26:33Z</time>
      </trkpt>
      <trkpt lat="47.87532" lon="6.81644">
        <ele>848</ele>
        <time>2022-09-12T08:26:34Z</time>
      </trkpt>
      <trkpt lat="47.87532" lon="6.81645">
        <ele>848</ele>
        <time>2022-09-12T08:26:35Z</time>
      </trkpt>
      <trkpt lat="47.87531" lon="6.81646">
        <ele>848</ele>
        <time>2022-09-12T08:26:36Z</time>
      </trkpt>
      <trkpt lat="47.87531" lon="6.81648">
        <ele>848</ele>
        <time>2022-09-12T08:26:37Z</time>
      </trkpt>
      <trkpt lat="47.87531" lon="6.81649">
        <ele>848</ele>
        <time>2022-09-12T08:26:38Z</time>
      </trkpt>
      <trkpt lat="47.87531" lon="6.8165">
        <ele>848</ele>
        <time>2022-09-12T08:26:39Z</time>
      </trkpt>
      <trkpt lat="47.87531" lon="6.81651">
        <ele>848</ele>
        <time>2022-09-12T08:26:40Z</time>
      </trkpt>
      <trkpt lat="47.8753" lon="6.81652">
        <ele>848</ele>
        <time>2022-09-12T08:26:41Z</time>
      </trkpt>
      <trkpt lat="47.8753" lon="6.81653">
        <ele>848</ele>
        <time>2022-09-12T08:26:42Z</time>
      </trkpt>
      <trkpt lat="47.8753" lon="6.81654">
        <ele>848</ele>
        <time>2022-09-12T08:26:43Z</time>
      </trkpt>
      <trkpt lat="47.87529" lon="6.81655">
        <ele>848</ele>
        <time>2022-09-12T08:26:44Z</time>
      </trkpt>
      <trkpt lat="47.87529" lon="6.81657">
        <ele>848</ele>
        <time>2022-09-12T08:26:45Z</time>
      </trkpt>
      <trkpt lat="47.87528" lon="6.81658">
        <ele>849</ele>
        <time>2022-09-12T08:26:46Z</time>
      </trkpt>
      <trkpt lat="47.87527" lon="6.81659">
        <ele>849</ele>
        <time>2022-09-12T08:26:47Z</time>
      </trkpt>
      <trkpt lat="47.87527" lon="6.8166">
        <ele>849</ele>
        <time>2022-09-12T08:26:48Z</time>
      </trkpt>
      <trkpt lat="47.87526" lon="6.81662">
        <ele>849</ele>
        <time>2022-09-12T08:26:49Z</time>
      </trkpt>
      <trkpt lat="47.87526" lon="6.81663">
        <ele>849</ele>
        <time>2022-09-12T08:26:50Z</time>
      </trkpt>
      <trkpt lat="47.87526" lon="6.81664">
        <ele>850</ele>
        <time>2022-09-12T08:26:51Z</time>
      </trkpt>
      <trkpt lat="47.87526" lon="6.81665">
        <ele>850</ele>
        <time>2022-09-12T08:26:52Z</time>
      </trkpt>
      <trkpt lat="47.87526" lon="6.81666">
        <ele>850</ele>
        <time>2022-09-12T08:26:53Z</time>
      </trkpt>
      <trkpt lat="47.87525" lon="6.81668">
        <ele>850</ele>
        <time>2022-09-12T08:26:54Z</time>
      </trkpt>
      <trkpt lat="47.87525" lon="6.81669">
        <ele>850</ele>
        <time>2022-09-12T08:26:55Z</time>
      </trkpt>
      <trkpt lat="47.87525" lon="6.81671">
        <ele>850</ele>
        <time>2022-09-12T08:26:56Z</time>
      </trkpt>
      <trkpt lat="47.87525" lon="6.81672">
        <ele>850</ele>
        <time>2022-09-12T08:26:57Z</time>
      </trkpt>
      <trkpt lat="47.87524" lon="6.81674">
        <ele>850</ele>
        <time>2022-09-12T08:26:58Z</time>
      </trkpt>
      <trkpt lat="47.87524" lon="6.81676">
        <ele>850</ele>
        <time>2022-09-12T08:26:59Z</time>
      </trkpt>
      <trkpt lat="47.87524" lon="6.81677">
        <ele>850</ele>
        <time>2022-09-12T08:27:00Z</time>
      </trkpt>
      <trkpt lat="47.87523" lon="6.81679">
        <ele>850</ele>
        <time>2022-09-12T08:27:01Z</time>
      </trkpt>
      <trkpt lat="47.87523" lon="6.8168">
        <ele>850</ele>
        <time>2022-09-12T08:27:02Z</time>
      </trkpt>
      <trkpt lat="47.87522" lon="6.81682">
        <ele>850</ele>
        <time>2022-09-12T08:27:03Z</time>
      </trkpt>
      <trkpt lat="47.87521" lon="6.81683">
        <ele>850</ele>
        <time>2022-09-12T08:27:04Z</time>
      </trkpt>
      <trkpt lat="47.87521" lon="6.81685">
        <ele>850</ele>
        <time>2022-09-12T08:27:05Z</time>
      </trkpt>
      <trkpt lat="47.8752" lon="6.81686">
        <ele>850</ele>
        <time>2022-09-12T08:27:06Z</time>
      </trkpt>
      <trkpt lat="47.8752" lon="6.81687">
        <ele>850</ele>
        <time>2022-09-12T08:27:07Z</time>
      </trkpt>
      <trkpt lat="47.87519" lon="6.81689">
        <ele>850</ele>
        <time>2022-09-12T08:27:08Z</time>
      </trkpt>
      <trkpt lat="47.87519" lon="6.8169">
        <ele>850</ele>
        <time>2022-09-12T08:27:09Z</time>
      </trkpt>
      <trkpt lat="47.87518" lon="6.81691">
        <ele>850</ele>
        <time>2022-09-12T08:27:10Z</time>
      </trkpt>
      <trkpt lat="47.87518" lon="6.81693">
        <ele>850</ele>
        <time>2022-09-12T08:27:11Z</time>
      </trkpt>
      <trkpt lat="47.87518" lon="6.81694">
        <ele>850</ele>
        <time>2022-09-12T08:27:12Z</time>
      </trkpt>
      <trkpt lat="47.87517" lon="6.81695">
        <ele>850</ele>
        <time>2022-09-12T08:27:13Z</time>
      </trkpt>
      <trkpt lat="47.87517" lon="6.81697">
        <ele>850</ele>
        <time>2022-09-12T08:27:14Z</time>
      </trkpt>
      <trkpt lat="47.87516" lon="6.81698">
        <ele>850</ele>
        <time>2022-09-12T08:27:15Z</time>
      </trkpt>
      <trkpt lat="47.87516" lon="6.81699">
        <ele>850</ele>
        <time>2022-09-12T08:27:16Z</time>
      </trkpt>
      <trkpt lat="47.87515" lon="6.81701">
        <ele>850</ele>
        <time>2022-09-12T08:27:17Z</time>
      </trkpt>
      <trkpt lat="47.87515" lon="6.81702">
        <ele>850</ele>
        <time>2022-09-12T08:27:18Z</time>
      </trkpt>
      <trkpt lat="47.87515" lon="6.81704">
        <ele>850</ele>
        <time>2022-09-12T08:27:19Z</time>
      </trkpt>
      <trkpt lat="47.87514" lon="6.81705">
        <ele>850</ele>
        <time>2022-09-12T08:27:20Z</time>
      </trkpt>
      <trkpt lat="47.87514" lon="6.81706">
        <ele>850</ele>
        <time>2022-09-12T08:27:21Z</time>
      </trkpt>
      <trkpt lat="47.87513" lon="6.81708">
        <ele>850</ele>
        <time>2022-09-12T08:27:22Z</time>
      </trkpt>
      <trkpt lat="47.87513" lon="6.81709">
        <ele>850</ele>
        <time>2022-09-12T08:27:23Z</time>
      </trkpt>
      <trkpt lat="47.87513" lon="6.8171">
        <ele>850</ele>
        <time>2022-09-12T08:27:24Z</time>
      </trkpt>
      <trkpt lat="47.87512" lon="6.81712">
        <ele>850</ele>
        <time>2022-09-12T08:27:25Z</time>
      </trkpt>
      <trkpt lat="47.87512" lon="6.81713">
        <ele>850</ele>
        <time>2022-09-12T08:27:26Z</time>
      </trkpt>
      <trkpt lat="47.87512" lon="6.81714">
        <ele>850</ele>
        <time>2022-09-12T08:27:27Z</time>
      </trkpt>
      <trkpt lat="47.87512" lon="6.81715">
        <ele>850</ele>
        <time>2022-09-12T08:27:28Z</time>
      </trkpt>
      <trkpt lat="47.87512" lon="6.81716">
        <ele>850</ele>
        <time>2022-09-12T08:27:29Z</time>
      </trkpt>
      <trkpt lat="47.87512" lon="6.81717">
        <ele>850</ele>
        <time>2022-09-12T08:27:30Z</time>
      </trkpt>
      <trkpt lat="47.87512" lon="6.81719">
        <ele>850</ele>
        <time>2022-09-12T08:27:31Z</time>
      </trkpt>
      <trkpt lat="47.87511" lon="6.8172">
        <ele>850</ele>
        <time>2022-09-12T08:27:32Z</time>
      </trkpt>
      <trkpt lat="47.87511" lon="6.81721">
        <ele>850</ele>
        <time>2022-09-12T08:27:33Z</time>
      </trkpt>
      <trkpt lat="47.87511" lon="6.81722">
        <ele>850</ele>
        <time>2022-09-12T08:27:34Z</time>
      </trkpt>
      <trkpt lat="47.87511" lon="6.81723">
        <ele>850</ele>
        <time>2022-09-12T08:27:35Z</time>
      </trkpt>
      <trkpt lat="47.8751" lon="6.81724">
        <ele>850</ele>
        <time>2022-09-12T08:27:36Z</time>
      </trkpt>
      <trkpt lat="47.8751" lon="6.81726">
        <ele>850</ele>
        <time>2022-09-12T08:27:37Z</time>
      </trkpt>
      <trkpt lat="47.8751" lon="6.81727">
        <ele>850</ele>
        <time>2022-09-12T08:27:38Z</time>
      </trkpt>
      <trkpt lat="47.8751" lon="6.81728">
        <ele>850</ele>
        <time>2022-09-12T08:27:39Z</time>
      </trkpt>
      <trkpt lat="47.87509" lon="6.81729">
        <ele>850</ele>
        <time>2022-09-12T08:27:40Z</time>
      </trkpt>
      <trkpt lat="47.87509" lon="6.81731">
        <ele>850</ele>
        <time>2022-09-12T08:27:41Z</time>
      </trkpt>
      <trkpt lat="47.87509" lon="6.81732">
        <ele>850</ele>
        <time>2022-09-12T08:27:42Z</time>
      </trkpt>
      <trkpt lat="47.87508" lon="6.81734">
        <ele>850</ele>
        <time>2022-09-12T08:27:43Z</time>
      </trkpt>
      <trkpt lat="47.87507" lon="6.81735">
        <ele>850</ele>
        <time>2022-09-12T08:27:44Z</time>
      </trkpt>
      <trkpt lat="47.87507" lon="6.81737">
        <ele>850</ele>
        <time>2022-09-12T08:27:45Z</time>
      </trkpt>
      <trkpt lat="47.87506" lon="6.81738">
        <ele>850</ele>
        <time>2022-09-12T08:27:46Z</time>
      </trkpt>
      <trkpt lat="47.87505" lon="6.81739">
        <ele>850</ele>
        <time>2022-09-12T08:27:47Z</time>
      </trkpt>
      <trkpt lat="47.87505" lon="6.8174">
        <ele>850</ele>
        <time>2022-09-12T08:27:48Z</time>
      </trkpt>
      <trkpt lat="47.87505" lon="6.81741">
        <ele>850</ele>
        <time>2022-09-12T08:27:49Z</time>
      </trkpt>
      <trkpt lat="47.87505" lon="6.81743">
        <ele>850</ele>
        <time>2022-09-12T08:27:50Z</time>
      </trkpt>
      <trkpt lat="47.87505" lon="6.81744">
        <ele>850</ele>
        <time>2022-09-12T08:27:51Z</time>
      </trkpt>
      <trkpt lat="47.87505" lon="6.81746">
        <ele>850</ele>
        <time>2022-09-12T08:27:52Z</time>
      </trkpt>
      <trkpt lat="47.87505" lon="6.81747">
        <ele>850</ele>
        <time>2022-09-12T08:27:53Z</time>
      </trkpt>
      <trkpt lat="47.87504" lon="6.81749">
        <ele>850</ele>
        <time>2022-09-12T08:27:54Z</time>
      </trkpt>
      <trkpt lat="47.87504" lon="6.8175">
        <ele>850</ele>
        <time>2022-09-12T08:27:55Z</time>
      </trkpt>
      <trkpt lat="47.87504" lon="6.81752">
        <ele>850</ele>
        <time>2022-09-12T08:27:56Z</time>
      </trkpt>
      <trkpt lat="47.87503" lon="6.81754">
        <ele>850</ele>
        <time>2022-09-12T08:27:57Z</time>
      </trkpt>
      <trkpt lat="47.87503" lon="6.81755">
        <ele>850</ele>
        <time>2022-09-12T08:27:58Z</time>
      </trkpt>
      <trkpt lat="47.87502" lon="6.81757">
        <ele>850</ele>
        <time>2022-09-12T08:27:59Z</time>
      </trkpt>
      <trkpt lat="47.87501" lon="6.81758">
        <ele>850</ele>
        <time>2022-09-12T08:28:00Z</time>
      </trkpt>
      <trkpt lat="47.875" lon="6.8176">
        <ele>850</ele>
        <time>2022-09-12T08:28:01Z</time>
      </trkpt>
      <trkpt lat="47.87499" lon="6.81761">
        <ele>850</ele>
        <time>2022-09-12T08:28:02Z</time>
      </trkpt>
      <trkpt lat="47.87498" lon="6.81763">
        <ele>850</ele>
        <time>2022-09-12T08:28:03Z</time>
      </trkpt>
      <trkpt lat="47.87497" lon="6.81764">
        <ele>850</ele>
        <time>2022-09-12T08:28:04Z</time>
      </trkpt>
      <trkpt lat="47.87497" lon="6.81765">
        <ele>850</ele>
        <time>2022-09-12T08:28:05Z</time>
      </trkpt>
      <trkpt lat="47.87496" lon="6.81767">
        <ele>850</ele>
        <time>2022-09-12T08:28:06Z</time>
      </trkpt>
      <trkpt lat="47.87496" lon="6.81768">
        <ele>850</ele>
        <time>2022-09-12T08:28:07Z</time>
      </trkpt>
      <trkpt lat="47.87496" lon="6.8177">
        <ele>850</ele>
        <time>2022-09-12T08:28:08Z</time>
      </trkpt>
      <trkpt lat="47.87495" lon="6.81771">
        <ele>850</ele>
        <time>2022-09-12T08:28:09Z</time>
      </trkpt>
      <trkpt lat="47.87494" lon="6.81773">
        <ele>850</ele>
        <time>2022-09-12T08:28:10Z</time>
      </trkpt>
      <trkpt lat="47.87494" lon="6.81774">
        <ele>850</ele>
        <time>2022-09-12T08:28:11Z</time>
      </trkpt>
      <trkpt lat="47.87493" lon="6.81776">
        <ele>849</ele>
        <time>2022-09-12T08:28:12Z</time>
      </trkpt>
      <trkpt lat="47.87492" lon="6.81777">
        <ele>849</ele>
        <time>2022-09-12T08:28:13Z</time>
      </trkpt>
      <trkpt lat="47.87492" lon="6.81778">
        <ele>849</ele>
        <time>2022-09-12T08:28:14Z</time>
      </trkpt>
      <trkpt lat="47.87491" lon="6.8178">
        <ele>849</ele>
        <time>2022-09-12T08:28:15Z</time>
      </trkpt>
      <trkpt lat="47.87491" lon="6.81781">
        <ele>849</ele>
        <time>2022-09-12T08:28:16Z</time>
      </trkpt>
      <trkpt lat="47.8749" lon="6.81783">
        <ele>849</ele>
        <time>2022-09-12T08:28:17Z</time>
      </trkpt>
      <trkpt lat="47.8749" lon="6.81784">
        <ele>849</ele>
        <time>2022-09-12T08:28:18Z</time>
      </trkpt>
      <trkpt lat="47.8749" lon="6.81786">
        <ele>849</ele>
        <time>2022-09-12T08:28:19Z</time>
      </trkpt>
      <trkpt lat="47.87491" lon="6.81787">
        <ele>849</ele>
        <time>2022-09-12T08:28:20Z</time>
      </trkpt>
      <trkpt lat="47.87491" lon="6.81789">
        <ele>850</ele>
        <time>2022-09-12T08:28:21Z</time>
      </trkpt>
      <trkpt lat="47.87491" lon="6.8179">
        <ele>850</ele>
        <time>2022-09-12T08:28:22Z</time>
      </trkpt>
      <trkpt lat="47.87492" lon="6.81792">
        <ele>850</ele>
        <time>2022-09-12T08:28:23Z</time>
      </trkpt>
      <trkpt lat="47.87492" lon="6.81793">
        <ele>850</ele>
        <time>2022-09-12T08:28:24Z</time>
      </trkpt>
      <trkpt lat="47.87492" lon="6.81795">
        <ele>850</ele>
        <time>2022-09-12T08:28:25Z</time>
      </trkpt>
      <trkpt lat="47.87492" lon="6.81796">
        <ele>850</ele>
        <time>2022-09-12T08:28:26Z</time>
      </trkpt>
      <trkpt lat="47.87493" lon="6.81798">
        <ele>850</ele>
        <time>2022-09-12T08:28:27Z</time>
      </trkpt>
      <trkpt lat="47.87493" lon="6.818">
        <ele>850</ele>
        <time>2022-09-12T08:28:28Z</time>
      </trkpt>
      <trkpt lat="47.87493" lon="6.81801">
        <ele>850</ele>
        <time>2022-09-12T08:28:29Z</time>
      </trkpt>
      <trkpt lat="47.87493" lon="6.81803">
        <ele>850</ele>
        <time>2022-09-12T08:28:30Z</time>
      </trkpt>
      <trkpt lat="47.87492" lon="6.81804">
        <ele>850</ele>
        <time>2022-09-12T08:28:31Z</time>
      </trkpt>
      <trkpt lat="47.87492" lon="6.81805">
        <ele>850</ele>
        <time>2022-09-12T08:28:32Z</time>
      </trkpt>
      <trkpt lat="47.87492" lon="6.81807">
        <ele>850</ele>
        <time>2022-09-12T08:28:33Z</time>
      </trkpt>
      <trkpt lat="47.87491" lon="6.81808">
        <ele>851</ele>
        <time>2022-09-12T08:28:34Z</time>
      </trkpt>
      <trkpt lat="47.87491" lon="6.81809">
        <ele>851</ele>
        <time>2022-09-12T08:28:35Z</time>
      </trkpt>
      <trkpt lat="47.87491" lon="6.81811">
        <ele>852</ele>
        <time>2022-09-12T08:28:36Z</time>
      </trkpt>
      <trkpt lat="47.87491" lon="6.81813">
        <ele>852</ele>
        <time>2022-09-12T08:28:37Z</time>
      </trkpt>
      <trkpt lat="47.87491" lon="6.81815">
        <ele>852</ele>
        <time>2022-09-12T08:28:38Z</time>
      </trkpt>
      <trkpt lat="47.87492" lon="6.81817">
        <ele>852</ele>
        <time>2022-09-12T08:28:39Z</time>
      </trkpt>
      <trkpt lat="47.87492" lon="6.81819">
        <ele>852</ele>
        <time>2022-09-12T08:28:40Z</time>
      </trkpt>
      <trkpt lat="47.87492" lon="6.81821">
        <ele>852</ele>
        <time>2022-09-12T08:28:41Z</time>
      </trkpt>
      <trkpt lat="47.87492" lon="6.81822">
        <ele>852</ele>
        <time>2022-09-12T08:28:42Z</time>
      </trkpt>
      <trkpt lat="47.87492" lon="6.81824">
        <ele>852</ele>
        <time>2022-09-12T08:28:43Z</time>
      </trkpt>
      <trkpt lat="47.87491" lon="6.81826">
        <ele>852</ele>
        <time>2022-09-12T08:28:44Z</time>
      </trkpt>
      <trkpt lat="47.8749" lon="6.81827">
        <ele>852</ele>
        <time>2022-09-12T08:28:45Z</time>
      </trkpt>
      <trkpt lat="47.8749" lon="6.81828">
        <ele>852</ele>
        <time>2022-09-12T08:28:46Z</time>
      </trkpt>
      <trkpt lat="47.87489" lon="6.8183">
        <ele>852</ele>
        <time>2022-09-12T08:28:47Z</time>
      </trkpt>
      <trkpt lat="47.87489" lon="6.81831">
        <ele>852</ele>
        <time>2022-09-12T08:28:48Z</time>
      </trkpt>
      <trkpt lat="47.87488" lon="6.81832">
        <ele>852</ele>
        <time>2022-09-12T08:28:49Z</time>
      </trkpt>
      <trkpt lat="47.87488" lon="6.81833">
        <ele>852</ele>
        <time>2022-09-12T08:28:50Z</time>
      </trkpt>
      <trkpt lat="47.87488" lon="6.81835">
        <ele>852</ele>
        <time>2022-09-12T08:28:51Z</time>
      </trkpt>
      <trkpt lat="47.87488" lon="6.81837">
        <ele>852</ele>
        <time>2022-09-12T08:28:52Z</time>
      </trkpt>
      <trkpt lat="47.87488" lon="6.81838">
        <ele>852</ele>
        <time>2022-09-12T08:28:53Z</time>
      </trkpt>
      <trkpt lat="47.87488" lon="6.8184">
        <ele>852</ele>
        <time>2022-09-12T08:28:54Z</time>
      </trkpt>
      <trkpt lat="47.87488" lon="6.81842">
        <ele>852</ele>
        <time>2022-09-12T08:28:55Z</time>
      </trkpt>
      <trkpt lat="47.87488" lon="6.81844">
        <ele>852</ele>
        <time>2022-09-12T08:28:56Z</time>
      </trkpt>
      <trkpt lat="47.87488" lon="6.81846">
        <ele>852</ele>
        <time>2022-09-12T08:28:57Z</time>
      </trkpt>
      <trkpt lat="47.87488" lon="6.81847">
        <ele>852</ele>
        <time>2022-09-12T08:28:58Z</time>
      </trkpt>
      <trkpt lat="47.87488" lon="6.81849">
        <ele>852</ele>
        <time>2022-09-12T08:28:59Z</time>
      </trkpt>
      <trkpt lat="47.87487" lon="6.8185">
        <ele>852</ele>
        <time>2022-09-12T08:29:00Z</time>
      </trkpt>
      <trkpt lat="47.87487" lon="6.81852">
        <ele>852</ele>
        <time>2022-09-12T08:29:01Z</time>
      </trkpt>
      <trkpt lat="47.87486" lon="6.81853">
        <ele>852</ele>
        <time>2022-09-12T08:29:02Z</time>
      </trkpt>
      <trkpt lat="47.87486" lon="6.81854">
        <ele>852</ele>
        <time>2022-09-12T08:29:03Z</time>
      </trkpt>
      <trkpt lat="47.87485" lon="6.81855">
        <ele>852</ele>
        <time>2022-09-12T08:29:04Z</time>
      </trkpt>
      <trkpt lat="47.87485" lon="6.81857">
        <ele>852</ele>
        <time>2022-09-12T08:29:05Z</time>
      </trkpt>
      <trkpt lat="47.87485" lon="6.81857">
        <ele>852</ele>
        <time>2022-09-12T08:29:06Z</time>
      </trkpt>
      <trkpt lat="47.87485" lon="6.81858">
        <ele>852</ele>
        <time>2022-09-12T08:29:07Z</time>
      </trkpt>
      <trkpt lat="47.87485" lon="6.81859">
        <ele>852</ele>
        <time>2022-09-12T08:29:08Z</time>
      </trkpt>
      <trkpt lat="47.87485" lon="6.81861">
        <ele>852</ele>
        <time>2022-09-12T08:29:09Z</time>
      </trkpt>
      <trkpt lat="47.87485" lon="6.81862">
        <ele>852</ele>
        <time>2022-09-12T08:29:10Z</time>
      </trkpt>
      <trkpt lat="47.87485" lon="6.81864">
        <ele>852</ele>
        <time>2022-09-12T08:29:11Z</time>
      </trkpt>
      <trkpt lat="47.87486" lon="6.81866">
        <ele>852</ele>
        <time>2022-09-12T08:29:12Z</time>
      </trkpt>
      <trkpt lat="47.87487" lon="6.81867">
        <ele>852</ele>
        <time>2022-09-12T08:29:13Z</time>
      </trkpt>
      <trkpt lat="47.87487" lon="6.81869">
        <ele>852</ele>
        <time>2022-09-12T08:29:14Z</time>
      </trkpt>
      <trkpt lat="47.87487" lon="6.81871">
        <ele>852</ele>
        <time>2022-09-12T08:29:15Z</time>
      </trkpt>
      <trkpt lat="47.87488" lon="6.81872">
        <ele>852</ele>
        <time>2022-09-12T08:29:16Z</time>
      </trkpt>
      <trkpt lat="47.87488" lon="6.81874">
        <ele>852</ele>
        <time>2022-09-12T08:29:17Z</time>
      </trkpt>
      <trkpt lat="47.87488" lon="6.81875">
        <ele>852</ele>
        <time>2022-09-12T08:29:18Z</time>
      </trkpt>
      <trkpt lat="47.87488" lon="6.81877">
        <ele>852</ele>
        <time>2022-09-12T08:29:19Z</time>
      </trkpt>
      <trkpt lat="47.87488" lon="6.81878">
        <ele>852</ele>
        <time>2022-09-12T08:29:20Z</time>
      </trkpt>
      <trkpt lat="47.87488" lon="6.81879">
        <ele>853</ele>
        <time>2022-09-12T08:29:21Z</time>
      </trkpt>
      <trkpt lat="47.87488" lon="6.8188">
        <ele>853</ele>
        <time>2022-09-12T08:29:22Z</time>
      </trkpt>
      <trkpt lat="47.87488" lon="6.81882">
        <ele>853</ele>
        <time>2022-09-12T08:29:23Z</time>
      </trkpt>
      <trkpt lat="47.87489" lon="6.81883">
        <ele>853</ele>
        <time>2022-09-12T08:29:24Z</time>
      </trkpt>
      <trkpt lat="47.87489" lon="6.81884">
        <ele>853</ele>
        <time>2022-09-12T08:29:25Z</time>
      </trkpt>
      <trkpt lat="47.87489" lon="6.81886">
        <ele>853</ele>
        <time>2022-09-12T08:29:26Z</time>
      </trkpt>
      <trkpt lat="47.87489" lon="6.81887">
        <ele>853</ele>
        <time>2022-09-12T08:29:27Z</time>
      </trkpt>
      <trkpt lat="47.87489" lon="6.81889">
        <ele>853</ele>
        <time>2022-09-12T08:29:28Z</time>
      </trkpt>
      <trkpt lat="47.87489" lon="6.8189">
        <ele>853</ele>
        <time>2022-09-12T08:29:29Z</time>
      </trkpt>
      <trkpt lat="47.87488" lon="6.81892">
        <ele>853</ele>
        <time>2022-09-12T08:29:30Z</time>
      </trkpt>
      <trkpt lat="47.87488" lon="6.81893">
        <ele>853</ele>
        <time>2022-09-12T08:29:31Z</time>
      </trkpt>
      <trkpt lat="47.87488" lon="6.81894">
        <ele>853</ele>
        <time>2022-09-12T08:29:32Z</time>
      </trkpt>
      <trkpt lat="47.87488" lon="6.81896">
        <ele>853</ele>
        <time>2022-09-12T08:29:33Z</time>
      </trkpt>
      <trkpt lat="47.87487" lon="6.81897">
        <ele>853</ele>
        <time>2022-09-12T08:29:34Z</time>
      </trkpt>
      <trkpt lat="47.87487" lon="6.81899">
        <ele>853</ele>
        <time>2022-09-12T08:29:35Z</time>
      </trkpt>
      <trkpt lat="47.87487" lon="6.819">
        <ele>853</ele>
        <time>2022-09-12T08:29:36Z</time>
      </trkpt>
      <trkpt lat="47.87487" lon="6.81902">
        <ele>853</ele>
        <time>2022-09-12T08:29:37Z</time>
      </trkpt>
      <trkpt lat="47.87487" lon="6.81904">
        <ele>853</ele>
        <time>2022-09-12T08:29:38Z</time>
      </trkpt>
      <trkpt lat="47.87487" lon="6.81905">
        <ele>853</ele>
        <time>2022-09-12T08:29:39Z</time>
      </trkpt>
      <trkpt lat="47.87487" lon="6.81907">
        <ele>853</ele>
        <time>2022-09-12T08:29:40Z</time>
      </trkpt>
      <trkpt lat="47.87487" lon="6.81908">
        <ele>853</ele>
        <time>2022-09-12T08:29:41Z</time>
      </trkpt>
      <trkpt lat="47.87487" lon="6.8191">
        <ele>853</ele>
        <time>2022-09-12T08:29:42Z</time>
      </trkpt>
      <trkpt lat="47.87487" lon="6.81912">
        <ele>853</ele>
        <time>2022-09-12T08:29:43Z</time>
      </trkpt>
      <trkpt lat="47.87487" lon="6.81914">
        <ele>853</ele>
        <time>2022-09-12T08:29:44Z</time>
      </trkpt>
      <trkpt lat="47.87487" lon="6.81915">
        <ele>853</ele>
        <time>2022-09-12T08:29:45Z</time>
      </trkpt>
      <trkpt lat="47.87487" lon="6.81917">
        <ele>853</ele>
        <time>2022-09-12T08:29:46Z</time>
      </trkpt>
      <trkpt lat="47.87486" lon="6.81918">
        <ele>853</ele>
        <time>2022-09-12T08:29:47Z</time>
      </trkpt>
      <trkpt lat="47.87486" lon="6.81919">
        <ele>853</ele>
        <time>2022-09-12T08:29:48Z</time>
      </trkpt>
      <trkpt lat="47.87486" lon="6.81921">
        <ele>853</ele>
        <time>2022-09-12T08:29:49Z</time>
      </trkpt>
      <trkpt lat="47.87485" lon="6.81922">
        <ele>853</ele>
        <time>2022-09-12T08:29:50Z</time>
      </trkpt>
      <trkpt lat="47.87485" lon="6.81923">
        <ele>853</ele>
        <time>2022-09-12T08:29:51Z</time>
      </trkpt>
      <trkpt lat="47.87485" lon="6.81925">
        <ele>852</ele>
        <time>2022-09-12T08:29:52Z</time>
      </trkpt>
      <trkpt lat="47.87485" lon="6.81926">
        <ele>852</ele>
        <time>2022-09-12T08:29:53Z</time>
      </trkpt>
      <trkpt lat="47.87485" lon="6.81928">
        <ele>852</ele>
        <time>2022-09-12T08:29:54Z</time>
      </trkpt>
      <trkpt lat="47.87484" lon="6.8193">
        <ele>852</ele>
        <time>2022-09-12T08:29:55Z</time>
      </trkpt>
      <trkpt lat="47.87484" lon="6.81932">
        <ele>852</ele>
        <time>2022-09-12T08:29:56Z</time>
      </trkpt>
      <trkpt lat="47.87484" lon="6.81934">
        <ele>852</ele>
        <time>2022-09-12T08:29:57Z</time>
      </trkpt>
      <trkpt lat="47.87484" lon="6.81936">
        <ele>852</ele>
        <time>2022-09-12T08:29:58Z</time>
      </trkpt>
      <trkpt lat="47.87485" lon="6.81938">
        <ele>852</ele>
        <time>2022-09-12T08:29:59Z</time>
      </trkpt>
      <trkpt lat="47.87484" lon="6.8194">
        <ele>852</ele>
        <time>2022-09-12T08:30:00Z</time>
      </trkpt>
      <trkpt lat="47.87484" lon="6.81942">
        <ele>852</ele>
        <time>2022-09-12T08:30:01Z</time>
      </trkpt>
      <trkpt lat="47.87484" lon="6.81943">
        <ele>852</ele>
        <time>2022-09-12T08:30:02Z</time>
      </trkpt>
      <trkpt lat="47.87484" lon="6.81945">
        <ele>852</ele>
        <time>2022-09-12T08:30:03Z</time>
      </trkpt>
      <trkpt lat="47.87483" lon="6.81946">
        <ele>852</ele>
        <time>2022-09-12T08:30:04Z</time>
      </trkpt>
      <trkpt lat="47.87483" lon="6.81948">
        <ele>852</ele>
        <time>2022-09-12T08:30:05Z</time>
      </trkpt>
      <trkpt lat="47.87483" lon="6.81951">
        <ele>852</ele>
        <time>2022-09-12T08:30:06Z</time>
      </trkpt>
      <trkpt lat="47.87483" lon="6.81953">
        <ele>852</ele>
        <time>2022-09-12T08:30:07Z</time>
      </trkpt>
      <trkpt lat="47.87483" lon="6.81956">
        <ele>852</ele>
        <time>2022-09-12T08:30:08Z</time>
      </trkpt>
      <trkpt lat="47.87484" lon="6.81958">
        <ele>852</ele>
        <time>2022-09-12T08:30:09Z</time>
      </trkpt>
      <trkpt lat="47.87483" lon="6.81961">
        <ele>852</ele>
        <time>2022-09-12T08:30:10Z</time>
      </trkpt>
      <trkpt lat="47.87483" lon="6.81963">
        <ele>852</ele>
        <time>2022-09-12T08:30:11Z</time>
      </trkpt>
      <trkpt lat="47.87483" lon="6.81965">
        <ele>852</ele>
        <time>2022-09-12T08:30:12Z</time>
      </trkpt>
      <trkpt lat="47.87483" lon="6.81967">
        <ele>852</ele>
        <time>2022-09-12T08:30:13Z</time>
      </trkpt>
      <trkpt lat="47.87483" lon="6.81968">
        <ele>852</ele>
        <time>2022-09-12T08:30:14Z</time>
      </trkpt>
      <trkpt lat="47.87483" lon="6.8197">
        <ele>852</ele>
        <time>2022-09-12T08:30:15Z</time>
      </trkpt>
      <trkpt lat="47.87483" lon="6.81972">
        <ele>852</ele>
        <time>2022-09-12T08:30:16Z</time>
      </trkpt>
      <trkpt lat="47.87483" lon="6.81974">
        <ele>852</ele>
        <time>2022-09-12T08:30:17Z</time>
      </trkpt>
      <trkpt lat="47.87483" lon="6.81976">
        <ele>852</ele>
        <time>2022-09-12T08:30:18Z</time>
      </trkpt>
      <trkpt lat="47.87483" lon="6.81978">
        <ele>852</ele>
        <time>2022-09-12T08:30:19Z</time>
      </trkpt>
      <trkpt lat="47.87483" lon="6.8198">
        <ele>852</ele>
        <time>2022-09-12T08:30:20Z</time>
      </trkpt>
      <trkpt lat="47.87483" lon="6.81982">
        <ele>852</ele>
        <time>2022-09-12T08:30:21Z</time>
      </trkpt>
      <trkpt lat="47.87483" lon="6.81984">
        <ele>852</ele>
        <time>2022-09-12T08:30:22Z</time>
      </trkpt>
      <trkpt lat="47.87483" lon="6.81985">
        <ele>852</ele>
        <time>2022-09-12T08:30:23Z</time>
      </trkpt>
      <trkpt lat="47.87484" lon="6.81987">
        <ele>852</ele>
        <time>2022-09-12T08:30:24Z</time>
      </trkpt>
      <trkpt lat="47.87484" lon="6.81989">
        <ele>852</ele>
        <time>2022-09-12T08:30:25Z</time>
      </trkpt>
      <trkpt lat="47.87484" lon="6.81991">
        <ele>852</ele>
        <time>2022-09-12T08:30:26Z</time>
      </trkpt>
      <trkpt lat="47.87485" lon="6.81993">
        <ele>852</ele>
        <time>2022-09-12T08:30:27Z</time>
      </trkpt>
      <trkpt lat="47.87485" lon="6.81995">
        <ele>852</ele>
        <time>2022-09-12T08:30:28Z</time>
      </trkpt>
      <trkpt lat="47.87485" lon="6.81996">
        <ele>852</ele>
        <time>2022-09-12T08:30:29Z</time>
      </trkpt>
      <trkpt lat="47.87485" lon="6.81998">
        <ele>852</ele>
        <time>2022-09-12T08:30:30Z</time>
      </trkpt>
      <trkpt lat="47.87484" lon="6.82">
        <ele>852</ele>
        <time>2022-09-12T08:30:31Z</time>
      </trkpt>
      <trkpt lat="47.87484" lon="6.82002">
        <ele>851</ele>
        <time>2022-09-12T08:30:32Z</time>
      </trkpt>
      <trkpt lat="47.87484" lon="6.82003">
        <ele>851</ele>
        <time>2022-09-12T08:30:33Z</time>
      </trkpt>
      <trkpt lat="47.87484" lon="6.82005">
        <ele>850</ele>
        <time>2022-09-12T08:30:34Z</time>
      </trkpt>
      <trkpt lat="47.87484" lon="6.82006">
        <ele>850</ele>
        <time>2022-09-12T08:30:35Z</time>
      </trkpt>
      <trkpt lat="47.87484" lon="6.82007">
        <ele>850</ele>
        <time>2022-09-12T08:30:36Z</time>
      </trkpt>
      <trkpt lat="47.87484" lon="6.82008">
        <ele>850</ele>
        <time>2022-09-12T08:30:37Z</time>
      </trkpt>
      <trkpt lat="47.87484" lon="6.82009">
        <ele>850</ele>
        <time>2022-09-12T08:30:38Z</time>
      </trkpt>
      <trkpt lat="47.87484" lon="6.8201">
        <ele>850</ele>
        <time>2022-09-12T08:30:39Z</time>
      </trkpt>
      <trkpt lat="47.87484" lon="6.82012">
        <ele>850</ele>
        <time>2022-09-12T08:30:40Z</time>
      </trkpt>
      <trkpt lat="47.87483" lon="6.82013">
        <ele>850</ele>
        <time>2022-09-12T08:30:41Z</time>
      </trkpt>
      <trkpt lat="47.87483" lon="6.82014">
        <ele>850</ele>
        <time>2022-09-12T08:30:42Z</time>
      </trkpt>
      <trkpt lat="47.87483" lon="6.82016">
        <ele>850</ele>
        <time>2022-09-12T08:30:43Z</time>
      </trkpt>
      <trkpt lat="47.87483" lon="6.82017">
        <ele>850</ele>
        <time>2022-09-12T08:30:44Z</time>
      </trkpt>
      <trkpt lat="47.87482" lon="6.82019">
        <ele>850</ele>
        <time>2022-09-12T08:30:45Z</time>
      </trkpt>
      <trkpt lat="47.87482" lon="6.8202">
        <ele>850</ele>
        <time>2022-09-12T08:30:46Z</time>
      </trkpt>
      <trkpt lat="47.87481" lon="6.82021">
        <ele>850</ele>
        <time>2022-09-12T08:30:47Z</time>
      </trkpt>
      <trkpt lat="47.87481" lon="6.82023">
        <ele>850</ele>
        <time>2022-09-12T08:30:48Z</time>
      </trkpt>
      <trkpt lat="47.8748" lon="6.82024">
        <ele>850</ele>
        <time>2022-09-12T08:30:49Z</time>
      </trkpt>
      <trkpt lat="47.87479" lon="6.82026">
        <ele>850</ele>
        <time>2022-09-12T08:30:50Z</time>
      </trkpt>
      <trkpt lat="47.87478" lon="6.82027">
        <ele>850</ele>
        <time>2022-09-12T08:30:51Z</time>
      </trkpt>
      <trkpt lat="47.87478" lon="6.82029">
        <ele>850</ele>
        <time>2022-09-12T08:30:52Z</time>
      </trkpt>
      <trkpt lat="47.87477" lon="6.82031">
        <ele>850</ele>
        <time>2022-09-12T08:30:53Z</time>
      </trkpt>
      <trkpt lat="47.87477" lon="6.82033">
        <ele>850</ele>
        <time>2022-09-12T08:30:54Z</time>
      </trkpt>
      <trkpt lat="47.87477" lon="6.82034">
        <ele>850</ele>
        <time>2022-09-12T08:30:55Z</time>
      </trkpt>
      <trkpt lat="47.87477" lon="6.82036">
        <ele>850</ele>
        <time>2022-09-12T08:30:56Z</time>
      </trkpt>
      <trkpt lat="47.87477" lon="6.82038">
        <ele>849</ele>
        <time>2022-09-12T08:30:57Z</time>
      </trkpt>
      <trkpt lat="47.87477" lon="6.82039">
        <ele>849</ele>
        <time>2022-09-12T08:30:58Z</time>
      </trkpt>
      <trkpt lat="47.87477" lon="6.8204">
        <ele>849</ele>
        <time>2022-09-12T08:30:59Z</time>
      </trkpt>
      <trkpt lat="47.87478" lon="6.82042">
        <ele>849</ele>
        <time>2022-09-12T08:31:00Z</time>
      </trkpt>
      <trkpt lat="47.87479" lon="6.82043">
        <ele>849</ele>
        <time>2022-09-12T08:31:01Z</time>
      </trkpt>
      <trkpt lat="47.87479" lon="6.82045">
        <ele>849</ele>
        <time>2022-09-12T08:31:02Z</time>
      </trkpt>
      <trkpt lat="47.8748" lon="6.82046">
        <ele>849</ele>
        <time>2022-09-12T08:31:03Z</time>
      </trkpt>
      <trkpt lat="47.87481" lon="6.82048">
        <ele>849</ele>
        <time>2022-09-12T08:31:04Z</time>
      </trkpt>
      <trkpt lat="47.87481" lon="6.8205">
        <ele>849</ele>
        <time>2022-09-12T08:31:05Z</time>
      </trkpt>
      <trkpt lat="47.87482" lon="6.82051">
        <ele>849</ele>
        <time>2022-09-12T08:31:06Z</time>
      </trkpt>
      <trkpt lat="47.87482" lon="6.82053">
        <ele>849</ele>
        <time>2022-09-12T08:31:07Z</time>
      </trkpt>
      <trkpt lat="47.87483" lon="6.82054">
        <ele>849</ele>
        <time>2022-09-12T08:31:08Z</time>
      </trkpt>
      <trkpt lat="47.87483" lon="6.82056">
        <ele>849</ele>
        <time>2022-09-12T08:31:09Z</time>
      </trkpt>
      <trkpt lat="47.87483" lon="6.82057">
        <ele>849</ele>
        <time>2022-09-12T08:31:10Z</time>
      </trkpt>
      <trkpt lat="47.87483" lon="6.82059">
        <ele>849</ele>
        <time>2022-09-12T08:31:11Z</time>
      </trkpt>
      <trkpt lat="47.87483" lon="6.8206">
        <ele>849</ele>
        <time>2022-09-12T08:31:12Z</time>
      </trkpt>
      <trkpt lat="47.87483" lon="6.82062">
        <ele>849</ele>
        <time>2022-09-12T08:31:13Z</time>
      </trkpt>
      <trkpt lat="47.87483" lon="6.82063">
        <ele>849</ele>
        <time>2022-09-12T08:31:14Z</time>
      </trkpt>
      <trkpt lat="47.87482" lon="6.82064">
        <ele>849</ele>
        <time>2022-09-12T08:31:15Z</time>
      </trkpt>
      <trkpt lat="47.87482" lon="6.82066">
        <ele>849</ele>
        <time>2022-09-12T08:31:16Z</time>
      </trkpt>
      <trkpt lat="47.87482" lon="6.82067">
        <ele>849</ele>
        <time>2022-09-12T08:31:17Z</time>
      </trkpt>
      <trkpt lat="47.87482" lon="6.82069">
        <ele>849</ele>
        <time>2022-09-12T08:31:18Z</time>
      </trkpt>
      <trkpt lat="47.87482" lon="6.8207">
        <ele>849</ele>
        <time>2022-09-12T08:31:19Z</time>
      </trkpt>
      <trkpt lat="47.87481" lon="6.82072">
        <ele>849</ele>
        <time>2022-09-12T08:31:20Z</time>
      </trkpt>
      <trkpt lat="47.87481" lon="6.82074">
        <ele>849</ele>
        <time>2022-09-12T08:31:21Z</time>
      </trkpt>
      <trkpt lat="47.87481" lon="6.82075">
        <ele>849</ele>
        <time>2022-09-12T08:31:22Z</time>
      </trkpt>
      <trkpt lat="47.87481" lon="6.82077">
        <ele>849</ele>
        <time>2022-09-12T08:31:23Z</time>
      </trkpt>
      <trkpt lat="47.87481" lon="6.82078">
        <ele>849</ele>
        <time>2022-09-12T08:31:24Z</time>
      </trkpt>
      <trkpt lat="47.87481" lon="6.8208">
        <ele>849</ele>
        <time>2022-09-12T08:31:25Z</time>
      </trkpt>
      <trkpt lat="47.87481" lon="6.82081">
        <ele>849</ele>
        <time>2022-09-12T08:31:26Z</time>
      </trkpt>
      <trkpt lat="47.87481" lon="6.82083">
        <ele>849</ele>
        <time>2022-09-12T08:31:27Z</time>
      </trkpt>
      <trkpt lat="47.87481" lon="6.82084">
        <ele>849</ele>
        <time>2022-09-12T08:31:28Z</time>
      </trkpt>
      <trkpt lat="47.87481" lon="6.82086">
        <ele>849</ele>
        <time>2022-09-12T08:31:29Z</time>
      </trkpt>
      <trkpt lat="47.87481" lon="6.82087">
        <ele>849</ele>
        <time>2022-09-12T08:31:30Z</time>
      </trkpt>
      <trkpt lat="47.87481" lon="6.82089">
        <ele>850</ele>
        <time>2022-09-12T08:31:31Z</time>
      </trkpt>
      <trkpt lat="47.87481" lon="6.8209">
        <ele>850</ele>
        <time>2022-09-12T08:31:32Z</time>
      </trkpt>
      <trkpt lat="47.87481" lon="6.82091">
        <ele>850</ele>
        <time>2022-09-12T08:31:33Z</time>
      </trkpt>
      <trkpt lat="47.8748" lon="6.82092">
        <ele>850</ele>
        <time>2022-09-12T08:31:34Z</time>
      </trkpt>
      <trkpt lat="47.8748" lon="6.82093">
        <ele>850</ele>
        <time>2022-09-12T08:31:35Z</time>
      </trkpt>
      <trkpt lat="47.8748" lon="6.82094">
        <ele>850</ele>
        <time>2022-09-12T08:31:36Z</time>
      </trkpt>
      <trkpt lat="47.8748" lon="6.82095">
        <ele>850</ele>
        <time>2022-09-12T08:31:37Z</time>
      </trkpt>
      <trkpt lat="47.87479" lon="6.82096">
        <ele>850</ele>
        <time>2022-09-12T08:31:38Z</time>
      </trkpt>
      <trkpt lat="47.87479" lon="6.82097">
        <ele>850</ele>
        <time>2022-09-12T08:31:39Z</time>
      </trkpt>
      <trkpt lat="47.87479" lon="6.82097">
        <ele>850</ele>
        <time>2022-09-12T08:31:40Z</time>
      </trkpt>
      <trkpt lat="47.87479" lon="6.82098">
        <ele>850</ele>
        <time>2022-09-12T08:31:41Z</time>
      </trkpt>
      <trkpt lat="47.87479" lon="6.82099">
        <ele>850</ele>
        <time>2022-09-12T08:31:42Z</time>
      </trkpt>
      <trkpt lat="47.87478" lon="6.821">
        <ele>850</ele>
        <time>2022-09-12T08:31:43Z</time>
      </trkpt>
      <trkpt lat="47.87478" lon="6.82102">
        <ele>850</ele>
        <time>2022-09-12T08:31:44Z</time>
      </trkpt>
      <trkpt lat="47.87478" lon="6.82103">
        <ele>850</ele>
        <time>2022-09-12T08:31:45Z</time>
      </trkpt>
      <trkpt lat="47.87478" lon="6.82104">
        <ele>850</ele>
        <time>2022-09-12T08:31:46Z</time>
      </trkpt>
      <trkpt lat="47.87479" lon="6.82106">
        <ele>849</ele>
        <time>2022-09-12T08:31:47Z</time>
      </trkpt>
      <trkpt lat="47.87479" lon="6.82107">
        <ele>849</ele>
        <time>2022-09-12T08:31:48Z</time>
      </trkpt>
      <trkpt lat="47.87479" lon="6.82109">
        <ele>849</ele>
        <time>2022-09-12T08:31:49Z</time>
      </trkpt>
      <trkpt lat="47.87478" lon="6.82111">
        <ele>849</ele>
        <time>2022-09-12T08:31:50Z</time>
      </trkpt>
      <trkpt lat="47.87478" lon="6.82112">
        <ele>849</ele>
        <time>2022-09-12T08:31:51Z</time>
      </trkpt>
      <trkpt lat="47.87478" lon="6.82114">
        <ele>849</ele>
        <time>2022-09-12T08:31:52Z</time>
      </trkpt>
      <trkpt lat="47.87477" lon="6.82115">
        <ele>849</ele>
        <time>2022-09-12T08:31:53Z</time>
      </trkpt>
      <trkpt lat="47.87477" lon="6.82117">
        <ele>849</ele>
        <time>2022-09-12T08:31:54Z</time>
      </trkpt>
      <trkpt lat="47.87477" lon="6.82119">
        <ele>849</ele>
        <time>2022-09-12T08:31:55Z</time>
      </trkpt>
      <trkpt lat="47.87477" lon="6.8212">
        <ele>849</ele>
        <time>2022-09-12T08:31:56Z</time>
      </trkpt>
      <trkpt lat="47.87477" lon="6.82122">
        <ele>849</ele>
        <time>2022-09-12T08:31:57Z</time>
      </trkpt>
      <trkpt lat="47.87477" lon="6.82124">
        <ele>849</ele>
        <time>2022-09-12T08:31:58Z</time>
      </trkpt>
      <trkpt lat="47.87477" lon="6.82125">
        <ele>849</ele>
        <time>2022-09-12T08:31:59Z</time>
      </trkpt>
      <trkpt lat="47.87477" lon="6.82127">
        <ele>849</ele>
        <time>2022-09-12T08:32:00Z</time>
      </trkpt>
      <trkpt lat="47.87476" lon="6.82128">
        <ele>849</ele>
        <time>2022-09-12T08:32:01Z</time>
      </trkpt>
      <trkpt lat="47.87476" lon="6.8213">
        <ele>849</ele>
        <time>2022-09-12T08:32:02Z</time>
      </trkpt>
      <trkpt lat="47.87476" lon="6.82131">
        <ele>849</ele>
        <time>2022-09-12T08:32:03Z</time>
      </trkpt>
      <trkpt lat="47.87475" lon="6.82133">
        <ele>849</ele>
        <time>2022-09-12T08:32:04Z</time>
      </trkpt>
      <trkpt lat="47.87475" lon="6.82134">
        <ele>849</ele>
        <time>2022-09-12T08:32:05Z</time>
      </trkpt>
      <trkpt lat="47.87474" lon="6.82136">
        <ele>849</ele>
        <time>2022-09-12T08:32:06Z</time>
      </trkpt>
      <trkpt lat="47.87474" lon="6.82137">
        <ele>849</ele>
        <time>2022-09-12T08:32:07Z</time>
      </trkpt>
      <trkpt lat="47.87473" lon="6.82138">
        <ele>849</ele>
        <time>2022-09-12T08:32:08Z</time>
      </trkpt>
      <trkpt lat="47.87472" lon="6.8214">
        <ele>849</ele>
        <time>2022-09-12T08:32:09Z</time>
      </trkpt>
      <trkpt lat="47.87472" lon="6.82142">
        <ele>849</ele>
        <time>2022-09-12T08:33:23Z</time>
      </trkpt>
      <trkpt lat="47.87472" lon="6.82143">
        <ele>849</ele>
        <time>2022-09-12T08:33:24Z</time>
      </trkpt>
      <trkpt lat="47.87472" lon="6.82144">
        <ele>849</ele>
        <time>2022-09-12T08:33:25Z</time>
      </trkpt>
      <trkpt lat="47.87472" lon="6.82145">
        <ele>849</ele>
        <time>2022-09-12T08:33:26Z</time>
      </trkpt>
      <trkpt lat="47.87473" lon="6.82145">
        <ele>849</ele>
        <time>2022-09-12T08:33:27Z</time>
      </trkpt>
      <trkpt lat="47.87473" lon="6.82146">
        <ele>849</ele>
        <time>2022-09-12T08:33:28Z</time>
      </trkpt>
      <trkpt lat="47.87474" lon="6.82147">
        <ele>849</ele>
        <time>2022-09-12T08:33:29Z</time>
      </trkpt>
      <trkpt lat="47.87476" lon="6.82149">
        <ele>848</ele>
        <time>2022-09-12T08:33:38Z</time>
      </trkpt>
      <trkpt lat="47.87476" lon="6.8215">
        <ele>848</ele>
        <time>2022-09-12T08:33:39Z</time>
      </trkpt>
      <trkpt lat="47.87477" lon="6.82151">
        <ele>848</ele>
        <time>2022-09-12T08:33:40Z</time>
      </trkpt>
      <trkpt lat="47.87477" lon="6.82152">
        <ele>848</ele>
        <time>2022-09-12T08:33:41Z</time>
      </trkpt>
      <trkpt lat="47.87478" lon="6.82153">
        <ele>848</ele>
        <time>2022-09-12T08:33:42Z</time>
      </trkpt>
      <trkpt lat="47.87478" lon="6.82155">
        <ele>848</ele>
        <time>2022-09-12T08:33:43Z</time>
      </trkpt>
      <trkpt lat="47.87479" lon="6.82156">
        <ele>848</ele>
        <time>2022-09-12T08:33:44Z</time>
      </trkpt>
      <trkpt lat="47.87479" lon="6.82157">
        <ele>848</ele>
        <time>2022-09-12T08:33:45Z</time>
      </trkpt>
      <trkpt lat="47.8748" lon="6.82159">
        <ele>848</ele>
        <time>2022-09-12T08:33:46Z</time>
      </trkpt>
      <trkpt lat="47.8748" lon="6.8216">
        <ele>848</ele>
        <time>2022-09-12T08:33:47Z</time>
      </trkpt>
      <trkpt lat="47.87481" lon="6.82161">
        <ele>848</ele>
        <time>2022-09-12T08:33:48Z</time>
      </trkpt>
      <trkpt lat="47.87481" lon="6.82162">
        <ele>848</ele>
        <time>2022-09-12T08:33:49Z</time>
      </trkpt>
      <trkpt lat="47.87481" lon="6.82163">
        <ele>848</ele>
        <time>2022-09-12T08:33:50Z</time>
      </trkpt>
      <trkpt lat="47.87482" lon="6.82164">
        <ele>848</ele>
        <time>2022-09-12T08:33:51Z</time>
      </trkpt>
      <trkpt lat="47.87482" lon="6.82165">
        <ele>848</ele>
        <time>2022-09-12T08:33:52Z</time>
      </trkpt>
      <trkpt lat="47.87483" lon="6.82165">
        <ele>848</ele>
        <time>2022-09-12T08:33:53Z</time>
      </trkpt>
      <trkpt lat="47.87483" lon="6.82166">
        <ele>848</ele>
        <time>2022-09-12T08:33:54Z</time>
      </trkpt>
      <trkpt lat="47.87484" lon="6.82167">
        <ele>848</ele>
        <time>2022-09-12T08:33:55Z</time>
      </trkpt>
      <trkpt lat="47.87484" lon="6.82167">
        <ele>848</ele>
        <time>2022-09-12T08:33:56Z</time>
      </trkpt>
      <trkpt lat="47.87484" lon="6.82167">
        <ele>848</ele>
        <time>2022-09-12T08:33:57Z</time>
      </trkpt>
      <trkpt lat="47.87485" lon="6.82168">
        <ele>848</ele>
        <time>2022-09-12T08:33:58Z</time>
      </trkpt>
      <trkpt lat="47.87486" lon="6.82169">
        <ele>848</ele>
        <time>2022-09-12T08:33:59Z</time>
      </trkpt>
      <trkpt lat="47.87486" lon="6.82169">
        <ele>848</ele>
        <time>2022-09-12T08:34:00Z</time>
      </trkpt>
      <trkpt lat="47.87487" lon="6.8217">
        <ele>849</ele>
        <time>2022-09-12T08:34:01Z</time>
      </trkpt>
      <trkpt lat="47.87487" lon="6.82171">
        <ele>848</ele>
        <time>2022-09-12T08:34:02Z</time>
      </trkpt>
      <trkpt lat="47.87487" lon="6.82172">
        <ele>848</ele>
        <time>2022-09-12T08:34:03Z</time>
      </trkpt>
      <trkpt lat="47.87487" lon="6.82173">
        <ele>848</ele>
        <time>2022-09-12T08:34:04Z</time>
      </trkpt>
      <trkpt lat="47.87487" lon="6.82174">
        <ele>848</ele>
        <time>2022-09-12T08:34:05Z</time>
      </trkpt>
      <trkpt lat="47.87487" lon="6.82176">
        <ele>848</ele>
        <time>2022-09-12T08:34:06Z</time>
      </trkpt>
      <trkpt lat="47.87487" lon="6.82177">
        <ele>848</ele>
        <time>2022-09-12T08:34:07Z</time>
      </trkpt>
      <trkpt lat="47.87487" lon="6.82178">
        <ele>848</ele>
        <time>2022-09-12T08:34:08Z</time>
      </trkpt>
      <trkpt lat="47.87487" lon="6.82179">
        <ele>848</ele>
        <time>2022-09-12T08:34:09Z</time>
      </trkpt>
      <trkpt lat="47.87487" lon="6.82181">
        <ele>848</ele>
        <time>2022-09-12T08:34:10Z</time>
      </trkpt>
      <trkpt lat="47.87487" lon="6.82181">
        <ele>848</ele>
        <time>2022-09-12T08:34:11Z</time>
      </trkpt>
      <trkpt lat="47.87488" lon="6.82182">
        <ele>848</ele>
        <time>2022-09-12T08:34:12Z</time>
      </trkpt>
      <trkpt lat="47.87488" lon="6.82183">
        <ele>848</ele>
        <time>2022-09-12T08:34:13Z</time>
      </trkpt>
      <trkpt lat="47.87488" lon="6.82184">
        <ele>848</ele>
        <time>2022-09-12T08:34:14Z</time>
      </trkpt>
      <trkpt lat="47.87489" lon="6.82184">
        <ele>848</ele>
        <time>2022-09-12T08:34:15Z</time>
      </trkpt>
      <trkpt lat="47.8749" lon="6.82185">
        <ele>848</ele>
        <time>2022-09-12T08:34:16Z</time>
      </trkpt>
      <trkpt lat="47.8749" lon="6.82185">
        <ele>848</ele>
        <time>2022-09-12T08:34:17Z</time>
      </trkpt>
      <trkpt lat="47.87491" lon="6.82186">
        <ele>848</ele>
        <time>2022-09-12T08:34:18Z</time>
      </trkpt>
      <trkpt lat="47.87492" lon="6.82186">
        <ele>848</ele>
        <time>2022-09-12T08:34:19Z</time>
      </trkpt>
      <trkpt lat="47.87493" lon="6.82187">
        <ele>848</ele>
        <time>2022-09-12T08:34:20Z</time>
      </trkpt>
      <trkpt lat="47.87494" lon="6.82187">
        <ele>848</ele>
        <time>2022-09-12T08:34:21Z</time>
      </trkpt>
      <trkpt lat="47.87494" lon="6.82188">
        <ele>848</ele>
        <time>2022-09-12T08:34:22Z</time>
      </trkpt>
      <trkpt lat="47.87495" lon="6.82188">
        <ele>848</ele>
        <time>2022-09-12T08:34:23Z</time>
      </trkpt>
      <trkpt lat="47.87496" lon="6.82189">
        <ele>848</ele>
        <time>2022-09-12T08:34:24Z</time>
      </trkpt>
      <trkpt lat="47.87497" lon="6.8219">
        <ele>848</ele>
        <time>2022-09-12T08:34:25Z</time>
      </trkpt>
      <trkpt lat="47.87498" lon="6.8219">
        <ele>848</ele>
        <time>2022-09-12T08:34:26Z</time>
      </trkpt>
      <trkpt lat="47.87499" lon="6.82191">
        <ele>848</ele>
        <time>2022-09-12T08:34:27Z</time>
      </trkpt>
      <trkpt lat="47.875" lon="6.82191">
        <ele>848</ele>
        <time>2022-09-12T08:34:28Z</time>
      </trkpt>
      <trkpt lat="47.87501" lon="6.82192">
        <ele>848</ele>
        <time>2022-09-12T08:34:29Z</time>
      </trkpt>
      <trkpt lat="47.87501" lon="6.82192">
        <ele>848</ele>
        <time>2022-09-12T08:34:30Z</time>
      </trkpt>
      <trkpt lat="47.87502" lon="6.82192">
        <ele>848</ele>
        <time>2022-09-12T08:34:31Z</time>
      </trkpt>
      <trkpt lat="47.87503" lon="6.82192">
        <ele>848</ele>
        <time>2022-09-12T08:34:32Z</time>
      </trkpt>
      <trkpt lat="47.87504" lon="6.82192">
        <ele>848</ele>
        <time>2022-09-12T08:34:33Z</time>
      </trkpt>
      <trkpt lat="47.87505" lon="6.82192">
        <ele>848</ele>
        <time>2022-09-12T08:34:34Z</time>
      </trkpt>
      <trkpt lat="47.87506" lon="6.82192">
        <ele>848</ele>
        <time>2022-09-12T08:34:35Z</time>
      </trkpt>
      <trkpt lat="47.87507" lon="6.82192">
        <ele>848</ele>
        <time>2022-09-12T08:34:36Z</time>
      </trkpt>
      <trkpt lat="47.87508" lon="6.82193">
        <ele>847</ele>
        <time>2022-09-12T08:34:37Z</time>
      </trkpt>
      <trkpt lat="47.87509" lon="6.82194">
        <ele>847</ele>
        <time>2022-09-12T08:34:38Z</time>
      </trkpt>
      <trkpt lat="47.87509" lon="6.82195">
        <ele>847</ele>
        <time>2022-09-12T08:34:39Z</time>
      </trkpt>
      <trkpt lat="47.8751" lon="6.82196">
        <ele>847</ele>
        <time>2022-09-12T08:34:40Z</time>
      </trkpt>
      <trkpt lat="47.87511" lon="6.82198">
        <ele>847</ele>
        <time>2022-09-12T08:34:41Z</time>
      </trkpt>
      <trkpt lat="47.87512" lon="6.82199">
        <ele>847</ele>
        <time>2022-09-12T08:34:42Z</time>
      </trkpt>
      <trkpt lat="47.87513" lon="6.822">
        <ele>847</ele>
        <time>2022-09-12T08:34:43Z</time>
      </trkpt>
      <trkpt lat="47.87514" lon="6.82201">
        <ele>847</ele>
        <time>2022-09-12T08:34:44Z</time>
      </trkpt>
      <trkpt lat="47.87514" lon="6.82202">
        <ele>847</ele>
        <time>2022-09-12T08:34:45Z</time>
      </trkpt>
      <trkpt lat="47.87514" lon="6.82202">
        <ele>847</ele>
        <time>2022-09-12T08:34:46Z</time>
      </trkpt>
      <trkpt lat="47.87515" lon="6.82202">
        <ele>847</ele>
        <time>2022-09-12T08:34:47Z</time>
      </trkpt>
      <trkpt lat="47.87515" lon="6.82203">
        <ele>847</ele>
        <time>2022-09-12T08:34:48Z</time>
      </trkpt>
      <trkpt lat="47.87516" lon="6.82203">
        <ele>847</ele>
        <time>2022-09-12T08:34:49Z</time>
      </trkpt>
      <trkpt lat="47.87516" lon="6.82204">
        <ele>847</ele>
        <time>2022-09-12T08:34:50Z</time>
      </trkpt>
      <trkpt lat="47.87517" lon="6.82204">
        <ele>847</ele>
        <time>2022-09-12T08:34:51Z</time>
      </trkpt>
      <trkpt lat="47.87518" lon="6.82205">
        <ele>847</ele>
        <time>2022-09-12T08:34:52Z</time>
      </trkpt>
      <trkpt lat="47.87519" lon="6.82205">
        <ele>847</ele>
        <time>2022-09-12T08:34:53Z</time>
      </trkpt>
      <trkpt lat="47.8752" lon="6.82206">
        <ele>847</ele>
        <time>2022-09-12T08:34:54Z</time>
      </trkpt>
      <trkpt lat="47.87521" lon="6.82206">
        <ele>847</ele>
        <time>2022-09-12T08:34:55Z</time>
      </trkpt>
      <trkpt lat="47.87522" lon="6.82206">
        <ele>847</ele>
        <time>2022-09-12T08:34:56Z</time>
      </trkpt>
      <trkpt lat="47.87523" lon="6.82207">
        <ele>847</ele>
        <time>2022-09-12T08:34:57Z</time>
      </trkpt>
      <trkpt lat="47.87524" lon="6.82207">
        <ele>847</ele>
        <time>2022-09-12T08:34:58Z</time>
      </trkpt>
      <trkpt lat="47.87525" lon="6.82208">
        <ele>847</ele>
        <time>2022-09-12T08:34:59Z</time>
      </trkpt>
      <trkpt lat="47.87526" lon="6.82208">
        <ele>847</ele>
        <time>2022-09-12T08:35:00Z</time>
      </trkpt>
      <trkpt lat="47.87527" lon="6.82209">
        <ele>847</ele>
        <time>2022-09-12T08:35:01Z</time>
      </trkpt>
      <trkpt lat="47.87528" lon="6.82209">
        <ele>847</ele>
        <time>2022-09-12T08:35:02Z</time>
      </trkpt>
      <trkpt lat="47.87529" lon="6.8221">
        <ele>847</ele>
        <time>2022-09-12T08:35:03Z</time>
      </trkpt>
      <trkpt lat="47.8753" lon="6.8221">
        <ele>847</ele>
        <time>2022-09-12T08:35:04Z</time>
      </trkpt>
      <trkpt lat="47.87531" lon="6.82211">
        <ele>847</ele>
        <time>2022-09-12T08:35:05Z</time>
      </trkpt>
      <trkpt lat="47.87532" lon="6.82212">
        <ele>847</ele>
        <time>2022-09-12T08:35:06Z</time>
      </trkpt>
      <trkpt lat="47.87533" lon="6.82212">
        <ele>847</ele>
        <time>2022-09-12T08:35:07Z</time>
      </trkpt>
      <trkpt lat="47.87534" lon="6.82213">
        <ele>847</ele>
        <time>2022-09-12T08:35:08Z</time>
      </trkpt>
      <trkpt lat="47.87535" lon="6.82214">
        <ele>847</ele>
        <time>2022-09-12T08:35:09Z</time>
      </trkpt>
      <trkpt lat="47.87536" lon="6.82214">
        <ele>847</ele>
        <time>2022-09-12T08:35:10Z</time>
      </trkpt>
      <trkpt lat="47.87537" lon="6.82214">
        <ele>847</ele>
        <time>2022-09-12T08:35:11Z</time>
      </trkpt>
      <trkpt lat="47.87538" lon="6.82214">
        <ele>847</ele>
        <time>2022-09-12T08:35:12Z</time>
      </trkpt>
      <trkpt lat="47.87539" lon="6.82215">
        <ele>847</ele>
        <time>2022-09-12T08:35:13Z</time>
      </trkpt>
      <trkpt lat="47.8754" lon="6.82216">
        <ele>847</ele>
        <time>2022-09-12T08:35:14Z</time>
      </trkpt>
      <trkpt lat="47.87541" lon="6.82217">
        <ele>847</ele>
        <time>2022-09-12T08:35:15Z</time>
      </trkpt>
      <trkpt lat="47.87542" lon="6.82218">
        <ele>847</ele>
        <time>2022-09-12T08:35:16Z</time>
      </trkpt>
      <trkpt lat="47.87543" lon="6.82219">
        <ele>847</ele>
        <time>2022-09-12T08:35:17Z</time>
      </trkpt>
      <trkpt lat="47.87543" lon="6.8222">
        <ele>847</ele>
        <time>2022-09-12T08:35:18Z</time>
      </trkpt>
      <trkpt lat="47.87544" lon="6.82221">
        <ele>847</ele>
        <time>2022-09-12T08:35:19Z</time>
      </trkpt>
      <trkpt lat="47.87545" lon="6.82222">
        <ele>847</ele>
        <time>2022-09-12T08:35:20Z</time>
      </trkpt>
      <trkpt lat="47.87546" lon="6.82223">
        <ele>847</ele>
        <time>2022-09-12T08:35:21Z</time>
      </trkpt>
      <trkpt lat="47.87546" lon="6.82224">
        <ele>847</ele>
        <time>2022-09-12T08:35:22Z</time>
      </trkpt>
      <trkpt lat="47.87547" lon="6.82225">
        <ele>847</ele>
        <time>2022-09-12T08:35:23Z</time>
      </trkpt>
      <trkpt lat="47.87548" lon="6.82225">
        <ele>847</ele>
        <time>2022-09-12T08:35:24Z</time>
      </trkpt>
      <trkpt lat="47.87548" lon="6.82226">
        <ele>847</ele>
        <time>2022-09-12T08:35:25Z</time>
      </trkpt>
      <trkpt lat="47.87549" lon="6.82227">
        <ele>847</ele>
        <time>2022-09-12T08:35:26Z</time>
      </trkpt>
      <trkpt lat="47.8755" lon="6.82228">
        <ele>847</ele>
        <time>2022-09-12T08:35:27Z</time>
      </trkpt>
      <trkpt lat="47.87551" lon="6.82229">
        <ele>847</ele>
        <time>2022-09-12T08:35:28Z</time>
      </trkpt>
      <trkpt lat="47.87552" lon="6.8223">
        <ele>847</ele>
        <time>2022-09-12T08:35:29Z</time>
      </trkpt>
      <trkpt lat="47.87553" lon="6.82231">
        <ele>847</ele>
        <time>2022-09-12T08:35:30Z</time>
      </trkpt>
      <trkpt lat="47.87554" lon="6.82232">
        <ele>847</ele>
        <time>2022-09-12T08:35:31Z</time>
      </trkpt>
      <trkpt lat="47.87554" lon="6.82233">
        <ele>847</ele>
        <time>2022-09-12T08:35:32Z</time>
      </trkpt>
      <trkpt lat="47.87555" lon="6.82234">
        <ele>847</ele>
        <time>2022-09-12T08:35:33Z</time>
      </trkpt>
      <trkpt lat="47.87555" lon="6.82234">
        <ele>847</ele>
        <time>2022-09-12T08:35:34Z</time>
      </trkpt>
      <trkpt lat="47.87556" lon="6.82235">
        <ele>847</ele>
        <time>2022-09-12T08:35:35Z</time>
      </trkpt>
      <trkpt lat="47.87556" lon="6.82236">
        <ele>847</ele>
        <time>2022-09-12T08:35:36Z</time>
      </trkpt>
      <trkpt lat="47.87557" lon="6.82237">
        <ele>847</ele>
        <time>2022-09-12T08:35:37Z</time>
      </trkpt>
      <trkpt lat="47.87558" lon="6.82237">
        <ele>847</ele>
        <time>2022-09-12T08:35:38Z</time>
      </trkpt>
      <trkpt lat="47.87559" lon="6.82238">
        <ele>847</ele>
        <time>2022-09-12T08:35:39Z</time>
      </trkpt>
      <trkpt lat="47.87559" lon="6.82238">
        <ele>847</ele>
        <time>2022-09-12T08:35:40Z</time>
      </trkpt>
      <trkpt lat="47.87561" lon="6.82239">
        <ele>848</ele>
        <time>2022-09-12T08:35:41Z</time>
      </trkpt>
      <trkpt lat="47.87562" lon="6.8224">
        <ele>848</ele>
        <time>2022-09-12T08:35:42Z</time>
      </trkpt>
      <trkpt lat="47.87563" lon="6.8224">
        <ele>848</ele>
        <time>2022-09-12T08:35:43Z</time>
      </trkpt>
      <trkpt lat="47.87564" lon="6.8224">
        <ele>848</ele>
        <time>2022-09-12T08:35:44Z</time>
      </trkpt>
      <trkpt lat="47.87566" lon="6.82241">
        <ele>848</ele>
        <time>2022-09-12T08:35:45Z</time>
      </trkpt>
      <trkpt lat="47.87567" lon="6.82242">
        <ele>848</ele>
        <time>2022-09-12T08:35:46Z</time>
      </trkpt>
      <trkpt lat="47.87568" lon="6.82243">
        <ele>848</ele>
        <time>2022-09-12T08:35:47Z</time>
      </trkpt>
      <trkpt lat="47.87569" lon="6.82243">
        <ele>848</ele>
        <time>2022-09-12T08:35:48Z</time>
      </trkpt>
      <trkpt lat="47.87571" lon="6.82244">
        <ele>848</ele>
        <time>2022-09-12T08:35:49Z</time>
      </trkpt>
      <trkpt lat="47.87572" lon="6.82245">
        <ele>848</ele>
        <time>2022-09-12T08:35:50Z</time>
      </trkpt>
      <trkpt lat="47.87573" lon="6.82245">
        <ele>848</ele>
        <time>2022-09-12T08:35:51Z</time>
      </trkpt>
      <trkpt lat="47.87574" lon="6.82246">
        <ele>848</ele>
        <time>2022-09-12T08:35:52Z</time>
      </trkpt>
      <trkpt lat="47.87575" lon="6.82246">
        <ele>848</ele>
        <time>2022-09-12T08:35:53Z</time>
      </trkpt>
      <trkpt lat="47.87576" lon="6.82247">
        <ele>848</ele>
        <time>2022-09-12T08:35:54Z</time>
      </trkpt>
      <trkpt lat="47.87576" lon="6.82248">
        <ele>848</ele>
        <time>2022-09-12T08:35:55Z</time>
      </trkpt>
      <trkpt lat="47.87577" lon="6.82248">
        <ele>849</ele>
        <time>2022-09-12T08:35:56Z</time>
      </trkpt>
      <trkpt lat="47.87578" lon="6.82249">
        <ele>849</ele>
        <time>2022-09-12T08:35:57Z</time>
      </trkpt>
      <trkpt lat="47.87579" lon="6.8225">
        <ele>849</ele>
        <time>2022-09-12T08:35:58Z</time>
      </trkpt>
      <trkpt lat="47.8758" lon="6.8225">
        <ele>849</ele>
        <time>2022-09-12T08:35:59Z</time>
      </trkpt>
      <trkpt lat="47.8758" lon="6.82251">
        <ele>849</ele>
        <time>2022-09-12T08:36:00Z</time>
      </trkpt>
      <trkpt lat="47.87581" lon="6.82251">
        <ele>849</ele>
        <time>2022-09-12T08:36:01Z</time>
      </trkpt>
      <trkpt lat="47.87581" lon="6.82252">
        <ele>849</ele>
        <time>2022-09-12T08:36:02Z</time>
      </trkpt>
      <trkpt lat="47.87582" lon="6.82253">
        <ele>849</ele>
        <time>2022-09-12T08:36:03Z</time>
      </trkpt>
      <trkpt lat="47.87582" lon="6.82254">
        <ele>849</ele>
        <time>2022-09-12T08:36:04Z</time>
      </trkpt>
      <trkpt lat="47.87582" lon="6.82254">
        <ele>849</ele>
        <time>2022-09-12T08:36:05Z</time>
      </trkpt>
      <trkpt lat="47.87582" lon="6.82254">
        <ele>849</ele>
        <time>2022-09-12T08:36:06Z</time>
      </trkpt>
      <trkpt lat="47.87582" lon="6.82255">
        <ele>849</ele>
        <time>2022-09-12T08:36:07Z</time>
      </trkpt>
      <trkpt lat="47.87582" lon="6.82255">
        <ele>849</ele>
        <time>2022-09-12T08:36:08Z</time>
      </trkpt>
      <trkpt lat="47.87583" lon="6.82256">
        <ele>849</ele>
        <time>2022-09-12T08:36:09Z</time>
      </trkpt>
      <trkpt lat="47.87584" lon="6.82257">
        <ele>849</ele>
        <time>2022-09-12T08:36:10Z</time>
      </trkpt>
      <trkpt lat="47.87584" lon="6.82258">
        <ele>849</ele>
        <time>2022-09-12T08:36:11Z</time>
      </trkpt>
      <trkpt lat="47.87585" lon="6.82259">
        <ele>849</ele>
        <time>2022-09-12T08:36:12Z</time>
      </trkpt>
      <trkpt lat="47.87586" lon="6.8226">
        <ele>849</ele>
        <time>2022-09-12T08:36:13Z</time>
      </trkpt>
      <trkpt lat="47.87586" lon="6.8226">
        <ele>849</ele>
        <time>2022-09-12T08:36:14Z</time>
      </trkpt>
      <trkpt lat="47.87587" lon="6.82261">
        <ele>849</ele>
        <time>2022-09-12T08:36:15Z</time>
      </trkpt>
      <trkpt lat="47.87587" lon="6.82262">
        <ele>850</ele>
        <time>2022-09-12T08:36:16Z</time>
      </trkpt>
      <trkpt lat="47.87588" lon="6.82263">
        <ele>850</ele>
        <time>2022-09-12T08:36:17Z</time>
      </trkpt>
      <trkpt lat="47.87588" lon="6.82264">
        <ele>850</ele>
        <time>2022-09-12T08:36:18Z</time>
      </trkpt>
      <trkpt lat="47.87589" lon="6.82265">
        <ele>851</ele>
        <time>2022-09-12T08:36:19Z</time>
      </trkpt>
      <trkpt lat="47.8759" lon="6.82266">
        <ele>851</ele>
        <time>2022-09-12T08:36:20Z</time>
      </trkpt>
      <trkpt lat="47.87591" lon="6.82267">
        <ele>852</ele>
        <time>2022-09-12T08:36:21Z</time>
      </trkpt>
      <trkpt lat="47.87592" lon="6.82267">
        <ele>852</ele>
        <time>2022-09-12T08:36:22Z</time>
      </trkpt>
      <trkpt lat="47.87593" lon="6.82268">
        <ele>852</ele>
        <time>2022-09-12T08:36:23Z</time>
      </trkpt>
      <trkpt lat="47.87594" lon="6.82269">
        <ele>852</ele>
        <time>2022-09-12T08:36:24Z</time>
      </trkpt>
      <trkpt lat="47.87594" lon="6.82269">
        <ele>852</ele>
        <time>2022-09-12T08:36:25Z</time>
      </trkpt>
      <trkpt lat="47.87595" lon="6.82269">
        <ele>852</ele>
        <time>2022-09-12T08:36:26Z</time>
      </trkpt>
      <trkpt lat="47.87595" lon="6.8227">
        <ele>852</ele>
        <time>2022-09-12T08:36:27Z</time>
      </trkpt>
      <trkpt lat="47.87596" lon="6.8227">
        <ele>852</ele>
        <time>2022-09-12T08:36:28Z</time>
      </trkpt>
      <trkpt lat="47.87597" lon="6.82271">
        <ele>852</ele>
        <time>2022-09-12T08:36:29Z</time>
      </trkpt>
      <trkpt lat="47.87597" lon="6.82271">
        <ele>852</ele>
        <time>2022-09-12T08:36:30Z</time>
      </trkpt>
      <trkpt lat="47.87598" lon="6.82272">
        <ele>853</ele>
        <time>2022-09-12T08:36:31Z</time>
      </trkpt>
      <trkpt lat="47.87599" lon="6.82272">
        <ele>853</ele>
        <time>2022-09-12T08:36:32Z</time>
      </trkpt>
      <trkpt lat="47.876" lon="6.82273">
        <ele>853</ele>
        <time>2022-09-12T08:36:33Z</time>
      </trkpt>
      <trkpt lat="47.876" lon="6.82274">
        <ele>853</ele>
        <time>2022-09-12T08:36:34Z</time>
      </trkpt>
      <trkpt lat="47.87601" lon="6.82275">
        <ele>853</ele>
        <time>2022-09-12T08:36:35Z</time>
      </trkpt>
      <trkpt lat="47.87602" lon="6.82275">
        <ele>854</ele>
        <time>2022-09-12T08:36:36Z</time>
      </trkpt>
      <trkpt lat="47.87603" lon="6.82276">
        <ele>854</ele>
        <time>2022-09-12T08:36:37Z</time>
      </trkpt>
      <trkpt lat="47.87604" lon="6.82276">
        <ele>854</ele>
        <time>2022-09-12T08:36:38Z</time>
      </trkpt>
      <trkpt lat="47.87604" lon="6.82277">
        <ele>854</ele>
        <time>2022-09-12T08:36:39Z</time>
      </trkpt>
      <trkpt lat="47.87605" lon="6.82278">
        <ele>854</ele>
        <time>2022-09-12T08:36:40Z</time>
      </trkpt>
      <trkpt lat="47.87606" lon="6.82278">
        <ele>855</ele>
        <time>2022-09-12T08:36:41Z</time>
      </trkpt>
      <trkpt lat="47.87607" lon="6.82279">
        <ele>855</ele>
        <time>2022-09-12T08:36:42Z</time>
      </trkpt>
      <trkpt lat="47.87607" lon="6.8228">
        <ele>855</ele>
        <time>2022-09-12T08:36:43Z</time>
      </trkpt>
      <trkpt lat="47.87607" lon="6.8228">
        <ele>855</ele>
        <time>2022-09-12T08:36:44Z</time>
      </trkpt>
      <trkpt lat="47.87608" lon="6.8228">
        <ele>855</ele>
        <time>2022-09-12T08:36:45Z</time>
      </trkpt>
      <trkpt lat="47.87608" lon="6.8228">
        <ele>856</ele>
        <time>2022-09-12T08:36:46Z</time>
      </trkpt>
      <trkpt lat="47.87608" lon="6.82281">
        <ele>856</ele>
        <time>2022-09-12T08:36:47Z</time>
      </trkpt>
      <trkpt lat="47.87609" lon="6.82281">
        <ele>856</ele>
        <time>2022-09-12T08:36:48Z</time>
      </trkpt>
      <trkpt lat="47.8761" lon="6.82282">
        <ele>856</ele>
        <time>2022-09-12T08:36:49Z</time>
      </trkpt>
      <trkpt lat="47.8761" lon="6.82283">
        <ele>856</ele>
        <time>2022-09-12T08:36:50Z</time>
      </trkpt>
      <trkpt lat="47.87611" lon="6.82283">
        <ele>856</ele>
        <time>2022-09-12T08:36:51Z</time>
      </trkpt>
      <trkpt lat="47.87611" lon="6.82284">
        <ele>856</ele>
        <time>2022-09-12T08:36:52Z</time>
      </trkpt>
      <trkpt lat="47.87612" lon="6.82285">
        <ele>856</ele>
        <time>2022-09-12T08:36:53Z</time>
      </trkpt>
      <trkpt lat="47.87612" lon="6.82285">
        <ele>856</ele>
        <time>2022-09-12T08:36:54Z</time>
      </trkpt>
      <trkpt lat="47.87613" lon="6.82286">
        <ele>856</ele>
        <time>2022-09-12T08:36:55Z</time>
      </trkpt>
      <trkpt lat="47.87614" lon="6.82287">
        <ele>857</ele>
        <time>2022-09-12T08:36:56Z</time>
      </trkpt>
      <trkpt lat="47.87614" lon="6.82287">
        <ele>857</ele>
        <time>2022-09-12T08:36:57Z</time>
      </trkpt>
      <trkpt lat="47.87615" lon="6.82288">
        <ele>857</ele>
        <time>2022-09-12T08:36:58Z</time>
      </trkpt>
      <trkpt lat="47.87616" lon="6.82289">
        <ele>857</ele>
        <time>2022-09-12T08:36:59Z</time>
      </trkpt>
      <trkpt lat="47.87617" lon="6.82289">
        <ele>857</ele>
        <time>2022-09-12T08:37:00Z</time>
      </trkpt>
      <trkpt lat="47.87617" lon="6.8229">
        <ele>858</ele>
        <time>2022-09-12T08:37:01Z</time>
      </trkpt>
      <trkpt lat="47.87618" lon="6.82291">
        <ele>858</ele>
        <time>2022-09-12T08:37:02Z</time>
      </trkpt>
      <trkpt lat="47.87618" lon="6.82292">
        <ele>858</ele>
        <time>2022-09-12T08:37:03Z</time>
      </trkpt>
      <trkpt lat="47.87619" lon="6.82292">
        <ele>858</ele>
        <time>2022-09-12T08:37:04Z</time>
      </trkpt>
      <trkpt lat="47.8762" lon="6.82293">
        <ele>858</ele>
        <time>2022-09-12T08:37:05Z</time>
      </trkpt>
      <trkpt lat="47.8762" lon="6.82294">
        <ele>858</ele>
        <time>2022-09-12T08:37:06Z</time>
      </trkpt>
      <trkpt lat="47.87621" lon="6.82294">
        <ele>858</ele>
        <time>2022-09-12T08:37:07Z</time>
      </trkpt>
      <trkpt lat="47.87621" lon="6.82295">
        <ele>858</ele>
        <time>2022-09-12T08:37:08Z</time>
      </trkpt>
      <trkpt lat="47.87622" lon="6.82295">
        <ele>858</ele>
        <time>2022-09-12T08:37:09Z</time>
      </trkpt>
      <trkpt lat="47.87623" lon="6.82296">
        <ele>858</ele>
        <time>2022-09-12T08:37:10Z</time>
      </trkpt>
      <trkpt lat="47.87623" lon="6.82296">
        <ele>859</ele>
        <time>2022-09-12T08:37:11Z</time>
      </trkpt>
      <trkpt lat="47.87624" lon="6.82297">
        <ele>859</ele>
        <time>2022-09-12T08:37:12Z</time>
      </trkpt>
      <trkpt lat="47.87624" lon="6.82297">
        <ele>859</ele>
        <time>2022-09-12T08:37:13Z</time>
      </trkpt>
      <trkpt lat="47.87625" lon="6.82297">
        <ele>859</ele>
        <time>2022-09-12T08:37:14Z</time>
      </trkpt>
      <trkpt lat="47.87625" lon="6.82298">
        <ele>859</ele>
        <time>2022-09-12T08:37:15Z</time>
      </trkpt>
      <trkpt lat="47.87626" lon="6.82298">
        <ele>860</ele>
        <time>2022-09-12T08:37:16Z</time>
      </trkpt>
      <trkpt lat="47.87626" lon="6.82299">
        <ele>860</ele>
        <time>2022-09-12T08:37:17Z</time>
      </trkpt>
      <trkpt lat="47.87627" lon="6.82299">
        <ele>860</ele>
        <time>2022-09-12T08:37:18Z</time>
      </trkpt>
      <trkpt lat="47.87627" lon="6.823">
        <ele>860</ele>
        <time>2022-09-12T08:37:19Z</time>
      </trkpt>
      <trkpt lat="47.87628" lon="6.823">
        <ele>860</ele>
        <time>2022-09-12T08:37:20Z</time>
      </trkpt>
      <trkpt lat="47.87628" lon="6.82301">
        <ele>860</ele>
        <time>2022-09-12T08:37:21Z</time>
      </trkpt>
      <trkpt lat="47.87629" lon="6.82302">
        <ele>860</ele>
        <time>2022-09-12T08:37:22Z</time>
      </trkpt>
      <trkpt lat="47.87629" lon="6.82302">
        <ele>860</ele>
        <time>2022-09-12T08:37:23Z</time>
      </trkpt>
      <trkpt lat="47.8763" lon="6.82303">
        <ele>860</ele>
        <time>2022-09-12T08:37:24Z</time>
      </trkpt>
      <trkpt lat="47.87631" lon="6.82303">
        <ele>860</ele>
        <time>2022-09-12T08:37:25Z</time>
      </trkpt>
      <trkpt lat="47.87632" lon="6.82303">
        <ele>860</ele>
        <time>2022-09-12T08:37:26Z</time>
      </trkpt>
      <trkpt lat="47.87632" lon="6.82304">
        <ele>860</ele>
        <time>2022-09-12T08:37:27Z</time>
      </trkpt>
      <trkpt lat="47.87633" lon="6.82305">
        <ele>860</ele>
        <time>2022-09-12T08:37:28Z</time>
      </trkpt>
      <trkpt lat="47.87634" lon="6.82305">
        <ele>860</ele>
        <time>2022-09-12T08:37:29Z</time>
      </trkpt>
      <trkpt lat="47.87634" lon="6.82306">
        <ele>860</ele>
        <time>2022-09-12T08:37:30Z</time>
      </trkpt>
      <trkpt lat="47.87635" lon="6.82307">
        <ele>861</ele>
        <time>2022-09-12T08:37:31Z</time>
      </trkpt>
      <trkpt lat="47.87635" lon="6.82307">
        <ele>861</ele>
        <time>2022-09-12T08:37:32Z</time>
      </trkpt>
      <trkpt lat="47.87636" lon="6.82308">
        <ele>861</ele>
        <time>2022-09-12T08:37:33Z</time>
      </trkpt>
      <trkpt lat="47.87636" lon="6.82309">
        <ele>861</ele>
        <time>2022-09-12T08:37:34Z</time>
      </trkpt>
      <trkpt lat="47.87636" lon="6.82309">
        <ele>861</ele>
        <time>2022-09-12T08:37:35Z</time>
      </trkpt>
      <trkpt lat="47.87637" lon="6.8231">
        <ele>862</ele>
        <time>2022-09-12T08:37:36Z</time>
      </trkpt>
      <trkpt lat="47.87638" lon="6.8231">
        <ele>862</ele>
        <time>2022-09-12T08:37:37Z</time>
      </trkpt>
      <trkpt lat="47.87638" lon="6.82311">
        <ele>862</ele>
        <time>2022-09-12T08:37:38Z</time>
      </trkpt>
      <trkpt lat="47.87639" lon="6.82312">
        <ele>862</ele>
        <time>2022-09-12T08:37:39Z</time>
      </trkpt>
      <trkpt lat="47.8764" lon="6.82312">
        <ele>862</ele>
        <time>2022-09-12T08:37:40Z</time>
      </trkpt>
      <trkpt lat="47.87641" lon="6.82313">
        <ele>862</ele>
        <time>2022-09-12T08:37:41Z</time>
      </trkpt>
      <trkpt lat="47.87641" lon="6.82313">
        <ele>862</ele>
        <time>2022-09-12T08:37:42Z</time>
      </trkpt>
      <trkpt lat="47.87642" lon="6.82313">
        <ele>862</ele>
        <time>2022-09-12T08:37:43Z</time>
      </trkpt>
      <trkpt lat="47.87643" lon="6.82314">
        <ele>862</ele>
        <time>2022-09-12T08:37:44Z</time>
      </trkpt>
      <trkpt lat="47.87643" lon="6.82315">
        <ele>862</ele>
        <time>2022-09-12T08:37:45Z</time>
      </trkpt>
      <trkpt lat="47.87644" lon="6.82315">
        <ele>863</ele>
        <time>2022-09-12T08:37:46Z</time>
      </trkpt>
      <trkpt lat="47.87645" lon="6.82316">
        <ele>863</ele>
        <time>2022-09-12T08:37:47Z</time>
      </trkpt>
      <trkpt lat="47.87646" lon="6.82317">
        <ele>863</ele>
        <time>2022-09-12T08:37:48Z</time>
      </trkpt>
      <trkpt lat="47.87647" lon="6.82317">
        <ele>863</ele>
        <time>2022-09-12T08:37:49Z</time>
      </trkpt>
      <trkpt lat="47.87648" lon="6.82318">
        <ele>863</ele>
        <time>2022-09-12T08:37:50Z</time>
      </trkpt>
      <trkpt lat="47.87649" lon="6.82318">
        <ele>863</ele>
        <time>2022-09-12T08:37:51Z</time>
      </trkpt>
      <trkpt lat="47.87649" lon="6.82319">
        <ele>863</ele>
        <time>2022-09-12T08:37:52Z</time>
      </trkpt>
      <trkpt lat="47.8765" lon="6.8232">
        <ele>863</ele>
        <time>2022-09-12T08:37:53Z</time>
      </trkpt>
      <trkpt lat="47.87651" lon="6.8232">
        <ele>863</ele>
        <time>2022-09-12T08:37:54Z</time>
      </trkpt>
      <trkpt lat="47.87652" lon="6.82321">
        <ele>863</ele>
        <time>2022-09-12T08:37:55Z</time>
      </trkpt>
      <trkpt lat="47.87653" lon="6.82322">
        <ele>864</ele>
        <time>2022-09-12T08:37:56Z</time>
      </trkpt>
      <trkpt lat="47.87653" lon="6.82322">
        <ele>864</ele>
        <time>2022-09-12T08:37:57Z</time>
      </trkpt>
      <trkpt lat="47.87654" lon="6.82323">
        <ele>864</ele>
        <time>2022-09-12T08:37:58Z</time>
      </trkpt>
      <trkpt lat="47.87655" lon="6.82324">
        <ele>864</ele>
        <time>2022-09-12T08:37:59Z</time>
      </trkpt>
      <trkpt lat="47.87656" lon="6.82325">
        <ele>864</ele>
        <time>2022-09-12T08:38:00Z</time>
      </trkpt>
      <trkpt lat="47.87656" lon="6.82325">
        <ele>865</ele>
        <time>2022-09-12T08:38:01Z</time>
      </trkpt>
      <trkpt lat="47.87657" lon="6.82326">
        <ele>865</ele>
        <time>2022-09-12T08:38:02Z</time>
      </trkpt>
      <trkpt lat="47.87658" lon="6.82327">
        <ele>865</ele>
        <time>2022-09-12T08:38:03Z</time>
      </trkpt>
      <trkpt lat="47.87658" lon="6.82328">
        <ele>865</ele>
        <time>2022-09-12T08:38:04Z</time>
      </trkpt>
      <trkpt lat="47.87658" lon="6.82328">
        <ele>865</ele>
        <time>2022-09-12T08:38:05Z</time>
      </trkpt>
      <trkpt lat="47.87659" lon="6.82329">
        <ele>866</ele>
        <time>2022-09-12T08:38:06Z</time>
      </trkpt>
      <trkpt lat="47.87659" lon="6.82329">
        <ele>866</ele>
        <time>2022-09-12T08:38:07Z</time>
      </trkpt>
      <trkpt lat="47.8766" lon="6.8233">
        <ele>866</ele>
        <time>2022-09-12T08:38:08Z</time>
      </trkpt>
      <trkpt lat="47.87661" lon="6.8233">
        <ele>866</ele>
        <time>2022-09-12T08:38:09Z</time>
      </trkpt>
      <trkpt lat="47.87661" lon="6.82331">
        <ele>866</ele>
        <time>2022-09-12T08:38:10Z</time>
      </trkpt>
      <trkpt lat="47.87662" lon="6.82331">
        <ele>866</ele>
        <time>2022-09-12T08:38:11Z</time>
      </trkpt>
      <trkpt lat="47.87663" lon="6.82332">
        <ele>866</ele>
        <time>2022-09-12T08:38:12Z</time>
      </trkpt>
      <trkpt lat="47.87663" lon="6.82333">
        <ele>866</ele>
        <time>2022-09-12T08:38:13Z</time>
      </trkpt>
      <trkpt lat="47.87665" lon="6.82334">
        <ele>866</ele>
        <time>2022-09-12T08:38:14Z</time>
      </trkpt>
      <trkpt lat="47.87666" lon="6.82335">
        <ele>866</ele>
        <time>2022-09-12T08:38:15Z</time>
      </trkpt>
      <trkpt lat="47.87668" lon="6.82338">
        <ele>867</ele>
        <time>2022-09-12T08:38:22Z</time>
      </trkpt>
      <trkpt lat="47.87669" lon="6.82339">
        <ele>867</ele>
        <time>2022-09-12T08:38:23Z</time>
      </trkpt>
      <trkpt lat="47.8767" lon="6.8234">
        <ele>867</ele>
        <time>2022-09-12T08:38:24Z</time>
      </trkpt>
      <trkpt lat="47.87671" lon="6.82341">
        <ele>867</ele>
        <time>2022-09-12T08:38:25Z</time>
      </trkpt>
      <trkpt lat="47.87672" lon="6.82342">
        <ele>868</ele>
        <time>2022-09-12T08:38:26Z</time>
      </trkpt>
      <trkpt lat="47.87672" lon="6.82344">
        <ele>868</ele>
        <time>2022-09-12T08:38:27Z</time>
      </trkpt>
      <trkpt lat="47.87673" lon="6.82345">
        <ele>868</ele>
        <time>2022-09-12T08:38:28Z</time>
      </trkpt>
      <trkpt lat="47.87673" lon="6.82346">
        <ele>868</ele>
        <time>2022-09-12T08:38:29Z</time>
      </trkpt>
      <trkpt lat="47.87674" lon="6.82347">
        <ele>868</ele>
        <time>2022-09-12T08:38:30Z</time>
      </trkpt>
      <trkpt lat="47.87674" lon="6.82349">
        <ele>868</ele>
        <time>2022-09-12T08:38:31Z</time>
      </trkpt>
      <trkpt lat="47.87675" lon="6.8235">
        <ele>868</ele>
        <time>2022-09-12T08:38:32Z</time>
      </trkpt>
      <trkpt lat="47.87675" lon="6.82352">
        <ele>868</ele>
        <time>2022-09-12T08:38:33Z</time>
      </trkpt>
      <trkpt lat="47.87676" lon="6.82353">
        <ele>868</ele>
        <time>2022-09-12T08:38:34Z</time>
      </trkpt>
      <trkpt lat="47.87676" lon="6.82355">
        <ele>868</ele>
        <time>2022-09-12T08:38:35Z</time>
      </trkpt>
      <trkpt lat="47.87677" lon="6.82356">
        <ele>868</ele>
        <time>2022-09-12T08:38:36Z</time>
      </trkpt>
      <trkpt lat="47.87677" lon="6.82357">
        <ele>868</ele>
        <time>2022-09-12T08:38:37Z</time>
      </trkpt>
      <trkpt lat="47.87678" lon="6.82359">
        <ele>868</ele>
        <time>2022-09-12T08:38:38Z</time>
      </trkpt>
      <trkpt lat="47.87678" lon="6.8236">
        <ele>868</ele>
        <time>2022-09-12T08:38:39Z</time>
      </trkpt>
      <trkpt lat="47.87679" lon="6.82361">
        <ele>868</ele>
        <time>2022-09-12T08:38:40Z</time>
      </trkpt>
      <trkpt lat="47.87679" lon="6.82363">
        <ele>869</ele>
        <time>2022-09-12T08:38:41Z</time>
      </trkpt>
      <trkpt lat="47.8768" lon="6.82364">
        <ele>869</ele>
        <time>2022-09-12T08:38:42Z</time>
      </trkpt>
      <trkpt lat="47.8768" lon="6.82365">
        <ele>869</ele>
        <time>2022-09-12T08:38:43Z</time>
      </trkpt>
      <trkpt lat="47.87681" lon="6.82366">
        <ele>869</ele>
        <time>2022-09-12T08:38:44Z</time>
      </trkpt>
      <trkpt lat="47.87681" lon="6.82367">
        <ele>869</ele>
        <time>2022-09-12T08:38:45Z</time>
      </trkpt>
      <trkpt lat="47.87682" lon="6.82368">
        <ele>869</ele>
        <time>2022-09-12T08:38:46Z</time>
      </trkpt>
      <trkpt lat="47.87682" lon="6.8237">
        <ele>869</ele>
        <time>2022-09-12T08:38:47Z</time>
      </trkpt>
      <trkpt lat="47.87683" lon="6.82371">
        <ele>869</ele>
        <time>2022-09-12T08:38:48Z</time>
      </trkpt>
      <trkpt lat="47.87683" lon="6.82372">
        <ele>869</ele>
        <time>2022-09-12T08:38:49Z</time>
      </trkpt>
      <trkpt lat="47.87684" lon="6.82374">
        <ele>869</ele>
        <time>2022-09-12T08:38:50Z</time>
      </trkpt>
      <trkpt lat="47.87684" lon="6.82375">
        <ele>869</ele>
        <time>2022-09-12T08:38:51Z</time>
      </trkpt>
      <trkpt lat="47.87685" lon="6.82376">
        <ele>869</ele>
        <time>2022-09-12T08:38:52Z</time>
      </trkpt>
      <trkpt lat="47.87685" lon="6.82378">
        <ele>869</ele>
        <time>2022-09-12T08:38:53Z</time>
      </trkpt>
      <trkpt lat="47.87685" lon="6.82379">
        <ele>869</ele>
        <time>2022-09-12T08:38:54Z</time>
      </trkpt>
      <trkpt lat="47.87685" lon="6.8238">
        <ele>869</ele>
        <time>2022-09-12T08:38:55Z</time>
      </trkpt>
      <trkpt lat="47.87686" lon="6.82381">
        <ele>869</ele>
        <time>2022-09-12T08:38:56Z</time>
      </trkpt>
      <trkpt lat="47.87686" lon="6.82383">
        <ele>869</ele>
        <time>2022-09-12T08:38:57Z</time>
      </trkpt>
      <trkpt lat="47.87687" lon="6.82383">
        <ele>869</ele>
        <time>2022-09-12T08:38:58Z</time>
      </trkpt>
      <trkpt lat="47.87687" lon="6.82384">
        <ele>869</ele>
        <time>2022-09-12T08:38:59Z</time>
      </trkpt>
      <trkpt lat="47.87687" lon="6.82385">
        <ele>869</ele>
        <time>2022-09-12T08:39:00Z</time>
      </trkpt>
      <trkpt lat="47.87688" lon="6.82386">
        <ele>869</ele>
        <time>2022-09-12T08:39:01Z</time>
      </trkpt>
      <trkpt lat="47.87688" lon="6.82388">
        <ele>869</ele>
        <time>2022-09-12T08:39:02Z</time>
      </trkpt>
      <trkpt lat="47.87689" lon="6.82389">
        <ele>869</ele>
        <time>2022-09-12T08:39:03Z</time>
      </trkpt>
      <trkpt lat="47.87689" lon="6.8239">
        <ele>869</ele>
        <time>2022-09-12T08:39:04Z</time>
      </trkpt>
      <trkpt lat="47.87689" lon="6.82391">
        <ele>869</ele>
        <time>2022-09-12T08:39:05Z</time>
      </trkpt>
      <trkpt lat="47.87689" lon="6.82393">
        <ele>870</ele>
        <time>2022-09-12T08:39:06Z</time>
      </trkpt>
      <trkpt lat="47.8769" lon="6.82394">
        <ele>870</ele>
        <time>2022-09-12T08:39:07Z</time>
      </trkpt>
      <trkpt lat="47.8769" lon="6.82395">
        <ele>870</ele>
        <time>2022-09-12T08:39:08Z</time>
      </trkpt>
      <trkpt lat="47.87691" lon="6.82396">
        <ele>870</ele>
        <time>2022-09-12T08:39:09Z</time>
      </trkpt>
      <trkpt lat="47.87691" lon="6.82397">
        <ele>870</ele>
        <time>2022-09-12T08:39:10Z</time>
      </trkpt>
      <trkpt lat="47.87692" lon="6.82398">
        <ele>870</ele>
        <time>2022-09-12T08:39:11Z</time>
      </trkpt>
      <trkpt lat="47.87692" lon="6.82399">
        <ele>870</ele>
        <time>2022-09-12T08:39:12Z</time>
      </trkpt>
      <trkpt lat="47.87693" lon="6.824">
        <ele>870</ele>
        <time>2022-09-12T08:39:13Z</time>
      </trkpt>
      <trkpt lat="47.87693" lon="6.82401">
        <ele>870</ele>
        <time>2022-09-12T08:39:14Z</time>
      </trkpt>
      <trkpt lat="47.87694" lon="6.82403">
        <ele>870</ele>
        <time>2022-09-12T08:39:15Z</time>
      </trkpt>
      <trkpt lat="47.87694" lon="6.82404">
        <ele>870</ele>
        <time>2022-09-12T08:39:16Z</time>
      </trkpt>
      <trkpt lat="47.87695" lon="6.82406">
        <ele>870</ele>
        <time>2022-09-12T08:39:17Z</time>
      </trkpt>
      <trkpt lat="47.87695" lon="6.82407">
        <ele>870</ele>
        <time>2022-09-12T08:39:18Z</time>
      </trkpt>
      <trkpt lat="47.87696" lon="6.82408">
        <ele>870</ele>
        <time>2022-09-12T08:39:19Z</time>
      </trkpt>
      <trkpt lat="47.87696" lon="6.82409">
        <ele>870</ele>
        <time>2022-09-12T08:39:20Z</time>
      </trkpt>
      <trkpt lat="47.87697" lon="6.82411">
        <ele>870</ele>
        <time>2022-09-12T08:39:21Z</time>
      </trkpt>
      <trkpt lat="47.87697" lon="6.82412">
        <ele>870</ele>
        <time>2022-09-12T08:39:22Z</time>
      </trkpt>
      <trkpt lat="47.87698" lon="6.82413">
        <ele>870</ele>
        <time>2022-09-12T08:39:23Z</time>
      </trkpt>
      <trkpt lat="47.87699" lon="6.82414">
        <ele>870</ele>
        <time>2022-09-12T08:39:24Z</time>
      </trkpt>
      <trkpt lat="47.87699" lon="6.82415">
        <ele>870</ele>
        <time>2022-09-12T08:39:25Z</time>
      </trkpt>
      <trkpt lat="47.877" lon="6.82416">
        <ele>870</ele>
        <time>2022-09-12T08:39:26Z</time>
      </trkpt>
      <trkpt lat="47.87701" lon="6.82417">
        <ele>870</ele>
        <time>2022-09-12T08:39:27Z</time>
      </trkpt>
      <trkpt lat="47.87701" lon="6.82418">
        <ele>870</ele>
        <time>2022-09-12T08:39:28Z</time>
      </trkpt>
      <trkpt lat="47.87702" lon="6.82419">
        <ele>870</ele>
        <time>2022-09-12T08:39:29Z</time>
      </trkpt>
      <trkpt lat="47.87703" lon="6.8242">
        <ele>870</ele>
        <time>2022-09-12T08:39:30Z</time>
      </trkpt>
      <trkpt lat="47.87703" lon="6.82421">
        <ele>870</ele>
        <time>2022-09-12T08:39:31Z</time>
      </trkpt>
      <trkpt lat="47.87704" lon="6.82422">
        <ele>869</ele>
        <time>2022-09-12T08:39:32Z</time>
      </trkpt>
      <trkpt lat="47.87704" lon="6.82423">
        <ele>869</ele>
        <time>2022-09-12T08:39:33Z</time>
      </trkpt>
      <trkpt lat="47.87705" lon="6.82425">
        <ele>869</ele>
        <time>2022-09-12T08:39:34Z</time>
      </trkpt>
      <trkpt lat="47.87705" lon="6.82426">
        <ele>869</ele>
        <time>2022-09-12T08:39:35Z</time>
      </trkpt>
      <trkpt lat="47.87706" lon="6.82427">
        <ele>869</ele>
        <time>2022-09-12T08:39:36Z</time>
      </trkpt>
      <trkpt lat="47.87706" lon="6.82428">
        <ele>869</ele>
        <time>2022-09-12T08:39:37Z</time>
      </trkpt>
      <trkpt lat="47.87706" lon="6.82429">
        <ele>869</ele>
        <time>2022-09-12T08:39:38Z</time>
      </trkpt>
      <trkpt lat="47.87707" lon="6.8243">
        <ele>869</ele>
        <time>2022-09-12T08:39:39Z</time>
      </trkpt>
      <trkpt lat="47.87707" lon="6.82432">
        <ele>869</ele>
        <time>2022-09-12T08:39:40Z</time>
      </trkpt>
      <trkpt lat="47.87708" lon="6.82433">
        <ele>869</ele>
        <time>2022-09-12T08:39:41Z</time>
      </trkpt>
      <trkpt lat="47.87708" lon="6.82434">
        <ele>869</ele>
        <time>2022-09-12T08:39:42Z</time>
      </trkpt>
      <trkpt lat="47.87709" lon="6.82435">
        <ele>869</ele>
        <time>2022-09-12T08:39:43Z</time>
      </trkpt>
      <trkpt lat="47.87709" lon="6.82436">
        <ele>869</ele>
        <time>2022-09-12T08:39:44Z</time>
      </trkpt>
      <trkpt lat="47.87709" lon="6.82437">
        <ele>869</ele>
        <time>2022-09-12T08:39:45Z</time>
      </trkpt>
      <trkpt lat="47.8771" lon="6.82438">
        <ele>869</ele>
        <time>2022-09-12T08:39:46Z</time>
      </trkpt>
      <trkpt lat="47.8771" lon="6.82439">
        <ele>869</ele>
        <time>2022-09-12T08:39:47Z</time>
      </trkpt>
      <trkpt lat="47.8771" lon="6.8244">
        <ele>869</ele>
        <time>2022-09-12T08:39:48Z</time>
      </trkpt>
      <trkpt lat="47.87711" lon="6.82441">
        <ele>869</ele>
        <time>2022-09-12T08:39:49Z</time>
      </trkpt>
      <trkpt lat="47.87711" lon="6.82443">
        <ele>869</ele>
        <time>2022-09-12T08:39:50Z</time>
      </trkpt>
      <trkpt lat="47.87712" lon="6.82445">
        <ele>869</ele>
        <time>2022-09-12T08:39:51Z</time>
      </trkpt>
      <trkpt lat="47.87713" lon="6.82446">
        <ele>868</ele>
        <time>2022-09-12T08:39:52Z</time>
      </trkpt>
      <trkpt lat="47.87713" lon="6.82448">
        <ele>868</ele>
        <time>2022-09-12T08:39:53Z</time>
      </trkpt>
      <trkpt lat="47.87714" lon="6.8245">
        <ele>868</ele>
        <time>2022-09-12T08:39:54Z</time>
      </trkpt>
      <trkpt lat="47.87715" lon="6.82452">
        <ele>868</ele>
        <time>2022-09-12T08:39:55Z</time>
      </trkpt>
      <trkpt lat="47.87716" lon="6.82454">
        <ele>868</ele>
        <time>2022-09-12T08:39:56Z</time>
      </trkpt>
      <trkpt lat="47.87717" lon="6.82456">
        <ele>868</ele>
        <time>2022-09-12T08:39:57Z</time>
      </trkpt>
      <trkpt lat="47.87717" lon="6.82458">
        <ele>868</ele>
        <time>2022-09-12T08:39:58Z</time>
      </trkpt>
      <trkpt lat="47.87717" lon="6.82459">
        <ele>868</ele>
        <time>2022-09-12T08:39:59Z</time>
      </trkpt>
      <trkpt lat="47.87717" lon="6.82461">
        <ele>868</ele>
        <time>2022-09-12T08:40:00Z</time>
      </trkpt>
      <trkpt lat="47.87717" lon="6.82462">
        <ele>868</ele>
        <time>2022-09-12T08:40:01Z</time>
      </trkpt>
      <trkpt lat="47.87717" lon="6.82464">
        <ele>867</ele>
        <time>2022-09-12T08:40:02Z</time>
      </trkpt>
      <trkpt lat="47.87717" lon="6.82465">
        <ele>867</ele>
        <time>2022-09-12T08:40:03Z</time>
      </trkpt>
      <trkpt lat="47.87717" lon="6.82467">
        <ele>867</ele>
        <time>2022-09-12T08:40:04Z</time>
      </trkpt>
      <trkpt lat="47.87717" lon="6.82468">
        <ele>867</ele>
        <time>2022-09-12T08:40:05Z</time>
      </trkpt>
      <trkpt lat="47.87717" lon="6.8247">
        <ele>867</ele>
        <time>2022-09-12T08:40:06Z</time>
      </trkpt>
      <trkpt lat="47.87717" lon="6.82471">
        <ele>867</ele>
        <time>2022-09-12T08:40:07Z</time>
      </trkpt>
      <trkpt lat="47.87717" lon="6.82473">
        <ele>867</ele>
        <time>2022-09-12T08:40:08Z</time>
      </trkpt>
      <trkpt lat="47.87717" lon="6.82475">
        <ele>867</ele>
        <time>2022-09-12T08:40:09Z</time>
      </trkpt>
      <trkpt lat="47.87717" lon="6.82476">
        <ele>867</ele>
        <time>2022-09-12T08:40:10Z</time>
      </trkpt>
      <trkpt lat="47.87717" lon="6.82478">
        <ele>867</ele>
        <time>2022-09-12T08:40:11Z</time>
      </trkpt>
      <trkpt lat="47.87718" lon="6.82479">
        <ele>866</ele>
        <time>2022-09-12T08:40:12Z</time>
      </trkpt>
      <trkpt lat="47.87718" lon="6.82481">
        <ele>866</ele>
        <time>2022-09-12T08:40:13Z</time>
      </trkpt>
      <trkpt lat="47.87718" lon="6.82482">
        <ele>866</ele>
        <time>2022-09-12T08:40:14Z</time>
      </trkpt>
      <trkpt lat="47.87718" lon="6.82484">
        <ele>866</ele>
        <time>2022-09-12T08:40:15Z</time>
      </trkpt>
      <trkpt lat="47.87718" lon="6.82485">
        <ele>866</ele>
        <time>2022-09-12T08:40:16Z</time>
      </trkpt>
      <trkpt lat="47.87719" lon="6.82486">
        <ele>866</ele>
        <time>2022-09-12T08:40:17Z</time>
      </trkpt>
      <trkpt lat="47.87719" lon="6.82488">
        <ele>866</ele>
        <time>2022-09-12T08:40:18Z</time>
      </trkpt>
      <trkpt lat="47.87719" lon="6.82489">
        <ele>866</ele>
        <time>2022-09-12T08:40:19Z</time>
      </trkpt>
      <trkpt lat="47.8772" lon="6.8249">
        <ele>866</ele>
        <time>2022-09-12T08:40:20Z</time>
      </trkpt>
      <trkpt lat="47.8772" lon="6.82492">
        <ele>866</ele>
        <time>2022-09-12T08:40:21Z</time>
      </trkpt>
      <trkpt lat="47.87721" lon="6.82493">
        <ele>865</ele>
        <time>2022-09-12T08:40:22Z</time>
      </trkpt>
      <trkpt lat="47.87721" lon="6.82494">
        <ele>865</ele>
        <time>2022-09-12T08:40:23Z</time>
      </trkpt>
      <trkpt lat="47.87721" lon="6.82495">
        <ele>865</ele>
        <time>2022-09-12T08:40:24Z</time>
      </trkpt>
      <trkpt lat="47.87722" lon="6.82497">
        <ele>865</ele>
        <time>2022-09-12T08:40:25Z</time>
      </trkpt>
      <trkpt lat="47.87722" lon="6.82498">
        <ele>865</ele>
        <time>2022-09-12T08:40:26Z</time>
      </trkpt>
      <trkpt lat="47.87723" lon="6.82499">
        <ele>865</ele>
        <time>2022-09-12T08:40:27Z</time>
      </trkpt>
      <trkpt lat="47.87723" lon="6.82501">
        <ele>865</ele>
        <time>2022-09-12T08:40:28Z</time>
      </trkpt>
      <trkpt lat="47.87724" lon="6.82502">
        <ele>865</ele>
        <time>2022-09-12T08:40:29Z</time>
      </trkpt>
      <trkpt lat="47.87725" lon="6.82504">
        <ele>865</ele>
        <time>2022-09-12T08:40:30Z</time>
      </trkpt>
      <trkpt lat="47.87725" lon="6.82505">
        <ele>865</ele>
        <time>2022-09-12T08:40:31Z</time>
      </trkpt>
      <trkpt lat="47.87726" lon="6.82507">
        <ele>865</ele>
        <time>2022-09-12T08:40:32Z</time>
      </trkpt>
      <trkpt lat="47.87726" lon="6.82508">
        <ele>865</ele>
        <time>2022-09-12T08:40:33Z</time>
      </trkpt>
      <trkpt lat="47.87727" lon="6.82509">
        <ele>865</ele>
        <time>2022-09-12T08:40:34Z</time>
      </trkpt>
      <trkpt lat="47.87727" lon="6.8251">
        <ele>865</ele>
        <time>2022-09-12T08:40:35Z</time>
      </trkpt>
      <trkpt lat="47.87728" lon="6.82512">
        <ele>865</ele>
        <time>2022-09-12T08:40:36Z</time>
      </trkpt>
      <trkpt lat="47.87728" lon="6.82513">
        <ele>864</ele>
        <time>2022-09-12T08:40:37Z</time>
      </trkpt>
      <trkpt lat="47.87728" lon="6.82514">
        <ele>864</ele>
        <time>2022-09-12T08:40:38Z</time>
      </trkpt>
      <trkpt lat="47.87728" lon="6.82516">
        <ele>864</ele>
        <time>2022-09-12T08:40:39Z</time>
      </trkpt>
      <trkpt lat="47.87729" lon="6.82517">
        <ele>864</ele>
        <time>2022-09-12T08:40:40Z</time>
      </trkpt>
      <trkpt lat="47.87729" lon="6.82519">
        <ele>864</ele>
        <time>2022-09-12T08:40:41Z</time>
      </trkpt>
      <trkpt lat="47.87729" lon="6.82521">
        <ele>864</ele>
        <time>2022-09-12T08:40:42Z</time>
      </trkpt>
      <trkpt lat="47.87729" lon="6.82522">
        <ele>864</ele>
        <time>2022-09-12T08:40:43Z</time>
      </trkpt>
      <trkpt lat="47.87729" lon="6.82524">
        <ele>864</ele>
        <time>2022-09-12T08:40:44Z</time>
      </trkpt>
      <trkpt lat="47.8773" lon="6.82525">
        <ele>864</ele>
        <time>2022-09-12T08:40:45Z</time>
      </trkpt>
      <trkpt lat="47.8773" lon="6.82527">
        <ele>864</ele>
        <time>2022-09-12T08:40:46Z</time>
      </trkpt>
      <trkpt lat="47.8773" lon="6.82528">
        <ele>864</ele>
        <time>2022-09-12T08:40:47Z</time>
      </trkpt>
      <trkpt lat="47.8773" lon="6.82529">
        <ele>864</ele>
        <time>2022-09-12T08:40:48Z</time>
      </trkpt>
      <trkpt lat="47.8773" lon="6.82531">
        <ele>864</ele>
        <time>2022-09-12T08:40:49Z</time>
      </trkpt>
      <trkpt lat="47.8773" lon="6.82532">
        <ele>864</ele>
        <time>2022-09-12T08:40:50Z</time>
      </trkpt>
      <trkpt lat="47.8773" lon="6.82533">
        <ele>864</ele>
        <time>2022-09-12T08:40:51Z</time>
      </trkpt>
      <trkpt lat="47.87731" lon="6.82535">
        <ele>864</ele>
        <time>2022-09-12T08:40:52Z</time>
      </trkpt>
      <trkpt lat="47.87731" lon="6.82536">
        <ele>864</ele>
        <time>2022-09-12T08:40:53Z</time>
      </trkpt>
      <trkpt lat="47.87731" lon="6.82537">
        <ele>864</ele>
        <time>2022-09-12T08:40:54Z</time>
      </trkpt>
      <trkpt lat="47.87731" lon="6.82538">
        <ele>864</ele>
        <time>2022-09-12T08:40:55Z</time>
      </trkpt>
      <trkpt lat="47.87732" lon="6.82539">
        <ele>864</ele>
        <time>2022-09-12T08:40:56Z</time>
      </trkpt>
      <trkpt lat="47.87732" lon="6.82541">
        <ele>864</ele>
        <time>2022-09-12T08:40:57Z</time>
      </trkpt>
      <trkpt lat="47.87733" lon="6.82542">
        <ele>864</ele>
        <time>2022-09-12T08:40:58Z</time>
      </trkpt>
      <trkpt lat="47.87733" lon="6.82543">
        <ele>864</ele>
        <time>2022-09-12T08:40:59Z</time>
      </trkpt>
      <trkpt lat="47.87733" lon="6.82544">
        <ele>864</ele>
        <time>2022-09-12T08:41:00Z</time>
      </trkpt>
      <trkpt lat="47.87733" lon="6.82545">
        <ele>864</ele>
        <time>2022-09-12T08:41:01Z</time>
      </trkpt>
      <trkpt lat="47.87734" lon="6.82547">
        <ele>864</ele>
        <time>2022-09-12T08:41:02Z</time>
      </trkpt>
      <trkpt lat="47.87734" lon="6.82548">
        <ele>864</ele>
        <time>2022-09-12T08:41:03Z</time>
      </trkpt>
      <trkpt lat="47.87734" lon="6.8255">
        <ele>864</ele>
        <time>2022-09-12T08:41:04Z</time>
      </trkpt>
      <trkpt lat="47.87734" lon="6.82551">
        <ele>864</ele>
        <time>2022-09-12T08:41:05Z</time>
      </trkpt>
      <trkpt lat="47.87734" lon="6.82552">
        <ele>864</ele>
        <time>2022-09-12T08:41:06Z</time>
      </trkpt>
      <trkpt lat="47.87734" lon="6.82554">
        <ele>864</ele>
        <time>2022-09-12T08:41:07Z</time>
      </trkpt>
      <trkpt lat="47.87735" lon="6.82555">
        <ele>864</ele>
        <time>2022-09-12T08:41:08Z</time>
      </trkpt>
      <trkpt lat="47.87735" lon="6.82556">
        <ele>864</ele>
        <time>2022-09-12T08:41:09Z</time>
      </trkpt>
      <trkpt lat="47.87736" lon="6.82557">
        <ele>864</ele>
        <time>2022-09-12T08:41:10Z</time>
      </trkpt>
      <trkpt lat="47.87736" lon="6.82558">
        <ele>864</ele>
        <time>2022-09-12T08:41:11Z</time>
      </trkpt>
      <trkpt lat="47.87737" lon="6.82559">
        <ele>864</ele>
        <time>2022-09-12T08:41:12Z</time>
      </trkpt>
      <trkpt lat="47.87737" lon="6.8256">
        <ele>864</ele>
        <time>2022-09-12T08:41:13Z</time>
      </trkpt>
      <trkpt lat="47.87738" lon="6.82561">
        <ele>864</ele>
        <time>2022-09-12T08:41:14Z</time>
      </trkpt>
      <trkpt lat="47.87738" lon="6.82562">
        <ele>864</ele>
        <time>2022-09-12T08:41:15Z</time>
      </trkpt>
      <trkpt lat="47.87739" lon="6.82563">
        <ele>864</ele>
        <time>2022-09-12T08:41:16Z</time>
      </trkpt>
      <trkpt lat="47.87739" lon="6.82564">
        <ele>864</ele>
        <time>2022-09-12T08:41:17Z</time>
      </trkpt>
      <trkpt lat="47.8774" lon="6.82565">
        <ele>864</ele>
        <time>2022-09-12T08:41:18Z</time>
      </trkpt>
      <trkpt lat="47.8774" lon="6.82566">
        <ele>864</ele>
        <time>2022-09-12T08:41:19Z</time>
      </trkpt>
      <trkpt lat="47.87741" lon="6.82566">
        <ele>864</ele>
        <time>2022-09-12T08:41:20Z</time>
      </trkpt>
      <trkpt lat="47.87741" lon="6.82567">
        <ele>864</ele>
        <time>2022-09-12T08:41:21Z</time>
      </trkpt>
      <trkpt lat="47.87742" lon="6.82568">
        <ele>864</ele>
        <time>2022-09-12T08:41:22Z</time>
      </trkpt>
      <trkpt lat="47.87742" lon="6.82569">
        <ele>864</ele>
        <time>2022-09-12T08:41:23Z</time>
      </trkpt>
      <trkpt lat="47.87743" lon="6.8257">
        <ele>864</ele>
        <time>2022-09-12T08:41:24Z</time>
      </trkpt>
      <trkpt lat="47.87744" lon="6.8257">
        <ele>864</ele>
        <time>2022-09-12T08:41:25Z</time>
      </trkpt>
      <trkpt lat="47.87745" lon="6.8257">
        <ele>864</ele>
        <time>2022-09-12T08:41:26Z</time>
      </trkpt>
      <trkpt lat="47.87745" lon="6.8257">
        <ele>864</ele>
        <time>2022-09-12T08:41:27Z</time>
      </trkpt>
      <trkpt lat="47.87746" lon="6.82571">
        <ele>864</ele>
        <time>2022-09-12T08:41:28Z</time>
      </trkpt>
      <trkpt lat="47.87747" lon="6.82571">
        <ele>864</ele>
        <time>2022-09-12T08:41:29Z</time>
      </trkpt>
      <trkpt lat="47.87748" lon="6.82571">
        <ele>864</ele>
        <time>2022-09-12T08:41:30Z</time>
      </trkpt>
      <trkpt lat="47.8775" lon="6.82571">
        <ele>864</ele>
        <time>2022-09-12T08:41:31Z</time>
      </trkpt>
      <trkpt lat="47.87751" lon="6.82572">
        <ele>864</ele>
        <time>2022-09-12T08:41:32Z</time>
      </trkpt>
      <trkpt lat="47.87752" lon="6.82573">
        <ele>864</ele>
        <time>2022-09-12T08:41:33Z</time>
      </trkpt>
      <trkpt lat="47.87753" lon="6.82574">
        <ele>864</ele>
        <time>2022-09-12T08:41:34Z</time>
      </trkpt>
      <trkpt lat="47.87754" lon="6.82575">
        <ele>864</ele>
        <time>2022-09-12T08:41:35Z</time>
      </trkpt>
      <trkpt lat="47.87755" lon="6.82576">
        <ele>864</ele>
        <time>2022-09-12T08:41:36Z</time>
      </trkpt>
      <trkpt lat="47.87755" lon="6.82577">
        <ele>863</ele>
        <time>2022-09-12T08:41:37Z</time>
      </trkpt>
      <trkpt lat="47.87756" lon="6.82578">
        <ele>863</ele>
        <time>2022-09-12T08:41:38Z</time>
      </trkpt>
      <trkpt lat="47.87757" lon="6.82579">
        <ele>863</ele>
        <time>2022-09-12T08:41:39Z</time>
      </trkpt>
      <trkpt lat="47.87758" lon="6.82581">
        <ele>863</ele>
        <time>2022-09-12T08:41:40Z</time>
      </trkpt>
      <trkpt lat="47.87759" lon="6.82582">
        <ele>863</ele>
        <time>2022-09-12T08:41:41Z</time>
      </trkpt>
      <trkpt lat="47.87759" lon="6.82583">
        <ele>863</ele>
        <time>2022-09-12T08:41:42Z</time>
      </trkpt>
      <trkpt lat="47.8776" lon="6.82584">
        <ele>863</ele>
        <time>2022-09-12T08:41:43Z</time>
      </trkpt>
      <trkpt lat="47.87761" lon="6.82584">
        <ele>863</ele>
        <time>2022-09-12T08:41:44Z</time>
      </trkpt>
      <trkpt lat="47.87761" lon="6.82585">
        <ele>863</ele>
        <time>2022-09-12T08:41:45Z</time>
      </trkpt>
      <trkpt lat="47.87762" lon="6.82585">
        <ele>863</ele>
        <time>2022-09-12T08:41:46Z</time>
      </trkpt>
      <trkpt lat="47.87763" lon="6.82586">
        <ele>863</ele>
        <time>2022-09-12T08:41:47Z</time>
      </trkpt>
      <trkpt lat="47.87763" lon="6.82586">
        <ele>863</ele>
        <time>2022-09-12T08:41:48Z</time>
      </trkpt>
      <trkpt lat="47.87764" lon="6.82586">
        <ele>863</ele>
        <time>2022-09-12T08:41:49Z</time>
      </trkpt>
      <trkpt lat="47.87765" lon="6.82586">
        <ele>863</ele>
        <time>2022-09-12T08:41:50Z</time>
      </trkpt>
      <trkpt lat="47.87766" lon="6.82585">
        <ele>863</ele>
        <time>2022-09-12T08:41:51Z</time>
      </trkpt>
      <trkpt lat="47.87767" lon="6.82585">
        <ele>863</ele>
        <time>2022-09-12T08:41:52Z</time>
      </trkpt>
      <trkpt lat="47.87768" lon="6.82585">
        <ele>863</ele>
        <time>2022-09-12T08:41:53Z</time>
      </trkpt>
      <trkpt lat="47.87768" lon="6.82585">
        <ele>863</ele>
        <time>2022-09-12T08:41:54Z</time>
      </trkpt>
      <trkpt lat="47.8777" lon="6.82585">
        <ele>863</ele>
        <time>2022-09-12T08:41:55Z</time>
      </trkpt>
      <trkpt lat="47.87771" lon="6.82585">
        <ele>863</ele>
        <time>2022-09-12T08:41:56Z</time>
      </trkpt>
      <trkpt lat="47.87772" lon="6.82585">
        <ele>863</ele>
        <time>2022-09-12T08:41:57Z</time>
      </trkpt>
      <trkpt lat="47.87773" lon="6.82586">
        <ele>863</ele>
        <time>2022-09-12T08:41:58Z</time>
      </trkpt>
      <trkpt lat="47.87774" lon="6.82586">
        <ele>863</ele>
        <time>2022-09-12T08:41:59Z</time>
      </trkpt>
      <trkpt lat="47.87775" lon="6.82587">
        <ele>863</ele>
        <time>2022-09-12T08:42:00Z</time>
      </trkpt>
      <trkpt lat="47.87776" lon="6.82588">
        <ele>863</ele>
        <time>2022-09-12T08:42:01Z</time>
      </trkpt>
      <trkpt lat="47.87777" lon="6.82589">
        <ele>863</ele>
        <time>2022-09-12T08:42:02Z</time>
      </trkpt>
      <trkpt lat="47.87777" lon="6.8259">
        <ele>863</ele>
        <time>2022-09-12T08:42:03Z</time>
      </trkpt>
      <trkpt lat="47.87778" lon="6.82591">
        <ele>863</ele>
        <time>2022-09-12T08:42:04Z</time>
      </trkpt>
      <trkpt lat="47.87779" lon="6.82593">
        <ele>863</ele>
        <time>2022-09-12T08:42:05Z</time>
      </trkpt>
      <trkpt lat="47.8778" lon="6.82594">
        <ele>863</ele>
        <time>2022-09-12T08:42:06Z</time>
      </trkpt>
      <trkpt lat="47.8778" lon="6.82596">
        <ele>863</ele>
        <time>2022-09-12T08:42:07Z</time>
      </trkpt>
      <trkpt lat="47.87781" lon="6.82597">
        <ele>863</ele>
        <time>2022-09-12T08:42:08Z</time>
      </trkpt>
      <trkpt lat="47.87782" lon="6.82598">
        <ele>863</ele>
        <time>2022-09-12T08:42:09Z</time>
      </trkpt>
      <trkpt lat="47.87782" lon="6.826">
        <ele>863</ele>
        <time>2022-09-12T08:42:10Z</time>
      </trkpt>
      <trkpt lat="47.87783" lon="6.82601">
        <ele>863</ele>
        <time>2022-09-12T08:42:11Z</time>
      </trkpt>
      <trkpt lat="47.87784" lon="6.82603">
        <ele>863</ele>
        <time>2022-09-12T08:42:12Z</time>
      </trkpt>
      <trkpt lat="47.87784" lon="6.82604">
        <ele>863</ele>
        <time>2022-09-12T08:42:13Z</time>
      </trkpt>
      <trkpt lat="47.87785" lon="6.82606">
        <ele>863</ele>
        <time>2022-09-12T08:42:14Z</time>
      </trkpt>
      <trkpt lat="47.87785" lon="6.82608">
        <ele>863</ele>
        <time>2022-09-12T08:42:15Z</time>
      </trkpt>
      <trkpt lat="47.87785" lon="6.82609">
        <ele>864</ele>
        <time>2022-09-12T08:42:16Z</time>
      </trkpt>
      <trkpt lat="47.87786" lon="6.82611">
        <ele>864</ele>
        <time>2022-09-12T08:42:17Z</time>
      </trkpt>
      <trkpt lat="47.87786" lon="6.82612">
        <ele>864</ele>
        <time>2022-09-12T08:42:18Z</time>
      </trkpt>
      <trkpt lat="47.87787" lon="6.82613">
        <ele>864</ele>
        <time>2022-09-12T08:42:19Z</time>
      </trkpt>
      <trkpt lat="47.87787" lon="6.82615">
        <ele>864</ele>
        <time>2022-09-12T08:42:20Z</time>
      </trkpt>
      <trkpt lat="47.87788" lon="6.82616">
        <ele>864</ele>
        <time>2022-09-12T08:42:21Z</time>
      </trkpt>
      <trkpt lat="47.87788" lon="6.82617">
        <ele>864</ele>
        <time>2022-09-12T08:42:22Z</time>
      </trkpt>
      <trkpt lat="47.87789" lon="6.82619">
        <ele>864</ele>
        <time>2022-09-12T08:42:23Z</time>
      </trkpt>
      <trkpt lat="47.87789" lon="6.8262">
        <ele>864</ele>
        <time>2022-09-12T08:42:24Z</time>
      </trkpt>
      <trkpt lat="47.8779" lon="6.82622">
        <ele>864</ele>
        <time>2022-09-12T08:42:25Z</time>
      </trkpt>
      <trkpt lat="47.8779" lon="6.82624">
        <ele>864</ele>
        <time>2022-09-12T08:42:26Z</time>
      </trkpt>
      <trkpt lat="47.87791" lon="6.82625">
        <ele>864</ele>
        <time>2022-09-12T08:42:27Z</time>
      </trkpt>
      <trkpt lat="47.87791" lon="6.82627">
        <ele>864</ele>
        <time>2022-09-12T08:42:28Z</time>
      </trkpt>
      <trkpt lat="47.87792" lon="6.82628">
        <ele>864</ele>
        <time>2022-09-12T08:42:29Z</time>
      </trkpt>
      <trkpt lat="47.87792" lon="6.8263">
        <ele>864</ele>
        <time>2022-09-12T08:42:30Z</time>
      </trkpt>
      <trkpt lat="47.87793" lon="6.82631">
        <ele>865</ele>
        <time>2022-09-12T08:42:31Z</time>
      </trkpt>
      <trkpt lat="47.87793" lon="6.82633">
        <ele>865</ele>
        <time>2022-09-12T08:42:32Z</time>
      </trkpt>
      <trkpt lat="47.87794" lon="6.82634">
        <ele>865</ele>
        <time>2022-09-12T08:42:33Z</time>
      </trkpt>
      <trkpt lat="47.87794" lon="6.82636">
        <ele>865</ele>
        <time>2022-09-12T08:42:34Z</time>
      </trkpt>
      <trkpt lat="47.87795" lon="6.82637">
        <ele>865</ele>
        <time>2022-09-12T08:42:35Z</time>
      </trkpt>
      <trkpt lat="47.87795" lon="6.82639">
        <ele>865</ele>
        <time>2022-09-12T08:42:36Z</time>
      </trkpt>
      <trkpt lat="47.87796" lon="6.82641">
        <ele>865</ele>
        <time>2022-09-12T08:42:37Z</time>
      </trkpt>
      <trkpt lat="47.87796" lon="6.82642">
        <ele>865</ele>
        <time>2022-09-12T08:42:38Z</time>
      </trkpt>
      <trkpt lat="47.87797" lon="6.82644">
        <ele>865</ele>
        <time>2022-09-12T08:42:39Z</time>
      </trkpt>
      <trkpt lat="47.87798" lon="6.82645">
        <ele>865</ele>
        <time>2022-09-12T08:42:40Z</time>
      </trkpt>
      <trkpt lat="47.87799" lon="6.82646">
        <ele>865</ele>
        <time>2022-09-12T08:42:41Z</time>
      </trkpt>
      <trkpt lat="47.87799" lon="6.82648">
        <ele>865</ele>
        <time>2022-09-12T08:42:42Z</time>
      </trkpt>
      <trkpt lat="47.878" lon="6.82649">
        <ele>865</ele>
        <time>2022-09-12T08:42:43Z</time>
      </trkpt>
      <trkpt lat="47.87801" lon="6.8265">
        <ele>865</ele>
        <time>2022-09-12T08:42:44Z</time>
      </trkpt>
      <trkpt lat="47.87802" lon="6.82652">
        <ele>865</ele>
        <time>2022-09-12T08:42:45Z</time>
      </trkpt>
      <trkpt lat="47.87802" lon="6.82653">
        <ele>866</ele>
        <time>2022-09-12T08:42:46Z</time>
      </trkpt>
      <trkpt lat="47.87803" lon="6.82655">
        <ele>866</ele>
        <time>2022-09-12T08:42:47Z</time>
      </trkpt>
      <trkpt lat="47.87804" lon="6.82656">
        <ele>866</ele>
        <time>2022-09-12T08:42:48Z</time>
      </trkpt>
      <trkpt lat="47.87804" lon="6.82658">
        <ele>866</ele>
        <time>2022-09-12T08:42:49Z</time>
      </trkpt>
      <trkpt lat="47.87805" lon="6.82659">
        <ele>866</ele>
        <time>2022-09-12T08:42:50Z</time>
      </trkpt>
      <trkpt lat="47.87805" lon="6.8266">
        <ele>866</ele>
        <time>2022-09-12T08:42:51Z</time>
      </trkpt>
      <trkpt lat="47.87806" lon="6.82662">
        <ele>866</ele>
        <time>2022-09-12T08:42:52Z</time>
      </trkpt>
      <trkpt lat="47.87806" lon="6.82663">
        <ele>866</ele>
        <time>2022-09-12T08:42:53Z</time>
      </trkpt>
      <trkpt lat="47.87806" lon="6.82664">
        <ele>866</ele>
        <time>2022-09-12T08:42:54Z</time>
      </trkpt>
      <trkpt lat="47.87807" lon="6.82665">
        <ele>866</ele>
        <time>2022-09-12T08:42:55Z</time>
      </trkpt>
      <trkpt lat="47.87807" lon="6.82667">
        <ele>867</ele>
        <time>2022-09-12T08:42:56Z</time>
      </trkpt>
      <trkpt lat="47.87807" lon="6.82668">
        <ele>867</ele>
        <time>2022-09-12T08:42:57Z</time>
      </trkpt>
      <trkpt lat="47.87807" lon="6.82669">
        <ele>867</ele>
        <time>2022-09-12T08:42:58Z</time>
      </trkpt>
      <trkpt lat="47.87807" lon="6.8267">
        <ele>867</ele>
        <time>2022-09-12T08:42:59Z</time>
      </trkpt>
      <trkpt lat="47.87808" lon="6.82671">
        <ele>867</ele>
        <time>2022-09-12T08:43:00Z</time>
      </trkpt>
      <trkpt lat="47.87808" lon="6.82672">
        <ele>867</ele>
        <time>2022-09-12T08:43:01Z</time>
      </trkpt>
      <trkpt lat="47.87808" lon="6.82673">
        <ele>867</ele>
        <time>2022-09-12T08:43:02Z</time>
      </trkpt>
      <trkpt lat="47.87809" lon="6.82674">
        <ele>867</ele>
        <time>2022-09-12T08:43:03Z</time>
      </trkpt>
      <trkpt lat="47.87809" lon="6.82675">
        <ele>867</ele>
        <time>2022-09-12T08:43:04Z</time>
      </trkpt>
      <trkpt lat="47.8781" lon="6.82676">
        <ele>867</ele>
        <time>2022-09-12T08:43:05Z</time>
      </trkpt>
      <trkpt lat="47.8781" lon="6.82677">
        <ele>867</ele>
        <time>2022-09-12T08:43:06Z</time>
      </trkpt>
      <trkpt lat="47.8781" lon="6.82677">
        <ele>867</ele>
        <time>2022-09-12T08:43:07Z</time>
      </trkpt>
      <trkpt lat="47.87811" lon="6.82678">
        <ele>867</ele>
        <time>2022-09-12T08:43:08Z</time>
      </trkpt>
      <trkpt lat="47.87811" lon="6.82679">
        <ele>867</ele>
        <time>2022-09-12T08:43:09Z</time>
      </trkpt>
      <trkpt lat="47.87811" lon="6.8268">
        <ele>867</ele>
        <time>2022-09-12T08:43:10Z</time>
      </trkpt>
      <trkpt lat="47.87812" lon="6.8268">
        <ele>867</ele>
        <time>2022-09-12T08:43:11Z</time>
      </trkpt>
      <trkpt lat="47.87812" lon="6.82681">
        <ele>867</ele>
        <time>2022-09-12T08:43:12Z</time>
      </trkpt>
      <trkpt lat="47.87813" lon="6.82682">
        <ele>867</ele>
        <time>2022-09-12T08:43:13Z</time>
      </trkpt>
      <trkpt lat="47.87814" lon="6.82683">
        <ele>867</ele>
        <time>2022-09-12T08:43:14Z</time>
      </trkpt>
      <trkpt lat="47.87814" lon="6.82684">
        <ele>867</ele>
        <time>2022-09-12T08:43:15Z</time>
      </trkpt>
      <trkpt lat="47.87815" lon="6.82686">
        <ele>867</ele>
        <time>2022-09-12T08:43:16Z</time>
      </trkpt>
      <trkpt lat="47.87816" lon="6.82687">
        <ele>867</ele>
        <time>2022-09-12T08:43:17Z</time>
      </trkpt>
      <trkpt lat="47.87818" lon="6.82689">
        <ele>867</ele>
        <time>2022-09-12T08:43:18Z</time>
      </trkpt>
      <trkpt lat="47.87819" lon="6.8269">
        <ele>867</ele>
        <time>2022-09-12T08:43:19Z</time>
      </trkpt>
      <trkpt lat="47.8782" lon="6.82691">
        <ele>867</ele>
        <time>2022-09-12T08:43:20Z</time>
      </trkpt>
      <trkpt lat="47.87821" lon="6.82692">
        <ele>867</ele>
        <time>2022-09-12T08:43:21Z</time>
      </trkpt>
      <trkpt lat="47.87822" lon="6.82693">
        <ele>867</ele>
        <time>2022-09-12T08:43:22Z</time>
      </trkpt>
      <trkpt lat="47.87823" lon="6.82694">
        <ele>867</ele>
        <time>2022-09-12T08:43:23Z</time>
      </trkpt>
      <trkpt lat="47.87823" lon="6.82695">
        <ele>867</ele>
        <time>2022-09-12T08:43:24Z</time>
      </trkpt>
      <trkpt lat="47.87824" lon="6.82695">
        <ele>867</ele>
        <time>2022-09-12T08:43:25Z</time>
      </trkpt>
      <trkpt lat="47.87825" lon="6.82696">
        <ele>867</ele>
        <time>2022-09-12T08:43:26Z</time>
      </trkpt>
      <trkpt lat="47.87825" lon="6.82696">
        <ele>867</ele>
        <time>2022-09-12T08:43:27Z</time>
      </trkpt>
      <trkpt lat="47.87826" lon="6.82697">
        <ele>867</ele>
        <time>2022-09-12T08:43:28Z</time>
      </trkpt>
      <trkpt lat="47.87827" lon="6.82698">
        <ele>867</ele>
        <time>2022-09-12T08:43:29Z</time>
      </trkpt>
      <trkpt lat="47.87827" lon="6.82698">
        <ele>867</ele>
        <time>2022-09-12T08:43:30Z</time>
      </trkpt>
      <trkpt lat="47.87828" lon="6.82699">
        <ele>867</ele>
        <time>2022-09-12T08:43:31Z</time>
      </trkpt>
      <trkpt lat="47.87829" lon="6.827">
        <ele>867</ele>
        <time>2022-09-12T08:43:32Z</time>
      </trkpt>
      <trkpt lat="47.8783" lon="6.82701">
        <ele>867</ele>
        <time>2022-09-12T08:43:33Z</time>
      </trkpt>
      <trkpt lat="47.87831" lon="6.82702">
        <ele>867</ele>
        <time>2022-09-12T08:43:34Z</time>
      </trkpt>
      <trkpt lat="47.87832" lon="6.82702">
        <ele>867</ele>
        <time>2022-09-12T08:43:35Z</time>
      </trkpt>
      <trkpt lat="47.87833" lon="6.82703">
        <ele>867</ele>
        <time>2022-09-12T08:43:36Z</time>
      </trkpt>
      <trkpt lat="47.87834" lon="6.82704">
        <ele>867</ele>
        <time>2022-09-12T08:43:37Z</time>
      </trkpt>
      <trkpt lat="47.87836" lon="6.82705">
        <ele>867</ele>
        <time>2022-09-12T08:43:38Z</time>
      </trkpt>
      <trkpt lat="47.87837" lon="6.82706">
        <ele>867</ele>
        <time>2022-09-12T08:43:39Z</time>
      </trkpt>
      <trkpt lat="47.87838" lon="6.82706">
        <ele>867</ele>
        <time>2022-09-12T08:43:40Z</time>
      </trkpt>
      <trkpt lat="47.87839" lon="6.82707">
        <ele>867</ele>
        <time>2022-09-12T08:43:41Z</time>
      </trkpt>
      <trkpt lat="47.87839" lon="6.82707">
        <ele>867</ele>
        <time>2022-09-12T08:43:42Z</time>
      </trkpt>
      <trkpt lat="47.8784" lon="6.82708">
        <ele>867</ele>
        <time>2022-09-12T08:43:43Z</time>
      </trkpt>
      <trkpt lat="47.87841" lon="6.82709">
        <ele>867</ele>
        <time>2022-09-12T08:43:44Z</time>
      </trkpt>
      <trkpt lat="47.87841" lon="6.82709">
        <ele>867</ele>
        <time>2022-09-12T08:43:45Z</time>
      </trkpt>
      <trkpt lat="47.87842" lon="6.8271">
        <ele>867</ele>
        <time>2022-09-12T08:43:46Z</time>
      </trkpt>
      <trkpt lat="47.87842" lon="6.8271">
        <ele>867</ele>
        <time>2022-09-12T08:43:47Z</time>
      </trkpt>
      <trkpt lat="47.87843" lon="6.82711">
        <ele>867</ele>
        <time>2022-09-12T08:43:48Z</time>
      </trkpt>
      <trkpt lat="47.87843" lon="6.82711">
        <ele>867</ele>
        <time>2022-09-12T08:43:49Z</time>
      </trkpt>
      <trkpt lat="47.87844" lon="6.82712">
        <ele>867</ele>
        <time>2022-09-12T08:43:50Z</time>
      </trkpt>
      <trkpt lat="47.87845" lon="6.82713">
        <ele>867</ele>
        <time>2022-09-12T08:43:51Z</time>
      </trkpt>
      <trkpt lat="47.87846" lon="6.82714">
        <ele>867</ele>
        <time>2022-09-12T08:43:52Z</time>
      </trkpt>
      <trkpt lat="47.87847" lon="6.82715">
        <ele>867</ele>
        <time>2022-09-12T08:43:53Z</time>
      </trkpt>
      <trkpt lat="47.87848" lon="6.82715">
        <ele>867</ele>
        <time>2022-09-12T08:43:54Z</time>
      </trkpt>
      <trkpt lat="47.87849" lon="6.82716">
        <ele>867</ele>
        <time>2022-09-12T08:43:55Z</time>
      </trkpt>
      <trkpt lat="47.87849" lon="6.82716">
        <ele>867</ele>
        <time>2022-09-12T08:43:56Z</time>
      </trkpt>
      <trkpt lat="47.8785" lon="6.82716">
        <ele>867</ele>
        <time>2022-09-12T08:43:57Z</time>
      </trkpt>
      <trkpt lat="47.8785" lon="6.82717">
        <ele>867</ele>
        <time>2022-09-12T08:43:58Z</time>
      </trkpt>
      <trkpt lat="47.87851" lon="6.82717">
        <ele>867</ele>
        <time>2022-09-12T08:43:59Z</time>
      </trkpt>
      <trkpt lat="47.87851" lon="6.82718">
        <ele>867</ele>
        <time>2022-09-12T08:44:00Z</time>
      </trkpt>
      <trkpt lat="47.87852" lon="6.82718">
        <ele>867</ele>
        <time>2022-09-12T08:44:01Z</time>
      </trkpt>
      <trkpt lat="47.87853" lon="6.82719">
        <ele>867</ele>
        <time>2022-09-12T08:44:02Z</time>
      </trkpt>
      <trkpt lat="47.87853" lon="6.82719">
        <ele>867</ele>
        <time>2022-09-12T08:44:03Z</time>
      </trkpt>
      <trkpt lat="47.87854" lon="6.8272">
        <ele>867</ele>
        <time>2022-09-12T08:44:04Z</time>
      </trkpt>
      <trkpt lat="47.87855" lon="6.82721">
        <ele>867</ele>
        <time>2022-09-12T08:44:05Z</time>
      </trkpt>
      <trkpt lat="47.87855" lon="6.82722">
        <ele>867</ele>
        <time>2022-09-12T08:44:06Z</time>
      </trkpt>
      <trkpt lat="47.87856" lon="6.82723">
        <ele>867</ele>
        <time>2022-09-12T08:44:07Z</time>
      </trkpt>
      <trkpt lat="47.87857" lon="6.82724">
        <ele>867</ele>
        <time>2022-09-12T08:44:08Z</time>
      </trkpt>
      <trkpt lat="47.87858" lon="6.82726">
        <ele>867</ele>
        <time>2022-09-12T08:44:09Z</time>
      </trkpt>
      <trkpt lat="47.87859" lon="6.82727">
        <ele>867</ele>
        <time>2022-09-12T08:44:10Z</time>
      </trkpt>
      <trkpt lat="47.8786" lon="6.82727">
        <ele>867</ele>
        <time>2022-09-12T08:44:11Z</time>
      </trkpt>
      <trkpt lat="47.8786" lon="6.82728">
        <ele>867</ele>
        <time>2022-09-12T08:44:12Z</time>
      </trkpt>
      <trkpt lat="47.87861" lon="6.82729">
        <ele>867</ele>
        <time>2022-09-12T08:44:13Z</time>
      </trkpt>
      <trkpt lat="47.87862" lon="6.8273">
        <ele>867</ele>
        <time>2022-09-12T08:44:14Z</time>
      </trkpt>
      <trkpt lat="47.87863" lon="6.82732">
        <ele>867</ele>
        <time>2022-09-12T08:44:15Z</time>
      </trkpt>
      <trkpt lat="47.87864" lon="6.82733">
        <ele>867</ele>
        <time>2022-09-12T08:44:16Z</time>
      </trkpt>
      <trkpt lat="47.87865" lon="6.82734">
        <ele>867</ele>
        <time>2022-09-12T08:44:17Z</time>
      </trkpt>
      <trkpt lat="47.87866" lon="6.82735">
        <ele>867</ele>
        <time>2022-09-12T08:44:18Z</time>
      </trkpt>
      <trkpt lat="47.87866" lon="6.82736">
        <ele>867</ele>
        <time>2022-09-12T08:44:19Z</time>
      </trkpt>
      <trkpt lat="47.87867" lon="6.82737">
        <ele>867</ele>
        <time>2022-09-12T08:44:20Z</time>
      </trkpt>
      <trkpt lat="47.87868" lon="6.82738">
        <ele>867</ele>
        <time>2022-09-12T08:44:21Z</time>
      </trkpt>
      <trkpt lat="47.87869" lon="6.82739">
        <ele>866</ele>
        <time>2022-09-12T08:44:22Z</time>
      </trkpt>
      <trkpt lat="47.8787" lon="6.8274">
        <ele>866</ele>
        <time>2022-09-12T08:44:23Z</time>
      </trkpt>
      <trkpt lat="47.87871" lon="6.82741">
        <ele>866</ele>
        <time>2022-09-12T08:44:24Z</time>
      </trkpt>
      <trkpt lat="47.87871" lon="6.82742">
        <ele>866</ele>
        <time>2022-09-12T08:44:25Z</time>
      </trkpt>
      <trkpt lat="47.87872" lon="6.82743">
        <ele>866</ele>
        <time>2022-09-12T08:44:26Z</time>
      </trkpt>
      <trkpt lat="47.87873" lon="6.82744">
        <ele>866</ele>
        <time>2022-09-12T08:44:27Z</time>
      </trkpt>
      <trkpt lat="47.87874" lon="6.82744">
        <ele>866</ele>
        <time>2022-09-12T08:44:28Z</time>
      </trkpt>
      <trkpt lat="47.87875" lon="6.82745">
        <ele>866</ele>
        <time>2022-09-12T08:44:29Z</time>
      </trkpt>
      <trkpt lat="47.87876" lon="6.82746">
        <ele>866</ele>
        <time>2022-09-12T08:44:30Z</time>
      </trkpt>
      <trkpt lat="47.87876" lon="6.82747">
        <ele>866</ele>
        <time>2022-09-12T08:44:31Z</time>
      </trkpt>
      <trkpt lat="47.87877" lon="6.82748">
        <ele>866</ele>
        <time>2022-09-12T08:44:32Z</time>
      </trkpt>
      <trkpt lat="47.87878" lon="6.82749">
        <ele>866</ele>
        <time>2022-09-12T08:44:33Z</time>
      </trkpt>
      <trkpt lat="47.87878" lon="6.82749">
        <ele>866</ele>
        <time>2022-09-12T08:44:34Z</time>
      </trkpt>
      <trkpt lat="47.87878" lon="6.8275">
        <ele>866</ele>
        <time>2022-09-12T08:44:35Z</time>
      </trkpt>
      <trkpt lat="47.87879" lon="6.8275">
        <ele>866</ele>
        <time>2022-09-12T08:44:36Z</time>
      </trkpt>
      <trkpt lat="47.87879" lon="6.8275">
        <ele>866</ele>
        <time>2022-09-12T08:44:37Z</time>
      </trkpt>
      <trkpt lat="47.87879" lon="6.8275">
        <ele>866</ele>
        <time>2022-09-12T08:44:38Z</time>
      </trkpt>
      <trkpt lat="47.87879" lon="6.82751">
        <ele>866</ele>
        <time>2022-09-12T08:44:39Z</time>
      </trkpt>
      <trkpt lat="47.8788" lon="6.82752">
        <ele>866</ele>
        <time>2022-09-12T08:44:40Z</time>
      </trkpt>
      <trkpt lat="47.8788" lon="6.82753">
        <ele>866</ele>
        <time>2022-09-12T08:44:41Z</time>
      </trkpt>
      <trkpt lat="47.87881" lon="6.82753">
        <ele>866</ele>
        <time>2022-09-12T08:44:42Z</time>
      </trkpt>
      <trkpt lat="47.87881" lon="6.82754">
        <ele>866</ele>
        <time>2022-09-12T08:44:43Z</time>
      </trkpt>
      <trkpt lat="47.87882" lon="6.82755">
        <ele>866</ele>
        <time>2022-09-12T08:44:44Z</time>
      </trkpt>
      <trkpt lat="47.87883" lon="6.82756">
        <ele>866</ele>
        <time>2022-09-12T08:44:45Z</time>
      </trkpt>
      <trkpt lat="47.87884" lon="6.82757">
        <ele>866</ele>
        <time>2022-09-12T08:44:46Z</time>
      </trkpt>
      <trkpt lat="47.87885" lon="6.82757">
        <ele>866</ele>
        <time>2022-09-12T08:44:47Z</time>
      </trkpt>
      <trkpt lat="47.87886" lon="6.82758">
        <ele>866</ele>
        <time>2022-09-12T08:44:48Z</time>
      </trkpt>
      <trkpt lat="47.87886" lon="6.82759">
        <ele>866</ele>
        <time>2022-09-12T08:44:49Z</time>
      </trkpt>
      <trkpt lat="47.87887" lon="6.82759">
        <ele>866</ele>
        <time>2022-09-12T08:44:50Z</time>
      </trkpt>
      <trkpt lat="47.87888" lon="6.8276">
        <ele>867</ele>
        <time>2022-09-12T08:44:51Z</time>
      </trkpt>
      <trkpt lat="47.87889" lon="6.8276">
        <ele>867</ele>
        <time>2022-09-12T08:44:52Z</time>
      </trkpt>
      <trkpt lat="47.8789" lon="6.82761">
        <ele>867</ele>
        <time>2022-09-12T08:44:53Z</time>
      </trkpt>
      <trkpt lat="47.87891" lon="6.82761">
        <ele>867</ele>
        <time>2022-09-12T08:44:54Z</time>
      </trkpt>
      <trkpt lat="47.87891" lon="6.82762">
        <ele>867</ele>
        <time>2022-09-12T08:44:55Z</time>
      </trkpt>
      <trkpt lat="47.87892" lon="6.82762">
        <ele>867</ele>
        <time>2022-09-12T08:44:56Z</time>
      </trkpt>
      <trkpt lat="47.87893" lon="6.82763">
        <ele>867</ele>
        <time>2022-09-12T08:44:57Z</time>
      </trkpt>
      <trkpt lat="47.87894" lon="6.82764">
        <ele>867</ele>
        <time>2022-09-12T08:44:58Z</time>
      </trkpt>
      <trkpt lat="47.87895" lon="6.82765">
        <ele>867</ele>
        <time>2022-09-12T08:44:59Z</time>
      </trkpt>
      <trkpt lat="47.87897" lon="6.82765">
        <ele>867</ele>
        <time>2022-09-12T08:45:00Z</time>
      </trkpt>
      <trkpt lat="47.87898" lon="6.82766">
        <ele>867</ele>
        <time>2022-09-12T08:45:01Z</time>
      </trkpt>
      <trkpt lat="47.87899" lon="6.82767">
        <ele>867</ele>
        <time>2022-09-12T08:45:02Z</time>
      </trkpt>
      <trkpt lat="47.879" lon="6.82767">
        <ele>867</ele>
        <time>2022-09-12T08:45:03Z</time>
      </trkpt>
      <trkpt lat="47.879" lon="6.82768">
        <ele>867</ele>
        <time>2022-09-12T08:45:04Z</time>
      </trkpt>
      <trkpt lat="47.87901" lon="6.82768">
        <ele>867</ele>
        <time>2022-09-12T08:45:05Z</time>
      </trkpt>
      <trkpt lat="47.87902" lon="6.82769">
        <ele>867</ele>
        <time>2022-09-12T08:45:06Z</time>
      </trkpt>
      <trkpt lat="47.87903" lon="6.82769">
        <ele>867</ele>
        <time>2022-09-12T08:45:07Z</time>
      </trkpt>
      <trkpt lat="47.87904" lon="6.8277">
        <ele>867</ele>
        <time>2022-09-12T08:45:08Z</time>
      </trkpt>
      <trkpt lat="47.87904" lon="6.82771">
        <ele>867</ele>
        <time>2022-09-12T08:45:09Z</time>
      </trkpt>
      <trkpt lat="47.87905" lon="6.82772">
        <ele>867</ele>
        <time>2022-09-12T08:45:10Z</time>
      </trkpt>
      <trkpt lat="47.87905" lon="6.82773">
        <ele>867</ele>
        <time>2022-09-12T08:45:11Z</time>
      </trkpt>
      <trkpt lat="47.87906" lon="6.82774">
        <ele>867</ele>
        <time>2022-09-12T08:45:12Z</time>
      </trkpt>
      <trkpt lat="47.87907" lon="6.82776">
        <ele>867</ele>
        <time>2022-09-12T08:45:13Z</time>
      </trkpt>
      <trkpt lat="47.87907" lon="6.82777">
        <ele>867</ele>
        <time>2022-09-12T08:45:14Z</time>
      </trkpt>
      <trkpt lat="47.87908" lon="6.82778">
        <ele>867</ele>
        <time>2022-09-12T08:45:15Z</time>
      </trkpt>
      <trkpt lat="47.87909" lon="6.82779">
        <ele>867</ele>
        <time>2022-09-12T08:45:16Z</time>
      </trkpt>
      <trkpt lat="47.87909" lon="6.8278">
        <ele>867</ele>
        <time>2022-09-12T08:45:17Z</time>
      </trkpt>
      <trkpt lat="47.8791" lon="6.82781">
        <ele>867</ele>
        <time>2022-09-12T08:45:18Z</time>
      </trkpt>
      <trkpt lat="47.87911" lon="6.82782">
        <ele>867</ele>
        <time>2022-09-12T08:45:19Z</time>
      </trkpt>
      <trkpt lat="47.87911" lon="6.82783">
        <ele>867</ele>
        <time>2022-09-12T08:45:20Z</time>
      </trkpt>
      <trkpt lat="47.87912" lon="6.82783">
        <ele>867</ele>
        <time>2022-09-12T08:45:21Z</time>
      </trkpt>
      <trkpt lat="47.87913" lon="6.82784">
        <ele>867</ele>
        <time>2022-09-12T08:45:22Z</time>
      </trkpt>
      <trkpt lat="47.87914" lon="6.82785">
        <ele>867</ele>
        <time>2022-09-12T08:45:23Z</time>
      </trkpt>
      <trkpt lat="47.87915" lon="6.82786">
        <ele>867</ele>
        <time>2022-09-12T08:45:24Z</time>
      </trkpt>
      <trkpt lat="47.87916" lon="6.82787">
        <ele>867</ele>
        <time>2022-09-12T08:45:25Z</time>
      </trkpt>
      <trkpt lat="47.87916" lon="6.82787">
        <ele>867</ele>
        <time>2022-09-12T08:45:26Z</time>
      </trkpt>
      <trkpt lat="47.87917" lon="6.82788">
        <ele>866</ele>
        <time>2022-09-12T08:45:27Z</time>
      </trkpt>
      <trkpt lat="47.87918" lon="6.82789">
        <ele>866</ele>
        <time>2022-09-12T08:45:28Z</time>
      </trkpt>
      <trkpt lat="47.87919" lon="6.8279">
        <ele>866</ele>
        <time>2022-09-12T08:45:29Z</time>
      </trkpt>
      <trkpt lat="47.87921" lon="6.82791">
        <ele>866</ele>
        <time>2022-09-12T08:45:30Z</time>
      </trkpt>
      <trkpt lat="47.87922" lon="6.82792">
        <ele>866</ele>
        <time>2022-09-12T08:45:31Z</time>
      </trkpt>
      <trkpt lat="47.87923" lon="6.82793">
        <ele>866</ele>
        <time>2022-09-12T08:45:32Z</time>
      </trkpt>
      <trkpt lat="47.87924" lon="6.82793">
        <ele>866</ele>
        <time>2022-09-12T08:45:33Z</time>
      </trkpt>
      <trkpt lat="47.87925" lon="6.82794">
        <ele>866</ele>
        <time>2022-09-12T08:45:34Z</time>
      </trkpt>
      <trkpt lat="47.87927" lon="6.82795">
        <ele>866</ele>
        <time>2022-09-12T08:45:35Z</time>
      </trkpt>
      <trkpt lat="47.87928" lon="6.82796">
        <ele>866</ele>
        <time>2022-09-12T08:45:36Z</time>
      </trkpt>
      <trkpt lat="47.87928" lon="6.82797">
        <ele>866</ele>
        <time>2022-09-12T08:45:37Z</time>
      </trkpt>
      <trkpt lat="47.87929" lon="6.82798">
        <ele>866</ele>
        <time>2022-09-12T08:45:38Z</time>
      </trkpt>
      <trkpt lat="47.8793" lon="6.82799">
        <ele>866</ele>
        <time>2022-09-12T08:45:39Z</time>
      </trkpt>
      <trkpt lat="47.8793" lon="6.828">
        <ele>866</ele>
        <time>2022-09-12T08:45:40Z</time>
      </trkpt>
      <trkpt lat="47.87931" lon="6.82801">
        <ele>866</ele>
        <time>2022-09-12T08:45:41Z</time>
      </trkpt>
      <trkpt lat="47.87932" lon="6.82803">
        <ele>866</ele>
        <time>2022-09-12T08:45:42Z</time>
      </trkpt>
      <trkpt lat="47.87933" lon="6.82804">
        <ele>866</ele>
        <time>2022-09-12T08:45:43Z</time>
      </trkpt>
      <trkpt lat="47.87933" lon="6.82805">
        <ele>866</ele>
        <time>2022-09-12T08:45:44Z</time>
      </trkpt>
      <trkpt lat="47.87934" lon="6.82806">
        <ele>866</ele>
        <time>2022-09-12T08:45:52Z</time>
      </trkpt>
      <trkpt lat="47.87934" lon="6.82807">
        <ele>866</ele>
        <time>2022-09-12T08:45:53Z</time>
      </trkpt>
      <trkpt lat="47.87935" lon="6.82808">
        <ele>866</ele>
        <time>2022-09-12T08:45:54Z</time>
      </trkpt>
      <trkpt lat="47.87935" lon="6.82808">
        <ele>866</ele>
        <time>2022-09-12T08:45:55Z</time>
      </trkpt>
      <trkpt lat="47.87936" lon="6.82808">
        <ele>866</ele>
        <time>2022-09-12T08:45:56Z</time>
      </trkpt>
      <trkpt lat="47.87936" lon="6.82809">
        <ele>866</ele>
        <time>2022-09-12T08:45:57Z</time>
      </trkpt>
      <trkpt lat="47.87938" lon="6.82809">
        <ele>867</ele>
        <time>2022-09-12T08:46:13Z</time>
      </trkpt>
      <trkpt lat="47.87938" lon="6.8281">
        <ele>867</ele>
        <time>2022-09-12T08:46:14Z</time>
      </trkpt>
      <trkpt lat="47.87939" lon="6.82811">
        <ele>867</ele>
        <time>2022-09-12T08:46:15Z</time>
      </trkpt>
      <trkpt lat="47.8794" lon="6.82812">
        <ele>867</ele>
        <time>2022-09-12T08:46:16Z</time>
      </trkpt>
      <trkpt lat="47.8794" lon="6.82813">
        <ele>867</ele>
        <time>2022-09-12T08:46:17Z</time>
      </trkpt>
      <trkpt lat="47.8794" lon="6.82813">
        <ele>867</ele>
        <time>2022-09-12T08:46:18Z</time>
      </trkpt>
      <trkpt lat="47.87941" lon="6.82814">
        <ele>867</ele>
        <time>2022-09-12T08:46:19Z</time>
      </trkpt>
      <trkpt lat="47.87942" lon="6.82815">
        <ele>866</ele>
        <time>2022-09-12T08:46:26Z</time>
      </trkpt>
      <trkpt lat="47.87943" lon="6.82816">
        <ele>866</ele>
        <time>2022-09-12T08:46:27Z</time>
      </trkpt>
      <trkpt lat="47.87944" lon="6.82816">
        <ele>866</ele>
        <time>2022-09-12T08:46:28Z</time>
      </trkpt>
      <trkpt lat="47.87944" lon="6.82817">
        <ele>866</ele>
        <time>2022-09-12T08:46:29Z</time>
      </trkpt>
      <trkpt lat="47.87945" lon="6.82818">
        <ele>866</ele>
        <time>2022-09-12T08:46:30Z</time>
      </trkpt>
      <trkpt lat="47.87946" lon="6.82819">
        <ele>866</ele>
        <time>2022-09-12T08:46:31Z</time>
      </trkpt>
      <trkpt lat="47.87947" lon="6.82819">
        <ele>866</ele>
        <time>2022-09-12T08:46:32Z</time>
      </trkpt>
      <trkpt lat="47.87948" lon="6.8282">
        <ele>866</ele>
        <time>2022-09-12T08:46:33Z</time>
      </trkpt>
      <trkpt lat="47.87949" lon="6.82821">
        <ele>866</ele>
        <time>2022-09-12T08:46:34Z</time>
      </trkpt>
      <trkpt lat="47.8795" lon="6.82822">
        <ele>866</ele>
        <time>2022-09-12T08:46:35Z</time>
      </trkpt>
      <trkpt lat="47.87951" lon="6.82823">
        <ele>866</ele>
        <time>2022-09-12T08:46:36Z</time>
      </trkpt>
      <trkpt lat="47.87952" lon="6.82824">
        <ele>866</ele>
        <time>2022-09-12T08:46:37Z</time>
      </trkpt>
      <trkpt lat="47.87952" lon="6.82824">
        <ele>866</ele>
        <time>2022-09-12T08:46:38Z</time>
      </trkpt>
      <trkpt lat="47.87953" lon="6.82825">
        <ele>866</ele>
        <time>2022-09-12T08:46:39Z</time>
      </trkpt>
      <trkpt lat="47.87954" lon="6.82826">
        <ele>866</ele>
        <time>2022-09-12T08:46:40Z</time>
      </trkpt>
      <trkpt lat="47.87955" lon="6.82827">
        <ele>867</ele>
        <time>2022-09-12T08:46:41Z</time>
      </trkpt>
      <trkpt lat="47.87956" lon="6.82828">
        <ele>867</ele>
        <time>2022-09-12T08:46:42Z</time>
      </trkpt>
      <trkpt lat="47.87957" lon="6.82829">
        <ele>867</ele>
        <time>2022-09-12T08:46:43Z</time>
      </trkpt>
      <trkpt lat="47.87958" lon="6.8283">
        <ele>867</ele>
        <time>2022-09-12T08:46:44Z</time>
      </trkpt>
      <trkpt lat="47.87958" lon="6.82831">
        <ele>867</ele>
        <time>2022-09-12T08:46:45Z</time>
      </trkpt>
      <trkpt lat="47.87959" lon="6.82832">
        <ele>867</ele>
        <time>2022-09-12T08:46:46Z</time>
      </trkpt>
      <trkpt lat="47.8796" lon="6.82833">
        <ele>867</ele>
        <time>2022-09-12T08:46:47Z</time>
      </trkpt>
      <trkpt lat="47.8796" lon="6.82834">
        <ele>867</ele>
        <time>2022-09-12T08:46:48Z</time>
      </trkpt>
      <trkpt lat="47.87962" lon="6.82837">
        <ele>866</ele>
        <time>2022-09-12T08:47:24Z</time>
      </trkpt>
      <trkpt lat="47.87962" lon="6.82838">
        <ele>866</ele>
        <time>2022-09-12T08:47:25Z</time>
      </trkpt>
      <trkpt lat="47.87963" lon="6.82839">
        <ele>866</ele>
        <time>2022-09-12T08:47:26Z</time>
      </trkpt>
      <trkpt lat="47.87964" lon="6.8284">
        <ele>866</ele>
        <time>2022-09-12T08:47:27Z</time>
      </trkpt>
      <trkpt lat="47.87964" lon="6.8284">
        <ele>866</ele>
        <time>2022-09-12T08:47:28Z</time>
      </trkpt>
      <trkpt lat="47.87965" lon="6.82841">
        <ele>866</ele>
        <time>2022-09-12T08:47:29Z</time>
      </trkpt>
      <trkpt lat="47.87966" lon="6.82842">
        <ele>866</ele>
        <time>2022-09-12T08:47:30Z</time>
      </trkpt>
      <trkpt lat="47.87967" lon="6.82843">
        <ele>866</ele>
        <time>2022-09-12T08:47:31Z</time>
      </trkpt>
      <trkpt lat="47.87968" lon="6.82844">
        <ele>866</ele>
        <time>2022-09-12T08:47:32Z</time>
      </trkpt>
      <trkpt lat="47.8797" lon="6.82846">
        <ele>866</ele>
        <time>2022-09-12T08:47:33Z</time>
      </trkpt>
      <trkpt lat="47.87971" lon="6.82847">
        <ele>866</ele>
        <time>2022-09-12T08:47:34Z</time>
      </trkpt>
      <trkpt lat="47.87972" lon="6.82849">
        <ele>866</ele>
        <time>2022-09-12T08:47:35Z</time>
      </trkpt>
      <trkpt lat="47.87974" lon="6.82851">
        <ele>867</ele>
        <time>2022-09-12T08:47:36Z</time>
      </trkpt>
      <trkpt lat="47.87975" lon="6.82852">
        <ele>867</ele>
        <time>2022-09-12T08:47:37Z</time>
      </trkpt>
      <trkpt lat="47.87976" lon="6.82854">
        <ele>867</ele>
        <time>2022-09-12T08:47:38Z</time>
      </trkpt>
      <trkpt lat="47.87976" lon="6.82856">
        <ele>867</ele>
        <time>2022-09-12T08:47:39Z</time>
      </trkpt>
      <trkpt lat="47.87977" lon="6.82857">
        <ele>867</ele>
        <time>2022-09-12T08:47:40Z</time>
      </trkpt>
      <trkpt lat="47.87978" lon="6.82858">
        <ele>867</ele>
        <time>2022-09-12T08:47:41Z</time>
      </trkpt>
      <trkpt lat="47.87979" lon="6.8286">
        <ele>867</ele>
        <time>2022-09-12T08:47:42Z</time>
      </trkpt>
      <trkpt lat="47.87979" lon="6.82861">
        <ele>867</ele>
        <time>2022-09-12T08:47:43Z</time>
      </trkpt>
      <trkpt lat="47.8798" lon="6.82863">
        <ele>867</ele>
        <time>2022-09-12T08:47:44Z</time>
      </trkpt>
      <trkpt lat="47.87981" lon="6.82864">
        <ele>867</ele>
        <time>2022-09-12T08:47:45Z</time>
      </trkpt>
      <trkpt lat="47.87981" lon="6.82865">
        <ele>867</ele>
        <time>2022-09-12T08:47:46Z</time>
      </trkpt>
      <trkpt lat="47.87982" lon="6.82867">
        <ele>867</ele>
        <time>2022-09-12T08:47:47Z</time>
      </trkpt>
      <trkpt lat="47.87983" lon="6.82868">
        <ele>867</ele>
        <time>2022-09-12T08:47:48Z</time>
      </trkpt>
      <trkpt lat="47.87984" lon="6.82869">
        <ele>867</ele>
        <time>2022-09-12T08:47:49Z</time>
      </trkpt>
      <trkpt lat="47.87984" lon="6.82871">
        <ele>867</ele>
        <time>2022-09-12T08:47:50Z</time>
      </trkpt>
      <trkpt lat="47.87985" lon="6.82872">
        <ele>867</ele>
        <time>2022-09-12T08:47:51Z</time>
      </trkpt>
      <trkpt lat="47.87986" lon="6.82874">
        <ele>867</ele>
        <time>2022-09-12T08:47:52Z</time>
      </trkpt>
      <trkpt lat="47.87987" lon="6.82875">
        <ele>867</ele>
        <time>2022-09-12T08:47:53Z</time>
      </trkpt>
      <trkpt lat="47.87988" lon="6.82876">
        <ele>867</ele>
        <time>2022-09-12T08:47:54Z</time>
      </trkpt>
      <trkpt lat="47.87988" lon="6.82877">
        <ele>867</ele>
        <time>2022-09-12T08:47:55Z</time>
      </trkpt>
      <trkpt lat="47.87989" lon="6.82878">
        <ele>868</ele>
        <time>2022-09-12T08:47:56Z</time>
      </trkpt>
      <trkpt lat="47.8799" lon="6.82879">
        <ele>868</ele>
        <time>2022-09-12T08:47:57Z</time>
      </trkpt>
      <trkpt lat="47.87991" lon="6.8288">
        <ele>868</ele>
        <time>2022-09-12T08:47:58Z</time>
      </trkpt>
      <trkpt lat="47.87991" lon="6.82881">
        <ele>868</ele>
        <time>2022-09-12T08:47:59Z</time>
      </trkpt>
      <trkpt lat="47.87992" lon="6.82882">
        <ele>868</ele>
        <time>2022-09-12T08:48:00Z</time>
      </trkpt>
      <trkpt lat="47.87993" lon="6.82882">
        <ele>868</ele>
        <time>2022-09-12T08:48:01Z</time>
      </trkpt>
      <trkpt lat="47.87993" lon="6.82883">
        <ele>868</ele>
        <time>2022-09-12T08:48:02Z</time>
      </trkpt>
      <trkpt lat="47.87994" lon="6.82884">
        <ele>868</ele>
        <time>2022-09-12T08:48:03Z</time>
      </trkpt>
      <trkpt lat="47.87995" lon="6.82885">
        <ele>868</ele>
        <time>2022-09-12T08:48:04Z</time>
      </trkpt>
      <trkpt lat="47.87995" lon="6.82886">
        <ele>868</ele>
        <time>2022-09-12T08:48:05Z</time>
      </trkpt>
      <trkpt lat="47.87996" lon="6.82887">
        <ele>868</ele>
        <time>2022-09-12T08:48:06Z</time>
      </trkpt>
      <trkpt lat="47.87997" lon="6.82888">
        <ele>868</ele>
        <time>2022-09-12T08:48:07Z</time>
      </trkpt>
      <trkpt lat="47.87997" lon="6.82889">
        <ele>868</ele>
        <time>2022-09-12T08:48:08Z</time>
      </trkpt>
      <trkpt lat="47.87998" lon="6.8289">
        <ele>868</ele>
        <time>2022-09-12T08:48:09Z</time>
      </trkpt>
      <trkpt lat="47.87999" lon="6.82891">
        <ele>868</ele>
        <time>2022-09-12T08:48:10Z</time>
      </trkpt>
      <trkpt lat="47.87999" lon="6.82892">
        <ele>868</ele>
        <time>2022-09-12T08:48:11Z</time>
      </trkpt>
      <trkpt lat="47.88" lon="6.82893">
        <ele>868</ele>
        <time>2022-09-12T08:48:12Z</time>
      </trkpt>
      <trkpt lat="47.88" lon="6.82893">
        <ele>868</ele>
        <time>2022-09-12T08:48:13Z</time>
      </trkpt>
      <trkpt lat="47.88" lon="6.82894">
        <ele>868</ele>
        <time>2022-09-12T08:48:14Z</time>
      </trkpt>
      <trkpt lat="47.88001" lon="6.82895">
        <ele>868</ele>
        <time>2022-09-12T08:48:15Z</time>
      </trkpt>
      <trkpt lat="47.88002" lon="6.82896">
        <ele>868</ele>
        <time>2022-09-12T08:48:16Z</time>
      </trkpt>
      <trkpt lat="47.88002" lon="6.82897">
        <ele>868</ele>
        <time>2022-09-12T08:48:17Z</time>
      </trkpt>
      <trkpt lat="47.88003" lon="6.82898">
        <ele>868</ele>
        <time>2022-09-12T08:48:18Z</time>
      </trkpt>
      <trkpt lat="47.88004" lon="6.82898">
        <ele>868</ele>
        <time>2022-09-12T08:48:19Z</time>
      </trkpt>
      <trkpt lat="47.88005" lon="6.82899">
        <ele>868</ele>
        <time>2022-09-12T08:48:20Z</time>
      </trkpt>
      <trkpt lat="47.88005" lon="6.829">
        <ele>868</ele>
        <time>2022-09-12T08:48:21Z</time>
      </trkpt>
      <trkpt lat="47.88006" lon="6.82901">
        <ele>868</ele>
        <time>2022-09-12T08:48:22Z</time>
      </trkpt>
      <trkpt lat="47.88007" lon="6.82902">
        <ele>868</ele>
        <time>2022-09-12T08:48:23Z</time>
      </trkpt>
      <trkpt lat="47.88008" lon="6.82903">
        <ele>868</ele>
        <time>2022-09-12T08:48:24Z</time>
      </trkpt>
      <trkpt lat="47.88008" lon="6.82904">
        <ele>868</ele>
        <time>2022-09-12T08:48:25Z</time>
      </trkpt>
      <trkpt lat="47.88009" lon="6.82905">
        <ele>868</ele>
        <time>2022-09-12T08:48:26Z</time>
      </trkpt>
      <trkpt lat="47.8801" lon="6.82906">
        <ele>868</ele>
        <time>2022-09-12T08:48:27Z</time>
      </trkpt>
      <trkpt lat="47.8801" lon="6.82907">
        <ele>868</ele>
        <time>2022-09-12T08:48:28Z</time>
      </trkpt>
      <trkpt lat="47.88011" lon="6.82908">
        <ele>868</ele>
        <time>2022-09-12T08:48:29Z</time>
      </trkpt>
      <trkpt lat="47.88012" lon="6.82909">
        <ele>868</ele>
        <time>2022-09-12T08:48:30Z</time>
      </trkpt>
      <trkpt lat="47.88012" lon="6.8291">
        <ele>868</ele>
        <time>2022-09-12T08:48:31Z</time>
      </trkpt>
      <trkpt lat="47.88013" lon="6.82911">
        <ele>868</ele>
        <time>2022-09-12T08:48:32Z</time>
      </trkpt>
      <trkpt lat="47.88014" lon="6.82912">
        <ele>868</ele>
        <time>2022-09-12T08:48:33Z</time>
      </trkpt>
      <trkpt lat="47.88014" lon="6.82913">
        <ele>868</ele>
        <time>2022-09-12T08:48:34Z</time>
      </trkpt>
      <trkpt lat="47.88015" lon="6.82914">
        <ele>868</ele>
        <time>2022-09-12T08:48:35Z</time>
      </trkpt>
      <trkpt lat="47.88016" lon="6.82916">
        <ele>868</ele>
        <time>2022-09-12T08:48:36Z</time>
      </trkpt>
      <trkpt lat="47.88017" lon="6.82917">
        <ele>868</ele>
        <time>2022-09-12T08:48:37Z</time>
      </trkpt>
      <trkpt lat="47.88018" lon="6.82918">
        <ele>868</ele>
        <time>2022-09-12T08:48:38Z</time>
      </trkpt>
      <trkpt lat="47.88019" lon="6.82918">
        <ele>868</ele>
        <time>2022-09-12T08:48:39Z</time>
      </trkpt>
      <trkpt lat="47.8802" lon="6.82919">
        <ele>868</ele>
        <time>2022-09-12T08:48:40Z</time>
      </trkpt>
      <trkpt lat="47.88021" lon="6.8292">
        <ele>868</ele>
        <time>2022-09-12T08:48:41Z</time>
      </trkpt>
      <trkpt lat="47.88022" lon="6.82921">
        <ele>868</ele>
        <time>2022-09-12T08:48:42Z</time>
      </trkpt>
      <trkpt lat="47.88022" lon="6.82922">
        <ele>868</ele>
        <time>2022-09-12T08:48:43Z</time>
      </trkpt>
      <trkpt lat="47.88023" lon="6.82923">
        <ele>868</ele>
        <time>2022-09-12T08:48:44Z</time>
      </trkpt>
      <trkpt lat="47.88024" lon="6.82925">
        <ele>868</ele>
        <time>2022-09-12T08:48:45Z</time>
      </trkpt>
      <trkpt lat="47.88025" lon="6.82926">
        <ele>869</ele>
        <time>2022-09-12T08:48:46Z</time>
      </trkpt>
      <trkpt lat="47.88025" lon="6.82927">
        <ele>869</ele>
        <time>2022-09-12T08:48:47Z</time>
      </trkpt>
      <trkpt lat="47.88026" lon="6.82929">
        <ele>869</ele>
        <time>2022-09-12T08:48:48Z</time>
      </trkpt>
      <trkpt lat="47.88026" lon="6.8293">
        <ele>869</ele>
        <time>2022-09-12T08:48:49Z</time>
      </trkpt>
      <trkpt lat="47.88027" lon="6.82931">
        <ele>869</ele>
        <time>2022-09-12T08:48:50Z</time>
      </trkpt>
      <trkpt lat="47.88028" lon="6.82932">
        <ele>869</ele>
        <time>2022-09-12T08:48:51Z</time>
      </trkpt>
      <trkpt lat="47.88028" lon="6.82932">
        <ele>869</ele>
        <time>2022-09-12T08:48:52Z</time>
      </trkpt>
      <trkpt lat="47.88029" lon="6.82933">
        <ele>869</ele>
        <time>2022-09-12T08:48:53Z</time>
      </trkpt>
      <trkpt lat="47.88029" lon="6.82934">
        <ele>869</ele>
        <time>2022-09-12T08:48:54Z</time>
      </trkpt>
      <trkpt lat="47.8803" lon="6.82935">
        <ele>869</ele>
        <time>2022-09-12T08:48:55Z</time>
      </trkpt>
      <trkpt lat="47.88031" lon="6.82936">
        <ele>869</ele>
        <time>2022-09-12T08:48:56Z</time>
      </trkpt>
      <trkpt lat="47.88031" lon="6.82937">
        <ele>869</ele>
        <time>2022-09-12T08:48:57Z</time>
      </trkpt>
      <trkpt lat="47.88032" lon="6.82939">
        <ele>869</ele>
        <time>2022-09-12T08:48:58Z</time>
      </trkpt>
      <trkpt lat="47.88033" lon="6.8294">
        <ele>869</ele>
        <time>2022-09-12T08:48:59Z</time>
      </trkpt>
      <trkpt lat="47.88034" lon="6.82941">
        <ele>869</ele>
        <time>2022-09-12T08:49:00Z</time>
      </trkpt>
      <trkpt lat="47.88034" lon="6.82942">
        <ele>869</ele>
        <time>2022-09-12T08:49:01Z</time>
      </trkpt>
      <trkpt lat="47.88035" lon="6.82943">
        <ele>869</ele>
        <time>2022-09-12T08:49:02Z</time>
      </trkpt>
      <trkpt lat="47.88036" lon="6.82944">
        <ele>869</ele>
        <time>2022-09-12T08:49:03Z</time>
      </trkpt>
      <trkpt lat="47.88036" lon="6.82945">
        <ele>869</ele>
        <time>2022-09-12T08:49:04Z</time>
      </trkpt>
      <trkpt lat="47.88037" lon="6.82946">
        <ele>869</ele>
        <time>2022-09-12T08:49:05Z</time>
      </trkpt>
      <trkpt lat="47.88038" lon="6.82947">
        <ele>870</ele>
        <time>2022-09-12T08:49:06Z</time>
      </trkpt>
      <trkpt lat="47.88038" lon="6.82948">
        <ele>870</ele>
        <time>2022-09-12T08:49:07Z</time>
      </trkpt>
      <trkpt lat="47.88039" lon="6.82949">
        <ele>870</ele>
        <time>2022-09-12T08:49:08Z</time>
      </trkpt>
      <trkpt lat="47.8804" lon="6.8295">
        <ele>870</ele>
        <time>2022-09-12T08:49:09Z</time>
      </trkpt>
      <trkpt lat="47.8804" lon="6.82951">
        <ele>870</ele>
        <time>2022-09-12T08:49:10Z</time>
      </trkpt>
      <trkpt lat="47.88041" lon="6.82952">
        <ele>870</ele>
        <time>2022-09-12T08:49:11Z</time>
      </trkpt>
      <trkpt lat="47.88041" lon="6.82953">
        <ele>870</ele>
        <time>2022-09-12T08:49:12Z</time>
      </trkpt>
      <trkpt lat="47.88042" lon="6.82954">
        <ele>870</ele>
        <time>2022-09-12T08:49:13Z</time>
      </trkpt>
      <trkpt lat="47.88042" lon="6.82955">
        <ele>870</ele>
        <time>2022-09-12T08:49:14Z</time>
      </trkpt>
      <trkpt lat="47.88043" lon="6.82956">
        <ele>870</ele>
        <time>2022-09-12T08:49:15Z</time>
      </trkpt>
      <trkpt lat="47.88044" lon="6.82957">
        <ele>870</ele>
        <time>2022-09-12T08:49:16Z</time>
      </trkpt>
      <trkpt lat="47.88044" lon="6.82958">
        <ele>870</ele>
        <time>2022-09-12T08:49:17Z</time>
      </trkpt>
      <trkpt lat="47.88045" lon="6.8296">
        <ele>870</ele>
        <time>2022-09-12T08:49:18Z</time>
      </trkpt>
      <trkpt lat="47.88045" lon="6.82961">
        <ele>870</ele>
        <time>2022-09-12T08:49:19Z</time>
      </trkpt>
      <trkpt lat="47.88046" lon="6.82963">
        <ele>870</ele>
        <time>2022-09-12T08:49:20Z</time>
      </trkpt>
      <trkpt lat="47.88046" lon="6.82965">
        <ele>870</ele>
        <time>2022-09-12T08:49:21Z</time>
      </trkpt>
      <trkpt lat="47.88046" lon="6.82966">
        <ele>870</ele>
        <time>2022-09-12T08:49:22Z</time>
      </trkpt>
      <trkpt lat="47.88047" lon="6.82967">
        <ele>870</ele>
        <time>2022-09-12T08:49:23Z</time>
      </trkpt>
      <trkpt lat="47.88047" lon="6.82969">
        <ele>870</ele>
        <time>2022-09-12T08:49:24Z</time>
      </trkpt>
      <trkpt lat="47.88048" lon="6.82969">
        <ele>870</ele>
        <time>2022-09-12T08:49:25Z</time>
      </trkpt>
      <trkpt lat="47.88048" lon="6.8297">
        <ele>870</ele>
        <time>2022-09-12T08:49:26Z</time>
      </trkpt>
      <trkpt lat="47.88049" lon="6.82971">
        <ele>870</ele>
        <time>2022-09-12T08:49:27Z</time>
      </trkpt>
      <trkpt lat="47.8805" lon="6.82971">
        <ele>870</ele>
        <time>2022-09-12T08:49:28Z</time>
      </trkpt>
      <trkpt lat="47.88052" lon="6.82972">
        <ele>870</ele>
        <time>2022-09-12T08:49:29Z</time>
      </trkpt>
      <trkpt lat="47.88053" lon="6.82972">
        <ele>870</ele>
        <time>2022-09-12T08:49:30Z</time>
      </trkpt>
      <trkpt lat="47.88054" lon="6.82973">
        <ele>870</ele>
        <time>2022-09-12T08:49:31Z</time>
      </trkpt>
      <trkpt lat="47.88055" lon="6.82974">
        <ele>870</ele>
        <time>2022-09-12T08:49:32Z</time>
      </trkpt>
      <trkpt lat="47.88056" lon="6.82974">
        <ele>870</ele>
        <time>2022-09-12T08:49:33Z</time>
      </trkpt>
      <trkpt lat="47.88057" lon="6.82975">
        <ele>870</ele>
        <time>2022-09-12T08:49:34Z</time>
      </trkpt>
      <trkpt lat="47.88057" lon="6.82975">
        <ele>870</ele>
        <time>2022-09-12T08:49:35Z</time>
      </trkpt>
      <trkpt lat="47.88058" lon="6.82975">
        <ele>870</ele>
        <time>2022-09-12T08:49:36Z</time>
      </trkpt>
      <trkpt lat="47.88059" lon="6.82975">
        <ele>870</ele>
        <time>2022-09-12T08:49:37Z</time>
      </trkpt>
      <trkpt lat="47.8806" lon="6.82976">
        <ele>870</ele>
        <time>2022-09-12T08:49:38Z</time>
      </trkpt>
      <trkpt lat="47.88061" lon="6.82976">
        <ele>870</ele>
        <time>2022-09-12T08:49:39Z</time>
      </trkpt>
      <trkpt lat="47.88062" lon="6.82976">
        <ele>870</ele>
        <time>2022-09-12T08:49:40Z</time>
      </trkpt>
      <trkpt lat="47.88063" lon="6.82976">
        <ele>870</ele>
        <time>2022-09-12T08:49:41Z</time>
      </trkpt>
      <trkpt lat="47.88064" lon="6.82977">
        <ele>870</ele>
        <time>2022-09-12T08:49:42Z</time>
      </trkpt>
      <trkpt lat="47.88065" lon="6.82977">
        <ele>870</ele>
        <time>2022-09-12T08:49:43Z</time>
      </trkpt>
      <trkpt lat="47.88066" lon="6.82978">
        <ele>870</ele>
        <time>2022-09-12T08:49:44Z</time>
      </trkpt>
      <trkpt lat="47.88067" lon="6.82979">
        <ele>870</ele>
        <time>2022-09-12T08:49:45Z</time>
      </trkpt>
      <trkpt lat="47.88068" lon="6.8298">
        <ele>870</ele>
        <time>2022-09-12T08:49:46Z</time>
      </trkpt>
      <trkpt lat="47.88069" lon="6.82981">
        <ele>870</ele>
        <time>2022-09-12T08:49:47Z</time>
      </trkpt>
      <trkpt lat="47.8807" lon="6.82981">
        <ele>870</ele>
        <time>2022-09-12T08:49:48Z</time>
      </trkpt>
      <trkpt lat="47.8807" lon="6.82982">
        <ele>870</ele>
        <time>2022-09-12T08:49:49Z</time>
      </trkpt>
      <trkpt lat="47.88071" lon="6.82983">
        <ele>870</ele>
        <time>2022-09-12T08:49:50Z</time>
      </trkpt>
      <trkpt lat="47.88072" lon="6.82983">
        <ele>871</ele>
        <time>2022-09-12T08:49:51Z</time>
      </trkpt>
      <trkpt lat="47.88073" lon="6.82984">
        <ele>871</ele>
        <time>2022-09-12T08:49:52Z</time>
      </trkpt>
      <trkpt lat="47.88074" lon="6.82985">
        <ele>871</ele>
        <time>2022-09-12T08:49:53Z</time>
      </trkpt>
      <trkpt lat="47.88075" lon="6.82985">
        <ele>871</ele>
        <time>2022-09-12T08:49:54Z</time>
      </trkpt>
      <trkpt lat="47.88076" lon="6.82985">
        <ele>871</ele>
        <time>2022-09-12T08:49:55Z</time>
      </trkpt>
      <trkpt lat="47.88077" lon="6.82986">
        <ele>871</ele>
        <time>2022-09-12T08:49:56Z</time>
      </trkpt>
      <trkpt lat="47.88078" lon="6.82986">
        <ele>871</ele>
        <time>2022-09-12T08:49:57Z</time>
      </trkpt>
      <trkpt lat="47.88079" lon="6.82986">
        <ele>871</ele>
        <time>2022-09-12T08:49:58Z</time>
      </trkpt>
      <trkpt lat="47.8808" lon="6.82986">
        <ele>871</ele>
        <time>2022-09-12T08:49:59Z</time>
      </trkpt>
      <trkpt lat="47.88081" lon="6.82986">
        <ele>871</ele>
        <time>2022-09-12T08:50:00Z</time>
      </trkpt>
      <trkpt lat="47.88081" lon="6.82986">
        <ele>872</ele>
        <time>2022-09-12T08:50:01Z</time>
      </trkpt>
      <trkpt lat="47.88082" lon="6.82987">
        <ele>872</ele>
        <time>2022-09-12T08:50:02Z</time>
      </trkpt>
      <trkpt lat="47.88083" lon="6.82987">
        <ele>872</ele>
        <time>2022-09-12T08:50:03Z</time>
      </trkpt>
      <trkpt lat="47.88084" lon="6.82988">
        <ele>872</ele>
        <time>2022-09-12T08:50:04Z</time>
      </trkpt>
      <trkpt lat="47.88085" lon="6.82988">
        <ele>872</ele>
        <time>2022-09-12T08:50:05Z</time>
      </trkpt>
      <trkpt lat="47.88086" lon="6.82989">
        <ele>872</ele>
        <time>2022-09-12T08:50:06Z</time>
      </trkpt>
      <trkpt lat="47.88087" lon="6.8299">
        <ele>872</ele>
        <time>2022-09-12T08:50:07Z</time>
      </trkpt>
      <trkpt lat="47.88087" lon="6.8299">
        <ele>872</ele>
        <time>2022-09-12T08:50:08Z</time>
      </trkpt>
      <trkpt lat="47.88088" lon="6.8299">
        <ele>872</ele>
        <time>2022-09-12T08:50:09Z</time>
      </trkpt>
      <trkpt lat="47.88089" lon="6.82991">
        <ele>872</ele>
        <time>2022-09-12T08:50:10Z</time>
      </trkpt>
      <trkpt lat="47.8809" lon="6.82991">
        <ele>873</ele>
        <time>2022-09-12T08:50:11Z</time>
      </trkpt>
      <trkpt lat="47.88091" lon="6.82992">
        <ele>873</ele>
        <time>2022-09-12T08:50:12Z</time>
      </trkpt>
      <trkpt lat="47.88091" lon="6.82993">
        <ele>873</ele>
        <time>2022-09-12T08:50:13Z</time>
      </trkpt>
      <trkpt lat="47.88092" lon="6.82994">
        <ele>873</ele>
        <time>2022-09-12T08:50:14Z</time>
      </trkpt>
      <trkpt lat="47.88093" lon="6.82995">
        <ele>873</ele>
        <time>2022-09-12T08:50:15Z</time>
      </trkpt>
      <trkpt lat="47.88094" lon="6.82996">
        <ele>873</ele>
        <time>2022-09-12T08:50:16Z</time>
      </trkpt>
      <trkpt lat="47.88095" lon="6.82997">
        <ele>873</ele>
        <time>2022-09-12T08:50:17Z</time>
      </trkpt>
      <trkpt lat="47.88096" lon="6.82998">
        <ele>873</ele>
        <time>2022-09-12T08:50:18Z</time>
      </trkpt>
      <trkpt lat="47.88096" lon="6.82999">
        <ele>873</ele>
        <time>2022-09-12T08:50:19Z</time>
      </trkpt>
      <trkpt lat="47.88097" lon="6.83">
        <ele>873</ele>
        <time>2022-09-12T08:50:20Z</time>
      </trkpt>
      <trkpt lat="47.88098" lon="6.83001">
        <ele>873</ele>
        <time>2022-09-12T08:50:21Z</time>
      </trkpt>
      <trkpt lat="47.88099" lon="6.83002">
        <ele>873</ele>
        <time>2022-09-12T08:50:22Z</time>
      </trkpt>
      <trkpt lat="47.88099" lon="6.83003">
        <ele>873</ele>
        <time>2022-09-12T08:50:23Z</time>
      </trkpt>
      <trkpt lat="47.881" lon="6.83005">
        <ele>873</ele>
        <time>2022-09-12T08:50:24Z</time>
      </trkpt>
      <trkpt lat="47.88101" lon="6.83006">
        <ele>873</ele>
        <time>2022-09-12T08:50:25Z</time>
      </trkpt>
      <trkpt lat="47.88102" lon="6.83007">
        <ele>874</ele>
        <time>2022-09-12T08:50:26Z</time>
      </trkpt>
      <trkpt lat="47.88103" lon="6.83007">
        <ele>874</ele>
        <time>2022-09-12T08:50:27Z</time>
      </trkpt>
      <trkpt lat="47.88104" lon="6.83008">
        <ele>874</ele>
        <time>2022-09-12T08:50:28Z</time>
      </trkpt>
      <trkpt lat="47.88105" lon="6.83009">
        <ele>874</ele>
        <time>2022-09-12T08:50:29Z</time>
      </trkpt>
      <trkpt lat="47.88106" lon="6.8301">
        <ele>874</ele>
        <time>2022-09-12T08:50:30Z</time>
      </trkpt>
      <trkpt lat="47.88107" lon="6.83011">
        <ele>874</ele>
        <time>2022-09-12T08:50:31Z</time>
      </trkpt>
      <trkpt lat="47.88108" lon="6.83012">
        <ele>874</ele>
        <time>2022-09-12T08:50:32Z</time>
      </trkpt>
      <trkpt lat="47.88109" lon="6.83012">
        <ele>874</ele>
        <time>2022-09-12T08:50:33Z</time>
      </trkpt>
      <trkpt lat="47.8811" lon="6.83013">
        <ele>874</ele>
        <time>2022-09-12T08:50:34Z</time>
      </trkpt>
      <trkpt lat="47.88111" lon="6.83014">
        <ele>874</ele>
        <time>2022-09-12T08:50:35Z</time>
      </trkpt>
      <trkpt lat="47.88112" lon="6.83015">
        <ele>874</ele>
        <time>2022-09-12T08:50:36Z</time>
      </trkpt>
      <trkpt lat="47.88113" lon="6.83016">
        <ele>874</ele>
        <time>2022-09-12T08:50:37Z</time>
      </trkpt>
      <trkpt lat="47.88114" lon="6.83018">
        <ele>874</ele>
        <time>2022-09-12T08:50:38Z</time>
      </trkpt>
      <trkpt lat="47.88114" lon="6.83019">
        <ele>874</ele>
        <time>2022-09-12T08:50:39Z</time>
      </trkpt>
      <trkpt lat="47.88115" lon="6.83021">
        <ele>874</ele>
        <time>2022-09-12T08:50:40Z</time>
      </trkpt>
      <trkpt lat="47.88116" lon="6.83023">
        <ele>875</ele>
        <time>2022-09-12T08:50:41Z</time>
      </trkpt>
      <trkpt lat="47.88117" lon="6.83025">
        <ele>875</ele>
        <time>2022-09-12T08:50:42Z</time>
      </trkpt>
      <trkpt lat="47.88118" lon="6.83027">
        <ele>875</ele>
        <time>2022-09-12T08:50:43Z</time>
      </trkpt>
      <trkpt lat="47.88119" lon="6.83028">
        <ele>875</ele>
        <time>2022-09-12T08:50:44Z</time>
      </trkpt>
      <trkpt lat="47.88119" lon="6.83029">
        <ele>875</ele>
        <time>2022-09-12T08:50:45Z</time>
      </trkpt>
      <trkpt lat="47.8812" lon="6.8303">
        <ele>875</ele>
        <time>2022-09-12T08:50:46Z</time>
      </trkpt>
      <trkpt lat="47.8812" lon="6.8303">
        <ele>875</ele>
        <time>2022-09-12T08:50:47Z</time>
      </trkpt>
      <trkpt lat="47.88121" lon="6.83031">
        <ele>875</ele>
        <time>2022-09-12T08:50:48Z</time>
      </trkpt>
      <trkpt lat="47.88122" lon="6.83031">
        <ele>875</ele>
        <time>2022-09-12T08:50:49Z</time>
      </trkpt>
      <trkpt lat="47.88122" lon="6.83032">
        <ele>875</ele>
        <time>2022-09-12T08:50:50Z</time>
      </trkpt>
      <trkpt lat="47.88123" lon="6.83033">
        <ele>876</ele>
        <time>2022-09-12T08:50:51Z</time>
      </trkpt>
      <trkpt lat="47.88124" lon="6.83034">
        <ele>876</ele>
        <time>2022-09-12T08:50:52Z</time>
      </trkpt>
      <trkpt lat="47.88125" lon="6.83035">
        <ele>876</ele>
        <time>2022-09-12T08:50:53Z</time>
      </trkpt>
      <trkpt lat="47.88125" lon="6.83036">
        <ele>876</ele>
        <time>2022-09-12T08:50:54Z</time>
      </trkpt>
      <trkpt lat="47.88126" lon="6.83037">
        <ele>876</ele>
        <time>2022-09-12T08:50:55Z</time>
      </trkpt>
      <trkpt lat="47.88127" lon="6.83038">
        <ele>876</ele>
        <time>2022-09-12T08:50:56Z</time>
      </trkpt>
      <trkpt lat="47.88128" lon="6.83039">
        <ele>876</ele>
        <time>2022-09-12T08:50:57Z</time>
      </trkpt>
      <trkpt lat="47.88128" lon="6.8304">
        <ele>876</ele>
        <time>2022-09-12T08:50:58Z</time>
      </trkpt>
      <trkpt lat="47.88129" lon="6.83041">
        <ele>876</ele>
        <time>2022-09-12T08:50:59Z</time>
      </trkpt>
      <trkpt lat="47.8813" lon="6.83043">
        <ele>876</ele>
        <time>2022-09-12T08:51:00Z</time>
      </trkpt>
      <trkpt lat="47.88131" lon="6.83044">
        <ele>876</ele>
        <time>2022-09-12T08:51:01Z</time>
      </trkpt>
      <trkpt lat="47.88131" lon="6.83045">
        <ele>876</ele>
        <time>2022-09-12T08:51:02Z</time>
      </trkpt>
      <trkpt lat="47.88132" lon="6.83046">
        <ele>876</ele>
        <time>2022-09-12T08:51:03Z</time>
      </trkpt>
      <trkpt lat="47.88133" lon="6.83048">
        <ele>876</ele>
        <time>2022-09-12T08:51:04Z</time>
      </trkpt>
      <trkpt lat="47.88133" lon="6.83049">
        <ele>876</ele>
        <time>2022-09-12T08:51:05Z</time>
      </trkpt>
      <trkpt lat="47.88134" lon="6.8305">
        <ele>876</ele>
        <time>2022-09-12T08:51:06Z</time>
      </trkpt>
      <trkpt lat="47.88134" lon="6.83051">
        <ele>876</ele>
        <time>2022-09-12T08:51:07Z</time>
      </trkpt>
      <trkpt lat="47.88135" lon="6.83052">
        <ele>876</ele>
        <time>2022-09-12T08:51:08Z</time>
      </trkpt>
      <trkpt lat="47.88136" lon="6.83053">
        <ele>876</ele>
        <time>2022-09-12T08:51:09Z</time>
      </trkpt>
      <trkpt lat="47.88137" lon="6.83054">
        <ele>876</ele>
        <time>2022-09-12T08:51:10Z</time>
      </trkpt>
      <trkpt lat="47.88138" lon="6.83056">
        <ele>876</ele>
        <time>2022-09-12T08:51:11Z</time>
      </trkpt>
      <trkpt lat="47.88139" lon="6.83057">
        <ele>876</ele>
        <time>2022-09-12T08:51:12Z</time>
      </trkpt>
      <trkpt lat="47.88139" lon="6.83058">
        <ele>876</ele>
        <time>2022-09-12T08:51:13Z</time>
      </trkpt>
      <trkpt lat="47.8814" lon="6.83059">
        <ele>876</ele>
        <time>2022-09-12T08:51:14Z</time>
      </trkpt>
      <trkpt lat="47.88141" lon="6.8306">
        <ele>876</ele>
        <time>2022-09-12T08:51:15Z</time>
      </trkpt>
      <trkpt lat="47.88142" lon="6.83062">
        <ele>877</ele>
        <time>2022-09-12T08:51:16Z</time>
      </trkpt>
      <trkpt lat="47.88143" lon="6.83063">
        <ele>877</ele>
        <time>2022-09-12T08:51:17Z</time>
      </trkpt>
      <trkpt lat="47.88143" lon="6.83064">
        <ele>877</ele>
        <time>2022-09-12T08:51:18Z</time>
      </trkpt>
      <trkpt lat="47.88144" lon="6.83065">
        <ele>877</ele>
        <time>2022-09-12T08:51:19Z</time>
      </trkpt>
      <trkpt lat="47.88145" lon="6.83066">
        <ele>877</ele>
        <time>2022-09-12T08:51:20Z</time>
      </trkpt>
      <trkpt lat="47.88146" lon="6.83067">
        <ele>877</ele>
        <time>2022-09-12T08:51:21Z</time>
      </trkpt>
      <trkpt lat="47.88147" lon="6.83068">
        <ele>877</ele>
        <time>2022-09-12T08:51:22Z</time>
      </trkpt>
      <trkpt lat="47.88148" lon="6.83069">
        <ele>877</ele>
        <time>2022-09-12T08:51:23Z</time>
      </trkpt>
      <trkpt lat="47.88149" lon="6.83069">
        <ele>877</ele>
        <time>2022-09-12T08:51:24Z</time>
      </trkpt>
      <trkpt lat="47.88149" lon="6.8307">
        <ele>877</ele>
        <time>2022-09-12T08:51:25Z</time>
      </trkpt>
      <trkpt lat="47.8815" lon="6.83071">
        <ele>877</ele>
        <time>2022-09-12T08:51:26Z</time>
      </trkpt>
      <trkpt lat="47.88151" lon="6.83072">
        <ele>877</ele>
        <time>2022-09-12T08:51:27Z</time>
      </trkpt>
      <trkpt lat="47.88152" lon="6.83073">
        <ele>877</ele>
        <time>2022-09-12T08:51:28Z</time>
      </trkpt>
      <trkpt lat="47.88153" lon="6.83073">
        <ele>877</ele>
        <time>2022-09-12T08:51:29Z</time>
      </trkpt>
      <trkpt lat="47.88153" lon="6.83074">
        <ele>877</ele>
        <time>2022-09-12T08:51:30Z</time>
      </trkpt>
      <trkpt lat="47.88154" lon="6.83075">
        <ele>877</ele>
        <time>2022-09-12T08:51:31Z</time>
      </trkpt>
      <trkpt lat="47.88155" lon="6.83075">
        <ele>877</ele>
        <time>2022-09-12T08:51:32Z</time>
      </trkpt>
      <trkpt lat="47.88155" lon="6.83076">
        <ele>877</ele>
        <time>2022-09-12T08:51:33Z</time>
      </trkpt>
      <trkpt lat="47.88156" lon="6.83077">
        <ele>877</ele>
        <time>2022-09-12T08:51:34Z</time>
      </trkpt>
      <trkpt lat="47.88157" lon="6.83078">
        <ele>877</ele>
        <time>2022-09-12T08:51:35Z</time>
      </trkpt>
      <trkpt lat="47.88157" lon="6.83078">
        <ele>878</ele>
        <time>2022-09-12T08:51:36Z</time>
      </trkpt>
      <trkpt lat="47.88158" lon="6.83079">
        <ele>878</ele>
        <time>2022-09-12T08:51:37Z</time>
      </trkpt>
      <trkpt lat="47.88159" lon="6.8308">
        <ele>878</ele>
        <time>2022-09-12T08:51:38Z</time>
      </trkpt>
      <trkpt lat="47.8816" lon="6.83081">
        <ele>878</ele>
        <time>2022-09-12T08:51:39Z</time>
      </trkpt>
      <trkpt lat="47.88161" lon="6.83081">
        <ele>878</ele>
        <time>2022-09-12T08:51:40Z</time>
      </trkpt>
      <trkpt lat="47.88162" lon="6.83082">
        <ele>878</ele>
        <time>2022-09-12T08:51:41Z</time>
      </trkpt>
      <trkpt lat="47.88163" lon="6.83083">
        <ele>878</ele>
        <time>2022-09-12T08:51:42Z</time>
      </trkpt>
      <trkpt lat="47.88164" lon="6.83084">
        <ele>878</ele>
        <time>2022-09-12T08:51:43Z</time>
      </trkpt>
      <trkpt lat="47.88165" lon="6.83084">
        <ele>878</ele>
        <time>2022-09-12T08:51:44Z</time>
      </trkpt>
      <trkpt lat="47.88166" lon="6.83085">
        <ele>878</ele>
        <time>2022-09-12T08:51:45Z</time>
      </trkpt>
      <trkpt lat="47.88166" lon="6.83086">
        <ele>878</ele>
        <time>2022-09-12T08:51:46Z</time>
      </trkpt>
      <trkpt lat="47.88167" lon="6.83087">
        <ele>878</ele>
        <time>2022-09-12T08:51:47Z</time>
      </trkpt>
      <trkpt lat="47.88168" lon="6.83088">
        <ele>878</ele>
        <time>2022-09-12T08:51:48Z</time>
      </trkpt>
      <trkpt lat="47.88169" lon="6.83088">
        <ele>878</ele>
        <time>2022-09-12T08:51:49Z</time>
      </trkpt>
      <trkpt lat="47.8817" lon="6.83089">
        <ele>878</ele>
        <time>2022-09-12T08:51:50Z</time>
      </trkpt>
      <trkpt lat="47.88171" lon="6.8309">
        <ele>878</ele>
        <time>2022-09-12T08:51:51Z</time>
      </trkpt>
      <trkpt lat="47.88172" lon="6.83091">
        <ele>878</ele>
        <time>2022-09-12T08:51:52Z</time>
      </trkpt>
      <trkpt lat="47.88173" lon="6.83092">
        <ele>878</ele>
        <time>2022-09-12T08:51:53Z</time>
      </trkpt>
      <trkpt lat="47.88174" lon="6.83093">
        <ele>878</ele>
        <time>2022-09-12T08:51:54Z</time>
      </trkpt>
      <trkpt lat="47.88174" lon="6.83094">
        <ele>878</ele>
        <time>2022-09-12T08:51:55Z</time>
      </trkpt>
      <trkpt lat="47.88175" lon="6.83094">
        <ele>879</ele>
        <time>2022-09-12T08:51:56Z</time>
      </trkpt>
      <trkpt lat="47.88176" lon="6.83095">
        <ele>879</ele>
        <time>2022-09-12T08:51:57Z</time>
      </trkpt>
      <trkpt lat="47.88177" lon="6.83096">
        <ele>879</ele>
        <time>2022-09-12T08:51:58Z</time>
      </trkpt>
      <trkpt lat="47.88178" lon="6.83097">
        <ele>879</ele>
        <time>2022-09-12T08:51:59Z</time>
      </trkpt>
      <trkpt lat="47.88179" lon="6.83097">
        <ele>879</ele>
        <time>2022-09-12T08:52:00Z</time>
      </trkpt>
      <trkpt lat="47.8818" lon="6.83098">
        <ele>879</ele>
        <time>2022-09-12T08:52:01Z</time>
      </trkpt>
      <trkpt lat="47.8818" lon="6.83099">
        <ele>879</ele>
        <time>2022-09-12T08:52:02Z</time>
      </trkpt>
      <trkpt lat="47.88181" lon="6.831">
        <ele>879</ele>
        <time>2022-09-12T08:52:03Z</time>
      </trkpt>
      <trkpt lat="47.88182" lon="6.831">
        <ele>879</ele>
        <time>2022-09-12T08:52:04Z</time>
      </trkpt>
      <trkpt lat="47.88183" lon="6.83101">
        <ele>879</ele>
        <time>2022-09-12T08:52:05Z</time>
      </trkpt>
      <trkpt lat="47.88184" lon="6.83101">
        <ele>879</ele>
        <time>2022-09-12T08:52:06Z</time>
      </trkpt>
      <trkpt lat="47.88185" lon="6.83102">
        <ele>879</ele>
        <time>2022-09-12T08:52:07Z</time>
      </trkpt>
      <trkpt lat="47.88186" lon="6.83102">
        <ele>879</ele>
        <time>2022-09-12T08:52:08Z</time>
      </trkpt>
      <trkpt lat="47.88187" lon="6.83103">
        <ele>879</ele>
        <time>2022-09-12T08:52:09Z</time>
      </trkpt>
      <trkpt lat="47.88188" lon="6.83104">
        <ele>879</ele>
        <time>2022-09-12T08:52:10Z</time>
      </trkpt>
      <trkpt lat="47.88188" lon="6.83105">
        <ele>879</ele>
        <time>2022-09-12T08:52:11Z</time>
      </trkpt>
      <trkpt lat="47.88189" lon="6.83106">
        <ele>879</ele>
        <time>2022-09-12T08:52:12Z</time>
      </trkpt>
      <trkpt lat="47.8819" lon="6.83106">
        <ele>879</ele>
        <time>2022-09-12T08:52:13Z</time>
      </trkpt>
      <trkpt lat="47.8819" lon="6.83107">
        <ele>879</ele>
        <time>2022-09-12T08:52:14Z</time>
      </trkpt>
      <trkpt lat="47.88191" lon="6.83108">
        <ele>879</ele>
        <time>2022-09-12T08:52:15Z</time>
      </trkpt>
      <trkpt lat="47.88192" lon="6.83109">
        <ele>879</ele>
        <time>2022-09-12T08:52:16Z</time>
      </trkpt>
      <trkpt lat="47.88193" lon="6.8311">
        <ele>879</ele>
        <time>2022-09-12T08:52:17Z</time>
      </trkpt>
      <trkpt lat="47.88194" lon="6.83111">
        <ele>879</ele>
        <time>2022-09-12T08:52:18Z</time>
      </trkpt>
      <trkpt lat="47.88195" lon="6.83111">
        <ele>879</ele>
        <time>2022-09-12T08:52:19Z</time>
      </trkpt>
      <trkpt lat="47.88196" lon="6.83112">
        <ele>879</ele>
        <time>2022-09-12T08:52:20Z</time>
      </trkpt>
      <trkpt lat="47.88197" lon="6.83113">
        <ele>880</ele>
        <time>2022-09-12T08:52:21Z</time>
      </trkpt>
      <trkpt lat="47.88198" lon="6.83114">
        <ele>880</ele>
        <time>2022-09-12T08:52:22Z</time>
      </trkpt>
      <trkpt lat="47.88199" lon="6.83114">
        <ele>880</ele>
        <time>2022-09-12T08:52:23Z</time>
      </trkpt>
      <trkpt lat="47.882" lon="6.83115">
        <ele>880</ele>
        <time>2022-09-12T08:52:24Z</time>
      </trkpt>
      <trkpt lat="47.88201" lon="6.83115">
        <ele>880</ele>
        <time>2022-09-12T08:52:25Z</time>
      </trkpt>
      <trkpt lat="47.88202" lon="6.83116">
        <ele>880</ele>
        <time>2022-09-12T08:52:26Z</time>
      </trkpt>
      <trkpt lat="47.88203" lon="6.83117">
        <ele>880</ele>
        <time>2022-09-12T08:52:27Z</time>
      </trkpt>
      <trkpt lat="47.88204" lon="6.83117">
        <ele>880</ele>
        <time>2022-09-12T08:52:28Z</time>
      </trkpt>
      <trkpt lat="47.88205" lon="6.83118">
        <ele>880</ele>
        <time>2022-09-12T08:52:29Z</time>
      </trkpt>
      <trkpt lat="47.88205" lon="6.83119">
        <ele>880</ele>
        <time>2022-09-12T08:52:30Z</time>
      </trkpt>
      <trkpt lat="47.88206" lon="6.8312">
        <ele>880</ele>
        <time>2022-09-12T08:52:31Z</time>
      </trkpt>
      <trkpt lat="47.88207" lon="6.83121">
        <ele>880</ele>
        <time>2022-09-12T08:52:32Z</time>
      </trkpt>
      <trkpt lat="47.88207" lon="6.83121">
        <ele>880</ele>
        <time>2022-09-12T08:52:33Z</time>
      </trkpt>
      <trkpt lat="47.88208" lon="6.83122">
        <ele>880</ele>
        <time>2022-09-12T08:52:34Z</time>
      </trkpt>
      <trkpt lat="47.88209" lon="6.83123">
        <ele>880</ele>
        <time>2022-09-12T08:52:35Z</time>
      </trkpt>
      <trkpt lat="47.8821" lon="6.83123">
        <ele>880</ele>
        <time>2022-09-12T08:52:36Z</time>
      </trkpt>
      <trkpt lat="47.88211" lon="6.83124">
        <ele>880</ele>
        <time>2022-09-12T08:52:37Z</time>
      </trkpt>
      <trkpt lat="47.88212" lon="6.83125">
        <ele>880</ele>
        <time>2022-09-12T08:52:38Z</time>
      </trkpt>
      <trkpt lat="47.88213" lon="6.83126">
        <ele>880</ele>
        <time>2022-09-12T08:52:39Z</time>
      </trkpt>
      <trkpt lat="47.88213" lon="6.83126">
        <ele>880</ele>
        <time>2022-09-12T08:52:40Z</time>
      </trkpt>
      <trkpt lat="47.88214" lon="6.83126">
        <ele>881</ele>
        <time>2022-09-12T08:52:41Z</time>
      </trkpt>
      <trkpt lat="47.88215" lon="6.83127">
        <ele>881</ele>
        <time>2022-09-12T08:52:42Z</time>
      </trkpt>
      <trkpt lat="47.88216" lon="6.83127">
        <ele>881</ele>
        <time>2022-09-12T08:52:43Z</time>
      </trkpt>
      <trkpt lat="47.88217" lon="6.83127">
        <ele>881</ele>
        <time>2022-09-12T08:52:44Z</time>
      </trkpt>
      <trkpt lat="47.88218" lon="6.83128">
        <ele>881</ele>
        <time>2022-09-12T08:52:45Z</time>
      </trkpt>
      <trkpt lat="47.88219" lon="6.83128">
        <ele>881</ele>
        <time>2022-09-12T08:52:46Z</time>
      </trkpt>
      <trkpt lat="47.88219" lon="6.83128">
        <ele>881</ele>
        <time>2022-09-12T08:52:47Z</time>
      </trkpt>
      <trkpt lat="47.8822" lon="6.83129">
        <ele>881</ele>
        <time>2022-09-12T08:52:48Z</time>
      </trkpt>
      <trkpt lat="47.88221" lon="6.83129">
        <ele>881</ele>
        <time>2022-09-12T08:52:49Z</time>
      </trkpt>
      <trkpt lat="47.88222" lon="6.8313">
        <ele>881</ele>
        <time>2022-09-12T08:52:50Z</time>
      </trkpt>
      <trkpt lat="47.88223" lon="6.8313">
        <ele>881</ele>
        <time>2022-09-12T08:52:51Z</time>
      </trkpt>
      <trkpt lat="47.88224" lon="6.83131">
        <ele>881</ele>
        <time>2022-09-12T08:52:52Z</time>
      </trkpt>
      <trkpt lat="47.88224" lon="6.83132">
        <ele>881</ele>
        <time>2022-09-12T08:52:53Z</time>
      </trkpt>
      <trkpt lat="47.88225" lon="6.83132">
        <ele>881</ele>
        <time>2022-09-12T08:52:54Z</time>
      </trkpt>
      <trkpt lat="47.88226" lon="6.83133">
        <ele>881</ele>
        <time>2022-09-12T08:52:55Z</time>
      </trkpt>
      <trkpt lat="47.88226" lon="6.83134">
        <ele>881</ele>
        <time>2022-09-12T08:52:56Z</time>
      </trkpt>
      <trkpt lat="47.88227" lon="6.83135">
        <ele>881</ele>
        <time>2022-09-12T08:52:57Z</time>
      </trkpt>
      <trkpt lat="47.88227" lon="6.83136">
        <ele>881</ele>
        <time>2022-09-12T08:52:58Z</time>
      </trkpt>
      <trkpt lat="47.88228" lon="6.83137">
        <ele>881</ele>
        <time>2022-09-12T08:52:59Z</time>
      </trkpt>
      <trkpt lat="47.88229" lon="6.83138">
        <ele>881</ele>
        <time>2022-09-12T08:53:00Z</time>
      </trkpt>
      <trkpt lat="47.88229" lon="6.83139">
        <ele>882</ele>
        <time>2022-09-12T08:53:01Z</time>
      </trkpt>
      <trkpt lat="47.8823" lon="6.83139">
        <ele>882</ele>
        <time>2022-09-12T08:53:02Z</time>
      </trkpt>
      <trkpt lat="47.88231" lon="6.8314">
        <ele>882</ele>
        <time>2022-09-12T08:53:03Z</time>
      </trkpt>
      <trkpt lat="47.88231" lon="6.83141">
        <ele>882</ele>
        <time>2022-09-12T08:53:04Z</time>
      </trkpt>
      <trkpt lat="47.88232" lon="6.83142">
        <ele>882</ele>
        <time>2022-09-12T08:53:05Z</time>
      </trkpt>
      <trkpt lat="47.88232" lon="6.83143">
        <ele>882</ele>
        <time>2022-09-12T08:53:06Z</time>
      </trkpt>
      <trkpt lat="47.88233" lon="6.83144">
        <ele>881</ele>
        <time>2022-09-12T08:53:07Z</time>
      </trkpt>
      <trkpt lat="47.88233" lon="6.83145">
        <ele>881</ele>
        <time>2022-09-12T08:53:08Z</time>
      </trkpt>
      <trkpt lat="47.88234" lon="6.83146">
        <ele>881</ele>
        <time>2022-09-12T08:53:09Z</time>
      </trkpt>
      <trkpt lat="47.88235" lon="6.83147">
        <ele>881</ele>
        <time>2022-09-12T08:53:10Z</time>
      </trkpt>
      <trkpt lat="47.88236" lon="6.83148">
        <ele>881</ele>
        <time>2022-09-12T08:53:11Z</time>
      </trkpt>
      <trkpt lat="47.88237" lon="6.83149">
        <ele>881</ele>
        <time>2022-09-12T08:53:12Z</time>
      </trkpt>
      <trkpt lat="47.88238" lon="6.8315">
        <ele>881</ele>
        <time>2022-09-12T08:53:13Z</time>
      </trkpt>
      <trkpt lat="47.88239" lon="6.8315">
        <ele>881</ele>
        <time>2022-09-12T08:53:14Z</time>
      </trkpt>
      <trkpt lat="47.8824" lon="6.83151">
        <ele>881</ele>
        <time>2022-09-12T08:53:15Z</time>
      </trkpt>
      <trkpt lat="47.88241" lon="6.83152">
        <ele>881</ele>
        <time>2022-09-12T08:53:16Z</time>
      </trkpt>
      <trkpt lat="47.88243" lon="6.83153">
        <ele>881</ele>
        <time>2022-09-12T08:53:17Z</time>
      </trkpt>
      <trkpt lat="47.88244" lon="6.83154">
        <ele>881</ele>
        <time>2022-09-12T08:53:18Z</time>
      </trkpt>
      <trkpt lat="47.88245" lon="6.83155">
        <ele>881</ele>
        <time>2022-09-12T08:53:19Z</time>
      </trkpt>
      <trkpt lat="47.88246" lon="6.83156">
        <ele>881</ele>
        <time>2022-09-12T08:53:20Z</time>
      </trkpt>
      <trkpt lat="47.88247" lon="6.83157">
        <ele>882</ele>
        <time>2022-09-12T08:53:21Z</time>
      </trkpt>
      <trkpt lat="47.88248" lon="6.83158">
        <ele>882</ele>
        <time>2022-09-12T08:53:22Z</time>
      </trkpt>
      <trkpt lat="47.88249" lon="6.83159">
        <ele>882</ele>
        <time>2022-09-12T08:53:23Z</time>
      </trkpt>
      <trkpt lat="47.8825" lon="6.8316">
        <ele>882</ele>
        <time>2022-09-12T08:53:24Z</time>
      </trkpt>
      <trkpt lat="47.8825" lon="6.83161">
        <ele>882</ele>
        <time>2022-09-12T08:53:25Z</time>
      </trkpt>
      <trkpt lat="47.88251" lon="6.83162">
        <ele>882</ele>
        <time>2022-09-12T08:53:26Z</time>
      </trkpt>
      <trkpt lat="47.88252" lon="6.83163">
        <ele>882</ele>
        <time>2022-09-12T08:53:27Z</time>
      </trkpt>
      <trkpt lat="47.88253" lon="6.83164">
        <ele>882</ele>
        <time>2022-09-12T08:53:28Z</time>
      </trkpt>
      <trkpt lat="47.88253" lon="6.83165">
        <ele>882</ele>
        <time>2022-09-12T08:53:29Z</time>
      </trkpt>
      <trkpt lat="47.88254" lon="6.83166">
        <ele>882</ele>
        <time>2022-09-12T08:53:30Z</time>
      </trkpt>
      <trkpt lat="47.88254" lon="6.83168">
        <ele>882</ele>
        <time>2022-09-12T08:53:31Z</time>
      </trkpt>
      <trkpt lat="47.88255" lon="6.83169">
        <ele>882</ele>
        <time>2022-09-12T08:53:32Z</time>
      </trkpt>
      <trkpt lat="47.88256" lon="6.83169">
        <ele>882</ele>
        <time>2022-09-12T08:53:33Z</time>
      </trkpt>
      <trkpt lat="47.88257" lon="6.8317">
        <ele>883</ele>
        <time>2022-09-12T08:53:34Z</time>
      </trkpt>
      <trkpt lat="47.88258" lon="6.83171">
        <ele>883</ele>
        <time>2022-09-12T08:53:35Z</time>
      </trkpt>
      <trkpt lat="47.88259" lon="6.83172">
        <ele>884</ele>
        <time>2022-09-12T08:53:36Z</time>
      </trkpt>
      <trkpt lat="47.8826" lon="6.83172">
        <ele>884</ele>
        <time>2022-09-12T08:53:37Z</time>
      </trkpt>
      <trkpt lat="47.88261" lon="6.83173">
        <ele>884</ele>
        <time>2022-09-12T08:53:38Z</time>
      </trkpt>
      <trkpt lat="47.88262" lon="6.83173">
        <ele>884</ele>
        <time>2022-09-12T08:53:39Z</time>
      </trkpt>
      <trkpt lat="47.88263" lon="6.83174">
        <ele>884</ele>
        <time>2022-09-12T08:53:40Z</time>
      </trkpt>
      <trkpt lat="47.88264" lon="6.83175">
        <ele>884</ele>
        <time>2022-09-12T08:53:41Z</time>
      </trkpt>
      <trkpt lat="47.88265" lon="6.83175">
        <ele>884</ele>
        <time>2022-09-12T08:53:42Z</time>
      </trkpt>
      <trkpt lat="47.88266" lon="6.83176">
        <ele>884</ele>
        <time>2022-09-12T08:53:43Z</time>
      </trkpt>
      <trkpt lat="47.88266" lon="6.83177">
        <ele>884</ele>
        <time>2022-09-12T08:53:44Z</time>
      </trkpt>
      <trkpt lat="47.88267" lon="6.83177">
        <ele>884</ele>
        <time>2022-09-12T08:53:45Z</time>
      </trkpt>
      <trkpt lat="47.88268" lon="6.83178">
        <ele>884</ele>
        <time>2022-09-12T08:53:46Z</time>
      </trkpt>
      <trkpt lat="47.88269" lon="6.83179">
        <ele>884</ele>
        <time>2022-09-12T08:53:47Z</time>
      </trkpt>
      <trkpt lat="47.8827" lon="6.8318">
        <ele>884</ele>
        <time>2022-09-12T08:53:48Z</time>
      </trkpt>
      <trkpt lat="47.8827" lon="6.83181">
        <ele>884</ele>
        <time>2022-09-12T08:53:49Z</time>
      </trkpt>
      <trkpt lat="47.88271" lon="6.83182">
        <ele>884</ele>
        <time>2022-09-12T08:53:50Z</time>
      </trkpt>
      <trkpt lat="47.88272" lon="6.83183">
        <ele>884</ele>
        <time>2022-09-12T08:53:51Z</time>
      </trkpt>
      <trkpt lat="47.88273" lon="6.83183">
        <ele>884</ele>
        <time>2022-09-12T08:53:52Z</time>
      </trkpt>
      <trkpt lat="47.88273" lon="6.83184">
        <ele>884</ele>
        <time>2022-09-12T08:53:53Z</time>
      </trkpt>
      <trkpt lat="47.88274" lon="6.83185">
        <ele>884</ele>
        <time>2022-09-12T08:53:54Z</time>
      </trkpt>
      <trkpt lat="47.88275" lon="6.83186">
        <ele>884</ele>
        <time>2022-09-12T08:53:55Z</time>
      </trkpt>
      <trkpt lat="47.88276" lon="6.83187">
        <ele>884</ele>
        <time>2022-09-12T08:53:56Z</time>
      </trkpt>
      <trkpt lat="47.88277" lon="6.83188">
        <ele>884</ele>
        <time>2022-09-12T08:53:57Z</time>
      </trkpt>
      <trkpt lat="47.88278" lon="6.83189">
        <ele>884</ele>
        <time>2022-09-12T08:53:58Z</time>
      </trkpt>
      <trkpt lat="47.88279" lon="6.8319">
        <ele>884</ele>
        <time>2022-09-12T08:53:59Z</time>
      </trkpt>
      <trkpt lat="47.88281" lon="6.8319">
        <ele>884</ele>
        <time>2022-09-12T08:54:00Z</time>
      </trkpt>
      <trkpt lat="47.88282" lon="6.83191">
        <ele>884</ele>
        <time>2022-09-12T08:54:01Z</time>
      </trkpt>
      <trkpt lat="47.88282" lon="6.83193">
        <ele>884</ele>
        <time>2022-09-12T08:54:02Z</time>
      </trkpt>
      <trkpt lat="47.88283" lon="6.83194">
        <ele>884</ele>
        <time>2022-09-12T08:54:03Z</time>
      </trkpt>
      <trkpt lat="47.88284" lon="6.83195">
        <ele>884</ele>
        <time>2022-09-12T08:54:04Z</time>
      </trkpt>
      <trkpt lat="47.88285" lon="6.83196">
        <ele>884</ele>
        <time>2022-09-12T08:54:05Z</time>
      </trkpt>
      <trkpt lat="47.88286" lon="6.83197">
        <ele>884</ele>
        <time>2022-09-12T08:54:06Z</time>
      </trkpt>
      <trkpt lat="47.88287" lon="6.83198">
        <ele>884</ele>
        <time>2022-09-12T08:54:07Z</time>
      </trkpt>
      <trkpt lat="47.88288" lon="6.83199">
        <ele>884</ele>
        <time>2022-09-12T08:54:08Z</time>
      </trkpt>
      <trkpt lat="47.88288" lon="6.832">
        <ele>884</ele>
        <time>2022-09-12T08:54:09Z</time>
      </trkpt>
      <trkpt lat="47.88289" lon="6.83201">
        <ele>884</ele>
        <time>2022-09-12T08:54:10Z</time>
      </trkpt>
      <trkpt lat="47.8829" lon="6.83203">
        <ele>884</ele>
        <time>2022-09-12T08:54:11Z</time>
      </trkpt>
      <trkpt lat="47.88291" lon="6.83204">
        <ele>883</ele>
        <time>2022-09-12T08:54:12Z</time>
      </trkpt>
      <trkpt lat="47.88292" lon="6.83205">
        <ele>883</ele>
        <time>2022-09-12T08:54:13Z</time>
      </trkpt>
      <trkpt lat="47.88293" lon="6.83206">
        <ele>882</ele>
        <time>2022-09-12T08:54:14Z</time>
      </trkpt>
      <trkpt lat="47.88294" lon="6.83207">
        <ele>882</ele>
        <time>2022-09-12T08:54:15Z</time>
      </trkpt>
      <trkpt lat="47.88294" lon="6.83208">
        <ele>882</ele>
        <time>2022-09-12T08:54:16Z</time>
      </trkpt>
      <trkpt lat="47.88295" lon="6.83209">
        <ele>882</ele>
        <time>2022-09-12T08:54:17Z</time>
      </trkpt>
      <trkpt lat="47.88296" lon="6.83209">
        <ele>882</ele>
        <time>2022-09-12T08:54:18Z</time>
      </trkpt>
      <trkpt lat="47.88297" lon="6.8321">
        <ele>882</ele>
        <time>2022-09-12T08:54:19Z</time>
      </trkpt>
      <trkpt lat="47.88297" lon="6.83211">
        <ele>882</ele>
        <time>2022-09-12T08:54:20Z</time>
      </trkpt>
      <trkpt lat="47.88298" lon="6.83212">
        <ele>882</ele>
        <time>2022-09-12T08:54:21Z</time>
      </trkpt>
      <trkpt lat="47.88299" lon="6.83213">
        <ele>882</ele>
        <time>2022-09-12T08:54:22Z</time>
      </trkpt>
      <trkpt lat="47.88301" lon="6.83214">
        <ele>882</ele>
        <time>2022-09-12T08:54:23Z</time>
      </trkpt>
      <trkpt lat="47.88302" lon="6.83216">
        <ele>882</ele>
        <time>2022-09-12T08:54:24Z</time>
      </trkpt>
      <trkpt lat="47.88303" lon="6.83217">
        <ele>882</ele>
        <time>2022-09-12T08:54:25Z</time>
      </trkpt>
      <trkpt lat="47.88305" lon="6.83218">
        <ele>882</ele>
        <time>2022-09-12T08:54:26Z</time>
      </trkpt>
      <trkpt lat="47.88306" lon="6.83219">
        <ele>882</ele>
        <time>2022-09-12T08:54:27Z</time>
      </trkpt>
      <trkpt lat="47.88307" lon="6.8322">
        <ele>882</ele>
        <time>2022-09-12T08:54:28Z</time>
      </trkpt>
      <trkpt lat="47.88307" lon="6.83221">
        <ele>882</ele>
        <time>2022-09-12T08:54:29Z</time>
      </trkpt>
      <trkpt lat="47.88308" lon="6.83222">
        <ele>882</ele>
        <time>2022-09-12T08:54:30Z</time>
      </trkpt>
      <trkpt lat="47.88309" lon="6.83223">
        <ele>882</ele>
        <time>2022-09-12T08:54:31Z</time>
      </trkpt>
      <trkpt lat="47.8831" lon="6.83223">
        <ele>882</ele>
        <time>2022-09-12T08:54:32Z</time>
      </trkpt>
      <trkpt lat="47.8831" lon="6.83224">
        <ele>882</ele>
        <time>2022-09-12T08:54:33Z</time>
      </trkpt>
      <trkpt lat="47.88311" lon="6.83224">
        <ele>882</ele>
        <time>2022-09-12T08:54:34Z</time>
      </trkpt>
      <trkpt lat="47.88311" lon="6.83225">
        <ele>882</ele>
        <time>2022-09-12T08:54:35Z</time>
      </trkpt>
      <trkpt lat="47.88312" lon="6.83225">
        <ele>882</ele>
        <time>2022-09-12T08:54:36Z</time>
      </trkpt>
      <trkpt lat="47.88313" lon="6.83226">
        <ele>882</ele>
        <time>2022-09-12T08:54:37Z</time>
      </trkpt>
      <trkpt lat="47.88313" lon="6.83227">
        <ele>882</ele>
        <time>2022-09-12T08:54:38Z</time>
      </trkpt>
      <trkpt lat="47.88314" lon="6.83228">
        <ele>882</ele>
        <time>2022-09-12T08:54:39Z</time>
      </trkpt>
      <trkpt lat="47.88315" lon="6.83229">
        <ele>882</ele>
        <time>2022-09-12T08:54:40Z</time>
      </trkpt>
      <trkpt lat="47.88316" lon="6.8323">
        <ele>882</ele>
        <time>2022-09-12T08:54:41Z</time>
      </trkpt>
      <trkpt lat="47.88316" lon="6.83231">
        <ele>882</ele>
        <time>2022-09-12T08:54:42Z</time>
      </trkpt>
      <trkpt lat="47.88317" lon="6.83232">
        <ele>882</ele>
        <time>2022-09-12T08:54:43Z</time>
      </trkpt>
      <trkpt lat="47.88317" lon="6.83233">
        <ele>882</ele>
        <time>2022-09-12T08:54:44Z</time>
      </trkpt>
      <trkpt lat="47.88318" lon="6.83234">
        <ele>882</ele>
        <time>2022-09-12T08:54:45Z</time>
      </trkpt>
      <trkpt lat="47.88318" lon="6.83234">
        <ele>882</ele>
        <time>2022-09-12T08:54:46Z</time>
      </trkpt>
      <trkpt lat="47.88319" lon="6.83235">
        <ele>882</ele>
        <time>2022-09-12T08:54:47Z</time>
      </trkpt>
      <trkpt lat="47.8832" lon="6.83235">
        <ele>882</ele>
        <time>2022-09-12T08:54:48Z</time>
      </trkpt>
      <trkpt lat="47.88321" lon="6.83236">
        <ele>882</ele>
        <time>2022-09-12T08:54:49Z</time>
      </trkpt>
      <trkpt lat="47.88322" lon="6.83237">
        <ele>882</ele>
        <time>2022-09-12T08:54:50Z</time>
      </trkpt>
      <trkpt lat="47.88323" lon="6.83238">
        <ele>882</ele>
        <time>2022-09-12T08:54:51Z</time>
      </trkpt>
      <trkpt lat="47.88325" lon="6.83239">
        <ele>882</ele>
        <time>2022-09-12T08:54:52Z</time>
      </trkpt>
      <trkpt lat="47.88326" lon="6.83239">
        <ele>882</ele>
        <time>2022-09-12T08:54:53Z</time>
      </trkpt>
      <trkpt lat="47.88327" lon="6.8324">
        <ele>882</ele>
        <time>2022-09-12T08:54:54Z</time>
      </trkpt>
      <trkpt lat="47.88328" lon="6.83241">
        <ele>882</ele>
        <time>2022-09-12T08:54:55Z</time>
      </trkpt>
      <trkpt lat="47.88329" lon="6.83242">
        <ele>882</ele>
        <time>2022-09-12T08:54:56Z</time>
      </trkpt>
      <trkpt lat="47.8833" lon="6.83243">
        <ele>882</ele>
        <time>2022-09-12T08:54:57Z</time>
      </trkpt>
      <trkpt lat="47.8833" lon="6.83245">
        <ele>882</ele>
        <time>2022-09-12T08:54:58Z</time>
      </trkpt>
      <trkpt lat="47.88331" lon="6.83246">
        <ele>882</ele>
        <time>2022-09-12T08:54:59Z</time>
      </trkpt>
      <trkpt lat="47.88332" lon="6.83247">
        <ele>882</ele>
        <time>2022-09-12T08:55:00Z</time>
      </trkpt>
      <trkpt lat="47.88333" lon="6.83248">
        <ele>882</ele>
        <time>2022-09-12T08:55:01Z</time>
      </trkpt>
      <trkpt lat="47.88333" lon="6.83248">
        <ele>882</ele>
        <time>2022-09-12T08:55:02Z</time>
      </trkpt>
      <trkpt lat="47.88334" lon="6.83249">
        <ele>882</ele>
        <time>2022-09-12T08:55:03Z</time>
      </trkpt>
      <trkpt lat="47.88334" lon="6.8325">
        <ele>882</ele>
        <time>2022-09-12T08:55:04Z</time>
      </trkpt>
      <trkpt lat="47.88335" lon="6.8325">
        <ele>882</ele>
        <time>2022-09-12T08:55:05Z</time>
      </trkpt>
      <trkpt lat="47.88336" lon="6.83251">
        <ele>882</ele>
        <time>2022-09-12T08:55:06Z</time>
      </trkpt>
      <trkpt lat="47.88337" lon="6.83252">
        <ele>882</ele>
        <time>2022-09-12T08:55:07Z</time>
      </trkpt>
      <trkpt lat="47.88338" lon="6.83253">
        <ele>882</ele>
        <time>2022-09-12T08:55:08Z</time>
      </trkpt>
      <trkpt lat="47.88338" lon="6.83253">
        <ele>882</ele>
        <time>2022-09-12T08:55:09Z</time>
      </trkpt>
      <trkpt lat="47.88339" lon="6.83254">
        <ele>882</ele>
        <time>2022-09-12T08:55:10Z</time>
      </trkpt>
      <trkpt lat="47.88339" lon="6.83255">
        <ele>882</ele>
        <time>2022-09-12T08:55:11Z</time>
      </trkpt>
      <trkpt lat="47.8834" lon="6.83255">
        <ele>882</ele>
        <time>2022-09-12T08:55:12Z</time>
      </trkpt>
      <trkpt lat="47.8834" lon="6.83256">
        <ele>882</ele>
        <time>2022-09-12T08:55:13Z</time>
      </trkpt>
      <trkpt lat="47.88341" lon="6.83257">
        <ele>882</ele>
        <time>2022-09-12T08:55:14Z</time>
      </trkpt>
      <trkpt lat="47.88342" lon="6.83257">
        <ele>882</ele>
        <time>2022-09-12T08:55:15Z</time>
      </trkpt>
      <trkpt lat="47.88342" lon="6.83258">
        <ele>882</ele>
        <time>2022-09-12T08:55:16Z</time>
      </trkpt>
      <trkpt lat="47.88343" lon="6.83259">
        <ele>882</ele>
        <time>2022-09-12T08:55:17Z</time>
      </trkpt>
      <trkpt lat="47.88344" lon="6.8326">
        <ele>882</ele>
        <time>2022-09-12T08:55:18Z</time>
      </trkpt>
      <trkpt lat="47.88345" lon="6.83261">
        <ele>882</ele>
        <time>2022-09-12T08:55:19Z</time>
      </trkpt>
      <trkpt lat="47.88345" lon="6.83261">
        <ele>882</ele>
        <time>2022-09-12T08:55:20Z</time>
      </trkpt>
      <trkpt lat="47.88346" lon="6.83262">
        <ele>882</ele>
        <time>2022-09-12T08:55:21Z</time>
      </trkpt>
      <trkpt lat="47.88347" lon="6.83263">
        <ele>881</ele>
        <time>2022-09-12T08:55:22Z</time>
      </trkpt>
      <trkpt lat="47.88348" lon="6.83264">
        <ele>881</ele>
        <time>2022-09-12T08:55:23Z</time>
      </trkpt>
      <trkpt lat="47.8835" lon="6.83265">
        <ele>881</ele>
        <time>2022-09-12T08:55:24Z</time>
      </trkpt>
      <trkpt lat="47.88351" lon="6.83266">
        <ele>881</ele>
        <time>2022-09-12T08:55:25Z</time>
      </trkpt>
      <trkpt lat="47.88352" lon="6.83268">
        <ele>881</ele>
        <time>2022-09-12T08:55:26Z</time>
      </trkpt>
      <trkpt lat="47.88353" lon="6.83269">
        <ele>881</ele>
        <time>2022-09-12T08:55:27Z</time>
      </trkpt>
      <trkpt lat="47.88353" lon="6.8327">
        <ele>881</ele>
        <time>2022-09-12T08:55:28Z</time>
      </trkpt>
      <trkpt lat="47.88354" lon="6.83272">
        <ele>881</ele>
        <time>2022-09-12T08:55:29Z</time>
      </trkpt>
      <trkpt lat="47.88355" lon="6.83273">
        <ele>881</ele>
        <time>2022-09-12T08:55:30Z</time>
      </trkpt>
      <trkpt lat="47.88355" lon="6.83274">
        <ele>882</ele>
        <time>2022-09-12T08:55:31Z</time>
      </trkpt>
      <trkpt lat="47.88356" lon="6.83275">
        <ele>881</ele>
        <time>2022-09-12T08:55:32Z</time>
      </trkpt>
      <trkpt lat="47.88356" lon="6.83276">
        <ele>881</ele>
        <time>2022-09-12T08:55:33Z</time>
      </trkpt>
      <trkpt lat="47.88356" lon="6.83277">
        <ele>881</ele>
        <time>2022-09-12T08:55:34Z</time>
      </trkpt>
      <trkpt lat="47.88357" lon="6.83278">
        <ele>881</ele>
        <time>2022-09-12T08:55:35Z</time>
      </trkpt>
      <trkpt lat="47.88357" lon="6.83279">
        <ele>881</ele>
        <time>2022-09-12T08:55:36Z</time>
      </trkpt>
      <trkpt lat="47.88358" lon="6.83281">
        <ele>881</ele>
        <time>2022-09-12T08:55:37Z</time>
      </trkpt>
      <trkpt lat="47.88359" lon="6.83283">
        <ele>881</ele>
        <time>2022-09-12T08:55:38Z</time>
      </trkpt>
      <trkpt lat="47.8836" lon="6.83285">
        <ele>881</ele>
        <time>2022-09-12T08:55:39Z</time>
      </trkpt>
      <trkpt lat="47.88362" lon="6.83287">
        <ele>881</ele>
        <time>2022-09-12T08:55:40Z</time>
      </trkpt>
      <trkpt lat="47.88363" lon="6.83289">
        <ele>881</ele>
        <time>2022-09-12T08:55:41Z</time>
      </trkpt>
      <trkpt lat="47.88365" lon="6.8329">
        <ele>881</ele>
        <time>2022-09-12T08:55:42Z</time>
      </trkpt>
      <trkpt lat="47.88366" lon="6.83291">
        <ele>881</ele>
        <time>2022-09-12T08:55:43Z</time>
      </trkpt>
      <trkpt lat="47.88367" lon="6.83292">
        <ele>881</ele>
        <time>2022-09-12T08:55:44Z</time>
      </trkpt>
      <trkpt lat="47.88368" lon="6.83293">
        <ele>881</ele>
        <time>2022-09-12T08:55:45Z</time>
      </trkpt>
      <trkpt lat="47.88369" lon="6.83294">
        <ele>881</ele>
        <time>2022-09-12T08:55:46Z</time>
      </trkpt>
      <trkpt lat="47.8837" lon="6.83295">
        <ele>881</ele>
        <time>2022-09-12T08:55:47Z</time>
      </trkpt>
      <trkpt lat="47.8837" lon="6.83296">
        <ele>881</ele>
        <time>2022-09-12T08:55:48Z</time>
      </trkpt>
      <trkpt lat="47.88371" lon="6.83297">
        <ele>881</ele>
        <time>2022-09-12T08:55:49Z</time>
      </trkpt>
      <trkpt lat="47.88371" lon="6.83298">
        <ele>881</ele>
        <time>2022-09-12T08:55:50Z</time>
      </trkpt>
      <trkpt lat="47.88372" lon="6.83299">
        <ele>881</ele>
        <time>2022-09-12T08:55:51Z</time>
      </trkpt>
      <trkpt lat="47.88373" lon="6.83301">
        <ele>881</ele>
        <time>2022-09-12T08:55:52Z</time>
      </trkpt>
      <trkpt lat="47.88373" lon="6.83302">
        <ele>881</ele>
        <time>2022-09-12T08:55:53Z</time>
      </trkpt>
      <trkpt lat="47.88374" lon="6.83304">
        <ele>881</ele>
        <time>2022-09-12T08:55:54Z</time>
      </trkpt>
      <trkpt lat="47.88375" lon="6.83305">
        <ele>881</ele>
        <time>2022-09-12T08:55:55Z</time>
      </trkpt>
      <trkpt lat="47.88376" lon="6.83306">
        <ele>881</ele>
        <time>2022-09-12T08:55:56Z</time>
      </trkpt>
      <trkpt lat="47.88377" lon="6.83308">
        <ele>881</ele>
        <time>2022-09-12T08:55:57Z</time>
      </trkpt>
      <trkpt lat="47.88378" lon="6.83309">
        <ele>881</ele>
        <time>2022-09-12T08:55:58Z</time>
      </trkpt>
      <trkpt lat="47.8838" lon="6.8331">
        <ele>881</ele>
        <time>2022-09-12T08:55:59Z</time>
      </trkpt>
      <trkpt lat="47.8838" lon="6.83312">
        <ele>881</ele>
        <time>2022-09-12T08:56:00Z</time>
      </trkpt>
      <trkpt lat="47.88381" lon="6.83313">
        <ele>881</ele>
        <time>2022-09-12T08:56:01Z</time>
      </trkpt>
      <trkpt lat="47.88382" lon="6.83314">
        <ele>881</ele>
        <time>2022-09-12T08:56:09Z</time>
      </trkpt>
      <trkpt lat="47.88382" lon="6.83315">
        <ele>881</ele>
        <time>2022-09-12T08:56:10Z</time>
      </trkpt>
      <trkpt lat="47.88383" lon="6.83316">
        <ele>881</ele>
        <time>2022-09-12T08:56:11Z</time>
      </trkpt>
      <trkpt lat="47.88383" lon="6.83317">
        <ele>881</ele>
        <time>2022-09-12T08:56:12Z</time>
      </trkpt>
      <trkpt lat="47.88384" lon="6.83318">
        <ele>881</ele>
        <time>2022-09-12T08:56:13Z</time>
      </trkpt>
      <trkpt lat="47.88384" lon="6.83319">
        <ele>881</ele>
        <time>2022-09-12T08:56:14Z</time>
      </trkpt>
      <trkpt lat="47.88385" lon="6.8332">
        <ele>881</ele>
        <time>2022-09-12T08:56:15Z</time>
      </trkpt>
      <trkpt lat="47.88385" lon="6.83322">
        <ele>881</ele>
        <time>2022-09-12T08:56:16Z</time>
      </trkpt>
      <trkpt lat="47.88386" lon="6.83323">
        <ele>881</ele>
        <time>2022-09-12T08:56:17Z</time>
      </trkpt>
      <trkpt lat="47.88387" lon="6.83326">
        <ele>881</ele>
        <time>2022-09-12T08:56:25Z</time>
      </trkpt>
      <trkpt lat="47.88387" lon="6.83327">
        <ele>881</ele>
        <time>2022-09-12T08:56:26Z</time>
      </trkpt>
      <trkpt lat="47.88387" lon="6.83328">
        <ele>881</ele>
        <time>2022-09-12T08:56:27Z</time>
      </trkpt>
      <trkpt lat="47.88387" lon="6.83329">
        <ele>881</ele>
        <time>2022-09-12T08:56:28Z</time>
      </trkpt>
      <trkpt lat="47.88387" lon="6.8333">
        <ele>881</ele>
        <time>2022-09-12T08:56:29Z</time>
      </trkpt>
      <trkpt lat="47.88388" lon="6.83331">
        <ele>881</ele>
        <time>2022-09-12T08:56:30Z</time>
      </trkpt>
      <trkpt lat="47.88388" lon="6.83332">
        <ele>881</ele>
        <time>2022-09-12T08:56:31Z</time>
      </trkpt>
      <trkpt lat="47.88388" lon="6.83333">
        <ele>881</ele>
        <time>2022-09-12T08:56:32Z</time>
      </trkpt>
      <trkpt lat="47.88388" lon="6.83335">
        <ele>881</ele>
        <time>2022-09-12T08:56:33Z</time>
      </trkpt>
      <trkpt lat="47.88389" lon="6.83336">
        <ele>881</ele>
        <time>2022-09-12T08:56:34Z</time>
      </trkpt>
      <trkpt lat="47.88389" lon="6.83338">
        <ele>881</ele>
        <time>2022-09-12T08:56:35Z</time>
      </trkpt>
      <trkpt lat="47.8839" lon="6.83339">
        <ele>881</ele>
        <time>2022-09-12T08:56:36Z</time>
      </trkpt>
      <trkpt lat="47.8839" lon="6.83341">
        <ele>881</ele>
        <time>2022-09-12T08:56:37Z</time>
      </trkpt>
      <trkpt lat="47.88391" lon="6.83342">
        <ele>881</ele>
        <time>2022-09-12T08:56:38Z</time>
      </trkpt>
      <trkpt lat="47.88391" lon="6.83343">
        <ele>881</ele>
        <time>2022-09-12T08:56:39Z</time>
      </trkpt>
      <trkpt lat="47.88392" lon="6.83345">
        <ele>881</ele>
        <time>2022-09-12T08:56:40Z</time>
      </trkpt>
      <trkpt lat="47.88392" lon="6.83346">
        <ele>881</ele>
        <time>2022-09-12T08:56:41Z</time>
      </trkpt>
      <trkpt lat="47.88393" lon="6.83348">
        <ele>881</ele>
        <time>2022-09-12T08:56:42Z</time>
      </trkpt>
      <trkpt lat="47.88393" lon="6.83349">
        <ele>881</ele>
        <time>2022-09-12T08:56:43Z</time>
      </trkpt>
      <trkpt lat="47.88394" lon="6.8335">
        <ele>881</ele>
        <time>2022-09-12T08:56:44Z</time>
      </trkpt>
      <trkpt lat="47.88394" lon="6.83352">
        <ele>881</ele>
        <time>2022-09-12T08:56:45Z</time>
      </trkpt>
      <trkpt lat="47.88395" lon="6.83353">
        <ele>881</ele>
        <time>2022-09-12T08:56:46Z</time>
      </trkpt>
      <trkpt lat="47.88395" lon="6.83355">
        <ele>881</ele>
        <time>2022-09-12T08:56:47Z</time>
      </trkpt>
      <trkpt lat="47.88396" lon="6.83356">
        <ele>881</ele>
        <time>2022-09-12T08:56:48Z</time>
      </trkpt>
      <trkpt lat="47.88396" lon="6.83358">
        <ele>881</ele>
        <time>2022-09-12T08:56:49Z</time>
      </trkpt>
      <trkpt lat="47.88397" lon="6.83359">
        <ele>881</ele>
        <time>2022-09-12T08:56:50Z</time>
      </trkpt>
      <trkpt lat="47.88397" lon="6.83361">
        <ele>881</ele>
        <time>2022-09-12T08:56:51Z</time>
      </trkpt>
      <trkpt lat="47.88398" lon="6.83363">
        <ele>881</ele>
        <time>2022-09-12T08:56:52Z</time>
      </trkpt>
      <trkpt lat="47.88398" lon="6.83364">
        <ele>881</ele>
        <time>2022-09-12T08:56:53Z</time>
      </trkpt>
      <trkpt lat="47.88399" lon="6.83366">
        <ele>881</ele>
        <time>2022-09-12T08:56:54Z</time>
      </trkpt>
      <trkpt lat="47.88399" lon="6.83367">
        <ele>881</ele>
        <time>2022-09-12T08:56:55Z</time>
      </trkpt>
      <trkpt lat="47.884" lon="6.83369">
        <ele>881</ele>
        <time>2022-09-12T08:56:56Z</time>
      </trkpt>
      <trkpt lat="47.884" lon="6.8337">
        <ele>881</ele>
        <time>2022-09-12T08:56:57Z</time>
      </trkpt>
      <trkpt lat="47.88401" lon="6.83371">
        <ele>881</ele>
        <time>2022-09-12T08:56:58Z</time>
      </trkpt>
      <trkpt lat="47.88401" lon="6.83372">
        <ele>881</ele>
        <time>2022-09-12T08:56:59Z</time>
      </trkpt>
      <trkpt lat="47.88402" lon="6.83374">
        <ele>881</ele>
        <time>2022-09-12T08:57:00Z</time>
      </trkpt>
      <trkpt lat="47.88403" lon="6.83375">
        <ele>881</ele>
        <time>2022-09-12T08:57:01Z</time>
      </trkpt>
      <trkpt lat="47.88404" lon="6.83376">
        <ele>881</ele>
        <time>2022-09-12T08:57:02Z</time>
      </trkpt>
      <trkpt lat="47.88404" lon="6.83377">
        <ele>881</ele>
        <time>2022-09-12T08:57:03Z</time>
      </trkpt>
      <trkpt lat="47.88405" lon="6.83378">
        <ele>881</ele>
        <time>2022-09-12T08:57:04Z</time>
      </trkpt>
      <trkpt lat="47.88405" lon="6.83379">
        <ele>881</ele>
        <time>2022-09-12T08:57:05Z</time>
      </trkpt>
      <trkpt lat="47.88406" lon="6.8338">
        <ele>881</ele>
        <time>2022-09-12T08:57:06Z</time>
      </trkpt>
      <trkpt lat="47.88406" lon="6.83381">
        <ele>881</ele>
        <time>2022-09-12T08:57:07Z</time>
      </trkpt>
      <trkpt lat="47.88407" lon="6.83382">
        <ele>881</ele>
        <time>2022-09-12T08:57:08Z</time>
      </trkpt>
      <trkpt lat="47.88407" lon="6.83383">
        <ele>881</ele>
        <time>2022-09-12T08:57:09Z</time>
      </trkpt>
      <trkpt lat="47.88407" lon="6.83384">
        <ele>881</ele>
        <time>2022-09-12T08:57:10Z</time>
      </trkpt>
      <trkpt lat="47.88408" lon="6.83384">
        <ele>881</ele>
        <time>2022-09-12T08:57:11Z</time>
      </trkpt>
      <trkpt lat="47.88408" lon="6.83385">
        <ele>881</ele>
        <time>2022-09-12T08:57:12Z</time>
      </trkpt>
      <trkpt lat="47.88409" lon="6.83385">
        <ele>881</ele>
        <time>2022-09-12T08:57:13Z</time>
      </trkpt>
      <trkpt lat="47.88409" lon="6.83386">
        <ele>881</ele>
        <time>2022-09-12T08:57:14Z</time>
      </trkpt>
      <trkpt lat="47.8841" lon="6.83386">
        <ele>881</ele>
        <time>2022-09-12T08:57:15Z</time>
      </trkpt>
      <trkpt lat="47.8841" lon="6.83386">
        <ele>881</ele>
        <time>2022-09-12T08:57:16Z</time>
      </trkpt>
      <trkpt lat="47.88412" lon="6.83388">
        <ele>882</ele>
        <time>2022-09-12T08:59:03Z</time>
      </trkpt>
      <trkpt lat="47.88413" lon="6.83389">
        <ele>882</ele>
        <time>2022-09-12T08:59:04Z</time>
      </trkpt>
      <trkpt lat="47.88414" lon="6.8339">
        <ele>882</ele>
        <time>2022-09-12T08:59:05Z</time>
      </trkpt>
      <trkpt lat="47.88415" lon="6.8339">
        <ele>882</ele>
        <time>2022-09-12T08:59:06Z</time>
      </trkpt>
      <trkpt lat="47.88416" lon="6.83391">
        <ele>882</ele>
        <time>2022-09-12T08:59:07Z</time>
      </trkpt>
      <trkpt lat="47.88417" lon="6.83391">
        <ele>882</ele>
        <time>2022-09-12T08:59:08Z</time>
      </trkpt>
      <trkpt lat="47.88418" lon="6.83391">
        <ele>882</ele>
        <time>2022-09-12T08:59:09Z</time>
      </trkpt>
      <trkpt lat="47.88419" lon="6.83392">
        <ele>882</ele>
        <time>2022-09-12T08:59:10Z</time>
      </trkpt>
      <trkpt lat="47.88419" lon="6.83392">
        <ele>882</ele>
        <time>2022-09-12T08:59:11Z</time>
      </trkpt>
      <trkpt lat="47.88421" lon="6.83393">
        <ele>882</ele>
        <time>2022-09-12T08:59:12Z</time>
      </trkpt>
      <trkpt lat="47.88422" lon="6.83393">
        <ele>882</ele>
        <time>2022-09-12T08:59:13Z</time>
      </trkpt>
      <trkpt lat="47.88423" lon="6.83394">
        <ele>882</ele>
        <time>2022-09-12T08:59:14Z</time>
      </trkpt>
      <trkpt lat="47.88424" lon="6.83395">
        <ele>882</ele>
        <time>2022-09-12T08:59:15Z</time>
      </trkpt>
      <trkpt lat="47.88425" lon="6.83395">
        <ele>882</ele>
        <time>2022-09-12T08:59:16Z</time>
      </trkpt>
      <trkpt lat="47.88426" lon="6.83396">
        <ele>882</ele>
        <time>2022-09-12T08:59:17Z</time>
      </trkpt>
      <trkpt lat="47.88427" lon="6.83397">
        <ele>882</ele>
        <time>2022-09-12T08:59:18Z</time>
      </trkpt>
      <trkpt lat="47.88428" lon="6.83397">
        <ele>882</ele>
        <time>2022-09-12T08:59:19Z</time>
      </trkpt>
      <trkpt lat="47.88429" lon="6.83398">
        <ele>882</ele>
        <time>2022-09-12T08:59:20Z</time>
      </trkpt>
      <trkpt lat="47.8843" lon="6.83398">
        <ele>882</ele>
        <time>2022-09-12T08:59:21Z</time>
      </trkpt>
      <trkpt lat="47.8843" lon="6.83399">
        <ele>882</ele>
        <time>2022-09-12T08:59:22Z</time>
      </trkpt>
      <trkpt lat="47.88431" lon="6.83399">
        <ele>882</ele>
        <time>2022-09-12T08:59:23Z</time>
      </trkpt>
      <trkpt lat="47.88432" lon="6.834">
        <ele>882</ele>
        <time>2022-09-12T08:59:24Z</time>
      </trkpt>
      <trkpt lat="47.88433" lon="6.834">
        <ele>882</ele>
        <time>2022-09-12T08:59:25Z</time>
      </trkpt>
      <trkpt lat="47.88434" lon="6.83401">
        <ele>882</ele>
        <time>2022-09-12T08:59:26Z</time>
      </trkpt>
      <trkpt lat="47.88435" lon="6.83402">
        <ele>882</ele>
        <time>2022-09-12T08:59:27Z</time>
      </trkpt>
      <trkpt lat="47.88436" lon="6.83403">
        <ele>882</ele>
        <time>2022-09-12T08:59:28Z</time>
      </trkpt>
      <trkpt lat="47.88438" lon="6.83403">
        <ele>882</ele>
        <time>2022-09-12T08:59:29Z</time>
      </trkpt>
      <trkpt lat="47.88439" lon="6.83404">
        <ele>882</ele>
        <time>2022-09-12T08:59:30Z</time>
      </trkpt>
      <trkpt lat="47.8844" lon="6.83404">
        <ele>882</ele>
        <time>2022-09-12T08:59:31Z</time>
      </trkpt>
      <trkpt lat="47.88441" lon="6.83404">
        <ele>882</ele>
        <time>2022-09-12T08:59:32Z</time>
      </trkpt>
      <trkpt lat="47.88442" lon="6.83404">
        <ele>882</ele>
        <time>2022-09-12T08:59:33Z</time>
      </trkpt>
      <trkpt lat="47.88443" lon="6.83405">
        <ele>882</ele>
        <time>2022-09-12T08:59:34Z</time>
      </trkpt>
      <trkpt lat="47.88444" lon="6.83406">
        <ele>882</ele>
        <time>2022-09-12T08:59:35Z</time>
      </trkpt>
      <trkpt lat="47.88445" lon="6.83406">
        <ele>882</ele>
        <time>2022-09-12T08:59:36Z</time>
      </trkpt>
      <trkpt lat="47.88446" lon="6.83407">
        <ele>881</ele>
        <time>2022-09-12T08:59:37Z</time>
      </trkpt>
      <trkpt lat="47.88447" lon="6.83408">
        <ele>881</ele>
        <time>2022-09-12T08:59:38Z</time>
      </trkpt>
      <trkpt lat="47.88448" lon="6.83409">
        <ele>881</ele>
        <time>2022-09-12T08:59:39Z</time>
      </trkpt>
      <trkpt lat="47.88449" lon="6.83409">
        <ele>881</ele>
        <time>2022-09-12T08:59:40Z</time>
      </trkpt>
      <trkpt lat="47.8845" lon="6.8341">
        <ele>881</ele>
        <time>2022-09-12T08:59:41Z</time>
      </trkpt>
      <trkpt lat="47.88451" lon="6.8341">
        <ele>881</ele>
        <time>2022-09-12T08:59:42Z</time>
      </trkpt>
      <trkpt lat="47.88452" lon="6.83411">
        <ele>881</ele>
        <time>2022-09-12T08:59:43Z</time>
      </trkpt>
      <trkpt lat="47.88453" lon="6.83411">
        <ele>881</ele>
        <time>2022-09-12T08:59:44Z</time>
      </trkpt>
      <trkpt lat="47.88454" lon="6.83411">
        <ele>881</ele>
        <time>2022-09-12T08:59:45Z</time>
      </trkpt>
      <trkpt lat="47.88455" lon="6.83412">
        <ele>881</ele>
        <time>2022-09-12T08:59:46Z</time>
      </trkpt>
      <trkpt lat="47.88456" lon="6.83412">
        <ele>881</ele>
        <time>2022-09-12T08:59:47Z</time>
      </trkpt>
      <trkpt lat="47.88457" lon="6.83412">
        <ele>881</ele>
        <time>2022-09-12T08:59:48Z</time>
      </trkpt>
      <trkpt lat="47.88457" lon="6.83413">
        <ele>881</ele>
        <time>2022-09-12T08:59:49Z</time>
      </trkpt>
      <trkpt lat="47.88459" lon="6.83413">
        <ele>881</ele>
        <time>2022-09-12T08:59:50Z</time>
      </trkpt>
      <trkpt lat="47.8846" lon="6.83413">
        <ele>881</ele>
        <time>2022-09-12T08:59:51Z</time>
      </trkpt>
      <trkpt lat="47.8846" lon="6.83413">
        <ele>881</ele>
        <time>2022-09-12T08:59:52Z</time>
      </trkpt>
      <trkpt lat="47.88461" lon="6.83413">
        <ele>881</ele>
        <time>2022-09-12T08:59:53Z</time>
      </trkpt>
      <trkpt lat="47.88462" lon="6.83413">
        <ele>881</ele>
        <time>2022-09-12T08:59:54Z</time>
      </trkpt>
      <trkpt lat="47.88463" lon="6.83413">
        <ele>881</ele>
        <time>2022-09-12T08:59:55Z</time>
      </trkpt>
      <trkpt lat="47.88464" lon="6.83413">
        <ele>881</ele>
        <time>2022-09-12T08:59:56Z</time>
      </trkpt>
      <trkpt lat="47.88465" lon="6.83413">
        <ele>880</ele>
        <time>2022-09-12T08:59:57Z</time>
      </trkpt>
      <trkpt lat="47.88466" lon="6.83414">
        <ele>880</ele>
        <time>2022-09-12T08:59:58Z</time>
      </trkpt>
      <trkpt lat="47.88467" lon="6.83414">
        <ele>880</ele>
        <time>2022-09-12T08:59:59Z</time>
      </trkpt>
      <trkpt lat="47.88468" lon="6.83415">
        <ele>880</ele>
        <time>2022-09-12T09:00:00Z</time>
      </trkpt>
      <trkpt lat="47.88468" lon="6.83416">
        <ele>880</ele>
        <time>2022-09-12T09:00:01Z</time>
      </trkpt>
      <trkpt lat="47.8847" lon="6.83416">
        <ele>880</ele>
        <time>2022-09-12T09:00:02Z</time>
      </trkpt>
      <trkpt lat="47.88471" lon="6.83417">
        <ele>880</ele>
        <time>2022-09-12T09:00:03Z</time>
      </trkpt>
      <trkpt lat="47.88472" lon="6.83417">
        <ele>880</ele>
        <time>2022-09-12T09:00:04Z</time>
      </trkpt>
      <trkpt lat="47.88473" lon="6.83418">
        <ele>880</ele>
        <time>2022-09-12T09:00:05Z</time>
      </trkpt>
      <trkpt lat="47.88475" lon="6.83418">
        <ele>880</ele>
        <time>2022-09-12T09:00:06Z</time>
      </trkpt>
      <trkpt lat="47.88476" lon="6.83418">
        <ele>880</ele>
        <time>2022-09-12T09:00:07Z</time>
      </trkpt>
      <trkpt lat="47.88477" lon="6.83419">
        <ele>880</ele>
        <time>2022-09-12T09:00:08Z</time>
      </trkpt>
      <trkpt lat="47.88477" lon="6.83419">
        <ele>880</ele>
        <time>2022-09-12T09:00:09Z</time>
      </trkpt>
      <trkpt lat="47.88478" lon="6.83419">
        <ele>880</ele>
        <time>2022-09-12T09:00:10Z</time>
      </trkpt>
      <trkpt lat="47.88479" lon="6.83419">
        <ele>880</ele>
        <time>2022-09-12T09:00:11Z</time>
      </trkpt>
      <trkpt lat="47.8848" lon="6.83419">
        <ele>880</ele>
        <time>2022-09-12T09:00:12Z</time>
      </trkpt>
      <trkpt lat="47.8848" lon="6.83419">
        <ele>880</ele>
        <time>2022-09-12T09:00:13Z</time>
      </trkpt>
      <trkpt lat="47.88481" lon="6.83419">
        <ele>880</ele>
        <time>2022-09-12T09:00:14Z</time>
      </trkpt>
      <trkpt lat="47.88482" lon="6.83419">
        <ele>880</ele>
        <time>2022-09-12T09:00:15Z</time>
      </trkpt>
      <trkpt lat="47.88482" lon="6.83419">
        <ele>880</ele>
        <time>2022-09-12T09:00:16Z</time>
      </trkpt>
      <trkpt lat="47.88483" lon="6.8342">
        <ele>879</ele>
        <time>2022-09-12T09:00:17Z</time>
      </trkpt>
      <trkpt lat="47.88484" lon="6.8342">
        <ele>879</ele>
        <time>2022-09-12T09:00:18Z</time>
      </trkpt>
      <trkpt lat="47.88485" lon="6.8342">
        <ele>879</ele>
        <time>2022-09-12T09:00:19Z</time>
      </trkpt>
      <trkpt lat="47.88486" lon="6.8342">
        <ele>879</ele>
        <time>2022-09-12T09:00:20Z</time>
      </trkpt>
      <trkpt lat="47.88487" lon="6.83421">
        <ele>879</ele>
        <time>2022-09-12T09:00:21Z</time>
      </trkpt>
      <trkpt lat="47.88488" lon="6.83421">
        <ele>879</ele>
        <time>2022-09-12T09:00:22Z</time>
      </trkpt>
      <trkpt lat="47.88489" lon="6.83422">
        <ele>879</ele>
        <time>2022-09-12T09:00:23Z</time>
      </trkpt>
      <trkpt lat="47.8849" lon="6.83422">
        <ele>879</ele>
        <time>2022-09-12T09:00:24Z</time>
      </trkpt>
      <trkpt lat="47.88492" lon="6.83422">
        <ele>879</ele>
        <time>2022-09-12T09:00:25Z</time>
      </trkpt>
      <trkpt lat="47.88493" lon="6.83422">
        <ele>879</ele>
        <time>2022-09-12T09:00:26Z</time>
      </trkpt>
      <trkpt lat="47.88494" lon="6.83423">
        <ele>878</ele>
        <time>2022-09-12T09:00:27Z</time>
      </trkpt>
      <trkpt lat="47.88495" lon="6.83423">
        <ele>878</ele>
        <time>2022-09-12T09:00:28Z</time>
      </trkpt>
      <trkpt lat="47.88496" lon="6.83423">
        <ele>878</ele>
        <time>2022-09-12T09:00:29Z</time>
      </trkpt>
      <trkpt lat="47.88498" lon="6.83424">
        <ele>878</ele>
        <time>2022-09-12T09:00:30Z</time>
      </trkpt>
      <trkpt lat="47.88499" lon="6.83424">
        <ele>878</ele>
        <time>2022-09-12T09:00:31Z</time>
      </trkpt>
      <trkpt lat="47.885" lon="6.83424">
        <ele>878</ele>
        <time>2022-09-12T09:00:32Z</time>
      </trkpt>
      <trkpt lat="47.88501" lon="6.83424">
        <ele>878</ele>
        <time>2022-09-12T09:00:33Z</time>
      </trkpt>
      <trkpt lat="47.88502" lon="6.83424">
        <ele>878</ele>
        <time>2022-09-12T09:00:34Z</time>
      </trkpt>
      <trkpt lat="47.88504" lon="6.83424">
        <ele>878</ele>
        <time>2022-09-12T09:00:35Z</time>
      </trkpt>
      <trkpt lat="47.88505" lon="6.83424">
        <ele>878</ele>
        <time>2022-09-12T09:00:36Z</time>
      </trkpt>
      <trkpt lat="47.88506" lon="6.83425">
        <ele>878</ele>
        <time>2022-09-12T09:00:37Z</time>
      </trkpt>
      <trkpt lat="47.88508" lon="6.83425">
        <ele>878</ele>
        <time>2022-09-12T09:00:38Z</time>
      </trkpt>
      <trkpt lat="47.88509" lon="6.83425">
        <ele>878</ele>
        <time>2022-09-12T09:00:39Z</time>
      </trkpt>
      <trkpt lat="47.8851" lon="6.83426">
        <ele>878</ele>
        <time>2022-09-12T09:00:40Z</time>
      </trkpt>
      <trkpt lat="47.8851" lon="6.83426">
        <ele>878</ele>
        <time>2022-09-12T09:00:41Z</time>
      </trkpt>
      <trkpt lat="47.88511" lon="6.83427">
        <ele>878</ele>
        <time>2022-09-12T09:00:42Z</time>
      </trkpt>
      <trkpt lat="47.88512" lon="6.83428">
        <ele>878</ele>
        <time>2022-09-12T09:00:43Z</time>
      </trkpt>
      <trkpt lat="47.88513" lon="6.83428">
        <ele>878</ele>
        <time>2022-09-12T09:00:44Z</time>
      </trkpt>
      <trkpt lat="47.88514" lon="6.83429">
        <ele>878</ele>
        <time>2022-09-12T09:00:45Z</time>
      </trkpt>
      <trkpt lat="47.88515" lon="6.8343">
        <ele>878</ele>
        <time>2022-09-12T09:00:46Z</time>
      </trkpt>
      <trkpt lat="47.88516" lon="6.8343">
        <ele>877</ele>
        <time>2022-09-12T09:00:47Z</time>
      </trkpt>
      <trkpt lat="47.88517" lon="6.83431">
        <ele>877</ele>
        <time>2022-09-12T09:00:48Z</time>
      </trkpt>
      <trkpt lat="47.88518" lon="6.83431">
        <ele>877</ele>
        <time>2022-09-12T09:00:49Z</time>
      </trkpt>
      <trkpt lat="47.88519" lon="6.83432">
        <ele>877</ele>
        <time>2022-09-12T09:00:50Z</time>
      </trkpt>
      <trkpt lat="47.8852" lon="6.83433">
        <ele>877</ele>
        <time>2022-09-12T09:00:51Z</time>
      </trkpt>
      <trkpt lat="47.88521" lon="6.83434">
        <ele>877</ele>
        <time>2022-09-12T09:00:52Z</time>
      </trkpt>
      <trkpt lat="47.88522" lon="6.83435">
        <ele>877</ele>
        <time>2022-09-12T09:00:53Z</time>
      </trkpt>
      <trkpt lat="47.88523" lon="6.83436">
        <ele>877</ele>
        <time>2022-09-12T09:00:54Z</time>
      </trkpt>
      <trkpt lat="47.88524" lon="6.83437">
        <ele>877</ele>
        <time>2022-09-12T09:00:55Z</time>
      </trkpt>
      <trkpt lat="47.88525" lon="6.83438">
        <ele>877</ele>
        <time>2022-09-12T09:00:56Z</time>
      </trkpt>
      <trkpt lat="47.88526" lon="6.83438">
        <ele>876</ele>
        <time>2022-09-12T09:00:57Z</time>
      </trkpt>
      <trkpt lat="47.88526" lon="6.83439">
        <ele>876</ele>
        <time>2022-09-12T09:00:58Z</time>
      </trkpt>
      <trkpt lat="47.88527" lon="6.8344">
        <ele>876</ele>
        <time>2022-09-12T09:00:59Z</time>
      </trkpt>
      <trkpt lat="47.88528" lon="6.8344">
        <ele>876</ele>
        <time>2022-09-12T09:01:00Z</time>
      </trkpt>
      <trkpt lat="47.88529" lon="6.83441">
        <ele>876</ele>
        <time>2022-09-12T09:01:01Z</time>
      </trkpt>
      <trkpt lat="47.8853" lon="6.83442">
        <ele>876</ele>
        <time>2022-09-12T09:01:02Z</time>
      </trkpt>
      <trkpt lat="47.8853" lon="6.83443">
        <ele>876</ele>
        <time>2022-09-12T09:01:03Z</time>
      </trkpt>
      <trkpt lat="47.88531" lon="6.83444">
        <ele>876</ele>
        <time>2022-09-12T09:01:04Z</time>
      </trkpt>
      <trkpt lat="47.88532" lon="6.83444">
        <ele>876</ele>
        <time>2022-09-12T09:01:05Z</time>
      </trkpt>
      <trkpt lat="47.88533" lon="6.83445">
        <ele>876</ele>
        <time>2022-09-12T09:01:06Z</time>
      </trkpt>
      <trkpt lat="47.88534" lon="6.83445">
        <ele>876</ele>
        <time>2022-09-12T09:01:07Z</time>
      </trkpt>
      <trkpt lat="47.88535" lon="6.83446">
        <ele>876</ele>
        <time>2022-09-12T09:01:08Z</time>
      </trkpt>
      <trkpt lat="47.88537" lon="6.83447">
        <ele>876</ele>
        <time>2022-09-12T09:01:09Z</time>
      </trkpt>
      <trkpt lat="47.88538" lon="6.83449">
        <ele>876</ele>
        <time>2022-09-12T09:01:10Z</time>
      </trkpt>
      <trkpt lat="47.88539" lon="6.8345">
        <ele>876</ele>
        <time>2022-09-12T09:01:11Z</time>
      </trkpt>
      <trkpt lat="47.88541" lon="6.83451">
        <ele>875</ele>
        <time>2022-09-12T09:01:12Z</time>
      </trkpt>
      <trkpt lat="47.88542" lon="6.83452">
        <ele>875</ele>
        <time>2022-09-12T09:01:13Z</time>
      </trkpt>
      <trkpt lat="47.88543" lon="6.83453">
        <ele>875</ele>
        <time>2022-09-12T09:01:14Z</time>
      </trkpt>
      <trkpt lat="47.88544" lon="6.83453">
        <ele>875</ele>
        <time>2022-09-12T09:01:15Z</time>
      </trkpt>
      <trkpt lat="47.88545" lon="6.83453">
        <ele>875</ele>
        <time>2022-09-12T09:01:16Z</time>
      </trkpt>
      <trkpt lat="47.88546" lon="6.83454">
        <ele>875</ele>
        <time>2022-09-12T09:01:17Z</time>
      </trkpt>
      <trkpt lat="47.88547" lon="6.83454">
        <ele>875</ele>
        <time>2022-09-12T09:01:18Z</time>
      </trkpt>
      <trkpt lat="47.88547" lon="6.83455">
        <ele>875</ele>
        <time>2022-09-12T09:01:19Z</time>
      </trkpt>
      <trkpt lat="47.88548" lon="6.83455">
        <ele>875</ele>
        <time>2022-09-12T09:01:20Z</time>
      </trkpt>
      <trkpt lat="47.88549" lon="6.83456">
        <ele>875</ele>
        <time>2022-09-12T09:01:21Z</time>
      </trkpt>
      <trkpt lat="47.8855" lon="6.83456">
        <ele>875</ele>
        <time>2022-09-12T09:01:22Z</time>
      </trkpt>
      <trkpt lat="47.88551" lon="6.83457">
        <ele>875</ele>
        <time>2022-09-12T09:01:23Z</time>
      </trkpt>
      <trkpt lat="47.88552" lon="6.83458">
        <ele>875</ele>
        <time>2022-09-12T09:01:24Z</time>
      </trkpt>
      <trkpt lat="47.88553" lon="6.83459">
        <ele>875</ele>
        <time>2022-09-12T09:01:25Z</time>
      </trkpt>
      <trkpt lat="47.88553" lon="6.83459">
        <ele>875</ele>
        <time>2022-09-12T09:01:26Z</time>
      </trkpt>
      <trkpt lat="47.88554" lon="6.8346">
        <ele>874</ele>
        <time>2022-09-12T09:01:27Z</time>
      </trkpt>
      <trkpt lat="47.88555" lon="6.83461">
        <ele>874</ele>
        <time>2022-09-12T09:01:28Z</time>
      </trkpt>
      <trkpt lat="47.88557" lon="6.83462">
        <ele>874</ele>
        <time>2022-09-12T09:01:29Z</time>
      </trkpt>
      <trkpt lat="47.88558" lon="6.83462">
        <ele>874</ele>
        <time>2022-09-12T09:01:30Z</time>
      </trkpt>
      <trkpt lat="47.88559" lon="6.83463">
        <ele>874</ele>
        <time>2022-09-12T09:01:31Z</time>
      </trkpt>
      <trkpt lat="47.88559" lon="6.83464">
        <ele>874</ele>
        <time>2022-09-12T09:01:32Z</time>
      </trkpt>
      <trkpt lat="47.8856" lon="6.83464">
        <ele>874</ele>
        <time>2022-09-12T09:01:33Z</time>
      </trkpt>
      <trkpt lat="47.88561" lon="6.83464">
        <ele>874</ele>
        <time>2022-09-12T09:01:34Z</time>
      </trkpt>
      <trkpt lat="47.88562" lon="6.83464">
        <ele>874</ele>
        <time>2022-09-12T09:01:35Z</time>
      </trkpt>
      <trkpt lat="47.88563" lon="6.83465">
        <ele>874</ele>
        <time>2022-09-12T09:01:36Z</time>
      </trkpt>
      <trkpt lat="47.88564" lon="6.83465">
        <ele>874</ele>
        <time>2022-09-12T09:01:37Z</time>
      </trkpt>
      <trkpt lat="47.88565" lon="6.83465">
        <ele>874</ele>
        <time>2022-09-12T09:01:38Z</time>
      </trkpt>
      <trkpt lat="47.88566" lon="6.83465">
        <ele>874</ele>
        <time>2022-09-12T09:01:39Z</time>
      </trkpt>
      <trkpt lat="47.88567" lon="6.83465">
        <ele>874</ele>
        <time>2022-09-12T09:01:40Z</time>
      </trkpt>
      <trkpt lat="47.88568" lon="6.83465">
        <ele>874</ele>
        <time>2022-09-12T09:01:41Z</time>
      </trkpt>
      <trkpt lat="47.88569" lon="6.83465">
        <ele>874</ele>
        <time>2022-09-12T09:01:42Z</time>
      </trkpt>
      <trkpt lat="47.8857" lon="6.83465">
        <ele>874</ele>
        <time>2022-09-12T09:01:43Z</time>
      </trkpt>
      <trkpt lat="47.88571" lon="6.83465">
        <ele>874</ele>
        <time>2022-09-12T09:01:44Z</time>
      </trkpt>
      <trkpt lat="47.88572" lon="6.83466">
        <ele>874</ele>
        <time>2022-09-12T09:01:45Z</time>
      </trkpt>
      <trkpt lat="47.88573" lon="6.83466">
        <ele>874</ele>
        <time>2022-09-12T09:01:46Z</time>
      </trkpt>
      <trkpt lat="47.88575" lon="6.83467">
        <ele>874</ele>
        <time>2022-09-12T09:01:47Z</time>
      </trkpt>
      <trkpt lat="47.88576" lon="6.83468">
        <ele>874</ele>
        <time>2022-09-12T09:01:48Z</time>
      </trkpt>
      <trkpt lat="47.88577" lon="6.83468">
        <ele>874</ele>
        <time>2022-09-12T09:01:49Z</time>
      </trkpt>
      <trkpt lat="47.88578" lon="6.83469">
        <ele>874</ele>
        <time>2022-09-12T09:01:50Z</time>
      </trkpt>
      <trkpt lat="47.88579" lon="6.83469">
        <ele>874</ele>
        <time>2022-09-12T09:01:51Z</time>
      </trkpt>
      <trkpt lat="47.88581" lon="6.8347">
        <ele>873</ele>
        <time>2022-09-12T09:01:52Z</time>
      </trkpt>
      <trkpt lat="47.88583" lon="6.8347">
        <ele>873</ele>
        <time>2022-09-12T09:01:53Z</time>
      </trkpt>
      <trkpt lat="47.88584" lon="6.83472">
        <ele>873</ele>
        <time>2022-09-12T09:01:54Z</time>
      </trkpt>
      <trkpt lat="47.88585" lon="6.83473">
        <ele>873</ele>
        <time>2022-09-12T09:01:55Z</time>
      </trkpt>
      <trkpt lat="47.88586" lon="6.83475">
        <ele>873</ele>
        <time>2022-09-12T09:01:56Z</time>
      </trkpt>
      <trkpt lat="47.88587" lon="6.83477">
        <ele>873</ele>
        <time>2022-09-12T09:01:57Z</time>
      </trkpt>
      <trkpt lat="47.88587" lon="6.83478">
        <ele>873</ele>
        <time>2022-09-12T09:01:58Z</time>
      </trkpt>
      <trkpt lat="47.88588" lon="6.8348">
        <ele>873</ele>
        <time>2022-09-12T09:01:59Z</time>
      </trkpt>
      <trkpt lat="47.88589" lon="6.83481">
        <ele>873</ele>
        <time>2022-09-12T09:02:00Z</time>
      </trkpt>
      <trkpt lat="47.8859" lon="6.83482">
        <ele>873</ele>
        <time>2022-09-12T09:02:01Z</time>
      </trkpt>
      <trkpt lat="47.88591" lon="6.83483">
        <ele>873</ele>
        <time>2022-09-12T09:02:02Z</time>
      </trkpt>
      <trkpt lat="47.88591" lon="6.83485">
        <ele>873</ele>
        <time>2022-09-12T09:02:03Z</time>
      </trkpt>
      <trkpt lat="47.88592" lon="6.83486">
        <ele>873</ele>
        <time>2022-09-12T09:02:04Z</time>
      </trkpt>
      <trkpt lat="47.88593" lon="6.83487">
        <ele>873</ele>
        <time>2022-09-12T09:02:05Z</time>
      </trkpt>
      <trkpt lat="47.88593" lon="6.83488">
        <ele>873</ele>
        <time>2022-09-12T09:02:06Z</time>
      </trkpt>
      <trkpt lat="47.88594" lon="6.83488">
        <ele>873</ele>
        <time>2022-09-12T09:02:07Z</time>
      </trkpt>
      <trkpt lat="47.88595" lon="6.83489">
        <ele>873</ele>
        <time>2022-09-12T09:02:08Z</time>
      </trkpt>
      <trkpt lat="47.88596" lon="6.83489">
        <ele>873</ele>
        <time>2022-09-12T09:02:09Z</time>
      </trkpt>
      <trkpt lat="47.88597" lon="6.8349">
        <ele>873</ele>
        <time>2022-09-12T09:02:10Z</time>
      </trkpt>
      <trkpt lat="47.88598" lon="6.83491">
        <ele>873</ele>
        <time>2022-09-12T09:02:11Z</time>
      </trkpt>
      <trkpt lat="47.88599" lon="6.83492">
        <ele>873</ele>
        <time>2022-09-12T09:02:12Z</time>
      </trkpt>
      <trkpt lat="47.886" lon="6.83493">
        <ele>873</ele>
        <time>2022-09-12T09:02:13Z</time>
      </trkpt>
      <trkpt lat="47.88601" lon="6.83494">
        <ele>873</ele>
        <time>2022-09-12T09:02:14Z</time>
      </trkpt>
      <trkpt lat="47.88602" lon="6.83495">
        <ele>873</ele>
        <time>2022-09-12T09:02:15Z</time>
      </trkpt>
      <trkpt lat="47.88603" lon="6.83496">
        <ele>873</ele>
        <time>2022-09-12T09:02:16Z</time>
      </trkpt>
      <trkpt lat="47.88604" lon="6.83496">
        <ele>873</ele>
        <time>2022-09-12T09:02:17Z</time>
      </trkpt>
      <trkpt lat="47.88605" lon="6.83497">
        <ele>873</ele>
        <time>2022-09-12T09:02:18Z</time>
      </trkpt>
      <trkpt lat="47.88606" lon="6.83498">
        <ele>873</ele>
        <time>2022-09-12T09:02:19Z</time>
      </trkpt>
      <trkpt lat="47.88606" lon="6.83498">
        <ele>873</ele>
        <time>2022-09-12T09:02:20Z</time>
      </trkpt>
      <trkpt lat="47.88607" lon="6.83499">
        <ele>874</ele>
        <time>2022-09-12T09:02:21Z</time>
      </trkpt>
      <trkpt lat="47.88608" lon="6.835">
        <ele>874</ele>
        <time>2022-09-12T09:02:22Z</time>
      </trkpt>
      <trkpt lat="47.88609" lon="6.835">
        <ele>874</ele>
        <time>2022-09-12T09:02:23Z</time>
      </trkpt>
      <trkpt lat="47.8861" lon="6.83501">
        <ele>874</ele>
        <time>2022-09-12T09:02:24Z</time>
      </trkpt>
      <trkpt lat="47.88611" lon="6.83502">
        <ele>874</ele>
        <time>2022-09-12T09:02:25Z</time>
      </trkpt>
      <trkpt lat="47.88611" lon="6.83503">
        <ele>874</ele>
        <time>2022-09-12T09:02:26Z</time>
      </trkpt>
      <trkpt lat="47.88612" lon="6.83504">
        <ele>874</ele>
        <time>2022-09-12T09:02:27Z</time>
      </trkpt>
      <trkpt lat="47.88613" lon="6.83505">
        <ele>874</ele>
        <time>2022-09-12T09:02:28Z</time>
      </trkpt>
      <trkpt lat="47.88613" lon="6.83506">
        <ele>874</ele>
        <time>2022-09-12T09:02:29Z</time>
      </trkpt>
      <trkpt lat="47.88614" lon="6.83507">
        <ele>874</ele>
        <time>2022-09-12T09:02:30Z</time>
      </trkpt>
      <trkpt lat="47.88615" lon="6.83508">
        <ele>874</ele>
        <time>2022-09-12T09:02:31Z</time>
      </trkpt>
      <trkpt lat="47.88615" lon="6.83509">
        <ele>874</ele>
        <time>2022-09-12T09:02:32Z</time>
      </trkpt>
      <trkpt lat="47.88616" lon="6.8351">
        <ele>874</ele>
        <time>2022-09-12T09:02:33Z</time>
      </trkpt>
      <trkpt lat="47.88616" lon="6.83512">
        <ele>874</ele>
        <time>2022-09-12T09:02:34Z</time>
      </trkpt>
      <trkpt lat="47.88617" lon="6.83513">
        <ele>874</ele>
        <time>2022-09-12T09:02:35Z</time>
      </trkpt>
      <trkpt lat="47.88618" lon="6.83514">
        <ele>874</ele>
        <time>2022-09-12T09:02:36Z</time>
      </trkpt>
      <trkpt lat="47.88619" lon="6.83516">
        <ele>874</ele>
        <time>2022-09-12T09:02:37Z</time>
      </trkpt>
      <trkpt lat="47.8862" lon="6.83517">
        <ele>874</ele>
        <time>2022-09-12T09:02:38Z</time>
      </trkpt>
      <trkpt lat="47.8862" lon="6.83519">
        <ele>874</ele>
        <time>2022-09-12T09:02:39Z</time>
      </trkpt>
      <trkpt lat="47.88621" lon="6.8352">
        <ele>874</ele>
        <time>2022-09-12T09:02:40Z</time>
      </trkpt>
      <trkpt lat="47.88622" lon="6.83522">
        <ele>875</ele>
        <time>2022-09-12T09:02:41Z</time>
      </trkpt>
      <trkpt lat="47.88623" lon="6.83523">
        <ele>875</ele>
        <time>2022-09-12T09:02:42Z</time>
      </trkpt>
      <trkpt lat="47.88625" lon="6.83525">
        <ele>875</ele>
        <time>2022-09-12T09:02:43Z</time>
      </trkpt>
      <trkpt lat="47.88626" lon="6.83526">
        <ele>875</ele>
        <time>2022-09-12T09:02:44Z</time>
      </trkpt>
      <trkpt lat="47.88627" lon="6.83528">
        <ele>875</ele>
        <time>2022-09-12T09:02:45Z</time>
      </trkpt>
      <trkpt lat="47.88627" lon="6.83529">
        <ele>875</ele>
        <time>2022-09-12T09:02:46Z</time>
      </trkpt>
      <trkpt lat="47.88628" lon="6.83531">
        <ele>875</ele>
        <time>2022-09-12T09:02:47Z</time>
      </trkpt>
      <trkpt lat="47.88629" lon="6.83532">
        <ele>875</ele>
        <time>2022-09-12T09:02:48Z</time>
      </trkpt>
      <trkpt lat="47.8863" lon="6.83534">
        <ele>875</ele>
        <time>2022-09-12T09:02:49Z</time>
      </trkpt>
      <trkpt lat="47.88631" lon="6.83535">
        <ele>875</ele>
        <time>2022-09-12T09:02:50Z</time>
      </trkpt>
      <trkpt lat="47.88632" lon="6.83537">
        <ele>875</ele>
        <time>2022-09-12T09:02:51Z</time>
      </trkpt>
      <trkpt lat="47.88633" lon="6.83538">
        <ele>875</ele>
        <time>2022-09-12T09:02:52Z</time>
      </trkpt>
      <trkpt lat="47.88634" lon="6.83538">
        <ele>875</ele>
        <time>2022-09-12T09:02:53Z</time>
      </trkpt>
      <trkpt lat="47.88635" lon="6.83539">
        <ele>875</ele>
        <time>2022-09-12T09:02:54Z</time>
      </trkpt>
      <trkpt lat="47.88637" lon="6.83539">
        <ele>875</ele>
        <time>2022-09-12T09:02:55Z</time>
      </trkpt>
      <trkpt lat="47.88638" lon="6.8354">
        <ele>875</ele>
        <time>2022-09-12T09:02:56Z</time>
      </trkpt>
      <trkpt lat="47.88639" lon="6.8354">
        <ele>875</ele>
        <time>2022-09-12T09:02:57Z</time>
      </trkpt>
      <trkpt lat="47.88641" lon="6.83541">
        <ele>875</ele>
        <time>2022-09-12T09:02:58Z</time>
      </trkpt>
      <trkpt lat="47.88642" lon="6.83541">
        <ele>875</ele>
        <time>2022-09-12T09:02:59Z</time>
      </trkpt>
      <trkpt lat="47.88642" lon="6.83542">
        <ele>875</ele>
        <time>2022-09-12T09:03:00Z</time>
      </trkpt>
      <trkpt lat="47.88643" lon="6.83542">
        <ele>876</ele>
        <time>2022-09-12T09:03:01Z</time>
      </trkpt>
      <trkpt lat="47.88644" lon="6.83543">
        <ele>876</ele>
        <time>2022-09-12T09:03:02Z</time>
      </trkpt>
      <trkpt lat="47.88644" lon="6.83543">
        <ele>876</ele>
        <time>2022-09-12T09:03:03Z</time>
      </trkpt>
      <trkpt lat="47.88645" lon="6.83544">
        <ele>876</ele>
        <time>2022-09-12T09:03:04Z</time>
      </trkpt>
      <trkpt lat="47.88646" lon="6.83544">
        <ele>876</ele>
        <time>2022-09-12T09:03:05Z</time>
      </trkpt>
      <trkpt lat="47.88647" lon="6.83545">
        <ele>876</ele>
        <time>2022-09-12T09:03:06Z</time>
      </trkpt>
      <trkpt lat="47.88647" lon="6.83545">
        <ele>876</ele>
        <time>2022-09-12T09:03:07Z</time>
      </trkpt>
      <trkpt lat="47.88648" lon="6.83545">
        <ele>876</ele>
        <time>2022-09-12T09:03:08Z</time>
      </trkpt>
      <trkpt lat="47.88649" lon="6.83545">
        <ele>876</ele>
        <time>2022-09-12T09:03:09Z</time>
      </trkpt>
      <trkpt lat="47.8865" lon="6.83546">
        <ele>876</ele>
        <time>2022-09-12T09:03:10Z</time>
      </trkpt>
      <trkpt lat="47.88651" lon="6.83546">
        <ele>876</ele>
        <time>2022-09-12T09:03:11Z</time>
      </trkpt>
      <trkpt lat="47.88652" lon="6.83546">
        <ele>876</ele>
        <time>2022-09-12T09:03:12Z</time>
      </trkpt>
      <trkpt lat="47.88653" lon="6.83546">
        <ele>876</ele>
        <time>2022-09-12T09:03:13Z</time>
      </trkpt>
      <trkpt lat="47.88654" lon="6.83546">
        <ele>876</ele>
        <time>2022-09-12T09:03:14Z</time>
      </trkpt>
      <trkpt lat="47.88655" lon="6.83546">
        <ele>876</ele>
        <time>2022-09-12T09:03:15Z</time>
      </trkpt>
      <trkpt lat="47.88655" lon="6.83546">
        <ele>877</ele>
        <time>2022-09-12T09:03:16Z</time>
      </trkpt>
      <trkpt lat="47.88656" lon="6.83545">
        <ele>877</ele>
        <time>2022-09-12T09:03:17Z</time>
      </trkpt>
      <trkpt lat="47.88657" lon="6.83545">
        <ele>877</ele>
        <time>2022-09-12T09:03:18Z</time>
      </trkpt>
      <trkpt lat="47.88657" lon="6.83545">
        <ele>877</ele>
        <time>2022-09-12T09:03:19Z</time>
      </trkpt>
      <trkpt lat="47.88657" lon="6.83545">
        <ele>877</ele>
        <time>2022-09-12T09:03:20Z</time>
      </trkpt>
      <trkpt lat="47.88658" lon="6.83545">
        <ele>877</ele>
        <time>2022-09-12T09:03:21Z</time>
      </trkpt>
      <trkpt lat="47.88659" lon="6.83545">
        <ele>877</ele>
        <time>2022-09-12T09:03:22Z</time>
      </trkpt>
      <trkpt lat="47.88659" lon="6.83545">
        <ele>877</ele>
        <time>2022-09-12T09:03:23Z</time>
      </trkpt>
      <trkpt lat="47.8866" lon="6.83545">
        <ele>877</ele>
        <time>2022-09-12T09:03:24Z</time>
      </trkpt>
      <trkpt lat="47.88661" lon="6.83545">
        <ele>877</ele>
        <time>2022-09-12T09:03:25Z</time>
      </trkpt>
      <trkpt lat="47.88662" lon="6.83545">
        <ele>877</ele>
        <time>2022-09-12T09:03:26Z</time>
      </trkpt>
      <trkpt lat="47.88662" lon="6.83544">
        <ele>877</ele>
        <time>2022-09-12T09:03:27Z</time>
      </trkpt>
      <trkpt lat="47.88663" lon="6.83544">
        <ele>877</ele>
        <time>2022-09-12T09:03:28Z</time>
      </trkpt>
      <trkpt lat="47.88664" lon="6.83544">
        <ele>877</ele>
        <time>2022-09-12T09:03:29Z</time>
      </trkpt>
      <trkpt lat="47.88664" lon="6.83544">
        <ele>877</ele>
        <time>2022-09-12T09:03:30Z</time>
      </trkpt>
      <trkpt lat="47.88665" lon="6.83544">
        <ele>878</ele>
        <time>2022-09-12T09:03:31Z</time>
      </trkpt>
      <trkpt lat="47.88666" lon="6.83545">
        <ele>878</ele>
        <time>2022-09-12T09:03:32Z</time>
      </trkpt>
      <trkpt lat="47.88667" lon="6.83545">
        <ele>878</ele>
        <time>2022-09-12T09:03:33Z</time>
      </trkpt>
      <trkpt lat="47.88667" lon="6.83546">
        <ele>878</ele>
        <time>2022-09-12T09:03:34Z</time>
      </trkpt>
      <trkpt lat="47.88668" lon="6.83546">
        <ele>878</ele>
        <time>2022-09-12T09:03:35Z</time>
      </trkpt>
      <trkpt lat="47.88669" lon="6.83547">
        <ele>878</ele>
        <time>2022-09-12T09:03:36Z</time>
      </trkpt>
      <trkpt lat="47.8867" lon="6.83547">
        <ele>878</ele>
        <time>2022-09-12T09:03:37Z</time>
      </trkpt>
      <trkpt lat="47.88671" lon="6.83546">
        <ele>878</ele>
        <time>2022-09-12T09:03:38Z</time>
      </trkpt>
      <trkpt lat="47.88672" lon="6.83546">
        <ele>878</ele>
        <time>2022-09-12T09:03:39Z</time>
      </trkpt>
      <trkpt lat="47.88673" lon="6.83546">
        <ele>878</ele>
        <time>2022-09-12T09:03:40Z</time>
      </trkpt>
      <trkpt lat="47.88674" lon="6.83545">
        <ele>878</ele>
        <time>2022-09-12T09:03:41Z</time>
      </trkpt>
      <trkpt lat="47.88675" lon="6.83545">
        <ele>878</ele>
        <time>2022-09-12T09:03:42Z</time>
      </trkpt>
      <trkpt lat="47.88676" lon="6.83545">
        <ele>878</ele>
        <time>2022-09-12T09:03:43Z</time>
      </trkpt>
      <trkpt lat="47.88677" lon="6.83544">
        <ele>878</ele>
        <time>2022-09-12T09:03:44Z</time>
      </trkpt>
      <trkpt lat="47.88678" lon="6.83544">
        <ele>878</ele>
        <time>2022-09-12T09:03:45Z</time>
      </trkpt>
      <trkpt lat="47.88679" lon="6.83543">
        <ele>879</ele>
        <time>2022-09-12T09:03:46Z</time>
      </trkpt>
      <trkpt lat="47.8868" lon="6.83543">
        <ele>879</ele>
        <time>2022-09-12T09:03:47Z</time>
      </trkpt>
      <trkpt lat="47.88681" lon="6.83542">
        <ele>879</ele>
        <time>2022-09-12T09:03:48Z</time>
      </trkpt>
      <trkpt lat="47.88683" lon="6.83542">
        <ele>879</ele>
        <time>2022-09-12T09:03:49Z</time>
      </trkpt>
      <trkpt lat="47.88684" lon="6.83541">
        <ele>879</ele>
        <time>2022-09-12T09:03:50Z</time>
      </trkpt>
      <trkpt lat="47.88685" lon="6.8354">
        <ele>879</ele>
        <time>2022-09-12T09:03:51Z</time>
      </trkpt>
      <trkpt lat="47.88686" lon="6.8354">
        <ele>879</ele>
        <time>2022-09-12T09:03:52Z</time>
      </trkpt>
      <trkpt lat="47.88687" lon="6.83539">
        <ele>879</ele>
        <time>2022-09-12T09:03:53Z</time>
      </trkpt>
      <trkpt lat="47.88687" lon="6.83539">
        <ele>879</ele>
        <time>2022-09-12T09:03:54Z</time>
      </trkpt>
      <trkpt lat="47.88688" lon="6.83538">
        <ele>879</ele>
        <time>2022-09-12T09:03:55Z</time>
      </trkpt>
      <trkpt lat="47.88689" lon="6.83537">
        <ele>879</ele>
        <time>2022-09-12T09:03:56Z</time>
      </trkpt>
      <trkpt lat="47.8869" lon="6.83536">
        <ele>879</ele>
        <time>2022-09-12T09:03:57Z</time>
      </trkpt>
      <trkpt lat="47.8869" lon="6.83535">
        <ele>879</ele>
        <time>2022-09-12T09:03:58Z</time>
      </trkpt>
      <trkpt lat="47.88691" lon="6.83533">
        <ele>879</ele>
        <time>2022-09-12T09:03:59Z</time>
      </trkpt>
      <trkpt lat="47.88692" lon="6.83532">
        <ele>879</ele>
        <time>2022-09-12T09:04:00Z</time>
      </trkpt>
      <trkpt lat="47.88693" lon="6.83531">
        <ele>880</ele>
        <time>2022-09-12T09:04:01Z</time>
      </trkpt>
      <trkpt lat="47.88694" lon="6.8353">
        <ele>880</ele>
        <time>2022-09-12T09:04:02Z</time>
      </trkpt>
      <trkpt lat="47.88695" lon="6.83528">
        <ele>880</ele>
        <time>2022-09-12T09:04:03Z</time>
      </trkpt>
      <trkpt lat="47.88696" lon="6.83527">
        <ele>880</ele>
        <time>2022-09-12T09:04:04Z</time>
      </trkpt>
      <trkpt lat="47.88697" lon="6.83526">
        <ele>880</ele>
        <time>2022-09-12T09:04:05Z</time>
      </trkpt>
      <trkpt lat="47.88697" lon="6.83525">
        <ele>880</ele>
        <time>2022-09-12T09:04:06Z</time>
      </trkpt>
      <trkpt lat="47.88698" lon="6.83523">
        <ele>880</ele>
        <time>2022-09-12T09:04:07Z</time>
      </trkpt>
      <trkpt lat="47.88699" lon="6.83522">
        <ele>880</ele>
        <time>2022-09-12T09:04:08Z</time>
      </trkpt>
      <trkpt lat="47.88699" lon="6.83521">
        <ele>880</ele>
        <time>2022-09-12T09:04:09Z</time>
      </trkpt>
      <trkpt lat="47.88699" lon="6.83519">
        <ele>880</ele>
        <time>2022-09-12T09:04:10Z</time>
      </trkpt>
      <trkpt lat="47.887" lon="6.83518">
        <ele>880</ele>
        <time>2022-09-12T09:04:11Z</time>
      </trkpt>
      <trkpt lat="47.887" lon="6.83516">
        <ele>880</ele>
        <time>2022-09-12T09:04:12Z</time>
      </trkpt>
      <trkpt lat="47.88701" lon="6.83515">
        <ele>880</ele>
        <time>2022-09-12T09:04:13Z</time>
      </trkpt>
      <trkpt lat="47.88701" lon="6.83514">
        <ele>880</ele>
        <time>2022-09-12T09:04:14Z</time>
      </trkpt>
      <trkpt lat="47.88702" lon="6.83513">
        <ele>880</ele>
        <time>2022-09-12T09:04:15Z</time>
      </trkpt>
      <trkpt lat="47.88702" lon="6.83512">
        <ele>880</ele>
        <time>2022-09-12T09:04:16Z</time>
      </trkpt>
      <trkpt lat="47.88703" lon="6.8351">
        <ele>880</ele>
        <time>2022-09-12T09:04:17Z</time>
      </trkpt>
      <trkpt lat="47.88703" lon="6.83509">
        <ele>880</ele>
        <time>2022-09-12T09:04:18Z</time>
      </trkpt>
      <trkpt lat="47.88704" lon="6.83508">
        <ele>880</ele>
        <time>2022-09-12T09:04:19Z</time>
      </trkpt>
      <trkpt lat="47.88705" lon="6.83507">
        <ele>880</ele>
        <time>2022-09-12T09:04:20Z</time>
      </trkpt>
      <trkpt lat="47.88705" lon="6.83506">
        <ele>880</ele>
        <time>2022-09-12T09:04:21Z</time>
      </trkpt>
      <trkpt lat="47.88706" lon="6.83504">
        <ele>880</ele>
        <time>2022-09-12T09:04:22Z</time>
      </trkpt>
      <trkpt lat="47.88707" lon="6.83503">
        <ele>880</ele>
        <time>2022-09-12T09:04:23Z</time>
      </trkpt>
      <trkpt lat="47.88707" lon="6.83502">
        <ele>880</ele>
        <time>2022-09-12T09:04:24Z</time>
      </trkpt>
      <trkpt lat="47.88708" lon="6.83501">
        <ele>880</ele>
        <time>2022-09-12T09:04:25Z</time>
      </trkpt>
      <trkpt lat="47.88709" lon="6.835">
        <ele>881</ele>
        <time>2022-09-12T09:04:26Z</time>
      </trkpt>
      <trkpt lat="47.88709" lon="6.83499">
        <ele>881</ele>
        <time>2022-09-12T09:04:27Z</time>
      </trkpt>
      <trkpt lat="47.8871" lon="6.83497">
        <ele>881</ele>
        <time>2022-09-12T09:04:28Z</time>
      </trkpt>
      <trkpt lat="47.8871" lon="6.83496">
        <ele>881</ele>
        <time>2022-09-12T09:04:29Z</time>
      </trkpt>
      <trkpt lat="47.88711" lon="6.83495">
        <ele>881</ele>
        <time>2022-09-12T09:04:30Z</time>
      </trkpt>
      <trkpt lat="47.88711" lon="6.83494">
        <ele>881</ele>
        <time>2022-09-12T09:04:31Z</time>
      </trkpt>
      <trkpt lat="47.88712" lon="6.83493">
        <ele>881</ele>
        <time>2022-09-12T09:04:32Z</time>
      </trkpt>
      <trkpt lat="47.88713" lon="6.83492">
        <ele>881</ele>
        <time>2022-09-12T09:04:33Z</time>
      </trkpt>
      <trkpt lat="47.88714" lon="6.83491">
        <ele>881</ele>
        <time>2022-09-12T09:04:34Z</time>
      </trkpt>
      <trkpt lat="47.88715" lon="6.8349">
        <ele>881</ele>
        <time>2022-09-12T09:04:35Z</time>
      </trkpt>
      <trkpt lat="47.88715" lon="6.83489">
        <ele>881</ele>
        <time>2022-09-12T09:04:36Z</time>
      </trkpt>
      <trkpt lat="47.88716" lon="6.83488">
        <ele>881</ele>
        <time>2022-09-12T09:04:37Z</time>
      </trkpt>
      <trkpt lat="47.88717" lon="6.83487">
        <ele>881</ele>
        <time>2022-09-12T09:04:38Z</time>
      </trkpt>
      <trkpt lat="47.88717" lon="6.83485">
        <ele>881</ele>
        <time>2022-09-12T09:04:39Z</time>
      </trkpt>
      <trkpt lat="47.88718" lon="6.83484">
        <ele>881</ele>
        <time>2022-09-12T09:04:40Z</time>
      </trkpt>
      <trkpt lat="47.88718" lon="6.83483">
        <ele>882</ele>
        <time>2022-09-12T09:04:41Z</time>
      </trkpt>
      <trkpt lat="47.88719" lon="6.83482">
        <ele>882</ele>
        <time>2022-09-12T09:04:42Z</time>
      </trkpt>
      <trkpt lat="47.88719" lon="6.8348">
        <ele>882</ele>
        <time>2022-09-12T09:04:43Z</time>
      </trkpt>
      <trkpt lat="47.8872" lon="6.83479">
        <ele>882</ele>
        <time>2022-09-12T09:04:56Z</time>
      </trkpt>
      <trkpt lat="47.8872" lon="6.83478">
        <ele>882</ele>
        <time>2022-09-12T09:04:57Z</time>
      </trkpt>
      <trkpt lat="47.88721" lon="6.83477">
        <ele>882</ele>
        <time>2022-09-12T09:04:58Z</time>
      </trkpt>
      <trkpt lat="47.88721" lon="6.83476">
        <ele>882</ele>
        <time>2022-09-12T09:04:59Z</time>
      </trkpt>
      <trkpt lat="47.88721" lon="6.83475">
        <ele>882</ele>
        <time>2022-09-12T09:05:00Z</time>
      </trkpt>
      <trkpt lat="47.88722" lon="6.83474">
        <ele>882</ele>
        <time>2022-09-12T09:05:01Z</time>
      </trkpt>
      <trkpt lat="47.88722" lon="6.83473">
        <ele>882</ele>
        <time>2022-09-12T09:05:02Z</time>
      </trkpt>
      <trkpt lat="47.88723" lon="6.83472">
        <ele>882</ele>
        <time>2022-09-12T09:05:03Z</time>
      </trkpt>
      <trkpt lat="47.88724" lon="6.83471">
        <ele>882</ele>
        <time>2022-09-12T09:05:04Z</time>
      </trkpt>
      <trkpt lat="47.88724" lon="6.8347">
        <ele>882</ele>
        <time>2022-09-12T09:05:05Z</time>
      </trkpt>
      <trkpt lat="47.88725" lon="6.83469">
        <ele>882</ele>
        <time>2022-09-12T09:05:06Z</time>
      </trkpt>
      <trkpt lat="47.88726" lon="6.83468">
        <ele>882</ele>
        <time>2022-09-12T09:05:07Z</time>
      </trkpt>
      <trkpt lat="47.88727" lon="6.83467">
        <ele>882</ele>
        <time>2022-09-12T09:05:08Z</time>
      </trkpt>
      <trkpt lat="47.88727" lon="6.83466">
        <ele>882</ele>
        <time>2022-09-12T09:05:09Z</time>
      </trkpt>
      <trkpt lat="47.88728" lon="6.83465">
        <ele>882</ele>
        <time>2022-09-12T09:05:10Z</time>
      </trkpt>
      <trkpt lat="47.88729" lon="6.83464">
        <ele>882</ele>
        <time>2022-09-12T09:05:11Z</time>
      </trkpt>
      <trkpt lat="47.88729" lon="6.83463">
        <ele>882</ele>
        <time>2022-09-12T09:05:12Z</time>
      </trkpt>
      <trkpt lat="47.8873" lon="6.83461">
        <ele>882</ele>
        <time>2022-09-12T09:05:13Z</time>
      </trkpt>
      <trkpt lat="47.88731" lon="6.8346">
        <ele>882</ele>
        <time>2022-09-12T09:05:14Z</time>
      </trkpt>
      <trkpt lat="47.88731" lon="6.83459">
        <ele>882</ele>
        <time>2022-09-12T09:05:15Z</time>
      </trkpt>
      <trkpt lat="47.88732" lon="6.83458">
        <ele>882</ele>
        <time>2022-09-12T09:05:16Z</time>
      </trkpt>
      <trkpt lat="47.88733" lon="6.83456">
        <ele>882</ele>
        <time>2022-09-12T09:05:17Z</time>
      </trkpt>
      <trkpt lat="47.88733" lon="6.83455">
        <ele>882</ele>
        <time>2022-09-12T09:05:18Z</time>
      </trkpt>
      <trkpt lat="47.88734" lon="6.83454">
        <ele>882</ele>
        <time>2022-09-12T09:05:19Z</time>
      </trkpt>
      <trkpt lat="47.88734" lon="6.83453">
        <ele>882</ele>
        <time>2022-09-12T09:05:20Z</time>
      </trkpt>
      <trkpt lat="47.88734" lon="6.83452">
        <ele>882</ele>
        <time>2022-09-12T09:05:21Z</time>
      </trkpt>
      <trkpt lat="47.88735" lon="6.83451">
        <ele>882</ele>
        <time>2022-09-12T09:05:22Z</time>
      </trkpt>
      <trkpt lat="47.88735" lon="6.83449">
        <ele>882</ele>
        <time>2022-09-12T09:05:23Z</time>
      </trkpt>
      <trkpt lat="47.88736" lon="6.83448">
        <ele>882</ele>
        <time>2022-09-12T09:05:24Z</time>
      </trkpt>
      <trkpt lat="47.88737" lon="6.83447">
        <ele>882</ele>
        <time>2022-09-12T09:05:25Z</time>
      </trkpt>
      <trkpt lat="47.88737" lon="6.83446">
        <ele>882</ele>
        <time>2022-09-12T09:05:26Z</time>
      </trkpt>
      <trkpt lat="47.88738" lon="6.83445">
        <ele>882</ele>
        <time>2022-09-12T09:05:27Z</time>
      </trkpt>
      <trkpt lat="47.88739" lon="6.83444">
        <ele>882</ele>
        <time>2022-09-12T09:05:28Z</time>
      </trkpt>
      <trkpt lat="47.8874" lon="6.83442">
        <ele>883</ele>
        <time>2022-09-12T09:05:29Z</time>
      </trkpt>
      <trkpt lat="47.8874" lon="6.83441">
        <ele>883</ele>
        <time>2022-09-12T09:05:30Z</time>
      </trkpt>
      <trkpt lat="47.88741" lon="6.8344">
        <ele>884</ele>
        <time>2022-09-12T09:05:31Z</time>
      </trkpt>
      <trkpt lat="47.88742" lon="6.83438">
        <ele>883</ele>
        <time>2022-09-12T09:05:32Z</time>
      </trkpt>
      <trkpt lat="47.88742" lon="6.83437">
        <ele>883</ele>
        <time>2022-09-12T09:05:33Z</time>
      </trkpt>
      <trkpt lat="47.88743" lon="6.83436">
        <ele>882</ele>
        <time>2022-09-12T09:05:34Z</time>
      </trkpt>
      <trkpt lat="47.88743" lon="6.83435">
        <ele>882</ele>
        <time>2022-09-12T09:05:35Z</time>
      </trkpt>
      <trkpt lat="47.88744" lon="6.83434">
        <ele>882</ele>
        <time>2022-09-12T09:05:36Z</time>
      </trkpt>
      <trkpt lat="47.88745" lon="6.83432">
        <ele>882</ele>
        <time>2022-09-12T09:05:37Z</time>
      </trkpt>
      <trkpt lat="47.88745" lon="6.83431">
        <ele>882</ele>
        <time>2022-09-12T09:05:38Z</time>
      </trkpt>
      <trkpt lat="47.88746" lon="6.8343">
        <ele>882</ele>
        <time>2022-09-12T09:05:39Z</time>
      </trkpt>
      <trkpt lat="47.88747" lon="6.83429">
        <ele>882</ele>
        <time>2022-09-12T09:05:40Z</time>
      </trkpt>
      <trkpt lat="47.88748" lon="6.83427">
        <ele>882</ele>
        <time>2022-09-12T09:05:41Z</time>
      </trkpt>
      <trkpt lat="47.88748" lon="6.83426">
        <ele>882</ele>
        <time>2022-09-12T09:05:42Z</time>
      </trkpt>
      <trkpt lat="47.88749" lon="6.83424">
        <ele>882</ele>
        <time>2022-09-12T09:05:43Z</time>
      </trkpt>
      <trkpt lat="47.8875" lon="6.83423">
        <ele>882</ele>
        <time>2022-09-12T09:05:44Z</time>
      </trkpt>
      <trkpt lat="47.88751" lon="6.83422">
        <ele>882</ele>
        <time>2022-09-12T09:05:45Z</time>
      </trkpt>
      <trkpt lat="47.88751" lon="6.8342">
        <ele>882</ele>
        <time>2022-09-12T09:05:46Z</time>
      </trkpt>
      <trkpt lat="47.88751" lon="6.83419">
        <ele>882</ele>
        <time>2022-09-12T09:05:47Z</time>
      </trkpt>
      <trkpt lat="47.88752" lon="6.83417">
        <ele>882</ele>
        <time>2022-09-12T09:05:48Z</time>
      </trkpt>
      <trkpt lat="47.88752" lon="6.83416">
        <ele>882</ele>
        <time>2022-09-12T09:05:49Z</time>
      </trkpt>
      <trkpt lat="47.88753" lon="6.83414">
        <ele>882</ele>
        <time>2022-09-12T09:05:50Z</time>
      </trkpt>
      <trkpt lat="47.88754" lon="6.83412">
        <ele>882</ele>
        <time>2022-09-12T09:05:51Z</time>
      </trkpt>
      <trkpt lat="47.88754" lon="6.83411">
        <ele>882</ele>
        <time>2022-09-12T09:05:52Z</time>
      </trkpt>
      <trkpt lat="47.88755" lon="6.8341">
        <ele>882</ele>
        <time>2022-09-12T09:05:53Z</time>
      </trkpt>
      <trkpt lat="47.88756" lon="6.83409">
        <ele>882</ele>
        <time>2022-09-12T09:05:54Z</time>
      </trkpt>
      <trkpt lat="47.88757" lon="6.83408">
        <ele>882</ele>
        <time>2022-09-12T09:05:55Z</time>
      </trkpt>
      <trkpt lat="47.88757" lon="6.83407">
        <ele>882</ele>
        <time>2022-09-12T09:05:56Z</time>
      </trkpt>
      <trkpt lat="47.88758" lon="6.83406">
        <ele>882</ele>
        <time>2022-09-12T09:05:57Z</time>
      </trkpt>
      <trkpt lat="47.88759" lon="6.83405">
        <ele>882</ele>
        <time>2022-09-12T09:05:58Z</time>
      </trkpt>
      <trkpt lat="47.8876" lon="6.83403">
        <ele>882</ele>
        <time>2022-09-12T09:05:59Z</time>
      </trkpt>
      <trkpt lat="47.88761" lon="6.83402">
        <ele>882</ele>
        <time>2022-09-12T09:06:00Z</time>
      </trkpt>
      <trkpt lat="47.88762" lon="6.83401">
        <ele>882</ele>
        <time>2022-09-12T09:06:01Z</time>
      </trkpt>
      <trkpt lat="47.88762" lon="6.834">
        <ele>882</ele>
        <time>2022-09-12T09:06:02Z</time>
      </trkpt>
      <trkpt lat="47.88763" lon="6.83398">
        <ele>882</ele>
        <time>2022-09-12T09:06:03Z</time>
      </trkpt>
      <trkpt lat="47.88764" lon="6.83397">
        <ele>882</ele>
        <time>2022-09-12T09:06:04Z</time>
      </trkpt>
      <trkpt lat="47.88764" lon="6.83395">
        <ele>882</ele>
        <time>2022-09-12T09:06:05Z</time>
      </trkpt>
      <trkpt lat="47.88765" lon="6.83394">
        <ele>882</ele>
        <time>2022-09-12T09:06:06Z</time>
      </trkpt>
      <trkpt lat="47.88765" lon="6.83392">
        <ele>882</ele>
        <time>2022-09-12T09:06:07Z</time>
      </trkpt>
      <trkpt lat="47.88766" lon="6.83391">
        <ele>882</ele>
        <time>2022-09-12T09:06:08Z</time>
      </trkpt>
      <trkpt lat="47.88766" lon="6.8339">
        <ele>882</ele>
        <time>2022-09-12T09:06:09Z</time>
      </trkpt>
      <trkpt lat="47.88767" lon="6.83388">
        <ele>882</ele>
        <time>2022-09-12T09:06:10Z</time>
      </trkpt>
      <trkpt lat="47.88767" lon="6.83387">
        <ele>882</ele>
        <time>2022-09-12T09:06:11Z</time>
      </trkpt>
      <trkpt lat="47.88768" lon="6.83386">
        <ele>881</ele>
        <time>2022-09-12T09:06:12Z</time>
      </trkpt>
      <trkpt lat="47.88768" lon="6.83384">
        <ele>881</ele>
        <time>2022-09-12T09:06:13Z</time>
      </trkpt>
      <trkpt lat="47.88769" lon="6.83383">
        <ele>881</ele>
        <time>2022-09-12T09:06:14Z</time>
      </trkpt>
      <trkpt lat="47.8877" lon="6.83381">
        <ele>881</ele>
        <time>2022-09-12T09:06:15Z</time>
      </trkpt>
      <trkpt lat="47.88771" lon="6.8338">
        <ele>881</ele>
        <time>2022-09-12T09:06:16Z</time>
      </trkpt>
      <trkpt lat="47.88771" lon="6.83378">
        <ele>881</ele>
        <time>2022-09-12T09:06:17Z</time>
      </trkpt>
      <trkpt lat="47.88772" lon="6.83377">
        <ele>881</ele>
        <time>2022-09-12T09:06:18Z</time>
      </trkpt>
      <trkpt lat="47.88773" lon="6.83376">
        <ele>881</ele>
        <time>2022-09-12T09:06:19Z</time>
      </trkpt>
      <trkpt lat="47.88774" lon="6.83375">
        <ele>881</ele>
        <time>2022-09-12T09:06:20Z</time>
      </trkpt>
      <trkpt lat="47.88775" lon="6.83374">
        <ele>881</ele>
        <time>2022-09-12T09:06:21Z</time>
      </trkpt>
      <trkpt lat="47.88776" lon="6.83373">
        <ele>881</ele>
        <time>2022-09-12T09:06:22Z</time>
      </trkpt>
      <trkpt lat="47.88776" lon="6.83372">
        <ele>881</ele>
        <time>2022-09-12T09:06:23Z</time>
      </trkpt>
      <trkpt lat="47.88777" lon="6.83371">
        <ele>881</ele>
        <time>2022-09-12T09:06:24Z</time>
      </trkpt>
      <trkpt lat="47.88778" lon="6.8337">
        <ele>881</ele>
        <time>2022-09-12T09:06:25Z</time>
      </trkpt>
      <trkpt lat="47.88779" lon="6.83369">
        <ele>881</ele>
        <time>2022-09-12T09:06:26Z</time>
      </trkpt>
      <trkpt lat="47.88779" lon="6.83367">
        <ele>881</ele>
        <time>2022-09-12T09:06:27Z</time>
      </trkpt>
      <trkpt lat="47.8878" lon="6.83366">
        <ele>881</ele>
        <time>2022-09-12T09:06:28Z</time>
      </trkpt>
      <trkpt lat="47.88781" lon="6.83365">
        <ele>881</ele>
        <time>2022-09-12T09:06:29Z</time>
      </trkpt>
      <trkpt lat="47.88782" lon="6.83364">
        <ele>881</ele>
        <time>2022-09-12T09:06:30Z</time>
      </trkpt>
      <trkpt lat="47.88782" lon="6.83363">
        <ele>881</ele>
        <time>2022-09-12T09:06:31Z</time>
      </trkpt>
      <trkpt lat="47.88783" lon="6.83362">
        <ele>881</ele>
        <time>2022-09-12T09:06:32Z</time>
      </trkpt>
      <trkpt lat="47.88784" lon="6.83361">
        <ele>881</ele>
        <time>2022-09-12T09:06:33Z</time>
      </trkpt>
      <trkpt lat="47.88785" lon="6.8336">
        <ele>881</ele>
        <time>2022-09-12T09:06:34Z</time>
      </trkpt>
      <trkpt lat="47.88786" lon="6.8336">
        <ele>881</ele>
        <time>2022-09-12T09:06:35Z</time>
      </trkpt>
      <trkpt lat="47.88787" lon="6.83359">
        <ele>881</ele>
        <time>2022-09-12T09:06:36Z</time>
      </trkpt>
      <trkpt lat="47.88788" lon="6.83358">
        <ele>881</ele>
        <time>2022-09-12T09:06:37Z</time>
      </trkpt>
      <trkpt lat="47.88789" lon="6.83357">
        <ele>881</ele>
        <time>2022-09-12T09:06:38Z</time>
      </trkpt>
      <trkpt lat="47.8879" lon="6.83356">
        <ele>881</ele>
        <time>2022-09-12T09:06:39Z</time>
      </trkpt>
      <trkpt lat="47.88791" lon="6.83356">
        <ele>881</ele>
        <time>2022-09-12T09:06:40Z</time>
      </trkpt>
      <trkpt lat="47.88792" lon="6.83355">
        <ele>881</ele>
        <time>2022-09-12T09:06:41Z</time>
      </trkpt>
      <trkpt lat="47.88794" lon="6.83354">
        <ele>881</ele>
        <time>2022-09-12T09:06:42Z</time>
      </trkpt>
      <trkpt lat="47.88795" lon="6.83354">
        <ele>881</ele>
        <time>2022-09-12T09:06:43Z</time>
      </trkpt>
      <trkpt lat="47.88796" lon="6.83353">
        <ele>881</ele>
        <time>2022-09-12T09:06:44Z</time>
      </trkpt>
      <trkpt lat="47.88797" lon="6.83352">
        <ele>881</ele>
        <time>2022-09-12T09:06:45Z</time>
      </trkpt>
      <trkpt lat="47.88798" lon="6.83352">
        <ele>881</ele>
        <time>2022-09-12T09:06:46Z</time>
      </trkpt>
      <trkpt lat="47.88799" lon="6.83352">
        <ele>881</ele>
        <time>2022-09-12T09:06:47Z</time>
      </trkpt>
      <trkpt lat="47.888" lon="6.83351">
        <ele>881</ele>
        <time>2022-09-12T09:06:48Z</time>
      </trkpt>
      <trkpt lat="47.88801" lon="6.83351">
        <ele>881</ele>
        <time>2022-09-12T09:06:49Z</time>
      </trkpt>
      <trkpt lat="47.88802" lon="6.8335">
        <ele>881</ele>
        <time>2022-09-12T09:06:50Z</time>
      </trkpt>
      <trkpt lat="47.88803" lon="6.8335">
        <ele>881</ele>
        <time>2022-09-12T09:06:51Z</time>
      </trkpt>
      <trkpt lat="47.88804" lon="6.8335">
        <ele>881</ele>
        <time>2022-09-12T09:06:52Z</time>
      </trkpt>
      <trkpt lat="47.88805" lon="6.83349">
        <ele>881</ele>
        <time>2022-09-12T09:06:53Z</time>
      </trkpt>
      <trkpt lat="47.88806" lon="6.83349">
        <ele>881</ele>
        <time>2022-09-12T09:06:54Z</time>
      </trkpt>
      <trkpt lat="47.88807" lon="6.83349">
        <ele>881</ele>
        <time>2022-09-12T09:06:55Z</time>
      </trkpt>
      <trkpt lat="47.88808" lon="6.83349">
        <ele>881</ele>
        <time>2022-09-12T09:06:56Z</time>
      </trkpt>
      <trkpt lat="47.8881" lon="6.83348">
        <ele>881</ele>
        <time>2022-09-12T09:06:57Z</time>
      </trkpt>
      <trkpt lat="47.88811" lon="6.83348">
        <ele>881</ele>
        <time>2022-09-12T09:06:58Z</time>
      </trkpt>
      <trkpt lat="47.88812" lon="6.83349">
        <ele>881</ele>
        <time>2022-09-12T09:06:59Z</time>
      </trkpt>
      <trkpt lat="47.88813" lon="6.83349">
        <ele>881</ele>
        <time>2022-09-12T09:07:00Z</time>
      </trkpt>
      <trkpt lat="47.88814" lon="6.83349">
        <ele>881</ele>
        <time>2022-09-12T09:07:01Z</time>
      </trkpt>
      <trkpt lat="47.88815" lon="6.83349">
        <ele>880</ele>
        <time>2022-09-12T09:07:02Z</time>
      </trkpt>
      <trkpt lat="47.88816" lon="6.8335">
        <ele>880</ele>
        <time>2022-09-12T09:07:03Z</time>
      </trkpt>
      <trkpt lat="47.88817" lon="6.8335">
        <ele>880</ele>
        <time>2022-09-12T09:07:04Z</time>
      </trkpt>
      <trkpt lat="47.88818" lon="6.8335">
        <ele>880</ele>
        <time>2022-09-12T09:07:05Z</time>
      </trkpt>
      <trkpt lat="47.88818" lon="6.8335">
        <ele>880</ele>
        <time>2022-09-12T09:07:06Z</time>
      </trkpt>
      <trkpt lat="47.88819" lon="6.8335">
        <ele>880</ele>
        <time>2022-09-12T09:07:07Z</time>
      </trkpt>
      <trkpt lat="47.8882" lon="6.8335">
        <ele>880</ele>
        <time>2022-09-12T09:07:08Z</time>
      </trkpt>
      <trkpt lat="47.88821" lon="6.83351">
        <ele>880</ele>
        <time>2022-09-12T09:07:09Z</time>
      </trkpt>
      <trkpt lat="47.88821" lon="6.83351">
        <ele>880</ele>
        <time>2022-09-12T09:07:10Z</time>
      </trkpt>
      <trkpt lat="47.88822" lon="6.83351">
        <ele>880</ele>
        <time>2022-09-12T09:07:11Z</time>
      </trkpt>
      <trkpt lat="47.88823" lon="6.83352">
        <ele>880</ele>
        <time>2022-09-12T09:07:12Z</time>
      </trkpt>
      <trkpt lat="47.88824" lon="6.83352">
        <ele>880</ele>
        <time>2022-09-12T09:07:13Z</time>
      </trkpt>
      <trkpt lat="47.88826" lon="6.83353">
        <ele>880</ele>
        <time>2022-09-12T09:07:14Z</time>
      </trkpt>
      <trkpt lat="47.88827" lon="6.83353">
        <ele>880</ele>
        <time>2022-09-12T09:07:15Z</time>
      </trkpt>
      <trkpt lat="47.88828" lon="6.83354">
        <ele>880</ele>
        <time>2022-09-12T09:07:16Z</time>
      </trkpt>
      <trkpt lat="47.88829" lon="6.83355">
        <ele>880</ele>
        <time>2022-09-12T09:07:17Z</time>
      </trkpt>
      <trkpt lat="47.8883" lon="6.83355">
        <ele>880</ele>
        <time>2022-09-12T09:07:18Z</time>
      </trkpt>
      <trkpt lat="47.88831" lon="6.83356">
        <ele>880</ele>
        <time>2022-09-12T09:07:19Z</time>
      </trkpt>
      <trkpt lat="47.88832" lon="6.83357">
        <ele>880</ele>
        <time>2022-09-12T09:07:20Z</time>
      </trkpt>
      <trkpt lat="47.88833" lon="6.83357">
        <ele>880</ele>
        <time>2022-09-12T09:07:21Z</time>
      </trkpt>
      <trkpt lat="47.88834" lon="6.83358">
        <ele>880</ele>
        <time>2022-09-12T09:07:22Z</time>
      </trkpt>
      <trkpt lat="47.88835" lon="6.83359">
        <ele>880</ele>
        <time>2022-09-12T09:07:23Z</time>
      </trkpt>
      <trkpt lat="47.88836" lon="6.8336">
        <ele>880</ele>
        <time>2022-09-12T09:07:24Z</time>
      </trkpt>
      <trkpt lat="47.88837" lon="6.83361">
        <ele>880</ele>
        <time>2022-09-12T09:07:25Z</time>
      </trkpt>
      <trkpt lat="47.88838" lon="6.83363">
        <ele>880</ele>
        <time>2022-09-12T09:07:26Z</time>
      </trkpt>
      <trkpt lat="47.88839" lon="6.83364">
        <ele>879</ele>
        <time>2022-09-12T09:07:27Z</time>
      </trkpt>
      <trkpt lat="47.8884" lon="6.83365">
        <ele>879</ele>
        <time>2022-09-12T09:07:28Z</time>
      </trkpt>
      <trkpt lat="47.88841" lon="6.83366">
        <ele>879</ele>
        <time>2022-09-12T09:07:29Z</time>
      </trkpt>
      <trkpt lat="47.88842" lon="6.83367">
        <ele>879</ele>
        <time>2022-09-12T09:07:30Z</time>
      </trkpt>
      <trkpt lat="47.88843" lon="6.83368">
        <ele>879</ele>
        <time>2022-09-12T09:07:31Z</time>
      </trkpt>
      <trkpt lat="47.88844" lon="6.8337">
        <ele>879</ele>
        <time>2022-09-12T09:07:32Z</time>
      </trkpt>
      <trkpt lat="47.88845" lon="6.83371">
        <ele>879</ele>
        <time>2022-09-12T09:07:33Z</time>
      </trkpt>
      <trkpt lat="47.88845" lon="6.83373">
        <ele>879</ele>
        <time>2022-09-12T09:07:34Z</time>
      </trkpt>
      <trkpt lat="47.88846" lon="6.83374">
        <ele>879</ele>
        <time>2022-09-12T09:07:35Z</time>
      </trkpt>
      <trkpt lat="47.88847" lon="6.83375">
        <ele>879</ele>
        <time>2022-09-12T09:07:36Z</time>
      </trkpt>
      <trkpt lat="47.88848" lon="6.83377">
        <ele>879</ele>
        <time>2022-09-12T09:07:37Z</time>
      </trkpt>
      <trkpt lat="47.88848" lon="6.83378">
        <ele>879</ele>
        <time>2022-09-12T09:07:38Z</time>
      </trkpt>
      <trkpt lat="47.88849" lon="6.83379">
        <ele>879</ele>
        <time>2022-09-12T09:07:39Z</time>
      </trkpt>
      <trkpt lat="47.8885" lon="6.83381">
        <ele>879</ele>
        <time>2022-09-12T09:07:40Z</time>
      </trkpt>
      <trkpt lat="47.8885" lon="6.83382">
        <ele>879</ele>
        <time>2022-09-12T09:07:41Z</time>
      </trkpt>
      <trkpt lat="47.88851" lon="6.83383">
        <ele>879</ele>
        <time>2022-09-12T09:07:42Z</time>
      </trkpt>
      <trkpt lat="47.88852" lon="6.83385">
        <ele>879</ele>
        <time>2022-09-12T09:07:43Z</time>
      </trkpt>
      <trkpt lat="47.88852" lon="6.83386">
        <ele>879</ele>
        <time>2022-09-12T09:07:44Z</time>
      </trkpt>
      <trkpt lat="47.88853" lon="6.83387">
        <ele>879</ele>
        <time>2022-09-12T09:07:45Z</time>
      </trkpt>
      <trkpt lat="47.88854" lon="6.83389">
        <ele>879</ele>
        <time>2022-09-12T09:07:46Z</time>
      </trkpt>
      <trkpt lat="47.88854" lon="6.8339">
        <ele>879</ele>
        <time>2022-09-12T09:07:47Z</time>
      </trkpt>
      <trkpt lat="47.88855" lon="6.83391">
        <ele>879</ele>
        <time>2022-09-12T09:07:48Z</time>
      </trkpt>
      <trkpt lat="47.88855" lon="6.83393">
        <ele>879</ele>
        <time>2022-09-12T09:07:49Z</time>
      </trkpt>
      <trkpt lat="47.88856" lon="6.83394">
        <ele>879</ele>
        <time>2022-09-12T09:07:50Z</time>
      </trkpt>
      <trkpt lat="47.88856" lon="6.83395">
        <ele>879</ele>
        <time>2022-09-12T09:07:51Z</time>
      </trkpt>
      <trkpt lat="47.88857" lon="6.83397">
        <ele>879</ele>
        <time>2022-09-12T09:07:52Z</time>
      </trkpt>
      <trkpt lat="47.88857" lon="6.83398">
        <ele>879</ele>
        <time>2022-09-12T09:07:53Z</time>
      </trkpt>
      <trkpt lat="47.88858" lon="6.834">
        <ele>879</ele>
        <time>2022-09-12T09:07:54Z</time>
      </trkpt>
      <trkpt lat="47.88859" lon="6.83401">
        <ele>879</ele>
        <time>2022-09-12T09:07:55Z</time>
      </trkpt>
      <trkpt lat="47.88859" lon="6.83403">
        <ele>879</ele>
        <time>2022-09-12T09:07:56Z</time>
      </trkpt>
      <trkpt lat="47.8886" lon="6.83404">
        <ele>879</ele>
        <time>2022-09-12T09:07:57Z</time>
      </trkpt>
      <trkpt lat="47.8886" lon="6.83406">
        <ele>879</ele>
        <time>2022-09-12T09:07:58Z</time>
      </trkpt>
      <trkpt lat="47.88861" lon="6.83407">
        <ele>879</ele>
        <time>2022-09-12T09:07:59Z</time>
      </trkpt>
      <trkpt lat="47.88861" lon="6.83409">
        <ele>879</ele>
        <time>2022-09-12T09:08:00Z</time>
      </trkpt>
      <trkpt lat="47.88861" lon="6.8341">
        <ele>879</ele>
        <time>2022-09-12T09:08:01Z</time>
      </trkpt>
      <trkpt lat="47.88862" lon="6.83412">
        <ele>879</ele>
        <time>2022-09-12T09:08:02Z</time>
      </trkpt>
      <trkpt lat="47.88862" lon="6.83413">
        <ele>879</ele>
        <time>2022-09-12T09:08:03Z</time>
      </trkpt>
      <trkpt lat="47.88863" lon="6.83415">
        <ele>879</ele>
        <time>2022-09-12T09:08:04Z</time>
      </trkpt>
      <trkpt lat="47.88864" lon="6.83417">
        <ele>879</ele>
        <time>2022-09-12T09:08:05Z</time>
      </trkpt>
      <trkpt lat="47.88864" lon="6.83418">
        <ele>879</ele>
        <time>2022-09-12T09:08:06Z</time>
      </trkpt>
      <trkpt lat="47.88865" lon="6.8342">
        <ele>879</ele>
        <time>2022-09-12T09:08:07Z</time>
      </trkpt>
      <trkpt lat="47.88865" lon="6.83422">
        <ele>879</ele>
        <time>2022-09-12T09:08:08Z</time>
      </trkpt>
      <trkpt lat="47.88866" lon="6.83423">
        <ele>879</ele>
        <time>2022-09-12T09:08:09Z</time>
      </trkpt>
      <trkpt lat="47.88866" lon="6.83424">
        <ele>879</ele>
        <time>2022-09-12T09:08:10Z</time>
      </trkpt>
      <trkpt lat="47.88867" lon="6.83426">
        <ele>879</ele>
        <time>2022-09-12T09:08:11Z</time>
      </trkpt>
      <trkpt lat="47.88868" lon="6.83427">
        <ele>878</ele>
        <time>2022-09-12T09:08:12Z</time>
      </trkpt>
      <trkpt lat="47.88868" lon="6.83428">
        <ele>878</ele>
        <time>2022-09-12T09:08:13Z</time>
      </trkpt>
      <trkpt lat="47.88869" lon="6.8343">
        <ele>878</ele>
        <time>2022-09-12T09:08:14Z</time>
      </trkpt>
      <trkpt lat="47.8887" lon="6.83431">
        <ele>878</ele>
        <time>2022-09-12T09:08:15Z</time>
      </trkpt>
      <trkpt lat="47.88871" lon="6.83432">
        <ele>878</ele>
        <time>2022-09-12T09:08:16Z</time>
      </trkpt>
      <trkpt lat="47.88872" lon="6.83434">
        <ele>878</ele>
        <time>2022-09-12T09:08:17Z</time>
      </trkpt>
      <trkpt lat="47.88872" lon="6.83435">
        <ele>878</ele>
        <time>2022-09-12T09:08:18Z</time>
      </trkpt>
      <trkpt lat="47.88873" lon="6.83437">
        <ele>878</ele>
        <time>2022-09-12T09:08:19Z</time>
      </trkpt>
      <trkpt lat="47.88874" lon="6.83438">
        <ele>878</ele>
        <time>2022-09-12T09:08:20Z</time>
      </trkpt>
      <trkpt lat="47.88874" lon="6.8344">
        <ele>879</ele>
        <time>2022-09-12T09:08:21Z</time>
      </trkpt>
      <trkpt lat="47.88875" lon="6.83441">
        <ele>878</ele>
        <time>2022-09-12T09:08:22Z</time>
      </trkpt>
      <trkpt lat="47.88876" lon="6.83442">
        <ele>878</ele>
        <time>2022-09-12T09:08:23Z</time>
      </trkpt>
      <trkpt lat="47.88876" lon="6.83444">
        <ele>878</ele>
        <time>2022-09-12T09:08:24Z</time>
      </trkpt>
      <trkpt lat="47.88877" lon="6.83445">
        <ele>878</ele>
        <time>2022-09-12T09:08:25Z</time>
      </trkpt>
      <trkpt lat="47.88878" lon="6.83446">
        <ele>878</ele>
        <time>2022-09-12T09:08:26Z</time>
      </trkpt>
      <trkpt lat="47.88878" lon="6.83447">
        <ele>878</ele>
        <time>2022-09-12T09:08:27Z</time>
      </trkpt>
      <trkpt lat="47.88879" lon="6.83448">
        <ele>878</ele>
        <time>2022-09-12T09:08:28Z</time>
      </trkpt>
      <trkpt lat="47.8888" lon="6.83449">
        <ele>878</ele>
        <time>2022-09-12T09:08:29Z</time>
      </trkpt>
      <trkpt lat="47.8888" lon="6.83451">
        <ele>878</ele>
        <time>2022-09-12T09:08:30Z</time>
      </trkpt>
      <trkpt lat="47.88881" lon="6.83452">
        <ele>878</ele>
        <time>2022-09-12T09:08:31Z</time>
      </trkpt>
      <trkpt lat="47.88881" lon="6.83453">
        <ele>878</ele>
        <time>2022-09-12T09:08:32Z</time>
      </trkpt>
      <trkpt lat="47.88881" lon="6.83455">
        <ele>878</ele>
        <time>2022-09-12T09:08:33Z</time>
      </trkpt>
      <trkpt lat="47.88882" lon="6.83456">
        <ele>878</ele>
        <time>2022-09-12T09:08:34Z</time>
      </trkpt>
      <trkpt lat="47.88882" lon="6.83458">
        <ele>878</ele>
        <time>2022-09-12T09:08:35Z</time>
      </trkpt>
      <trkpt lat="47.88883" lon="6.83459">
        <ele>878</ele>
        <time>2022-09-12T09:08:36Z</time>
      </trkpt>
      <trkpt lat="47.88884" lon="6.83461">
        <ele>878</ele>
        <time>2022-09-12T09:08:37Z</time>
      </trkpt>
      <trkpt lat="47.88884" lon="6.83462">
        <ele>878</ele>
        <time>2022-09-12T09:08:38Z</time>
      </trkpt>
      <trkpt lat="47.88885" lon="6.83463">
        <ele>878</ele>
        <time>2022-09-12T09:08:39Z</time>
      </trkpt>
      <trkpt lat="47.88885" lon="6.83465">
        <ele>878</ele>
        <time>2022-09-12T09:08:40Z</time>
      </trkpt>
      <trkpt lat="47.88886" lon="6.83466">
        <ele>878</ele>
        <time>2022-09-12T09:08:41Z</time>
      </trkpt>
      <trkpt lat="47.88886" lon="6.83468">
        <ele>878</ele>
        <time>2022-09-12T09:08:42Z</time>
      </trkpt>
      <trkpt lat="47.88886" lon="6.8347">
        <ele>878</ele>
        <time>2022-09-12T09:08:43Z</time>
      </trkpt>
      <trkpt lat="47.88886" lon="6.83471">
        <ele>878</ele>
        <time>2022-09-12T09:08:44Z</time>
      </trkpt>
      <trkpt lat="47.88887" lon="6.83473">
        <ele>878</ele>
        <time>2022-09-12T09:08:45Z</time>
      </trkpt>
      <trkpt lat="47.88887" lon="6.83475">
        <ele>878</ele>
        <time>2022-09-12T09:08:46Z</time>
      </trkpt>
      <trkpt lat="47.88887" lon="6.83477">
        <ele>878</ele>
        <time>2022-09-12T09:08:47Z</time>
      </trkpt>
      <trkpt lat="47.88887" lon="6.83478">
        <ele>878</ele>
        <time>2022-09-12T09:08:48Z</time>
      </trkpt>
      <trkpt lat="47.88887" lon="6.8348">
        <ele>878</ele>
        <time>2022-09-12T09:08:49Z</time>
      </trkpt>
      <trkpt lat="47.88888" lon="6.83482">
        <ele>878</ele>
        <time>2022-09-12T09:08:50Z</time>
      </trkpt>
      <trkpt lat="47.88888" lon="6.83483">
        <ele>878</ele>
        <time>2022-09-12T09:08:51Z</time>
      </trkpt>
      <trkpt lat="47.88889" lon="6.83485">
        <ele>878</ele>
        <time>2022-09-12T09:08:52Z</time>
      </trkpt>
      <trkpt lat="47.88889" lon="6.83486">
        <ele>878</ele>
        <time>2022-09-12T09:08:53Z</time>
      </trkpt>
      <trkpt lat="47.88889" lon="6.83488">
        <ele>878</ele>
        <time>2022-09-12T09:08:54Z</time>
      </trkpt>
      <trkpt lat="47.8889" lon="6.83489">
        <ele>878</ele>
        <time>2022-09-12T09:08:55Z</time>
      </trkpt>
      <trkpt lat="47.8889" lon="6.83491">
        <ele>878</ele>
        <time>2022-09-12T09:08:56Z</time>
      </trkpt>
      <trkpt lat="47.8889" lon="6.83493">
        <ele>877</ele>
        <time>2022-09-12T09:08:57Z</time>
      </trkpt>
      <trkpt lat="47.8889" lon="6.83495">
        <ele>877</ele>
        <time>2022-09-12T09:08:58Z</time>
      </trkpt>
      <trkpt lat="47.8889" lon="6.83497">
        <ele>877</ele>
        <time>2022-09-12T09:08:59Z</time>
      </trkpt>
      <trkpt lat="47.8889" lon="6.83498">
        <ele>877</ele>
        <time>2022-09-12T09:09:00Z</time>
      </trkpt>
      <trkpt lat="47.8889" lon="6.835">
        <ele>877</ele>
        <time>2022-09-12T09:09:01Z</time>
      </trkpt>
      <trkpt lat="47.88891" lon="6.83502">
        <ele>877</ele>
        <time>2022-09-12T09:09:02Z</time>
      </trkpt>
      <trkpt lat="47.88891" lon="6.83504">
        <ele>877</ele>
        <time>2022-09-12T09:09:03Z</time>
      </trkpt>
      <trkpt lat="47.88891" lon="6.83505">
        <ele>877</ele>
        <time>2022-09-12T09:09:04Z</time>
      </trkpt>
      <trkpt lat="47.88891" lon="6.83507">
        <ele>877</ele>
        <time>2022-09-12T09:09:05Z</time>
      </trkpt>
      <trkpt lat="47.88892" lon="6.83508">
        <ele>877</ele>
        <time>2022-09-12T09:09:06Z</time>
      </trkpt>
      <trkpt lat="47.88892" lon="6.8351">
        <ele>877</ele>
        <time>2022-09-12T09:09:07Z</time>
      </trkpt>
      <trkpt lat="47.88892" lon="6.83511">
        <ele>877</ele>
        <time>2022-09-12T09:09:08Z</time>
      </trkpt>
      <trkpt lat="47.88892" lon="6.83513">
        <ele>877</ele>
        <time>2022-09-12T09:09:09Z</time>
      </trkpt>
      <trkpt lat="47.88893" lon="6.83515">
        <ele>877</ele>
        <time>2022-09-12T09:09:10Z</time>
      </trkpt>
      <trkpt lat="47.88893" lon="6.83516">
        <ele>877</ele>
        <time>2022-09-12T09:09:11Z</time>
      </trkpt>
      <trkpt lat="47.88893" lon="6.83518">
        <ele>877</ele>
        <time>2022-09-12T09:09:12Z</time>
      </trkpt>
      <trkpt lat="47.88893" lon="6.83519">
        <ele>877</ele>
        <time>2022-09-12T09:09:13Z</time>
      </trkpt>
      <trkpt lat="47.88894" lon="6.83521">
        <ele>877</ele>
        <time>2022-09-12T09:09:14Z</time>
      </trkpt>
      <trkpt lat="47.88894" lon="6.83522">
        <ele>877</ele>
        <time>2022-09-12T09:09:15Z</time>
      </trkpt>
      <trkpt lat="47.88894" lon="6.83523">
        <ele>877</ele>
        <time>2022-09-12T09:09:16Z</time>
      </trkpt>
      <trkpt lat="47.88894" lon="6.83525">
        <ele>877</ele>
        <time>2022-09-12T09:09:17Z</time>
      </trkpt>
      <trkpt lat="47.88894" lon="6.83526">
        <ele>877</ele>
        <time>2022-09-12T09:09:18Z</time>
      </trkpt>
      <trkpt lat="47.88894" lon="6.83528">
        <ele>877</ele>
        <time>2022-09-12T09:09:19Z</time>
      </trkpt>
      <trkpt lat="47.88894" lon="6.83529">
        <ele>877</ele>
        <time>2022-09-12T09:09:20Z</time>
      </trkpt>
      <trkpt lat="47.88894" lon="6.83531">
        <ele>877</ele>
        <time>2022-09-12T09:09:21Z</time>
      </trkpt>
      <trkpt lat="47.88895" lon="6.83532">
        <ele>877</ele>
        <time>2022-09-12T09:09:22Z</time>
      </trkpt>
      <trkpt lat="47.88895" lon="6.83534">
        <ele>877</ele>
        <time>2022-09-12T09:09:23Z</time>
      </trkpt>
      <trkpt lat="47.88895" lon="6.83535">
        <ele>877</ele>
        <time>2022-09-12T09:09:24Z</time>
      </trkpt>
      <trkpt lat="47.88896" lon="6.83537">
        <ele>877</ele>
        <time>2022-09-12T09:09:25Z</time>
      </trkpt>
      <trkpt lat="47.88896" lon="6.83538">
        <ele>877</ele>
        <time>2022-09-12T09:09:26Z</time>
      </trkpt>
      <trkpt lat="47.88896" lon="6.83539">
        <ele>877</ele>
        <time>2022-09-12T09:09:27Z</time>
      </trkpt>
      <trkpt lat="47.88897" lon="6.83541">
        <ele>877</ele>
        <time>2022-09-12T09:09:28Z</time>
      </trkpt>
      <trkpt lat="47.88897" lon="6.83542">
        <ele>877</ele>
        <time>2022-09-12T09:09:29Z</time>
      </trkpt>
      <trkpt lat="47.88898" lon="6.83543">
        <ele>877</ele>
        <time>2022-09-12T09:09:30Z</time>
      </trkpt>
      <trkpt lat="47.88898" lon="6.83545">
        <ele>877</ele>
        <time>2022-09-12T09:09:31Z</time>
      </trkpt>
      <trkpt lat="47.88899" lon="6.83546">
        <ele>877</ele>
        <time>2022-09-12T09:09:32Z</time>
      </trkpt>
      <trkpt lat="47.88899" lon="6.83547">
        <ele>877</ele>
        <time>2022-09-12T09:09:33Z</time>
      </trkpt>
      <trkpt lat="47.889" lon="6.83548">
        <ele>877</ele>
        <time>2022-09-12T09:09:34Z</time>
      </trkpt>
      <trkpt lat="47.889" lon="6.8355">
        <ele>877</ele>
        <time>2022-09-12T09:09:35Z</time>
      </trkpt>
      <trkpt lat="47.88901" lon="6.83551">
        <ele>877</ele>
        <time>2022-09-12T09:09:36Z</time>
      </trkpt>
      <trkpt lat="47.88901" lon="6.83553">
        <ele>877</ele>
        <time>2022-09-12T09:09:37Z</time>
      </trkpt>
      <trkpt lat="47.88902" lon="6.83555">
        <ele>877</ele>
        <time>2022-09-12T09:09:38Z</time>
      </trkpt>
      <trkpt lat="47.88902" lon="6.83556">
        <ele>877</ele>
        <time>2022-09-12T09:09:39Z</time>
      </trkpt>
      <trkpt lat="47.88903" lon="6.83558">
        <ele>877</ele>
        <time>2022-09-12T09:09:40Z</time>
      </trkpt>
      <trkpt lat="47.88903" lon="6.8356">
        <ele>877</ele>
        <time>2022-09-12T09:09:41Z</time>
      </trkpt>
      <trkpt lat="47.88903" lon="6.83561">
        <ele>877</ele>
        <time>2022-09-12T09:09:42Z</time>
      </trkpt>
      <trkpt lat="47.88903" lon="6.83563">
        <ele>877</ele>
        <time>2022-09-12T09:09:43Z</time>
      </trkpt>
      <trkpt lat="47.88903" lon="6.83565">
        <ele>877</ele>
        <time>2022-09-12T09:09:44Z</time>
      </trkpt>
      <trkpt lat="47.88903" lon="6.83567">
        <ele>877</ele>
        <time>2022-09-12T09:09:45Z</time>
      </trkpt>
      <trkpt lat="47.88903" lon="6.83568">
        <ele>877</ele>
        <time>2022-09-12T09:09:46Z</time>
      </trkpt>
      <trkpt lat="47.88903" lon="6.8357">
        <ele>877</ele>
        <time>2022-09-12T09:09:47Z</time>
      </trkpt>
      <trkpt lat="47.88903" lon="6.83572">
        <ele>877</ele>
        <time>2022-09-12T09:09:48Z</time>
      </trkpt>
      <trkpt lat="47.88903" lon="6.83574">
        <ele>877</ele>
        <time>2022-09-12T09:09:49Z</time>
      </trkpt>
      <trkpt lat="47.88903" lon="6.83576">
        <ele>877</ele>
        <time>2022-09-12T09:09:50Z</time>
      </trkpt>
      <trkpt lat="47.88903" lon="6.83578">
        <ele>877</ele>
        <time>2022-09-12T09:09:51Z</time>
      </trkpt>
      <trkpt lat="47.88903" lon="6.83579">
        <ele>877</ele>
        <time>2022-09-12T09:09:52Z</time>
      </trkpt>
      <trkpt lat="47.88904" lon="6.83581">
        <ele>877</ele>
        <time>2022-09-12T09:09:53Z</time>
      </trkpt>
      <trkpt lat="47.88904" lon="6.83582">
        <ele>877</ele>
        <time>2022-09-12T09:09:54Z</time>
      </trkpt>
      <trkpt lat="47.88904" lon="6.83584">
        <ele>877</ele>
        <time>2022-09-12T09:09:55Z</time>
      </trkpt>
      <trkpt lat="47.88904" lon="6.83585">
        <ele>877</ele>
        <time>2022-09-12T09:09:56Z</time>
      </trkpt>
      <trkpt lat="47.88904" lon="6.83587">
        <ele>877</ele>
        <time>2022-09-12T09:09:57Z</time>
      </trkpt>
      <trkpt lat="47.88904" lon="6.83588">
        <ele>877</ele>
        <time>2022-09-12T09:09:58Z</time>
      </trkpt>
      <trkpt lat="47.88904" lon="6.8359">
        <ele>877</ele>
        <time>2022-09-12T09:09:59Z</time>
      </trkpt>
      <trkpt lat="47.88905" lon="6.83591">
        <ele>877</ele>
        <time>2022-09-12T09:10:00Z</time>
      </trkpt>
      <trkpt lat="47.88905" lon="6.83593">
        <ele>877</ele>
        <time>2022-09-12T09:10:01Z</time>
      </trkpt>
      <trkpt lat="47.88905" lon="6.83595">
        <ele>877</ele>
        <time>2022-09-12T09:10:02Z</time>
      </trkpt>
      <trkpt lat="47.88905" lon="6.83596">
        <ele>877</ele>
        <time>2022-09-12T09:10:03Z</time>
      </trkpt>
      <trkpt lat="47.88905" lon="6.83597">
        <ele>877</ele>
        <time>2022-09-12T09:10:04Z</time>
      </trkpt>
      <trkpt lat="47.88906" lon="6.83599">
        <ele>877</ele>
        <time>2022-09-12T09:10:05Z</time>
      </trkpt>
      <trkpt lat="47.88906" lon="6.836">
        <ele>877</ele>
        <time>2022-09-12T09:10:06Z</time>
      </trkpt>
      <trkpt lat="47.88906" lon="6.83601">
        <ele>877</ele>
        <time>2022-09-12T09:10:07Z</time>
      </trkpt>
      <trkpt lat="47.88907" lon="6.83603">
        <ele>877</ele>
        <time>2022-09-12T09:10:08Z</time>
      </trkpt>
      <trkpt lat="47.88907" lon="6.83604">
        <ele>877</ele>
        <time>2022-09-12T09:10:09Z</time>
      </trkpt>
      <trkpt lat="47.88908" lon="6.83606">
        <ele>877</ele>
        <time>2022-09-12T09:10:10Z</time>
      </trkpt>
      <trkpt lat="47.88908" lon="6.83607">
        <ele>877</ele>
        <time>2022-09-12T09:10:11Z</time>
      </trkpt>
      <trkpt lat="47.88909" lon="6.83608">
        <ele>877</ele>
        <time>2022-09-12T09:10:12Z</time>
      </trkpt>
      <trkpt lat="47.88909" lon="6.83609">
        <ele>877</ele>
        <time>2022-09-12T09:10:13Z</time>
      </trkpt>
      <trkpt lat="47.88909" lon="6.83611">
        <ele>877</ele>
        <time>2022-09-12T09:10:14Z</time>
      </trkpt>
      <trkpt lat="47.8891" lon="6.83612">
        <ele>877</ele>
        <time>2022-09-12T09:10:15Z</time>
      </trkpt>
      <trkpt lat="47.8891" lon="6.83613">
        <ele>877</ele>
        <time>2022-09-12T09:10:16Z</time>
      </trkpt>
      <trkpt lat="47.88911" lon="6.83615">
        <ele>877</ele>
        <time>2022-09-12T09:10:17Z</time>
      </trkpt>
      <trkpt lat="47.88911" lon="6.83616">
        <ele>877</ele>
        <time>2022-09-12T09:10:18Z</time>
      </trkpt>
      <trkpt lat="47.88911" lon="6.83618">
        <ele>877</ele>
        <time>2022-09-12T09:10:19Z</time>
      </trkpt>
      <trkpt lat="47.88911" lon="6.83619">
        <ele>877</ele>
        <time>2022-09-12T09:10:20Z</time>
      </trkpt>
      <trkpt lat="47.88911" lon="6.83621">
        <ele>877</ele>
        <time>2022-09-12T09:10:21Z</time>
      </trkpt>
      <trkpt lat="47.88912" lon="6.83623">
        <ele>877</ele>
        <time>2022-09-12T09:10:22Z</time>
      </trkpt>
      <trkpt lat="47.88912" lon="6.83624">
        <ele>877</ele>
        <time>2022-09-12T09:10:23Z</time>
      </trkpt>
      <trkpt lat="47.88912" lon="6.83626">
        <ele>877</ele>
        <time>2022-09-12T09:10:24Z</time>
      </trkpt>
      <trkpt lat="47.88912" lon="6.83628">
        <ele>877</ele>
        <time>2022-09-12T09:10:25Z</time>
      </trkpt>
      <trkpt lat="47.88912" lon="6.83629">
        <ele>877</ele>
        <time>2022-09-12T09:10:26Z</time>
      </trkpt>
      <trkpt lat="47.88912" lon="6.83631">
        <ele>877</ele>
        <time>2022-09-12T09:10:27Z</time>
      </trkpt>
      <trkpt lat="47.88912" lon="6.83633">
        <ele>877</ele>
        <time>2022-09-12T09:10:28Z</time>
      </trkpt>
      <trkpt lat="47.88912" lon="6.83635">
        <ele>877</ele>
        <time>2022-09-12T09:10:29Z</time>
      </trkpt>
      <trkpt lat="47.88913" lon="6.83636">
        <ele>877</ele>
        <time>2022-09-12T09:10:30Z</time>
      </trkpt>
      <trkpt lat="47.88913" lon="6.83638">
        <ele>877</ele>
        <time>2022-09-12T09:10:31Z</time>
      </trkpt>
      <trkpt lat="47.88913" lon="6.8364">
        <ele>877</ele>
        <time>2022-09-12T09:10:32Z</time>
      </trkpt>
      <trkpt lat="47.88913" lon="6.83641">
        <ele>877</ele>
        <time>2022-09-12T09:10:33Z</time>
      </trkpt>
      <trkpt lat="47.88914" lon="6.83643">
        <ele>877</ele>
        <time>2022-09-12T09:10:34Z</time>
      </trkpt>
      <trkpt lat="47.88914" lon="6.83645">
        <ele>877</ele>
        <time>2022-09-12T09:10:35Z</time>
      </trkpt>
      <trkpt lat="47.88915" lon="6.83647">
        <ele>877</ele>
        <time>2022-09-12T09:10:36Z</time>
      </trkpt>
      <trkpt lat="47.88915" lon="6.83649">
        <ele>877</ele>
        <time>2022-09-12T09:10:37Z</time>
      </trkpt>
      <trkpt lat="47.88916" lon="6.83651">
        <ele>877</ele>
        <time>2022-09-12T09:10:38Z</time>
      </trkpt>
      <trkpt lat="47.88916" lon="6.83652">
        <ele>877</ele>
        <time>2022-09-12T09:10:39Z</time>
      </trkpt>
      <trkpt lat="47.88916" lon="6.83654">
        <ele>877</ele>
        <time>2022-09-12T09:10:40Z</time>
      </trkpt>
      <trkpt lat="47.88916" lon="6.83656">
        <ele>877</ele>
        <time>2022-09-12T09:10:41Z</time>
      </trkpt>
      <trkpt lat="47.88915" lon="6.83657">
        <ele>877</ele>
        <time>2022-09-12T09:10:42Z</time>
      </trkpt>
      <trkpt lat="47.88915" lon="6.83659">
        <ele>877</ele>
        <time>2022-09-12T09:10:43Z</time>
      </trkpt>
      <trkpt lat="47.88915" lon="6.8366">
        <ele>877</ele>
        <time>2022-09-12T09:10:44Z</time>
      </trkpt>
      <trkpt lat="47.88915" lon="6.83662">
        <ele>877</ele>
        <time>2022-09-12T09:10:45Z</time>
      </trkpt>
      <trkpt lat="47.88915" lon="6.83663">
        <ele>877</ele>
        <time>2022-09-12T09:10:46Z</time>
      </trkpt>
      <trkpt lat="47.88915" lon="6.83665">
        <ele>877</ele>
        <time>2022-09-12T09:10:47Z</time>
      </trkpt>
      <trkpt lat="47.88916" lon="6.83667">
        <ele>877</ele>
        <time>2022-09-12T09:10:48Z</time>
      </trkpt>
      <trkpt lat="47.88916" lon="6.83668">
        <ele>877</ele>
        <time>2022-09-12T09:10:49Z</time>
      </trkpt>
      <trkpt lat="47.88916" lon="6.8367">
        <ele>877</ele>
        <time>2022-09-12T09:10:50Z</time>
      </trkpt>
      <trkpt lat="47.88917" lon="6.83671">
        <ele>877</ele>
        <time>2022-09-12T09:10:51Z</time>
      </trkpt>
      <trkpt lat="47.88917" lon="6.83673">
        <ele>877</ele>
        <time>2022-09-12T09:10:52Z</time>
      </trkpt>
      <trkpt lat="47.88917" lon="6.83674">
        <ele>877</ele>
        <time>2022-09-12T09:10:53Z</time>
      </trkpt>
      <trkpt lat="47.88918" lon="6.83676">
        <ele>877</ele>
        <time>2022-09-12T09:10:54Z</time>
      </trkpt>
      <trkpt lat="47.88918" lon="6.83678">
        <ele>877</ele>
        <time>2022-09-12T09:10:55Z</time>
      </trkpt>
      <trkpt lat="47.88919" lon="6.8368">
        <ele>877</ele>
        <time>2022-09-12T09:10:56Z</time>
      </trkpt>
      <trkpt lat="47.88919" lon="6.83681">
        <ele>877</ele>
        <time>2022-09-12T09:10:57Z</time>
      </trkpt>
      <trkpt lat="47.88919" lon="6.83683">
        <ele>877</ele>
        <time>2022-09-12T09:10:58Z</time>
      </trkpt>
      <trkpt lat="47.88919" lon="6.83684">
        <ele>877</ele>
        <time>2022-09-12T09:10:59Z</time>
      </trkpt>
      <trkpt lat="47.88919" lon="6.83686">
        <ele>877</ele>
        <time>2022-09-12T09:11:00Z</time>
      </trkpt>
      <trkpt lat="47.88919" lon="6.83687">
        <ele>877</ele>
        <time>2022-09-12T09:11:01Z</time>
      </trkpt>
      <trkpt lat="47.8892" lon="6.83688">
        <ele>877</ele>
        <time>2022-09-12T09:11:02Z</time>
      </trkpt>
      <trkpt lat="47.88919" lon="6.8369">
        <ele>877</ele>
        <time>2022-09-12T09:11:03Z</time>
      </trkpt>
      <trkpt lat="47.88919" lon="6.83691">
        <ele>877</ele>
        <time>2022-09-12T09:11:04Z</time>
      </trkpt>
      <trkpt lat="47.88919" lon="6.83693">
        <ele>877</ele>
        <time>2022-09-12T09:11:05Z</time>
      </trkpt>
      <trkpt lat="47.88919" lon="6.83695">
        <ele>877</ele>
        <time>2022-09-12T09:11:06Z</time>
      </trkpt>
      <trkpt lat="47.88919" lon="6.83696">
        <ele>877</ele>
        <time>2022-09-12T09:11:07Z</time>
      </trkpt>
      <trkpt lat="47.8892" lon="6.83698">
        <ele>877</ele>
        <time>2022-09-12T09:11:08Z</time>
      </trkpt>
      <trkpt lat="47.8892" lon="6.837">
        <ele>877</ele>
        <time>2022-09-12T09:11:09Z</time>
      </trkpt>
      <trkpt lat="47.88921" lon="6.83701">
        <ele>877</ele>
        <time>2022-09-12T09:11:10Z</time>
      </trkpt>
      <trkpt lat="47.88921" lon="6.83703">
        <ele>877</ele>
        <time>2022-09-12T09:11:11Z</time>
      </trkpt>
      <trkpt lat="47.88921" lon="6.83705">
        <ele>877</ele>
        <time>2022-09-12T09:11:12Z</time>
      </trkpt>
      <trkpt lat="47.88921" lon="6.83707">
        <ele>877</ele>
        <time>2022-09-12T09:11:13Z</time>
      </trkpt>
      <trkpt lat="47.88922" lon="6.83709">
        <ele>877</ele>
        <time>2022-09-12T09:11:14Z</time>
      </trkpt>
      <trkpt lat="47.88922" lon="6.83711">
        <ele>877</ele>
        <time>2022-09-12T09:11:15Z</time>
      </trkpt>
      <trkpt lat="47.88922" lon="6.83713">
        <ele>878</ele>
        <time>2022-09-12T09:11:16Z</time>
      </trkpt>
      <trkpt lat="47.88923" lon="6.83715">
        <ele>878</ele>
        <time>2022-09-12T09:11:17Z</time>
      </trkpt>
      <trkpt lat="47.88923" lon="6.83716">
        <ele>878</ele>
        <time>2022-09-12T09:11:18Z</time>
      </trkpt>
      <trkpt lat="47.88924" lon="6.83718">
        <ele>878</ele>
        <time>2022-09-12T09:11:19Z</time>
      </trkpt>
      <trkpt lat="47.88924" lon="6.8372">
        <ele>878</ele>
        <time>2022-09-12T09:11:20Z</time>
      </trkpt>
      <trkpt lat="47.88924" lon="6.83721">
        <ele>878</ele>
        <time>2022-09-12T09:11:21Z</time>
      </trkpt>
      <trkpt lat="47.88925" lon="6.83723">
        <ele>878</ele>
        <time>2022-09-12T09:11:22Z</time>
      </trkpt>
      <trkpt lat="47.88925" lon="6.83725">
        <ele>878</ele>
        <time>2022-09-12T09:11:23Z</time>
      </trkpt>
      <trkpt lat="47.88925" lon="6.83727">
        <ele>878</ele>
        <time>2022-09-12T09:11:24Z</time>
      </trkpt>
      <trkpt lat="47.88925" lon="6.83728">
        <ele>878</ele>
        <time>2022-09-12T09:11:25Z</time>
      </trkpt>
      <trkpt lat="47.88925" lon="6.8373">
        <ele>878</ele>
        <time>2022-09-12T09:11:26Z</time>
      </trkpt>
      <trkpt lat="47.88925" lon="6.83732">
        <ele>878</ele>
        <time>2022-09-12T09:11:27Z</time>
      </trkpt>
      <trkpt lat="47.88926" lon="6.83733">
        <ele>878</ele>
        <time>2022-09-12T09:11:28Z</time>
      </trkpt>
      <trkpt lat="47.88926" lon="6.83735">
        <ele>878</ele>
        <time>2022-09-12T09:11:29Z</time>
      </trkpt>
      <trkpt lat="47.88926" lon="6.83736">
        <ele>878</ele>
        <time>2022-09-12T09:11:30Z</time>
      </trkpt>
      <trkpt lat="47.88926" lon="6.83738">
        <ele>878</ele>
        <time>2022-09-12T09:11:31Z</time>
      </trkpt>
      <trkpt lat="47.88926" lon="6.8374">
        <ele>878</ele>
        <time>2022-09-12T09:11:32Z</time>
      </trkpt>
      <trkpt lat="47.88926" lon="6.83741">
        <ele>878</ele>
        <time>2022-09-12T09:11:33Z</time>
      </trkpt>
      <trkpt lat="47.88926" lon="6.83743">
        <ele>878</ele>
        <time>2022-09-12T09:11:34Z</time>
      </trkpt>
      <trkpt lat="47.88926" lon="6.83744">
        <ele>878</ele>
        <time>2022-09-12T09:11:35Z</time>
      </trkpt>
      <trkpt lat="47.88926" lon="6.83746">
        <ele>879</ele>
        <time>2022-09-12T09:11:36Z</time>
      </trkpt>
      <trkpt lat="47.88926" lon="6.83747">
        <ele>879</ele>
        <time>2022-09-12T09:11:37Z</time>
      </trkpt>
      <trkpt lat="47.88927" lon="6.83749">
        <ele>879</ele>
        <time>2022-09-12T09:11:38Z</time>
      </trkpt>
      <trkpt lat="47.88927" lon="6.83751">
        <ele>879</ele>
        <time>2022-09-12T09:11:39Z</time>
      </trkpt>
      <trkpt lat="47.88927" lon="6.83753">
        <ele>879</ele>
        <time>2022-09-12T09:11:40Z</time>
      </trkpt>
      <trkpt lat="47.88928" lon="6.83754">
        <ele>879</ele>
        <time>2022-09-12T09:11:41Z</time>
      </trkpt>
      <trkpt lat="47.88929" lon="6.83755">
        <ele>879</ele>
        <time>2022-09-12T09:11:42Z</time>
      </trkpt>
      <trkpt lat="47.88929" lon="6.83757">
        <ele>879</ele>
        <time>2022-09-12T09:11:43Z</time>
      </trkpt>
      <trkpt lat="47.8893" lon="6.83758">
        <ele>879</ele>
        <time>2022-09-12T09:11:44Z</time>
      </trkpt>
      <trkpt lat="47.88931" lon="6.83759">
        <ele>879</ele>
        <time>2022-09-12T09:11:45Z</time>
      </trkpt>
      <trkpt lat="47.88932" lon="6.8376">
        <ele>879</ele>
        <time>2022-09-12T09:11:46Z</time>
      </trkpt>
      <trkpt lat="47.88932" lon="6.83762">
        <ele>879</ele>
        <time>2022-09-12T09:11:47Z</time>
      </trkpt>
      <trkpt lat="47.88932" lon="6.83763">
        <ele>879</ele>
        <time>2022-09-12T09:11:48Z</time>
      </trkpt>
      <trkpt lat="47.88933" lon="6.83765">
        <ele>879</ele>
        <time>2022-09-12T09:11:49Z</time>
      </trkpt>
      <trkpt lat="47.88933" lon="6.83766">
        <ele>879</ele>
        <time>2022-09-12T09:11:50Z</time>
      </trkpt>
      <trkpt lat="47.88933" lon="6.83768">
        <ele>879</ele>
        <time>2022-09-12T09:11:51Z</time>
      </trkpt>
      <trkpt lat="47.88933" lon="6.83769">
        <ele>879</ele>
        <time>2022-09-12T09:11:52Z</time>
      </trkpt>
      <trkpt lat="47.88933" lon="6.83771">
        <ele>879</ele>
        <time>2022-09-12T09:11:53Z</time>
      </trkpt>
      <trkpt lat="47.88933" lon="6.83773">
        <ele>879</ele>
        <time>2022-09-12T09:11:54Z</time>
      </trkpt>
      <trkpt lat="47.88933" lon="6.83775">
        <ele>879</ele>
        <time>2022-09-12T09:11:55Z</time>
      </trkpt>
      <trkpt lat="47.88933" lon="6.83777">
        <ele>879</ele>
        <time>2022-09-12T09:11:56Z</time>
      </trkpt>
      <trkpt lat="47.88933" lon="6.83778">
        <ele>879</ele>
        <time>2022-09-12T09:11:57Z</time>
      </trkpt>
      <trkpt lat="47.88933" lon="6.8378">
        <ele>879</ele>
        <time>2022-09-12T09:11:58Z</time>
      </trkpt>
      <trkpt lat="47.88933" lon="6.83782">
        <ele>879</ele>
        <time>2022-09-12T09:11:59Z</time>
      </trkpt>
      <trkpt lat="47.88933" lon="6.83783">
        <ele>879</ele>
        <time>2022-09-12T09:12:00Z</time>
      </trkpt>
      <trkpt lat="47.88933" lon="6.83785">
        <ele>879</ele>
        <time>2022-09-12T09:12:01Z</time>
      </trkpt>
      <trkpt lat="47.88934" lon="6.83786">
        <ele>879</ele>
        <time>2022-09-12T09:12:02Z</time>
      </trkpt>
      <trkpt lat="47.88934" lon="6.83787">
        <ele>879</ele>
        <time>2022-09-12T09:12:03Z</time>
      </trkpt>
      <trkpt lat="47.88935" lon="6.83788">
        <ele>879</ele>
        <time>2022-09-12T09:12:04Z</time>
      </trkpt>
      <trkpt lat="47.88935" lon="6.83789">
        <ele>879</ele>
        <time>2022-09-12T09:12:05Z</time>
      </trkpt>
      <trkpt lat="47.88935" lon="6.83791">
        <ele>879</ele>
        <time>2022-09-12T09:12:06Z</time>
      </trkpt>
      <trkpt lat="47.88935" lon="6.83792">
        <ele>879</ele>
        <time>2022-09-12T09:12:07Z</time>
      </trkpt>
      <trkpt lat="47.88936" lon="6.83794">
        <ele>879</ele>
        <time>2022-09-12T09:12:08Z</time>
      </trkpt>
      <trkpt lat="47.88936" lon="6.83795">
        <ele>879</ele>
        <time>2022-09-12T09:12:09Z</time>
      </trkpt>
      <trkpt lat="47.88936" lon="6.83797">
        <ele>879</ele>
        <time>2022-09-12T09:12:10Z</time>
      </trkpt>
      <trkpt lat="47.88937" lon="6.83798">
        <ele>879</ele>
        <time>2022-09-12T09:12:11Z</time>
      </trkpt>
      <trkpt lat="47.88937" lon="6.838">
        <ele>879</ele>
        <time>2022-09-12T09:12:12Z</time>
      </trkpt>
      <trkpt lat="47.88938" lon="6.83801">
        <ele>879</ele>
        <time>2022-09-12T09:12:13Z</time>
      </trkpt>
      <trkpt lat="47.88938" lon="6.83803">
        <ele>879</ele>
        <time>2022-09-12T09:12:14Z</time>
      </trkpt>
      <trkpt lat="47.88938" lon="6.83804">
        <ele>879</ele>
        <time>2022-09-12T09:12:15Z</time>
      </trkpt>
      <trkpt lat="47.88938" lon="6.83806">
        <ele>879</ele>
        <time>2022-09-12T09:12:16Z</time>
      </trkpt>
      <trkpt lat="47.88938" lon="6.83807">
        <ele>879</ele>
        <time>2022-09-12T09:12:17Z</time>
      </trkpt>
      <trkpt lat="47.88937" lon="6.83809">
        <ele>879</ele>
        <time>2022-09-12T09:12:18Z</time>
      </trkpt>
      <trkpt lat="47.88937" lon="6.8381">
        <ele>879</ele>
        <time>2022-09-12T09:12:19Z</time>
      </trkpt>
      <trkpt lat="47.88937" lon="6.83812">
        <ele>879</ele>
        <time>2022-09-12T09:12:20Z</time>
      </trkpt>
      <trkpt lat="47.88937" lon="6.83813">
        <ele>879</ele>
        <time>2022-09-12T09:12:21Z</time>
      </trkpt>
      <trkpt lat="47.88937" lon="6.83815">
        <ele>879</ele>
        <time>2022-09-12T09:12:22Z</time>
      </trkpt>
      <trkpt lat="47.88938" lon="6.83816">
        <ele>879</ele>
        <time>2022-09-12T09:12:23Z</time>
      </trkpt>
      <trkpt lat="47.88938" lon="6.83818">
        <ele>879</ele>
        <time>2022-09-12T09:12:24Z</time>
      </trkpt>
      <trkpt lat="47.88939" lon="6.8382">
        <ele>879</ele>
        <time>2022-09-12T09:12:25Z</time>
      </trkpt>
      <trkpt lat="47.88939" lon="6.83823">
        <ele>879</ele>
        <time>2022-09-12T09:12:26Z</time>
      </trkpt>
      <trkpt lat="47.8894" lon="6.83825">
        <ele>879</ele>
        <time>2022-09-12T09:12:27Z</time>
      </trkpt>
      <trkpt lat="47.88941" lon="6.83827">
        <ele>879</ele>
        <time>2022-09-12T09:12:28Z</time>
      </trkpt>
      <trkpt lat="47.88941" lon="6.83829">
        <ele>879</ele>
        <time>2022-09-12T09:12:29Z</time>
      </trkpt>
      <trkpt lat="47.88941" lon="6.83831">
        <ele>879</ele>
        <time>2022-09-12T09:12:30Z</time>
      </trkpt>
      <trkpt lat="47.88942" lon="6.83833">
        <ele>879</ele>
        <time>2022-09-12T09:12:31Z</time>
      </trkpt>
      <trkpt lat="47.88942" lon="6.83834">
        <ele>879</ele>
        <time>2022-09-12T09:12:32Z</time>
      </trkpt>
      <trkpt lat="47.88942" lon="6.83836">
        <ele>879</ele>
        <time>2022-09-12T09:12:33Z</time>
      </trkpt>
      <trkpt lat="47.88943" lon="6.83837">
        <ele>879</ele>
        <time>2022-09-12T09:12:34Z</time>
      </trkpt>
      <trkpt lat="47.88943" lon="6.83838">
        <ele>879</ele>
        <time>2022-09-12T09:12:35Z</time>
      </trkpt>
      <trkpt lat="47.88944" lon="6.83839">
        <ele>879</ele>
        <time>2022-09-12T09:12:36Z</time>
      </trkpt>
      <trkpt lat="47.88944" lon="6.8384">
        <ele>879</ele>
        <time>2022-09-12T09:12:37Z</time>
      </trkpt>
      <trkpt lat="47.88944" lon="6.83841">
        <ele>879</ele>
        <time>2022-09-12T09:12:38Z</time>
      </trkpt>
      <trkpt lat="47.88945" lon="6.83842">
        <ele>879</ele>
        <time>2022-09-12T09:12:39Z</time>
      </trkpt>
      <trkpt lat="47.88945" lon="6.83844">
        <ele>879</ele>
        <time>2022-09-12T09:12:40Z</time>
      </trkpt>
      <trkpt lat="47.88945" lon="6.83845">
        <ele>880</ele>
        <time>2022-09-12T09:12:41Z</time>
      </trkpt>
      <trkpt lat="47.88946" lon="6.83847">
        <ele>880</ele>
        <time>2022-09-12T09:12:42Z</time>
      </trkpt>
      <trkpt lat="47.88947" lon="6.83848">
        <ele>880</ele>
        <time>2022-09-12T09:12:43Z</time>
      </trkpt>
      <trkpt lat="47.88947" lon="6.8385">
        <ele>880</ele>
        <time>2022-09-12T09:12:44Z</time>
      </trkpt>
      <trkpt lat="47.88947" lon="6.83851">
        <ele>880</ele>
        <time>2022-09-12T09:12:45Z</time>
      </trkpt>
      <trkpt lat="47.88948" lon="6.83853">
        <ele>880</ele>
        <time>2022-09-12T09:12:46Z</time>
      </trkpt>
      <trkpt lat="47.88948" lon="6.83854">
        <ele>880</ele>
        <time>2022-09-12T09:12:47Z</time>
      </trkpt>
      <trkpt lat="47.88948" lon="6.83855">
        <ele>880</ele>
        <time>2022-09-12T09:12:48Z</time>
      </trkpt>
      <trkpt lat="47.88949" lon="6.83856">
        <ele>880</ele>
        <time>2022-09-12T09:12:49Z</time>
      </trkpt>
      <trkpt lat="47.88949" lon="6.83857">
        <ele>880</ele>
        <time>2022-09-12T09:12:50Z</time>
      </trkpt>
      <trkpt lat="47.88949" lon="6.83859">
        <ele>880</ele>
        <time>2022-09-12T09:12:51Z</time>
      </trkpt>
      <trkpt lat="47.8895" lon="6.8386">
        <ele>880</ele>
        <time>2022-09-12T09:12:52Z</time>
      </trkpt>
      <trkpt lat="47.8895" lon="6.83861">
        <ele>880</ele>
        <time>2022-09-12T09:12:53Z</time>
      </trkpt>
      <trkpt lat="47.8895" lon="6.83863">
        <ele>880</ele>
        <time>2022-09-12T09:12:54Z</time>
      </trkpt>
      <trkpt lat="47.88951" lon="6.83864">
        <ele>880</ele>
        <time>2022-09-12T09:12:55Z</time>
      </trkpt>
      <trkpt lat="47.88951" lon="6.83866">
        <ele>881</ele>
        <time>2022-09-12T09:12:56Z</time>
      </trkpt>
      <trkpt lat="47.88951" lon="6.83867">
        <ele>881</ele>
        <time>2022-09-12T09:12:57Z</time>
      </trkpt>
      <trkpt lat="47.88952" lon="6.83869">
        <ele>881</ele>
        <time>2022-09-12T09:12:58Z</time>
      </trkpt>
      <trkpt lat="47.88952" lon="6.8387">
        <ele>881</ele>
        <time>2022-09-12T09:12:59Z</time>
      </trkpt>
      <trkpt lat="47.88953" lon="6.83871">
        <ele>881</ele>
        <time>2022-09-12T09:13:00Z</time>
      </trkpt>
      <trkpt lat="47.88953" lon="6.83872">
        <ele>881</ele>
        <time>2022-09-12T09:13:01Z</time>
      </trkpt>
      <trkpt lat="47.88954" lon="6.83873">
        <ele>881</ele>
        <time>2022-09-12T09:13:02Z</time>
      </trkpt>
      <trkpt lat="47.88954" lon="6.83874">
        <ele>881</ele>
        <time>2022-09-12T09:13:03Z</time>
      </trkpt>
      <trkpt lat="47.88955" lon="6.83875">
        <ele>881</ele>
        <time>2022-09-12T09:13:04Z</time>
      </trkpt>
      <trkpt lat="47.88955" lon="6.83876">
        <ele>881</ele>
        <time>2022-09-12T09:13:05Z</time>
      </trkpt>
      <trkpt lat="47.88956" lon="6.83877">
        <ele>881</ele>
        <time>2022-09-12T09:13:06Z</time>
      </trkpt>
      <trkpt lat="47.88956" lon="6.83878">
        <ele>881</ele>
        <time>2022-09-12T09:13:07Z</time>
      </trkpt>
      <trkpt lat="47.88956" lon="6.83879">
        <ele>881</ele>
        <time>2022-09-12T09:13:08Z</time>
      </trkpt>
      <trkpt lat="47.88956" lon="6.83881">
        <ele>881</ele>
        <time>2022-09-12T09:13:09Z</time>
      </trkpt>
      <trkpt lat="47.88957" lon="6.83883">
        <ele>881</ele>
        <time>2022-09-12T09:13:10Z</time>
      </trkpt>
      <trkpt lat="47.88957" lon="6.83884">
        <ele>881</ele>
        <time>2022-09-12T09:13:11Z</time>
      </trkpt>
      <trkpt lat="47.88957" lon="6.83886">
        <ele>881</ele>
        <time>2022-09-12T09:13:12Z</time>
      </trkpt>
      <trkpt lat="47.88957" lon="6.83888">
        <ele>881</ele>
        <time>2022-09-12T09:13:13Z</time>
      </trkpt>
      <trkpt lat="47.88958" lon="6.8389">
        <ele>881</ele>
        <time>2022-09-12T09:13:14Z</time>
      </trkpt>
      <trkpt lat="47.88958" lon="6.83892">
        <ele>881</ele>
        <time>2022-09-12T09:13:15Z</time>
      </trkpt>
      <trkpt lat="47.88957" lon="6.83894">
        <ele>882</ele>
        <time>2022-09-12T09:13:16Z</time>
      </trkpt>
      <trkpt lat="47.88957" lon="6.83896">
        <ele>882</ele>
        <time>2022-09-12T09:13:17Z</time>
      </trkpt>
      <trkpt lat="47.88957" lon="6.83899">
        <ele>882</ele>
        <time>2022-09-12T09:13:18Z</time>
      </trkpt>
      <trkpt lat="47.88957" lon="6.83901">
        <ele>883</ele>
        <time>2022-09-12T09:13:19Z</time>
      </trkpt>
      <trkpt lat="47.88957" lon="6.83903">
        <ele>883</ele>
        <time>2022-09-12T09:13:20Z</time>
      </trkpt>
      <trkpt lat="47.88957" lon="6.83905">
        <ele>884</ele>
        <time>2022-09-12T09:13:21Z</time>
      </trkpt>
      <trkpt lat="47.88958" lon="6.83907">
        <ele>884</ele>
        <time>2022-09-12T09:13:22Z</time>
      </trkpt>
      <trkpt lat="47.88958" lon="6.83909">
        <ele>884</ele>
        <time>2022-09-12T09:13:23Z</time>
      </trkpt>
      <trkpt lat="47.88959" lon="6.8391">
        <ele>884</ele>
        <time>2022-09-12T09:13:24Z</time>
      </trkpt>
      <trkpt lat="47.8896" lon="6.83912">
        <ele>884</ele>
        <time>2022-09-12T09:13:25Z</time>
      </trkpt>
      <trkpt lat="47.8896" lon="6.83914">
        <ele>884</ele>
        <time>2022-09-12T09:13:26Z</time>
      </trkpt>
      <trkpt lat="47.88961" lon="6.83915">
        <ele>883</ele>
        <time>2022-09-12T09:13:27Z</time>
      </trkpt>
      <trkpt lat="47.88961" lon="6.83917">
        <ele>883</ele>
        <time>2022-09-12T09:13:28Z</time>
      </trkpt>
      <trkpt lat="47.88961" lon="6.83919">
        <ele>882</ele>
        <time>2022-09-12T09:13:29Z</time>
      </trkpt>
      <trkpt lat="47.88961" lon="6.83921">
        <ele>882</ele>
        <time>2022-09-12T09:13:30Z</time>
      </trkpt>
      <trkpt lat="47.88962" lon="6.83923">
        <ele>882</ele>
        <time>2022-09-12T09:13:31Z</time>
      </trkpt>
      <trkpt lat="47.88962" lon="6.83925">
        <ele>882</ele>
        <time>2022-09-12T09:13:32Z</time>
      </trkpt>
      <trkpt lat="47.88962" lon="6.83926">
        <ele>882</ele>
        <time>2022-09-12T09:13:33Z</time>
      </trkpt>
      <trkpt lat="47.88962" lon="6.83928">
        <ele>882</ele>
        <time>2022-09-12T09:13:34Z</time>
      </trkpt>
      <trkpt lat="47.88962" lon="6.83929">
        <ele>882</ele>
        <time>2022-09-12T09:13:35Z</time>
      </trkpt>
      <trkpt lat="47.88963" lon="6.8393">
        <ele>882</ele>
        <time>2022-09-12T09:13:36Z</time>
      </trkpt>
      <trkpt lat="47.88963" lon="6.83931">
        <ele>882</ele>
        <time>2022-09-12T09:13:37Z</time>
      </trkpt>
      <trkpt lat="47.88963" lon="6.83933">
        <ele>882</ele>
        <time>2022-09-12T09:13:38Z</time>
      </trkpt>
      <trkpt lat="47.88963" lon="6.83934">
        <ele>882</ele>
        <time>2022-09-12T09:13:39Z</time>
      </trkpt>
      <trkpt lat="47.88963" lon="6.83935">
        <ele>882</ele>
        <time>2022-09-12T09:13:40Z</time>
      </trkpt>
      <trkpt lat="47.88964" lon="6.83937">
        <ele>882</ele>
        <time>2022-09-12T09:13:41Z</time>
      </trkpt>
      <trkpt lat="47.88964" lon="6.83938">
        <ele>882</ele>
        <time>2022-09-12T09:13:42Z</time>
      </trkpt>
      <trkpt lat="47.88965" lon="6.83939">
        <ele>882</ele>
        <time>2022-09-12T09:13:43Z</time>
      </trkpt>
      <trkpt lat="47.88965" lon="6.83941">
        <ele>883</ele>
        <time>2022-09-12T09:13:44Z</time>
      </trkpt>
      <trkpt lat="47.88966" lon="6.83942">
        <ele>883</ele>
        <time>2022-09-12T09:13:45Z</time>
      </trkpt>
      <trkpt lat="47.88966" lon="6.83943">
        <ele>884</ele>
        <time>2022-09-12T09:13:46Z</time>
      </trkpt>
      <trkpt lat="47.88967" lon="6.83944">
        <ele>884</ele>
        <time>2022-09-12T09:13:47Z</time>
      </trkpt>
      <trkpt lat="47.88967" lon="6.83946">
        <ele>884</ele>
        <time>2022-09-12T09:13:48Z</time>
      </trkpt>
      <trkpt lat="47.88967" lon="6.83947">
        <ele>884</ele>
        <time>2022-09-12T09:13:49Z</time>
      </trkpt>
      <trkpt lat="47.88968" lon="6.83948">
        <ele>884</ele>
        <time>2022-09-12T09:13:50Z</time>
      </trkpt>
      <trkpt lat="47.88968" lon="6.83949">
        <ele>884</ele>
        <time>2022-09-12T09:13:51Z</time>
      </trkpt>
      <trkpt lat="47.88968" lon="6.83951">
        <ele>883</ele>
        <time>2022-09-12T09:13:52Z</time>
      </trkpt>
      <trkpt lat="47.88968" lon="6.83952">
        <ele>883</ele>
        <time>2022-09-12T09:13:53Z</time>
      </trkpt>
      <trkpt lat="47.88968" lon="6.83954">
        <ele>882</ele>
        <time>2022-09-12T09:13:54Z</time>
      </trkpt>
      <trkpt lat="47.88968" lon="6.83955">
        <ele>882</ele>
        <time>2022-09-12T09:13:55Z</time>
      </trkpt>
      <trkpt lat="47.88968" lon="6.83957">
        <ele>882</ele>
        <time>2022-09-12T09:13:56Z</time>
      </trkpt>
      <trkpt lat="47.88969" lon="6.83959">
        <ele>882</ele>
        <time>2022-09-12T09:13:57Z</time>
      </trkpt>
      <trkpt lat="47.88969" lon="6.8396">
        <ele>882</ele>
        <time>2022-09-12T09:13:58Z</time>
      </trkpt>
      <trkpt lat="47.88969" lon="6.83962">
        <ele>882</ele>
        <time>2022-09-12T09:13:59Z</time>
      </trkpt>
      <trkpt lat="47.88969" lon="6.83964">
        <ele>882</ele>
        <time>2022-09-12T09:14:00Z</time>
      </trkpt>
      <trkpt lat="47.88969" lon="6.83965">
        <ele>882</ele>
        <time>2022-09-12T09:14:01Z</time>
      </trkpt>
      <trkpt lat="47.8897" lon="6.83967">
        <ele>882</ele>
        <time>2022-09-12T09:14:02Z</time>
      </trkpt>
      <trkpt lat="47.8897" lon="6.83968">
        <ele>882</ele>
        <time>2022-09-12T09:14:03Z</time>
      </trkpt>
      <trkpt lat="47.88971" lon="6.8397">
        <ele>882</ele>
        <time>2022-09-12T09:14:04Z</time>
      </trkpt>
      <trkpt lat="47.88971" lon="6.83971">
        <ele>882</ele>
        <time>2022-09-12T09:14:05Z</time>
      </trkpt>
      <trkpt lat="47.88971" lon="6.83973">
        <ele>882</ele>
        <time>2022-09-12T09:14:06Z</time>
      </trkpt>
      <trkpt lat="47.88972" lon="6.83974">
        <ele>882</ele>
        <time>2022-09-12T09:14:07Z</time>
      </trkpt>
      <trkpt lat="47.88972" lon="6.83976">
        <ele>882</ele>
        <time>2022-09-12T09:14:08Z</time>
      </trkpt>
      <trkpt lat="47.88972" lon="6.83977">
        <ele>882</ele>
        <time>2022-09-12T09:14:09Z</time>
      </trkpt>
      <trkpt lat="47.88973" lon="6.83979">
        <ele>882</ele>
        <time>2022-09-12T09:14:10Z</time>
      </trkpt>
      <trkpt lat="47.88973" lon="6.8398">
        <ele>882</ele>
        <time>2022-09-12T09:14:11Z</time>
      </trkpt>
      <trkpt lat="47.88974" lon="6.83982">
        <ele>881</ele>
        <time>2022-09-12T09:14:12Z</time>
      </trkpt>
      <trkpt lat="47.88974" lon="6.83983">
        <ele>881</ele>
        <time>2022-09-12T09:14:13Z</time>
      </trkpt>
      <trkpt lat="47.88974" lon="6.83984">
        <ele>881</ele>
        <time>2022-09-12T09:14:14Z</time>
      </trkpt>
      <trkpt lat="47.88975" lon="6.83986">
        <ele>881</ele>
        <time>2022-09-12T09:14:21Z</time>
      </trkpt>
      <trkpt lat="47.88975" lon="6.83987">
        <ele>881</ele>
        <time>2022-09-12T09:14:22Z</time>
      </trkpt>
      <trkpt lat="47.88975" lon="6.83988">
        <ele>881</ele>
        <time>2022-09-12T09:14:23Z</time>
      </trkpt>
      <trkpt lat="47.88975" lon="6.83989">
        <ele>881</ele>
        <time>2022-09-12T09:14:24Z</time>
      </trkpt>
      <trkpt lat="47.88975" lon="6.8399">
        <ele>881</ele>
        <time>2022-09-12T09:14:25Z</time>
      </trkpt>
      <trkpt lat="47.88976" lon="6.83991">
        <ele>881</ele>
        <time>2022-09-12T09:14:26Z</time>
      </trkpt>
      <trkpt lat="47.88976" lon="6.83993">
        <ele>881</ele>
        <time>2022-09-12T09:14:27Z</time>
      </trkpt>
      <trkpt lat="47.88976" lon="6.83995">
        <ele>881</ele>
        <time>2022-09-12T09:14:28Z</time>
      </trkpt>
      <trkpt lat="47.88977" lon="6.83996">
        <ele>881</ele>
        <time>2022-09-12T09:14:29Z</time>
      </trkpt>
      <trkpt lat="47.88977" lon="6.83998">
        <ele>881</ele>
        <time>2022-09-12T09:14:30Z</time>
      </trkpt>
      <trkpt lat="47.88977" lon="6.84">
        <ele>882</ele>
        <time>2022-09-12T09:14:31Z</time>
      </trkpt>
      <trkpt lat="47.88977" lon="6.84002">
        <ele>882</ele>
        <time>2022-09-12T09:14:32Z</time>
      </trkpt>
      <trkpt lat="47.88977" lon="6.84003">
        <ele>882</ele>
        <time>2022-09-12T09:14:33Z</time>
      </trkpt>
      <trkpt lat="47.88977" lon="6.84005">
        <ele>882</ele>
        <time>2022-09-12T09:14:34Z</time>
      </trkpt>
      <trkpt lat="47.88977" lon="6.84006">
        <ele>882</ele>
        <time>2022-09-12T09:14:35Z</time>
      </trkpt>
      <trkpt lat="47.88977" lon="6.84008">
        <ele>882</ele>
        <time>2022-09-12T09:14:36Z</time>
      </trkpt>
      <trkpt lat="47.88977" lon="6.84009">
        <ele>882</ele>
        <time>2022-09-12T09:14:37Z</time>
      </trkpt>
      <trkpt lat="47.88977" lon="6.8401">
        <ele>882</ele>
        <time>2022-09-12T09:14:38Z</time>
      </trkpt>
      <trkpt lat="47.88977" lon="6.84011">
        <ele>882</ele>
        <time>2022-09-12T09:14:39Z</time>
      </trkpt>
      <trkpt lat="47.88977" lon="6.84012">
        <ele>882</ele>
        <time>2022-09-12T09:14:40Z</time>
      </trkpt>
      <trkpt lat="47.88977" lon="6.84014">
        <ele>882</ele>
        <time>2022-09-12T09:14:41Z</time>
      </trkpt>
      <trkpt lat="47.88977" lon="6.84016">
        <ele>882</ele>
        <time>2022-09-12T09:14:49Z</time>
      </trkpt>
      <trkpt lat="47.88977" lon="6.84017">
        <ele>882</ele>
        <time>2022-09-12T09:14:50Z</time>
      </trkpt>
      <trkpt lat="47.88977" lon="6.84018">
        <ele>882</ele>
        <time>2022-09-12T09:14:51Z</time>
      </trkpt>
      <trkpt lat="47.88977" lon="6.84019">
        <ele>882</ele>
        <time>2022-09-12T09:14:52Z</time>
      </trkpt>
      <trkpt lat="47.88977" lon="6.8402">
        <ele>882</ele>
        <time>2022-09-12T09:14:53Z</time>
      </trkpt>
      <trkpt lat="47.88977" lon="6.84021">
        <ele>882</ele>
        <time>2022-09-12T09:14:54Z</time>
      </trkpt>
      <trkpt lat="47.88977" lon="6.84022">
        <ele>882</ele>
        <time>2022-09-12T09:14:55Z</time>
      </trkpt>
      <trkpt lat="47.88977" lon="6.84023">
        <ele>882</ele>
        <time>2022-09-12T09:14:56Z</time>
      </trkpt>
      <trkpt lat="47.88977" lon="6.84025">
        <ele>882</ele>
        <time>2022-09-12T09:14:57Z</time>
      </trkpt>
      <trkpt lat="47.88976" lon="6.84026">
        <ele>882</ele>
        <time>2022-09-12T09:14:58Z</time>
      </trkpt>
      <trkpt lat="47.88976" lon="6.84027">
        <ele>882</ele>
        <time>2022-09-12T09:14:59Z</time>
      </trkpt>
      <trkpt lat="47.88975" lon="6.84029">
        <ele>882</ele>
        <time>2022-09-12T09:15:00Z</time>
      </trkpt>
      <trkpt lat="47.88975" lon="6.8403">
        <ele>882</ele>
        <time>2022-09-12T09:15:01Z</time>
      </trkpt>
      <trkpt lat="47.88974" lon="6.84031">
        <ele>882</ele>
        <time>2022-09-12T09:15:02Z</time>
      </trkpt>
      <trkpt lat="47.88974" lon="6.84032">
        <ele>882</ele>
        <time>2022-09-12T09:15:03Z</time>
      </trkpt>
      <trkpt lat="47.88972" lon="6.84033">
        <ele>881</ele>
        <time>2022-09-12T09:16:21Z</time>
      </trkpt>
      <trkpt lat="47.88971" lon="6.84033">
        <ele>881</ele>
        <time>2022-09-12T09:16:22Z</time>
      </trkpt>
      <trkpt lat="47.88971" lon="6.84033">
        <ele>881</ele>
        <time>2022-09-12T09:16:23Z</time>
      </trkpt>
      <trkpt lat="47.88971" lon="6.84032">
        <ele>881</ele>
        <time>2022-09-12T09:16:24Z</time>
      </trkpt>
      <trkpt lat="47.8897" lon="6.84031">
        <ele>881</ele>
        <time>2022-09-12T09:16:25Z</time>
      </trkpt>
      <trkpt lat="47.88971" lon="6.8403">
        <ele>881</ele>
        <time>2022-09-12T09:16:26Z</time>
      </trkpt>
      <trkpt lat="47.88971" lon="6.84029">
        <ele>881</ele>
        <time>2022-09-12T09:16:27Z</time>
      </trkpt>
      <trkpt lat="47.88971" lon="6.84028">
        <ele>881</ele>
        <time>2022-09-12T09:16:28Z</time>
      </trkpt>
      <trkpt lat="47.88972" lon="6.84027">
        <ele>881</ele>
        <time>2022-09-12T09:16:29Z</time>
      </trkpt>
      <trkpt lat="47.88973" lon="6.84027">
        <ele>881</ele>
        <time>2022-09-12T09:16:30Z</time>
      </trkpt>
      <trkpt lat="47.88974" lon="6.84026">
        <ele>881</ele>
        <time>2022-09-12T09:16:31Z</time>
      </trkpt>
      <trkpt lat="47.88974" lon="6.84026">
        <ele>881</ele>
        <time>2022-09-12T09:16:32Z</time>
      </trkpt>
      <trkpt lat="47.88975" lon="6.84025">
        <ele>881</ele>
        <time>2022-09-12T09:16:33Z</time>
      </trkpt>
      <trkpt lat="47.88976" lon="6.84024">
        <ele>881</ele>
        <time>2022-09-12T09:16:34Z</time>
      </trkpt>
      <trkpt lat="47.88977" lon="6.84024">
        <ele>881</ele>
        <time>2022-09-12T09:16:35Z</time>
      </trkpt>
      <trkpt lat="47.88977" lon="6.84023">
        <ele>881</ele>
        <time>2022-09-12T09:16:36Z</time>
      </trkpt>
      <trkpt lat="47.88977" lon="6.84023">
        <ele>881</ele>
        <time>2022-09-12T09:16:37Z</time>
      </trkpt>
      <trkpt lat="47.88977" lon="6.84023">
        <ele>881</ele>
        <time>2022-09-12T09:16:38Z</time>
      </trkpt>
      <trkpt lat="47.88977" lon="6.84022">
        <ele>881</ele>
        <time>2022-09-12T09:16:39Z</time>
      </trkpt>
      <trkpt lat="47.88978" lon="6.84022">
        <ele>881</ele>
        <time>2022-09-12T09:16:40Z</time>
      </trkpt>
      <trkpt lat="47.88977" lon="6.84021">
        <ele>882</ele>
        <time>2022-09-12T09:16:41Z</time>
      </trkpt>
      <trkpt lat="47.88977" lon="6.8402">
        <ele>882</ele>
        <time>2022-09-12T09:16:42Z</time>
      </trkpt>
      <trkpt lat="47.88977" lon="6.8402">
        <ele>882</ele>
        <time>2022-09-12T09:16:43Z</time>
      </trkpt>
      <trkpt lat="47.88976" lon="6.84019">
        <ele>882</ele>
        <time>2022-09-12T09:16:44Z</time>
      </trkpt>
      <trkpt lat="47.88976" lon="6.84019">
        <ele>882</ele>
        <time>2022-09-12T09:16:45Z</time>
      </trkpt>
      <trkpt lat="47.88975" lon="6.84018">
        <ele>882</ele>
        <time>2022-09-12T09:16:46Z</time>
      </trkpt>
      <trkpt lat="47.88974" lon="6.84016">
        <ele>882</ele>
        <time>2022-09-12T09:17:13Z</time>
      </trkpt>
      <trkpt lat="47.88974" lon="6.84015">
        <ele>882</ele>
        <time>2022-09-12T09:17:14Z</time>
      </trkpt>
      <trkpt lat="47.88974" lon="6.84014">
        <ele>882</ele>
        <time>2022-09-12T09:17:15Z</time>
      </trkpt>
      <trkpt lat="47.88975" lon="6.84014">
        <ele>882</ele>
        <time>2022-09-12T09:17:16Z</time>
      </trkpt>
      <trkpt lat="47.88975" lon="6.84014">
        <ele>882</ele>
        <time>2022-09-12T09:17:17Z</time>
      </trkpt>
      <trkpt lat="47.88976" lon="6.84014">
        <ele>882</ele>
        <time>2022-09-12T09:17:18Z</time>
      </trkpt>
      <trkpt lat="47.88976" lon="6.84015">
        <ele>882</ele>
        <time>2022-09-12T09:17:19Z</time>
      </trkpt>
      <trkpt lat="47.88977" lon="6.84015">
        <ele>882</ele>
        <time>2022-09-12T09:17:20Z</time>
      </trkpt>
      <trkpt lat="47.88978" lon="6.84016">
        <ele>882</ele>
        <time>2022-09-12T09:17:21Z</time>
      </trkpt>
      <trkpt lat="47.88979" lon="6.84017">
        <ele>881</ele>
        <time>2022-09-12T09:17:22Z</time>
      </trkpt>
      <trkpt lat="47.88979" lon="6.84017">
        <ele>881</ele>
        <time>2022-09-12T09:17:23Z</time>
      </trkpt>
      <trkpt lat="47.8898" lon="6.84017">
        <ele>881</ele>
        <time>2022-09-12T09:17:24Z</time>
      </trkpt>
      <trkpt lat="47.8898" lon="6.84017">
        <ele>881</ele>
        <time>2022-09-12T09:17:25Z</time>
      </trkpt>
      <trkpt lat="47.8898" lon="6.84018">
        <ele>881</ele>
        <time>2022-09-12T09:17:26Z</time>
      </trkpt>
      <trkpt lat="47.88981" lon="6.84018">
        <ele>881</ele>
        <time>2022-09-12T09:17:27Z</time>
      </trkpt>
      <trkpt lat="47.88981" lon="6.84018">
        <ele>881</ele>
        <time>2022-09-12T09:17:28Z</time>
      </trkpt>
      <trkpt lat="47.88982" lon="6.84017">
        <ele>881</ele>
        <time>2022-09-12T09:17:29Z</time>
      </trkpt>
      <trkpt lat="47.88982" lon="6.84017">
        <ele>881</ele>
        <time>2022-09-12T09:17:30Z</time>
      </trkpt>
      <trkpt lat="47.88983" lon="6.84017">
        <ele>881</ele>
        <time>2022-09-12T09:17:31Z</time>
      </trkpt>
      <trkpt lat="47.88983" lon="6.84016">
        <ele>880</ele>
        <time>2022-09-12T09:17:32Z</time>
      </trkpt>
      <trkpt lat="47.88983" lon="6.84016">
        <ele>880</ele>
        <time>2022-09-12T09:17:33Z</time>
      </trkpt>
      <trkpt lat="47.88984" lon="6.84015">
        <ele>880</ele>
        <time>2022-09-12T09:17:34Z</time>
      </trkpt>
      <trkpt lat="47.88984" lon="6.84014">
        <ele>880</ele>
        <time>2022-09-12T09:17:35Z</time>
      </trkpt>
      <trkpt lat="47.88984" lon="6.84014">
        <ele>880</ele>
        <time>2022-09-12T09:17:36Z</time>
      </trkpt>
      <trkpt lat="47.88985" lon="6.84013">
        <ele>880</ele>
        <time>2022-09-12T09:17:37Z</time>
      </trkpt>
      <trkpt lat="47.88985" lon="6.84012">
        <ele>880</ele>
        <time>2022-09-12T09:17:38Z</time>
      </trkpt>
      <trkpt lat="47.88986" lon="6.8401">
        <ele>879</ele>
        <time>2022-09-12T09:17:47Z</time>
      </trkpt>
      <trkpt lat="47.88986" lon="6.84009">
        <ele>879</ele>
        <time>2022-09-12T09:17:48Z</time>
      </trkpt>
      <trkpt lat="47.88987" lon="6.84008">
        <ele>879</ele>
        <time>2022-09-12T09:17:49Z</time>
      </trkpt>
      <trkpt lat="47.88987" lon="6.84007">
        <ele>879</ele>
        <time>2022-09-12T09:17:50Z</time>
      </trkpt>
      <trkpt lat="47.88987" lon="6.84006">
        <ele>879</ele>
        <time>2022-09-12T09:17:51Z</time>
      </trkpt>
      <trkpt lat="47.88988" lon="6.84005">
        <ele>879</ele>
        <time>2022-09-12T09:17:52Z</time>
      </trkpt>
      <trkpt lat="47.88988" lon="6.84004">
        <ele>879</ele>
        <time>2022-09-12T09:17:53Z</time>
      </trkpt>
      <trkpt lat="47.88989" lon="6.84002">
        <ele>879</ele>
        <time>2022-09-12T09:17:54Z</time>
      </trkpt>
      <trkpt lat="47.8899" lon="6.84001">
        <ele>879</ele>
        <time>2022-09-12T09:17:55Z</time>
      </trkpt>
      <trkpt lat="47.8899" lon="6.84">
        <ele>879</ele>
        <time>2022-09-12T09:17:56Z</time>
      </trkpt>
      <trkpt lat="47.88991" lon="6.83999">
        <ele>878</ele>
        <time>2022-09-12T09:17:57Z</time>
      </trkpt>
      <trkpt lat="47.88992" lon="6.83998">
        <ele>878</ele>
        <time>2022-09-12T09:17:58Z</time>
      </trkpt>
      <trkpt lat="47.88992" lon="6.83997">
        <ele>878</ele>
        <time>2022-09-12T09:17:59Z</time>
      </trkpt>
      <trkpt lat="47.88993" lon="6.83996">
        <ele>878</ele>
        <time>2022-09-12T09:18:00Z</time>
      </trkpt>
      <trkpt lat="47.88994" lon="6.83996">
        <ele>878</ele>
        <time>2022-09-12T09:18:01Z</time>
      </trkpt>
      <trkpt lat="47.88995" lon="6.83995">
        <ele>878</ele>
        <time>2022-09-12T09:18:02Z</time>
      </trkpt>
      <trkpt lat="47.88996" lon="6.83994">
        <ele>878</ele>
        <time>2022-09-12T09:18:03Z</time>
      </trkpt>
      <trkpt lat="47.88996" lon="6.83994">
        <ele>878</ele>
        <time>2022-09-12T09:18:04Z</time>
      </trkpt>
      <trkpt lat="47.88997" lon="6.83993">
        <ele>878</ele>
        <time>2022-09-12T09:18:05Z</time>
      </trkpt>
      <trkpt lat="47.88998" lon="6.83992">
        <ele>878</ele>
        <time>2022-09-12T09:18:06Z</time>
      </trkpt>
      <trkpt lat="47.88998" lon="6.83992">
        <ele>877</ele>
        <time>2022-09-12T09:18:07Z</time>
      </trkpt>
      <trkpt lat="47.88999" lon="6.83991">
        <ele>877</ele>
        <time>2022-09-12T09:18:08Z</time>
      </trkpt>
      <trkpt lat="47.89" lon="6.83991">
        <ele>877</ele>
        <time>2022-09-12T09:18:09Z</time>
      </trkpt>
      <trkpt lat="47.89" lon="6.8399">
        <ele>877</ele>
        <time>2022-09-12T09:18:10Z</time>
      </trkpt>
      <trkpt lat="47.89001" lon="6.83989">
        <ele>877</ele>
        <time>2022-09-12T09:18:11Z</time>
      </trkpt>
      <trkpt lat="47.89002" lon="6.83989">
        <ele>876</ele>
        <time>2022-09-12T09:18:12Z</time>
      </trkpt>
      <trkpt lat="47.89002" lon="6.83988">
        <ele>876</ele>
        <time>2022-09-12T09:18:13Z</time>
      </trkpt>
      <trkpt lat="47.89003" lon="6.83988">
        <ele>876</ele>
        <time>2022-09-12T09:18:14Z</time>
      </trkpt>
      <trkpt lat="47.89004" lon="6.83987">
        <ele>876</ele>
        <time>2022-09-12T09:18:15Z</time>
      </trkpt>
      <trkpt lat="47.89005" lon="6.83986">
        <ele>876</ele>
        <time>2022-09-12T09:18:16Z</time>
      </trkpt>
      <trkpt lat="47.89006" lon="6.83987">
        <ele>876</ele>
        <time>2022-09-12T09:18:49Z</time>
      </trkpt>
      <trkpt lat="47.89006" lon="6.83988">
        <ele>876</ele>
        <time>2022-09-12T09:18:50Z</time>
      </trkpt>
      <trkpt lat="47.89006" lon="6.8399">
        <ele>876</ele>
        <time>2022-09-12T09:18:51Z</time>
      </trkpt>
      <trkpt lat="47.89006" lon="6.83991">
        <ele>876</ele>
        <time>2022-09-12T09:18:52Z</time>
      </trkpt>
      <trkpt lat="47.89005" lon="6.83992">
        <ele>876</ele>
        <time>2022-09-12T09:18:53Z</time>
      </trkpt>
      <trkpt lat="47.89004" lon="6.83993">
        <ele>876</ele>
        <time>2022-09-12T09:18:54Z</time>
      </trkpt>
      <trkpt lat="47.89004" lon="6.83994">
        <ele>876</ele>
        <time>2022-09-12T09:18:55Z</time>
      </trkpt>
      <trkpt lat="47.89003" lon="6.83995">
        <ele>877</ele>
        <time>2022-09-12T09:18:56Z</time>
      </trkpt>
      <trkpt lat="47.89002" lon="6.83996">
        <ele>877</ele>
        <time>2022-09-12T09:18:57Z</time>
      </trkpt>
      <trkpt lat="47.89001" lon="6.83997">
        <ele>877</ele>
        <time>2022-09-12T09:18:58Z</time>
      </trkpt>
      <trkpt lat="47.89001" lon="6.83997">
        <ele>877</ele>
        <time>2022-09-12T09:18:59Z</time>
      </trkpt>
      <trkpt lat="47.89" lon="6.83997">
        <ele>877</ele>
        <time>2022-09-12T09:19:00Z</time>
      </trkpt>
      <trkpt lat="47.88999" lon="6.83998">
        <ele>877</ele>
        <time>2022-09-12T09:19:01Z</time>
      </trkpt>
      <trkpt lat="47.88998" lon="6.83998">
        <ele>877</ele>
        <time>2022-09-12T09:19:07Z</time>
      </trkpt>
      <trkpt lat="47.88997" lon="6.83998">
        <ele>877</ele>
        <time>2022-09-12T09:19:08Z</time>
      </trkpt>
      <trkpt lat="47.88996" lon="6.83997">
        <ele>877</ele>
        <time>2022-09-12T09:19:09Z</time>
      </trkpt>
      <trkpt lat="47.88995" lon="6.83997">
        <ele>877</ele>
        <time>2022-09-12T09:19:10Z</time>
      </trkpt>
      <trkpt lat="47.88994" lon="6.83996">
        <ele>878</ele>
        <time>2022-09-12T09:19:11Z</time>
      </trkpt>
      <trkpt lat="47.88994" lon="6.83995">
        <ele>877</ele>
        <time>2022-09-12T09:19:12Z</time>
      </trkpt>
      <trkpt lat="47.88994" lon="6.83994">
        <ele>877</ele>
        <time>2022-09-12T09:19:13Z</time>
      </trkpt>
      <trkpt lat="47.88993" lon="6.83994">
        <ele>877</ele>
        <time>2022-09-12T09:19:14Z</time>
      </trkpt>
      <trkpt lat="47.88993" lon="6.8399">
        <ele>877</ele>
        <time>2022-09-12T09:19:26Z</time>
      </trkpt>
      <trkpt lat="47.88993" lon="6.83989">
        <ele>876</ele>
        <time>2022-09-12T09:19:27Z</time>
      </trkpt>
      <trkpt lat="47.88993" lon="6.83988">
        <ele>876</ele>
        <time>2022-09-12T09:19:28Z</time>
      </trkpt>
      <trkpt lat="47.88993" lon="6.83986">
        <ele>876</ele>
        <time>2022-09-12T09:19:29Z</time>
      </trkpt>
      <trkpt lat="47.88993" lon="6.83985">
        <ele>876</ele>
        <time>2022-09-12T09:19:30Z</time>
      </trkpt>
      <trkpt lat="47.88994" lon="6.83982">
        <ele>875</ele>
        <time>2022-09-12T09:19:45Z</time>
      </trkpt>
      <trkpt lat="47.88994" lon="6.8398">
        <ele>875</ele>
        <time>2022-09-12T09:19:46Z</time>
      </trkpt>
      <trkpt lat="47.88995" lon="6.83979">
        <ele>874</ele>
        <time>2022-09-12T09:19:47Z</time>
      </trkpt>
      <trkpt lat="47.88995" lon="6.83978">
        <ele>874</ele>
        <time>2022-09-12T09:19:48Z</time>
      </trkpt>
      <trkpt lat="47.88995" lon="6.83976">
        <ele>874</ele>
        <time>2022-09-12T09:19:49Z</time>
      </trkpt>
      <trkpt lat="47.88996" lon="6.83975">
        <ele>874</ele>
        <time>2022-09-12T09:19:50Z</time>
      </trkpt>
      <trkpt lat="47.88996" lon="6.83974">
        <ele>874</ele>
        <time>2022-09-12T09:19:51Z</time>
      </trkpt>
      <trkpt lat="47.88996" lon="6.83973">
        <ele>873</ele>
        <time>2022-09-12T09:19:52Z</time>
      </trkpt>
      <trkpt lat="47.88997" lon="6.83972">
        <ele>873</ele>
        <time>2022-09-12T09:19:53Z</time>
      </trkpt>
      <trkpt lat="47.88997" lon="6.83971">
        <ele>873</ele>
        <time>2022-09-12T09:19:54Z</time>
      </trkpt>
      <trkpt lat="47.88997" lon="6.8397">
        <ele>873</ele>
        <time>2022-09-12T09:19:55Z</time>
      </trkpt>
      <trkpt lat="47.88997" lon="6.83969">
        <ele>873</ele>
        <time>2022-09-12T09:19:56Z</time>
      </trkpt>
      <trkpt lat="47.88998" lon="6.83968">
        <ele>873</ele>
        <time>2022-09-12T09:19:57Z</time>
      </trkpt>
      <trkpt lat="47.88998" lon="6.83968">
        <ele>873</ele>
        <time>2022-09-12T09:19:58Z</time>
      </trkpt>
      <trkpt lat="47.88998" lon="6.83966">
        <ele>873</ele>
        <time>2022-09-12T09:19:59Z</time>
      </trkpt>
      <trkpt lat="47.88998" lon="6.83965">
        <ele>873</ele>
        <time>2022-09-12T09:20:00Z</time>
      </trkpt>
      <trkpt lat="47.88998" lon="6.83964">
        <ele>873</ele>
        <time>2022-09-12T09:20:01Z</time>
      </trkpt>
      <trkpt lat="47.88998" lon="6.83963">
        <ele>872</ele>
        <time>2022-09-12T09:20:02Z</time>
      </trkpt>
      <trkpt lat="47.88998" lon="6.83962">
        <ele>872</ele>
        <time>2022-09-12T09:20:03Z</time>
      </trkpt>
      <trkpt lat="47.88998" lon="6.83961">
        <ele>872</ele>
        <time>2022-09-12T09:20:04Z</time>
      </trkpt>
      <trkpt lat="47.88998" lon="6.83959">
        <ele>872</ele>
        <time>2022-09-12T09:20:05Z</time>
      </trkpt>
      <trkpt lat="47.88999" lon="6.83958">
        <ele>872</ele>
        <time>2022-09-12T09:20:06Z</time>
      </trkpt>
      <trkpt lat="47.88999" lon="6.83956">
        <ele>871</ele>
        <time>2022-09-12T09:20:16Z</time>
      </trkpt>
      <trkpt lat="47.88999" lon="6.83954">
        <ele>870</ele>
        <time>2022-09-12T09:20:17Z</time>
      </trkpt>
      <trkpt lat="47.88999" lon="6.83953">
        <ele>870</ele>
        <time>2022-09-12T09:20:18Z</time>
      </trkpt>
      <trkpt lat="47.88999" lon="6.83951">
        <ele>870</ele>
        <time>2022-09-12T09:20:19Z</time>
      </trkpt>
      <trkpt lat="47.88999" lon="6.8395">
        <ele>870</ele>
        <time>2022-09-12T09:20:20Z</time>
      </trkpt>
      <trkpt lat="47.88999" lon="6.83948">
        <ele>870</ele>
        <time>2022-09-12T09:20:21Z</time>
      </trkpt>
      <trkpt lat="47.88999" lon="6.83947">
        <ele>870</ele>
        <time>2022-09-12T09:20:22Z</time>
      </trkpt>
      <trkpt lat="47.88999" lon="6.83945">
        <ele>870</ele>
        <time>2022-09-12T09:20:23Z</time>
      </trkpt>
      <trkpt lat="47.88999" lon="6.83944">
        <ele>870</ele>
        <time>2022-09-12T09:20:24Z</time>
      </trkpt>
      <trkpt lat="47.88999" lon="6.83943">
        <ele>870</ele>
        <time>2022-09-12T09:20:25Z</time>
      </trkpt>
      <trkpt lat="47.88999" lon="6.83942">
        <ele>870</ele>
        <time>2022-09-12T09:20:26Z</time>
      </trkpt>
      <trkpt lat="47.88999" lon="6.83941">
        <ele>869</ele>
        <time>2022-09-12T09:20:27Z</time>
      </trkpt>
      <trkpt lat="47.88999" lon="6.8394">
        <ele>869</ele>
        <time>2022-09-12T09:20:28Z</time>
      </trkpt>
      <trkpt lat="47.88999" lon="6.83939">
        <ele>869</ele>
        <time>2022-09-12T09:20:29Z</time>
      </trkpt>
      <trkpt lat="47.88999" lon="6.83938">
        <ele>869</ele>
        <time>2022-09-12T09:20:30Z</time>
      </trkpt>
      <trkpt lat="47.89" lon="6.83937">
        <ele>869</ele>
        <time>2022-09-12T09:20:31Z</time>
      </trkpt>
      <trkpt lat="47.89" lon="6.83937">
        <ele>868</ele>
        <time>2022-09-12T09:20:32Z</time>
      </trkpt>
      <trkpt lat="47.89" lon="6.83936">
        <ele>868</ele>
        <time>2022-09-12T09:20:33Z</time>
      </trkpt>
      <trkpt lat="47.89" lon="6.83935">
        <ele>868</ele>
        <time>2022-09-12T09:20:34Z</time>
      </trkpt>
      <trkpt lat="47.89" lon="6.83934">
        <ele>868</ele>
        <time>2022-09-12T09:20:35Z</time>
      </trkpt>
      <trkpt lat="47.89" lon="6.83932">
        <ele>868</ele>
        <time>2022-09-12T09:20:36Z</time>
      </trkpt>
      <trkpt lat="47.89001" lon="6.83931">
        <ele>867</ele>
        <time>2022-09-12T09:20:37Z</time>
      </trkpt>
      <trkpt lat="47.89001" lon="6.83929">
        <ele>867</ele>
        <time>2022-09-12T09:20:38Z</time>
      </trkpt>
      <trkpt lat="47.89001" lon="6.83928">
        <ele>867</ele>
        <time>2022-09-12T09:20:39Z</time>
      </trkpt>
      <trkpt lat="47.89001" lon="6.83927">
        <ele>867</ele>
        <time>2022-09-12T09:20:40Z</time>
      </trkpt>
      <trkpt lat="47.89001" lon="6.83925">
        <ele>867</ele>
        <time>2022-09-12T09:20:41Z</time>
      </trkpt>
      <trkpt lat="47.89" lon="6.83924">
        <ele>867</ele>
        <time>2022-09-12T09:20:42Z</time>
      </trkpt>
      <trkpt lat="47.89" lon="6.83923">
        <ele>867</ele>
        <time>2022-09-12T09:20:43Z</time>
      </trkpt>
      <trkpt lat="47.89" lon="6.83922">
        <ele>867</ele>
        <time>2022-09-12T09:20:44Z</time>
      </trkpt>
      <trkpt lat="47.89" lon="6.8392">
        <ele>867</ele>
        <time>2022-09-12T09:20:45Z</time>
      </trkpt>
      <trkpt lat="47.89" lon="6.83919">
        <ele>867</ele>
        <time>2022-09-12T09:20:46Z</time>
      </trkpt>
      <trkpt lat="47.89" lon="6.83918">
        <ele>866</ele>
        <time>2022-09-12T09:20:47Z</time>
      </trkpt>
      <trkpt lat="47.89" lon="6.83917">
        <ele>866</ele>
        <time>2022-09-12T09:20:48Z</time>
      </trkpt>
      <trkpt lat="47.89" lon="6.83915">
        <ele>866</ele>
        <time>2022-09-12T09:20:49Z</time>
      </trkpt>
      <trkpt lat="47.89" lon="6.83914">
        <ele>866</ele>
        <time>2022-09-12T09:20:50Z</time>
      </trkpt>
      <trkpt lat="47.89" lon="6.83913">
        <ele>866</ele>
        <time>2022-09-12T09:20:51Z</time>
      </trkpt>
      <trkpt lat="47.89" lon="6.83912">
        <ele>865</ele>
        <time>2022-09-12T09:20:52Z</time>
      </trkpt>
      <trkpt lat="47.89" lon="6.8391">
        <ele>865</ele>
        <time>2022-09-12T09:20:53Z</time>
      </trkpt>
      <trkpt lat="47.89" lon="6.83908">
        <ele>865</ele>
        <time>2022-09-12T09:20:54Z</time>
      </trkpt>
      <trkpt lat="47.89" lon="6.83907">
        <ele>865</ele>
        <time>2022-09-12T09:20:55Z</time>
      </trkpt>
      <trkpt lat="47.89" lon="6.83905">
        <ele>865</ele>
        <time>2022-09-12T09:20:56Z</time>
      </trkpt>
      <trkpt lat="47.89" lon="6.83904">
        <ele>865</ele>
        <time>2022-09-12T09:20:57Z</time>
      </trkpt>
      <trkpt lat="47.89" lon="6.83903">
        <ele>865</ele>
        <time>2022-09-12T09:20:58Z</time>
      </trkpt>
      <trkpt lat="47.89" lon="6.83901">
        <ele>865</ele>
        <time>2022-09-12T09:20:59Z</time>
      </trkpt>
      <trkpt lat="47.89" lon="6.839">
        <ele>865</ele>
        <time>2022-09-12T09:21:00Z</time>
      </trkpt>
      <trkpt lat="47.89" lon="6.83899">
        <ele>865</ele>
        <time>2022-09-12T09:21:01Z</time>
      </trkpt>
      <trkpt lat="47.89" lon="6.83898">
        <ele>864</ele>
        <time>2022-09-12T09:21:02Z</time>
      </trkpt>
      <trkpt lat="47.89" lon="6.83897">
        <ele>864</ele>
        <time>2022-09-12T09:21:03Z</time>
      </trkpt>
      <trkpt lat="47.89" lon="6.83896">
        <ele>864</ele>
        <time>2022-09-12T09:21:04Z</time>
      </trkpt>
      <trkpt lat="47.89" lon="6.83894">
        <ele>864</ele>
        <time>2022-09-12T09:21:05Z</time>
      </trkpt>
      <trkpt lat="47.89" lon="6.83893">
        <ele>864</ele>
        <time>2022-09-12T09:21:06Z</time>
      </trkpt>
      <trkpt lat="47.89" lon="6.83892">
        <ele>864</ele>
        <time>2022-09-12T09:21:07Z</time>
      </trkpt>
      <trkpt lat="47.89" lon="6.83891">
        <ele>864</ele>
        <time>2022-09-12T09:21:08Z</time>
      </trkpt>
      <trkpt lat="47.89001" lon="6.8389">
        <ele>864</ele>
        <time>2022-09-12T09:21:09Z</time>
      </trkpt>
      <trkpt lat="47.89001" lon="6.83888">
        <ele>864</ele>
        <time>2022-09-12T09:21:10Z</time>
      </trkpt>
      <trkpt lat="47.89001" lon="6.83887">
        <ele>864</ele>
        <time>2022-09-12T09:21:11Z</time>
      </trkpt>
      <trkpt lat="47.89001" lon="6.83886">
        <ele>863</ele>
        <time>2022-09-12T09:21:12Z</time>
      </trkpt>
      <trkpt lat="47.89001" lon="6.83884">
        <ele>863</ele>
        <time>2022-09-12T09:21:13Z</time>
      </trkpt>
      <trkpt lat="47.89001" lon="6.83883">
        <ele>863</ele>
        <time>2022-09-12T09:21:14Z</time>
      </trkpt>
      <trkpt lat="47.89001" lon="6.83883">
        <ele>863</ele>
        <time>2022-09-12T09:21:15Z</time>
      </trkpt>
      <trkpt lat="47.89001" lon="6.83882">
        <ele>863</ele>
        <time>2022-09-12T09:21:16Z</time>
      </trkpt>
      <trkpt lat="47.89001" lon="6.83882">
        <ele>862</ele>
        <time>2022-09-12T09:21:17Z</time>
      </trkpt>
      <trkpt lat="47.89" lon="6.8388">
        <ele>862</ele>
        <time>2022-09-12T09:21:18Z</time>
      </trkpt>
      <trkpt lat="47.89" lon="6.83879">
        <ele>862</ele>
        <time>2022-09-12T09:21:19Z</time>
      </trkpt>
      <trkpt lat="47.88999" lon="6.83878">
        <ele>862</ele>
        <time>2022-09-12T09:21:20Z</time>
      </trkpt>
      <trkpt lat="47.88999" lon="6.83877">
        <ele>862</ele>
        <time>2022-09-12T09:21:21Z</time>
      </trkpt>
      <trkpt lat="47.88999" lon="6.83877">
        <ele>861</ele>
        <time>2022-09-12T09:21:22Z</time>
      </trkpt>
      <trkpt lat="47.88998" lon="6.83876">
        <ele>861</ele>
        <time>2022-09-12T09:21:23Z</time>
      </trkpt>
      <trkpt lat="47.88998" lon="6.83875">
        <ele>861</ele>
        <time>2022-09-12T09:21:24Z</time>
      </trkpt>
      <trkpt lat="47.88998" lon="6.83874">
        <ele>861</ele>
        <time>2022-09-12T09:21:25Z</time>
      </trkpt>
      <trkpt lat="47.88998" lon="6.83873">
        <ele>861</ele>
        <time>2022-09-12T09:21:26Z</time>
      </trkpt>
      <trkpt lat="47.88998" lon="6.83872">
        <ele>860</ele>
        <time>2022-09-12T09:21:27Z</time>
      </trkpt>
      <trkpt lat="47.88999" lon="6.83871">
        <ele>860</ele>
        <time>2022-09-12T09:21:28Z</time>
      </trkpt>
      <trkpt lat="47.88999" lon="6.8387">
        <ele>860</ele>
        <time>2022-09-12T09:21:29Z</time>
      </trkpt>
      <trkpt lat="47.89" lon="6.83869">
        <ele>860</ele>
        <time>2022-09-12T09:21:30Z</time>
      </trkpt>
      <trkpt lat="47.89" lon="6.83868">
        <ele>860</ele>
        <time>2022-09-12T09:21:31Z</time>
      </trkpt>
      <trkpt lat="47.89001" lon="6.83867">
        <ele>860</ele>
        <time>2022-09-12T09:21:32Z</time>
      </trkpt>
      <trkpt lat="47.89001" lon="6.83865">
        <ele>860</ele>
        <time>2022-09-12T09:21:33Z</time>
      </trkpt>
      <trkpt lat="47.89001" lon="6.83864">
        <ele>860</ele>
        <time>2022-09-12T09:21:34Z</time>
      </trkpt>
      <trkpt lat="47.89001" lon="6.83863">
        <ele>860</ele>
        <time>2022-09-12T09:21:35Z</time>
      </trkpt>
      <trkpt lat="47.89001" lon="6.83862">
        <ele>860</ele>
        <time>2022-09-12T09:21:36Z</time>
      </trkpt>
      <trkpt lat="47.89001" lon="6.83861">
        <ele>859</ele>
        <time>2022-09-12T09:21:37Z</time>
      </trkpt>
      <trkpt lat="47.89001" lon="6.8386">
        <ele>859</ele>
        <time>2022-09-12T09:21:38Z</time>
      </trkpt>
      <trkpt lat="47.89001" lon="6.8386">
        <ele>859</ele>
        <time>2022-09-12T09:21:39Z</time>
      </trkpt>
      <trkpt lat="47.89001" lon="6.83859">
        <ele>859</ele>
        <time>2022-09-12T09:21:40Z</time>
      </trkpt>
      <trkpt lat="47.89001" lon="6.83858">
        <ele>859</ele>
        <time>2022-09-12T09:21:41Z</time>
      </trkpt>
      <trkpt lat="47.89001" lon="6.83857">
        <ele>859</ele>
        <time>2022-09-12T09:21:42Z</time>
      </trkpt>
      <trkpt lat="47.89001" lon="6.83855">
        <ele>859</ele>
        <time>2022-09-12T09:21:43Z</time>
      </trkpt>
      <trkpt lat="47.89001" lon="6.83854">
        <ele>859</ele>
        <time>2022-09-12T09:21:44Z</time>
      </trkpt>
      <trkpt lat="47.89001" lon="6.83853">
        <ele>859</ele>
        <time>2022-09-12T09:21:45Z</time>
      </trkpt>
      <trkpt lat="47.89" lon="6.83852">
        <ele>859</ele>
        <time>2022-09-12T09:21:46Z</time>
      </trkpt>
      <trkpt lat="47.89" lon="6.8385">
        <ele>858</ele>
        <time>2022-09-12T09:21:47Z</time>
      </trkpt>
      <trkpt lat="47.89" lon="6.83849">
        <ele>858</ele>
        <time>2022-09-12T09:21:48Z</time>
      </trkpt>
      <trkpt lat="47.89" lon="6.83848">
        <ele>858</ele>
        <time>2022-09-12T09:21:49Z</time>
      </trkpt>
      <trkpt lat="47.89" lon="6.83847">
        <ele>858</ele>
        <time>2022-09-12T09:21:50Z</time>
      </trkpt>
      <trkpt lat="47.89" lon="6.83845">
        <ele>858</ele>
        <time>2022-09-12T09:21:51Z</time>
      </trkpt>
      <trkpt lat="47.88999" lon="6.83844">
        <ele>857</ele>
        <time>2022-09-12T09:21:52Z</time>
      </trkpt>
      <trkpt lat="47.88999" lon="6.83843">
        <ele>857</ele>
        <time>2022-09-12T09:21:53Z</time>
      </trkpt>
      <trkpt lat="47.88999" lon="6.83841">
        <ele>857</ele>
        <time>2022-09-12T09:21:54Z</time>
      </trkpt>
      <trkpt lat="47.88999" lon="6.8384">
        <ele>857</ele>
        <time>2022-09-12T09:21:55Z</time>
      </trkpt>
      <trkpt lat="47.88998" lon="6.83839">
        <ele>857</ele>
        <time>2022-09-12T09:21:56Z</time>
      </trkpt>
      <trkpt lat="47.88998" lon="6.83838">
        <ele>857</ele>
        <time>2022-09-12T09:21:57Z</time>
      </trkpt>
      <trkpt lat="47.88998" lon="6.83837">
        <ele>857</ele>
        <time>2022-09-12T09:21:58Z</time>
      </trkpt>
      <trkpt lat="47.88998" lon="6.83836">
        <ele>857</ele>
        <time>2022-09-12T09:21:59Z</time>
      </trkpt>
      <trkpt lat="47.88998" lon="6.83835">
        <ele>857</ele>
        <time>2022-09-12T09:22:00Z</time>
      </trkpt>
      <trkpt lat="47.88998" lon="6.83833">
        <ele>857</ele>
        <time>2022-09-12T09:22:01Z</time>
      </trkpt>
      <trkpt lat="47.88998" lon="6.83832">
        <ele>856</ele>
        <time>2022-09-12T09:22:02Z</time>
      </trkpt>
      <trkpt lat="47.88997" lon="6.83831">
        <ele>856</ele>
        <time>2022-09-12T09:22:03Z</time>
      </trkpt>
      <trkpt lat="47.88997" lon="6.83829">
        <ele>856</ele>
        <time>2022-09-12T09:22:04Z</time>
      </trkpt>
      <trkpt lat="47.88997" lon="6.83828">
        <ele>856</ele>
        <time>2022-09-12T09:22:05Z</time>
      </trkpt>
      <trkpt lat="47.88996" lon="6.83827">
        <ele>856</ele>
        <time>2022-09-12T09:22:06Z</time>
      </trkpt>
      <trkpt lat="47.88996" lon="6.83825">
        <ele>856</ele>
        <time>2022-09-12T09:22:07Z</time>
      </trkpt>
      <trkpt lat="47.88996" lon="6.83824">
        <ele>856</ele>
        <time>2022-09-12T09:22:08Z</time>
      </trkpt>
      <trkpt lat="47.88995" lon="6.83823">
        <ele>856</ele>
        <time>2022-09-12T09:22:09Z</time>
      </trkpt>
      <trkpt lat="47.88995" lon="6.83822">
        <ele>856</ele>
        <time>2022-09-12T09:22:10Z</time>
      </trkpt>
      <trkpt lat="47.88995" lon="6.8382">
        <ele>856</ele>
        <time>2022-09-12T09:22:11Z</time>
      </trkpt>
      <trkpt lat="47.88995" lon="6.83819">
        <ele>855</ele>
        <time>2022-09-12T09:22:12Z</time>
      </trkpt>
      <trkpt lat="47.88995" lon="6.83818">
        <ele>855</ele>
        <time>2022-09-12T09:22:13Z</time>
      </trkpt>
      <trkpt lat="47.88995" lon="6.83816">
        <ele>855</ele>
        <time>2022-09-12T09:22:14Z</time>
      </trkpt>
      <trkpt lat="47.88995" lon="6.83815">
        <ele>855</ele>
        <time>2022-09-12T09:22:15Z</time>
      </trkpt>
      <trkpt lat="47.88995" lon="6.83814">
        <ele>855</ele>
        <time>2022-09-12T09:22:16Z</time>
      </trkpt>
      <trkpt lat="47.88995" lon="6.83812">
        <ele>855</ele>
        <time>2022-09-12T09:22:17Z</time>
      </trkpt>
      <trkpt lat="47.88995" lon="6.83811">
        <ele>855</ele>
        <time>2022-09-12T09:22:18Z</time>
      </trkpt>
      <trkpt lat="47.88995" lon="6.8381">
        <ele>855</ele>
        <time>2022-09-12T09:22:19Z</time>
      </trkpt>
      <trkpt lat="47.88995" lon="6.83808">
        <ele>855</ele>
        <time>2022-09-12T09:22:20Z</time>
      </trkpt>
      <trkpt lat="47.88995" lon="6.83807">
        <ele>855</ele>
        <time>2022-09-12T09:22:21Z</time>
      </trkpt>
      <trkpt lat="47.88995" lon="6.83806">
        <ele>854</ele>
        <time>2022-09-12T09:22:22Z</time>
      </trkpt>
      <trkpt lat="47.88995" lon="6.83804">
        <ele>854</ele>
        <time>2022-09-12T09:22:23Z</time>
      </trkpt>
      <trkpt lat="47.88996" lon="6.83803">
        <ele>854</ele>
        <time>2022-09-12T09:22:24Z</time>
      </trkpt>
      <trkpt lat="47.88996" lon="6.83801">
        <ele>854</ele>
        <time>2022-09-12T09:22:25Z</time>
      </trkpt>
      <trkpt lat="47.88996" lon="6.838">
        <ele>854</ele>
        <time>2022-09-12T09:22:26Z</time>
      </trkpt>
      <trkpt lat="47.88996" lon="6.83799">
        <ele>854</ele>
        <time>2022-09-12T09:22:27Z</time>
      </trkpt>
      <trkpt lat="47.88996" lon="6.83798">
        <ele>854</ele>
        <time>2022-09-12T09:22:28Z</time>
      </trkpt>
      <trkpt lat="47.88996" lon="6.83796">
        <ele>854</ele>
        <time>2022-09-12T09:22:29Z</time>
      </trkpt>
      <trkpt lat="47.88995" lon="6.83795">
        <ele>854</ele>
        <time>2022-09-12T09:22:30Z</time>
      </trkpt>
      <trkpt lat="47.88995" lon="6.83794">
        <ele>854</ele>
        <time>2022-09-12T09:22:31Z</time>
      </trkpt>
      <trkpt lat="47.88995" lon="6.83793">
        <ele>854</ele>
        <time>2022-09-12T09:22:32Z</time>
      </trkpt>
      <trkpt lat="47.88994" lon="6.83792">
        <ele>854</ele>
        <time>2022-09-12T09:22:33Z</time>
      </trkpt>
      <trkpt lat="47.88994" lon="6.8379">
        <ele>854</ele>
        <time>2022-09-12T09:22:34Z</time>
      </trkpt>
      <trkpt lat="47.88994" lon="6.83789">
        <ele>854</ele>
        <time>2022-09-12T09:22:35Z</time>
      </trkpt>
      <trkpt lat="47.88994" lon="6.83788">
        <ele>854</ele>
        <time>2022-09-12T09:22:36Z</time>
      </trkpt>
      <trkpt lat="47.88994" lon="6.83786">
        <ele>853</ele>
        <time>2022-09-12T09:22:37Z</time>
      </trkpt>
      <trkpt lat="47.88994" lon="6.83785">
        <ele>853</ele>
        <time>2022-09-12T09:22:38Z</time>
      </trkpt>
      <trkpt lat="47.88994" lon="6.83783">
        <ele>853</ele>
        <time>2022-09-12T09:22:39Z</time>
      </trkpt>
      <trkpt lat="47.88994" lon="6.83782">
        <ele>853</ele>
        <time>2022-09-12T09:22:40Z</time>
      </trkpt>
      <trkpt lat="47.88994" lon="6.83781">
        <ele>853</ele>
        <time>2022-09-12T09:22:41Z</time>
      </trkpt>
      <trkpt lat="47.88994" lon="6.8378">
        <ele>852</ele>
        <time>2022-09-12T09:22:42Z</time>
      </trkpt>
      <trkpt lat="47.88995" lon="6.83779">
        <ele>852</ele>
        <time>2022-09-12T09:22:43Z</time>
      </trkpt>
      <trkpt lat="47.88995" lon="6.83779">
        <ele>852</ele>
        <time>2022-09-12T09:22:44Z</time>
      </trkpt>
      <trkpt lat="47.88995" lon="6.83778">
        <ele>852</ele>
        <time>2022-09-12T09:22:45Z</time>
      </trkpt>
      <trkpt lat="47.88995" lon="6.83777">
        <ele>852</ele>
        <time>2022-09-12T09:22:46Z</time>
      </trkpt>
      <trkpt lat="47.88995" lon="6.83776">
        <ele>852</ele>
        <time>2022-09-12T09:22:47Z</time>
      </trkpt>
      <trkpt lat="47.88995" lon="6.83775">
        <ele>852</ele>
        <time>2022-09-12T09:22:48Z</time>
      </trkpt>
      <trkpt lat="47.88996" lon="6.83774">
        <ele>852</ele>
        <time>2022-09-12T09:22:49Z</time>
      </trkpt>
      <trkpt lat="47.88995" lon="6.83773">
        <ele>852</ele>
        <time>2022-09-12T09:22:50Z</time>
      </trkpt>
      <trkpt lat="47.88995" lon="6.83772">
        <ele>852</ele>
        <time>2022-09-12T09:22:51Z</time>
      </trkpt>
      <trkpt lat="47.88995" lon="6.83771">
        <ele>851</ele>
        <time>2022-09-12T09:22:52Z</time>
      </trkpt>
      <trkpt lat="47.88994" lon="6.83771">
        <ele>851</ele>
        <time>2022-09-12T09:22:53Z</time>
      </trkpt>
      <trkpt lat="47.88994" lon="6.83769">
        <ele>850</ele>
        <time>2022-09-12T09:22:54Z</time>
      </trkpt>
      <trkpt lat="47.88994" lon="6.83768">
        <ele>850</ele>
        <time>2022-09-12T09:22:55Z</time>
      </trkpt>
      <trkpt lat="47.88994" lon="6.83767">
        <ele>850</ele>
        <time>2022-09-12T09:22:56Z</time>
      </trkpt>
      <trkpt lat="47.88993" lon="6.83766">
        <ele>850</ele>
        <time>2022-09-12T09:22:57Z</time>
      </trkpt>
      <trkpt lat="47.88993" lon="6.83765">
        <ele>850</ele>
        <time>2022-09-12T09:22:58Z</time>
      </trkpt>
      <trkpt lat="47.88993" lon="6.83763">
        <ele>850</ele>
        <time>2022-09-12T09:22:59Z</time>
      </trkpt>
      <trkpt lat="47.88994" lon="6.83762">
        <ele>850</ele>
        <time>2022-09-12T09:23:00Z</time>
      </trkpt>
      <trkpt lat="47.88994" lon="6.8376">
        <ele>850</ele>
        <time>2022-09-12T09:23:01Z</time>
      </trkpt>
      <trkpt lat="47.88994" lon="6.83759">
        <ele>850</ele>
        <time>2022-09-12T09:23:02Z</time>
      </trkpt>
      <trkpt lat="47.88995" lon="6.83757">
        <ele>850</ele>
        <time>2022-09-12T09:23:03Z</time>
      </trkpt>
      <trkpt lat="47.88994" lon="6.83755">
        <ele>849</ele>
        <time>2022-09-12T09:23:19Z</time>
      </trkpt>
      <trkpt lat="47.88994" lon="6.83754">
        <ele>849</ele>
        <time>2022-09-12T09:23:20Z</time>
      </trkpt>
      <trkpt lat="47.88993" lon="6.83752">
        <ele>849</ele>
        <time>2022-09-12T09:23:21Z</time>
      </trkpt>
      <trkpt lat="47.88993" lon="6.83752">
        <ele>848</ele>
        <time>2022-09-12T09:23:22Z</time>
      </trkpt>
      <trkpt lat="47.88992" lon="6.83751">
        <ele>848</ele>
        <time>2022-09-12T09:23:23Z</time>
      </trkpt>
      <trkpt lat="47.88991" lon="6.83749">
        <ele>848</ele>
        <time>2022-09-12T09:23:30Z</time>
      </trkpt>
      <trkpt lat="47.88991" lon="6.83748">
        <ele>848</ele>
        <time>2022-09-12T09:23:31Z</time>
      </trkpt>
      <trkpt lat="47.88991" lon="6.83747">
        <ele>848</ele>
        <time>2022-09-12T09:23:32Z</time>
      </trkpt>
      <trkpt lat="47.88991" lon="6.83745">
        <ele>848</ele>
        <time>2022-09-12T09:23:33Z</time>
      </trkpt>
      <trkpt lat="47.88991" lon="6.83744">
        <ele>848</ele>
        <time>2022-09-12T09:23:34Z</time>
      </trkpt>
      <trkpt lat="47.88991" lon="6.83743">
        <ele>848</ele>
        <time>2022-09-12T09:23:35Z</time>
      </trkpt>
      <trkpt lat="47.88991" lon="6.83742">
        <ele>848</ele>
        <time>2022-09-12T09:23:36Z</time>
      </trkpt>
      <trkpt lat="47.88992" lon="6.8374">
        <ele>848</ele>
        <time>2022-09-12T09:23:37Z</time>
      </trkpt>
      <trkpt lat="47.88992" lon="6.83739">
        <ele>848</ele>
        <time>2022-09-12T09:23:38Z</time>
      </trkpt>
      <trkpt lat="47.88992" lon="6.83738">
        <ele>848</ele>
        <time>2022-09-12T09:23:39Z</time>
      </trkpt>
      <trkpt lat="47.88992" lon="6.83736">
        <ele>848</ele>
        <time>2022-09-12T09:23:40Z</time>
      </trkpt>
      <trkpt lat="47.88993" lon="6.83735">
        <ele>848</ele>
        <time>2022-09-12T09:23:41Z</time>
      </trkpt>
      <trkpt lat="47.88993" lon="6.83733">
        <ele>847</ele>
        <time>2022-09-12T09:23:42Z</time>
      </trkpt>
      <trkpt lat="47.88993" lon="6.83732">
        <ele>847</ele>
        <time>2022-09-12T09:23:43Z</time>
      </trkpt>
      <trkpt lat="47.88993" lon="6.83731">
        <ele>847</ele>
        <time>2022-09-12T09:23:44Z</time>
      </trkpt>
      <trkpt lat="47.88993" lon="6.8373">
        <ele>847</ele>
        <time>2022-09-12T09:23:45Z</time>
      </trkpt>
      <trkpt lat="47.88993" lon="6.83728">
        <ele>847</ele>
        <time>2022-09-12T09:23:46Z</time>
      </trkpt>
      <trkpt lat="47.88993" lon="6.83727">
        <ele>847</ele>
        <time>2022-09-12T09:23:47Z</time>
      </trkpt>
      <trkpt lat="47.88994" lon="6.83726">
        <ele>847</ele>
        <time>2022-09-12T09:23:48Z</time>
      </trkpt>
      <trkpt lat="47.88994" lon="6.83725">
        <ele>847</ele>
        <time>2022-09-12T09:23:49Z</time>
      </trkpt>
      <trkpt lat="47.88994" lon="6.83724">
        <ele>847</ele>
        <time>2022-09-12T09:23:50Z</time>
      </trkpt>
      <trkpt lat="47.88994" lon="6.83723">
        <ele>847</ele>
        <time>2022-09-12T09:23:51Z</time>
      </trkpt>
      <trkpt lat="47.88994" lon="6.83722">
        <ele>846</ele>
        <time>2022-09-12T09:23:52Z</time>
      </trkpt>
      <trkpt lat="47.88994" lon="6.83721">
        <ele>846</ele>
        <time>2022-09-12T09:23:53Z</time>
      </trkpt>
      <trkpt lat="47.88994" lon="6.8372">
        <ele>846</ele>
        <time>2022-09-12T09:23:54Z</time>
      </trkpt>
      <trkpt lat="47.88994" lon="6.8372">
        <ele>846</ele>
        <time>2022-09-12T09:23:55Z</time>
      </trkpt>
      <trkpt lat="47.88994" lon="6.83719">
        <ele>846</ele>
        <time>2022-09-12T09:23:56Z</time>
      </trkpt>
      <trkpt lat="47.88993" lon="6.83718">
        <ele>845</ele>
        <time>2022-09-12T09:23:57Z</time>
      </trkpt>
      <trkpt lat="47.88993" lon="6.83716">
        <ele>845</ele>
        <time>2022-09-12T09:23:58Z</time>
      </trkpt>
      <trkpt lat="47.88993" lon="6.83715">
        <ele>845</ele>
        <time>2022-09-12T09:23:59Z</time>
      </trkpt>
      <trkpt lat="47.88994" lon="6.83714">
        <ele>845</ele>
        <time>2022-09-12T09:24:00Z</time>
      </trkpt>
      <trkpt lat="47.88994" lon="6.83713">
        <ele>845</ele>
        <time>2022-09-12T09:24:01Z</time>
      </trkpt>
      <trkpt lat="47.88994" lon="6.83712">
        <ele>845</ele>
        <time>2022-09-12T09:24:02Z</time>
      </trkpt>
      <trkpt lat="47.88994" lon="6.83711">
        <ele>845</ele>
        <time>2022-09-12T09:24:03Z</time>
      </trkpt>
      <trkpt lat="47.88994" lon="6.8371">
        <ele>845</ele>
        <time>2022-09-12T09:24:04Z</time>
      </trkpt>
      <trkpt lat="47.88994" lon="6.83709">
        <ele>845</ele>
        <time>2022-09-12T09:24:05Z</time>
      </trkpt>
      <trkpt lat="47.88995" lon="6.83708">
        <ele>845</ele>
        <time>2022-09-12T09:24:06Z</time>
      </trkpt>
      <trkpt lat="47.88995" lon="6.83707">
        <ele>844</ele>
        <time>2022-09-12T09:24:07Z</time>
      </trkpt>
      <trkpt lat="47.88995" lon="6.83706">
        <ele>844</ele>
        <time>2022-09-12T09:24:08Z</time>
      </trkpt>
      <trkpt lat="47.88995" lon="6.83705">
        <ele>844</ele>
        <time>2022-09-12T09:24:09Z</time>
      </trkpt>
      <trkpt lat="47.88995" lon="6.83704">
        <ele>844</ele>
        <time>2022-09-12T09:24:10Z</time>
      </trkpt>
      <trkpt lat="47.88996" lon="6.83702">
        <ele>844</ele>
        <time>2022-09-12T09:24:11Z</time>
      </trkpt>
      <trkpt lat="47.88995" lon="6.83701">
        <ele>844</ele>
        <time>2022-09-12T09:24:12Z</time>
      </trkpt>
      <trkpt lat="47.88995" lon="6.83699">
        <ele>844</ele>
        <time>2022-09-12T09:24:13Z</time>
      </trkpt>
      <trkpt lat="47.88995" lon="6.83697">
        <ele>844</ele>
        <time>2022-09-12T09:24:14Z</time>
      </trkpt>
      <trkpt lat="47.88995" lon="6.83695">
        <ele>844</ele>
        <time>2022-09-12T09:24:15Z</time>
      </trkpt>
      <trkpt lat="47.88994" lon="6.83693">
        <ele>844</ele>
        <time>2022-09-12T09:24:16Z</time>
      </trkpt>
      <trkpt lat="47.88994" lon="6.83692">
        <ele>843</ele>
        <time>2022-09-12T09:24:17Z</time>
      </trkpt>
      <trkpt lat="47.88993" lon="6.8369">
        <ele>843</ele>
        <time>2022-09-12T09:24:18Z</time>
      </trkpt>
      <trkpt lat="47.88993" lon="6.83689">
        <ele>843</ele>
        <time>2022-09-12T09:24:19Z</time>
      </trkpt>
      <trkpt lat="47.88992" lon="6.83688">
        <ele>843</ele>
        <time>2022-09-12T09:24:20Z</time>
      </trkpt>
      <trkpt lat="47.88991" lon="6.83687">
        <ele>843</ele>
        <time>2022-09-12T09:24:21Z</time>
      </trkpt>
      <trkpt lat="47.8899" lon="6.83686">
        <ele>843</ele>
        <time>2022-09-12T09:24:22Z</time>
      </trkpt>
      <trkpt lat="47.8899" lon="6.83685">
        <ele>843</ele>
        <time>2022-09-12T09:24:23Z</time>
      </trkpt>
      <trkpt lat="47.88989" lon="6.83684">
        <ele>843</ele>
        <time>2022-09-12T09:24:24Z</time>
      </trkpt>
      <trkpt lat="47.88988" lon="6.83684">
        <ele>843</ele>
        <time>2022-09-12T09:24:25Z</time>
      </trkpt>
      <trkpt lat="47.88988" lon="6.83682">
        <ele>843</ele>
        <time>2022-09-12T09:24:26Z</time>
      </trkpt>
      <trkpt lat="47.88988" lon="6.83681">
        <ele>842</ele>
        <time>2022-09-12T09:24:27Z</time>
      </trkpt>
      <trkpt lat="47.88988" lon="6.8368">
        <ele>842</ele>
        <time>2022-09-12T09:24:28Z</time>
      </trkpt>
      <trkpt lat="47.88988" lon="6.83678">
        <ele>842</ele>
        <time>2022-09-12T09:24:29Z</time>
      </trkpt>
      <trkpt lat="47.88988" lon="6.83677">
        <ele>842</ele>
        <time>2022-09-12T09:24:30Z</time>
      </trkpt>
      <trkpt lat="47.88988" lon="6.83675">
        <ele>842</ele>
        <time>2022-09-12T09:24:31Z</time>
      </trkpt>
      <trkpt lat="47.88989" lon="6.83673">
        <ele>841</ele>
        <time>2022-09-12T09:24:32Z</time>
      </trkpt>
      <trkpt lat="47.88989" lon="6.83672">
        <ele>841</ele>
        <time>2022-09-12T09:24:33Z</time>
      </trkpt>
      <trkpt lat="47.88989" lon="6.8367">
        <ele>841</ele>
        <time>2022-09-12T09:24:34Z</time>
      </trkpt>
      <trkpt lat="47.88989" lon="6.83668">
        <ele>841</ele>
        <time>2022-09-12T09:24:35Z</time>
      </trkpt>
      <trkpt lat="47.88989" lon="6.83667">
        <ele>841</ele>
        <time>2022-09-12T09:24:36Z</time>
      </trkpt>
      <trkpt lat="47.88989" lon="6.83666">
        <ele>841</ele>
        <time>2022-09-12T09:24:37Z</time>
      </trkpt>
      <trkpt lat="47.88989" lon="6.83664">
        <ele>841</ele>
        <time>2022-09-12T09:24:38Z</time>
      </trkpt>
      <trkpt lat="47.88989" lon="6.83663">
        <ele>841</ele>
        <time>2022-09-12T09:24:39Z</time>
      </trkpt>
      <trkpt lat="47.88988" lon="6.83661">
        <ele>841</ele>
        <time>2022-09-12T09:24:40Z</time>
      </trkpt>
      <trkpt lat="47.88988" lon="6.8366">
        <ele>841</ele>
        <time>2022-09-12T09:24:41Z</time>
      </trkpt>
      <trkpt lat="47.88988" lon="6.83658">
        <ele>840</ele>
        <time>2022-09-12T09:24:42Z</time>
      </trkpt>
      <trkpt lat="47.88988" lon="6.83657">
        <ele>840</ele>
        <time>2022-09-12T09:24:43Z</time>
      </trkpt>
      <trkpt lat="47.88987" lon="6.83656">
        <ele>840</ele>
        <time>2022-09-12T09:24:44Z</time>
      </trkpt>
      <trkpt lat="47.88987" lon="6.83654">
        <ele>840</ele>
        <time>2022-09-12T09:24:45Z</time>
      </trkpt>
      <trkpt lat="47.88987" lon="6.83653">
        <ele>840</ele>
        <time>2022-09-12T09:24:46Z</time>
      </trkpt>
      <trkpt lat="47.88987" lon="6.83652">
        <ele>840</ele>
        <time>2022-09-12T09:24:47Z</time>
      </trkpt>
      <trkpt lat="47.88986" lon="6.83651">
        <ele>840</ele>
        <time>2022-09-12T09:24:48Z</time>
      </trkpt>
      <trkpt lat="47.88985" lon="6.83649">
        <ele>840</ele>
        <time>2022-09-12T09:24:49Z</time>
      </trkpt>
      <trkpt lat="47.88984" lon="6.83648">
        <ele>840</ele>
        <time>2022-09-12T09:24:50Z</time>
      </trkpt>
      <trkpt lat="47.88983" lon="6.83647">
        <ele>840</ele>
        <time>2022-09-12T09:24:51Z</time>
      </trkpt>
      <trkpt lat="47.88983" lon="6.83646">
        <ele>839</ele>
        <time>2022-09-12T09:24:52Z</time>
      </trkpt>
      <trkpt lat="47.88982" lon="6.83645">
        <ele>839</ele>
        <time>2022-09-12T09:24:53Z</time>
      </trkpt>
      <trkpt lat="47.88981" lon="6.83644">
        <ele>839</ele>
        <time>2022-09-12T09:24:54Z</time>
      </trkpt>
      <trkpt lat="47.8898" lon="6.83642">
        <ele>839</ele>
        <time>2022-09-12T09:24:55Z</time>
      </trkpt>
      <trkpt lat="47.88979" lon="6.83641">
        <ele>839</ele>
        <time>2022-09-12T09:24:56Z</time>
      </trkpt>
      <trkpt lat="47.88979" lon="6.8364">
        <ele>839</ele>
        <time>2022-09-12T09:24:57Z</time>
      </trkpt>
      <trkpt lat="47.88978" lon="6.83639">
        <ele>839</ele>
        <time>2022-09-12T09:24:58Z</time>
      </trkpt>
      <trkpt lat="47.88978" lon="6.83638">
        <ele>839</ele>
        <time>2022-09-12T09:24:59Z</time>
      </trkpt>
      <trkpt lat="47.88978" lon="6.83637">
        <ele>839</ele>
        <time>2022-09-12T09:25:00Z</time>
      </trkpt>
      <trkpt lat="47.88978" lon="6.83636">
        <ele>839</ele>
        <time>2022-09-12T09:25:01Z</time>
      </trkpt>
      <trkpt lat="47.88978" lon="6.83634">
        <ele>838</ele>
        <time>2022-09-12T09:25:02Z</time>
      </trkpt>
      <trkpt lat="47.88978" lon="6.83633">
        <ele>838</ele>
        <time>2022-09-12T09:25:03Z</time>
      </trkpt>
      <trkpt lat="47.88978" lon="6.83632">
        <ele>838</ele>
        <time>2022-09-12T09:25:04Z</time>
      </trkpt>
      <trkpt lat="47.88979" lon="6.83631">
        <ele>838</ele>
        <time>2022-09-12T09:25:05Z</time>
      </trkpt>
      <trkpt lat="47.88979" lon="6.83629">
        <ele>838</ele>
        <time>2022-09-12T09:25:06Z</time>
      </trkpt>
      <trkpt lat="47.8898" lon="6.83627">
        <ele>837</ele>
        <time>2022-09-12T09:25:07Z</time>
      </trkpt>
      <trkpt lat="47.8898" lon="6.83625">
        <ele>837</ele>
        <time>2022-09-12T09:25:08Z</time>
      </trkpt>
      <trkpt lat="47.88981" lon="6.83624">
        <ele>837</ele>
        <time>2022-09-12T09:25:09Z</time>
      </trkpt>
      <trkpt lat="47.88981" lon="6.83622">
        <ele>837</ele>
        <time>2022-09-12T09:25:10Z</time>
      </trkpt>
      <trkpt lat="47.88981" lon="6.8362">
        <ele>837</ele>
        <time>2022-09-12T09:25:11Z</time>
      </trkpt>
      <trkpt lat="47.88982" lon="6.83619">
        <ele>837</ele>
        <time>2022-09-12T09:25:12Z</time>
      </trkpt>
      <trkpt lat="47.88982" lon="6.83618">
        <ele>837</ele>
        <time>2022-09-12T09:25:13Z</time>
      </trkpt>
      <trkpt lat="47.88982" lon="6.83617">
        <ele>837</ele>
        <time>2022-09-12T09:25:14Z</time>
      </trkpt>
      <trkpt lat="47.88982" lon="6.83615">
        <ele>837</ele>
        <time>2022-09-12T09:25:15Z</time>
      </trkpt>
      <trkpt lat="47.88982" lon="6.83614">
        <ele>837</ele>
        <time>2022-09-12T09:25:16Z</time>
      </trkpt>
      <trkpt lat="47.88982" lon="6.83613">
        <ele>836</ele>
        <time>2022-09-12T09:25:17Z</time>
      </trkpt>
      <trkpt lat="47.88983" lon="6.83612">
        <ele>836</ele>
        <time>2022-09-12T09:25:18Z</time>
      </trkpt>
      <trkpt lat="47.88982" lon="6.83611">
        <ele>836</ele>
        <time>2022-09-12T09:25:19Z</time>
      </trkpt>
      <trkpt lat="47.88982" lon="6.8361">
        <ele>836</ele>
        <time>2022-09-12T09:25:20Z</time>
      </trkpt>
      <trkpt lat="47.88982" lon="6.83609">
        <ele>836</ele>
        <time>2022-09-12T09:25:21Z</time>
      </trkpt>
      <trkpt lat="47.88982" lon="6.83608">
        <ele>836</ele>
        <time>2022-09-12T09:25:22Z</time>
      </trkpt>
      <trkpt lat="47.88982" lon="6.83607">
        <ele>836</ele>
        <time>2022-09-12T09:25:23Z</time>
      </trkpt>
      <trkpt lat="47.88982" lon="6.83606">
        <ele>836</ele>
        <time>2022-09-12T09:25:24Z</time>
      </trkpt>
      <trkpt lat="47.88982" lon="6.83605">
        <ele>836</ele>
        <time>2022-09-12T09:25:25Z</time>
      </trkpt>
      <trkpt lat="47.88982" lon="6.83604">
        <ele>836</ele>
        <time>2022-09-12T09:25:26Z</time>
      </trkpt>
      <trkpt lat="47.88982" lon="6.83603">
        <ele>835</ele>
        <time>2022-09-12T09:25:27Z</time>
      </trkpt>
      <trkpt lat="47.88982" lon="6.83603">
        <ele>835</ele>
        <time>2022-09-12T09:25:28Z</time>
      </trkpt>
      <trkpt lat="47.88982" lon="6.83602">
        <ele>835</ele>
        <time>2022-09-12T09:25:29Z</time>
      </trkpt>
      <trkpt lat="47.88982" lon="6.836">
        <ele>835</ele>
        <time>2022-09-12T09:25:30Z</time>
      </trkpt>
      <trkpt lat="47.88982" lon="6.83599">
        <ele>835</ele>
        <time>2022-09-12T09:25:31Z</time>
      </trkpt>
      <trkpt lat="47.88982" lon="6.83598">
        <ele>834</ele>
        <time>2022-09-12T09:25:32Z</time>
      </trkpt>
      <trkpt lat="47.88983" lon="6.83597">
        <ele>834</ele>
        <time>2022-09-12T09:25:33Z</time>
      </trkpt>
      <trkpt lat="47.88983" lon="6.83596">
        <ele>834</ele>
        <time>2022-09-12T09:25:34Z</time>
      </trkpt>
      <trkpt lat="47.88983" lon="6.83595">
        <ele>834</ele>
        <time>2022-09-12T09:25:35Z</time>
      </trkpt>
      <trkpt lat="47.88983" lon="6.83593">
        <ele>834</ele>
        <time>2022-09-12T09:25:36Z</time>
      </trkpt>
      <trkpt lat="47.88984" lon="6.83592">
        <ele>834</ele>
        <time>2022-09-12T09:25:37Z</time>
      </trkpt>
      <trkpt lat="47.88984" lon="6.83591">
        <ele>834</ele>
        <time>2022-09-12T09:25:38Z</time>
      </trkpt>
      <trkpt lat="47.88984" lon="6.8359">
        <ele>834</ele>
        <time>2022-09-12T09:25:39Z</time>
      </trkpt>
      <trkpt lat="47.88985" lon="6.83588">
        <ele>834</ele>
        <time>2022-09-12T09:25:40Z</time>
      </trkpt>
      <trkpt lat="47.88985" lon="6.83587">
        <ele>834</ele>
        <time>2022-09-12T09:25:41Z</time>
      </trkpt>
      <trkpt lat="47.88985" lon="6.83586">
        <ele>833</ele>
        <time>2022-09-12T09:25:42Z</time>
      </trkpt>
      <trkpt lat="47.88985" lon="6.83584">
        <ele>833</ele>
        <time>2022-09-12T09:25:43Z</time>
      </trkpt>
      <trkpt lat="47.88985" lon="6.83583">
        <ele>833</ele>
        <time>2022-09-12T09:25:44Z</time>
      </trkpt>
      <trkpt lat="47.88985" lon="6.83582">
        <ele>833</ele>
        <time>2022-09-12T09:25:45Z</time>
      </trkpt>
      <trkpt lat="47.88985" lon="6.8358">
        <ele>833</ele>
        <time>2022-09-12T09:25:46Z</time>
      </trkpt>
      <trkpt lat="47.88985" lon="6.83579">
        <ele>833</ele>
        <time>2022-09-12T09:25:47Z</time>
      </trkpt>
      <trkpt lat="47.88984" lon="6.83577">
        <ele>833</ele>
        <time>2022-09-12T09:25:48Z</time>
      </trkpt>
      <trkpt lat="47.88984" lon="6.83576">
        <ele>833</ele>
        <time>2022-09-12T09:25:49Z</time>
      </trkpt>
      <trkpt lat="47.88984" lon="6.83575">
        <ele>833</ele>
        <time>2022-09-12T09:25:50Z</time>
      </trkpt>
      <trkpt lat="47.88984" lon="6.83574">
        <ele>833</ele>
        <time>2022-09-12T09:25:51Z</time>
      </trkpt>
      <trkpt lat="47.88984" lon="6.83573">
        <ele>832</ele>
        <time>2022-09-12T09:25:52Z</time>
      </trkpt>
      <trkpt lat="47.88984" lon="6.83572">
        <ele>832</ele>
        <time>2022-09-12T09:25:53Z</time>
      </trkpt>
      <trkpt lat="47.88984" lon="6.83571">
        <ele>832</ele>
        <time>2022-09-12T09:25:54Z</time>
      </trkpt>
      <trkpt lat="47.88983" lon="6.8357">
        <ele>832</ele>
        <time>2022-09-12T09:25:55Z</time>
      </trkpt>
      <trkpt lat="47.88983" lon="6.8357">
        <ele>832</ele>
        <time>2022-09-12T09:25:56Z</time>
      </trkpt>
      <trkpt lat="47.88983" lon="6.83569">
        <ele>831</ele>
        <time>2022-09-12T09:25:57Z</time>
      </trkpt>
      <trkpt lat="47.88983" lon="6.83568">
        <ele>831</ele>
        <time>2022-09-12T09:25:58Z</time>
      </trkpt>
      <trkpt lat="47.88984" lon="6.83566">
        <ele>831</ele>
        <time>2022-09-12T09:25:59Z</time>
      </trkpt>
      <trkpt lat="47.88984" lon="6.83565">
        <ele>831</ele>
        <time>2022-09-12T09:26:00Z</time>
      </trkpt>
      <trkpt lat="47.88984" lon="6.83564">
        <ele>831</ele>
        <time>2022-09-12T09:26:01Z</time>
      </trkpt>
      <trkpt lat="47.88984" lon="6.83563">
        <ele>831</ele>
        <time>2022-09-12T09:26:02Z</time>
      </trkpt>
      <trkpt lat="47.88985" lon="6.83562">
        <ele>831</ele>
        <time>2022-09-12T09:26:03Z</time>
      </trkpt>
      <trkpt lat="47.88985" lon="6.83561">
        <ele>831</ele>
        <time>2022-09-12T09:26:04Z</time>
      </trkpt>
      <trkpt lat="47.88985" lon="6.83561">
        <ele>831</ele>
        <time>2022-09-12T09:26:05Z</time>
      </trkpt>
      <trkpt lat="47.88985" lon="6.8356">
        <ele>831</ele>
        <time>2022-09-12T09:26:06Z</time>
      </trkpt>
      <trkpt lat="47.88985" lon="6.83559">
        <ele>831</ele>
        <time>2022-09-12T09:26:07Z</time>
      </trkpt>
      <trkpt lat="47.88985" lon="6.83558">
        <ele>831</ele>
        <time>2022-09-12T09:26:08Z</time>
      </trkpt>
      <trkpt lat="47.88986" lon="6.83558">
        <ele>831</ele>
        <time>2022-09-12T09:26:09Z</time>
      </trkpt>
      <trkpt lat="47.88986" lon="6.83557">
        <ele>831</ele>
        <time>2022-09-12T09:26:10Z</time>
      </trkpt>
      <trkpt lat="47.88986" lon="6.83556">
        <ele>831</ele>
        <time>2022-09-12T09:26:11Z</time>
      </trkpt>
      <trkpt lat="47.88986" lon="6.83555">
        <ele>830</ele>
        <time>2022-09-12T09:26:12Z</time>
      </trkpt>
      <trkpt lat="47.88986" lon="6.83554">
        <ele>830</ele>
        <time>2022-09-12T09:26:13Z</time>
      </trkpt>
      <trkpt lat="47.88986" lon="6.83553">
        <ele>830</ele>
        <time>2022-09-12T09:26:14Z</time>
      </trkpt>
      <trkpt lat="47.88987" lon="6.83552">
        <ele>829</ele>
        <time>2022-09-12T09:27:12Z</time>
      </trkpt>
      <trkpt lat="47.88987" lon="6.83551">
        <ele>829</ele>
        <time>2022-09-12T09:27:13Z</time>
      </trkpt>
      <trkpt lat="47.88988" lon="6.8355">
        <ele>829</ele>
        <time>2022-09-12T09:27:14Z</time>
      </trkpt>
      <trkpt lat="47.88988" lon="6.83549">
        <ele>829</ele>
        <time>2022-09-12T09:27:15Z</time>
      </trkpt>
      <trkpt lat="47.88988" lon="6.83549">
        <ele>829</ele>
        <time>2022-09-12T09:27:16Z</time>
      </trkpt>
      <trkpt lat="47.88988" lon="6.83547">
        <ele>829</ele>
        <time>2022-09-12T09:27:17Z</time>
      </trkpt>
      <trkpt lat="47.88988" lon="6.83546">
        <ele>829</ele>
        <time>2022-09-12T09:27:18Z</time>
      </trkpt>
      <trkpt lat="47.88988" lon="6.83545">
        <ele>829</ele>
        <time>2022-09-12T09:27:19Z</time>
      </trkpt>
      <trkpt lat="47.88988" lon="6.83544">
        <ele>829</ele>
        <time>2022-09-12T09:27:20Z</time>
      </trkpt>
      <trkpt lat="47.88988" lon="6.83543">
        <ele>829</ele>
        <time>2022-09-12T09:27:21Z</time>
      </trkpt>
      <trkpt lat="47.88988" lon="6.83542">
        <ele>828</ele>
        <time>2022-09-12T09:27:22Z</time>
      </trkpt>
      <trkpt lat="47.88987" lon="6.83541">
        <ele>828</ele>
        <time>2022-09-12T09:27:23Z</time>
      </trkpt>
      <trkpt lat="47.88987" lon="6.83539">
        <ele>828</ele>
        <time>2022-09-12T09:27:24Z</time>
      </trkpt>
      <trkpt lat="47.88987" lon="6.83538">
        <ele>828</ele>
        <time>2022-09-12T09:27:25Z</time>
      </trkpt>
      <trkpt lat="47.88987" lon="6.83537">
        <ele>828</ele>
        <time>2022-09-12T09:27:26Z</time>
      </trkpt>
      <trkpt lat="47.88987" lon="6.83535">
        <ele>828</ele>
        <time>2022-09-12T09:27:27Z</time>
      </trkpt>
      <trkpt lat="47.88987" lon="6.83534">
        <ele>828</ele>
        <time>2022-09-12T09:27:28Z</time>
      </trkpt>
      <trkpt lat="47.88987" lon="6.83532">
        <ele>828</ele>
        <time>2022-09-12T09:27:29Z</time>
      </trkpt>
      <trkpt lat="47.88986" lon="6.83531">
        <ele>828</ele>
        <time>2022-09-12T09:27:30Z</time>
      </trkpt>
      <trkpt lat="47.88986" lon="6.83529">
        <ele>828</ele>
        <time>2022-09-12T09:27:31Z</time>
      </trkpt>
      <trkpt lat="47.88986" lon="6.83527">
        <ele>827</ele>
        <time>2022-09-12T09:27:32Z</time>
      </trkpt>
      <trkpt lat="47.88986" lon="6.83526">
        <ele>827</ele>
        <time>2022-09-12T09:27:33Z</time>
      </trkpt>
      <trkpt lat="47.88986" lon="6.83525">
        <ele>827</ele>
        <time>2022-09-12T09:27:34Z</time>
      </trkpt>
      <trkpt lat="47.88986" lon="6.83524">
        <ele>827</ele>
        <time>2022-09-12T09:27:35Z</time>
      </trkpt>
      <trkpt lat="47.88986" lon="6.83523">
        <ele>827</ele>
        <time>2022-09-12T09:27:36Z</time>
      </trkpt>
      <trkpt lat="47.88986" lon="6.83522">
        <ele>826</ele>
        <time>2022-09-12T09:27:37Z</time>
      </trkpt>
      <trkpt lat="47.88986" lon="6.83521">
        <ele>826</ele>
        <time>2022-09-12T09:27:38Z</time>
      </trkpt>
      <trkpt lat="47.88986" lon="6.83519">
        <ele>826</ele>
        <time>2022-09-12T09:27:39Z</time>
      </trkpt>
      <trkpt lat="47.88986" lon="6.83519">
        <ele>826</ele>
        <time>2022-09-12T09:27:40Z</time>
      </trkpt>
      <trkpt lat="47.88986" lon="6.83518">
        <ele>826</ele>
        <time>2022-09-12T09:27:41Z</time>
      </trkpt>
      <trkpt lat="47.88986" lon="6.83517">
        <ele>826</ele>
        <time>2022-09-12T09:27:42Z</time>
      </trkpt>
      <trkpt lat="47.88986" lon="6.83516">
        <ele>826</ele>
        <time>2022-09-12T09:27:43Z</time>
      </trkpt>
      <trkpt lat="47.88985" lon="6.83515">
        <ele>826</ele>
        <time>2022-09-12T09:27:44Z</time>
      </trkpt>
      <trkpt lat="47.88985" lon="6.83514">
        <ele>826</ele>
        <time>2022-09-12T09:27:45Z</time>
      </trkpt>
      <trkpt lat="47.88985" lon="6.83513">
        <ele>826</ele>
        <time>2022-09-12T09:27:46Z</time>
      </trkpt>
      <trkpt lat="47.88985" lon="6.83512">
        <ele>826</ele>
        <time>2022-09-12T09:27:47Z</time>
      </trkpt>
      <trkpt lat="47.88984" lon="6.83511">
        <ele>826</ele>
        <time>2022-09-12T09:27:48Z</time>
      </trkpt>
      <trkpt lat="47.88984" lon="6.8351">
        <ele>826</ele>
        <time>2022-09-12T09:27:49Z</time>
      </trkpt>
      <trkpt lat="47.88984" lon="6.83508">
        <ele>826</ele>
        <time>2022-09-12T09:27:50Z</time>
      </trkpt>
      <trkpt lat="47.88984" lon="6.83507">
        <ele>826</ele>
        <time>2022-09-12T09:27:51Z</time>
      </trkpt>
      <trkpt lat="47.88984" lon="6.83506">
        <ele>825</ele>
        <time>2022-09-12T09:27:52Z</time>
      </trkpt>
      <trkpt lat="47.88985" lon="6.83505">
        <ele>825</ele>
        <time>2022-09-12T09:27:53Z</time>
      </trkpt>
      <trkpt lat="47.88985" lon="6.83503">
        <ele>825</ele>
        <time>2022-09-12T09:27:54Z</time>
      </trkpt>
      <trkpt lat="47.88986" lon="6.83502">
        <ele>825</ele>
        <time>2022-09-12T09:27:55Z</time>
      </trkpt>
      <trkpt lat="47.88987" lon="6.83501">
        <ele>825</ele>
        <time>2022-09-12T09:27:56Z</time>
      </trkpt>
      <trkpt lat="47.88987" lon="6.83499">
        <ele>825</ele>
        <time>2022-09-12T09:27:57Z</time>
      </trkpt>
      <trkpt lat="47.88987" lon="6.83498">
        <ele>825</ele>
        <time>2022-09-12T09:27:58Z</time>
      </trkpt>
      <trkpt lat="47.88987" lon="6.83496">
        <ele>825</ele>
        <time>2022-09-12T09:27:59Z</time>
      </trkpt>
      <trkpt lat="47.88987" lon="6.83495">
        <ele>825</ele>
        <time>2022-09-12T09:28:00Z</time>
      </trkpt>
      <trkpt lat="47.88987" lon="6.83493">
        <ele>825</ele>
        <time>2022-09-12T09:28:01Z</time>
      </trkpt>
      <trkpt lat="47.88987" lon="6.83491">
        <ele>824</ele>
        <time>2022-09-12T09:28:02Z</time>
      </trkpt>
      <trkpt lat="47.88987" lon="6.83491">
        <ele>824</ele>
        <time>2022-09-12T09:28:03Z</time>
      </trkpt>
      <trkpt lat="47.88986" lon="6.8349">
        <ele>824</ele>
        <time>2022-09-12T09:28:04Z</time>
      </trkpt>
      <trkpt lat="47.88986" lon="6.83488">
        <ele>824</ele>
        <time>2022-09-12T09:28:05Z</time>
      </trkpt>
      <trkpt lat="47.88986" lon="6.83487">
        <ele>824</ele>
        <time>2022-09-12T09:28:06Z</time>
      </trkpt>
      <trkpt lat="47.88986" lon="6.83486">
        <ele>824</ele>
        <time>2022-09-12T09:28:07Z</time>
      </trkpt>
      <trkpt lat="47.88986" lon="6.83485">
        <ele>824</ele>
        <time>2022-09-12T09:28:08Z</time>
      </trkpt>
      <trkpt lat="47.88986" lon="6.83484">
        <ele>824</ele>
        <time>2022-09-12T09:28:09Z</time>
      </trkpt>
      <trkpt lat="47.88986" lon="6.83483">
        <ele>824</ele>
        <time>2022-09-12T09:28:10Z</time>
      </trkpt>
      <trkpt lat="47.88986" lon="6.83481">
        <ele>824</ele>
        <time>2022-09-12T09:28:11Z</time>
      </trkpt>
      <trkpt lat="47.88986" lon="6.8348">
        <ele>824</ele>
        <time>2022-09-12T09:28:12Z</time>
      </trkpt>
      <trkpt lat="47.88986" lon="6.83478">
        <ele>824</ele>
        <time>2022-09-12T09:28:13Z</time>
      </trkpt>
      <trkpt lat="47.88986" lon="6.83477">
        <ele>824</ele>
        <time>2022-09-12T09:28:14Z</time>
      </trkpt>
      <trkpt lat="47.88985" lon="6.83475">
        <ele>824</ele>
        <time>2022-09-12T09:28:15Z</time>
      </trkpt>
      <trkpt lat="47.88986" lon="6.83473">
        <ele>824</ele>
        <time>2022-09-12T09:28:16Z</time>
      </trkpt>
      <trkpt lat="47.88986" lon="6.83471">
        <ele>823</ele>
        <time>2022-09-12T09:28:17Z</time>
      </trkpt>
      <trkpt lat="47.88986" lon="6.8347">
        <ele>823</ele>
        <time>2022-09-12T09:28:18Z</time>
      </trkpt>
      <trkpt lat="47.88986" lon="6.83469">
        <ele>823</ele>
        <time>2022-09-12T09:28:19Z</time>
      </trkpt>
      <trkpt lat="47.88986" lon="6.83468">
        <ele>823</ele>
        <time>2022-09-12T09:28:20Z</time>
      </trkpt>
      <trkpt lat="47.88985" lon="6.83467">
        <ele>823</ele>
        <time>2022-09-12T09:28:21Z</time>
      </trkpt>
      <trkpt lat="47.88985" lon="6.83466">
        <ele>823</ele>
        <time>2022-09-12T09:28:22Z</time>
      </trkpt>
      <trkpt lat="47.88984" lon="6.83465">
        <ele>823</ele>
        <time>2022-09-12T09:28:23Z</time>
      </trkpt>
      <trkpt lat="47.88984" lon="6.83464">
        <ele>823</ele>
        <time>2022-09-12T09:28:24Z</time>
      </trkpt>
      <trkpt lat="47.88983" lon="6.83463">
        <ele>823</ele>
        <time>2022-09-12T09:28:25Z</time>
      </trkpt>
      <trkpt lat="47.88983" lon="6.83462">
        <ele>823</ele>
        <time>2022-09-12T09:28:26Z</time>
      </trkpt>
      <trkpt lat="47.88983" lon="6.83461">
        <ele>823</ele>
        <time>2022-09-12T09:28:27Z</time>
      </trkpt>
      <trkpt lat="47.88982" lon="6.8346">
        <ele>823</ele>
        <time>2022-09-12T09:28:28Z</time>
      </trkpt>
      <trkpt lat="47.88982" lon="6.83458">
        <ele>823</ele>
        <time>2022-09-12T09:28:29Z</time>
      </trkpt>
      <trkpt lat="47.88982" lon="6.83456">
        <ele>823</ele>
        <time>2022-09-12T09:28:30Z</time>
      </trkpt>
      <trkpt lat="47.88981" lon="6.83455">
        <ele>823</ele>
        <time>2022-09-12T09:28:31Z</time>
      </trkpt>
      <trkpt lat="47.88981" lon="6.83453">
        <ele>822</ele>
        <time>2022-09-12T09:28:32Z</time>
      </trkpt>
      <trkpt lat="47.88981" lon="6.83452">
        <ele>822</ele>
        <time>2022-09-12T09:28:33Z</time>
      </trkpt>
      <trkpt lat="47.8898" lon="6.83451">
        <ele>822</ele>
        <time>2022-09-12T09:28:34Z</time>
      </trkpt>
      <trkpt lat="47.8898" lon="6.83449">
        <ele>822</ele>
        <time>2022-09-12T09:28:35Z</time>
      </trkpt>
      <trkpt lat="47.8898" lon="6.83448">
        <ele>822</ele>
        <time>2022-09-12T09:28:36Z</time>
      </trkpt>
      <trkpt lat="47.8898" lon="6.83447">
        <ele>822</ele>
        <time>2022-09-12T09:28:37Z</time>
      </trkpt>
      <trkpt lat="47.8898" lon="6.83445">
        <ele>822</ele>
        <time>2022-09-12T09:28:38Z</time>
      </trkpt>
      <trkpt lat="47.8898" lon="6.83444">
        <ele>822</ele>
        <time>2022-09-12T09:28:39Z</time>
      </trkpt>
      <trkpt lat="47.8898" lon="6.83443">
        <ele>822</ele>
        <time>2022-09-12T09:28:40Z</time>
      </trkpt>
      <trkpt lat="47.8898" lon="6.83442">
        <ele>822</ele>
        <time>2022-09-12T09:28:41Z</time>
      </trkpt>
      <trkpt lat="47.8898" lon="6.83441">
        <ele>821</ele>
        <time>2022-09-12T09:28:42Z</time>
      </trkpt>
      <trkpt lat="47.8898" lon="6.8344">
        <ele>821</ele>
        <time>2022-09-12T09:28:43Z</time>
      </trkpt>
      <trkpt lat="47.8898" lon="6.83439">
        <ele>821</ele>
        <time>2022-09-12T09:28:44Z</time>
      </trkpt>
      <trkpt lat="47.8898" lon="6.83438">
        <ele>821</ele>
        <time>2022-09-12T09:28:45Z</time>
      </trkpt>
      <trkpt lat="47.8898" lon="6.83437">
        <ele>821</ele>
        <time>2022-09-12T09:28:46Z</time>
      </trkpt>
      <trkpt lat="47.8898" lon="6.83436">
        <ele>821</ele>
        <time>2022-09-12T09:28:47Z</time>
      </trkpt>
      <trkpt lat="47.8898" lon="6.83435">
        <ele>821</ele>
        <time>2022-09-12T09:28:48Z</time>
      </trkpt>
      <trkpt lat="47.8898" lon="6.83434">
        <ele>821</ele>
        <time>2022-09-12T09:28:49Z</time>
      </trkpt>
      <trkpt lat="47.8898" lon="6.83433">
        <ele>821</ele>
        <time>2022-09-12T09:28:50Z</time>
      </trkpt>
      <trkpt lat="47.8898" lon="6.83432">
        <ele>821</ele>
        <time>2022-09-12T09:28:51Z</time>
      </trkpt>
      <trkpt lat="47.8898" lon="6.83431">
        <ele>820</ele>
        <time>2022-09-12T09:28:52Z</time>
      </trkpt>
      <trkpt lat="47.8898" lon="6.8343">
        <ele>820</ele>
        <time>2022-09-12T09:28:53Z</time>
      </trkpt>
      <trkpt lat="47.8898" lon="6.83429">
        <ele>820</ele>
        <time>2022-09-12T09:28:54Z</time>
      </trkpt>
      <trkpt lat="47.8898" lon="6.83428">
        <ele>820</ele>
        <time>2022-09-12T09:28:55Z</time>
      </trkpt>
      <trkpt lat="47.8898" lon="6.83427">
        <ele>820</ele>
        <time>2022-09-12T09:28:56Z</time>
      </trkpt>
      <trkpt lat="47.88981" lon="6.83426">
        <ele>820</ele>
        <time>2022-09-12T09:28:57Z</time>
      </trkpt>
      <trkpt lat="47.88981" lon="6.83425">
        <ele>820</ele>
        <time>2022-09-12T09:28:58Z</time>
      </trkpt>
      <trkpt lat="47.8898" lon="6.83424">
        <ele>820</ele>
        <time>2022-09-12T09:28:59Z</time>
      </trkpt>
      <trkpt lat="47.8898" lon="6.83423">
        <ele>820</ele>
        <time>2022-09-12T09:29:00Z</time>
      </trkpt>
      <trkpt lat="47.8898" lon="6.83422">
        <ele>820</ele>
        <time>2022-09-12T09:29:01Z</time>
      </trkpt>
      <trkpt lat="47.8898" lon="6.83421">
        <ele>819</ele>
        <time>2022-09-12T09:29:02Z</time>
      </trkpt>
      <trkpt lat="47.8898" lon="6.8342">
        <ele>819</ele>
        <time>2022-09-12T09:29:03Z</time>
      </trkpt>
      <trkpt lat="47.8898" lon="6.83418">
        <ele>818</ele>
        <time>2022-09-12T09:29:04Z</time>
      </trkpt>
      <trkpt lat="47.88979" lon="6.83417">
        <ele>818</ele>
        <time>2022-09-12T09:29:05Z</time>
      </trkpt>
      <trkpt lat="47.88979" lon="6.83415">
        <ele>818</ele>
        <time>2022-09-12T09:29:06Z</time>
      </trkpt>
      <trkpt lat="47.88979" lon="6.83413">
        <ele>818</ele>
        <time>2022-09-12T09:29:07Z</time>
      </trkpt>
      <trkpt lat="47.88979" lon="6.83412">
        <ele>818</ele>
        <time>2022-09-12T09:29:08Z</time>
      </trkpt>
      <trkpt lat="47.88979" lon="6.83411">
        <ele>818</ele>
        <time>2022-09-12T09:29:09Z</time>
      </trkpt>
      <trkpt lat="47.88979" lon="6.8341">
        <ele>818</ele>
        <time>2022-09-12T09:29:10Z</time>
      </trkpt>
      <trkpt lat="47.88979" lon="6.83409">
        <ele>818</ele>
        <time>2022-09-12T09:29:11Z</time>
      </trkpt>
      <trkpt lat="47.88979" lon="6.83408">
        <ele>817</ele>
        <time>2022-09-12T09:29:12Z</time>
      </trkpt>
      <trkpt lat="47.88979" lon="6.83407">
        <ele>817</ele>
        <time>2022-09-12T09:29:13Z</time>
      </trkpt>
      <trkpt lat="47.88979" lon="6.83406">
        <ele>817</ele>
        <time>2022-09-12T09:29:14Z</time>
      </trkpt>
      <trkpt lat="47.88979" lon="6.83405">
        <ele>817</ele>
        <time>2022-09-12T09:29:15Z</time>
      </trkpt>
      <trkpt lat="47.88979" lon="6.83404">
        <ele>817</ele>
        <time>2022-09-12T09:29:16Z</time>
      </trkpt>
      <trkpt lat="47.88979" lon="6.83402">
        <ele>817</ele>
        <time>2022-09-12T09:29:17Z</time>
      </trkpt>
      <trkpt lat="47.8898" lon="6.83401">
        <ele>817</ele>
        <time>2022-09-12T09:29:18Z</time>
      </trkpt>
      <trkpt lat="47.8898" lon="6.83399">
        <ele>817</ele>
        <time>2022-09-12T09:29:19Z</time>
      </trkpt>
      <trkpt lat="47.8898" lon="6.83398">
        <ele>817</ele>
        <time>2022-09-12T09:29:20Z</time>
      </trkpt>
      <trkpt lat="47.88979" lon="6.83397">
        <ele>817</ele>
        <time>2022-09-12T09:29:21Z</time>
      </trkpt>
      <trkpt lat="47.88979" lon="6.83395">
        <ele>816</ele>
        <time>2022-09-12T09:29:22Z</time>
      </trkpt>
      <trkpt lat="47.88979" lon="6.83394">
        <ele>816</ele>
        <time>2022-09-12T09:29:23Z</time>
      </trkpt>
      <trkpt lat="47.88979" lon="6.83393">
        <ele>816</ele>
        <time>2022-09-12T09:29:24Z</time>
      </trkpt>
      <trkpt lat="47.88979" lon="6.83392">
        <ele>816</ele>
        <time>2022-09-12T09:29:25Z</time>
      </trkpt>
      <trkpt lat="47.88979" lon="6.83391">
        <ele>816</ele>
        <time>2022-09-12T09:29:26Z</time>
      </trkpt>
      <trkpt lat="47.88979" lon="6.8339">
        <ele>816</ele>
        <time>2022-09-12T09:29:27Z</time>
      </trkpt>
      <trkpt lat="47.8898" lon="6.83389">
        <ele>816</ele>
        <time>2022-09-12T09:29:28Z</time>
      </trkpt>
      <trkpt lat="47.8898" lon="6.83388">
        <ele>816</ele>
        <time>2022-09-12T09:29:29Z</time>
      </trkpt>
      <trkpt lat="47.8898" lon="6.83387">
        <ele>816</ele>
        <time>2022-09-12T09:29:30Z</time>
      </trkpt>
      <trkpt lat="47.88979" lon="6.83386">
        <ele>816</ele>
        <time>2022-09-12T09:29:31Z</time>
      </trkpt>
      <trkpt lat="47.88979" lon="6.83384">
        <ele>815</ele>
        <time>2022-09-12T09:29:32Z</time>
      </trkpt>
      <trkpt lat="47.88979" lon="6.83383">
        <ele>815</ele>
        <time>2022-09-12T09:29:33Z</time>
      </trkpt>
      <trkpt lat="47.88978" lon="6.83382">
        <ele>815</ele>
        <time>2022-09-12T09:29:34Z</time>
      </trkpt>
      <trkpt lat="47.88977" lon="6.8338">
        <ele>815</ele>
        <time>2022-09-12T09:29:41Z</time>
      </trkpt>
      <trkpt lat="47.88977" lon="6.83379">
        <ele>815</ele>
        <time>2022-09-12T09:29:42Z</time>
      </trkpt>
      <trkpt lat="47.88976" lon="6.83378">
        <ele>815</ele>
        <time>2022-09-12T09:29:43Z</time>
      </trkpt>
      <trkpt lat="47.88976" lon="6.83377">
        <ele>815</ele>
        <time>2022-09-12T09:29:44Z</time>
      </trkpt>
      <trkpt lat="47.88976" lon="6.83376">
        <ele>815</ele>
        <time>2022-09-12T09:29:45Z</time>
      </trkpt>
      <trkpt lat="47.88976" lon="6.83375">
        <ele>815</ele>
        <time>2022-09-12T09:29:46Z</time>
      </trkpt>
      <trkpt lat="47.88975" lon="6.83374">
        <ele>814</ele>
        <time>2022-09-12T09:29:47Z</time>
      </trkpt>
      <trkpt lat="47.88975" lon="6.83373">
        <ele>814</ele>
        <time>2022-09-12T09:29:48Z</time>
      </trkpt>
      <trkpt lat="47.88975" lon="6.83372">
        <ele>814</ele>
        <time>2022-09-12T09:29:49Z</time>
      </trkpt>
      <trkpt lat="47.88975" lon="6.83372">
        <ele>814</ele>
        <time>2022-09-12T09:29:50Z</time>
      </trkpt>
      <trkpt lat="47.88975" lon="6.83371">
        <ele>814</ele>
        <time>2022-09-12T09:29:51Z</time>
      </trkpt>
      <trkpt lat="47.88975" lon="6.8337">
        <ele>814</ele>
        <time>2022-09-12T09:29:52Z</time>
      </trkpt>
      <trkpt lat="47.88974" lon="6.83369">
        <ele>814</ele>
        <time>2022-09-12T09:29:53Z</time>
      </trkpt>
      <trkpt lat="47.88974" lon="6.83368">
        <ele>814</ele>
        <time>2022-09-12T09:29:54Z</time>
      </trkpt>
      <trkpt lat="47.88974" lon="6.83367">
        <ele>814</ele>
        <time>2022-09-12T09:29:55Z</time>
      </trkpt>
      <trkpt lat="47.88974" lon="6.83365">
        <ele>814</ele>
        <time>2022-09-12T09:29:56Z</time>
      </trkpt>
      <trkpt lat="47.88974" lon="6.83364">
        <ele>813</ele>
        <time>2022-09-12T09:29:57Z</time>
      </trkpt>
      <trkpt lat="47.88974" lon="6.83363">
        <ele>813</ele>
        <time>2022-09-12T09:29:58Z</time>
      </trkpt>
      <trkpt lat="47.88975" lon="6.83362">
        <ele>813</ele>
        <time>2022-09-12T09:29:59Z</time>
      </trkpt>
      <trkpt lat="47.88974" lon="6.83361">
        <ele>813</ele>
        <time>2022-09-12T09:30:00Z</time>
      </trkpt>
      <trkpt lat="47.88974" lon="6.83359">
        <ele>813</ele>
        <time>2022-09-12T09:30:01Z</time>
      </trkpt>
      <trkpt lat="47.88974" lon="6.83358">
        <ele>813</ele>
        <time>2022-09-12T09:30:02Z</time>
      </trkpt>
      <trkpt lat="47.88973" lon="6.83357">
        <ele>813</ele>
        <time>2022-09-12T09:30:03Z</time>
      </trkpt>
      <trkpt lat="47.88973" lon="6.83356">
        <ele>813</ele>
        <time>2022-09-12T09:30:04Z</time>
      </trkpt>
      <trkpt lat="47.88973" lon="6.83355">
        <ele>813</ele>
        <time>2022-09-12T09:30:05Z</time>
      </trkpt>
      <trkpt lat="47.88973" lon="6.83354">
        <ele>813</ele>
        <time>2022-09-12T09:30:06Z</time>
      </trkpt>
      <trkpt lat="47.88973" lon="6.83352">
        <ele>813</ele>
        <time>2022-09-12T09:30:07Z</time>
      </trkpt>
      <trkpt lat="47.88973" lon="6.83351">
        <ele>813</ele>
        <time>2022-09-12T09:30:08Z</time>
      </trkpt>
      <trkpt lat="47.88973" lon="6.83349">
        <ele>813</ele>
        <time>2022-09-12T09:30:09Z</time>
      </trkpt>
      <trkpt lat="47.88973" lon="6.83348">
        <ele>813</ele>
        <time>2022-09-12T09:30:10Z</time>
      </trkpt>
      <trkpt lat="47.88974" lon="6.83346">
        <ele>813</ele>
        <time>2022-09-12T09:30:11Z</time>
      </trkpt>
      <trkpt lat="47.88974" lon="6.83345">
        <ele>812</ele>
        <time>2022-09-12T09:30:12Z</time>
      </trkpt>
      <trkpt lat="47.88974" lon="6.83343">
        <ele>812</ele>
        <time>2022-09-12T09:30:13Z</time>
      </trkpt>
      <trkpt lat="47.88974" lon="6.83341">
        <ele>812</ele>
        <time>2022-09-12T09:30:14Z</time>
      </trkpt>
      <trkpt lat="47.88975" lon="6.83339">
        <ele>812</ele>
        <time>2022-09-12T09:30:15Z</time>
      </trkpt>
      <trkpt lat="47.88975" lon="6.83338">
        <ele>812</ele>
        <time>2022-09-12T09:30:16Z</time>
      </trkpt>
      <trkpt lat="47.88975" lon="6.83337">
        <ele>811</ele>
        <time>2022-09-12T09:30:17Z</time>
      </trkpt>
      <trkpt lat="47.88975" lon="6.83336">
        <ele>811</ele>
        <time>2022-09-12T09:30:18Z</time>
      </trkpt>
      <trkpt lat="47.88975" lon="6.83335">
        <ele>811</ele>
        <time>2022-09-12T09:30:19Z</time>
      </trkpt>
      <trkpt lat="47.88975" lon="6.83334">
        <ele>811</ele>
        <time>2022-09-12T09:30:20Z</time>
      </trkpt>
      <trkpt lat="47.88975" lon="6.83333">
        <ele>811</ele>
        <time>2022-09-12T09:30:21Z</time>
      </trkpt>
      <trkpt lat="47.88975" lon="6.83333">
        <ele>811</ele>
        <time>2022-09-12T09:30:22Z</time>
      </trkpt>
      <trkpt lat="47.88975" lon="6.83332">
        <ele>811</ele>
        <time>2022-09-12T09:30:23Z</time>
      </trkpt>
      <trkpt lat="47.88975" lon="6.83332">
        <ele>811</ele>
        <time>2022-09-12T09:30:24Z</time>
      </trkpt>
      <trkpt lat="47.88975" lon="6.83331">
        <ele>811</ele>
        <time>2022-09-12T09:30:25Z</time>
      </trkpt>
      <trkpt lat="47.88975" lon="6.83331">
        <ele>811</ele>
        <time>2022-09-12T09:30:26Z</time>
      </trkpt>
      <trkpt lat="47.88976" lon="6.8333">
        <ele>810</ele>
        <time>2022-09-12T09:30:27Z</time>
      </trkpt>
      <trkpt lat="47.88976" lon="6.83329">
        <ele>810</ele>
        <time>2022-09-12T09:30:28Z</time>
      </trkpt>
      <trkpt lat="47.88976" lon="6.83329">
        <ele>810</ele>
        <time>2022-09-12T09:30:29Z</time>
      </trkpt>
      <trkpt lat="47.88975" lon="6.83328">
        <ele>810</ele>
        <time>2022-09-12T09:30:30Z</time>
      </trkpt>
      <trkpt lat="47.88975" lon="6.83328">
        <ele>810</ele>
        <time>2022-09-12T09:30:31Z</time>
      </trkpt>
      <trkpt lat="47.88975" lon="6.83328">
        <ele>810</ele>
        <time>2022-09-12T09:30:32Z</time>
      </trkpt>
      <trkpt lat="47.88975" lon="6.83327">
        <ele>810</ele>
        <time>2022-09-12T09:30:33Z</time>
      </trkpt>
      <trkpt lat="47.88975" lon="6.83326">
        <ele>810</ele>
        <time>2022-09-12T09:30:34Z</time>
      </trkpt>
      <trkpt lat="47.88975" lon="6.83325">
        <ele>810</ele>
        <time>2022-09-12T09:30:35Z</time>
      </trkpt>
      <trkpt lat="47.88974" lon="6.83324">
        <ele>810</ele>
        <time>2022-09-12T09:30:36Z</time>
      </trkpt>
      <trkpt lat="47.88974" lon="6.83323">
        <ele>809</ele>
        <time>2022-09-12T09:30:37Z</time>
      </trkpt>
      <trkpt lat="47.88974" lon="6.83322">
        <ele>809</ele>
        <time>2022-09-12T09:30:38Z</time>
      </trkpt>
      <trkpt lat="47.88974" lon="6.83321">
        <ele>809</ele>
        <time>2022-09-12T09:30:39Z</time>
      </trkpt>
      <trkpt lat="47.88973" lon="6.8332">
        <ele>809</ele>
        <time>2022-09-12T09:30:40Z</time>
      </trkpt>
      <trkpt lat="47.88973" lon="6.83319">
        <ele>809</ele>
        <time>2022-09-12T09:30:41Z</time>
      </trkpt>
      <trkpt lat="47.88973" lon="6.83318">
        <ele>808</ele>
        <time>2022-09-12T09:30:42Z</time>
      </trkpt>
      <trkpt lat="47.88972" lon="6.83317">
        <ele>808</ele>
        <time>2022-09-12T09:30:43Z</time>
      </trkpt>
      <trkpt lat="47.88972" lon="6.83316">
        <ele>808</ele>
        <time>2022-09-12T09:30:44Z</time>
      </trkpt>
      <trkpt lat="47.88971" lon="6.83316">
        <ele>808</ele>
        <time>2022-09-12T09:30:45Z</time>
      </trkpt>
      <trkpt lat="47.88971" lon="6.83315">
        <ele>808</ele>
        <time>2022-09-12T09:30:46Z</time>
      </trkpt>
      <trkpt lat="47.88971" lon="6.83314">
        <ele>807</ele>
        <time>2022-09-12T09:30:47Z</time>
      </trkpt>
      <trkpt lat="47.88971" lon="6.8331">
        <ele>806</ele>
        <time>2022-09-12T09:30:56Z</time>
      </trkpt>
      <trkpt lat="47.88972" lon="6.83309">
        <ele>806</ele>
        <time>2022-09-12T09:30:57Z</time>
      </trkpt>
      <trkpt lat="47.88972" lon="6.83307">
        <ele>806</ele>
        <time>2022-09-12T09:30:58Z</time>
      </trkpt>
      <trkpt lat="47.88972" lon="6.83306">
        <ele>806</ele>
        <time>2022-09-12T09:30:59Z</time>
      </trkpt>
      <trkpt lat="47.88972" lon="6.83305">
        <ele>806</ele>
        <time>2022-09-12T09:31:00Z</time>
      </trkpt>
      <trkpt lat="47.88972" lon="6.83304">
        <ele>806</ele>
        <time>2022-09-12T09:31:01Z</time>
      </trkpt>
      <trkpt lat="47.88971" lon="6.83303">
        <ele>805</ele>
        <time>2022-09-12T09:31:02Z</time>
      </trkpt>
      <trkpt lat="47.88971" lon="6.83302">
        <ele>805</ele>
        <time>2022-09-12T09:31:03Z</time>
      </trkpt>
      <trkpt lat="47.88971" lon="6.833">
        <ele>805</ele>
        <time>2022-09-12T09:31:04Z</time>
      </trkpt>
      <trkpt lat="47.8897" lon="6.83299">
        <ele>805</ele>
        <time>2022-09-12T09:31:05Z</time>
      </trkpt>
      <trkpt lat="47.8897" lon="6.83298">
        <ele>805</ele>
        <time>2022-09-12T09:31:06Z</time>
      </trkpt>
      <trkpt lat="47.88971" lon="6.83296">
        <ele>804</ele>
        <time>2022-09-12T09:31:07Z</time>
      </trkpt>
      <trkpt lat="47.88971" lon="6.83295">
        <ele>804</ele>
        <time>2022-09-12T09:31:08Z</time>
      </trkpt>
      <trkpt lat="47.88971" lon="6.83294">
        <ele>804</ele>
        <time>2022-09-12T09:31:09Z</time>
      </trkpt>
      <trkpt lat="47.88971" lon="6.83293">
        <ele>804</ele>
        <time>2022-09-12T09:31:10Z</time>
      </trkpt>
      <trkpt lat="47.88971" lon="6.83292">
        <ele>804</ele>
        <time>2022-09-12T09:31:11Z</time>
      </trkpt>
      <trkpt lat="47.88971" lon="6.83291">
        <ele>804</ele>
        <time>2022-09-12T09:31:12Z</time>
      </trkpt>
      <trkpt lat="47.88971" lon="6.83291">
        <ele>804</ele>
        <time>2022-09-12T09:31:13Z</time>
      </trkpt>
      <trkpt lat="47.88971" lon="6.8329">
        <ele>804</ele>
        <time>2022-09-12T09:31:14Z</time>
      </trkpt>
      <trkpt lat="47.88972" lon="6.83289">
        <ele>804</ele>
        <time>2022-09-12T09:31:15Z</time>
      </trkpt>
      <trkpt lat="47.88971" lon="6.83288">
        <ele>804</ele>
        <time>2022-09-12T09:31:16Z</time>
      </trkpt>
      <trkpt lat="47.88971" lon="6.83288">
        <ele>803</ele>
        <time>2022-09-12T09:31:17Z</time>
      </trkpt>
      <trkpt lat="47.88971" lon="6.83286">
        <ele>803</ele>
        <time>2022-09-12T09:31:18Z</time>
      </trkpt>
      <trkpt lat="47.8897" lon="6.83285">
        <ele>803</ele>
        <time>2022-09-12T09:31:19Z</time>
      </trkpt>
      <trkpt lat="47.8897" lon="6.83284">
        <ele>803</ele>
        <time>2022-09-12T09:31:20Z</time>
      </trkpt>
      <trkpt lat="47.8897" lon="6.83282">
        <ele>803</ele>
        <time>2022-09-12T09:31:21Z</time>
      </trkpt>
      <trkpt lat="47.88969" lon="6.83281">
        <ele>802</ele>
        <time>2022-09-12T09:31:22Z</time>
      </trkpt>
      <trkpt lat="47.88969" lon="6.83281">
        <ele>802</ele>
        <time>2022-09-12T09:31:23Z</time>
      </trkpt>
      <trkpt lat="47.88969" lon="6.8328">
        <ele>802</ele>
        <time>2022-09-12T09:31:24Z</time>
      </trkpt>
      <trkpt lat="47.88969" lon="6.83279">
        <ele>802</ele>
        <time>2022-09-12T09:31:25Z</time>
      </trkpt>
      <trkpt lat="47.88969" lon="6.83278">
        <ele>802</ele>
        <time>2022-09-12T09:31:26Z</time>
      </trkpt>
      <trkpt lat="47.8897" lon="6.83278">
        <ele>802</ele>
        <time>2022-09-12T09:31:27Z</time>
      </trkpt>
      <trkpt lat="47.8897" lon="6.83277">
        <ele>802</ele>
        <time>2022-09-12T09:31:28Z</time>
      </trkpt>
      <trkpt lat="47.8897" lon="6.83276">
        <ele>802</ele>
        <time>2022-09-12T09:31:29Z</time>
      </trkpt>
      <trkpt lat="47.8897" lon="6.83275">
        <ele>802</ele>
        <time>2022-09-12T09:31:30Z</time>
      </trkpt>
      <trkpt lat="47.8897" lon="6.83274">
        <ele>802</ele>
        <time>2022-09-12T09:31:31Z</time>
      </trkpt>
      <trkpt lat="47.88971" lon="6.83273">
        <ele>801</ele>
        <time>2022-09-12T09:31:32Z</time>
      </trkpt>
      <trkpt lat="47.88971" lon="6.83272">
        <ele>801</ele>
        <time>2022-09-12T09:31:33Z</time>
      </trkpt>
      <trkpt lat="47.88971" lon="6.83271">
        <ele>801</ele>
        <time>2022-09-12T09:31:34Z</time>
      </trkpt>
      <trkpt lat="47.88971" lon="6.83271">
        <ele>801</ele>
        <time>2022-09-12T09:31:35Z</time>
      </trkpt>
      <trkpt lat="47.88971" lon="6.8327">
        <ele>801</ele>
        <time>2022-09-12T09:31:36Z</time>
      </trkpt>
      <trkpt lat="47.88972" lon="6.83269">
        <ele>801</ele>
        <time>2022-09-12T09:31:37Z</time>
      </trkpt>
      <trkpt lat="47.88972" lon="6.83267">
        <ele>801</ele>
        <time>2022-09-12T09:31:38Z</time>
      </trkpt>
      <trkpt lat="47.88972" lon="6.83266">
        <ele>801</ele>
        <time>2022-09-12T09:31:39Z</time>
      </trkpt>
      <trkpt lat="47.88972" lon="6.83265">
        <ele>801</ele>
        <time>2022-09-12T09:31:40Z</time>
      </trkpt>
      <trkpt lat="47.88972" lon="6.83264">
        <ele>801</ele>
        <time>2022-09-12T09:31:41Z</time>
      </trkpt>
      <trkpt lat="47.88972" lon="6.83263">
        <ele>800</ele>
        <time>2022-09-12T09:31:42Z</time>
      </trkpt>
      <trkpt lat="47.88972" lon="6.83261">
        <ele>800</ele>
        <time>2022-09-12T09:31:43Z</time>
      </trkpt>
      <trkpt lat="47.88972" lon="6.8326">
        <ele>800</ele>
        <time>2022-09-12T09:31:44Z</time>
      </trkpt>
      <trkpt lat="47.88972" lon="6.83259">
        <ele>800</ele>
        <time>2022-09-12T09:31:45Z</time>
      </trkpt>
      <trkpt lat="47.88972" lon="6.83258">
        <ele>800</ele>
        <time>2022-09-12T09:31:46Z</time>
      </trkpt>
      <trkpt lat="47.88972" lon="6.83257">
        <ele>800</ele>
        <time>2022-09-12T09:31:47Z</time>
      </trkpt>
      <trkpt lat="47.88972" lon="6.83256">
        <ele>800</ele>
        <time>2022-09-12T09:31:48Z</time>
      </trkpt>
      <trkpt lat="47.88972" lon="6.83256">
        <ele>800</ele>
        <time>2022-09-12T09:31:49Z</time>
      </trkpt>
      <trkpt lat="47.88972" lon="6.83255">
        <ele>800</ele>
        <time>2022-09-12T09:31:50Z</time>
      </trkpt>
      <trkpt lat="47.88972" lon="6.83254">
        <ele>800</ele>
        <time>2022-09-12T09:31:51Z</time>
      </trkpt>
      <trkpt lat="47.88973" lon="6.83253">
        <ele>799</ele>
        <time>2022-09-12T09:31:52Z</time>
      </trkpt>
      <trkpt lat="47.88973" lon="6.83252">
        <ele>799</ele>
        <time>2022-09-12T09:31:53Z</time>
      </trkpt>
      <trkpt lat="47.88973" lon="6.83251">
        <ele>799</ele>
        <time>2022-09-12T09:31:54Z</time>
      </trkpt>
      <trkpt lat="47.88973" lon="6.83249">
        <ele>799</ele>
        <time>2022-09-12T09:31:55Z</time>
      </trkpt>
      <trkpt lat="47.88973" lon="6.83248">
        <ele>799</ele>
        <time>2022-09-12T09:31:56Z</time>
      </trkpt>
      <trkpt lat="47.88973" lon="6.83246">
        <ele>798</ele>
        <time>2022-09-12T09:31:57Z</time>
      </trkpt>
      <trkpt lat="47.88972" lon="6.83245">
        <ele>798</ele>
        <time>2022-09-12T09:31:58Z</time>
      </trkpt>
      <trkpt lat="47.88972" lon="6.83244">
        <ele>798</ele>
        <time>2022-09-12T09:31:59Z</time>
      </trkpt>
      <trkpt lat="47.88972" lon="6.83243">
        <ele>798</ele>
        <time>2022-09-12T09:32:00Z</time>
      </trkpt>
      <trkpt lat="47.88972" lon="6.83242">
        <ele>798</ele>
        <time>2022-09-12T09:32:01Z</time>
      </trkpt>
      <trkpt lat="47.88971" lon="6.83241">
        <ele>798</ele>
        <time>2022-09-12T09:32:02Z</time>
      </trkpt>
      <trkpt lat="47.88971" lon="6.83241">
        <ele>798</ele>
        <time>2022-09-12T09:32:03Z</time>
      </trkpt>
      <trkpt lat="47.88971" lon="6.8324">
        <ele>798</ele>
        <time>2022-09-12T09:32:04Z</time>
      </trkpt>
      <trkpt lat="47.88971" lon="6.83239">
        <ele>798</ele>
        <time>2022-09-12T09:32:05Z</time>
      </trkpt>
      <trkpt lat="47.88971" lon="6.83238">
        <ele>798</ele>
        <time>2022-09-12T09:32:06Z</time>
      </trkpt>
      <trkpt lat="47.8897" lon="6.83237">
        <ele>797</ele>
        <time>2022-09-12T09:32:07Z</time>
      </trkpt>
      <trkpt lat="47.8897" lon="6.83237">
        <ele>797</ele>
        <time>2022-09-12T09:32:08Z</time>
      </trkpt>
      <trkpt lat="47.8897" lon="6.83236">
        <ele>797</ele>
        <time>2022-09-12T09:32:09Z</time>
      </trkpt>
      <trkpt lat="47.8897" lon="6.83235">
        <ele>797</ele>
        <time>2022-09-12T09:32:10Z</time>
      </trkpt>
      <trkpt lat="47.88969" lon="6.83233">
        <ele>797</ele>
        <time>2022-09-12T09:32:16Z</time>
      </trkpt>
      <trkpt lat="47.88969" lon="6.83232">
        <ele>797</ele>
        <time>2022-09-12T09:32:17Z</time>
      </trkpt>
      <trkpt lat="47.88969" lon="6.83231">
        <ele>797</ele>
        <time>2022-09-12T09:32:18Z</time>
      </trkpt>
      <trkpt lat="47.88969" lon="6.8323">
        <ele>797</ele>
        <time>2022-09-12T09:32:19Z</time>
      </trkpt>
      <trkpt lat="47.88969" lon="6.83229">
        <ele>797</ele>
        <time>2022-09-12T09:32:20Z</time>
      </trkpt>
      <trkpt lat="47.88969" lon="6.83229">
        <ele>797</ele>
        <time>2022-09-12T09:32:21Z</time>
      </trkpt>
      <trkpt lat="47.88968" lon="6.83228">
        <ele>796</ele>
        <time>2022-09-12T09:32:22Z</time>
      </trkpt>
      <trkpt lat="47.88968" lon="6.83227">
        <ele>796</ele>
        <time>2022-09-12T09:32:23Z</time>
      </trkpt>
      <trkpt lat="47.88968" lon="6.83226">
        <ele>796</ele>
        <time>2022-09-12T09:32:24Z</time>
      </trkpt>
      <trkpt lat="47.88968" lon="6.83226">
        <ele>796</ele>
        <time>2022-09-12T09:32:25Z</time>
      </trkpt>
      <trkpt lat="47.88968" lon="6.83225">
        <ele>796</ele>
        <time>2022-09-12T09:32:26Z</time>
      </trkpt>
      <trkpt lat="47.88968" lon="6.83224">
        <ele>795</ele>
        <time>2022-09-12T09:32:27Z</time>
      </trkpt>
      <trkpt lat="47.88968" lon="6.83223">
        <ele>795</ele>
        <time>2022-09-12T09:32:28Z</time>
      </trkpt>
      <trkpt lat="47.88968" lon="6.83222">
        <ele>795</ele>
        <time>2022-09-12T09:32:29Z</time>
      </trkpt>
      <trkpt lat="47.88968" lon="6.83222">
        <ele>795</ele>
        <time>2022-09-12T09:32:30Z</time>
      </trkpt>
      <trkpt lat="47.88968" lon="6.8322">
        <ele>795</ele>
        <time>2022-09-12T09:32:31Z</time>
      </trkpt>
      <trkpt lat="47.88968" lon="6.83219">
        <ele>795</ele>
        <time>2022-09-12T09:32:32Z</time>
      </trkpt>
      <trkpt lat="47.88968" lon="6.83218">
        <ele>795</ele>
        <time>2022-09-12T09:32:33Z</time>
      </trkpt>
      <trkpt lat="47.88969" lon="6.83216">
        <ele>795</ele>
        <time>2022-09-12T09:32:34Z</time>
      </trkpt>
      <trkpt lat="47.88969" lon="6.83215">
        <ele>795</ele>
        <time>2022-09-12T09:32:35Z</time>
      </trkpt>
      <trkpt lat="47.88969" lon="6.83213">
        <ele>795</ele>
        <time>2022-09-12T09:32:36Z</time>
      </trkpt>
      <trkpt lat="47.8897" lon="6.83212">
        <ele>794</ele>
        <time>2022-09-12T09:32:37Z</time>
      </trkpt>
      <trkpt lat="47.8897" lon="6.83211">
        <ele>794</ele>
        <time>2022-09-12T09:32:38Z</time>
      </trkpt>
      <trkpt lat="47.88971" lon="6.8321">
        <ele>794</ele>
        <time>2022-09-12T09:32:39Z</time>
      </trkpt>
      <trkpt lat="47.88971" lon="6.83209">
        <ele>794</ele>
        <time>2022-09-12T09:32:40Z</time>
      </trkpt>
      <trkpt lat="47.88971" lon="6.83208">
        <ele>794</ele>
        <time>2022-09-12T09:32:41Z</time>
      </trkpt>
      <trkpt lat="47.88971" lon="6.83208">
        <ele>794</ele>
        <time>2022-09-12T09:32:42Z</time>
      </trkpt>
      <trkpt lat="47.88972" lon="6.83207">
        <ele>794</ele>
        <time>2022-09-12T09:32:43Z</time>
      </trkpt>
      <trkpt lat="47.88972" lon="6.83206">
        <ele>794</ele>
        <time>2022-09-12T09:32:44Z</time>
      </trkpt>
      <trkpt lat="47.88972" lon="6.83205">
        <ele>794</ele>
        <time>2022-09-12T09:32:45Z</time>
      </trkpt>
      <trkpt lat="47.88972" lon="6.83204">
        <ele>794</ele>
        <time>2022-09-12T09:32:46Z</time>
      </trkpt>
      <trkpt lat="47.88972" lon="6.83204">
        <ele>793</ele>
        <time>2022-09-12T09:32:47Z</time>
      </trkpt>
      <trkpt lat="47.88972" lon="6.83203">
        <ele>793</ele>
        <time>2022-09-12T09:32:48Z</time>
      </trkpt>
      <trkpt lat="47.88972" lon="6.83201">
        <ele>793</ele>
        <time>2022-09-12T09:32:49Z</time>
      </trkpt>
      <trkpt lat="47.88972" lon="6.832">
        <ele>793</ele>
        <time>2022-09-12T09:32:50Z</time>
      </trkpt>
      <trkpt lat="47.88972" lon="6.83199">
        <ele>793</ele>
        <time>2022-09-12T09:32:51Z</time>
      </trkpt>
      <trkpt lat="47.88973" lon="6.83198">
        <ele>793</ele>
        <time>2022-09-12T09:32:52Z</time>
      </trkpt>
      <trkpt lat="47.88973" lon="6.83198">
        <ele>793</ele>
        <time>2022-09-12T09:32:53Z</time>
      </trkpt>
      <trkpt lat="47.88973" lon="6.83197">
        <ele>793</ele>
        <time>2022-09-12T09:32:54Z</time>
      </trkpt>
      <trkpt lat="47.88973" lon="6.83197">
        <ele>793</ele>
        <time>2022-09-12T09:32:55Z</time>
      </trkpt>
      <trkpt lat="47.88973" lon="6.83196">
        <ele>793</ele>
        <time>2022-09-12T09:32:56Z</time>
      </trkpt>
      <trkpt lat="47.88973" lon="6.83195">
        <ele>792</ele>
        <time>2022-09-12T09:32:57Z</time>
      </trkpt>
      <trkpt lat="47.88972" lon="6.83194">
        <ele>792</ele>
        <time>2022-09-12T09:32:58Z</time>
      </trkpt>
      <trkpt lat="47.88972" lon="6.83194">
        <ele>792</ele>
        <time>2022-09-12T09:32:59Z</time>
      </trkpt>
      <trkpt lat="47.88972" lon="6.83193">
        <ele>792</ele>
        <time>2022-09-12T09:33:00Z</time>
      </trkpt>
      <trkpt lat="47.88972" lon="6.83188">
        <ele>790</ele>
        <time>2022-09-12T09:33:14Z</time>
      </trkpt>
      <trkpt lat="47.88972" lon="6.83186">
        <ele>790</ele>
        <time>2022-09-12T09:33:15Z</time>
      </trkpt>
      <trkpt lat="47.88972" lon="6.83184">
        <ele>790</ele>
        <time>2022-09-12T09:33:16Z</time>
      </trkpt>
      <trkpt lat="47.88972" lon="6.83182">
        <ele>790</ele>
        <time>2022-09-12T09:33:17Z</time>
      </trkpt>
      <trkpt lat="47.88971" lon="6.83181">
        <ele>790</ele>
        <time>2022-09-12T09:33:18Z</time>
      </trkpt>
      <trkpt lat="47.88971" lon="6.8318">
        <ele>790</ele>
        <time>2022-09-12T09:33:19Z</time>
      </trkpt>
      <trkpt lat="47.88971" lon="6.83179">
        <ele>790</ele>
        <time>2022-09-12T09:33:20Z</time>
      </trkpt>
      <trkpt lat="47.88971" lon="6.83178">
        <ele>790</ele>
        <time>2022-09-12T09:33:21Z</time>
      </trkpt>
      <trkpt lat="47.88971" lon="6.83177">
        <ele>789</ele>
        <time>2022-09-12T09:33:22Z</time>
      </trkpt>
      <trkpt lat="47.88971" lon="6.83176">
        <ele>789</ele>
        <time>2022-09-12T09:33:23Z</time>
      </trkpt>
      <trkpt lat="47.88971" lon="6.83175">
        <ele>789</ele>
        <time>2022-09-12T09:33:24Z</time>
      </trkpt>
      <trkpt lat="47.8897" lon="6.83174">
        <ele>789</ele>
        <time>2022-09-12T09:33:25Z</time>
      </trkpt>
      <trkpt lat="47.8897" lon="6.83173">
        <ele>789</ele>
        <time>2022-09-12T09:33:26Z</time>
      </trkpt>
      <trkpt lat="47.8897" lon="6.83171">
        <ele>788</ele>
        <time>2022-09-12T09:33:27Z</time>
      </trkpt>
      <trkpt lat="47.88969" lon="6.8317">
        <ele>788</ele>
        <time>2022-09-12T09:33:28Z</time>
      </trkpt>
      <trkpt lat="47.88969" lon="6.83169">
        <ele>788</ele>
        <time>2022-09-12T09:33:29Z</time>
      </trkpt>
      <trkpt lat="47.88969" lon="6.83168">
        <ele>788</ele>
        <time>2022-09-12T09:33:30Z</time>
      </trkpt>
      <trkpt lat="47.88969" lon="6.83167">
        <ele>788</ele>
        <time>2022-09-12T09:33:31Z</time>
      </trkpt>
      <trkpt lat="47.88968" lon="6.83166">
        <ele>788</ele>
        <time>2022-09-12T09:33:32Z</time>
      </trkpt>
      <trkpt lat="47.88968" lon="6.83165">
        <ele>788</ele>
        <time>2022-09-12T09:33:33Z</time>
      </trkpt>
      <trkpt lat="47.88968" lon="6.8316">
        <ele>785</ele>
        <time>2022-09-12T09:33:53Z</time>
      </trkpt>
      <trkpt lat="47.88968" lon="6.83158">
        <ele>785</ele>
        <time>2022-09-12T09:33:54Z</time>
      </trkpt>
      <trkpt lat="47.88968" lon="6.83155">
        <ele>785</ele>
        <time>2022-09-12T09:33:55Z</time>
      </trkpt>
      <trkpt lat="47.88968" lon="6.83154">
        <ele>785</ele>
        <time>2022-09-12T09:33:56Z</time>
      </trkpt>
      <trkpt lat="47.88968" lon="6.83153">
        <ele>785</ele>
        <time>2022-09-12T09:33:57Z</time>
      </trkpt>
      <trkpt lat="47.88968" lon="6.83151">
        <ele>785</ele>
        <time>2022-09-12T09:33:58Z</time>
      </trkpt>
      <trkpt lat="47.88968" lon="6.8315">
        <ele>785</ele>
        <time>2022-09-12T09:33:59Z</time>
      </trkpt>
      <trkpt lat="47.88968" lon="6.83149">
        <ele>785</ele>
        <time>2022-09-12T09:34:00Z</time>
      </trkpt>
      <trkpt lat="47.88968" lon="6.83148">
        <ele>785</ele>
        <time>2022-09-12T09:34:01Z</time>
      </trkpt>
      <trkpt lat="47.88968" lon="6.83147">
        <ele>784</ele>
        <time>2022-09-12T09:34:02Z</time>
      </trkpt>
      <trkpt lat="47.88968" lon="6.83146">
        <ele>784</ele>
        <time>2022-09-12T09:34:03Z</time>
      </trkpt>
      <trkpt lat="47.88968" lon="6.83145">
        <ele>784</ele>
        <time>2022-09-12T09:34:04Z</time>
      </trkpt>
      <trkpt lat="47.88968" lon="6.83144">
        <ele>784</ele>
        <time>2022-09-12T09:34:05Z</time>
      </trkpt>
      <trkpt lat="47.88968" lon="6.83142">
        <ele>784</ele>
        <time>2022-09-12T09:34:06Z</time>
      </trkpt>
      <trkpt lat="47.88969" lon="6.83141">
        <ele>784</ele>
        <time>2022-09-12T09:34:07Z</time>
      </trkpt>
      <trkpt lat="47.88969" lon="6.83139">
        <ele>784</ele>
        <time>2022-09-12T09:34:08Z</time>
      </trkpt>
      <trkpt lat="47.8897" lon="6.83138">
        <ele>784</ele>
        <time>2022-09-12T09:34:09Z</time>
      </trkpt>
      <trkpt lat="47.8897" lon="6.83136">
        <ele>784</ele>
        <time>2022-09-12T09:34:10Z</time>
      </trkpt>
      <trkpt lat="47.88971" lon="6.83135">
        <ele>784</ele>
        <time>2022-09-12T09:34:11Z</time>
      </trkpt>
      <trkpt lat="47.88971" lon="6.83134">
        <ele>783</ele>
        <time>2022-09-12T09:34:12Z</time>
      </trkpt>
      <trkpt lat="47.88971" lon="6.83133">
        <ele>783</ele>
        <time>2022-09-12T09:34:13Z</time>
      </trkpt>
      <trkpt lat="47.88971" lon="6.83132">
        <ele>783</ele>
        <time>2022-09-12T09:34:14Z</time>
      </trkpt>
      <trkpt lat="47.88971" lon="6.83132">
        <ele>783</ele>
        <time>2022-09-12T09:34:15Z</time>
      </trkpt>
      <trkpt lat="47.88971" lon="6.83131">
        <ele>783</ele>
        <time>2022-09-12T09:34:16Z</time>
      </trkpt>
      <trkpt lat="47.8897" lon="6.8313">
        <ele>782</ele>
        <time>2022-09-12T09:34:17Z</time>
      </trkpt>
      <trkpt lat="47.8897" lon="6.83129">
        <ele>782</ele>
        <time>2022-09-12T09:34:18Z</time>
      </trkpt>
      <trkpt lat="47.8897" lon="6.83128">
        <ele>782</ele>
        <time>2022-09-12T09:34:19Z</time>
      </trkpt>
      <trkpt lat="47.8897" lon="6.83127">
        <ele>782</ele>
        <time>2022-09-12T09:34:20Z</time>
      </trkpt>
      <trkpt lat="47.8897" lon="6.83126">
        <ele>782</ele>
        <time>2022-09-12T09:34:21Z</time>
      </trkpt>
      <trkpt lat="47.88971" lon="6.83125">
        <ele>781</ele>
        <time>2022-09-12T09:34:22Z</time>
      </trkpt>
      <trkpt lat="47.88971" lon="6.83121">
        <ele>780</ele>
        <time>2022-09-12T09:34:37Z</time>
      </trkpt>
      <trkpt lat="47.88971" lon="6.83119">
        <ele>780</ele>
        <time>2022-09-12T09:34:38Z</time>
      </trkpt>
      <trkpt lat="47.88971" lon="6.83117">
        <ele>780</ele>
        <time>2022-09-12T09:34:39Z</time>
      </trkpt>
      <trkpt lat="47.88971" lon="6.83116">
        <ele>780</ele>
        <time>2022-09-12T09:34:40Z</time>
      </trkpt>
      <trkpt lat="47.88971" lon="6.83116">
        <ele>780</ele>
        <time>2022-09-12T09:34:41Z</time>
      </trkpt>
      <trkpt lat="47.88971" lon="6.83115">
        <ele>780</ele>
        <time>2022-09-12T09:34:42Z</time>
      </trkpt>
      <trkpt lat="47.88971" lon="6.83114">
        <ele>780</ele>
        <time>2022-09-12T09:34:43Z</time>
      </trkpt>
      <trkpt lat="47.88971" lon="6.83113">
        <ele>780</ele>
        <time>2022-09-12T09:34:44Z</time>
      </trkpt>
      <trkpt lat="47.88971" lon="6.83113">
        <ele>780</ele>
        <time>2022-09-12T09:34:45Z</time>
      </trkpt>
      <trkpt lat="47.88971" lon="6.83112">
        <ele>780</ele>
        <time>2022-09-12T09:34:46Z</time>
      </trkpt>
      <trkpt lat="47.8897" lon="6.83112">
        <ele>780</ele>
        <time>2022-09-12T09:34:47Z</time>
      </trkpt>
      <trkpt lat="47.8897" lon="6.83111">
        <ele>780</ele>
        <time>2022-09-12T09:34:48Z</time>
      </trkpt>
      <trkpt lat="47.88969" lon="6.83111">
        <ele>780</ele>
        <time>2022-09-12T09:34:49Z</time>
      </trkpt>
      <trkpt lat="47.88968" lon="6.83111">
        <ele>780</ele>
        <time>2022-09-12T09:34:50Z</time>
      </trkpt>
      <trkpt lat="47.88968" lon="6.8311">
        <ele>781</ele>
        <time>2022-09-12T09:34:51Z</time>
      </trkpt>
      <trkpt lat="47.88967" lon="6.8311">
        <ele>781</ele>
        <time>2022-09-12T09:34:52Z</time>
      </trkpt>
      <trkpt lat="47.88967" lon="6.8311">
        <ele>781</ele>
        <time>2022-09-12T09:34:53Z</time>
      </trkpt>
      <trkpt lat="47.88966" lon="6.8311">
        <ele>781</ele>
        <time>2022-09-12T09:34:54Z</time>
      </trkpt>
      <trkpt lat="47.88965" lon="6.83109">
        <ele>781</ele>
        <time>2022-09-12T09:34:55Z</time>
      </trkpt>
      <trkpt lat="47.88964" lon="6.83109">
        <ele>781</ele>
        <time>2022-09-12T09:34:56Z</time>
      </trkpt>
      <trkpt lat="47.88963" lon="6.83108">
        <ele>781</ele>
        <time>2022-09-12T09:34:57Z</time>
      </trkpt>
      <trkpt lat="47.88962" lon="6.83107">
        <ele>781</ele>
        <time>2022-09-12T09:34:58Z</time>
      </trkpt>
      <trkpt lat="47.88961" lon="6.83106">
        <ele>781</ele>
        <time>2022-09-12T09:34:59Z</time>
      </trkpt>
      <trkpt lat="47.8896" lon="6.83106">
        <ele>781</ele>
        <time>2022-09-12T09:35:00Z</time>
      </trkpt>
      <trkpt lat="47.88959" lon="6.83105">
        <ele>781</ele>
        <time>2022-09-12T09:35:01Z</time>
      </trkpt>
      <trkpt lat="47.88958" lon="6.83104">
        <ele>781</ele>
        <time>2022-09-12T09:35:02Z</time>
      </trkpt>
      <trkpt lat="47.88957" lon="6.83103">
        <ele>781</ele>
        <time>2022-09-12T09:35:03Z</time>
      </trkpt>
      <trkpt lat="47.88956" lon="6.83103">
        <ele>781</ele>
        <time>2022-09-12T09:35:04Z</time>
      </trkpt>
      <trkpt lat="47.88955" lon="6.83102">
        <ele>781</ele>
        <time>2022-09-12T09:35:05Z</time>
      </trkpt>
      <trkpt lat="47.88954" lon="6.831">
        <ele>782</ele>
        <time>2022-09-12T09:35:11Z</time>
      </trkpt>
      <trkpt lat="47.88954" lon="6.831">
        <ele>782</ele>
        <time>2022-09-12T09:35:12Z</time>
      </trkpt>
      <trkpt lat="47.88953" lon="6.83099">
        <ele>782</ele>
        <time>2022-09-12T09:35:13Z</time>
      </trkpt>
      <trkpt lat="47.88953" lon="6.83098">
        <ele>782</ele>
        <time>2022-09-12T09:35:14Z</time>
      </trkpt>
      <trkpt lat="47.88952" lon="6.83097">
        <ele>782</ele>
        <time>2022-09-12T09:35:15Z</time>
      </trkpt>
      <trkpt lat="47.88952" lon="6.83096">
        <ele>782</ele>
        <time>2022-09-12T09:35:16Z</time>
      </trkpt>
      <trkpt lat="47.88951" lon="6.83095">
        <ele>782</ele>
        <time>2022-09-12T09:35:17Z</time>
      </trkpt>
      <trkpt lat="47.88951" lon="6.83094">
        <ele>782</ele>
        <time>2022-09-12T09:35:18Z</time>
      </trkpt>
      <trkpt lat="47.8895" lon="6.83093">
        <ele>782</ele>
        <time>2022-09-12T09:35:19Z</time>
      </trkpt>
      <trkpt lat="47.8895" lon="6.83092">
        <ele>782</ele>
        <time>2022-09-12T09:35:20Z</time>
      </trkpt>
      <trkpt lat="47.88949" lon="6.83091">
        <ele>782</ele>
        <time>2022-09-12T09:35:21Z</time>
      </trkpt>
      <trkpt lat="47.88949" lon="6.83089">
        <ele>782</ele>
        <time>2022-09-12T09:35:22Z</time>
      </trkpt>
      <trkpt lat="47.88948" lon="6.83088">
        <ele>782</ele>
        <time>2022-09-12T09:35:23Z</time>
      </trkpt>
      <trkpt lat="47.88948" lon="6.83087">
        <ele>782</ele>
        <time>2022-09-12T09:35:24Z</time>
      </trkpt>
      <trkpt lat="47.88947" lon="6.83086">
        <ele>782</ele>
        <time>2022-09-12T09:35:25Z</time>
      </trkpt>
      <trkpt lat="47.88947" lon="6.83085">
        <ele>782</ele>
        <time>2022-09-12T09:35:26Z</time>
      </trkpt>
      <trkpt lat="47.88947" lon="6.83083">
        <ele>782</ele>
        <time>2022-09-12T09:35:27Z</time>
      </trkpt>
      <trkpt lat="47.88947" lon="6.83082">
        <ele>782</ele>
        <time>2022-09-12T09:35:28Z</time>
      </trkpt>
      <trkpt lat="47.88947" lon="6.83081">
        <ele>782</ele>
        <time>2022-09-12T09:35:29Z</time>
      </trkpt>
      <trkpt lat="47.88947" lon="6.83079">
        <ele>782</ele>
        <time>2022-09-12T09:35:30Z</time>
      </trkpt>
      <trkpt lat="47.88946" lon="6.83077">
        <ele>782</ele>
        <time>2022-09-12T09:35:31Z</time>
      </trkpt>
      <trkpt lat="47.88946" lon="6.83076">
        <ele>782</ele>
        <time>2022-09-12T09:35:32Z</time>
      </trkpt>
      <trkpt lat="47.88946" lon="6.83074">
        <ele>782</ele>
        <time>2022-09-12T09:35:33Z</time>
      </trkpt>
      <trkpt lat="47.88946" lon="6.83072">
        <ele>782</ele>
        <time>2022-09-12T09:35:34Z</time>
      </trkpt>
      <trkpt lat="47.88946" lon="6.83071">
        <ele>782</ele>
        <time>2022-09-12T09:35:35Z</time>
      </trkpt>
      <trkpt lat="47.88945" lon="6.83069">
        <ele>782</ele>
        <time>2022-09-12T09:35:36Z</time>
      </trkpt>
      <trkpt lat="47.88945" lon="6.83067">
        <ele>781</ele>
        <time>2022-09-12T09:35:37Z</time>
      </trkpt>
      <trkpt lat="47.88944" lon="6.83066">
        <ele>781</ele>
        <time>2022-09-12T09:35:38Z</time>
      </trkpt>
      <trkpt lat="47.88944" lon="6.83064">
        <ele>781</ele>
        <time>2022-09-12T09:35:39Z</time>
      </trkpt>
      <trkpt lat="47.88944" lon="6.83062">
        <ele>781</ele>
        <time>2022-09-12T09:35:40Z</time>
      </trkpt>
      <trkpt lat="47.88943" lon="6.83061">
        <ele>781</ele>
        <time>2022-09-12T09:35:41Z</time>
      </trkpt>
      <trkpt lat="47.88943" lon="6.83059">
        <ele>781</ele>
        <time>2022-09-12T09:35:42Z</time>
      </trkpt>
      <trkpt lat="47.88943" lon="6.83057">
        <ele>781</ele>
        <time>2022-09-12T09:35:43Z</time>
      </trkpt>
      <trkpt lat="47.88943" lon="6.83056">
        <ele>781</ele>
        <time>2022-09-12T09:35:44Z</time>
      </trkpt>
      <trkpt lat="47.88943" lon="6.83054">
        <ele>781</ele>
        <time>2022-09-12T09:35:45Z</time>
      </trkpt>
      <trkpt lat="47.88943" lon="6.83053">
        <ele>781</ele>
        <time>2022-09-12T09:35:46Z</time>
      </trkpt>
      <trkpt lat="47.88942" lon="6.83052">
        <ele>781</ele>
        <time>2022-09-12T09:35:47Z</time>
      </trkpt>
      <trkpt lat="47.88942" lon="6.8305">
        <ele>781</ele>
        <time>2022-09-12T09:35:48Z</time>
      </trkpt>
      <trkpt lat="47.88942" lon="6.83049">
        <ele>781</ele>
        <time>2022-09-12T09:35:49Z</time>
      </trkpt>
      <trkpt lat="47.88941" lon="6.83048">
        <ele>781</ele>
        <time>2022-09-12T09:35:50Z</time>
      </trkpt>
      <trkpt lat="47.88941" lon="6.83046">
        <ele>781</ele>
        <time>2022-09-12T09:35:51Z</time>
      </trkpt>
      <trkpt lat="47.88941" lon="6.83045">
        <ele>781</ele>
        <time>2022-09-12T09:35:52Z</time>
      </trkpt>
      <trkpt lat="47.88941" lon="6.83043">
        <ele>781</ele>
        <time>2022-09-12T09:35:53Z</time>
      </trkpt>
      <trkpt lat="47.8894" lon="6.83041">
        <ele>781</ele>
        <time>2022-09-12T09:35:54Z</time>
      </trkpt>
      <trkpt lat="47.8894" lon="6.83039">
        <ele>781</ele>
        <time>2022-09-12T09:35:55Z</time>
      </trkpt>
      <trkpt lat="47.8894" lon="6.83037">
        <ele>781</ele>
        <time>2022-09-12T09:35:56Z</time>
      </trkpt>
      <trkpt lat="47.8894" lon="6.83035">
        <ele>780</ele>
        <time>2022-09-12T09:35:57Z</time>
      </trkpt>
      <trkpt lat="47.8894" lon="6.83033">
        <ele>780</ele>
        <time>2022-09-12T09:35:58Z</time>
      </trkpt>
      <trkpt lat="47.8894" lon="6.83032">
        <ele>780</ele>
        <time>2022-09-12T09:35:59Z</time>
      </trkpt>
      <trkpt lat="47.8894" lon="6.83031">
        <ele>780</ele>
        <time>2022-09-12T09:36:00Z</time>
      </trkpt>
      <trkpt lat="47.8894" lon="6.83029">
        <ele>780</ele>
        <time>2022-09-12T09:36:01Z</time>
      </trkpt>
      <trkpt lat="47.8894" lon="6.83028">
        <ele>780</ele>
        <time>2022-09-12T09:36:02Z</time>
      </trkpt>
      <trkpt lat="47.88939" lon="6.83027">
        <ele>780</ele>
        <time>2022-09-12T09:36:03Z</time>
      </trkpt>
      <trkpt lat="47.88939" lon="6.83026">
        <ele>780</ele>
        <time>2022-09-12T09:36:04Z</time>
      </trkpt>
      <trkpt lat="47.88939" lon="6.83024">
        <ele>780</ele>
        <time>2022-09-12T09:36:05Z</time>
      </trkpt>
      <trkpt lat="47.88939" lon="6.83023">
        <ele>780</ele>
        <time>2022-09-12T09:36:06Z</time>
      </trkpt>
      <trkpt lat="47.88939" lon="6.83022">
        <ele>780</ele>
        <time>2022-09-12T09:36:07Z</time>
      </trkpt>
      <trkpt lat="47.88938" lon="6.83021">
        <ele>780</ele>
        <time>2022-09-12T09:36:08Z</time>
      </trkpt>
      <trkpt lat="47.88938" lon="6.8302">
        <ele>780</ele>
        <time>2022-09-12T09:36:09Z</time>
      </trkpt>
      <trkpt lat="47.88938" lon="6.83019">
        <ele>780</ele>
        <time>2022-09-12T09:36:10Z</time>
      </trkpt>
      <trkpt lat="47.88937" lon="6.83018">
        <ele>780</ele>
        <time>2022-09-12T09:36:11Z</time>
      </trkpt>
      <trkpt lat="47.88937" lon="6.83017">
        <ele>780</ele>
        <time>2022-09-12T09:36:12Z</time>
      </trkpt>
      <trkpt lat="47.88937" lon="6.83016">
        <ele>780</ele>
        <time>2022-09-12T09:36:13Z</time>
      </trkpt>
      <trkpt lat="47.88936" lon="6.83015">
        <ele>780</ele>
        <time>2022-09-12T09:36:14Z</time>
      </trkpt>
      <trkpt lat="47.88936" lon="6.83014">
        <ele>780</ele>
        <time>2022-09-12T09:36:15Z</time>
      </trkpt>
      <trkpt lat="47.88935" lon="6.83013">
        <ele>780</ele>
        <time>2022-09-12T09:36:16Z</time>
      </trkpt>
      <trkpt lat="47.88935" lon="6.83012">
        <ele>780</ele>
        <time>2022-09-12T09:36:17Z</time>
      </trkpt>
      <trkpt lat="47.88934" lon="6.83011">
        <ele>780</ele>
        <time>2022-09-12T09:36:18Z</time>
      </trkpt>
      <trkpt lat="47.88934" lon="6.8301">
        <ele>780</ele>
        <time>2022-09-12T09:36:19Z</time>
      </trkpt>
      <trkpt lat="47.88933" lon="6.8301">
        <ele>780</ele>
        <time>2022-09-12T09:36:20Z</time>
      </trkpt>
      <trkpt lat="47.88932" lon="6.83009">
        <ele>780</ele>
        <time>2022-09-12T09:36:21Z</time>
      </trkpt>
      <trkpt lat="47.88931" lon="6.83009">
        <ele>780</ele>
        <time>2022-09-12T09:36:22Z</time>
      </trkpt>
      <trkpt lat="47.8893" lon="6.83009">
        <ele>780</ele>
        <time>2022-09-12T09:36:23Z</time>
      </trkpt>
      <trkpt lat="47.88929" lon="6.83009">
        <ele>780</ele>
        <time>2022-09-12T09:36:24Z</time>
      </trkpt>
      <trkpt lat="47.88928" lon="6.83009">
        <ele>780</ele>
        <time>2022-09-12T09:36:25Z</time>
      </trkpt>
      <trkpt lat="47.88928" lon="6.83009">
        <ele>780</ele>
        <time>2022-09-12T09:36:26Z</time>
      </trkpt>
      <trkpt lat="47.88927" lon="6.8301">
        <ele>780</ele>
        <time>2022-09-12T09:36:27Z</time>
      </trkpt>
      <trkpt lat="47.88926" lon="6.8301">
        <ele>780</ele>
        <time>2022-09-12T09:36:28Z</time>
      </trkpt>
      <trkpt lat="47.88925" lon="6.8301">
        <ele>780</ele>
        <time>2022-09-12T09:36:29Z</time>
      </trkpt>
      <trkpt lat="47.88925" lon="6.83009">
        <ele>780</ele>
        <time>2022-09-12T09:36:30Z</time>
      </trkpt>
      <trkpt lat="47.88924" lon="6.83009">
        <ele>781</ele>
        <time>2022-09-12T09:36:31Z</time>
      </trkpt>
      <trkpt lat="47.88924" lon="6.83009">
        <ele>781</ele>
        <time>2022-09-12T09:36:32Z</time>
      </trkpt>
      <trkpt lat="47.88923" lon="6.83008">
        <ele>781</ele>
        <time>2022-09-12T09:36:33Z</time>
      </trkpt>
      <trkpt lat="47.88923" lon="6.83008">
        <ele>781</ele>
        <time>2022-09-12T09:36:34Z</time>
      </trkpt>
      <trkpt lat="47.88922" lon="6.83008">
        <ele>781</ele>
        <time>2022-09-12T09:36:35Z</time>
      </trkpt>
      <trkpt lat="47.88922" lon="6.83007">
        <ele>782</ele>
        <time>2022-09-12T09:36:36Z</time>
      </trkpt>
      <trkpt lat="47.88921" lon="6.83007">
        <ele>782</ele>
        <time>2022-09-12T09:36:37Z</time>
      </trkpt>
      <trkpt lat="47.88921" lon="6.83006">
        <ele>782</ele>
        <time>2022-09-12T09:36:38Z</time>
      </trkpt>
      <trkpt lat="47.8892" lon="6.83006">
        <ele>782</ele>
        <time>2022-09-12T09:36:39Z</time>
      </trkpt>
      <trkpt lat="47.8892" lon="6.83005">
        <ele>782</ele>
        <time>2022-09-12T09:36:40Z</time>
      </trkpt>
      <trkpt lat="47.88919" lon="6.83005">
        <ele>782</ele>
        <time>2022-09-12T09:36:41Z</time>
      </trkpt>
      <trkpt lat="47.88918" lon="6.83005">
        <ele>782</ele>
        <time>2022-09-12T09:36:42Z</time>
      </trkpt>
      <trkpt lat="47.88918" lon="6.83004">
        <ele>782</ele>
        <time>2022-09-12T09:36:43Z</time>
      </trkpt>
      <trkpt lat="47.88918" lon="6.83004">
        <ele>782</ele>
        <time>2022-09-12T09:36:44Z</time>
      </trkpt>
      <trkpt lat="47.88917" lon="6.83004">
        <ele>782</ele>
        <time>2022-09-12T09:36:45Z</time>
      </trkpt>
      <trkpt lat="47.88916" lon="6.83003">
        <ele>783</ele>
        <time>2022-09-12T09:36:46Z</time>
      </trkpt>
      <trkpt lat="47.88915" lon="6.83003">
        <ele>783</ele>
        <time>2022-09-12T09:36:47Z</time>
      </trkpt>
      <trkpt lat="47.88915" lon="6.83002">
        <ele>783</ele>
        <time>2022-09-12T09:36:48Z</time>
      </trkpt>
      <trkpt lat="47.88914" lon="6.83002">
        <ele>783</ele>
        <time>2022-09-12T09:36:49Z</time>
      </trkpt>
      <trkpt lat="47.88913" lon="6.83001">
        <ele>783</ele>
        <time>2022-09-12T09:36:50Z</time>
      </trkpt>
      <trkpt lat="47.88913" lon="6.83001">
        <ele>784</ele>
        <time>2022-09-12T09:36:51Z</time>
      </trkpt>
      <trkpt lat="47.88912" lon="6.83">
        <ele>784</ele>
        <time>2022-09-12T09:36:52Z</time>
      </trkpt>
      <trkpt lat="47.88912" lon="6.83">
        <ele>784</ele>
        <time>2022-09-12T09:36:53Z</time>
      </trkpt>
      <trkpt lat="47.88911" lon="6.82999">
        <ele>784</ele>
        <time>2022-09-12T09:36:54Z</time>
      </trkpt>
      <trkpt lat="47.8891" lon="6.82999">
        <ele>784</ele>
        <time>2022-09-12T09:36:55Z</time>
      </trkpt>
      <trkpt lat="47.8891" lon="6.82998">
        <ele>785</ele>
        <time>2022-09-12T09:36:56Z</time>
      </trkpt>
      <trkpt lat="47.88909" lon="6.82997">
        <ele>785</ele>
        <time>2022-09-12T09:37:05Z</time>
      </trkpt>
      <trkpt lat="47.88909" lon="6.82997">
        <ele>786</ele>
        <time>2022-09-12T09:37:06Z</time>
      </trkpt>
      <trkpt lat="47.88908" lon="6.82996">
        <ele>786</ele>
        <time>2022-09-12T09:37:07Z</time>
      </trkpt>
      <trkpt lat="47.88907" lon="6.82996">
        <ele>786</ele>
        <time>2022-09-12T09:37:08Z</time>
      </trkpt>
      <trkpt lat="47.88907" lon="6.82996">
        <ele>786</ele>
        <time>2022-09-12T09:37:09Z</time>
      </trkpt>
      <trkpt lat="47.88906" lon="6.82995">
        <ele>786</ele>
        <time>2022-09-12T09:37:10Z</time>
      </trkpt>
      <trkpt lat="47.88905" lon="6.82995">
        <ele>786</ele>
        <time>2022-09-12T09:37:11Z</time>
      </trkpt>
      <trkpt lat="47.88905" lon="6.82995">
        <ele>786</ele>
        <time>2022-09-12T09:37:12Z</time>
      </trkpt>
      <trkpt lat="47.88904" lon="6.82994">
        <ele>786</ele>
        <time>2022-09-12T09:37:13Z</time>
      </trkpt>
      <trkpt lat="47.88904" lon="6.82994">
        <ele>787</ele>
        <time>2022-09-12T09:37:14Z</time>
      </trkpt>
      <trkpt lat="47.88903" lon="6.82993">
        <ele>787</ele>
        <time>2022-09-12T09:37:15Z</time>
      </trkpt>
      <trkpt lat="47.88902" lon="6.82992">
        <ele>788</ele>
        <time>2022-09-12T09:37:16Z</time>
      </trkpt>
      <trkpt lat="47.88902" lon="6.82992">
        <ele>788</ele>
        <time>2022-09-12T09:37:17Z</time>
      </trkpt>
      <trkpt lat="47.88901" lon="6.82991">
        <ele>788</ele>
        <time>2022-09-12T09:37:18Z</time>
      </trkpt>
      <trkpt lat="47.889" lon="6.82991">
        <ele>788</ele>
        <time>2022-09-12T09:37:19Z</time>
      </trkpt>
      <trkpt lat="47.88899" lon="6.8299">
        <ele>788</ele>
        <time>2022-09-12T09:37:20Z</time>
      </trkpt>
      <trkpt lat="47.88898" lon="6.8299">
        <ele>789</ele>
        <time>2022-09-12T09:37:21Z</time>
      </trkpt>
      <trkpt lat="47.88897" lon="6.8299">
        <ele>789</ele>
        <time>2022-09-12T09:37:22Z</time>
      </trkpt>
      <trkpt lat="47.88897" lon="6.82989">
        <ele>789</ele>
        <time>2022-09-12T09:37:23Z</time>
      </trkpt>
      <trkpt lat="47.88896" lon="6.82989">
        <ele>789</ele>
        <time>2022-09-12T09:37:24Z</time>
      </trkpt>
      <trkpt lat="47.88895" lon="6.82988">
        <ele>789</ele>
        <time>2022-09-12T09:37:25Z</time>
      </trkpt>
      <trkpt lat="47.88894" lon="6.82988">
        <ele>789</ele>
        <time>2022-09-12T09:37:26Z</time>
      </trkpt>
      <trkpt lat="47.88893" lon="6.82988">
        <ele>789</ele>
        <time>2022-09-12T09:37:27Z</time>
      </trkpt>
      <trkpt lat="47.88893" lon="6.82987">
        <ele>789</ele>
        <time>2022-09-12T09:37:28Z</time>
      </trkpt>
      <trkpt lat="47.88892" lon="6.82987">
        <ele>789</ele>
        <time>2022-09-12T09:37:29Z</time>
      </trkpt>
      <trkpt lat="47.88891" lon="6.82987">
        <ele>789</ele>
        <time>2022-09-12T09:37:30Z</time>
      </trkpt>
      <trkpt lat="47.8889" lon="6.82986">
        <ele>790</ele>
        <time>2022-09-12T09:37:31Z</time>
      </trkpt>
      <trkpt lat="47.8889" lon="6.82986">
        <ele>790</ele>
        <time>2022-09-12T09:37:40Z</time>
      </trkpt>
      <trkpt lat="47.88889" lon="6.82986">
        <ele>790</ele>
        <time>2022-09-12T09:37:41Z</time>
      </trkpt>
      <trkpt lat="47.88888" lon="6.82986">
        <ele>790</ele>
        <time>2022-09-12T09:37:42Z</time>
      </trkpt>
      <trkpt lat="47.88888" lon="6.82985">
        <ele>790</ele>
        <time>2022-09-12T09:37:43Z</time>
      </trkpt>
      <trkpt lat="47.88887" lon="6.82985">
        <ele>790</ele>
        <time>2022-09-12T09:37:44Z</time>
      </trkpt>
      <trkpt lat="47.88885" lon="6.82984">
        <ele>791</ele>
        <time>2022-09-12T09:38:12Z</time>
      </trkpt>
      <trkpt lat="47.88884" lon="6.82984">
        <ele>791</ele>
        <time>2022-09-12T09:38:13Z</time>
      </trkpt>
      <trkpt lat="47.88883" lon="6.82983">
        <ele>791</ele>
        <time>2022-09-12T09:38:14Z</time>
      </trkpt>
      <trkpt lat="47.88882" lon="6.82983">
        <ele>791</ele>
        <time>2022-09-12T09:38:15Z</time>
      </trkpt>
      <trkpt lat="47.88881" lon="6.82982">
        <ele>792</ele>
        <time>2022-09-12T09:38:16Z</time>
      </trkpt>
      <trkpt lat="47.88881" lon="6.82981">
        <ele>792</ele>
        <time>2022-09-12T09:38:17Z</time>
      </trkpt>
      <trkpt lat="47.8888" lon="6.82981">
        <ele>792</ele>
        <time>2022-09-12T09:38:18Z</time>
      </trkpt>
      <trkpt lat="47.88879" lon="6.8298">
        <ele>792</ele>
        <time>2022-09-12T09:38:19Z</time>
      </trkpt>
      <trkpt lat="47.88878" lon="6.82979">
        <ele>792</ele>
        <time>2022-09-12T09:38:20Z</time>
      </trkpt>
      <trkpt lat="47.88877" lon="6.82979">
        <ele>792</ele>
        <time>2022-09-12T09:38:21Z</time>
      </trkpt>
      <trkpt lat="47.88876" lon="6.82978">
        <ele>792</ele>
        <time>2022-09-12T09:38:22Z</time>
      </trkpt>
      <trkpt lat="47.88875" lon="6.82978">
        <ele>792</ele>
        <time>2022-09-12T09:38:23Z</time>
      </trkpt>
      <trkpt lat="47.88874" lon="6.82977">
        <ele>792</ele>
        <time>2022-09-12T09:38:24Z</time>
      </trkpt>
      <trkpt lat="47.88874" lon="6.82977">
        <ele>792</ele>
        <time>2022-09-12T09:38:25Z</time>
      </trkpt>
      <trkpt lat="47.88873" lon="6.82977">
        <ele>793</ele>
        <time>2022-09-12T09:38:26Z</time>
      </trkpt>
      <trkpt lat="47.88872" lon="6.82977">
        <ele>793</ele>
        <time>2022-09-12T09:38:27Z</time>
      </trkpt>
      <trkpt lat="47.88871" lon="6.82977">
        <ele>793</ele>
        <time>2022-09-12T09:38:28Z</time>
      </trkpt>
      <trkpt lat="47.8887" lon="6.82977">
        <ele>793</ele>
        <time>2022-09-12T09:38:29Z</time>
      </trkpt>
      <trkpt lat="47.88869" lon="6.82976">
        <ele>793</ele>
        <time>2022-09-12T09:38:30Z</time>
      </trkpt>
      <trkpt lat="47.88868" lon="6.82976">
        <ele>793</ele>
        <time>2022-09-12T09:38:31Z</time>
      </trkpt>
      <trkpt lat="47.88867" lon="6.82976">
        <ele>793</ele>
        <time>2022-09-12T09:38:32Z</time>
      </trkpt>
      <trkpt lat="47.88865" lon="6.82976">
        <ele>793</ele>
        <time>2022-09-12T09:38:33Z</time>
      </trkpt>
      <trkpt lat="47.88864" lon="6.82975">
        <ele>793</ele>
        <time>2022-09-12T09:38:34Z</time>
      </trkpt>
      <trkpt lat="47.88863" lon="6.82975">
        <ele>793</ele>
        <time>2022-09-12T09:38:35Z</time>
      </trkpt>
      <trkpt lat="47.88862" lon="6.82975">
        <ele>794</ele>
        <time>2022-09-12T09:38:36Z</time>
      </trkpt>
      <trkpt lat="47.88861" lon="6.82974">
        <ele>794</ele>
        <time>2022-09-12T09:38:37Z</time>
      </trkpt>
      <trkpt lat="47.8886" lon="6.82974">
        <ele>794</ele>
        <time>2022-09-12T09:38:38Z</time>
      </trkpt>
      <trkpt lat="47.88859" lon="6.82974">
        <ele>794</ele>
        <time>2022-09-12T09:38:39Z</time>
      </trkpt>
      <trkpt lat="47.88858" lon="6.82973">
        <ele>794</ele>
        <time>2022-09-12T09:38:40Z</time>
      </trkpt>
      <trkpt lat="47.88857" lon="6.82973">
        <ele>794</ele>
        <time>2022-09-12T09:38:41Z</time>
      </trkpt>
      <trkpt lat="47.88856" lon="6.82973">
        <ele>794</ele>
        <time>2022-09-12T09:38:42Z</time>
      </trkpt>
      <trkpt lat="47.88855" lon="6.82973">
        <ele>794</ele>
        <time>2022-09-12T09:38:43Z</time>
      </trkpt>
      <trkpt lat="47.88855" lon="6.82972">
        <ele>794</ele>
        <time>2022-09-12T09:38:44Z</time>
      </trkpt>
      <trkpt lat="47.88854" lon="6.82972">
        <ele>794</ele>
        <time>2022-09-12T09:38:45Z</time>
      </trkpt>
      <trkpt lat="47.88853" lon="6.82972">
        <ele>795</ele>
        <time>2022-09-12T09:38:46Z</time>
      </trkpt>
      <trkpt lat="47.88852" lon="6.82971">
        <ele>795</ele>
        <time>2022-09-12T09:38:47Z</time>
      </trkpt>
      <trkpt lat="47.88851" lon="6.82971">
        <ele>795</ele>
        <time>2022-09-12T09:38:48Z</time>
      </trkpt>
      <trkpt lat="47.8885" lon="6.82971">
        <ele>795</ele>
        <time>2022-09-12T09:38:49Z</time>
      </trkpt>
      <trkpt lat="47.88849" lon="6.82971">
        <ele>795</ele>
        <time>2022-09-12T09:38:50Z</time>
      </trkpt>
      <trkpt lat="47.88849" lon="6.82971">
        <ele>795</ele>
        <time>2022-09-12T09:38:51Z</time>
      </trkpt>
      <trkpt lat="47.88848" lon="6.8297">
        <ele>795</ele>
        <time>2022-09-12T09:38:52Z</time>
      </trkpt>
      <trkpt lat="47.88847" lon="6.8297">
        <ele>795</ele>
        <time>2022-09-12T09:38:53Z</time>
      </trkpt>
      <trkpt lat="47.88846" lon="6.8297">
        <ele>795</ele>
        <time>2022-09-12T09:38:54Z</time>
      </trkpt>
      <trkpt lat="47.88845" lon="6.8297">
        <ele>795</ele>
        <time>2022-09-12T09:38:55Z</time>
      </trkpt>
      <trkpt lat="47.88845" lon="6.82969">
        <ele>796</ele>
        <time>2022-09-12T09:38:56Z</time>
      </trkpt>
      <trkpt lat="47.88844" lon="6.82969">
        <ele>796</ele>
        <time>2022-09-12T09:38:57Z</time>
      </trkpt>
      <trkpt lat="47.88843" lon="6.82969">
        <ele>796</ele>
        <time>2022-09-12T09:38:58Z</time>
      </trkpt>
      <trkpt lat="47.88842" lon="6.82969">
        <ele>796</ele>
        <time>2022-09-12T09:38:59Z</time>
      </trkpt>
      <trkpt lat="47.88841" lon="6.82969">
        <ele>796</ele>
        <time>2022-09-12T09:39:00Z</time>
      </trkpt>
      <trkpt lat="47.8884" lon="6.82968">
        <ele>797</ele>
        <time>2022-09-12T09:39:01Z</time>
      </trkpt>
      <trkpt lat="47.8884" lon="6.82968">
        <ele>797</ele>
        <time>2022-09-12T09:39:02Z</time>
      </trkpt>
      <trkpt lat="47.88839" lon="6.82967">
        <ele>797</ele>
        <time>2022-09-12T09:39:03Z</time>
      </trkpt>
      <trkpt lat="47.88838" lon="6.82967">
        <ele>797</ele>
        <time>2022-09-12T09:39:04Z</time>
      </trkpt>
      <trkpt lat="47.88836" lon="6.82966">
        <ele>797</ele>
        <time>2022-09-12T09:39:14Z</time>
      </trkpt>
      <trkpt lat="47.88835" lon="6.82966">
        <ele>797</ele>
        <time>2022-09-12T09:39:15Z</time>
      </trkpt>
      <trkpt lat="47.88835" lon="6.82966">
        <ele>797</ele>
        <time>2022-09-12T09:39:16Z</time>
      </trkpt>
      <trkpt lat="47.88833" lon="6.82965">
        <ele>798</ele>
        <time>2022-09-12T09:40:28Z</time>
      </trkpt>
      <trkpt lat="47.88833" lon="6.82965">
        <ele>798</ele>
        <time>2022-09-12T09:40:29Z</time>
      </trkpt>
      <trkpt lat="47.88833" lon="6.82965">
        <ele>798</ele>
        <time>2022-09-12T09:40:30Z</time>
      </trkpt>
      <trkpt lat="47.88832" lon="6.82965">
        <ele>798</ele>
        <time>2022-09-12T09:40:31Z</time>
      </trkpt>
      <trkpt lat="47.88832" lon="6.82965">
        <ele>798</ele>
        <time>2022-09-12T09:40:32Z</time>
      </trkpt>
      <trkpt lat="47.88831" lon="6.82965">
        <ele>798</ele>
        <time>2022-09-12T09:40:33Z</time>
      </trkpt>
      <trkpt lat="47.8883" lon="6.82966">
        <ele>798</ele>
        <time>2022-09-12T09:40:34Z</time>
      </trkpt>
      <trkpt lat="47.88829" lon="6.82966">
        <ele>798</ele>
        <time>2022-09-12T09:40:35Z</time>
      </trkpt>
      <trkpt lat="47.88829" lon="6.82967">
        <ele>799</ele>
        <time>2022-09-12T09:40:36Z</time>
      </trkpt>
      <trkpt lat="47.88828" lon="6.82967">
        <ele>799</ele>
        <time>2022-09-12T09:40:37Z</time>
      </trkpt>
      <trkpt lat="47.88827" lon="6.82968">
        <ele>799</ele>
        <time>2022-09-12T09:40:38Z</time>
      </trkpt>
      <trkpt lat="47.88826" lon="6.82968">
        <ele>799</ele>
        <time>2022-09-12T09:40:39Z</time>
      </trkpt>
      <trkpt lat="47.88825" lon="6.82968">
        <ele>799</ele>
        <time>2022-09-12T09:40:40Z</time>
      </trkpt>
      <trkpt lat="47.88824" lon="6.82968">
        <ele>799</ele>
        <time>2022-09-12T09:40:41Z</time>
      </trkpt>
      <trkpt lat="47.88823" lon="6.82969">
        <ele>799</ele>
        <time>2022-09-12T09:40:42Z</time>
      </trkpt>
      <trkpt lat="47.88822" lon="6.82969">
        <ele>799</ele>
        <time>2022-09-12T09:40:43Z</time>
      </trkpt>
      <trkpt lat="47.88821" lon="6.8297">
        <ele>799</ele>
        <time>2022-09-12T09:40:44Z</time>
      </trkpt>
      <trkpt lat="47.8882" lon="6.8297">
        <ele>799</ele>
        <time>2022-09-12T09:40:45Z</time>
      </trkpt>
      <trkpt lat="47.88819" lon="6.8297">
        <ele>800</ele>
        <time>2022-09-12T09:40:46Z</time>
      </trkpt>
      <trkpt lat="47.88818" lon="6.82971">
        <ele>800</ele>
        <time>2022-09-12T09:40:47Z</time>
      </trkpt>
      <trkpt lat="47.88818" lon="6.82971">
        <ele>800</ele>
        <time>2022-09-12T09:40:48Z</time>
      </trkpt>
      <trkpt lat="47.88817" lon="6.82971">
        <ele>800</ele>
        <time>2022-09-12T09:40:49Z</time>
      </trkpt>
      <trkpt lat="47.88816" lon="6.82972">
        <ele>800</ele>
        <time>2022-09-12T09:40:50Z</time>
      </trkpt>
      <trkpt lat="47.88815" lon="6.82972">
        <ele>800</ele>
        <time>2022-09-12T09:40:51Z</time>
      </trkpt>
      <trkpt lat="47.88814" lon="6.82972">
        <ele>800</ele>
        <time>2022-09-12T09:40:52Z</time>
      </trkpt>
      <trkpt lat="47.88814" lon="6.82973">
        <ele>800</ele>
        <time>2022-09-12T09:40:53Z</time>
      </trkpt>
      <trkpt lat="47.88813" lon="6.82973">
        <ele>800</ele>
        <time>2022-09-12T09:40:54Z</time>
      </trkpt>
      <trkpt lat="47.88813" lon="6.82974">
        <ele>800</ele>
        <time>2022-09-12T09:40:55Z</time>
      </trkpt>
      <trkpt lat="47.88812" lon="6.82975">
        <ele>801</ele>
        <time>2022-09-12T09:40:56Z</time>
      </trkpt>
      <trkpt lat="47.88811" lon="6.82975">
        <ele>801</ele>
        <time>2022-09-12T09:40:57Z</time>
      </trkpt>
      <trkpt lat="47.88811" lon="6.82976">
        <ele>801</ele>
        <time>2022-09-12T09:40:58Z</time>
      </trkpt>
      <trkpt lat="47.8881" lon="6.82977">
        <ele>801</ele>
        <time>2022-09-12T09:40:59Z</time>
      </trkpt>
      <trkpt lat="47.88809" lon="6.82977">
        <ele>801</ele>
        <time>2022-09-12T09:41:00Z</time>
      </trkpt>
      <trkpt lat="47.88809" lon="6.82978">
        <ele>802</ele>
        <time>2022-09-12T09:41:01Z</time>
      </trkpt>
      <trkpt lat="47.88808" lon="6.82979">
        <ele>802</ele>
        <time>2022-09-12T09:41:02Z</time>
      </trkpt>
      <trkpt lat="47.88808" lon="6.82979">
        <ele>802</ele>
        <time>2022-09-12T09:41:03Z</time>
      </trkpt>
      <trkpt lat="47.88807" lon="6.8298">
        <ele>802</ele>
        <time>2022-09-12T09:41:04Z</time>
      </trkpt>
      <trkpt lat="47.88806" lon="6.82981">
        <ele>802</ele>
        <time>2022-09-12T09:41:05Z</time>
      </trkpt>
      <trkpt lat="47.88806" lon="6.82982">
        <ele>802</ele>
        <time>2022-09-12T09:41:06Z</time>
      </trkpt>
      <trkpt lat="47.88805" lon="6.82982">
        <ele>802</ele>
        <time>2022-09-12T09:41:07Z</time>
      </trkpt>
      <trkpt lat="47.88804" lon="6.82983">
        <ele>802</ele>
        <time>2022-09-12T09:41:08Z</time>
      </trkpt>
      <trkpt lat="47.88804" lon="6.82984">
        <ele>802</ele>
        <time>2022-09-12T09:41:09Z</time>
      </trkpt>
      <trkpt lat="47.88803" lon="6.82984">
        <ele>802</ele>
        <time>2022-09-12T09:41:10Z</time>
      </trkpt>
      <trkpt lat="47.88803" lon="6.82985">
        <ele>803</ele>
        <time>2022-09-12T09:41:11Z</time>
      </trkpt>
      <trkpt lat="47.88802" lon="6.82985">
        <ele>803</ele>
        <time>2022-09-12T09:41:12Z</time>
      </trkpt>
      <trkpt lat="47.88802" lon="6.82985">
        <ele>803</ele>
        <time>2022-09-12T09:41:13Z</time>
      </trkpt>
      <trkpt lat="47.88801" lon="6.82985">
        <ele>803</ele>
        <time>2022-09-12T09:41:14Z</time>
      </trkpt>
      <trkpt lat="47.888" lon="6.82985">
        <ele>803</ele>
        <time>2022-09-12T09:41:15Z</time>
      </trkpt>
      <trkpt lat="47.88799" lon="6.82985">
        <ele>803</ele>
        <time>2022-09-12T09:41:16Z</time>
      </trkpt>
      <trkpt lat="47.88799" lon="6.82985">
        <ele>803</ele>
        <time>2022-09-12T09:41:17Z</time>
      </trkpt>
      <trkpt lat="47.88798" lon="6.82985">
        <ele>803</ele>
        <time>2022-09-12T09:41:18Z</time>
      </trkpt>
      <trkpt lat="47.88797" lon="6.82985">
        <ele>803</ele>
        <time>2022-09-12T09:41:19Z</time>
      </trkpt>
      <trkpt lat="47.88796" lon="6.82985">
        <ele>803</ele>
        <time>2022-09-12T09:41:20Z</time>
      </trkpt>
      <trkpt lat="47.88795" lon="6.82985">
        <ele>803</ele>
        <time>2022-09-12T09:41:21Z</time>
      </trkpt>
      <trkpt lat="47.88794" lon="6.82986">
        <ele>803</ele>
        <time>2022-09-12T09:41:22Z</time>
      </trkpt>
      <trkpt lat="47.88793" lon="6.82986">
        <ele>803</ele>
        <time>2022-09-12T09:41:23Z</time>
      </trkpt>
      <trkpt lat="47.88792" lon="6.82986">
        <ele>803</ele>
        <time>2022-09-12T09:41:24Z</time>
      </trkpt>
      <trkpt lat="47.88791" lon="6.82986">
        <ele>803</ele>
        <time>2022-09-12T09:41:25Z</time>
      </trkpt>
      <trkpt lat="47.8879" lon="6.82987">
        <ele>803</ele>
        <time>2022-09-12T09:41:26Z</time>
      </trkpt>
      <trkpt lat="47.88789" lon="6.82987">
        <ele>803</ele>
        <time>2022-09-12T09:41:27Z</time>
      </trkpt>
      <trkpt lat="47.88788" lon="6.82987">
        <ele>803</ele>
        <time>2022-09-12T09:41:28Z</time>
      </trkpt>
      <trkpt lat="47.88787" lon="6.82987">
        <ele>803</ele>
        <time>2022-09-12T09:41:29Z</time>
      </trkpt>
      <trkpt lat="47.88786" lon="6.82987">
        <ele>803</ele>
        <time>2022-09-12T09:41:30Z</time>
      </trkpt>
      <trkpt lat="47.88785" lon="6.82987">
        <ele>803</ele>
        <time>2022-09-12T09:41:31Z</time>
      </trkpt>
      <trkpt lat="47.88785" lon="6.82987">
        <ele>803</ele>
        <time>2022-09-12T09:41:32Z</time>
      </trkpt>
      <trkpt lat="47.88784" lon="6.82987">
        <ele>803</ele>
        <time>2022-09-12T09:41:33Z</time>
      </trkpt>
      <trkpt lat="47.88783" lon="6.82986">
        <ele>803</ele>
        <time>2022-09-12T09:41:34Z</time>
      </trkpt>
      <trkpt lat="47.88782" lon="6.82986">
        <ele>803</ele>
        <time>2022-09-12T09:41:35Z</time>
      </trkpt>
      <trkpt lat="47.88781" lon="6.82986">
        <ele>803</ele>
        <time>2022-09-12T09:41:36Z</time>
      </trkpt>
      <trkpt lat="47.8878" lon="6.82986">
        <ele>802</ele>
        <time>2022-09-12T09:41:37Z</time>
      </trkpt>
      <trkpt lat="47.88779" lon="6.82986">
        <ele>802</ele>
        <time>2022-09-12T09:41:38Z</time>
      </trkpt>
      <trkpt lat="47.88779" lon="6.82987">
        <ele>802</ele>
        <time>2022-09-12T09:41:39Z</time>
      </trkpt>
      <trkpt lat="47.88779" lon="6.82987">
        <ele>802</ele>
        <time>2022-09-12T09:41:40Z</time>
      </trkpt>
      <trkpt lat="47.88779" lon="6.82987">
        <ele>802</ele>
        <time>2022-09-12T09:41:41Z</time>
      </trkpt>
      <trkpt lat="47.88779" lon="6.82987">
        <ele>802</ele>
        <time>2022-09-12T09:41:42Z</time>
      </trkpt>
      <trkpt lat="47.88778" lon="6.82987">
        <ele>802</ele>
        <time>2022-09-12T09:41:43Z</time>
      </trkpt>
      <trkpt lat="47.88777" lon="6.82987">
        <ele>802</ele>
        <time>2022-09-12T09:41:44Z</time>
      </trkpt>
      <trkpt lat="47.88776" lon="6.82987">
        <ele>802</ele>
        <time>2022-09-12T09:41:45Z</time>
      </trkpt>
      <trkpt lat="47.88776" lon="6.82988">
        <ele>802</ele>
        <time>2022-09-12T09:41:46Z</time>
      </trkpt>
      <trkpt lat="47.88775" lon="6.82988">
        <ele>802</ele>
        <time>2022-09-12T09:41:47Z</time>
      </trkpt>
      <trkpt lat="47.88774" lon="6.82988">
        <ele>802</ele>
        <time>2022-09-12T09:41:48Z</time>
      </trkpt>
      <trkpt lat="47.88773" lon="6.82989">
        <ele>802</ele>
        <time>2022-09-12T09:41:49Z</time>
      </trkpt>
      <trkpt lat="47.88773" lon="6.82989">
        <ele>802</ele>
        <time>2022-09-12T09:41:50Z</time>
      </trkpt>
      <trkpt lat="47.88772" lon="6.82989">
        <ele>802</ele>
        <time>2022-09-12T09:41:51Z</time>
      </trkpt>
      <trkpt lat="47.88771" lon="6.8299">
        <ele>802</ele>
        <time>2022-09-12T09:41:52Z</time>
      </trkpt>
      <trkpt lat="47.8877" lon="6.8299">
        <ele>802</ele>
        <time>2022-09-12T09:41:53Z</time>
      </trkpt>
      <trkpt lat="47.8877" lon="6.8299">
        <ele>802</ele>
        <time>2022-09-12T09:41:54Z</time>
      </trkpt>
      <trkpt lat="47.88769" lon="6.8299">
        <ele>802</ele>
        <time>2022-09-12T09:41:55Z</time>
      </trkpt>
      <trkpt lat="47.88769" lon="6.82991">
        <ele>802</ele>
        <time>2022-09-12T09:41:56Z</time>
      </trkpt>
      <trkpt lat="47.88768" lon="6.82991">
        <ele>801</ele>
        <time>2022-09-12T09:41:57Z</time>
      </trkpt>
      <trkpt lat="47.88767" lon="6.82992">
        <ele>801</ele>
        <time>2022-09-12T09:41:58Z</time>
      </trkpt>
      <trkpt lat="47.88767" lon="6.82992">
        <ele>801</ele>
        <time>2022-09-12T09:41:59Z</time>
      </trkpt>
      <trkpt lat="47.88766" lon="6.82993">
        <ele>801</ele>
        <time>2022-09-12T09:42:00Z</time>
      </trkpt>
      <trkpt lat="47.88765" lon="6.82994">
        <ele>801</ele>
        <time>2022-09-12T09:42:01Z</time>
      </trkpt>
      <trkpt lat="47.88764" lon="6.82994">
        <ele>801</ele>
        <time>2022-09-12T09:42:02Z</time>
      </trkpt>
      <trkpt lat="47.88764" lon="6.82995">
        <ele>801</ele>
        <time>2022-09-12T09:42:03Z</time>
      </trkpt>
      <trkpt lat="47.88763" lon="6.82995">
        <ele>801</ele>
        <time>2022-09-12T09:42:04Z</time>
      </trkpt>
      <trkpt lat="47.88762" lon="6.82996">
        <ele>801</ele>
        <time>2022-09-12T09:42:05Z</time>
      </trkpt>
      <trkpt lat="47.88761" lon="6.82997">
        <ele>801</ele>
        <time>2022-09-12T09:42:06Z</time>
      </trkpt>
      <trkpt lat="47.88761" lon="6.82998">
        <ele>800</ele>
        <time>2022-09-12T09:42:07Z</time>
      </trkpt>
      <trkpt lat="47.8876" lon="6.82999">
        <ele>800</ele>
        <time>2022-09-12T09:42:08Z</time>
      </trkpt>
      <trkpt lat="47.88759" lon="6.82999">
        <ele>800</ele>
        <time>2022-09-12T09:42:09Z</time>
      </trkpt>
      <trkpt lat="47.88758" lon="6.83">
        <ele>800</ele>
        <time>2022-09-12T09:42:10Z</time>
      </trkpt>
      <trkpt lat="47.88758" lon="6.83001">
        <ele>800</ele>
        <time>2022-09-12T09:42:11Z</time>
      </trkpt>
      <trkpt lat="47.88757" lon="6.83002">
        <ele>800</ele>
        <time>2022-09-12T09:42:12Z</time>
      </trkpt>
      <trkpt lat="47.88756" lon="6.83003">
        <ele>800</ele>
        <time>2022-09-12T09:42:13Z</time>
      </trkpt>
      <trkpt lat="47.88755" lon="6.83004">
        <ele>800</ele>
        <time>2022-09-12T09:42:14Z</time>
      </trkpt>
      <trkpt lat="47.88754" lon="6.83005">
        <ele>800</ele>
        <time>2022-09-12T09:42:15Z</time>
      </trkpt>
      <trkpt lat="47.88753" lon="6.83005">
        <ele>800</ele>
        <time>2022-09-12T09:42:16Z</time>
      </trkpt>
      <trkpt lat="47.88752" lon="6.83006">
        <ele>799</ele>
        <time>2022-09-12T09:42:17Z</time>
      </trkpt>
      <trkpt lat="47.88752" lon="6.83006">
        <ele>799</ele>
        <time>2022-09-12T09:42:18Z</time>
      </trkpt>
      <trkpt lat="47.88751" lon="6.83007">
        <ele>799</ele>
        <time>2022-09-12T09:42:19Z</time>
      </trkpt>
      <trkpt lat="47.8875" lon="6.83007">
        <ele>799</ele>
        <time>2022-09-12T09:42:20Z</time>
      </trkpt>
      <trkpt lat="47.8875" lon="6.83008">
        <ele>799</ele>
        <time>2022-09-12T09:42:21Z</time>
      </trkpt>
      <trkpt lat="47.88749" lon="6.83009">
        <ele>799</ele>
        <time>2022-09-12T09:42:22Z</time>
      </trkpt>
      <trkpt lat="47.88748" lon="6.8301">
        <ele>799</ele>
        <time>2022-09-12T09:42:23Z</time>
      </trkpt>
      <trkpt lat="47.88747" lon="6.83011">
        <ele>799</ele>
        <time>2022-09-12T09:42:24Z</time>
      </trkpt>
      <trkpt lat="47.88746" lon="6.83011">
        <ele>799</ele>
        <time>2022-09-12T09:42:25Z</time>
      </trkpt>
      <trkpt lat="47.88745" lon="6.83012">
        <ele>799</ele>
        <time>2022-09-12T09:42:26Z</time>
      </trkpt>
      <trkpt lat="47.88744" lon="6.83013">
        <ele>798</ele>
        <time>2022-09-12T09:42:27Z</time>
      </trkpt>
      <trkpt lat="47.88743" lon="6.83013">
        <ele>798</ele>
        <time>2022-09-12T09:42:28Z</time>
      </trkpt>
      <trkpt lat="47.88742" lon="6.83014">
        <ele>798</ele>
        <time>2022-09-12T09:42:29Z</time>
      </trkpt>
      <trkpt lat="47.88741" lon="6.83014">
        <ele>798</ele>
        <time>2022-09-12T09:42:30Z</time>
      </trkpt>
      <trkpt lat="47.8874" lon="6.83015">
        <ele>798</ele>
        <time>2022-09-12T09:42:31Z</time>
      </trkpt>
      <trkpt lat="47.88739" lon="6.83016">
        <ele>798</ele>
        <time>2022-09-12T09:42:32Z</time>
      </trkpt>
      <trkpt lat="47.88738" lon="6.83017">
        <ele>798</ele>
        <time>2022-09-12T09:42:33Z</time>
      </trkpt>
      <trkpt lat="47.88737" lon="6.83018">
        <ele>798</ele>
        <time>2022-09-12T09:42:34Z</time>
      </trkpt>
      <trkpt lat="47.88736" lon="6.83018">
        <ele>798</ele>
        <time>2022-09-12T09:42:35Z</time>
      </trkpt>
      <trkpt lat="47.88735" lon="6.8302">
        <ele>798</ele>
        <time>2022-09-12T09:42:36Z</time>
      </trkpt>
      <trkpt lat="47.88735" lon="6.83021">
        <ele>797</ele>
        <time>2022-09-12T09:42:37Z</time>
      </trkpt>
      <trkpt lat="47.88734" lon="6.83022">
        <ele>797</ele>
        <time>2022-09-12T09:42:38Z</time>
      </trkpt>
      <trkpt lat="47.88732" lon="6.83023">
        <ele>797</ele>
        <time>2022-09-12T09:42:39Z</time>
      </trkpt>
      <trkpt lat="47.88731" lon="6.83025">
        <ele>797</ele>
        <time>2022-09-12T09:42:40Z</time>
      </trkpt>
      <trkpt lat="47.8873" lon="6.83026">
        <ele>797</ele>
        <time>2022-09-12T09:42:41Z</time>
      </trkpt>
      <trkpt lat="47.88729" lon="6.83027">
        <ele>796</ele>
        <time>2022-09-12T09:42:42Z</time>
      </trkpt>
      <trkpt lat="47.88729" lon="6.83028">
        <ele>796</ele>
        <time>2022-09-12T09:42:43Z</time>
      </trkpt>
      <trkpt lat="47.88728" lon="6.83029">
        <ele>796</ele>
        <time>2022-09-12T09:42:44Z</time>
      </trkpt>
      <trkpt lat="47.88727" lon="6.8303">
        <ele>796</ele>
        <time>2022-09-12T09:42:45Z</time>
      </trkpt>
      <trkpt lat="47.88726" lon="6.83031">
        <ele>796</ele>
        <time>2022-09-12T09:42:46Z</time>
      </trkpt>
      <trkpt lat="47.88725" lon="6.83032">
        <ele>796</ele>
        <time>2022-09-12T09:42:47Z</time>
      </trkpt>
      <trkpt lat="47.88725" lon="6.83033">
        <ele>796</ele>
        <time>2022-09-12T09:42:48Z</time>
      </trkpt>
      <trkpt lat="47.88724" lon="6.83033">
        <ele>796</ele>
        <time>2022-09-12T09:42:49Z</time>
      </trkpt>
      <trkpt lat="47.88724" lon="6.83034">
        <ele>796</ele>
        <time>2022-09-12T09:42:50Z</time>
      </trkpt>
      <trkpt lat="47.88723" lon="6.83034">
        <ele>796</ele>
        <time>2022-09-12T09:42:51Z</time>
      </trkpt>
      <trkpt lat="47.88723" lon="6.83035">
        <ele>795</ele>
        <time>2022-09-12T09:42:52Z</time>
      </trkpt>
      <trkpt lat="47.88723" lon="6.83035">
        <ele>795</ele>
        <time>2022-09-12T09:42:53Z</time>
      </trkpt>
      <trkpt lat="47.88722" lon="6.83035">
        <ele>795</ele>
        <time>2022-09-12T09:42:54Z</time>
      </trkpt>
      <trkpt lat="47.88722" lon="6.83036">
        <ele>795</ele>
        <time>2022-09-12T09:42:55Z</time>
      </trkpt>
      <trkpt lat="47.88722" lon="6.83036">
        <ele>795</ele>
        <time>2022-09-12T09:42:56Z</time>
      </trkpt>
      <trkpt lat="47.88721" lon="6.83037">
        <ele>794</ele>
        <time>2022-09-12T09:42:57Z</time>
      </trkpt>
      <trkpt lat="47.88721" lon="6.83037">
        <ele>794</ele>
        <time>2022-09-12T09:42:58Z</time>
      </trkpt>
      <trkpt lat="47.8872" lon="6.83038">
        <ele>794</ele>
        <time>2022-09-12T09:42:59Z</time>
      </trkpt>
      <trkpt lat="47.8872" lon="6.83038">
        <ele>794</ele>
        <time>2022-09-12T09:43:00Z</time>
      </trkpt>
      <trkpt lat="47.8872" lon="6.83038">
        <ele>794</ele>
        <time>2022-09-12T09:43:01Z</time>
      </trkpt>
      <trkpt lat="47.88719" lon="6.83039">
        <ele>793</ele>
        <time>2022-09-12T09:43:02Z</time>
      </trkpt>
      <trkpt lat="47.88719" lon="6.83039">
        <ele>793</ele>
        <time>2022-09-12T09:43:03Z</time>
      </trkpt>
      <trkpt lat="47.88718" lon="6.83039">
        <ele>793</ele>
        <time>2022-09-12T09:43:04Z</time>
      </trkpt>
      <trkpt lat="47.88718" lon="6.8304">
        <ele>793</ele>
        <time>2022-09-12T09:43:05Z</time>
      </trkpt>
      <trkpt lat="47.88718" lon="6.8304">
        <ele>793</ele>
        <time>2022-09-12T09:43:06Z</time>
      </trkpt>
      <trkpt lat="47.88717" lon="6.83041">
        <ele>793</ele>
        <time>2022-09-12T09:43:07Z</time>
      </trkpt>
      <trkpt lat="47.88717" lon="6.83041">
        <ele>793</ele>
        <time>2022-09-12T09:43:08Z</time>
      </trkpt>
      <trkpt lat="47.88716" lon="6.83042">
        <ele>793</ele>
        <time>2022-09-12T09:43:09Z</time>
      </trkpt>
      <trkpt lat="47.88715" lon="6.83043">
        <ele>793</ele>
        <time>2022-09-12T09:43:10Z</time>
      </trkpt>
      <trkpt lat="47.88714" lon="6.83044">
        <ele>793</ele>
        <time>2022-09-12T09:43:11Z</time>
      </trkpt>
      <trkpt lat="47.88714" lon="6.83045">
        <ele>792</ele>
        <time>2022-09-12T09:43:12Z</time>
      </trkpt>
      <trkpt lat="47.88713" lon="6.83046">
        <ele>792</ele>
        <time>2022-09-12T09:43:13Z</time>
      </trkpt>
      <trkpt lat="47.88712" lon="6.83046">
        <ele>792</ele>
        <time>2022-09-12T09:43:14Z</time>
      </trkpt>
      <trkpt lat="47.88711" lon="6.83047">
        <ele>792</ele>
        <time>2022-09-12T09:43:15Z</time>
      </trkpt>
      <trkpt lat="47.8871" lon="6.83048">
        <ele>792</ele>
        <time>2022-09-12T09:43:16Z</time>
      </trkpt>
      <trkpt lat="47.88709" lon="6.83048">
        <ele>792</ele>
        <time>2022-09-12T09:43:17Z</time>
      </trkpt>
      <trkpt lat="47.88708" lon="6.83049">
        <ele>792</ele>
        <time>2022-09-12T09:43:18Z</time>
      </trkpt>
      <trkpt lat="47.88707" lon="6.83049">
        <ele>792</ele>
        <time>2022-09-12T09:43:19Z</time>
      </trkpt>
      <trkpt lat="47.88706" lon="6.8305">
        <ele>792</ele>
        <time>2022-09-12T09:43:20Z</time>
      </trkpt>
      <trkpt lat="47.88705" lon="6.8305">
        <ele>792</ele>
        <time>2022-09-12T09:43:21Z</time>
      </trkpt>
      <trkpt lat="47.88704" lon="6.83051">
        <ele>791</ele>
        <time>2022-09-12T09:43:22Z</time>
      </trkpt>
      <trkpt lat="47.88703" lon="6.83051">
        <ele>791</ele>
        <time>2022-09-12T09:43:23Z</time>
      </trkpt>
      <trkpt lat="47.88703" lon="6.83052">
        <ele>791</ele>
        <time>2022-09-12T09:43:24Z</time>
      </trkpt>
      <trkpt lat="47.88702" lon="6.83052">
        <ele>791</ele>
        <time>2022-09-12T09:43:25Z</time>
      </trkpt>
      <trkpt lat="47.88701" lon="6.83053">
        <ele>791</ele>
        <time>2022-09-12T09:43:26Z</time>
      </trkpt>
      <trkpt lat="47.887" lon="6.83053">
        <ele>791</ele>
        <time>2022-09-12T09:43:27Z</time>
      </trkpt>
      <trkpt lat="47.88698" lon="6.83054">
        <ele>791</ele>
        <time>2022-09-12T09:43:28Z</time>
      </trkpt>
      <trkpt lat="47.88698" lon="6.83054">
        <ele>791</ele>
        <time>2022-09-12T09:43:29Z</time>
      </trkpt>
      <trkpt lat="47.88697" lon="6.83055">
        <ele>791</ele>
        <time>2022-09-12T09:43:30Z</time>
      </trkpt>
      <trkpt lat="47.88695" lon="6.83056">
        <ele>791</ele>
        <time>2022-09-12T09:43:31Z</time>
      </trkpt>
      <trkpt lat="47.88694" lon="6.83056">
        <ele>790</ele>
        <time>2022-09-12T09:43:32Z</time>
      </trkpt>
      <trkpt lat="47.88692" lon="6.83057">
        <ele>790</ele>
        <time>2022-09-12T09:43:33Z</time>
      </trkpt>
      <trkpt lat="47.88691" lon="6.83058">
        <ele>790</ele>
        <time>2022-09-12T09:43:34Z</time>
      </trkpt>
      <trkpt lat="47.8869" lon="6.83059">
        <ele>790</ele>
        <time>2022-09-12T09:43:35Z</time>
      </trkpt>
      <trkpt lat="47.88688" lon="6.83061">
        <ele>790</ele>
        <time>2022-09-12T09:43:36Z</time>
      </trkpt>
      <trkpt lat="47.88687" lon="6.83061">
        <ele>790</ele>
        <time>2022-09-12T09:43:37Z</time>
      </trkpt>
      <trkpt lat="47.88686" lon="6.83062">
        <ele>790</ele>
        <time>2022-09-12T09:43:38Z</time>
      </trkpt>
      <trkpt lat="47.88684" lon="6.83063">
        <ele>790</ele>
        <time>2022-09-12T09:43:39Z</time>
      </trkpt>
      <trkpt lat="47.88683" lon="6.83063">
        <ele>790</ele>
        <time>2022-09-12T09:43:40Z</time>
      </trkpt>
      <trkpt lat="47.88682" lon="6.83063">
        <ele>790</ele>
        <time>2022-09-12T09:43:41Z</time>
      </trkpt>
      <trkpt lat="47.88682" lon="6.83063">
        <ele>789</ele>
        <time>2022-09-12T09:43:42Z</time>
      </trkpt>
      <trkpt lat="47.88681" lon="6.83064">
        <ele>789</ele>
        <time>2022-09-12T09:43:43Z</time>
      </trkpt>
      <trkpt lat="47.8868" lon="6.83064">
        <ele>789</ele>
        <time>2022-09-12T09:43:44Z</time>
      </trkpt>
      <trkpt lat="47.8868" lon="6.83064">
        <ele>789</ele>
        <time>2022-09-12T09:43:45Z</time>
      </trkpt>
      <trkpt lat="47.88679" lon="6.83064">
        <ele>789</ele>
        <time>2022-09-12T09:43:46Z</time>
      </trkpt>
      <trkpt lat="47.88678" lon="6.83064">
        <ele>789</ele>
        <time>2022-09-12T09:43:47Z</time>
      </trkpt>
      <trkpt lat="47.88677" lon="6.83065">
        <ele>789</ele>
        <time>2022-09-12T09:43:48Z</time>
      </trkpt>
      <trkpt lat="47.88676" lon="6.83065">
        <ele>789</ele>
        <time>2022-09-12T09:43:49Z</time>
      </trkpt>
      <trkpt lat="47.88675" lon="6.83065">
        <ele>789</ele>
        <time>2022-09-12T09:43:50Z</time>
      </trkpt>
      <trkpt lat="47.88674" lon="6.83066">
        <ele>789</ele>
        <time>2022-09-12T09:43:51Z</time>
      </trkpt>
      <trkpt lat="47.88674" lon="6.83066">
        <ele>788</ele>
        <time>2022-09-12T09:43:52Z</time>
      </trkpt>
      <trkpt lat="47.88673" lon="6.83066">
        <ele>788</ele>
        <time>2022-09-12T09:43:53Z</time>
      </trkpt>
      <trkpt lat="47.88673" lon="6.83067">
        <ele>788</ele>
        <time>2022-09-12T09:43:54Z</time>
      </trkpt>
      <trkpt lat="47.88672" lon="6.83067">
        <ele>788</ele>
        <time>2022-09-12T09:43:55Z</time>
      </trkpt>
      <trkpt lat="47.88671" lon="6.83067">
        <ele>788</ele>
        <time>2022-09-12T09:43:56Z</time>
      </trkpt>
      <trkpt lat="47.8867" lon="6.83067">
        <ele>787</ele>
        <time>2022-09-12T09:43:57Z</time>
      </trkpt>
      <trkpt lat="47.88669" lon="6.83067">
        <ele>787</ele>
        <time>2022-09-12T09:43:58Z</time>
      </trkpt>
      <trkpt lat="47.88668" lon="6.83067">
        <ele>786</ele>
        <time>2022-09-12T09:43:59Z</time>
      </trkpt>
      <trkpt lat="47.88667" lon="6.83068">
        <ele>786</ele>
        <time>2022-09-12T09:44:00Z</time>
      </trkpt>
      <trkpt lat="47.88666" lon="6.83068">
        <ele>786</ele>
        <time>2022-09-12T09:44:01Z</time>
      </trkpt>
      <trkpt lat="47.88665" lon="6.83068">
        <ele>786</ele>
        <time>2022-09-12T09:44:02Z</time>
      </trkpt>
      <trkpt lat="47.88665" lon="6.83068">
        <ele>786</ele>
        <time>2022-09-12T09:44:03Z</time>
      </trkpt>
      <trkpt lat="47.88664" lon="6.83069">
        <ele>786</ele>
        <time>2022-09-12T09:44:04Z</time>
      </trkpt>
      <trkpt lat="47.88663" lon="6.83069">
        <ele>786</ele>
        <time>2022-09-12T09:44:05Z</time>
      </trkpt>
      <trkpt lat="47.88662" lon="6.83069">
        <ele>786</ele>
        <time>2022-09-12T09:44:06Z</time>
      </trkpt>
      <trkpt lat="47.88662" lon="6.8307">
        <ele>785</ele>
        <time>2022-09-12T09:44:07Z</time>
      </trkpt>
      <trkpt lat="47.88661" lon="6.8307">
        <ele>785</ele>
        <time>2022-09-12T09:44:08Z</time>
      </trkpt>
      <trkpt lat="47.88661" lon="6.8307">
        <ele>785</ele>
        <time>2022-09-12T09:44:09Z</time>
      </trkpt>
      <trkpt lat="47.8866" lon="6.83071">
        <ele>785</ele>
        <time>2022-09-12T09:44:10Z</time>
      </trkpt>
      <trkpt lat="47.88659" lon="6.83071">
        <ele>785</ele>
        <time>2022-09-12T09:44:11Z</time>
      </trkpt>
      <trkpt lat="47.88659" lon="6.83072">
        <ele>785</ele>
        <time>2022-09-12T09:44:12Z</time>
      </trkpt>
      <trkpt lat="47.88658" lon="6.83072">
        <ele>785</ele>
        <time>2022-09-12T09:44:13Z</time>
      </trkpt>
      <trkpt lat="47.88658" lon="6.83073">
        <ele>785</ele>
        <time>2022-09-12T09:44:14Z</time>
      </trkpt>
      <trkpt lat="47.88657" lon="6.83074">
        <ele>785</ele>
        <time>2022-09-12T09:44:15Z</time>
      </trkpt>
      <trkpt lat="47.88657" lon="6.83075">
        <ele>785</ele>
        <time>2022-09-12T09:44:16Z</time>
      </trkpt>
      <trkpt lat="47.88658" lon="6.83076">
        <ele>784</ele>
        <time>2022-09-12T09:44:17Z</time>
      </trkpt>
      <trkpt lat="47.88656" lon="6.83077">
        <ele>784</ele>
        <time>2022-09-12T09:44:25Z</time>
      </trkpt>
      <trkpt lat="47.88655" lon="6.83078">
        <ele>784</ele>
        <time>2022-09-12T09:44:26Z</time>
      </trkpt>
      <trkpt lat="47.88654" lon="6.83079">
        <ele>784</ele>
        <time>2022-09-12T09:44:27Z</time>
      </trkpt>
      <trkpt lat="47.88653" lon="6.8308">
        <ele>784</ele>
        <time>2022-09-12T09:44:28Z</time>
      </trkpt>
      <trkpt lat="47.88652" lon="6.8308">
        <ele>784</ele>
        <time>2022-09-12T09:44:29Z</time>
      </trkpt>
      <trkpt lat="47.88652" lon="6.83081">
        <ele>784</ele>
        <time>2022-09-12T09:44:30Z</time>
      </trkpt>
      <trkpt lat="47.88651" lon="6.83081">
        <ele>784</ele>
        <time>2022-09-12T09:44:31Z</time>
      </trkpt>
      <trkpt lat="47.8865" lon="6.83082">
        <ele>783</ele>
        <time>2022-09-12T09:44:32Z</time>
      </trkpt>
      <trkpt lat="47.88649" lon="6.83082">
        <ele>783</ele>
        <time>2022-09-12T09:44:33Z</time>
      </trkpt>
      <trkpt lat="47.88648" lon="6.83082">
        <ele>783</ele>
        <time>2022-09-12T09:44:34Z</time>
      </trkpt>
      <trkpt lat="47.88648" lon="6.83083">
        <ele>783</ele>
        <time>2022-09-12T09:44:35Z</time>
      </trkpt>
      <trkpt lat="47.88647" lon="6.83083">
        <ele>783</ele>
        <time>2022-09-12T09:44:36Z</time>
      </trkpt>
      <trkpt lat="47.88646" lon="6.83083">
        <ele>782</ele>
        <time>2022-09-12T09:44:37Z</time>
      </trkpt>
      <trkpt lat="47.88645" lon="6.83083">
        <ele>782</ele>
        <time>2022-09-12T09:44:38Z</time>
      </trkpt>
      <trkpt lat="47.88644" lon="6.83084">
        <ele>782</ele>
        <time>2022-09-12T09:44:39Z</time>
      </trkpt>
      <trkpt lat="47.88643" lon="6.83084">
        <ele>782</ele>
        <time>2022-09-12T09:44:40Z</time>
      </trkpt>
      <trkpt lat="47.88642" lon="6.83085">
        <ele>782</ele>
        <time>2022-09-12T09:44:41Z</time>
      </trkpt>
      <trkpt lat="47.8864" lon="6.83086">
        <ele>782</ele>
        <time>2022-09-12T09:44:42Z</time>
      </trkpt>
      <trkpt lat="47.88639" lon="6.83087">
        <ele>782</ele>
        <time>2022-09-12T09:44:43Z</time>
      </trkpt>
      <trkpt lat="47.88638" lon="6.83088">
        <ele>782</ele>
        <time>2022-09-12T09:44:44Z</time>
      </trkpt>
      <trkpt lat="47.88637" lon="6.83089">
        <ele>782</ele>
        <time>2022-09-12T09:44:45Z</time>
      </trkpt>
      <trkpt lat="47.88636" lon="6.8309">
        <ele>781</ele>
        <time>2022-09-12T09:44:51Z</time>
      </trkpt>
      <trkpt lat="47.88636" lon="6.8309">
        <ele>781</ele>
        <time>2022-09-12T09:44:52Z</time>
      </trkpt>
      <trkpt lat="47.88635" lon="6.83091">
        <ele>781</ele>
        <time>2022-09-12T09:44:53Z</time>
      </trkpt>
      <trkpt lat="47.88635" lon="6.83092">
        <ele>781</ele>
        <time>2022-09-12T09:44:54Z</time>
      </trkpt>
      <trkpt lat="47.88635" lon="6.83093">
        <ele>781</ele>
        <time>2022-09-12T09:44:55Z</time>
      </trkpt>
      <trkpt lat="47.88634" lon="6.83094">
        <ele>781</ele>
        <time>2022-09-12T09:44:56Z</time>
      </trkpt>
      <trkpt lat="47.88633" lon="6.83095">
        <ele>780</ele>
        <time>2022-09-12T09:44:57Z</time>
      </trkpt>
      <trkpt lat="47.88632" lon="6.83096">
        <ele>780</ele>
        <time>2022-09-12T09:44:58Z</time>
      </trkpt>
      <trkpt lat="47.88631" lon="6.83097">
        <ele>780</ele>
        <time>2022-09-12T09:44:59Z</time>
      </trkpt>
      <trkpt lat="47.8863" lon="6.83098">
        <ele>780</ele>
        <time>2022-09-12T09:45:00Z</time>
      </trkpt>
      <trkpt lat="47.88629" lon="6.83099">
        <ele>780</ele>
        <time>2022-09-12T09:45:01Z</time>
      </trkpt>
      <trkpt lat="47.88628" lon="6.831">
        <ele>780</ele>
        <time>2022-09-12T09:45:02Z</time>
      </trkpt>
      <trkpt lat="47.88627" lon="6.83102">
        <ele>780</ele>
        <time>2022-09-12T09:45:03Z</time>
      </trkpt>
      <trkpt lat="47.88626" lon="6.83103">
        <ele>780</ele>
        <time>2022-09-12T09:45:04Z</time>
      </trkpt>
      <trkpt lat="47.88625" lon="6.83104">
        <ele>780</ele>
        <time>2022-09-12T09:45:05Z</time>
      </trkpt>
      <trkpt lat="47.88624" lon="6.83105">
        <ele>780</ele>
        <time>2022-09-12T09:45:06Z</time>
      </trkpt>
      <trkpt lat="47.88623" lon="6.83106">
        <ele>779</ele>
        <time>2022-09-12T09:45:07Z</time>
      </trkpt>
      <trkpt lat="47.88623" lon="6.83108">
        <ele>779</ele>
        <time>2022-09-12T09:45:08Z</time>
      </trkpt>
      <trkpt lat="47.88622" lon="6.83109">
        <ele>779</ele>
        <time>2022-09-12T09:45:09Z</time>
      </trkpt>
      <trkpt lat="47.88621" lon="6.8311">
        <ele>779</ele>
        <time>2022-09-12T09:45:10Z</time>
      </trkpt>
      <trkpt lat="47.8862" lon="6.83111">
        <ele>779</ele>
        <time>2022-09-12T09:45:11Z</time>
      </trkpt>
      <trkpt lat="47.88619" lon="6.83112">
        <ele>779</ele>
        <time>2022-09-12T09:45:12Z</time>
      </trkpt>
      <trkpt lat="47.88618" lon="6.83113">
        <ele>779</ele>
        <time>2022-09-12T09:45:13Z</time>
      </trkpt>
      <trkpt lat="47.88617" lon="6.83114">
        <ele>779</ele>
        <time>2022-09-12T09:45:14Z</time>
      </trkpt>
      <trkpt lat="47.88617" lon="6.83115">
        <ele>779</ele>
        <time>2022-09-12T09:45:15Z</time>
      </trkpt>
      <trkpt lat="47.88616" lon="6.83115">
        <ele>779</ele>
        <time>2022-09-12T09:45:16Z</time>
      </trkpt>
      <trkpt lat="47.88615" lon="6.83116">
        <ele>778</ele>
        <time>2022-09-12T09:45:17Z</time>
      </trkpt>
      <trkpt lat="47.88614" lon="6.83117">
        <ele>778</ele>
        <time>2022-09-12T09:45:18Z</time>
      </trkpt>
      <trkpt lat="47.88613" lon="6.83117">
        <ele>778</ele>
        <time>2022-09-12T09:45:19Z</time>
      </trkpt>
      <trkpt lat="47.88612" lon="6.83118">
        <ele>778</ele>
        <time>2022-09-12T09:45:20Z</time>
      </trkpt>
      <trkpt lat="47.88611" lon="6.83118">
        <ele>778</ele>
        <time>2022-09-12T09:45:21Z</time>
      </trkpt>
      <trkpt lat="47.8861" lon="6.83119">
        <ele>778</ele>
        <time>2022-09-12T09:45:22Z</time>
      </trkpt>
      <trkpt lat="47.88609" lon="6.8312">
        <ele>778</ele>
        <time>2022-09-12T09:45:23Z</time>
      </trkpt>
      <trkpt lat="47.88608" lon="6.83121">
        <ele>778</ele>
        <time>2022-09-12T09:45:24Z</time>
      </trkpt>
      <trkpt lat="47.88607" lon="6.83123">
        <ele>778</ele>
        <time>2022-09-12T09:45:25Z</time>
      </trkpt>
      <trkpt lat="47.88606" lon="6.83124">
        <ele>778</ele>
        <time>2022-09-12T09:45:26Z</time>
      </trkpt>
      <trkpt lat="47.88605" lon="6.83126">
        <ele>777</ele>
        <time>2022-09-12T09:45:27Z</time>
      </trkpt>
      <trkpt lat="47.88604" lon="6.83127">
        <ele>777</ele>
        <time>2022-09-12T09:45:28Z</time>
      </trkpt>
      <trkpt lat="47.88602" lon="6.83128">
        <ele>777</ele>
        <time>2022-09-12T09:45:29Z</time>
      </trkpt>
      <trkpt lat="47.88601" lon="6.83129">
        <ele>777</ele>
        <time>2022-09-12T09:45:30Z</time>
      </trkpt>
      <trkpt lat="47.886" lon="6.8313">
        <ele>777</ele>
        <time>2022-09-12T09:45:31Z</time>
      </trkpt>
      <trkpt lat="47.886" lon="6.8313">
        <ele>777</ele>
        <time>2022-09-12T09:45:32Z</time>
      </trkpt>
      <trkpt lat="47.88599" lon="6.83131">
        <ele>777</ele>
        <time>2022-09-12T09:45:33Z</time>
      </trkpt>
      <trkpt lat="47.88598" lon="6.83132">
        <ele>777</ele>
        <time>2022-09-12T09:45:34Z</time>
      </trkpt>
      <trkpt lat="47.88598" lon="6.83133">
        <ele>777</ele>
        <time>2022-09-12T09:45:35Z</time>
      </trkpt>
      <trkpt lat="47.88597" lon="6.83133">
        <ele>777</ele>
        <time>2022-09-12T09:45:36Z</time>
      </trkpt>
      <trkpt lat="47.88596" lon="6.83134">
        <ele>776</ele>
        <time>2022-09-12T09:45:37Z</time>
      </trkpt>
      <trkpt lat="47.88595" lon="6.83135">
        <ele>776</ele>
        <time>2022-09-12T09:45:38Z</time>
      </trkpt>
      <trkpt lat="47.88593" lon="6.83135">
        <ele>776</ele>
        <time>2022-09-12T09:45:39Z</time>
      </trkpt>
      <trkpt lat="47.88593" lon="6.83135">
        <ele>776</ele>
        <time>2022-09-12T09:45:40Z</time>
      </trkpt>
      <trkpt lat="47.88592" lon="6.83136">
        <ele>776</ele>
        <time>2022-09-12T09:45:41Z</time>
      </trkpt>
      <trkpt lat="47.88591" lon="6.83135">
        <ele>775</ele>
        <time>2022-09-12T09:45:42Z</time>
      </trkpt>
      <trkpt lat="47.8859" lon="6.83135">
        <ele>775</ele>
        <time>2022-09-12T09:45:43Z</time>
      </trkpt>
      <trkpt lat="47.88589" lon="6.83135">
        <ele>775</ele>
        <time>2022-09-12T09:45:44Z</time>
      </trkpt>
      <trkpt lat="47.88588" lon="6.83134">
        <ele>775</ele>
        <time>2022-09-12T09:45:45Z</time>
      </trkpt>
      <trkpt lat="47.88587" lon="6.83134">
        <ele>775</ele>
        <time>2022-09-12T09:45:46Z</time>
      </trkpt>
      <trkpt lat="47.88586" lon="6.83133">
        <ele>775</ele>
        <time>2022-09-12T09:45:47Z</time>
      </trkpt>
      <trkpt lat="47.88585" lon="6.83132">
        <ele>775</ele>
        <time>2022-09-12T09:45:48Z</time>
      </trkpt>
      <trkpt lat="47.88584" lon="6.83131">
        <ele>775</ele>
        <time>2022-09-12T09:45:49Z</time>
      </trkpt>
      <trkpt lat="47.88583" lon="6.8313">
        <ele>775</ele>
        <time>2022-09-12T09:45:50Z</time>
      </trkpt>
      <trkpt lat="47.88582" lon="6.83128">
        <ele>775</ele>
        <time>2022-09-12T09:45:51Z</time>
      </trkpt>
      <trkpt lat="47.88581" lon="6.83127">
        <ele>775</ele>
        <time>2022-09-12T09:45:52Z</time>
      </trkpt>
      <trkpt lat="47.8858" lon="6.83126">
        <ele>775</ele>
        <time>2022-09-12T09:45:53Z</time>
      </trkpt>
      <trkpt lat="47.88579" lon="6.83125">
        <ele>775</ele>
        <time>2022-09-12T09:45:54Z</time>
      </trkpt>
      <trkpt lat="47.88578" lon="6.83124">
        <ele>775</ele>
        <time>2022-09-12T09:45:55Z</time>
      </trkpt>
      <trkpt lat="47.88577" lon="6.83123">
        <ele>775</ele>
        <time>2022-09-12T09:45:56Z</time>
      </trkpt>
      <trkpt lat="47.88577" lon="6.83122">
        <ele>775</ele>
        <time>2022-09-12T09:45:57Z</time>
      </trkpt>
      <trkpt lat="47.88576" lon="6.8312">
        <ele>775</ele>
        <time>2022-09-12T09:45:58Z</time>
      </trkpt>
      <trkpt lat="47.88576" lon="6.83119">
        <ele>775</ele>
        <time>2022-09-12T09:45:59Z</time>
      </trkpt>
      <trkpt lat="47.88576" lon="6.83118">
        <ele>775</ele>
        <time>2022-09-12T09:46:00Z</time>
      </trkpt>
      <trkpt lat="47.88575" lon="6.83117">
        <ele>775</ele>
        <time>2022-09-12T09:46:01Z</time>
      </trkpt>
      <trkpt lat="47.88574" lon="6.83116">
        <ele>774</ele>
        <time>2022-09-12T09:46:02Z</time>
      </trkpt>
      <trkpt lat="47.88573" lon="6.83115">
        <ele>774</ele>
        <time>2022-09-12T09:46:03Z</time>
      </trkpt>
      <trkpt lat="47.88573" lon="6.83114">
        <ele>774</ele>
        <time>2022-09-12T09:46:04Z</time>
      </trkpt>
      <trkpt lat="47.88573" lon="6.83112">
        <ele>774</ele>
        <time>2022-09-12T09:46:05Z</time>
      </trkpt>
      <trkpt lat="47.88573" lon="6.83111">
        <ele>774</ele>
        <time>2022-09-12T09:46:06Z</time>
      </trkpt>
      <trkpt lat="47.88573" lon="6.8311">
        <ele>773</ele>
        <time>2022-09-12T09:46:07Z</time>
      </trkpt>
      <trkpt lat="47.88573" lon="6.83108">
        <ele>773</ele>
        <time>2022-09-12T09:46:08Z</time>
      </trkpt>
      <trkpt lat="47.88573" lon="6.83107">
        <ele>773</ele>
        <time>2022-09-12T09:46:09Z</time>
      </trkpt>
      <trkpt lat="47.88573" lon="6.83106">
        <ele>773</ele>
        <time>2022-09-12T09:46:10Z</time>
      </trkpt>
      <trkpt lat="47.88573" lon="6.83105">
        <ele>773</ele>
        <time>2022-09-12T09:46:11Z</time>
      </trkpt>
      <trkpt lat="47.88573" lon="6.83104">
        <ele>772</ele>
        <time>2022-09-12T09:46:12Z</time>
      </trkpt>
      <trkpt lat="47.88573" lon="6.83103">
        <ele>772</ele>
        <time>2022-09-12T09:46:13Z</time>
      </trkpt>
      <trkpt lat="47.88573" lon="6.83103">
        <ele>772</ele>
        <time>2022-09-12T09:46:14Z</time>
      </trkpt>
      <trkpt lat="47.88573" lon="6.83102">
        <ele>772</ele>
        <time>2022-09-12T09:46:15Z</time>
      </trkpt>
      <trkpt lat="47.88573" lon="6.83101">
        <ele>772</ele>
        <time>2022-09-12T09:46:16Z</time>
      </trkpt>
      <trkpt lat="47.88574" lon="6.831">
        <ele>772</ele>
        <time>2022-09-12T09:46:17Z</time>
      </trkpt>
      <trkpt lat="47.88575" lon="6.83099">
        <ele>772</ele>
        <time>2022-09-12T09:46:18Z</time>
      </trkpt>
      <trkpt lat="47.88576" lon="6.83097">
        <ele>772</ele>
        <time>2022-09-12T09:46:19Z</time>
      </trkpt>
      <trkpt lat="47.88576" lon="6.83095">
        <ele>772</ele>
        <time>2022-09-12T09:46:20Z</time>
      </trkpt>
      <trkpt lat="47.88577" lon="6.83094">
        <ele>772</ele>
        <time>2022-09-12T09:46:21Z</time>
      </trkpt>
      <trkpt lat="47.88578" lon="6.83092">
        <ele>772</ele>
        <time>2022-09-12T09:46:22Z</time>
      </trkpt>
      <trkpt lat="47.88578" lon="6.8309">
        <ele>772</ele>
        <time>2022-09-12T09:46:23Z</time>
      </trkpt>
      <trkpt lat="47.88578" lon="6.83088">
        <ele>772</ele>
        <time>2022-09-12T09:46:24Z</time>
      </trkpt>
      <trkpt lat="47.88578" lon="6.83086">
        <ele>772</ele>
        <time>2022-09-12T09:46:25Z</time>
      </trkpt>
      <trkpt lat="47.88578" lon="6.83084">
        <ele>772</ele>
        <time>2022-09-12T09:46:26Z</time>
      </trkpt>
      <trkpt lat="47.88577" lon="6.83083">
        <ele>771</ele>
        <time>2022-09-12T09:46:27Z</time>
      </trkpt>
      <trkpt lat="47.88577" lon="6.83081">
        <ele>771</ele>
        <time>2022-09-12T09:46:28Z</time>
      </trkpt>
      <trkpt lat="47.88576" lon="6.8308">
        <ele>771</ele>
        <time>2022-09-12T09:46:29Z</time>
      </trkpt>
      <trkpt lat="47.88576" lon="6.8308">
        <ele>771</ele>
        <time>2022-09-12T09:46:30Z</time>
      </trkpt>
      <trkpt lat="47.88575" lon="6.83079">
        <ele>771</ele>
        <time>2022-09-12T09:46:31Z</time>
      </trkpt>
      <trkpt lat="47.88575" lon="6.83078">
        <ele>771</ele>
        <time>2022-09-12T09:46:32Z</time>
      </trkpt>
      <trkpt lat="47.88575" lon="6.83077">
        <ele>771</ele>
        <time>2022-09-12T09:46:33Z</time>
      </trkpt>
      <trkpt lat="47.88575" lon="6.83076">
        <ele>771</ele>
        <time>2022-09-12T09:46:34Z</time>
      </trkpt>
      <trkpt lat="47.88574" lon="6.83074">
        <ele>771</ele>
        <time>2022-09-12T09:46:35Z</time>
      </trkpt>
      <trkpt lat="47.88574" lon="6.83073">
        <ele>771</ele>
        <time>2022-09-12T09:46:36Z</time>
      </trkpt>
      <trkpt lat="47.88574" lon="6.83072">
        <ele>770</ele>
        <time>2022-09-12T09:46:37Z</time>
      </trkpt>
      <trkpt lat="47.88574" lon="6.8307">
        <ele>770</ele>
        <time>2022-09-12T09:46:38Z</time>
      </trkpt>
      <trkpt lat="47.88574" lon="6.83068">
        <ele>770</ele>
        <time>2022-09-12T09:46:39Z</time>
      </trkpt>
      <trkpt lat="47.88574" lon="6.83067">
        <ele>770</ele>
        <time>2022-09-12T09:46:40Z</time>
      </trkpt>
      <trkpt lat="47.88574" lon="6.83066">
        <ele>770</ele>
        <time>2022-09-12T09:46:41Z</time>
      </trkpt>
      <trkpt lat="47.88574" lon="6.83064">
        <ele>770</ele>
        <time>2022-09-12T09:46:42Z</time>
      </trkpt>
      <trkpt lat="47.88574" lon="6.83063">
        <ele>770</ele>
        <time>2022-09-12T09:46:43Z</time>
      </trkpt>
      <trkpt lat="47.88574" lon="6.83062">
        <ele>770</ele>
        <time>2022-09-12T09:46:44Z</time>
      </trkpt>
      <trkpt lat="47.88574" lon="6.83061">
        <ele>770</ele>
        <time>2022-09-12T09:46:45Z</time>
      </trkpt>
      <trkpt lat="47.88574" lon="6.83059">
        <ele>770</ele>
        <time>2022-09-12T09:46:46Z</time>
      </trkpt>
      <trkpt lat="47.88573" lon="6.83058">
        <ele>770</ele>
        <time>2022-09-12T09:46:47Z</time>
      </trkpt>
      <trkpt lat="47.88573" lon="6.83056">
        <ele>770</ele>
        <time>2022-09-12T09:46:48Z</time>
      </trkpt>
      <trkpt lat="47.88573" lon="6.83055">
        <ele>770</ele>
        <time>2022-09-12T09:46:49Z</time>
      </trkpt>
      <trkpt lat="47.88572" lon="6.83053">
        <ele>770</ele>
        <time>2022-09-12T09:46:50Z</time>
      </trkpt>
      <trkpt lat="47.88572" lon="6.83052">
        <ele>770</ele>
        <time>2022-09-12T09:46:51Z</time>
      </trkpt>
      <trkpt lat="47.88571" lon="6.83051">
        <ele>770</ele>
        <time>2022-09-12T09:46:52Z</time>
      </trkpt>
      <trkpt lat="47.88571" lon="6.83049">
        <ele>770</ele>
        <time>2022-09-12T09:46:53Z</time>
      </trkpt>
      <trkpt lat="47.88571" lon="6.83048">
        <ele>770</ele>
        <time>2022-09-12T09:46:54Z</time>
      </trkpt>
      <trkpt lat="47.88571" lon="6.83046">
        <ele>770</ele>
        <time>2022-09-12T09:46:55Z</time>
      </trkpt>
      <trkpt lat="47.8857" lon="6.83044">
        <ele>770</ele>
        <time>2022-09-12T09:46:56Z</time>
      </trkpt>
      <trkpt lat="47.8857" lon="6.83043">
        <ele>769</ele>
        <time>2022-09-12T09:46:57Z</time>
      </trkpt>
      <trkpt lat="47.88569" lon="6.83041">
        <ele>769</ele>
        <time>2022-09-12T09:46:58Z</time>
      </trkpt>
      <trkpt lat="47.88569" lon="6.8304">
        <ele>769</ele>
        <time>2022-09-12T09:46:59Z</time>
      </trkpt>
      <trkpt lat="47.88569" lon="6.83038">
        <ele>769</ele>
        <time>2022-09-12T09:47:00Z</time>
      </trkpt>
      <trkpt lat="47.88569" lon="6.83037">
        <ele>769</ele>
        <time>2022-09-12T09:47:01Z</time>
      </trkpt>
      <trkpt lat="47.88569" lon="6.83035">
        <ele>769</ele>
        <time>2022-09-12T09:47:02Z</time>
      </trkpt>
      <trkpt lat="47.8857" lon="6.83034">
        <ele>769</ele>
        <time>2022-09-12T09:47:03Z</time>
      </trkpt>
      <trkpt lat="47.8857" lon="6.83033">
        <ele>769</ele>
        <time>2022-09-12T09:47:04Z</time>
      </trkpt>
      <trkpt lat="47.8857" lon="6.83031">
        <ele>769</ele>
        <time>2022-09-12T09:47:05Z</time>
      </trkpt>
      <trkpt lat="47.8857" lon="6.8303">
        <ele>769</ele>
        <time>2022-09-12T09:47:06Z</time>
      </trkpt>
      <trkpt lat="47.8857" lon="6.83028">
        <ele>769</ele>
        <time>2022-09-12T09:47:07Z</time>
      </trkpt>
      <trkpt lat="47.88569" lon="6.83027">
        <ele>769</ele>
        <time>2022-09-12T09:47:08Z</time>
      </trkpt>
      <trkpt lat="47.88568" lon="6.83025">
        <ele>769</ele>
        <time>2022-09-12T09:47:09Z</time>
      </trkpt>
      <trkpt lat="47.88567" lon="6.83024">
        <ele>769</ele>
        <time>2022-09-12T09:47:10Z</time>
      </trkpt>
      <trkpt lat="47.88566" lon="6.83022">
        <ele>769</ele>
        <time>2022-09-12T09:47:11Z</time>
      </trkpt>
      <trkpt lat="47.88566" lon="6.83021">
        <ele>769</ele>
        <time>2022-09-12T09:47:12Z</time>
      </trkpt>
      <trkpt lat="47.88565" lon="6.83019">
        <ele>769</ele>
        <time>2022-09-12T09:47:13Z</time>
      </trkpt>
      <trkpt lat="47.88565" lon="6.83017">
        <ele>769</ele>
        <time>2022-09-12T09:47:14Z</time>
      </trkpt>
      <trkpt lat="47.88564" lon="6.83015">
        <ele>769</ele>
        <time>2022-09-12T09:47:15Z</time>
      </trkpt>
      <trkpt lat="47.88565" lon="6.83013">
        <ele>769</ele>
        <time>2022-09-12T09:47:16Z</time>
      </trkpt>
      <trkpt lat="47.88565" lon="6.83011">
        <ele>769</ele>
        <time>2022-09-12T09:47:17Z</time>
      </trkpt>
      <trkpt lat="47.88565" lon="6.83009">
        <ele>769</ele>
        <time>2022-09-12T09:47:18Z</time>
      </trkpt>
      <trkpt lat="47.88566" lon="6.83007">
        <ele>769</ele>
        <time>2022-09-12T09:47:19Z</time>
      </trkpt>
      <trkpt lat="47.88566" lon="6.83007">
        <ele>769</ele>
        <time>2022-09-12T09:47:20Z</time>
      </trkpt>
      <trkpt lat="47.88566" lon="6.83006">
        <ele>769</ele>
        <time>2022-09-12T09:47:21Z</time>
      </trkpt>
      <trkpt lat="47.88566" lon="6.83006">
        <ele>768</ele>
        <time>2022-09-12T09:47:22Z</time>
      </trkpt>
      <trkpt lat="47.88566" lon="6.83005">
        <ele>768</ele>
        <time>2022-09-12T09:47:23Z</time>
      </trkpt>
      <trkpt lat="47.88566" lon="6.83004">
        <ele>768</ele>
        <time>2022-09-12T09:47:24Z</time>
      </trkpt>
      <trkpt lat="47.88566" lon="6.83003">
        <ele>768</ele>
        <time>2022-09-12T09:47:25Z</time>
      </trkpt>
      <trkpt lat="47.88567" lon="6.83002">
        <ele>768</ele>
        <time>2022-09-12T09:47:26Z</time>
      </trkpt>
      <trkpt lat="47.88567" lon="6.83">
        <ele>768</ele>
        <time>2022-09-12T09:47:27Z</time>
      </trkpt>
      <trkpt lat="47.88568" lon="6.83">
        <ele>768</ele>
        <time>2022-09-12T09:47:28Z</time>
      </trkpt>
      <trkpt lat="47.88568" lon="6.82999">
        <ele>768</ele>
        <time>2022-09-12T09:47:29Z</time>
      </trkpt>
      <trkpt lat="47.88569" lon="6.82998">
        <ele>768</ele>
        <time>2022-09-12T09:47:30Z</time>
      </trkpt>
      <trkpt lat="47.88569" lon="6.82997">
        <ele>768</ele>
        <time>2022-09-12T09:47:31Z</time>
      </trkpt>
      <trkpt lat="47.88569" lon="6.82996">
        <ele>767</ele>
        <time>2022-09-12T09:47:32Z</time>
      </trkpt>
      <trkpt lat="47.8857" lon="6.82995">
        <ele>767</ele>
        <time>2022-09-12T09:47:33Z</time>
      </trkpt>
      <trkpt lat="47.8857" lon="6.82993">
        <ele>767</ele>
        <time>2022-09-12T09:47:34Z</time>
      </trkpt>
      <trkpt lat="47.8857" lon="6.82992">
        <ele>767</ele>
        <time>2022-09-12T09:47:35Z</time>
      </trkpt>
      <trkpt lat="47.8857" lon="6.8299">
        <ele>767</ele>
        <time>2022-09-12T09:47:36Z</time>
      </trkpt>
      <trkpt lat="47.8857" lon="6.82989">
        <ele>767</ele>
        <time>2022-09-12T09:47:37Z</time>
      </trkpt>
      <trkpt lat="47.8857" lon="6.82987">
        <ele>767</ele>
        <time>2022-09-12T09:47:38Z</time>
      </trkpt>
      <trkpt lat="47.8857" lon="6.82985">
        <ele>767</ele>
        <time>2022-09-12T09:47:39Z</time>
      </trkpt>
      <trkpt lat="47.8857" lon="6.82984">
        <ele>767</ele>
        <time>2022-09-12T09:47:40Z</time>
      </trkpt>
      <trkpt lat="47.8857" lon="6.82982">
        <ele>767</ele>
        <time>2022-09-12T09:47:41Z</time>
      </trkpt>
      <trkpt lat="47.8857" lon="6.82981">
        <ele>766</ele>
        <time>2022-09-12T09:47:42Z</time>
      </trkpt>
      <trkpt lat="47.88569" lon="6.8298">
        <ele>766</ele>
        <time>2022-09-12T09:47:43Z</time>
      </trkpt>
      <trkpt lat="47.88569" lon="6.82979">
        <ele>766</ele>
        <time>2022-09-12T09:47:44Z</time>
      </trkpt>
      <trkpt lat="47.88569" lon="6.82979">
        <ele>766</ele>
        <time>2022-09-12T09:47:45Z</time>
      </trkpt>
      <trkpt lat="47.88569" lon="6.82978">
        <ele>766</ele>
        <time>2022-09-12T09:47:46Z</time>
      </trkpt>
      <trkpt lat="47.88569" lon="6.82977">
        <ele>766</ele>
        <time>2022-09-12T09:47:47Z</time>
      </trkpt>
      <trkpt lat="47.88569" lon="6.82976">
        <ele>766</ele>
        <time>2022-09-12T09:47:48Z</time>
      </trkpt>
      <trkpt lat="47.88569" lon="6.82974">
        <ele>765</ele>
        <time>2022-09-12T09:47:54Z</time>
      </trkpt>
      <trkpt lat="47.88569" lon="6.82974">
        <ele>765</ele>
        <time>2022-09-12T09:47:55Z</time>
      </trkpt>
      <trkpt lat="47.88569" lon="6.82973">
        <ele>765</ele>
        <time>2022-09-12T09:47:56Z</time>
      </trkpt>
      <trkpt lat="47.8857" lon="6.82972">
        <ele>765</ele>
        <time>2022-09-12T09:47:57Z</time>
      </trkpt>
      <trkpt lat="47.8857" lon="6.82971">
        <ele>765</ele>
        <time>2022-09-12T09:47:58Z</time>
      </trkpt>
      <trkpt lat="47.8857" lon="6.8297">
        <ele>765</ele>
        <time>2022-09-12T09:47:59Z</time>
      </trkpt>
      <trkpt lat="47.8857" lon="6.82969">
        <ele>765</ele>
        <time>2022-09-12T09:48:00Z</time>
      </trkpt>
      <trkpt lat="47.88571" lon="6.82968">
        <ele>765</ele>
        <time>2022-09-12T09:48:01Z</time>
      </trkpt>
      <trkpt lat="47.88571" lon="6.82967">
        <ele>765</ele>
        <time>2022-09-12T09:48:02Z</time>
      </trkpt>
      <trkpt lat="47.88571" lon="6.82966">
        <ele>765</ele>
        <time>2022-09-12T09:48:03Z</time>
      </trkpt>
      <trkpt lat="47.88572" lon="6.82964">
        <ele>765</ele>
        <time>2022-09-12T09:48:04Z</time>
      </trkpt>
      <trkpt lat="47.88572" lon="6.82963">
        <ele>765</ele>
        <time>2022-09-12T09:48:05Z</time>
      </trkpt>
      <trkpt lat="47.88572" lon="6.82961">
        <ele>765</ele>
        <time>2022-09-12T09:48:06Z</time>
      </trkpt>
      <trkpt lat="47.88572" lon="6.8296">
        <ele>764</ele>
        <time>2022-09-12T09:48:07Z</time>
      </trkpt>
      <trkpt lat="47.88572" lon="6.82958">
        <ele>764</ele>
        <time>2022-09-12T09:48:08Z</time>
      </trkpt>
      <trkpt lat="47.88573" lon="6.82957">
        <ele>764</ele>
        <time>2022-09-12T09:48:09Z</time>
      </trkpt>
      <trkpt lat="47.88573" lon="6.82955">
        <ele>764</ele>
        <time>2022-09-12T09:48:10Z</time>
      </trkpt>
      <trkpt lat="47.88574" lon="6.82954">
        <ele>764</ele>
        <time>2022-09-12T09:48:11Z</time>
      </trkpt>
      <trkpt lat="47.88574" lon="6.82952">
        <ele>764</ele>
        <time>2022-09-12T09:48:12Z</time>
      </trkpt>
      <trkpt lat="47.88575" lon="6.82951">
        <ele>764</ele>
        <time>2022-09-12T09:48:13Z</time>
      </trkpt>
      <trkpt lat="47.88575" lon="6.82949">
        <ele>764</ele>
        <time>2022-09-12T09:48:14Z</time>
      </trkpt>
      <trkpt lat="47.88575" lon="6.82948">
        <ele>764</ele>
        <time>2022-09-12T09:48:15Z</time>
      </trkpt>
      <trkpt lat="47.88576" lon="6.82946">
        <ele>764</ele>
        <time>2022-09-12T09:48:16Z</time>
      </trkpt>
      <trkpt lat="47.88576" lon="6.82944">
        <ele>763</ele>
        <time>2022-09-12T09:48:17Z</time>
      </trkpt>
      <trkpt lat="47.88577" lon="6.82943">
        <ele>763</ele>
        <time>2022-09-12T09:48:18Z</time>
      </trkpt>
      <trkpt lat="47.88577" lon="6.82941">
        <ele>763</ele>
        <time>2022-09-12T09:48:19Z</time>
      </trkpt>
      <trkpt lat="47.88577" lon="6.8294">
        <ele>763</ele>
        <time>2022-09-12T09:48:20Z</time>
      </trkpt>
      <trkpt lat="47.88577" lon="6.82939">
        <ele>763</ele>
        <time>2022-09-12T09:48:21Z</time>
      </trkpt>
      <trkpt lat="47.88578" lon="6.82938">
        <ele>763</ele>
        <time>2022-09-12T09:48:22Z</time>
      </trkpt>
      <trkpt lat="47.88577" lon="6.82937">
        <ele>763</ele>
        <time>2022-09-12T09:48:23Z</time>
      </trkpt>
      <trkpt lat="47.88577" lon="6.82936">
        <ele>763</ele>
        <time>2022-09-12T09:48:24Z</time>
      </trkpt>
      <trkpt lat="47.88576" lon="6.82934">
        <ele>763</ele>
        <time>2022-09-12T09:48:25Z</time>
      </trkpt>
      <trkpt lat="47.88575" lon="6.82933">
        <ele>763</ele>
        <time>2022-09-12T09:48:26Z</time>
      </trkpt>
      <trkpt lat="47.88576" lon="6.82928">
        <ele>762</ele>
        <time>2022-09-12T09:49:45Z</time>
      </trkpt>
      <trkpt lat="47.88577" lon="6.82926">
        <ele>762</ele>
        <time>2022-09-12T09:49:46Z</time>
      </trkpt>
      <trkpt lat="47.88578" lon="6.82925">
        <ele>762</ele>
        <time>2022-09-12T09:49:47Z</time>
      </trkpt>
      <trkpt lat="47.88579" lon="6.82923">
        <ele>762</ele>
        <time>2022-09-12T09:49:57Z</time>
      </trkpt>
      <trkpt lat="47.8858" lon="6.82922">
        <ele>762</ele>
        <time>2022-09-12T09:49:58Z</time>
      </trkpt>
      <trkpt lat="47.8858" lon="6.82922">
        <ele>762</ele>
        <time>2022-09-12T09:49:59Z</time>
      </trkpt>
      <trkpt lat="47.88579" lon="6.82922">
        <ele>762</ele>
        <time>2022-09-12T09:50:00Z</time>
      </trkpt>
      <trkpt lat="47.88579" lon="6.82921">
        <ele>762</ele>
        <time>2022-09-12T09:50:01Z</time>
      </trkpt>
      <trkpt lat="47.88578" lon="6.82921">
        <ele>762</ele>
        <time>2022-09-12T09:50:02Z</time>
      </trkpt>
      <trkpt lat="47.88577" lon="6.82921">
        <ele>762</ele>
        <time>2022-09-12T09:50:03Z</time>
      </trkpt>
      <trkpt lat="47.88577" lon="6.8292">
        <ele>762</ele>
        <time>2022-09-12T09:50:04Z</time>
      </trkpt>
      <trkpt lat="47.88576" lon="6.82919">
        <ele>762</ele>
        <time>2022-09-12T09:50:05Z</time>
      </trkpt>
      <trkpt lat="47.88575" lon="6.82918">
        <ele>762</ele>
        <time>2022-09-12T09:50:06Z</time>
      </trkpt>
      <trkpt lat="47.88575" lon="6.82917">
        <ele>762</ele>
        <time>2022-09-12T09:50:07Z</time>
      </trkpt>
      <trkpt lat="47.88574" lon="6.82915">
        <ele>762</ele>
        <time>2022-09-12T09:50:08Z</time>
      </trkpt>
      <trkpt lat="47.88574" lon="6.82914">
        <ele>762</ele>
        <time>2022-09-12T09:50:09Z</time>
      </trkpt>
      <trkpt lat="47.88573" lon="6.82913">
        <ele>762</ele>
        <time>2022-09-12T09:50:10Z</time>
      </trkpt>
      <trkpt lat="47.88573" lon="6.82911">
        <ele>762</ele>
        <time>2022-09-12T09:50:11Z</time>
      </trkpt>
      <trkpt lat="47.88573" lon="6.8291">
        <ele>762</ele>
        <time>2022-09-12T09:50:12Z</time>
      </trkpt>
      <trkpt lat="47.88573" lon="6.82908">
        <ele>762</ele>
        <time>2022-09-12T09:50:13Z</time>
      </trkpt>
      <trkpt lat="47.88572" lon="6.82907">
        <ele>762</ele>
        <time>2022-09-12T09:50:14Z</time>
      </trkpt>
      <trkpt lat="47.88572" lon="6.82905">
        <ele>762</ele>
        <time>2022-09-12T09:50:15Z</time>
      </trkpt>
      <trkpt lat="47.88572" lon="6.82904">
        <ele>762</ele>
        <time>2022-09-12T09:50:16Z</time>
      </trkpt>
      <trkpt lat="47.88572" lon="6.82902">
        <ele>762</ele>
        <time>2022-09-12T09:50:17Z</time>
      </trkpt>
      <trkpt lat="47.88573" lon="6.829">
        <ele>762</ele>
        <time>2022-09-12T09:50:18Z</time>
      </trkpt>
      <trkpt lat="47.88573" lon="6.82898">
        <ele>762</ele>
        <time>2022-09-12T09:50:19Z</time>
      </trkpt>
      <trkpt lat="47.88574" lon="6.82896">
        <ele>762</ele>
        <time>2022-09-12T09:50:20Z</time>
      </trkpt>
      <trkpt lat="47.88574" lon="6.82894">
        <ele>762</ele>
        <time>2022-09-12T09:50:21Z</time>
      </trkpt>
      <trkpt lat="47.88575" lon="6.82892">
        <ele>762</ele>
        <time>2022-09-12T09:50:22Z</time>
      </trkpt>
      <trkpt lat="47.88576" lon="6.8289">
        <ele>762</ele>
        <time>2022-09-12T09:50:23Z</time>
      </trkpt>
      <trkpt lat="47.88576" lon="6.82888">
        <ele>762</ele>
        <time>2022-09-12T09:50:24Z</time>
      </trkpt>
      <trkpt lat="47.88577" lon="6.82887">
        <ele>762</ele>
        <time>2022-09-12T09:50:25Z</time>
      </trkpt>
      <trkpt lat="47.88578" lon="6.82886">
        <ele>762</ele>
        <time>2022-09-12T09:50:26Z</time>
      </trkpt>
      <trkpt lat="47.88578" lon="6.82884">
        <ele>761</ele>
        <time>2022-09-12T09:50:27Z</time>
      </trkpt>
      <trkpt lat="47.88579" lon="6.82883">
        <ele>761</ele>
        <time>2022-09-12T09:50:28Z</time>
      </trkpt>
      <trkpt lat="47.88579" lon="6.82882">
        <ele>761</ele>
        <time>2022-09-12T09:50:29Z</time>
      </trkpt>
      <trkpt lat="47.8858" lon="6.8288">
        <ele>761</ele>
        <time>2022-09-12T09:50:30Z</time>
      </trkpt>
      <trkpt lat="47.88581" lon="6.82878">
        <ele>761</ele>
        <time>2022-09-12T09:50:31Z</time>
      </trkpt>
      <trkpt lat="47.88582" lon="6.82876">
        <ele>761</ele>
        <time>2022-09-12T09:50:32Z</time>
      </trkpt>
      <trkpt lat="47.88582" lon="6.82875">
        <ele>761</ele>
        <time>2022-09-12T09:50:33Z</time>
      </trkpt>
      <trkpt lat="47.88583" lon="6.82874">
        <ele>761</ele>
        <time>2022-09-12T09:50:34Z</time>
      </trkpt>
      <trkpt lat="47.88583" lon="6.82873">
        <ele>761</ele>
        <time>2022-09-12T09:50:35Z</time>
      </trkpt>
      <trkpt lat="47.88583" lon="6.82872">
        <ele>761</ele>
        <time>2022-09-12T09:50:36Z</time>
      </trkpt>
      <trkpt lat="47.88584" lon="6.82871">
        <ele>760</ele>
        <time>2022-09-12T09:50:37Z</time>
      </trkpt>
      <trkpt lat="47.88584" lon="6.8287">
        <ele>760</ele>
        <time>2022-09-12T09:50:38Z</time>
      </trkpt>
      <trkpt lat="47.88585" lon="6.82869">
        <ele>760</ele>
        <time>2022-09-12T09:50:39Z</time>
      </trkpt>
      <trkpt lat="47.88586" lon="6.82868">
        <ele>760</ele>
        <time>2022-09-12T09:50:40Z</time>
      </trkpt>
      <trkpt lat="47.88586" lon="6.82867">
        <ele>760</ele>
        <time>2022-09-12T09:50:41Z</time>
      </trkpt>
      <trkpt lat="47.88587" lon="6.82866">
        <ele>760</ele>
        <time>2022-09-12T09:50:42Z</time>
      </trkpt>
      <trkpt lat="47.88588" lon="6.82865">
        <ele>760</ele>
        <time>2022-09-12T09:50:43Z</time>
      </trkpt>
      <trkpt lat="47.88589" lon="6.82864">
        <ele>760</ele>
        <time>2022-09-12T09:50:44Z</time>
      </trkpt>
      <trkpt lat="47.88589" lon="6.82863">
        <ele>760</ele>
        <time>2022-09-12T09:50:45Z</time>
      </trkpt>
      <trkpt lat="47.8859" lon="6.82862">
        <ele>760</ele>
        <time>2022-09-12T09:50:46Z</time>
      </trkpt>
      <trkpt lat="47.8859" lon="6.8286">
        <ele>759</ele>
        <time>2022-09-12T09:50:47Z</time>
      </trkpt>
      <trkpt lat="47.88591" lon="6.82859">
        <ele>759</ele>
        <time>2022-09-12T09:50:48Z</time>
      </trkpt>
      <trkpt lat="47.88591" lon="6.82857">
        <ele>759</ele>
        <time>2022-09-12T09:50:49Z</time>
      </trkpt>
      <trkpt lat="47.88591" lon="6.82856">
        <ele>759</ele>
        <time>2022-09-12T09:50:50Z</time>
      </trkpt>
      <trkpt lat="47.88592" lon="6.82854">
        <ele>759</ele>
        <time>2022-09-12T09:50:51Z</time>
      </trkpt>
      <trkpt lat="47.88592" lon="6.82853">
        <ele>759</ele>
        <time>2022-09-12T09:50:52Z</time>
      </trkpt>
      <trkpt lat="47.88593" lon="6.82851">
        <ele>759</ele>
        <time>2022-09-12T09:50:53Z</time>
      </trkpt>
      <trkpt lat="47.88593" lon="6.8285">
        <ele>759</ele>
        <time>2022-09-12T09:50:54Z</time>
      </trkpt>
      <trkpt lat="47.88593" lon="6.82849">
        <ele>759</ele>
        <time>2022-09-12T09:50:55Z</time>
      </trkpt>
      <trkpt lat="47.88594" lon="6.82848">
        <ele>759</ele>
        <time>2022-09-12T09:50:56Z</time>
      </trkpt>
      <trkpt lat="47.88594" lon="6.82846">
        <ele>758</ele>
        <time>2022-09-12T09:50:57Z</time>
      </trkpt>
      <trkpt lat="47.88594" lon="6.82845">
        <ele>758</ele>
        <time>2022-09-12T09:50:58Z</time>
      </trkpt>
      <trkpt lat="47.88594" lon="6.82844">
        <ele>758</ele>
        <time>2022-09-12T09:50:59Z</time>
      </trkpt>
      <trkpt lat="47.88594" lon="6.82842">
        <ele>758</ele>
        <time>2022-09-12T09:51:00Z</time>
      </trkpt>
      <trkpt lat="47.88594" lon="6.82841">
        <ele>758</ele>
        <time>2022-09-12T09:51:01Z</time>
      </trkpt>
      <trkpt lat="47.88594" lon="6.8284">
        <ele>757</ele>
        <time>2022-09-12T09:51:02Z</time>
      </trkpt>
      <trkpt lat="47.88594" lon="6.82838">
        <ele>757</ele>
        <time>2022-09-12T09:51:03Z</time>
      </trkpt>
      <trkpt lat="47.88595" lon="6.82837">
        <ele>757</ele>
        <time>2022-09-12T09:51:04Z</time>
      </trkpt>
      <trkpt lat="47.88596" lon="6.82836">
        <ele>757</ele>
        <time>2022-09-12T09:51:05Z</time>
      </trkpt>
      <trkpt lat="47.88596" lon="6.82835">
        <ele>757</ele>
        <time>2022-09-12T09:51:06Z</time>
      </trkpt>
      <trkpt lat="47.88596" lon="6.82833">
        <ele>757</ele>
        <time>2022-09-12T09:51:07Z</time>
      </trkpt>
      <trkpt lat="47.88596" lon="6.82832">
        <ele>757</ele>
        <time>2022-09-12T09:51:08Z</time>
      </trkpt>
      <trkpt lat="47.88597" lon="6.8283">
        <ele>757</ele>
        <time>2022-09-12T09:51:09Z</time>
      </trkpt>
      <trkpt lat="47.88597" lon="6.82828">
        <ele>757</ele>
        <time>2022-09-12T09:51:10Z</time>
      </trkpt>
      <trkpt lat="47.88597" lon="6.82827">
        <ele>757</ele>
        <time>2022-09-12T09:51:11Z</time>
      </trkpt>
      <trkpt lat="47.88598" lon="6.82825">
        <ele>756</ele>
        <time>2022-09-12T09:51:12Z</time>
      </trkpt>
      <trkpt lat="47.88598" lon="6.82824">
        <ele>756</ele>
        <time>2022-09-12T09:51:13Z</time>
      </trkpt>
      <trkpt lat="47.88599" lon="6.82822">
        <ele>756</ele>
        <time>2022-09-12T09:51:14Z</time>
      </trkpt>
      <trkpt lat="47.88599" lon="6.82821">
        <ele>756</ele>
        <time>2022-09-12T09:51:15Z</time>
      </trkpt>
      <trkpt lat="47.886" lon="6.8282">
        <ele>756</ele>
        <time>2022-09-12T09:51:16Z</time>
      </trkpt>
      <trkpt lat="47.886" lon="6.82819">
        <ele>755</ele>
        <time>2022-09-12T09:51:17Z</time>
      </trkpt>
      <trkpt lat="47.88601" lon="6.82818">
        <ele>755</ele>
        <time>2022-09-12T09:51:18Z</time>
      </trkpt>
      <trkpt lat="47.88602" lon="6.82817">
        <ele>754</ele>
        <time>2022-09-12T09:51:19Z</time>
      </trkpt>
      <trkpt lat="47.88603" lon="6.82816">
        <ele>754</ele>
        <time>2022-09-12T09:51:20Z</time>
      </trkpt>
      <trkpt lat="47.88603" lon="6.82815">
        <ele>754</ele>
        <time>2022-09-12T09:51:21Z</time>
      </trkpt>
      <trkpt lat="47.88604" lon="6.82814">
        <ele>754</ele>
        <time>2022-09-12T09:51:22Z</time>
      </trkpt>
      <trkpt lat="47.88604" lon="6.82813">
        <ele>754</ele>
        <time>2022-09-12T09:51:23Z</time>
      </trkpt>
      <trkpt lat="47.88604" lon="6.82811">
        <ele>754</ele>
        <time>2022-09-12T09:51:24Z</time>
      </trkpt>
      <trkpt lat="47.88604" lon="6.8281">
        <ele>754</ele>
        <time>2022-09-12T09:51:25Z</time>
      </trkpt>
      <trkpt lat="47.88605" lon="6.82808">
        <ele>754</ele>
        <time>2022-09-12T09:51:26Z</time>
      </trkpt>
      <trkpt lat="47.88605" lon="6.82807">
        <ele>753</ele>
        <time>2022-09-12T09:51:27Z</time>
      </trkpt>
      <trkpt lat="47.88605" lon="6.82805">
        <ele>753</ele>
        <time>2022-09-12T09:51:28Z</time>
      </trkpt>
      <trkpt lat="47.88605" lon="6.82804">
        <ele>753</ele>
        <time>2022-09-12T09:51:29Z</time>
      </trkpt>
      <trkpt lat="47.88606" lon="6.82803">
        <ele>753</ele>
        <time>2022-09-12T09:51:30Z</time>
      </trkpt>
      <trkpt lat="47.88606" lon="6.82801">
        <ele>753</ele>
        <time>2022-09-12T09:51:31Z</time>
      </trkpt>
      <trkpt lat="47.88607" lon="6.82801">
        <ele>753</ele>
        <time>2022-09-12T09:51:32Z</time>
      </trkpt>
      <trkpt lat="47.88607" lon="6.828">
        <ele>753</ele>
        <time>2022-09-12T09:51:33Z</time>
      </trkpt>
      <trkpt lat="47.88608" lon="6.82799">
        <ele>753</ele>
        <time>2022-09-12T09:51:34Z</time>
      </trkpt>
      <trkpt lat="47.88608" lon="6.82798">
        <ele>753</ele>
        <time>2022-09-12T09:51:35Z</time>
      </trkpt>
      <trkpt lat="47.88609" lon="6.82797">
        <ele>753</ele>
        <time>2022-09-12T09:51:36Z</time>
      </trkpt>
      <trkpt lat="47.88609" lon="6.82796">
        <ele>752</ele>
        <time>2022-09-12T09:51:37Z</time>
      </trkpt>
      <trkpt lat="47.88609" lon="6.82795">
        <ele>752</ele>
        <time>2022-09-12T09:51:38Z</time>
      </trkpt>
      <trkpt lat="47.88609" lon="6.82793">
        <ele>752</ele>
        <time>2022-09-12T09:51:39Z</time>
      </trkpt>
      <trkpt lat="47.8861" lon="6.82792">
        <ele>752</ele>
        <time>2022-09-12T09:51:40Z</time>
      </trkpt>
      <trkpt lat="47.8861" lon="6.8279">
        <ele>752</ele>
        <time>2022-09-12T09:51:41Z</time>
      </trkpt>
      <trkpt lat="47.8861" lon="6.82789">
        <ele>752</ele>
        <time>2022-09-12T09:51:42Z</time>
      </trkpt>
      <trkpt lat="47.88611" lon="6.82788">
        <ele>752</ele>
        <time>2022-09-12T09:51:43Z</time>
      </trkpt>
      <trkpt lat="47.88611" lon="6.82786">
        <ele>752</ele>
        <time>2022-09-12T09:51:44Z</time>
      </trkpt>
      <trkpt lat="47.88612" lon="6.82785">
        <ele>752</ele>
        <time>2022-09-12T09:51:45Z</time>
      </trkpt>
      <trkpt lat="47.88612" lon="6.82784">
        <ele>752</ele>
        <time>2022-09-12T09:51:46Z</time>
      </trkpt>
      <trkpt lat="47.88613" lon="6.82782">
        <ele>751</ele>
        <time>2022-09-12T09:51:47Z</time>
      </trkpt>
      <trkpt lat="47.88613" lon="6.82781">
        <ele>751</ele>
        <time>2022-09-12T09:51:48Z</time>
      </trkpt>
      <trkpt lat="47.88614" lon="6.8278">
        <ele>751</ele>
        <time>2022-09-12T09:51:49Z</time>
      </trkpt>
      <trkpt lat="47.88614" lon="6.82778">
        <ele>751</ele>
        <time>2022-09-12T09:51:50Z</time>
      </trkpt>
      <trkpt lat="47.88615" lon="6.82777">
        <ele>751</ele>
        <time>2022-09-12T09:51:51Z</time>
      </trkpt>
      <trkpt lat="47.88616" lon="6.82776">
        <ele>750</ele>
        <time>2022-09-12T09:51:52Z</time>
      </trkpt>
      <trkpt lat="47.88616" lon="6.82774">
        <ele>750</ele>
        <time>2022-09-12T09:51:53Z</time>
      </trkpt>
      <trkpt lat="47.88617" lon="6.82773">
        <ele>750</ele>
        <time>2022-09-12T09:51:54Z</time>
      </trkpt>
      <trkpt lat="47.88618" lon="6.82772">
        <ele>750</ele>
        <time>2022-09-12T09:51:55Z</time>
      </trkpt>
      <trkpt lat="47.88618" lon="6.82771">
        <ele>750</ele>
        <time>2022-09-12T09:51:56Z</time>
      </trkpt>
      <trkpt lat="47.88619" lon="6.82769">
        <ele>750</ele>
        <time>2022-09-12T09:51:57Z</time>
      </trkpt>
      <trkpt lat="47.88619" lon="6.82768">
        <ele>750</ele>
        <time>2022-09-12T09:51:58Z</time>
      </trkpt>
      <trkpt lat="47.8862" lon="6.82767">
        <ele>750</ele>
        <time>2022-09-12T09:51:59Z</time>
      </trkpt>
      <trkpt lat="47.8862" lon="6.82766">
        <ele>750</ele>
        <time>2022-09-12T09:52:00Z</time>
      </trkpt>
      <trkpt lat="47.88621" lon="6.82765">
        <ele>750</ele>
        <time>2022-09-12T09:52:01Z</time>
      </trkpt>
      <trkpt lat="47.88621" lon="6.82763">
        <ele>750</ele>
        <time>2022-09-12T09:52:02Z</time>
      </trkpt>
      <trkpt lat="47.88621" lon="6.82762">
        <ele>750</ele>
        <time>2022-09-12T09:52:03Z</time>
      </trkpt>
      <trkpt lat="47.88622" lon="6.82761">
        <ele>750</ele>
        <time>2022-09-12T09:52:04Z</time>
      </trkpt>
      <trkpt lat="47.88622" lon="6.82758">
        <ele>750</ele>
        <time>2022-09-12T09:52:05Z</time>
      </trkpt>
      <trkpt lat="47.88623" lon="6.82755">
        <ele>750</ele>
        <time>2022-09-12T09:52:06Z</time>
      </trkpt>
      <trkpt lat="47.88623" lon="6.82753">
        <ele>749</ele>
        <time>2022-09-12T09:52:26Z</time>
      </trkpt>
      <trkpt lat="47.88623" lon="6.82752">
        <ele>749</ele>
        <time>2022-09-12T09:52:27Z</time>
      </trkpt>
      <trkpt lat="47.88623" lon="6.82751">
        <ele>749</ele>
        <time>2022-09-12T09:52:28Z</time>
      </trkpt>
      <trkpt lat="47.88623" lon="6.8275">
        <ele>749</ele>
        <time>2022-09-12T09:52:29Z</time>
      </trkpt>
      <trkpt lat="47.88624" lon="6.82749">
        <ele>749</ele>
        <time>2022-09-12T09:52:30Z</time>
      </trkpt>
      <trkpt lat="47.88624" lon="6.82747">
        <ele>749</ele>
        <time>2022-09-12T09:52:31Z</time>
      </trkpt>
      <trkpt lat="47.88624" lon="6.82746">
        <ele>748</ele>
        <time>2022-09-12T09:52:32Z</time>
      </trkpt>
      <trkpt lat="47.88624" lon="6.82745">
        <ele>748</ele>
        <time>2022-09-12T09:52:33Z</time>
      </trkpt>
      <trkpt lat="47.88624" lon="6.82744">
        <ele>748</ele>
        <time>2022-09-12T09:52:34Z</time>
      </trkpt>
      <trkpt lat="47.88624" lon="6.82743">
        <ele>748</ele>
        <time>2022-09-12T09:52:35Z</time>
      </trkpt>
      <trkpt lat="47.88624" lon="6.82742">
        <ele>748</ele>
        <time>2022-09-12T09:52:36Z</time>
      </trkpt>
      <trkpt lat="47.88624" lon="6.82741">
        <ele>748</ele>
        <time>2022-09-12T09:52:37Z</time>
      </trkpt>
      <trkpt lat="47.88625" lon="6.82741">
        <ele>748</ele>
        <time>2022-09-12T09:52:38Z</time>
      </trkpt>
      <trkpt lat="47.88625" lon="6.8274">
        <ele>748</ele>
        <time>2022-09-12T09:52:39Z</time>
      </trkpt>
      <trkpt lat="47.88626" lon="6.82739">
        <ele>748</ele>
        <time>2022-09-12T09:52:40Z</time>
      </trkpt>
      <trkpt lat="47.88627" lon="6.82738">
        <ele>748</ele>
        <time>2022-09-12T09:52:41Z</time>
      </trkpt>
      <trkpt lat="47.88628" lon="6.82737">
        <ele>747</ele>
        <time>2022-09-12T09:52:42Z</time>
      </trkpt>
      <trkpt lat="47.88629" lon="6.82736">
        <ele>747</ele>
        <time>2022-09-12T09:52:43Z</time>
      </trkpt>
      <trkpt lat="47.88631" lon="6.82735">
        <ele>747</ele>
        <time>2022-09-12T09:52:44Z</time>
      </trkpt>
      <trkpt lat="47.88631" lon="6.82734">
        <ele>747</ele>
        <time>2022-09-12T09:52:45Z</time>
      </trkpt>
      <trkpt lat="47.88632" lon="6.82733">
        <ele>747</ele>
        <time>2022-09-12T09:52:46Z</time>
      </trkpt>
      <trkpt lat="47.88633" lon="6.82732">
        <ele>746</ele>
        <time>2022-09-12T09:52:47Z</time>
      </trkpt>
      <trkpt lat="47.88633" lon="6.8273">
        <ele>746</ele>
        <time>2022-09-12T09:52:48Z</time>
      </trkpt>
      <trkpt lat="47.88633" lon="6.82729">
        <ele>746</ele>
        <time>2022-09-12T09:52:49Z</time>
      </trkpt>
      <trkpt lat="47.88634" lon="6.82728">
        <ele>746</ele>
        <time>2022-09-12T09:52:50Z</time>
      </trkpt>
      <trkpt lat="47.88634" lon="6.82726">
        <ele>746</ele>
        <time>2022-09-12T09:52:51Z</time>
      </trkpt>
      <trkpt lat="47.88635" lon="6.82725">
        <ele>746</ele>
        <time>2022-09-12T09:52:52Z</time>
      </trkpt>
      <trkpt lat="47.88635" lon="6.82724">
        <ele>746</ele>
        <time>2022-09-12T09:52:53Z</time>
      </trkpt>
      <trkpt lat="47.88636" lon="6.82722">
        <ele>746</ele>
        <time>2022-09-12T09:52:54Z</time>
      </trkpt>
      <trkpt lat="47.88636" lon="6.82721">
        <ele>746</ele>
        <time>2022-09-12T09:52:55Z</time>
      </trkpt>
      <trkpt lat="47.88636" lon="6.8272">
        <ele>746</ele>
        <time>2022-09-12T09:52:56Z</time>
      </trkpt>
      <trkpt lat="47.88636" lon="6.82718">
        <ele>745</ele>
        <time>2022-09-12T09:52:57Z</time>
      </trkpt>
      <trkpt lat="47.88636" lon="6.82717">
        <ele>745</ele>
        <time>2022-09-12T09:52:58Z</time>
      </trkpt>
      <trkpt lat="47.88637" lon="6.82715">
        <ele>745</ele>
        <time>2022-09-12T09:52:59Z</time>
      </trkpt>
      <trkpt lat="47.88637" lon="6.82713">
        <ele>745</ele>
        <time>2022-09-12T09:53:00Z</time>
      </trkpt>
      <trkpt lat="47.88637" lon="6.82711">
        <ele>745</ele>
        <time>2022-09-12T09:53:01Z</time>
      </trkpt>
      <trkpt lat="47.88638" lon="6.82709">
        <ele>745</ele>
        <time>2022-09-12T09:53:02Z</time>
      </trkpt>
      <trkpt lat="47.88638" lon="6.82708">
        <ele>745</ele>
        <time>2022-09-12T09:53:03Z</time>
      </trkpt>
      <trkpt lat="47.88639" lon="6.82706">
        <ele>745</ele>
        <time>2022-09-12T09:53:04Z</time>
      </trkpt>
      <trkpt lat="47.8864" lon="6.82705">
        <ele>745</ele>
        <time>2022-09-12T09:53:05Z</time>
      </trkpt>
      <trkpt lat="47.8864" lon="6.82703">
        <ele>745</ele>
        <time>2022-09-12T09:53:06Z</time>
      </trkpt>
      <trkpt lat="47.8864" lon="6.82701">
        <ele>744</ele>
        <time>2022-09-12T09:53:07Z</time>
      </trkpt>
      <trkpt lat="47.88641" lon="6.827">
        <ele>744</ele>
        <time>2022-09-12T09:53:08Z</time>
      </trkpt>
      <trkpt lat="47.88641" lon="6.82698">
        <ele>744</ele>
        <time>2022-09-12T09:53:09Z</time>
      </trkpt>
      <trkpt lat="47.88641" lon="6.82697">
        <ele>744</ele>
        <time>2022-09-12T09:53:10Z</time>
      </trkpt>
      <trkpt lat="47.88641" lon="6.82696">
        <ele>744</ele>
        <time>2022-09-12T09:53:11Z</time>
      </trkpt>
      <trkpt lat="47.88642" lon="6.82695">
        <ele>743</ele>
        <time>2022-09-12T09:53:12Z</time>
      </trkpt>
      <trkpt lat="47.88642" lon="6.82694">
        <ele>743</ele>
        <time>2022-09-12T09:53:13Z</time>
      </trkpt>
      <trkpt lat="47.88643" lon="6.82692">
        <ele>743</ele>
        <time>2022-09-12T09:53:14Z</time>
      </trkpt>
      <trkpt lat="47.88644" lon="6.82691">
        <ele>743</ele>
        <time>2022-09-12T09:53:15Z</time>
      </trkpt>
      <trkpt lat="47.88646" lon="6.8269">
        <ele>743</ele>
        <time>2022-09-12T09:53:16Z</time>
      </trkpt>
      <trkpt lat="47.88647" lon="6.82689">
        <ele>743</ele>
        <time>2022-09-12T09:53:17Z</time>
      </trkpt>
      <trkpt lat="47.88648" lon="6.82687">
        <ele>743</ele>
        <time>2022-09-12T09:53:18Z</time>
      </trkpt>
      <trkpt lat="47.88649" lon="6.82686">
        <ele>743</ele>
        <time>2022-09-12T09:53:19Z</time>
      </trkpt>
      <trkpt lat="47.8865" lon="6.82685">
        <ele>743</ele>
        <time>2022-09-12T09:53:20Z</time>
      </trkpt>
      <trkpt lat="47.88651" lon="6.82685">
        <ele>743</ele>
        <time>2022-09-12T09:53:21Z</time>
      </trkpt>
      <trkpt lat="47.88652" lon="6.82684">
        <ele>742</ele>
        <time>2022-09-12T09:53:22Z</time>
      </trkpt>
      <trkpt lat="47.88653" lon="6.82683">
        <ele>742</ele>
        <time>2022-09-12T09:53:23Z</time>
      </trkpt>
      <trkpt lat="47.88654" lon="6.82682">
        <ele>742</ele>
        <time>2022-09-12T09:53:24Z</time>
      </trkpt>
      <trkpt lat="47.88654" lon="6.82681">
        <ele>742</ele>
        <time>2022-09-12T09:53:25Z</time>
      </trkpt>
      <trkpt lat="47.88654" lon="6.8268">
        <ele>742</ele>
        <time>2022-09-12T09:53:26Z</time>
      </trkpt>
      <trkpt lat="47.88654" lon="6.82679">
        <ele>741</ele>
        <time>2022-09-12T09:53:27Z</time>
      </trkpt>
      <trkpt lat="47.88653" lon="6.82679">
        <ele>741</ele>
        <time>2022-09-12T09:53:28Z</time>
      </trkpt>
      <trkpt lat="47.88653" lon="6.82678">
        <ele>741</ele>
        <time>2022-09-12T09:53:29Z</time>
      </trkpt>
      <trkpt lat="47.88653" lon="6.82676">
        <ele>741</ele>
        <time>2022-09-12T09:53:30Z</time>
      </trkpt>
      <trkpt lat="47.88653" lon="6.82675">
        <ele>741</ele>
        <time>2022-09-12T09:53:31Z</time>
      </trkpt>
      <trkpt lat="47.88654" lon="6.82674">
        <ele>741</ele>
        <time>2022-09-12T09:53:32Z</time>
      </trkpt>
      <trkpt lat="47.88654" lon="6.82674">
        <ele>741</ele>
        <time>2022-09-12T09:53:33Z</time>
      </trkpt>
      <trkpt lat="47.88655" lon="6.82673">
        <ele>741</ele>
        <time>2022-09-12T09:53:34Z</time>
      </trkpt>
      <trkpt lat="47.88656" lon="6.82672">
        <ele>741</ele>
        <time>2022-09-12T09:53:35Z</time>
      </trkpt>
      <trkpt lat="47.88657" lon="6.82671">
        <ele>741</ele>
        <time>2022-09-12T09:53:36Z</time>
      </trkpt>
      <trkpt lat="47.88658" lon="6.8267">
        <ele>740</ele>
        <time>2022-09-12T09:53:37Z</time>
      </trkpt>
      <trkpt lat="47.88659" lon="6.82669">
        <ele>740</ele>
        <time>2022-09-12T09:53:38Z</time>
      </trkpt>
      <trkpt lat="47.88659" lon="6.82668">
        <ele>740</ele>
        <time>2022-09-12T09:53:39Z</time>
      </trkpt>
      <trkpt lat="47.8866" lon="6.82667">
        <ele>740</ele>
        <time>2022-09-12T09:53:40Z</time>
      </trkpt>
      <trkpt lat="47.88661" lon="6.82666">
        <ele>740</ele>
        <time>2022-09-12T09:53:41Z</time>
      </trkpt>
      <trkpt lat="47.88661" lon="6.82664">
        <ele>739</ele>
        <time>2022-09-12T09:53:42Z</time>
      </trkpt>
      <trkpt lat="47.88662" lon="6.82663">
        <ele>739</ele>
        <time>2022-09-12T09:53:43Z</time>
      </trkpt>
      <trkpt lat="47.88662" lon="6.82662">
        <ele>739</ele>
        <time>2022-09-12T09:53:44Z</time>
      </trkpt>
      <trkpt lat="47.88663" lon="6.8266">
        <ele>739</ele>
        <time>2022-09-12T09:53:45Z</time>
      </trkpt>
      <trkpt lat="47.88664" lon="6.82659">
        <ele>739</ele>
        <time>2022-09-12T09:53:46Z</time>
      </trkpt>
      <trkpt lat="47.88665" lon="6.82658">
        <ele>739</ele>
        <time>2022-09-12T09:53:47Z</time>
      </trkpt>
      <trkpt lat="47.88665" lon="6.82657">
        <ele>739</ele>
        <time>2022-09-12T09:53:48Z</time>
      </trkpt>
      <trkpt lat="47.88666" lon="6.82656">
        <ele>739</ele>
        <time>2022-09-12T09:53:49Z</time>
      </trkpt>
      <trkpt lat="47.88666" lon="6.82655">
        <ele>739</ele>
        <time>2022-09-12T09:53:50Z</time>
      </trkpt>
      <trkpt lat="47.88667" lon="6.82654">
        <ele>739</ele>
        <time>2022-09-12T09:53:51Z</time>
      </trkpt>
      <trkpt lat="47.88668" lon="6.82653">
        <ele>738</ele>
        <time>2022-09-12T09:53:52Z</time>
      </trkpt>
      <trkpt lat="47.88668" lon="6.82652">
        <ele>738</ele>
        <time>2022-09-12T09:53:53Z</time>
      </trkpt>
      <trkpt lat="47.88669" lon="6.82651">
        <ele>738</ele>
        <time>2022-09-12T09:53:54Z</time>
      </trkpt>
      <trkpt lat="47.8867" lon="6.8265">
        <ele>738</ele>
        <time>2022-09-12T09:53:55Z</time>
      </trkpt>
      <trkpt lat="47.8867" lon="6.8265">
        <ele>738</ele>
        <time>2022-09-12T09:53:56Z</time>
      </trkpt>
      <trkpt lat="47.88671" lon="6.82649">
        <ele>737</ele>
        <time>2022-09-12T09:53:57Z</time>
      </trkpt>
      <trkpt lat="47.88671" lon="6.82648">
        <ele>737</ele>
        <time>2022-09-12T09:53:58Z</time>
      </trkpt>
      <trkpt lat="47.88671" lon="6.82647">
        <ele>737</ele>
        <time>2022-09-12T09:53:59Z</time>
      </trkpt>
      <trkpt lat="47.88672" lon="6.82646">
        <ele>737</ele>
        <time>2022-09-12T09:54:00Z</time>
      </trkpt>
      <trkpt lat="47.88673" lon="6.82645">
        <ele>737</ele>
        <time>2022-09-12T09:54:01Z</time>
      </trkpt>
      <trkpt lat="47.88673" lon="6.82645">
        <ele>737</ele>
        <time>2022-09-12T09:54:02Z</time>
      </trkpt>
      <trkpt lat="47.88674" lon="6.82644">
        <ele>737</ele>
        <time>2022-09-12T09:54:03Z</time>
      </trkpt>
      <trkpt lat="47.88675" lon="6.82643">
        <ele>737</ele>
        <time>2022-09-12T09:54:04Z</time>
      </trkpt>
      <trkpt lat="47.88676" lon="6.82642">
        <ele>737</ele>
        <time>2022-09-12T09:54:05Z</time>
      </trkpt>
      <trkpt lat="47.88677" lon="6.82641">
        <ele>737</ele>
        <time>2022-09-12T09:54:06Z</time>
      </trkpt>
      <trkpt lat="47.88678" lon="6.8264">
        <ele>737</ele>
        <time>2022-09-12T09:54:07Z</time>
      </trkpt>
      <trkpt lat="47.88679" lon="6.82639">
        <ele>737</ele>
        <time>2022-09-12T09:54:08Z</time>
      </trkpt>
      <trkpt lat="47.8868" lon="6.82638">
        <ele>737</ele>
        <time>2022-09-12T09:54:09Z</time>
      </trkpt>
      <trkpt lat="47.88681" lon="6.82636">
        <ele>737</ele>
        <time>2022-09-12T09:54:10Z</time>
      </trkpt>
      <trkpt lat="47.88682" lon="6.82635">
        <ele>737</ele>
        <time>2022-09-12T09:54:11Z</time>
      </trkpt>
      <trkpt lat="47.88684" lon="6.82633">
        <ele>736</ele>
        <time>2022-09-12T09:54:12Z</time>
      </trkpt>
      <trkpt lat="47.88685" lon="6.82631">
        <ele>736</ele>
        <time>2022-09-12T09:54:13Z</time>
      </trkpt>
      <trkpt lat="47.88686" lon="6.8263">
        <ele>736</ele>
        <time>2022-09-12T09:54:14Z</time>
      </trkpt>
      <trkpt lat="47.88687" lon="6.82628">
        <ele>736</ele>
        <time>2022-09-12T09:54:15Z</time>
      </trkpt>
      <trkpt lat="47.88688" lon="6.82626">
        <ele>736</ele>
        <time>2022-09-12T09:54:16Z</time>
      </trkpt>
      <trkpt lat="47.88689" lon="6.82625">
        <ele>735</ele>
        <time>2022-09-12T09:54:17Z</time>
      </trkpt>
      <trkpt lat="47.8869" lon="6.82624">
        <ele>735</ele>
        <time>2022-09-12T09:54:18Z</time>
      </trkpt>
      <trkpt lat="47.8869" lon="6.82622">
        <ele>735</ele>
        <time>2022-09-12T09:54:19Z</time>
      </trkpt>
      <trkpt lat="47.88691" lon="6.82621">
        <ele>735</ele>
        <time>2022-09-12T09:54:20Z</time>
      </trkpt>
      <trkpt lat="47.88691" lon="6.8262">
        <ele>735</ele>
        <time>2022-09-12T09:54:21Z</time>
      </trkpt>
      <trkpt lat="47.88692" lon="6.82619">
        <ele>735</ele>
        <time>2022-09-12T09:54:22Z</time>
      </trkpt>
      <trkpt lat="47.88693" lon="6.82618">
        <ele>735</ele>
        <time>2022-09-12T09:54:23Z</time>
      </trkpt>
      <trkpt lat="47.88693" lon="6.82617">
        <ele>735</ele>
        <time>2022-09-12T09:54:24Z</time>
      </trkpt>
      <trkpt lat="47.88694" lon="6.82616">
        <ele>735</ele>
        <time>2022-09-12T09:54:25Z</time>
      </trkpt>
      <trkpt lat="47.88694" lon="6.82614">
        <ele>735</ele>
        <time>2022-09-12T09:54:26Z</time>
      </trkpt>
      <trkpt lat="47.88695" lon="6.82613">
        <ele>734</ele>
        <time>2022-09-12T09:54:27Z</time>
      </trkpt>
      <trkpt lat="47.88696" lon="6.82612">
        <ele>734</ele>
        <time>2022-09-12T09:54:28Z</time>
      </trkpt>
      <trkpt lat="47.88696" lon="6.82612">
        <ele>734</ele>
        <time>2022-09-12T09:54:29Z</time>
      </trkpt>
      <trkpt lat="47.88696" lon="6.82611">
        <ele>734</ele>
        <time>2022-09-12T09:54:30Z</time>
      </trkpt>
      <trkpt lat="47.88696" lon="6.8261">
        <ele>734</ele>
        <time>2022-09-12T09:54:31Z</time>
      </trkpt>
      <trkpt lat="47.88696" lon="6.82609">
        <ele>733</ele>
        <time>2022-09-12T09:54:32Z</time>
      </trkpt>
      <trkpt lat="47.88696" lon="6.82608">
        <ele>733</ele>
        <time>2022-09-12T09:54:33Z</time>
      </trkpt>
      <trkpt lat="47.88696" lon="6.82607">
        <ele>733</ele>
        <time>2022-09-12T09:54:34Z</time>
      </trkpt>
      <trkpt lat="47.88696" lon="6.82606">
        <ele>733</ele>
        <time>2022-09-12T09:54:35Z</time>
      </trkpt>
      <trkpt lat="47.88696" lon="6.82605">
        <ele>733</ele>
        <time>2022-09-12T09:54:36Z</time>
      </trkpt>
      <trkpt lat="47.88696" lon="6.82603">
        <ele>732</ele>
        <time>2022-09-12T09:54:37Z</time>
      </trkpt>
      <trkpt lat="47.88696" lon="6.82601">
        <ele>732</ele>
        <time>2022-09-12T09:54:47Z</time>
      </trkpt>
      <trkpt lat="47.88696" lon="6.82601">
        <ele>732</ele>
        <time>2022-09-12T09:54:48Z</time>
      </trkpt>
      <trkpt lat="47.88697" lon="6.82601">
        <ele>732</ele>
        <time>2022-09-12T09:54:49Z</time>
      </trkpt>
      <trkpt lat="47.88697" lon="6.82602">
        <ele>732</ele>
        <time>2022-09-12T09:54:50Z</time>
      </trkpt>
      <trkpt lat="47.88697" lon="6.82602">
        <ele>732</ele>
        <time>2022-09-12T09:54:51Z</time>
      </trkpt>
      <trkpt lat="47.88697" lon="6.82603">
        <ele>732</ele>
        <time>2022-09-12T09:54:52Z</time>
      </trkpt>
      <trkpt lat="47.88697" lon="6.82604">
        <ele>732</ele>
        <time>2022-09-12T09:54:53Z</time>
      </trkpt>
      <trkpt lat="47.88697" lon="6.82606">
        <ele>732</ele>
        <time>2022-09-12T09:54:54Z</time>
      </trkpt>
      <trkpt lat="47.88697" lon="6.82607">
        <ele>732</ele>
        <time>2022-09-12T09:54:55Z</time>
      </trkpt>
      <trkpt lat="47.88697" lon="6.82609">
        <ele>733</ele>
        <time>2022-09-12T09:54:56Z</time>
      </trkpt>
      <trkpt lat="47.88697" lon="6.82611">
        <ele>733</ele>
        <time>2022-09-12T09:54:57Z</time>
      </trkpt>
      <trkpt lat="47.88696" lon="6.82613">
        <ele>733</ele>
        <time>2022-09-12T09:54:58Z</time>
      </trkpt>
      <trkpt lat="47.88696" lon="6.82614">
        <ele>733</ele>
        <time>2022-09-12T09:54:59Z</time>
      </trkpt>
      <trkpt lat="47.88696" lon="6.82616">
        <ele>733</ele>
        <time>2022-09-12T09:55:00Z</time>
      </trkpt>
      <trkpt lat="47.88696" lon="6.82617">
        <ele>733</ele>
        <time>2022-09-12T09:55:01Z</time>
      </trkpt>
      <trkpt lat="47.88696" lon="6.82619">
        <ele>733</ele>
        <time>2022-09-12T09:55:02Z</time>
      </trkpt>
      <trkpt lat="47.88696" lon="6.8262">
        <ele>733</ele>
        <time>2022-09-12T09:55:03Z</time>
      </trkpt>
      <trkpt lat="47.88695" lon="6.82621">
        <ele>733</ele>
        <time>2022-09-12T09:55:04Z</time>
      </trkpt>
      <trkpt lat="47.88695" lon="6.82623">
        <ele>733</ele>
        <time>2022-09-12T09:55:05Z</time>
      </trkpt>
      <trkpt lat="47.88695" lon="6.82624">
        <ele>734</ele>
        <time>2022-09-12T09:55:06Z</time>
      </trkpt>
      <trkpt lat="47.88695" lon="6.82626">
        <ele>734</ele>
        <time>2022-09-12T09:55:07Z</time>
      </trkpt>
      <trkpt lat="47.88694" lon="6.82627">
        <ele>734</ele>
        <time>2022-09-12T09:55:08Z</time>
      </trkpt>
      <trkpt lat="47.88694" lon="6.82628">
        <ele>734</ele>
        <time>2022-09-12T09:55:09Z</time>
      </trkpt>
      <trkpt lat="47.88693" lon="6.82629">
        <ele>734</ele>
        <time>2022-09-12T09:55:10Z</time>
      </trkpt>
      <trkpt lat="47.88693" lon="6.8263">
        <ele>735</ele>
        <time>2022-09-12T09:55:11Z</time>
      </trkpt>
      <trkpt lat="47.88693" lon="6.82631">
        <ele>735</ele>
        <time>2022-09-12T09:55:12Z</time>
      </trkpt>
      <trkpt lat="47.88692" lon="6.82632">
        <ele>735</ele>
        <time>2022-09-12T09:55:13Z</time>
      </trkpt>
      <trkpt lat="47.88692" lon="6.82633">
        <ele>735</ele>
        <time>2022-09-12T09:55:14Z</time>
      </trkpt>
      <trkpt lat="47.88692" lon="6.82635">
        <ele>735</ele>
        <time>2022-09-12T09:55:15Z</time>
      </trkpt>
      <trkpt lat="47.88692" lon="6.82636">
        <ele>735</ele>
        <time>2022-09-12T09:55:16Z</time>
      </trkpt>
      <trkpt lat="47.88692" lon="6.82638">
        <ele>735</ele>
        <time>2022-09-12T09:55:17Z</time>
      </trkpt>
      <trkpt lat="47.88691" lon="6.82639">
        <ele>735</ele>
        <time>2022-09-12T09:55:18Z</time>
      </trkpt>
      <trkpt lat="47.88691" lon="6.82641">
        <ele>735</ele>
        <time>2022-09-12T09:55:19Z</time>
      </trkpt>
      <trkpt lat="47.88691" lon="6.82642">
        <ele>735</ele>
        <time>2022-09-12T09:55:20Z</time>
      </trkpt>
      <trkpt lat="47.8869" lon="6.82643">
        <ele>736</ele>
        <time>2022-09-12T09:55:21Z</time>
      </trkpt>
      <trkpt lat="47.8869" lon="6.82644">
        <ele>736</ele>
        <time>2022-09-12T09:55:22Z</time>
      </trkpt>
      <trkpt lat="47.88689" lon="6.82645">
        <ele>736</ele>
        <time>2022-09-12T09:55:23Z</time>
      </trkpt>
      <trkpt lat="47.88689" lon="6.82646">
        <ele>736</ele>
        <time>2022-09-12T09:55:24Z</time>
      </trkpt>
      <trkpt lat="47.88688" lon="6.82647">
        <ele>736</ele>
        <time>2022-09-12T09:55:25Z</time>
      </trkpt>
      <trkpt lat="47.88688" lon="6.82648">
        <ele>736</ele>
        <time>2022-09-12T09:55:26Z</time>
      </trkpt>
      <trkpt lat="47.88687" lon="6.82649">
        <ele>736</ele>
        <time>2022-09-12T09:55:27Z</time>
      </trkpt>
      <trkpt lat="47.88687" lon="6.8265">
        <ele>736</ele>
        <time>2022-09-12T09:55:28Z</time>
      </trkpt>
      <trkpt lat="47.88686" lon="6.82651">
        <ele>736</ele>
        <time>2022-09-12T09:55:29Z</time>
      </trkpt>
      <trkpt lat="47.88686" lon="6.82652">
        <ele>736</ele>
        <time>2022-09-12T09:55:30Z</time>
      </trkpt>
      <trkpt lat="47.88686" lon="6.82652">
        <ele>737</ele>
        <time>2022-09-12T09:55:31Z</time>
      </trkpt>
      <trkpt lat="47.88686" lon="6.82654">
        <ele>737</ele>
        <time>2022-09-12T09:55:32Z</time>
      </trkpt>
      <trkpt lat="47.88686" lon="6.82655">
        <ele>737</ele>
        <time>2022-09-12T09:55:33Z</time>
      </trkpt>
      <trkpt lat="47.88686" lon="6.82656">
        <ele>737</ele>
        <time>2022-09-12T09:55:34Z</time>
      </trkpt>
      <trkpt lat="47.88686" lon="6.82657">
        <ele>737</ele>
        <time>2022-09-12T09:55:35Z</time>
      </trkpt>
      <trkpt lat="47.88685" lon="6.82658">
        <ele>738</ele>
        <time>2022-09-12T09:55:36Z</time>
      </trkpt>
      <trkpt lat="47.88684" lon="6.82659">
        <ele>738</ele>
        <time>2022-09-12T09:55:37Z</time>
      </trkpt>
      <trkpt lat="47.88683" lon="6.8266">
        <ele>738</ele>
        <time>2022-09-12T09:55:38Z</time>
      </trkpt>
      <trkpt lat="47.88682" lon="6.82662">
        <ele>738</ele>
        <time>2022-09-12T09:55:39Z</time>
      </trkpt>
      <trkpt lat="47.88681" lon="6.82663">
        <ele>738</ele>
        <time>2022-09-12T09:55:40Z</time>
      </trkpt>
      <trkpt lat="47.8868" lon="6.82664">
        <ele>739</ele>
        <time>2022-09-12T09:55:41Z</time>
      </trkpt>
      <trkpt lat="47.88679" lon="6.82665">
        <ele>739</ele>
        <time>2022-09-12T09:55:42Z</time>
      </trkpt>
      <trkpt lat="47.88678" lon="6.82666">
        <ele>739</ele>
        <time>2022-09-12T09:55:43Z</time>
      </trkpt>
      <trkpt lat="47.88677" lon="6.82667">
        <ele>739</ele>
        <time>2022-09-12T09:55:44Z</time>
      </trkpt>
      <trkpt lat="47.88676" lon="6.82668">
        <ele>739</ele>
        <time>2022-09-12T09:55:45Z</time>
      </trkpt>
      <trkpt lat="47.88676" lon="6.82669">
        <ele>739</ele>
        <time>2022-09-12T09:55:46Z</time>
      </trkpt>
      <trkpt lat="47.88675" lon="6.8267">
        <ele>739</ele>
        <time>2022-09-12T09:55:47Z</time>
      </trkpt>
      <trkpt lat="47.88675" lon="6.82671">
        <ele>739</ele>
        <time>2022-09-12T09:55:48Z</time>
      </trkpt>
      <trkpt lat="47.88675" lon="6.82672">
        <ele>739</ele>
        <time>2022-09-12T09:55:49Z</time>
      </trkpt>
      <trkpt lat="47.88674" lon="6.82673">
        <ele>739</ele>
        <time>2022-09-12T09:55:50Z</time>
      </trkpt>
      <trkpt lat="47.88674" lon="6.82674">
        <ele>740</ele>
        <time>2022-09-12T09:55:51Z</time>
      </trkpt>
      <trkpt lat="47.88673" lon="6.82676">
        <ele>740</ele>
        <time>2022-09-12T09:55:52Z</time>
      </trkpt>
      <trkpt lat="47.88672" lon="6.82677">
        <ele>740</ele>
        <time>2022-09-12T09:55:53Z</time>
      </trkpt>
      <trkpt lat="47.88672" lon="6.82678">
        <ele>740</ele>
        <time>2022-09-12T09:55:54Z</time>
      </trkpt>
      <trkpt lat="47.88671" lon="6.8268">
        <ele>740</ele>
        <time>2022-09-12T09:55:55Z</time>
      </trkpt>
      <trkpt lat="47.8867" lon="6.82681">
        <ele>741</ele>
        <time>2022-09-12T09:55:56Z</time>
      </trkpt>
      <trkpt lat="47.88669" lon="6.82682">
        <ele>741</ele>
        <time>2022-09-12T09:55:57Z</time>
      </trkpt>
      <trkpt lat="47.88669" lon="6.82683">
        <ele>741</ele>
        <time>2022-09-12T09:55:58Z</time>
      </trkpt>
      <trkpt lat="47.88668" lon="6.82684">
        <ele>741</ele>
        <time>2022-09-12T09:55:59Z</time>
      </trkpt>
      <trkpt lat="47.88667" lon="6.82685">
        <ele>741</ele>
        <time>2022-09-12T09:56:00Z</time>
      </trkpt>
      <trkpt lat="47.88667" lon="6.82686">
        <ele>741</ele>
        <time>2022-09-12T09:56:01Z</time>
      </trkpt>
      <trkpt lat="47.88666" lon="6.82687">
        <ele>741</ele>
        <time>2022-09-12T09:56:02Z</time>
      </trkpt>
      <trkpt lat="47.88665" lon="6.82688">
        <ele>741</ele>
        <time>2022-09-12T09:56:03Z</time>
      </trkpt>
      <trkpt lat="47.88665" lon="6.82689">
        <ele>741</ele>
        <time>2022-09-12T09:56:04Z</time>
      </trkpt>
      <trkpt lat="47.88665" lon="6.8269">
        <ele>741</ele>
        <time>2022-09-12T09:56:05Z</time>
      </trkpt>
      <trkpt lat="47.88664" lon="6.82691">
        <ele>742</ele>
        <time>2022-09-12T09:56:06Z</time>
      </trkpt>
      <trkpt lat="47.88664" lon="6.82692">
        <ele>742</ele>
        <time>2022-09-12T09:56:07Z</time>
      </trkpt>
      <trkpt lat="47.88663" lon="6.82693">
        <ele>742</ele>
        <time>2022-09-12T09:56:08Z</time>
      </trkpt>
      <trkpt lat="47.88663" lon="6.82695">
        <ele>742</ele>
        <time>2022-09-12T09:56:09Z</time>
      </trkpt>
      <trkpt lat="47.88663" lon="6.82696">
        <ele>742</ele>
        <time>2022-09-12T09:56:10Z</time>
      </trkpt>
      <trkpt lat="47.88664" lon="6.82698">
        <ele>743</ele>
        <time>2022-09-12T09:56:11Z</time>
      </trkpt>
      <trkpt lat="47.88665" lon="6.82699">
        <ele>743</ele>
        <time>2022-09-12T09:56:12Z</time>
      </trkpt>
      <trkpt lat="47.88665" lon="6.827">
        <ele>743</ele>
        <time>2022-09-12T09:56:13Z</time>
      </trkpt>
      <trkpt lat="47.88665" lon="6.82702">
        <ele>743</ele>
        <time>2022-09-12T09:56:14Z</time>
      </trkpt>
      <trkpt lat="47.88665" lon="6.82702">
        <ele>743</ele>
        <time>2022-09-12T09:56:15Z</time>
      </trkpt>
      <trkpt lat="47.88665" lon="6.82703">
        <ele>743</ele>
        <time>2022-09-12T09:56:16Z</time>
      </trkpt>
      <trkpt lat="47.88665" lon="6.82704">
        <ele>743</ele>
        <time>2022-09-12T09:56:17Z</time>
      </trkpt>
      <trkpt lat="47.88664" lon="6.82705">
        <ele>743</ele>
        <time>2022-09-12T09:56:18Z</time>
      </trkpt>
      <trkpt lat="47.88664" lon="6.82705">
        <ele>743</ele>
        <time>2022-09-12T09:56:19Z</time>
      </trkpt>
      <trkpt lat="47.88663" lon="6.82706">
        <ele>743</ele>
        <time>2022-09-12T09:56:20Z</time>
      </trkpt>
      <trkpt lat="47.88663" lon="6.82707">
        <ele>744</ele>
        <time>2022-09-12T09:56:21Z</time>
      </trkpt>
      <trkpt lat="47.88662" lon="6.82708">
        <ele>744</ele>
        <time>2022-09-12T09:56:22Z</time>
      </trkpt>
      <trkpt lat="47.88661" lon="6.82709">
        <ele>744</ele>
        <time>2022-09-12T09:56:23Z</time>
      </trkpt>
      <trkpt lat="47.8866" lon="6.8271">
        <ele>744</ele>
        <time>2022-09-12T09:56:24Z</time>
      </trkpt>
      <trkpt lat="47.88659" lon="6.82711">
        <ele>744</ele>
        <time>2022-09-12T09:56:25Z</time>
      </trkpt>
      <trkpt lat="47.88657" lon="6.82712">
        <ele>744</ele>
        <time>2022-09-12T09:56:26Z</time>
      </trkpt>
      <trkpt lat="47.88656" lon="6.82714">
        <ele>744</ele>
        <time>2022-09-12T09:56:27Z</time>
      </trkpt>
      <trkpt lat="47.88654" lon="6.82715">
        <ele>744</ele>
        <time>2022-09-12T09:56:28Z</time>
      </trkpt>
      <trkpt lat="47.88652" lon="6.82716">
        <ele>744</ele>
        <time>2022-09-12T09:56:29Z</time>
      </trkpt>
      <trkpt lat="47.88651" lon="6.82717">
        <ele>744</ele>
        <time>2022-09-12T09:56:30Z</time>
      </trkpt>
      <trkpt lat="47.88649" lon="6.82718">
        <ele>745</ele>
        <time>2022-09-12T09:56:31Z</time>
      </trkpt>
      <trkpt lat="47.88648" lon="6.8272">
        <ele>745</ele>
        <time>2022-09-12T09:56:32Z</time>
      </trkpt>
      <trkpt lat="47.88646" lon="6.82721">
        <ele>745</ele>
        <time>2022-09-12T09:56:33Z</time>
      </trkpt>
      <trkpt lat="47.88645" lon="6.82722">
        <ele>745</ele>
        <time>2022-09-12T09:56:34Z</time>
      </trkpt>
      <trkpt lat="47.88644" lon="6.82723">
        <ele>745</ele>
        <time>2022-09-12T09:56:35Z</time>
      </trkpt>
      <trkpt lat="47.88643" lon="6.82725">
        <ele>746</ele>
        <time>2022-09-12T09:56:36Z</time>
      </trkpt>
      <trkpt lat="47.88642" lon="6.82726">
        <ele>746</ele>
        <time>2022-09-12T09:56:37Z</time>
      </trkpt>
      <trkpt lat="47.88641" lon="6.82727">
        <ele>746</ele>
        <time>2022-09-12T09:56:38Z</time>
      </trkpt>
      <trkpt lat="47.8864" lon="6.82728">
        <ele>746</ele>
        <time>2022-09-12T09:56:39Z</time>
      </trkpt>
      <trkpt lat="47.8864" lon="6.82729">
        <ele>746</ele>
        <time>2022-09-12T09:56:40Z</time>
      </trkpt>
      <trkpt lat="47.88639" lon="6.82729">
        <ele>746</ele>
        <time>2022-09-12T09:56:41Z</time>
      </trkpt>
      <trkpt lat="47.88638" lon="6.8273">
        <ele>746</ele>
        <time>2022-09-12T09:56:42Z</time>
      </trkpt>
      <trkpt lat="47.88637" lon="6.82731">
        <ele>746</ele>
        <time>2022-09-12T09:56:43Z</time>
      </trkpt>
      <trkpt lat="47.88636" lon="6.82732">
        <ele>746</ele>
        <time>2022-09-12T09:56:44Z</time>
      </trkpt>
      <trkpt lat="47.88635" lon="6.82732">
        <ele>746</ele>
        <time>2022-09-12T09:56:45Z</time>
      </trkpt>
      <trkpt lat="47.88634" lon="6.82733">
        <ele>747</ele>
        <time>2022-09-12T09:56:46Z</time>
      </trkpt>
      <trkpt lat="47.88634" lon="6.82734">
        <ele>747</ele>
        <time>2022-09-12T09:56:47Z</time>
      </trkpt>
      <trkpt lat="47.88634" lon="6.82734">
        <ele>747</ele>
        <time>2022-09-12T09:56:48Z</time>
      </trkpt>
      <trkpt lat="47.88633" lon="6.82734">
        <ele>747</ele>
        <time>2022-09-12T09:56:49Z</time>
      </trkpt>
      <trkpt lat="47.88633" lon="6.82734">
        <ele>747</ele>
        <time>2022-09-12T09:56:50Z</time>
      </trkpt>
      <trkpt lat="47.88633" lon="6.82735">
        <ele>748</ele>
        <time>2022-09-12T09:56:51Z</time>
      </trkpt>
      <trkpt lat="47.88633" lon="6.82735">
        <ele>748</ele>
        <time>2022-09-12T09:56:52Z</time>
      </trkpt>
      <trkpt lat="47.88633" lon="6.82735">
        <ele>748</ele>
        <time>2022-09-12T09:56:53Z</time>
      </trkpt>
      <trkpt lat="47.88633" lon="6.82734">
        <ele>748</ele>
        <time>2022-09-12T09:56:54Z</time>
      </trkpt>
      <trkpt lat="47.88633" lon="6.82733">
        <ele>748</ele>
        <time>2022-09-12T09:56:55Z</time>
      </trkpt>
      <trkpt lat="47.88633" lon="6.82732">
        <ele>748</ele>
        <time>2022-09-12T09:56:56Z</time>
      </trkpt>
      <trkpt lat="47.88634" lon="6.82731">
        <ele>748</ele>
        <time>2022-09-12T09:56:57Z</time>
      </trkpt>
      <trkpt lat="47.88634" lon="6.82729">
        <ele>748</ele>
        <time>2022-09-12T09:56:58Z</time>
      </trkpt>
      <trkpt lat="47.88635" lon="6.82728">
        <ele>748</ele>
        <time>2022-09-12T09:56:59Z</time>
      </trkpt>
      <trkpt lat="47.88635" lon="6.82726">
        <ele>748</ele>
        <time>2022-09-12T09:57:00Z</time>
      </trkpt>
      <trkpt lat="47.88635" lon="6.82725">
        <ele>748</ele>
        <time>2022-09-12T09:57:01Z</time>
      </trkpt>
      <trkpt lat="47.88635" lon="6.82723">
        <ele>748</ele>
        <time>2022-09-12T09:57:02Z</time>
      </trkpt>
      <trkpt lat="47.88634" lon="6.82721">
        <ele>748</ele>
        <time>2022-09-12T09:57:03Z</time>
      </trkpt>
      <trkpt lat="47.88634" lon="6.82719">
        <ele>748</ele>
        <time>2022-09-12T09:57:04Z</time>
      </trkpt>
      <trkpt lat="47.88634" lon="6.82718">
        <ele>748</ele>
        <time>2022-09-12T09:57:05Z</time>
      </trkpt>
      <trkpt lat="47.88634" lon="6.82716">
        <ele>748</ele>
        <time>2022-09-12T09:57:06Z</time>
      </trkpt>
      <trkpt lat="47.88634" lon="6.82714">
        <ele>748</ele>
        <time>2022-09-12T09:57:07Z</time>
      </trkpt>
      <trkpt lat="47.88634" lon="6.82713">
        <ele>748</ele>
        <time>2022-09-12T09:57:08Z</time>
      </trkpt>
      <trkpt lat="47.88635" lon="6.82712">
        <ele>748</ele>
        <time>2022-09-12T09:57:09Z</time>
      </trkpt>
      <trkpt lat="47.88635" lon="6.82711">
        <ele>748</ele>
        <time>2022-09-12T09:57:10Z</time>
      </trkpt>
      <trkpt lat="47.88636" lon="6.8271">
        <ele>748</ele>
        <time>2022-09-12T09:57:11Z</time>
      </trkpt>
      <trkpt lat="47.88636" lon="6.82709">
        <ele>748</ele>
        <time>2022-09-12T09:57:12Z</time>
      </trkpt>
      <trkpt lat="47.88637" lon="6.82708">
        <ele>748</ele>
        <time>2022-09-12T09:57:13Z</time>
      </trkpt>
      <trkpt lat="47.88637" lon="6.82706">
        <ele>748</ele>
        <time>2022-09-12T09:57:14Z</time>
      </trkpt>
      <trkpt lat="47.88637" lon="6.82705">
        <ele>748</ele>
        <time>2022-09-12T09:57:15Z</time>
      </trkpt>
      <trkpt lat="47.88638" lon="6.82704">
        <ele>748</ele>
        <time>2022-09-12T09:57:16Z</time>
      </trkpt>
      <trkpt lat="47.88639" lon="6.82703">
        <ele>748</ele>
        <time>2022-09-12T09:57:17Z</time>
      </trkpt>
      <trkpt lat="47.88639" lon="6.82701">
        <ele>748</ele>
        <time>2022-09-12T09:57:18Z</time>
      </trkpt>
      <trkpt lat="47.8864" lon="6.827">
        <ele>748</ele>
        <time>2022-09-12T09:57:19Z</time>
      </trkpt>
      <trkpt lat="47.88641" lon="6.82699">
        <ele>748</ele>
        <time>2022-09-12T09:57:20Z</time>
      </trkpt>
      <trkpt lat="47.88642" lon="6.82698">
        <ele>748</ele>
        <time>2022-09-12T09:57:21Z</time>
      </trkpt>
      <trkpt lat="47.88642" lon="6.82697">
        <ele>748</ele>
        <time>2022-09-12T09:57:22Z</time>
      </trkpt>
      <trkpt lat="47.88643" lon="6.82696">
        <ele>748</ele>
        <time>2022-09-12T09:57:23Z</time>
      </trkpt>
      <trkpt lat="47.88643" lon="6.82695">
        <ele>748</ele>
        <time>2022-09-12T09:57:24Z</time>
      </trkpt>
      <trkpt lat="47.88644" lon="6.82693">
        <ele>748</ele>
        <time>2022-09-12T09:57:25Z</time>
      </trkpt>
      <trkpt lat="47.88644" lon="6.82692">
        <ele>748</ele>
        <time>2022-09-12T09:57:26Z</time>
      </trkpt>
      <trkpt lat="47.88644" lon="6.82691">
        <ele>748</ele>
        <time>2022-09-12T09:57:27Z</time>
      </trkpt>
      <trkpt lat="47.88644" lon="6.8269">
        <ele>748</ele>
        <time>2022-09-12T09:57:28Z</time>
      </trkpt>
      <trkpt lat="47.88644" lon="6.82688">
        <ele>748</ele>
        <time>2022-09-12T09:57:29Z</time>
      </trkpt>
      <trkpt lat="47.88645" lon="6.82687">
        <ele>748</ele>
        <time>2022-09-12T09:57:30Z</time>
      </trkpt>
      <trkpt lat="47.88645" lon="6.82686">
        <ele>748</ele>
        <time>2022-09-12T09:57:31Z</time>
      </trkpt>
      <trkpt lat="47.88645" lon="6.82684">
        <ele>748</ele>
        <time>2022-09-12T09:57:32Z</time>
      </trkpt>
      <trkpt lat="47.88646" lon="6.82683">
        <ele>748</ele>
        <time>2022-09-12T09:57:33Z</time>
      </trkpt>
      <trkpt lat="47.88646" lon="6.82681">
        <ele>748</ele>
        <time>2022-09-12T09:57:34Z</time>
      </trkpt>
      <trkpt lat="47.88647" lon="6.8268">
        <ele>748</ele>
        <time>2022-09-12T09:57:35Z</time>
      </trkpt>
      <trkpt lat="47.88647" lon="6.82678">
        <ele>748</ele>
        <time>2022-09-12T09:57:36Z</time>
      </trkpt>
      <trkpt lat="47.88648" lon="6.82677">
        <ele>748</ele>
        <time>2022-09-12T09:57:37Z</time>
      </trkpt>
      <trkpt lat="47.88648" lon="6.82675">
        <ele>748</ele>
        <time>2022-09-12T09:57:38Z</time>
      </trkpt>
      <trkpt lat="47.88649" lon="6.82673">
        <ele>748</ele>
        <time>2022-09-12T09:57:39Z</time>
      </trkpt>
      <trkpt lat="47.88649" lon="6.82671">
        <ele>748</ele>
        <time>2022-09-12T09:57:40Z</time>
      </trkpt>
      <trkpt lat="47.8865" lon="6.8267">
        <ele>748</ele>
        <time>2022-09-12T09:57:41Z</time>
      </trkpt>
      <trkpt lat="47.8865" lon="6.82668">
        <ele>748</ele>
        <time>2022-09-12T09:57:42Z</time>
      </trkpt>
      <trkpt lat="47.8865" lon="6.82667">
        <ele>748</ele>
        <time>2022-09-12T09:57:43Z</time>
      </trkpt>
      <trkpt lat="47.8865" lon="6.82665">
        <ele>748</ele>
        <time>2022-09-12T09:57:44Z</time>
      </trkpt>
      <trkpt lat="47.88651" lon="6.82664">
        <ele>748</ele>
        <time>2022-09-12T09:57:45Z</time>
      </trkpt>
      <trkpt lat="47.88651" lon="6.82662">
        <ele>748</ele>
        <time>2022-09-12T09:57:46Z</time>
      </trkpt>
      <trkpt lat="47.88651" lon="6.82661">
        <ele>748</ele>
        <time>2022-09-12T09:57:47Z</time>
      </trkpt>
      <trkpt lat="47.88652" lon="6.82659">
        <ele>748</ele>
        <time>2022-09-12T09:57:48Z</time>
      </trkpt>
      <trkpt lat="47.88652" lon="6.82658">
        <ele>748</ele>
        <time>2022-09-12T09:57:49Z</time>
      </trkpt>
      <trkpt lat="47.88652" lon="6.82657">
        <ele>748</ele>
        <time>2022-09-12T09:57:50Z</time>
      </trkpt>
      <trkpt lat="47.88653" lon="6.82655">
        <ele>748</ele>
        <time>2022-09-12T09:57:51Z</time>
      </trkpt>
      <trkpt lat="47.88653" lon="6.82654">
        <ele>748</ele>
        <time>2022-09-12T09:57:52Z</time>
      </trkpt>
      <trkpt lat="47.88653" lon="6.82653">
        <ele>748</ele>
        <time>2022-09-12T09:57:53Z</time>
      </trkpt>
      <trkpt lat="47.88653" lon="6.82652">
        <ele>748</ele>
        <time>2022-09-12T09:57:54Z</time>
      </trkpt>
      <trkpt lat="47.88653" lon="6.82651">
        <ele>748</ele>
        <time>2022-09-12T09:57:55Z</time>
      </trkpt>
      <trkpt lat="47.88654" lon="6.8265">
        <ele>748</ele>
        <time>2022-09-12T09:57:56Z</time>
      </trkpt>
      <trkpt lat="47.88654" lon="6.82648">
        <ele>748</ele>
        <time>2022-09-12T09:57:57Z</time>
      </trkpt>
      <trkpt lat="47.88655" lon="6.82647">
        <ele>748</ele>
        <time>2022-09-12T09:57:58Z</time>
      </trkpt>
      <trkpt lat="47.88656" lon="6.82645">
        <ele>748</ele>
        <time>2022-09-12T09:57:59Z</time>
      </trkpt>
      <trkpt lat="47.88656" lon="6.82644">
        <ele>748</ele>
        <time>2022-09-12T09:58:00Z</time>
      </trkpt>
      <trkpt lat="47.88657" lon="6.82642">
        <ele>748</ele>
        <time>2022-09-12T09:58:01Z</time>
      </trkpt>
      <trkpt lat="47.88657" lon="6.8264">
        <ele>748</ele>
        <time>2022-09-12T09:58:02Z</time>
      </trkpt>
      <trkpt lat="47.88657" lon="6.82638">
        <ele>748</ele>
        <time>2022-09-12T09:58:03Z</time>
      </trkpt>
      <trkpt lat="47.88657" lon="6.82636">
        <ele>748</ele>
        <time>2022-09-12T09:58:04Z</time>
      </trkpt>
      <trkpt lat="47.88658" lon="6.82635">
        <ele>748</ele>
        <time>2022-09-12T09:58:05Z</time>
      </trkpt>
      <trkpt lat="47.88657" lon="6.82633">
        <ele>748</ele>
        <time>2022-09-12T09:58:06Z</time>
      </trkpt>
      <trkpt lat="47.88657" lon="6.82631">
        <ele>748</ele>
        <time>2022-09-12T09:58:07Z</time>
      </trkpt>
      <trkpt lat="47.88657" lon="6.82629">
        <ele>748</ele>
        <time>2022-09-12T09:58:08Z</time>
      </trkpt>
      <trkpt lat="47.88658" lon="6.82628">
        <ele>748</ele>
        <time>2022-09-12T09:58:09Z</time>
      </trkpt>
      <trkpt lat="47.88658" lon="6.82626">
        <ele>748</ele>
        <time>2022-09-12T09:58:10Z</time>
      </trkpt>
      <trkpt lat="47.88658" lon="6.82625">
        <ele>748</ele>
        <time>2022-09-12T09:58:11Z</time>
      </trkpt>
      <trkpt lat="47.88659" lon="6.82623">
        <ele>747</ele>
        <time>2022-09-12T09:58:12Z</time>
      </trkpt>
      <trkpt lat="47.88659" lon="6.82622">
        <ele>747</ele>
        <time>2022-09-12T09:58:13Z</time>
      </trkpt>
      <trkpt lat="47.88659" lon="6.82621">
        <ele>747</ele>
        <time>2022-09-12T09:58:14Z</time>
      </trkpt>
      <trkpt lat="47.88659" lon="6.82619">
        <ele>747</ele>
        <time>2022-09-12T09:58:15Z</time>
      </trkpt>
      <trkpt lat="47.88658" lon="6.82619">
        <ele>748</ele>
        <time>2022-09-12T09:59:07Z</time>
      </trkpt>
      <trkpt lat="47.88658" lon="6.82619">
        <ele>748</ele>
        <time>2022-09-12T09:59:08Z</time>
      </trkpt>
      <trkpt lat="47.88658" lon="6.82618">
        <ele>748</ele>
        <time>2022-09-12T09:59:09Z</time>
      </trkpt>
      <trkpt lat="47.88658" lon="6.82617">
        <ele>748</ele>
        <time>2022-09-12T09:59:10Z</time>
      </trkpt>
      <trkpt lat="47.88658" lon="6.82617">
        <ele>748</ele>
        <time>2022-09-12T09:59:11Z</time>
      </trkpt>
      <trkpt lat="47.88658" lon="6.82615">
        <ele>747</ele>
        <time>2022-09-12T09:59:12Z</time>
      </trkpt>
      <trkpt lat="47.88658" lon="6.82614">
        <ele>747</ele>
        <time>2022-09-12T09:59:13Z</time>
      </trkpt>
      <trkpt lat="47.88658" lon="6.82613">
        <ele>747</ele>
        <time>2022-09-12T09:59:14Z</time>
      </trkpt>
      <trkpt lat="47.88658" lon="6.82612">
        <ele>747</ele>
        <time>2022-09-12T09:59:15Z</time>
      </trkpt>
      <trkpt lat="47.88658" lon="6.82611">
        <ele>747</ele>
        <time>2022-09-12T09:59:16Z</time>
      </trkpt>
      <trkpt lat="47.88658" lon="6.82609">
        <ele>747</ele>
        <time>2022-09-12T09:59:17Z</time>
      </trkpt>
      <trkpt lat="47.88659" lon="6.82608">
        <ele>747</ele>
        <time>2022-09-12T09:59:18Z</time>
      </trkpt>
      <trkpt lat="47.88659" lon="6.82606">
        <ele>747</ele>
        <time>2022-09-12T09:59:19Z</time>
      </trkpt>
      <trkpt lat="47.88659" lon="6.82605">
        <ele>747</ele>
        <time>2022-09-12T09:59:20Z</time>
      </trkpt>
      <trkpt lat="47.88659" lon="6.82604">
        <ele>747</ele>
        <time>2022-09-12T09:59:21Z</time>
      </trkpt>
      <trkpt lat="47.88659" lon="6.82603">
        <ele>747</ele>
        <time>2022-09-12T09:59:22Z</time>
      </trkpt>
      <trkpt lat="47.8866" lon="6.82602">
        <ele>747</ele>
        <time>2022-09-12T09:59:23Z</time>
      </trkpt>
      <trkpt lat="47.8866" lon="6.82601">
        <ele>747</ele>
        <time>2022-09-12T09:59:24Z</time>
      </trkpt>
      <trkpt lat="47.8866" lon="6.826">
        <ele>747</ele>
        <time>2022-09-12T09:59:25Z</time>
      </trkpt>
      <trkpt lat="47.8866" lon="6.82599">
        <ele>747</ele>
        <time>2022-09-12T09:59:26Z</time>
      </trkpt>
      <trkpt lat="47.8866" lon="6.82598">
        <ele>747</ele>
        <time>2022-09-12T09:59:27Z</time>
      </trkpt>
      <trkpt lat="47.88661" lon="6.82597">
        <ele>747</ele>
        <time>2022-09-12T09:59:28Z</time>
      </trkpt>
      <trkpt lat="47.88661" lon="6.82595">
        <ele>747</ele>
        <time>2022-09-12T09:59:29Z</time>
      </trkpt>
      <trkpt lat="47.88661" lon="6.82593">
        <ele>747</ele>
        <time>2022-09-12T09:59:30Z</time>
      </trkpt>
      <trkpt lat="47.88661" lon="6.82592">
        <ele>747</ele>
        <time>2022-09-12T09:59:31Z</time>
      </trkpt>
      <trkpt lat="47.88661" lon="6.8259">
        <ele>747</ele>
        <time>2022-09-12T09:59:32Z</time>
      </trkpt>
      <trkpt lat="47.88661" lon="6.82588">
        <ele>747</ele>
        <time>2022-09-12T09:59:33Z</time>
      </trkpt>
      <trkpt lat="47.88661" lon="6.82586">
        <ele>747</ele>
        <time>2022-09-12T09:59:34Z</time>
      </trkpt>
      <trkpt lat="47.88661" lon="6.82584">
        <ele>747</ele>
        <time>2022-09-12T09:59:35Z</time>
      </trkpt>
      <trkpt lat="47.88661" lon="6.82582">
        <ele>747</ele>
        <time>2022-09-12T09:59:36Z</time>
      </trkpt>
      <trkpt lat="47.88661" lon="6.8258">
        <ele>747</ele>
        <time>2022-09-12T09:59:37Z</time>
      </trkpt>
      <trkpt lat="47.88661" lon="6.82578">
        <ele>747</ele>
        <time>2022-09-12T09:59:38Z</time>
      </trkpt>
      <trkpt lat="47.88661" lon="6.82576">
        <ele>747</ele>
        <time>2022-09-12T09:59:39Z</time>
      </trkpt>
      <trkpt lat="47.88661" lon="6.82575">
        <ele>747</ele>
        <time>2022-09-12T09:59:40Z</time>
      </trkpt>
      <trkpt lat="47.88661" lon="6.82573">
        <ele>747</ele>
        <time>2022-09-12T09:59:41Z</time>
      </trkpt>
      <trkpt lat="47.88661" lon="6.82571">
        <ele>747</ele>
        <time>2022-09-12T09:59:42Z</time>
      </trkpt>
      <trkpt lat="47.88661" lon="6.8257">
        <ele>747</ele>
        <time>2022-09-12T09:59:43Z</time>
      </trkpt>
      <trkpt lat="47.88661" lon="6.82568">
        <ele>747</ele>
        <time>2022-09-12T09:59:44Z</time>
      </trkpt>
      <trkpt lat="47.88661" lon="6.82567">
        <ele>747</ele>
        <time>2022-09-12T09:59:45Z</time>
      </trkpt>
      <trkpt lat="47.88661" lon="6.82566">
        <ele>747</ele>
        <time>2022-09-12T09:59:46Z</time>
      </trkpt>
      <trkpt lat="47.88661" lon="6.82564">
        <ele>747</ele>
        <time>2022-09-12T09:59:47Z</time>
      </trkpt>
      <trkpt lat="47.88661" lon="6.82563">
        <ele>747</ele>
        <time>2022-09-12T09:59:48Z</time>
      </trkpt>
      <trkpt lat="47.88661" lon="6.82562">
        <ele>747</ele>
        <time>2022-09-12T09:59:49Z</time>
      </trkpt>
      <trkpt lat="47.8866" lon="6.8256">
        <ele>747</ele>
        <time>2022-09-12T09:59:50Z</time>
      </trkpt>
      <trkpt lat="47.8866" lon="6.82559">
        <ele>747</ele>
        <time>2022-09-12T09:59:51Z</time>
      </trkpt>
      <trkpt lat="47.8866" lon="6.82557">
        <ele>746</ele>
        <time>2022-09-12T09:59:52Z</time>
      </trkpt>
      <trkpt lat="47.8866" lon="6.82556">
        <ele>746</ele>
        <time>2022-09-12T09:59:53Z</time>
      </trkpt>
      <trkpt lat="47.8866" lon="6.82554">
        <ele>746</ele>
        <time>2022-09-12T09:59:54Z</time>
      </trkpt>
      <trkpt lat="47.8866" lon="6.82553">
        <ele>746</ele>
        <time>2022-09-12T09:59:55Z</time>
      </trkpt>
      <trkpt lat="47.8866" lon="6.82551">
        <ele>746</ele>
        <time>2022-09-12T09:59:56Z</time>
      </trkpt>
      <trkpt lat="47.8866" lon="6.8255">
        <ele>746</ele>
        <time>2022-09-12T09:59:57Z</time>
      </trkpt>
      <trkpt lat="47.8866" lon="6.82548">
        <ele>746</ele>
        <time>2022-09-12T09:59:58Z</time>
      </trkpt>
      <trkpt lat="47.8866" lon="6.82547">
        <ele>746</ele>
        <time>2022-09-12T09:59:59Z</time>
      </trkpt>
      <trkpt lat="47.8866" lon="6.82546">
        <ele>746</ele>
        <time>2022-09-12T10:00:00Z</time>
      </trkpt>
      <trkpt lat="47.8866" lon="6.82544">
        <ele>746</ele>
        <time>2022-09-12T10:00:01Z</time>
      </trkpt>
      <trkpt lat="47.8866" lon="6.82543">
        <ele>746</ele>
        <time>2022-09-12T10:00:02Z</time>
      </trkpt>
      <trkpt lat="47.8866" lon="6.82541">
        <ele>746</ele>
        <time>2022-09-12T10:00:03Z</time>
      </trkpt>
      <trkpt lat="47.8866" lon="6.8254">
        <ele>746</ele>
        <time>2022-09-12T10:00:04Z</time>
      </trkpt>
      <trkpt lat="47.88659" lon="6.82538">
        <ele>746</ele>
        <time>2022-09-12T10:00:05Z</time>
      </trkpt>
      <trkpt lat="47.88659" lon="6.82537">
        <ele>746</ele>
        <time>2022-09-12T10:00:06Z</time>
      </trkpt>
      <trkpt lat="47.88659" lon="6.82536">
        <ele>746</ele>
        <time>2022-09-12T10:00:07Z</time>
      </trkpt>
      <trkpt lat="47.88659" lon="6.82535">
        <ele>746</ele>
        <time>2022-09-12T10:00:08Z</time>
      </trkpt>
      <trkpt lat="47.88659" lon="6.82533">
        <ele>746</ele>
        <time>2022-09-12T10:00:09Z</time>
      </trkpt>
      <trkpt lat="47.88658" lon="6.82532">
        <ele>746</ele>
        <time>2022-09-12T10:00:10Z</time>
      </trkpt>
      <trkpt lat="47.88658" lon="6.82531">
        <ele>746</ele>
        <time>2022-09-12T10:00:11Z</time>
      </trkpt>
      <trkpt lat="47.88658" lon="6.82529">
        <ele>746</ele>
        <time>2022-09-12T10:00:12Z</time>
      </trkpt>
      <trkpt lat="47.88658" lon="6.82528">
        <ele>746</ele>
        <time>2022-09-12T10:00:13Z</time>
      </trkpt>
      <trkpt lat="47.88658" lon="6.82527">
        <ele>746</ele>
        <time>2022-09-12T10:00:14Z</time>
      </trkpt>
      <trkpt lat="47.88657" lon="6.82525">
        <ele>746</ele>
        <time>2022-09-12T10:00:15Z</time>
      </trkpt>
      <trkpt lat="47.88657" lon="6.82523">
        <ele>746</ele>
        <time>2022-09-12T10:00:16Z</time>
      </trkpt>
      <trkpt lat="47.88657" lon="6.82522">
        <ele>746</ele>
        <time>2022-09-12T10:00:17Z</time>
      </trkpt>
      <trkpt lat="47.88657" lon="6.8252">
        <ele>746</ele>
        <time>2022-09-12T10:00:18Z</time>
      </trkpt>
      <trkpt lat="47.88657" lon="6.82519">
        <ele>746</ele>
        <time>2022-09-12T10:00:19Z</time>
      </trkpt>
      <trkpt lat="47.88657" lon="6.82517">
        <ele>746</ele>
        <time>2022-09-12T10:00:20Z</time>
      </trkpt>
      <trkpt lat="47.88657" lon="6.82515">
        <ele>746</ele>
        <time>2022-09-12T10:00:21Z</time>
      </trkpt>
      <trkpt lat="47.88656" lon="6.82514">
        <ele>746</ele>
        <time>2022-09-12T10:00:22Z</time>
      </trkpt>
      <trkpt lat="47.88656" lon="6.82512">
        <ele>746</ele>
        <time>2022-09-12T10:00:23Z</time>
      </trkpt>
      <trkpt lat="47.88656" lon="6.82509">
        <ele>746</ele>
        <time>2022-09-12T10:00:30Z</time>
      </trkpt>
      <trkpt lat="47.88655" lon="6.82508">
        <ele>746</ele>
        <time>2022-09-12T10:00:31Z</time>
      </trkpt>
      <trkpt lat="47.88655" lon="6.82507">
        <ele>746</ele>
        <time>2022-09-12T10:00:32Z</time>
      </trkpt>
      <trkpt lat="47.88655" lon="6.82506">
        <ele>746</ele>
        <time>2022-09-12T10:00:33Z</time>
      </trkpt>
      <trkpt lat="47.88655" lon="6.82505">
        <ele>746</ele>
        <time>2022-09-12T10:00:34Z</time>
      </trkpt>
      <trkpt lat="47.88654" lon="6.82504">
        <ele>746</ele>
        <time>2022-09-12T10:00:35Z</time>
      </trkpt>
      <trkpt lat="47.88654" lon="6.82503">
        <ele>746</ele>
        <time>2022-09-12T10:00:36Z</time>
      </trkpt>
      <trkpt lat="47.88653" lon="6.82502">
        <ele>746</ele>
        <time>2022-09-12T10:00:37Z</time>
      </trkpt>
      <trkpt lat="47.88652" lon="6.825">
        <ele>746</ele>
        <time>2022-09-12T10:00:38Z</time>
      </trkpt>
      <trkpt lat="47.88652" lon="6.82499">
        <ele>746</ele>
        <time>2022-09-12T10:00:39Z</time>
      </trkpt>
      <trkpt lat="47.88651" lon="6.82497">
        <ele>746</ele>
        <time>2022-09-12T10:00:40Z</time>
      </trkpt>
      <trkpt lat="47.88651" lon="6.82496">
        <ele>746</ele>
        <time>2022-09-12T10:00:41Z</time>
      </trkpt>
      <trkpt lat="47.8865" lon="6.82494">
        <ele>746</ele>
        <time>2022-09-12T10:00:42Z</time>
      </trkpt>
      <trkpt lat="47.8865" lon="6.82493">
        <ele>746</ele>
        <time>2022-09-12T10:00:43Z</time>
      </trkpt>
      <trkpt lat="47.88649" lon="6.82491">
        <ele>746</ele>
        <time>2022-09-12T10:00:44Z</time>
      </trkpt>
      <trkpt lat="47.88649" lon="6.8249">
        <ele>746</ele>
        <time>2022-09-12T10:00:45Z</time>
      </trkpt>
      <trkpt lat="47.88648" lon="6.82488">
        <ele>746</ele>
        <time>2022-09-12T10:00:46Z</time>
      </trkpt>
      <trkpt lat="47.88648" lon="6.82486">
        <ele>746</ele>
        <time>2022-09-12T10:00:47Z</time>
      </trkpt>
      <trkpt lat="47.88647" lon="6.82484">
        <ele>746</ele>
        <time>2022-09-12T10:00:48Z</time>
      </trkpt>
      <trkpt lat="47.88647" lon="6.82483">
        <ele>746</ele>
        <time>2022-09-12T10:00:49Z</time>
      </trkpt>
      <trkpt lat="47.88647" lon="6.82481">
        <ele>746</ele>
        <time>2022-09-12T10:00:50Z</time>
      </trkpt>
      <trkpt lat="47.88646" lon="6.82479">
        <ele>746</ele>
        <time>2022-09-12T10:00:51Z</time>
      </trkpt>
      <trkpt lat="47.88646" lon="6.82478">
        <ele>745</ele>
        <time>2022-09-12T10:00:52Z</time>
      </trkpt>
      <trkpt lat="47.88646" lon="6.82476">
        <ele>745</ele>
        <time>2022-09-12T10:00:53Z</time>
      </trkpt>
      <trkpt lat="47.88645" lon="6.82474">
        <ele>745</ele>
        <time>2022-09-12T10:00:54Z</time>
      </trkpt>
      <trkpt lat="47.88645" lon="6.82473">
        <ele>745</ele>
        <time>2022-09-12T10:00:55Z</time>
      </trkpt>
      <trkpt lat="47.88645" lon="6.82471">
        <ele>745</ele>
        <time>2022-09-12T10:00:56Z</time>
      </trkpt>
      <trkpt lat="47.88645" lon="6.82469">
        <ele>745</ele>
        <time>2022-09-12T10:00:57Z</time>
      </trkpt>
      <trkpt lat="47.88644" lon="6.82468">
        <ele>745</ele>
        <time>2022-09-12T10:00:58Z</time>
      </trkpt>
      <trkpt lat="47.88644" lon="6.82466">
        <ele>745</ele>
        <time>2022-09-12T10:00:59Z</time>
      </trkpt>
      <trkpt lat="47.88644" lon="6.82464">
        <ele>745</ele>
        <time>2022-09-12T10:01:00Z</time>
      </trkpt>
      <trkpt lat="47.88644" lon="6.82462">
        <ele>745</ele>
        <time>2022-09-12T10:01:01Z</time>
      </trkpt>
      <trkpt lat="47.88643" lon="6.82461">
        <ele>745</ele>
        <time>2022-09-12T10:01:02Z</time>
      </trkpt>
      <trkpt lat="47.88643" lon="6.82459">
        <ele>745</ele>
        <time>2022-09-12T10:01:03Z</time>
      </trkpt>
      <trkpt lat="47.88643" lon="6.82457">
        <ele>745</ele>
        <time>2022-09-12T10:01:04Z</time>
      </trkpt>
      <trkpt lat="47.88642" lon="6.82455">
        <ele>745</ele>
        <time>2022-09-12T10:01:05Z</time>
      </trkpt>
      <trkpt lat="47.88642" lon="6.82454">
        <ele>745</ele>
        <time>2022-09-12T10:01:06Z</time>
      </trkpt>
      <trkpt lat="47.88641" lon="6.82452">
        <ele>745</ele>
        <time>2022-09-12T10:01:07Z</time>
      </trkpt>
      <trkpt lat="47.88641" lon="6.82451">
        <ele>745</ele>
        <time>2022-09-12T10:01:08Z</time>
      </trkpt>
      <trkpt lat="47.88641" lon="6.82449">
        <ele>745</ele>
        <time>2022-09-12T10:01:09Z</time>
      </trkpt>
      <trkpt lat="47.88641" lon="6.82447">
        <ele>745</ele>
        <time>2022-09-12T10:01:10Z</time>
      </trkpt>
      <trkpt lat="47.88641" lon="6.82446">
        <ele>745</ele>
        <time>2022-09-12T10:01:11Z</time>
      </trkpt>
      <trkpt lat="47.88641" lon="6.82444">
        <ele>745</ele>
        <time>2022-09-12T10:01:12Z</time>
      </trkpt>
      <trkpt lat="47.8864" lon="6.82442">
        <ele>745</ele>
        <time>2022-09-12T10:01:13Z</time>
      </trkpt>
      <trkpt lat="47.8864" lon="6.82441">
        <ele>745</ele>
        <time>2022-09-12T10:01:14Z</time>
      </trkpt>
      <trkpt lat="47.8864" lon="6.82439">
        <ele>745</ele>
        <time>2022-09-12T10:01:15Z</time>
      </trkpt>
      <trkpt lat="47.8864" lon="6.82437">
        <ele>745</ele>
        <time>2022-09-12T10:01:16Z</time>
      </trkpt>
      <trkpt lat="47.88639" lon="6.82436">
        <ele>745</ele>
        <time>2022-09-12T10:01:17Z</time>
      </trkpt>
      <trkpt lat="47.88639" lon="6.82434">
        <ele>745</ele>
        <time>2022-09-12T10:01:18Z</time>
      </trkpt>
      <trkpt lat="47.88638" lon="6.82432">
        <ele>745</ele>
        <time>2022-09-12T10:01:19Z</time>
      </trkpt>
      <trkpt lat="47.88638" lon="6.8243">
        <ele>745</ele>
        <time>2022-09-12T10:01:20Z</time>
      </trkpt>
      <trkpt lat="47.88638" lon="6.82429">
        <ele>745</ele>
        <time>2022-09-12T10:01:21Z</time>
      </trkpt>
      <trkpt lat="47.88637" lon="6.82427">
        <ele>745</ele>
        <time>2022-09-12T10:01:22Z</time>
      </trkpt>
      <trkpt lat="47.88637" lon="6.82425">
        <ele>745</ele>
        <time>2022-09-12T10:01:23Z</time>
      </trkpt>
      <trkpt lat="47.88637" lon="6.82423">
        <ele>745</ele>
        <time>2022-09-12T10:01:24Z</time>
      </trkpt>
      <trkpt lat="47.88637" lon="6.82422">
        <ele>745</ele>
        <time>2022-09-12T10:01:25Z</time>
      </trkpt>
      <trkpt lat="47.88637" lon="6.8242">
        <ele>745</ele>
        <time>2022-09-12T10:01:26Z</time>
      </trkpt>
      <trkpt lat="47.88636" lon="6.82418">
        <ele>745</ele>
        <time>2022-09-12T10:01:27Z</time>
      </trkpt>
      <trkpt lat="47.88636" lon="6.82417">
        <ele>745</ele>
        <time>2022-09-12T10:01:28Z</time>
      </trkpt>
      <trkpt lat="47.88636" lon="6.82415">
        <ele>745</ele>
        <time>2022-09-12T10:01:29Z</time>
      </trkpt>
      <trkpt lat="47.88636" lon="6.82413">
        <ele>745</ele>
        <time>2022-09-12T10:01:30Z</time>
      </trkpt>
      <trkpt lat="47.88635" lon="6.82412">
        <ele>745</ele>
        <time>2022-09-12T10:01:31Z</time>
      </trkpt>
      <trkpt lat="47.88635" lon="6.8241">
        <ele>745</ele>
        <time>2022-09-12T10:01:32Z</time>
      </trkpt>
      <trkpt lat="47.88635" lon="6.82408">
        <ele>745</ele>
        <time>2022-09-12T10:01:33Z</time>
      </trkpt>
      <trkpt lat="47.88634" lon="6.82407">
        <ele>745</ele>
        <time>2022-09-12T10:01:34Z</time>
      </trkpt>
      <trkpt lat="47.88634" lon="6.82405">
        <ele>745</ele>
        <time>2022-09-12T10:01:35Z</time>
      </trkpt>
      <trkpt lat="47.88634" lon="6.82403">
        <ele>745</ele>
        <time>2022-09-12T10:01:36Z</time>
      </trkpt>
      <trkpt lat="47.88633" lon="6.82401">
        <ele>745</ele>
        <time>2022-09-12T10:01:37Z</time>
      </trkpt>
      <trkpt lat="47.88633" lon="6.82399">
        <ele>745</ele>
        <time>2022-09-12T10:01:38Z</time>
      </trkpt>
      <trkpt lat="47.88633" lon="6.82398">
        <ele>745</ele>
        <time>2022-09-12T10:01:39Z</time>
      </trkpt>
      <trkpt lat="47.88632" lon="6.82396">
        <ele>745</ele>
        <time>2022-09-12T10:01:40Z</time>
      </trkpt>
      <trkpt lat="47.88632" lon="6.82394">
        <ele>745</ele>
        <time>2022-09-12T10:01:41Z</time>
      </trkpt>
      <trkpt lat="47.88632" lon="6.82392">
        <ele>745</ele>
        <time>2022-09-12T10:01:42Z</time>
      </trkpt>
      <trkpt lat="47.88631" lon="6.82391">
        <ele>745</ele>
        <time>2022-09-12T10:01:43Z</time>
      </trkpt>
      <trkpt lat="47.88631" lon="6.82389">
        <ele>745</ele>
        <time>2022-09-12T10:01:44Z</time>
      </trkpt>
      <trkpt lat="47.8863" lon="6.82388">
        <ele>745</ele>
        <time>2022-09-12T10:01:45Z</time>
      </trkpt>
      <trkpt lat="47.8863" lon="6.82386">
        <ele>745</ele>
        <time>2022-09-12T10:01:46Z</time>
      </trkpt>
      <trkpt lat="47.88629" lon="6.82384">
        <ele>745</ele>
        <time>2022-09-12T10:01:47Z</time>
      </trkpt>
      <trkpt lat="47.88629" lon="6.82383">
        <ele>745</ele>
        <time>2022-09-12T10:01:48Z</time>
      </trkpt>
      <trkpt lat="47.88628" lon="6.82381">
        <ele>745</ele>
        <time>2022-09-12T10:01:49Z</time>
      </trkpt>
      <trkpt lat="47.88627" lon="6.82379">
        <ele>745</ele>
        <time>2022-09-12T10:01:50Z</time>
      </trkpt>
      <trkpt lat="47.88627" lon="6.82378">
        <ele>745</ele>
        <time>2022-09-12T10:01:51Z</time>
      </trkpt>
      <trkpt lat="47.88626" lon="6.82376">
        <ele>745</ele>
        <time>2022-09-12T10:01:52Z</time>
      </trkpt>
      <trkpt lat="47.88626" lon="6.82375">
        <ele>745</ele>
        <time>2022-09-12T10:01:53Z</time>
      </trkpt>
      <trkpt lat="47.88626" lon="6.82374">
        <ele>745</ele>
        <time>2022-09-12T10:01:54Z</time>
      </trkpt>
      <trkpt lat="47.88625" lon="6.82373">
        <ele>745</ele>
        <time>2022-09-12T10:01:55Z</time>
      </trkpt>
      <trkpt lat="47.88625" lon="6.82373">
        <ele>745</ele>
        <time>2022-09-12T10:01:56Z</time>
      </trkpt>
      <trkpt lat="47.88625" lon="6.82371">
        <ele>745</ele>
        <time>2022-09-12T10:01:57Z</time>
      </trkpt>
      <trkpt lat="47.88624" lon="6.8237">
        <ele>745</ele>
        <time>2022-09-12T10:01:58Z</time>
      </trkpt>
      <trkpt lat="47.88623" lon="6.82368">
        <ele>745</ele>
        <time>2022-09-12T10:01:59Z</time>
      </trkpt>
      <trkpt lat="47.88623" lon="6.82367">
        <ele>745</ele>
        <time>2022-09-12T10:02:00Z</time>
      </trkpt>
      <trkpt lat="47.88622" lon="6.82365">
        <ele>745</ele>
        <time>2022-09-12T10:02:01Z</time>
      </trkpt>
      <trkpt lat="47.88621" lon="6.82364">
        <ele>745</ele>
        <time>2022-09-12T10:02:02Z</time>
      </trkpt>
      <trkpt lat="47.8862" lon="6.82362">
        <ele>745</ele>
        <time>2022-09-12T10:02:03Z</time>
      </trkpt>
      <trkpt lat="47.8862" lon="6.8236">
        <ele>745</ele>
        <time>2022-09-12T10:02:04Z</time>
      </trkpt>
      <trkpt lat="47.88619" lon="6.82358">
        <ele>745</ele>
        <time>2022-09-12T10:02:05Z</time>
      </trkpt>
      <trkpt lat="47.88618" lon="6.82357">
        <ele>745</ele>
        <time>2022-09-12T10:02:06Z</time>
      </trkpt>
      <trkpt lat="47.88618" lon="6.82356">
        <ele>745</ele>
        <time>2022-09-12T10:02:07Z</time>
      </trkpt>
      <trkpt lat="47.88618" lon="6.82355">
        <ele>745</ele>
        <time>2022-09-12T10:02:08Z</time>
      </trkpt>
      <trkpt lat="47.88617" lon="6.82354">
        <ele>745</ele>
        <time>2022-09-12T10:02:09Z</time>
      </trkpt>
      <trkpt lat="47.88617" lon="6.82352">
        <ele>745</ele>
        <time>2022-09-12T10:02:10Z</time>
      </trkpt>
      <trkpt lat="47.88616" lon="6.82351">
        <ele>745</ele>
        <time>2022-09-12T10:02:11Z</time>
      </trkpt>
      <trkpt lat="47.88616" lon="6.8235">
        <ele>745</ele>
        <time>2022-09-12T10:02:12Z</time>
      </trkpt>
      <trkpt lat="47.88615" lon="6.82348">
        <ele>745</ele>
        <time>2022-09-12T10:02:13Z</time>
      </trkpt>
      <trkpt lat="47.88615" lon="6.82347">
        <ele>745</ele>
        <time>2022-09-12T10:02:14Z</time>
      </trkpt>
      <trkpt lat="47.88614" lon="6.82346">
        <ele>745</ele>
        <time>2022-09-12T10:02:15Z</time>
      </trkpt>
      <trkpt lat="47.88614" lon="6.82345">
        <ele>745</ele>
        <time>2022-09-12T10:02:16Z</time>
      </trkpt>
      <trkpt lat="47.88614" lon="6.82343">
        <ele>745</ele>
        <time>2022-09-12T10:02:17Z</time>
      </trkpt>
      <trkpt lat="47.88613" lon="6.82342">
        <ele>745</ele>
        <time>2022-09-12T10:02:18Z</time>
      </trkpt>
      <trkpt lat="47.88613" lon="6.82341">
        <ele>745</ele>
        <time>2022-09-12T10:02:19Z</time>
      </trkpt>
      <trkpt lat="47.88613" lon="6.8234">
        <ele>745</ele>
        <time>2022-09-12T10:02:20Z</time>
      </trkpt>
      <trkpt lat="47.88613" lon="6.82338">
        <ele>745</ele>
        <time>2022-09-12T10:02:21Z</time>
      </trkpt>
      <trkpt lat="47.88612" lon="6.82337">
        <ele>745</ele>
        <time>2022-09-12T10:02:22Z</time>
      </trkpt>
      <trkpt lat="47.88611" lon="6.82336">
        <ele>745</ele>
        <time>2022-09-12T10:02:23Z</time>
      </trkpt>
      <trkpt lat="47.88611" lon="6.82334">
        <ele>745</ele>
        <time>2022-09-12T10:02:24Z</time>
      </trkpt>
      <trkpt lat="47.8861" lon="6.82333">
        <ele>745</ele>
        <time>2022-09-12T10:02:25Z</time>
      </trkpt>
      <trkpt lat="47.88609" lon="6.82332">
        <ele>745</ele>
        <time>2022-09-12T10:02:26Z</time>
      </trkpt>
      <trkpt lat="47.88608" lon="6.82331">
        <ele>745</ele>
        <time>2022-09-12T10:02:27Z</time>
      </trkpt>
      <trkpt lat="47.88607" lon="6.82329">
        <ele>745</ele>
        <time>2022-09-12T10:02:28Z</time>
      </trkpt>
      <trkpt lat="47.88606" lon="6.82328">
        <ele>745</ele>
        <time>2022-09-12T10:02:29Z</time>
      </trkpt>
      <trkpt lat="47.88605" lon="6.82327">
        <ele>745</ele>
        <time>2022-09-12T10:02:30Z</time>
      </trkpt>
      <trkpt lat="47.88605" lon="6.82326">
        <ele>745</ele>
        <time>2022-09-12T10:02:31Z</time>
      </trkpt>
      <trkpt lat="47.88604" lon="6.82325">
        <ele>745</ele>
        <time>2022-09-12T10:02:32Z</time>
      </trkpt>
      <trkpt lat="47.88604" lon="6.82324">
        <ele>745</ele>
        <time>2022-09-12T10:02:33Z</time>
      </trkpt>
      <trkpt lat="47.88604" lon="6.82324">
        <ele>745</ele>
        <time>2022-09-12T10:02:34Z</time>
      </trkpt>
      <trkpt lat="47.88604" lon="6.82323">
        <ele>745</ele>
        <time>2022-09-12T10:02:35Z</time>
      </trkpt>
      <trkpt lat="47.88604" lon="6.82323">
        <ele>745</ele>
        <time>2022-09-12T10:02:36Z</time>
      </trkpt>
      <trkpt lat="47.88603" lon="6.82322">
        <ele>745</ele>
        <time>2022-09-12T10:02:37Z</time>
      </trkpt>
      <trkpt lat="47.88603" lon="6.82322">
        <ele>745</ele>
        <time>2022-09-12T10:02:38Z</time>
      </trkpt>
      <trkpt lat="47.88603" lon="6.82321">
        <ele>745</ele>
        <time>2022-09-12T10:02:39Z</time>
      </trkpt>
      <trkpt lat="47.88603" lon="6.8232">
        <ele>745</ele>
        <time>2022-09-12T10:02:40Z</time>
      </trkpt>
      <trkpt lat="47.88603" lon="6.82319">
        <ele>745</ele>
        <time>2022-09-12T10:02:41Z</time>
      </trkpt>
      <trkpt lat="47.88603" lon="6.82318">
        <ele>745</ele>
        <time>2022-09-12T10:02:42Z</time>
      </trkpt>
      <trkpt lat="47.88603" lon="6.82316">
        <ele>745</ele>
        <time>2022-09-12T10:02:43Z</time>
      </trkpt>
      <trkpt lat="47.88602" lon="6.82315">
        <ele>745</ele>
        <time>2022-09-12T10:02:44Z</time>
      </trkpt>
      <trkpt lat="47.88602" lon="6.82314">
        <ele>745</ele>
        <time>2022-09-12T10:02:45Z</time>
      </trkpt>
      <trkpt lat="47.88601" lon="6.82312">
        <ele>745</ele>
        <time>2022-09-12T10:02:46Z</time>
      </trkpt>
      <trkpt lat="47.886" lon="6.82311">
        <ele>745</ele>
        <time>2022-09-12T10:02:47Z</time>
      </trkpt>
      <trkpt lat="47.886" lon="6.8231">
        <ele>745</ele>
        <time>2022-09-12T10:02:48Z</time>
      </trkpt>
      <trkpt lat="47.88599" lon="6.82308">
        <ele>745</ele>
        <time>2022-09-12T10:02:49Z</time>
      </trkpt>
      <trkpt lat="47.88599" lon="6.82307">
        <ele>745</ele>
        <time>2022-09-12T10:02:50Z</time>
      </trkpt>
      <trkpt lat="47.88599" lon="6.82306">
        <ele>745</ele>
        <time>2022-09-12T10:02:51Z</time>
      </trkpt>
      <trkpt lat="47.88598" lon="6.82304">
        <ele>745</ele>
        <time>2022-09-12T10:02:52Z</time>
      </trkpt>
      <trkpt lat="47.88598" lon="6.82302">
        <ele>745</ele>
        <time>2022-09-12T10:02:53Z</time>
      </trkpt>
      <trkpt lat="47.88598" lon="6.82301">
        <ele>745</ele>
        <time>2022-09-12T10:02:54Z</time>
      </trkpt>
      <trkpt lat="47.88597" lon="6.823">
        <ele>745</ele>
        <time>2022-09-12T10:02:55Z</time>
      </trkpt>
      <trkpt lat="47.88597" lon="6.82299">
        <ele>746</ele>
        <time>2022-09-12T10:02:56Z</time>
      </trkpt>
      <trkpt lat="47.88597" lon="6.82298">
        <ele>746</ele>
        <time>2022-09-12T10:02:57Z</time>
      </trkpt>
      <trkpt lat="47.88596" lon="6.82296">
        <ele>746</ele>
        <time>2022-09-12T10:02:58Z</time>
      </trkpt>
      <trkpt lat="47.88596" lon="6.82295">
        <ele>746</ele>
        <time>2022-09-12T10:02:59Z</time>
      </trkpt>
      <trkpt lat="47.88595" lon="6.82294">
        <ele>746</ele>
        <time>2022-09-12T10:03:00Z</time>
      </trkpt>
      <trkpt lat="47.88595" lon="6.82293">
        <ele>746</ele>
        <time>2022-09-12T10:03:01Z</time>
      </trkpt>
      <trkpt lat="47.88595" lon="6.82291">
        <ele>746</ele>
        <time>2022-09-12T10:03:02Z</time>
      </trkpt>
      <trkpt lat="47.88595" lon="6.8229">
        <ele>746</ele>
        <time>2022-09-12T10:03:03Z</time>
      </trkpt>
      <trkpt lat="47.88594" lon="6.82289">
        <ele>746</ele>
        <time>2022-09-12T10:03:04Z</time>
      </trkpt>
      <trkpt lat="47.88594" lon="6.82287">
        <ele>746</ele>
        <time>2022-09-12T10:03:05Z</time>
      </trkpt>
      <trkpt lat="47.88594" lon="6.82286">
        <ele>746</ele>
        <time>2022-09-12T10:03:06Z</time>
      </trkpt>
      <trkpt lat="47.88594" lon="6.82284">
        <ele>745</ele>
        <time>2022-09-12T10:03:07Z</time>
      </trkpt>
      <trkpt lat="47.88593" lon="6.82283">
        <ele>745</ele>
        <time>2022-09-12T10:03:08Z</time>
      </trkpt>
      <trkpt lat="47.88593" lon="6.82281">
        <ele>745</ele>
        <time>2022-09-12T10:03:09Z</time>
      </trkpt>
      <trkpt lat="47.88593" lon="6.8228">
        <ele>745</ele>
        <time>2022-09-12T10:03:10Z</time>
      </trkpt>
      <trkpt lat="47.88593" lon="6.82279">
        <ele>745</ele>
        <time>2022-09-12T10:03:11Z</time>
      </trkpt>
      <trkpt lat="47.88592" lon="6.82277">
        <ele>745</ele>
        <time>2022-09-12T10:03:12Z</time>
      </trkpt>
      <trkpt lat="47.88592" lon="6.82276">
        <ele>745</ele>
        <time>2022-09-12T10:03:13Z</time>
      </trkpt>
      <trkpt lat="47.88592" lon="6.82274">
        <ele>745</ele>
        <time>2022-09-12T10:03:14Z</time>
      </trkpt>
      <trkpt lat="47.88592" lon="6.82273">
        <ele>745</ele>
        <time>2022-09-12T10:03:15Z</time>
      </trkpt>
      <trkpt lat="47.88592" lon="6.82271">
        <ele>745</ele>
        <time>2022-09-12T10:03:16Z</time>
      </trkpt>
      <trkpt lat="47.88592" lon="6.82269">
        <ele>745</ele>
        <time>2022-09-12T10:03:17Z</time>
      </trkpt>
      <trkpt lat="47.88592" lon="6.82267">
        <ele>745</ele>
        <time>2022-09-12T10:03:18Z</time>
      </trkpt>
      <trkpt lat="47.88591" lon="6.82266">
        <ele>745</ele>
        <time>2022-09-12T10:03:19Z</time>
      </trkpt>
      <trkpt lat="47.88591" lon="6.82264">
        <ele>745</ele>
        <time>2022-09-12T10:03:20Z</time>
      </trkpt>
      <trkpt lat="47.88591" lon="6.82262">
        <ele>745</ele>
        <time>2022-09-12T10:03:21Z</time>
      </trkpt>
      <trkpt lat="47.88591" lon="6.82261">
        <ele>744</ele>
        <time>2022-09-12T10:03:22Z</time>
      </trkpt>
      <trkpt lat="47.88591" lon="6.8226">
        <ele>744</ele>
        <time>2022-09-12T10:03:23Z</time>
      </trkpt>
      <trkpt lat="47.88591" lon="6.82258">
        <ele>744</ele>
        <time>2022-09-12T10:03:24Z</time>
      </trkpt>
      <trkpt lat="47.88591" lon="6.82256">
        <ele>744</ele>
        <time>2022-09-12T10:03:25Z</time>
      </trkpt>
      <trkpt lat="47.88591" lon="6.82255">
        <ele>744</ele>
        <time>2022-09-12T10:03:26Z</time>
      </trkpt>
      <trkpt lat="47.88591" lon="6.82254">
        <ele>744</ele>
        <time>2022-09-12T10:03:27Z</time>
      </trkpt>
      <trkpt lat="47.88591" lon="6.82253">
        <ele>744</ele>
        <time>2022-09-12T10:03:28Z</time>
      </trkpt>
      <trkpt lat="47.88591" lon="6.82252">
        <ele>744</ele>
        <time>2022-09-12T10:03:29Z</time>
      </trkpt>
      <trkpt lat="47.8859" lon="6.82251">
        <ele>744</ele>
        <time>2022-09-12T10:03:30Z</time>
      </trkpt>
      <trkpt lat="47.8859" lon="6.8225">
        <ele>744</ele>
        <time>2022-09-12T10:03:31Z</time>
      </trkpt>
      <trkpt lat="47.8859" lon="6.82249">
        <ele>743</ele>
        <time>2022-09-12T10:03:32Z</time>
      </trkpt>
      <trkpt lat="47.88589" lon="6.82247">
        <ele>743</ele>
        <time>2022-09-12T10:03:33Z</time>
      </trkpt>
      <trkpt lat="47.88589" lon="6.82246">
        <ele>743</ele>
        <time>2022-09-12T10:03:34Z</time>
      </trkpt>
      <trkpt lat="47.88589" lon="6.82245">
        <ele>743</ele>
        <time>2022-09-12T10:03:35Z</time>
      </trkpt>
      <trkpt lat="47.88588" lon="6.82244">
        <ele>743</ele>
        <time>2022-09-12T10:03:36Z</time>
      </trkpt>
      <trkpt lat="47.88588" lon="6.82242">
        <ele>743</ele>
        <time>2022-09-12T10:03:37Z</time>
      </trkpt>
      <trkpt lat="47.88588" lon="6.82241">
        <ele>743</ele>
        <time>2022-09-12T10:03:38Z</time>
      </trkpt>
      <trkpt lat="47.88588" lon="6.8224">
        <ele>743</ele>
        <time>2022-09-12T10:03:39Z</time>
      </trkpt>
      <trkpt lat="47.88587" lon="6.82238">
        <ele>743</ele>
        <time>2022-09-12T10:03:40Z</time>
      </trkpt>
      <trkpt lat="47.88587" lon="6.82237">
        <ele>743</ele>
        <time>2022-09-12T10:03:41Z</time>
      </trkpt>
      <trkpt lat="47.88587" lon="6.82236">
        <ele>742</ele>
        <time>2022-09-12T10:03:42Z</time>
      </trkpt>
      <trkpt lat="47.88587" lon="6.82234">
        <ele>742</ele>
        <time>2022-09-12T10:03:43Z</time>
      </trkpt>
      <trkpt lat="47.88586" lon="6.82233">
        <ele>742</ele>
        <time>2022-09-12T10:03:44Z</time>
      </trkpt>
      <trkpt lat="47.88586" lon="6.82231">
        <ele>742</ele>
        <time>2022-09-12T10:03:45Z</time>
      </trkpt>
      <trkpt lat="47.88586" lon="6.8223">
        <ele>742</ele>
        <time>2022-09-12T10:03:46Z</time>
      </trkpt>
      <trkpt lat="47.88586" lon="6.82229">
        <ele>742</ele>
        <time>2022-09-12T10:03:47Z</time>
      </trkpt>
      <trkpt lat="47.88585" lon="6.82227">
        <ele>742</ele>
        <time>2022-09-12T10:03:48Z</time>
      </trkpt>
      <trkpt lat="47.88585" lon="6.82226">
        <ele>742</ele>
        <time>2022-09-12T10:03:49Z</time>
      </trkpt>
      <trkpt lat="47.88585" lon="6.82224">
        <ele>742</ele>
        <time>2022-09-12T10:03:50Z</time>
      </trkpt>
      <trkpt lat="47.88584" lon="6.82223">
        <ele>742</ele>
        <time>2022-09-12T10:03:51Z</time>
      </trkpt>
      <trkpt lat="47.88584" lon="6.82221">
        <ele>741</ele>
        <time>2022-09-12T10:03:52Z</time>
      </trkpt>
      <trkpt lat="47.88584" lon="6.82219">
        <ele>741</ele>
        <time>2022-09-12T10:03:53Z</time>
      </trkpt>
      <trkpt lat="47.88584" lon="6.82218">
        <ele>741</ele>
        <time>2022-09-12T10:03:54Z</time>
      </trkpt>
      <trkpt lat="47.88584" lon="6.82216">
        <ele>741</ele>
        <time>2022-09-12T10:03:55Z</time>
      </trkpt>
      <trkpt lat="47.88584" lon="6.82214">
        <ele>741</ele>
        <time>2022-09-12T10:03:56Z</time>
      </trkpt>
      <trkpt lat="47.88584" lon="6.82212">
        <ele>741</ele>
        <time>2022-09-12T10:03:57Z</time>
      </trkpt>
      <trkpt lat="47.88584" lon="6.82211">
        <ele>741</ele>
        <time>2022-09-12T10:03:58Z</time>
      </trkpt>
      <trkpt lat="47.88583" lon="6.82209">
        <ele>741</ele>
        <time>2022-09-12T10:03:59Z</time>
      </trkpt>
      <trkpt lat="47.88583" lon="6.82207">
        <ele>741</ele>
        <time>2022-09-12T10:04:00Z</time>
      </trkpt>
      <trkpt lat="47.88583" lon="6.82205">
        <ele>741</ele>
        <time>2022-09-12T10:04:01Z</time>
      </trkpt>
      <trkpt lat="47.88583" lon="6.82204">
        <ele>741</ele>
        <time>2022-09-12T10:04:02Z</time>
      </trkpt>
      <trkpt lat="47.88583" lon="6.82202">
        <ele>741</ele>
        <time>2022-09-12T10:04:03Z</time>
      </trkpt>
      <trkpt lat="47.88583" lon="6.82201">
        <ele>741</ele>
        <time>2022-09-12T10:04:04Z</time>
      </trkpt>
      <trkpt lat="47.88583" lon="6.82199">
        <ele>741</ele>
        <time>2022-09-12T10:04:05Z</time>
      </trkpt>
      <trkpt lat="47.88583" lon="6.82198">
        <ele>741</ele>
        <time>2022-09-12T10:04:06Z</time>
      </trkpt>
      <trkpt lat="47.88583" lon="6.82196">
        <ele>740</ele>
        <time>2022-09-12T10:04:07Z</time>
      </trkpt>
      <trkpt lat="47.88582" lon="6.82195">
        <ele>740</ele>
        <time>2022-09-12T10:04:08Z</time>
      </trkpt>
      <trkpt lat="47.88582" lon="6.82193">
        <ele>740</ele>
        <time>2022-09-12T10:04:09Z</time>
      </trkpt>
      <trkpt lat="47.88582" lon="6.82192">
        <ele>740</ele>
        <time>2022-09-12T10:04:10Z</time>
      </trkpt>
      <trkpt lat="47.88582" lon="6.82191">
        <ele>740</ele>
        <time>2022-09-12T10:04:11Z</time>
      </trkpt>
      <trkpt lat="47.88582" lon="6.8219">
        <ele>740</ele>
        <time>2022-09-12T10:04:12Z</time>
      </trkpt>
      <trkpt lat="47.88581" lon="6.82188">
        <ele>740</ele>
        <time>2022-09-12T10:04:13Z</time>
      </trkpt>
      <trkpt lat="47.88581" lon="6.82187">
        <ele>740</ele>
        <time>2022-09-12T10:04:14Z</time>
      </trkpt>
      <trkpt lat="47.88581" lon="6.82186">
        <ele>740</ele>
        <time>2022-09-12T10:04:15Z</time>
      </trkpt>
      <trkpt lat="47.88581" lon="6.82184">
        <ele>740</ele>
        <time>2022-09-12T10:04:16Z</time>
      </trkpt>
      <trkpt lat="47.8858" lon="6.82183">
        <ele>739</ele>
        <time>2022-09-12T10:04:17Z</time>
      </trkpt>
      <trkpt lat="47.8858" lon="6.82182">
        <ele>739</ele>
        <time>2022-09-12T10:04:18Z</time>
      </trkpt>
      <trkpt lat="47.8858" lon="6.82181">
        <ele>739</ele>
        <time>2022-09-12T10:04:19Z</time>
      </trkpt>
      <trkpt lat="47.88579" lon="6.82179">
        <ele>739</ele>
        <time>2022-09-12T10:04:20Z</time>
      </trkpt>
      <trkpt lat="47.88579" lon="6.82178">
        <ele>739</ele>
        <time>2022-09-12T10:04:21Z</time>
      </trkpt>
      <trkpt lat="47.88579" lon="6.82176">
        <ele>739</ele>
        <time>2022-09-12T10:04:22Z</time>
      </trkpt>
      <trkpt lat="47.88578" lon="6.82175">
        <ele>739</ele>
        <time>2022-09-12T10:04:23Z</time>
      </trkpt>
      <trkpt lat="47.88578" lon="6.82173">
        <ele>739</ele>
        <time>2022-09-12T10:04:24Z</time>
      </trkpt>
      <trkpt lat="47.88578" lon="6.82172">
        <ele>739</ele>
        <time>2022-09-12T10:04:25Z</time>
      </trkpt>
      <trkpt lat="47.88578" lon="6.82171">
        <ele>739</ele>
        <time>2022-09-12T10:04:26Z</time>
      </trkpt>
      <trkpt lat="47.88577" lon="6.82169">
        <ele>738</ele>
        <time>2022-09-12T10:04:27Z</time>
      </trkpt>
      <trkpt lat="47.88577" lon="6.82168">
        <ele>738</ele>
        <time>2022-09-12T10:04:28Z</time>
      </trkpt>
      <trkpt lat="47.88577" lon="6.82167">
        <ele>738</ele>
        <time>2022-09-12T10:04:29Z</time>
      </trkpt>
      <trkpt lat="47.88576" lon="6.82166">
        <ele>738</ele>
        <time>2022-09-12T10:04:30Z</time>
      </trkpt>
      <trkpt lat="47.88576" lon="6.82165">
        <ele>738</ele>
        <time>2022-09-12T10:04:31Z</time>
      </trkpt>
      <trkpt lat="47.88576" lon="6.82164">
        <ele>738</ele>
        <time>2022-09-12T10:04:32Z</time>
      </trkpt>
      <trkpt lat="47.88576" lon="6.82162">
        <ele>738</ele>
        <time>2022-09-12T10:04:33Z</time>
      </trkpt>
      <trkpt lat="47.88575" lon="6.82161">
        <ele>738</ele>
        <time>2022-09-12T10:04:34Z</time>
      </trkpt>
      <trkpt lat="47.88575" lon="6.82159">
        <ele>738</ele>
        <time>2022-09-12T10:04:35Z</time>
      </trkpt>
      <trkpt lat="47.88575" lon="6.82157">
        <ele>738</ele>
        <time>2022-09-12T10:04:36Z</time>
      </trkpt>
      <trkpt lat="47.88575" lon="6.82156">
        <ele>738</ele>
        <time>2022-09-12T10:04:37Z</time>
      </trkpt>
      <trkpt lat="47.88575" lon="6.82154">
        <ele>738</ele>
        <time>2022-09-12T10:04:38Z</time>
      </trkpt>
      <trkpt lat="47.88575" lon="6.82152">
        <ele>738</ele>
        <time>2022-09-12T10:04:39Z</time>
      </trkpt>
      <trkpt lat="47.88575" lon="6.82151">
        <ele>738</ele>
        <time>2022-09-12T10:04:40Z</time>
      </trkpt>
      <trkpt lat="47.88575" lon="6.82149">
        <ele>738</ele>
        <time>2022-09-12T10:04:41Z</time>
      </trkpt>
      <trkpt lat="47.88575" lon="6.82147">
        <ele>737</ele>
        <time>2022-09-12T10:04:42Z</time>
      </trkpt>
      <trkpt lat="47.88575" lon="6.82146">
        <ele>737</ele>
        <time>2022-09-12T10:04:43Z</time>
      </trkpt>
      <trkpt lat="47.88575" lon="6.82144">
        <ele>737</ele>
        <time>2022-09-12T10:04:44Z</time>
      </trkpt>
      <trkpt lat="47.88575" lon="6.82143">
        <ele>737</ele>
        <time>2022-09-12T10:04:45Z</time>
      </trkpt>
      <trkpt lat="47.88576" lon="6.82142">
        <ele>737</ele>
        <time>2022-09-12T10:04:46Z</time>
      </trkpt>
      <trkpt lat="47.88576" lon="6.8214">
        <ele>737</ele>
        <time>2022-09-12T10:04:47Z</time>
      </trkpt>
      <trkpt lat="47.88576" lon="6.82139">
        <ele>737</ele>
        <time>2022-09-12T10:04:48Z</time>
      </trkpt>
      <trkpt lat="47.88576" lon="6.82137">
        <ele>737</ele>
        <time>2022-09-12T10:04:49Z</time>
      </trkpt>
      <trkpt lat="47.88576" lon="6.82136">
        <ele>737</ele>
        <time>2022-09-12T10:04:50Z</time>
      </trkpt>
      <trkpt lat="47.88576" lon="6.82134">
        <ele>737</ele>
        <time>2022-09-12T10:04:51Z</time>
      </trkpt>
      <trkpt lat="47.88576" lon="6.82133">
        <ele>737</ele>
        <time>2022-09-12T10:04:52Z</time>
      </trkpt>
      <trkpt lat="47.88576" lon="6.82131">
        <ele>737</ele>
        <time>2022-09-12T10:04:53Z</time>
      </trkpt>
      <trkpt lat="47.88576" lon="6.8213">
        <ele>737</ele>
        <time>2022-09-12T10:04:54Z</time>
      </trkpt>
      <trkpt lat="47.88576" lon="6.82128">
        <ele>737</ele>
        <time>2022-09-12T10:04:55Z</time>
      </trkpt>
      <trkpt lat="47.88576" lon="6.82126">
        <ele>737</ele>
        <time>2022-09-12T10:04:56Z</time>
      </trkpt>
      <trkpt lat="47.88576" lon="6.82125">
        <ele>736</ele>
        <time>2022-09-12T10:04:57Z</time>
      </trkpt>
      <trkpt lat="47.88576" lon="6.82124">
        <ele>736</ele>
        <time>2022-09-12T10:04:58Z</time>
      </trkpt>
      <trkpt lat="47.88576" lon="6.82122">
        <ele>736</ele>
        <time>2022-09-12T10:04:59Z</time>
      </trkpt>
      <trkpt lat="47.88576" lon="6.82121">
        <ele>736</ele>
        <time>2022-09-12T10:05:00Z</time>
      </trkpt>
      <trkpt lat="47.88576" lon="6.82119">
        <ele>736</ele>
        <time>2022-09-12T10:05:01Z</time>
      </trkpt>
      <trkpt lat="47.88576" lon="6.82118">
        <ele>736</ele>
        <time>2022-09-12T10:05:02Z</time>
      </trkpt>
      <trkpt lat="47.88576" lon="6.82116">
        <ele>736</ele>
        <time>2022-09-12T10:05:03Z</time>
      </trkpt>
      <trkpt lat="47.88576" lon="6.82115">
        <ele>736</ele>
        <time>2022-09-12T10:05:04Z</time>
      </trkpt>
      <trkpt lat="47.88576" lon="6.82113">
        <ele>736</ele>
        <time>2022-09-12T10:05:05Z</time>
      </trkpt>
      <trkpt lat="47.88576" lon="6.82112">
        <ele>736</ele>
        <time>2022-09-12T10:05:06Z</time>
      </trkpt>
      <trkpt lat="47.88576" lon="6.8211">
        <ele>736</ele>
        <time>2022-09-12T10:05:07Z</time>
      </trkpt>
      <trkpt lat="47.88576" lon="6.82109">
        <ele>736</ele>
        <time>2022-09-12T10:05:08Z</time>
      </trkpt>
      <trkpt lat="47.88577" lon="6.82107">
        <ele>736</ele>
        <time>2022-09-12T10:05:09Z</time>
      </trkpt>
      <trkpt lat="47.88577" lon="6.82105">
        <ele>736</ele>
        <time>2022-09-12T10:05:10Z</time>
      </trkpt>
      <trkpt lat="47.88577" lon="6.82104">
        <ele>736</ele>
        <time>2022-09-12T10:05:11Z</time>
      </trkpt>
      <trkpt lat="47.88577" lon="6.82102">
        <ele>735</ele>
        <time>2022-09-12T10:05:12Z</time>
      </trkpt>
      <trkpt lat="47.88577" lon="6.82101">
        <ele>735</ele>
        <time>2022-09-12T10:05:13Z</time>
      </trkpt>
      <trkpt lat="47.88577" lon="6.821">
        <ele>735</ele>
        <time>2022-09-12T10:05:14Z</time>
      </trkpt>
      <trkpt lat="47.88577" lon="6.82098">
        <ele>735</ele>
        <time>2022-09-12T10:05:15Z</time>
      </trkpt>
      <trkpt lat="47.88577" lon="6.82097">
        <ele>735</ele>
        <time>2022-09-12T10:05:16Z</time>
      </trkpt>
      <trkpt lat="47.88577" lon="6.82096">
        <ele>735</ele>
        <time>2022-09-12T10:05:17Z</time>
      </trkpt>
      <trkpt lat="47.88577" lon="6.82094">
        <ele>735</ele>
        <time>2022-09-12T10:05:18Z</time>
      </trkpt>
      <trkpt lat="47.88577" lon="6.82093">
        <ele>735</ele>
        <time>2022-09-12T10:05:19Z</time>
      </trkpt>
      <trkpt lat="47.88577" lon="6.82091">
        <ele>735</ele>
        <time>2022-09-12T10:05:20Z</time>
      </trkpt>
      <trkpt lat="47.88577" lon="6.8209">
        <ele>735</ele>
        <time>2022-09-12T10:05:21Z</time>
      </trkpt>
      <trkpt lat="47.88577" lon="6.82088">
        <ele>735</ele>
        <time>2022-09-12T10:05:22Z</time>
      </trkpt>
      <trkpt lat="47.88577" lon="6.82086">
        <ele>735</ele>
        <time>2022-09-12T10:05:23Z</time>
      </trkpt>
      <trkpt lat="47.88577" lon="6.82085">
        <ele>735</ele>
        <time>2022-09-12T10:05:24Z</time>
      </trkpt>
      <trkpt lat="47.88577" lon="6.82083">
        <ele>735</ele>
        <time>2022-09-12T10:05:25Z</time>
      </trkpt>
      <trkpt lat="47.88577" lon="6.82082">
        <ele>735</ele>
        <time>2022-09-12T10:05:26Z</time>
      </trkpt>
      <trkpt lat="47.88576" lon="6.8208">
        <ele>734</ele>
        <time>2022-09-12T10:05:27Z</time>
      </trkpt>
      <trkpt lat="47.88576" lon="6.82078">
        <ele>734</ele>
        <time>2022-09-12T10:05:28Z</time>
      </trkpt>
      <trkpt lat="47.88576" lon="6.82077">
        <ele>734</ele>
        <time>2022-09-12T10:05:29Z</time>
      </trkpt>
      <trkpt lat="47.88576" lon="6.82075">
        <ele>734</ele>
        <time>2022-09-12T10:05:30Z</time>
      </trkpt>
      <trkpt lat="47.88576" lon="6.82074">
        <ele>734</ele>
        <time>2022-09-12T10:05:31Z</time>
      </trkpt>
      <trkpt lat="47.88576" lon="6.82072">
        <ele>734</ele>
        <time>2022-09-12T10:05:32Z</time>
      </trkpt>
      <trkpt lat="47.88576" lon="6.82071">
        <ele>734</ele>
        <time>2022-09-12T10:05:33Z</time>
      </trkpt>
      <trkpt lat="47.88576" lon="6.82069">
        <ele>734</ele>
        <time>2022-09-12T10:05:34Z</time>
      </trkpt>
      <trkpt lat="47.88576" lon="6.82068">
        <ele>734</ele>
        <time>2022-09-12T10:05:35Z</time>
      </trkpt>
      <trkpt lat="47.88575" lon="6.82067">
        <ele>734</ele>
        <time>2022-09-12T10:05:36Z</time>
      </trkpt>
      <trkpt lat="47.88576" lon="6.82065">
        <ele>733</ele>
        <time>2022-09-12T10:05:45Z</time>
      </trkpt>
      <trkpt lat="47.88576" lon="6.82065">
        <ele>733</ele>
        <time>2022-09-12T10:05:46Z</time>
      </trkpt>
      <trkpt lat="47.88576" lon="6.82064">
        <ele>733</ele>
        <time>2022-09-12T10:05:47Z</time>
      </trkpt>
      <trkpt lat="47.88576" lon="6.82063">
        <ele>733</ele>
        <time>2022-09-12T10:05:48Z</time>
      </trkpt>
      <trkpt lat="47.88576" lon="6.82062">
        <ele>733</ele>
        <time>2022-09-12T10:05:49Z</time>
      </trkpt>
      <trkpt lat="47.88576" lon="6.82062">
        <ele>733</ele>
        <time>2022-09-12T10:05:50Z</time>
      </trkpt>
      <trkpt lat="47.88576" lon="6.82061">
        <ele>733</ele>
        <time>2022-09-12T10:05:51Z</time>
      </trkpt>
      <trkpt lat="47.88576" lon="6.8206">
        <ele>733</ele>
        <time>2022-09-12T10:05:52Z</time>
      </trkpt>
      <trkpt lat="47.88576" lon="6.82059">
        <ele>733</ele>
        <time>2022-09-12T10:05:53Z</time>
      </trkpt>
      <trkpt lat="47.88576" lon="6.82058">
        <ele>733</ele>
        <time>2022-09-12T10:06:05Z</time>
      </trkpt>
      <trkpt lat="47.88576" lon="6.82057">
        <ele>733</ele>
        <time>2022-09-12T10:06:06Z</time>
      </trkpt>
      <trkpt lat="47.88576" lon="6.82056">
        <ele>732</ele>
        <time>2022-09-12T10:06:07Z</time>
      </trkpt>
      <trkpt lat="47.88575" lon="6.82056">
        <ele>732</ele>
        <time>2022-09-12T10:06:08Z</time>
      </trkpt>
      <trkpt lat="47.88575" lon="6.82055">
        <ele>732</ele>
        <time>2022-09-12T10:06:09Z</time>
      </trkpt>
      <trkpt lat="47.88575" lon="6.82054">
        <ele>732</ele>
        <time>2022-09-12T10:06:10Z</time>
      </trkpt>
      <trkpt lat="47.88575" lon="6.82053">
        <ele>732</ele>
        <time>2022-09-12T10:06:11Z</time>
      </trkpt>
      <trkpt lat="47.88574" lon="6.82052">
        <ele>732</ele>
        <time>2022-09-12T10:06:12Z</time>
      </trkpt>
      <trkpt lat="47.88574" lon="6.82051">
        <ele>732</ele>
        <time>2022-09-12T10:06:13Z</time>
      </trkpt>
      <trkpt lat="47.88574" lon="6.82049">
        <ele>732</ele>
        <time>2022-09-12T10:06:14Z</time>
      </trkpt>
      <trkpt lat="47.88573" lon="6.82048">
        <ele>732</ele>
        <time>2022-09-12T10:06:15Z</time>
      </trkpt>
      <trkpt lat="47.88573" lon="6.82046">
        <ele>732</ele>
        <time>2022-09-12T10:06:16Z</time>
      </trkpt>
      <trkpt lat="47.88573" lon="6.82045">
        <ele>732</ele>
        <time>2022-09-12T10:06:17Z</time>
      </trkpt>
      <trkpt lat="47.88573" lon="6.82043">
        <ele>732</ele>
        <time>2022-09-12T10:06:18Z</time>
      </trkpt>
      <trkpt lat="47.88572" lon="6.82041">
        <ele>732</ele>
        <time>2022-09-12T10:06:19Z</time>
      </trkpt>
      <trkpt lat="47.88572" lon="6.8204">
        <ele>732</ele>
        <time>2022-09-12T10:06:20Z</time>
      </trkpt>
      <trkpt lat="47.88572" lon="6.82038">
        <ele>732</ele>
        <time>2022-09-12T10:06:21Z</time>
      </trkpt>
      <trkpt lat="47.88571" lon="6.82037">
        <ele>732</ele>
        <time>2022-09-12T10:06:22Z</time>
      </trkpt>
      <trkpt lat="47.88571" lon="6.82035">
        <ele>732</ele>
        <time>2022-09-12T10:06:23Z</time>
      </trkpt>
      <trkpt lat="47.88571" lon="6.82033">
        <ele>732</ele>
        <time>2022-09-12T10:06:24Z</time>
      </trkpt>
      <trkpt lat="47.8857" lon="6.82032">
        <ele>732</ele>
        <time>2022-09-12T10:06:25Z</time>
      </trkpt>
      <trkpt lat="47.8857" lon="6.82031">
        <ele>732</ele>
        <time>2022-09-12T10:06:26Z</time>
      </trkpt>
      <trkpt lat="47.8857" lon="6.82029">
        <ele>731</ele>
        <time>2022-09-12T10:06:27Z</time>
      </trkpt>
      <trkpt lat="47.8857" lon="6.82028">
        <ele>731</ele>
        <time>2022-09-12T10:06:28Z</time>
      </trkpt>
      <trkpt lat="47.8857" lon="6.82027">
        <ele>731</ele>
        <time>2022-09-12T10:06:29Z</time>
      </trkpt>
      <trkpt lat="47.8857" lon="6.82026">
        <ele>731</ele>
        <time>2022-09-12T10:06:30Z</time>
      </trkpt>
      <trkpt lat="47.8857" lon="6.82025">
        <ele>731</ele>
        <time>2022-09-12T10:06:31Z</time>
      </trkpt>
      <trkpt lat="47.88569" lon="6.82024">
        <ele>731</ele>
        <time>2022-09-12T10:06:32Z</time>
      </trkpt>
      <trkpt lat="47.88569" lon="6.82023">
        <ele>731</ele>
        <time>2022-09-12T10:06:33Z</time>
      </trkpt>
      <trkpt lat="47.88569" lon="6.82022">
        <ele>731</ele>
        <time>2022-09-12T10:06:34Z</time>
      </trkpt>
      <trkpt lat="47.88569" lon="6.82021">
        <ele>731</ele>
        <time>2022-09-12T10:06:35Z</time>
      </trkpt>
      <trkpt lat="47.88568" lon="6.8202">
        <ele>731</ele>
        <time>2022-09-12T10:06:36Z</time>
      </trkpt>
      <trkpt lat="47.88568" lon="6.82018">
        <ele>731</ele>
        <time>2022-09-12T10:06:37Z</time>
      </trkpt>
      <trkpt lat="47.88568" lon="6.82017">
        <ele>731</ele>
        <time>2022-09-12T10:06:38Z</time>
      </trkpt>
      <trkpt lat="47.88567" lon="6.82016">
        <ele>731</ele>
        <time>2022-09-12T10:06:39Z</time>
      </trkpt>
      <trkpt lat="47.88567" lon="6.82015">
        <ele>731</ele>
        <time>2022-09-12T10:06:40Z</time>
      </trkpt>
      <trkpt lat="47.88567" lon="6.82013">
        <ele>731</ele>
        <time>2022-09-12T10:06:41Z</time>
      </trkpt>
      <trkpt lat="47.88566" lon="6.82012">
        <ele>730</ele>
        <time>2022-09-12T10:06:42Z</time>
      </trkpt>
      <trkpt lat="47.88566" lon="6.8201">
        <ele>730</ele>
        <time>2022-09-12T10:06:43Z</time>
      </trkpt>
      <trkpt lat="47.88565" lon="6.82009">
        <ele>730</ele>
        <time>2022-09-12T10:06:44Z</time>
      </trkpt>
      <trkpt lat="47.88565" lon="6.82007">
        <ele>730</ele>
        <time>2022-09-12T10:06:45Z</time>
      </trkpt>
      <trkpt lat="47.88565" lon="6.82006">
        <ele>730</ele>
        <time>2022-09-12T10:06:46Z</time>
      </trkpt>
      <trkpt lat="47.88564" lon="6.82004">
        <ele>730</ele>
        <time>2022-09-12T10:06:47Z</time>
      </trkpt>
      <trkpt lat="47.88564" lon="6.82002">
        <ele>730</ele>
        <time>2022-09-12T10:06:48Z</time>
      </trkpt>
      <trkpt lat="47.88564" lon="6.82001">
        <ele>730</ele>
        <time>2022-09-12T10:06:49Z</time>
      </trkpt>
      <trkpt lat="47.88563" lon="6.82">
        <ele>730</ele>
        <time>2022-09-12T10:06:50Z</time>
      </trkpt>
      <trkpt lat="47.88563" lon="6.81998">
        <ele>730</ele>
        <time>2022-09-12T10:06:51Z</time>
      </trkpt>
      <trkpt lat="47.88563" lon="6.81997">
        <ele>730</ele>
        <time>2022-09-12T10:06:52Z</time>
      </trkpt>
      <trkpt lat="47.88562" lon="6.81995">
        <ele>730</ele>
        <time>2022-09-12T10:06:53Z</time>
      </trkpt>
      <trkpt lat="47.88562" lon="6.81994">
        <ele>730</ele>
        <time>2022-09-12T10:06:54Z</time>
      </trkpt>
      <trkpt lat="47.88562" lon="6.81993">
        <ele>730</ele>
        <time>2022-09-12T10:06:55Z</time>
      </trkpt>
      <trkpt lat="47.88561" lon="6.81991">
        <ele>730</ele>
        <time>2022-09-12T10:06:56Z</time>
      </trkpt>
      <trkpt lat="47.88561" lon="6.8199">
        <ele>729</ele>
        <time>2022-09-12T10:06:57Z</time>
      </trkpt>
      <trkpt lat="47.8856" lon="6.81988">
        <ele>729</ele>
        <time>2022-09-12T10:06:58Z</time>
      </trkpt>
      <trkpt lat="47.8856" lon="6.81987">
        <ele>729</ele>
        <time>2022-09-12T10:06:59Z</time>
      </trkpt>
      <trkpt lat="47.8856" lon="6.81986">
        <ele>729</ele>
        <time>2022-09-12T10:07:00Z</time>
      </trkpt>
      <trkpt lat="47.88559" lon="6.81985">
        <ele>729</ele>
        <time>2022-09-12T10:07:01Z</time>
      </trkpt>
      <trkpt lat="47.88559" lon="6.81983">
        <ele>729</ele>
        <time>2022-09-12T10:07:02Z</time>
      </trkpt>
      <trkpt lat="47.88559" lon="6.81982">
        <ele>729</ele>
        <time>2022-09-12T10:07:03Z</time>
      </trkpt>
      <trkpt lat="47.88559" lon="6.81981">
        <ele>729</ele>
        <time>2022-09-12T10:07:04Z</time>
      </trkpt>
      <trkpt lat="47.88559" lon="6.81979">
        <ele>729</ele>
        <time>2022-09-12T10:07:05Z</time>
      </trkpt>
      <trkpt lat="47.88558" lon="6.81978">
        <ele>729</ele>
        <time>2022-09-12T10:07:06Z</time>
      </trkpt>
      <trkpt lat="47.88558" lon="6.81977">
        <ele>728</ele>
        <time>2022-09-12T10:07:07Z</time>
      </trkpt>
      <trkpt lat="47.88558" lon="6.81975">
        <ele>728</ele>
        <time>2022-09-12T10:07:08Z</time>
      </trkpt>
      <trkpt lat="47.88558" lon="6.81974">
        <ele>728</ele>
        <time>2022-09-12T10:07:09Z</time>
      </trkpt>
      <trkpt lat="47.88558" lon="6.81973">
        <ele>728</ele>
        <time>2022-09-12T10:07:10Z</time>
      </trkpt>
      <trkpt lat="47.88557" lon="6.81971">
        <ele>728</ele>
        <time>2022-09-12T10:07:11Z</time>
      </trkpt>
      <trkpt lat="47.88557" lon="6.8197">
        <ele>728</ele>
        <time>2022-09-12T10:07:12Z</time>
      </trkpt>
      <trkpt lat="47.88557" lon="6.81969">
        <ele>728</ele>
        <time>2022-09-12T10:07:13Z</time>
      </trkpt>
      <trkpt lat="47.88556" lon="6.81967">
        <ele>728</ele>
        <time>2022-09-12T10:07:14Z</time>
      </trkpt>
      <trkpt lat="47.88556" lon="6.81966">
        <ele>728</ele>
        <time>2022-09-12T10:07:15Z</time>
      </trkpt>
      <trkpt lat="47.88555" lon="6.81964">
        <ele>728</ele>
        <time>2022-09-12T10:07:16Z</time>
      </trkpt>
      <trkpt lat="47.88555" lon="6.81963">
        <ele>727</ele>
        <time>2022-09-12T10:07:17Z</time>
      </trkpt>
      <trkpt lat="47.88555" lon="6.81961">
        <ele>727</ele>
        <time>2022-09-12T10:07:18Z</time>
      </trkpt>
      <trkpt lat="47.88554" lon="6.81959">
        <ele>727</ele>
        <time>2022-09-12T10:07:19Z</time>
      </trkpt>
      <trkpt lat="47.88554" lon="6.81958">
        <ele>727</ele>
        <time>2022-09-12T10:07:20Z</time>
      </trkpt>
      <trkpt lat="47.88554" lon="6.81956">
        <ele>727</ele>
        <time>2022-09-12T10:07:21Z</time>
      </trkpt>
      <trkpt lat="47.88554" lon="6.81955">
        <ele>727</ele>
        <time>2022-09-12T10:07:22Z</time>
      </trkpt>
      <trkpt lat="47.88554" lon="6.81953">
        <ele>727</ele>
        <time>2022-09-12T10:07:23Z</time>
      </trkpt>
      <trkpt lat="47.88553" lon="6.81952">
        <ele>727</ele>
        <time>2022-09-12T10:07:24Z</time>
      </trkpt>
      <trkpt lat="47.88553" lon="6.8195">
        <ele>727</ele>
        <time>2022-09-12T10:07:25Z</time>
      </trkpt>
      <trkpt lat="47.88553" lon="6.81948">
        <ele>727</ele>
        <time>2022-09-12T10:07:26Z</time>
      </trkpt>
      <trkpt lat="47.88553" lon="6.81947">
        <ele>727</ele>
        <time>2022-09-12T10:07:27Z</time>
      </trkpt>
      <trkpt lat="47.88552" lon="6.81945">
        <ele>727</ele>
        <time>2022-09-12T10:07:28Z</time>
      </trkpt>
      <trkpt lat="47.88552" lon="6.81943">
        <ele>727</ele>
        <time>2022-09-12T10:07:29Z</time>
      </trkpt>
      <trkpt lat="47.88551" lon="6.81942">
        <ele>727</ele>
        <time>2022-09-12T10:07:30Z</time>
      </trkpt>
      <trkpt lat="47.88551" lon="6.81941">
        <ele>727</ele>
        <time>2022-09-12T10:07:31Z</time>
      </trkpt>
      <trkpt lat="47.8855" lon="6.81939">
        <ele>726</ele>
        <time>2022-09-12T10:07:32Z</time>
      </trkpt>
      <trkpt lat="47.8855" lon="6.81937">
        <ele>726</ele>
        <time>2022-09-12T10:07:33Z</time>
      </trkpt>
      <trkpt lat="47.88549" lon="6.81936">
        <ele>726</ele>
        <time>2022-09-12T10:07:34Z</time>
      </trkpt>
      <trkpt lat="47.88549" lon="6.81934">
        <ele>726</ele>
        <time>2022-09-12T10:07:35Z</time>
      </trkpt>
      <trkpt lat="47.88548" lon="6.81933">
        <ele>726</ele>
        <time>2022-09-12T10:07:36Z</time>
      </trkpt>
      <trkpt lat="47.88548" lon="6.81931">
        <ele>726</ele>
        <time>2022-09-12T10:07:37Z</time>
      </trkpt>
      <trkpt lat="47.88548" lon="6.8193">
        <ele>726</ele>
        <time>2022-09-12T10:07:38Z</time>
      </trkpt>
      <trkpt lat="47.88547" lon="6.81929">
        <ele>726</ele>
        <time>2022-09-12T10:07:39Z</time>
      </trkpt>
      <trkpt lat="47.88547" lon="6.81927">
        <ele>726</ele>
        <time>2022-09-12T10:07:40Z</time>
      </trkpt>
      <trkpt lat="47.88546" lon="6.81926">
        <ele>726</ele>
        <time>2022-09-12T10:07:41Z</time>
      </trkpt>
      <trkpt lat="47.88546" lon="6.81924">
        <ele>725</ele>
        <time>2022-09-12T10:07:42Z</time>
      </trkpt>
      <trkpt lat="47.88545" lon="6.81923">
        <ele>725</ele>
        <time>2022-09-12T10:07:43Z</time>
      </trkpt>
      <trkpt lat="47.88545" lon="6.81921">
        <ele>725</ele>
        <time>2022-09-12T10:07:44Z</time>
      </trkpt>
      <trkpt lat="47.88545" lon="6.8192">
        <ele>725</ele>
        <time>2022-09-12T10:07:45Z</time>
      </trkpt>
      <trkpt lat="47.88544" lon="6.81919">
        <ele>725</ele>
        <time>2022-09-12T10:07:46Z</time>
      </trkpt>
      <trkpt lat="47.88544" lon="6.81917">
        <ele>725</ele>
        <time>2022-09-12T10:07:47Z</time>
      </trkpt>
      <trkpt lat="47.88543" lon="6.81916">
        <ele>725</ele>
        <time>2022-09-12T10:07:48Z</time>
      </trkpt>
      <trkpt lat="47.88543" lon="6.81915">
        <ele>725</ele>
        <time>2022-09-12T10:07:49Z</time>
      </trkpt>
      <trkpt lat="47.88543" lon="6.81913">
        <ele>725</ele>
        <time>2022-09-12T10:07:50Z</time>
      </trkpt>
      <trkpt lat="47.88542" lon="6.81912">
        <ele>725</ele>
        <time>2022-09-12T10:07:51Z</time>
      </trkpt>
      <trkpt lat="47.88542" lon="6.81911">
        <ele>725</ele>
        <time>2022-09-12T10:07:52Z</time>
      </trkpt>
      <trkpt lat="47.88542" lon="6.8191">
        <ele>725</ele>
        <time>2022-09-12T10:07:53Z</time>
      </trkpt>
      <trkpt lat="47.88541" lon="6.81908">
        <ele>725</ele>
        <time>2022-09-12T10:07:54Z</time>
      </trkpt>
      <trkpt lat="47.88541" lon="6.81907">
        <ele>725</ele>
        <time>2022-09-12T10:07:55Z</time>
      </trkpt>
      <trkpt lat="47.8854" lon="6.81906">
        <ele>725</ele>
        <time>2022-09-12T10:07:56Z</time>
      </trkpt>
      <trkpt lat="47.8854" lon="6.81904">
        <ele>724</ele>
        <time>2022-09-12T10:07:57Z</time>
      </trkpt>
      <trkpt lat="47.88539" lon="6.81903">
        <ele>724</ele>
        <time>2022-09-12T10:07:58Z</time>
      </trkpt>
      <trkpt lat="47.88539" lon="6.81901">
        <ele>724</ele>
        <time>2022-09-12T10:07:59Z</time>
      </trkpt>
      <trkpt lat="47.88538" lon="6.819">
        <ele>724</ele>
        <time>2022-09-12T10:08:00Z</time>
      </trkpt>
      <trkpt lat="47.88538" lon="6.81898">
        <ele>724</ele>
        <time>2022-09-12T10:08:01Z</time>
      </trkpt>
      <trkpt lat="47.88538" lon="6.81897">
        <ele>724</ele>
        <time>2022-09-12T10:08:02Z</time>
      </trkpt>
      <trkpt lat="47.88537" lon="6.81895">
        <ele>724</ele>
        <time>2022-09-12T10:08:03Z</time>
      </trkpt>
      <trkpt lat="47.88537" lon="6.81894">
        <ele>724</ele>
        <time>2022-09-12T10:08:04Z</time>
      </trkpt>
      <trkpt lat="47.88536" lon="6.81892">
        <ele>724</ele>
        <time>2022-09-12T10:08:05Z</time>
      </trkpt>
      <trkpt lat="47.88536" lon="6.81891">
        <ele>724</ele>
        <time>2022-09-12T10:08:06Z</time>
      </trkpt>
      <trkpt lat="47.88536" lon="6.81889">
        <ele>723</ele>
        <time>2022-09-12T10:08:07Z</time>
      </trkpt>
      <trkpt lat="47.88535" lon="6.81888">
        <ele>723</ele>
        <time>2022-09-12T10:08:08Z</time>
      </trkpt>
      <trkpt lat="47.88535" lon="6.81886">
        <ele>722</ele>
        <time>2022-09-12T10:08:09Z</time>
      </trkpt>
      <trkpt lat="47.88534" lon="6.81885">
        <ele>722</ele>
        <time>2022-09-12T10:08:10Z</time>
      </trkpt>
      <trkpt lat="47.88534" lon="6.81884">
        <ele>722</ele>
        <time>2022-09-12T10:08:11Z</time>
      </trkpt>
      <trkpt lat="47.88533" lon="6.81882">
        <ele>722</ele>
        <time>2022-09-12T10:08:12Z</time>
      </trkpt>
      <trkpt lat="47.88533" lon="6.81881">
        <ele>722</ele>
        <time>2022-09-12T10:08:13Z</time>
      </trkpt>
      <trkpt lat="47.88532" lon="6.8188">
        <ele>723</ele>
        <time>2022-09-12T10:08:14Z</time>
      </trkpt>
      <trkpt lat="47.88532" lon="6.81878">
        <ele>723</ele>
        <time>2022-09-12T10:08:15Z</time>
      </trkpt>
      <trkpt lat="47.88532" lon="6.81877">
        <ele>724</ele>
        <time>2022-09-12T10:08:16Z</time>
      </trkpt>
      <trkpt lat="47.88531" lon="6.81876">
        <ele>723</ele>
        <time>2022-09-12T10:08:17Z</time>
      </trkpt>
      <trkpt lat="47.88531" lon="6.81875">
        <ele>723</ele>
        <time>2022-09-12T10:08:18Z</time>
      </trkpt>
      <trkpt lat="47.8853" lon="6.81873">
        <ele>722</ele>
        <time>2022-09-12T10:08:19Z</time>
      </trkpt>
      <trkpt lat="47.8853" lon="6.81872">
        <ele>722</ele>
        <time>2022-09-12T10:08:20Z</time>
      </trkpt>
      <trkpt lat="47.88529" lon="6.81871">
        <ele>722</ele>
        <time>2022-09-12T10:08:21Z</time>
      </trkpt>
      <trkpt lat="47.88529" lon="6.81869">
        <ele>722</ele>
        <time>2022-09-12T10:08:22Z</time>
      </trkpt>
      <trkpt lat="47.88528" lon="6.81868">
        <ele>722</ele>
        <time>2022-09-12T10:08:23Z</time>
      </trkpt>
      <trkpt lat="47.88528" lon="6.81866">
        <ele>722</ele>
        <time>2022-09-12T10:08:24Z</time>
      </trkpt>
      <trkpt lat="47.88527" lon="6.81865">
        <ele>722</ele>
        <time>2022-09-12T10:08:25Z</time>
      </trkpt>
      <trkpt lat="47.88526" lon="6.81863">
        <ele>722</ele>
        <time>2022-09-12T10:08:26Z</time>
      </trkpt>
      <trkpt lat="47.88526" lon="6.81862">
        <ele>721</ele>
        <time>2022-09-12T10:08:27Z</time>
      </trkpt>
      <trkpt lat="47.88525" lon="6.8186">
        <ele>721</ele>
        <time>2022-09-12T10:08:28Z</time>
      </trkpt>
      <trkpt lat="47.88525" lon="6.81859">
        <ele>721</ele>
        <time>2022-09-12T10:08:29Z</time>
      </trkpt>
      <trkpt lat="47.88524" lon="6.81858">
        <ele>721</ele>
        <time>2022-09-12T10:08:30Z</time>
      </trkpt>
      <trkpt lat="47.88524" lon="6.81856">
        <ele>721</ele>
        <time>2022-09-12T10:08:31Z</time>
      </trkpt>
      <trkpt lat="47.88524" lon="6.81855">
        <ele>721</ele>
        <time>2022-09-12T10:08:32Z</time>
      </trkpt>
      <trkpt lat="47.88523" lon="6.81853">
        <ele>721</ele>
        <time>2022-09-12T10:08:33Z</time>
      </trkpt>
      <trkpt lat="47.88523" lon="6.81852">
        <ele>721</ele>
        <time>2022-09-12T10:08:34Z</time>
      </trkpt>
      <trkpt lat="47.88522" lon="6.81851">
        <ele>721</ele>
        <time>2022-09-12T10:08:35Z</time>
      </trkpt>
      <trkpt lat="47.88522" lon="6.81849">
        <ele>721</ele>
        <time>2022-09-12T10:08:36Z</time>
      </trkpt>
      <trkpt lat="47.88521" lon="6.81848">
        <ele>720</ele>
        <time>2022-09-12T10:08:37Z</time>
      </trkpt>
      <trkpt lat="47.8852" lon="6.81847">
        <ele>720</ele>
        <time>2022-09-12T10:08:38Z</time>
      </trkpt>
      <trkpt lat="47.8852" lon="6.81845">
        <ele>720</ele>
        <time>2022-09-12T10:08:39Z</time>
      </trkpt>
      <trkpt lat="47.88519" lon="6.81844">
        <ele>720</ele>
        <time>2022-09-12T10:08:40Z</time>
      </trkpt>
      <trkpt lat="47.88518" lon="6.81843">
        <ele>720</ele>
        <time>2022-09-12T10:08:41Z</time>
      </trkpt>
      <trkpt lat="47.88518" lon="6.81842">
        <ele>720</ele>
        <time>2022-09-12T10:08:42Z</time>
      </trkpt>
      <trkpt lat="47.88517" lon="6.81841">
        <ele>720</ele>
        <time>2022-09-12T10:08:43Z</time>
      </trkpt>
      <trkpt lat="47.88517" lon="6.8184">
        <ele>720</ele>
        <time>2022-09-12T10:08:44Z</time>
      </trkpt>
      <trkpt lat="47.88516" lon="6.81839">
        <ele>720</ele>
        <time>2022-09-12T10:08:45Z</time>
      </trkpt>
      <trkpt lat="47.88516" lon="6.81837">
        <ele>720</ele>
        <time>2022-09-12T10:08:46Z</time>
      </trkpt>
      <trkpt lat="47.88515" lon="6.81836">
        <ele>719</ele>
        <time>2022-09-12T10:08:47Z</time>
      </trkpt>
      <trkpt lat="47.88515" lon="6.81835">
        <ele>719</ele>
        <time>2022-09-12T10:08:48Z</time>
      </trkpt>
      <trkpt lat="47.88515" lon="6.81834">
        <ele>719</ele>
        <time>2022-09-12T10:08:49Z</time>
      </trkpt>
      <trkpt lat="47.88514" lon="6.81832">
        <ele>719</ele>
        <time>2022-09-12T10:08:50Z</time>
      </trkpt>
      <trkpt lat="47.88514" lon="6.81831">
        <ele>719</ele>
        <time>2022-09-12T10:08:51Z</time>
      </trkpt>
      <trkpt lat="47.88514" lon="6.8183">
        <ele>719</ele>
        <time>2022-09-12T10:08:52Z</time>
      </trkpt>
      <trkpt lat="47.88513" lon="6.81828">
        <ele>719</ele>
        <time>2022-09-12T10:08:53Z</time>
      </trkpt>
      <trkpt lat="47.88513" lon="6.81827">
        <ele>719</ele>
        <time>2022-09-12T10:08:54Z</time>
      </trkpt>
      <trkpt lat="47.88513" lon="6.81826">
        <ele>719</ele>
        <time>2022-09-12T10:08:55Z</time>
      </trkpt>
      <trkpt lat="47.88512" lon="6.81825">
        <ele>719</ele>
        <time>2022-09-12T10:08:56Z</time>
      </trkpt>
      <trkpt lat="47.88512" lon="6.81823">
        <ele>718</ele>
        <time>2022-09-12T10:08:57Z</time>
      </trkpt>
      <trkpt lat="47.88511" lon="6.81822">
        <ele>718</ele>
        <time>2022-09-12T10:08:58Z</time>
      </trkpt>
      <trkpt lat="47.88511" lon="6.81821">
        <ele>718</ele>
        <time>2022-09-12T10:08:59Z</time>
      </trkpt>
      <trkpt lat="47.8851" lon="6.8182">
        <ele>718</ele>
        <time>2022-09-12T10:09:00Z</time>
      </trkpt>
      <trkpt lat="47.8851" lon="6.81819">
        <ele>718</ele>
        <time>2022-09-12T10:09:01Z</time>
      </trkpt>
      <trkpt lat="47.88509" lon="6.81818">
        <ele>718</ele>
        <time>2022-09-12T10:09:02Z</time>
      </trkpt>
      <trkpt lat="47.88508" lon="6.81817">
        <ele>718</ele>
        <time>2022-09-12T10:09:03Z</time>
      </trkpt>
      <trkpt lat="47.88508" lon="6.81816">
        <ele>718</ele>
        <time>2022-09-12T10:09:04Z</time>
      </trkpt>
      <trkpt lat="47.88507" lon="6.81815">
        <ele>718</ele>
        <time>2022-09-12T10:09:05Z</time>
      </trkpt>
      <trkpt lat="47.88506" lon="6.81814">
        <ele>718</ele>
        <time>2022-09-12T10:09:06Z</time>
      </trkpt>
      <trkpt lat="47.88506" lon="6.81813">
        <ele>717</ele>
        <time>2022-09-12T10:09:07Z</time>
      </trkpt>
      <trkpt lat="47.88505" lon="6.81812">
        <ele>717</ele>
        <time>2022-09-12T10:09:08Z</time>
      </trkpt>
      <trkpt lat="47.88504" lon="6.8181">
        <ele>717</ele>
        <time>2022-09-12T10:09:09Z</time>
      </trkpt>
      <trkpt lat="47.88504" lon="6.81809">
        <ele>717</ele>
        <time>2022-09-12T10:09:10Z</time>
      </trkpt>
      <trkpt lat="47.88503" lon="6.81808">
        <ele>717</ele>
        <time>2022-09-12T10:09:11Z</time>
      </trkpt>
      <trkpt lat="47.88502" lon="6.81807">
        <ele>716</ele>
        <time>2022-09-12T10:09:12Z</time>
      </trkpt>
      <trkpt lat="47.88502" lon="6.81807">
        <ele>716</ele>
        <time>2022-09-12T10:09:13Z</time>
      </trkpt>
      <trkpt lat="47.88501" lon="6.81806">
        <ele>716</ele>
        <time>2022-09-12T10:09:14Z</time>
      </trkpt>
      <trkpt lat="47.885" lon="6.81804">
        <ele>716</ele>
        <time>2022-09-12T10:09:15Z</time>
      </trkpt>
      <trkpt lat="47.885" lon="6.81803">
        <ele>716</ele>
        <time>2022-09-12T10:09:16Z</time>
      </trkpt>
      <trkpt lat="47.88499" lon="6.81802">
        <ele>716</ele>
        <time>2022-09-12T10:09:17Z</time>
      </trkpt>
      <trkpt lat="47.88498" lon="6.81801">
        <ele>716</ele>
        <time>2022-09-12T10:09:18Z</time>
      </trkpt>
      <trkpt lat="47.88498" lon="6.818">
        <ele>716</ele>
        <time>2022-09-12T10:09:19Z</time>
      </trkpt>
      <trkpt lat="47.88497" lon="6.81799">
        <ele>716</ele>
        <time>2022-09-12T10:09:20Z</time>
      </trkpt>
      <trkpt lat="47.88497" lon="6.81798">
        <ele>716</ele>
        <time>2022-09-12T10:09:21Z</time>
      </trkpt>
      <trkpt lat="47.88496" lon="6.81796">
        <ele>715</ele>
        <time>2022-09-12T10:09:22Z</time>
      </trkpt>
      <trkpt lat="47.88496" lon="6.81795">
        <ele>715</ele>
        <time>2022-09-12T10:09:23Z</time>
      </trkpt>
      <trkpt lat="47.88495" lon="6.81793">
        <ele>715</ele>
        <time>2022-09-12T10:09:24Z</time>
      </trkpt>
      <trkpt lat="47.88494" lon="6.81792">
        <ele>715</ele>
        <time>2022-09-12T10:09:25Z</time>
      </trkpt>
      <trkpt lat="47.88494" lon="6.81791">
        <ele>715</ele>
        <time>2022-09-12T10:09:26Z</time>
      </trkpt>
      <trkpt lat="47.88493" lon="6.81789">
        <ele>715</ele>
        <time>2022-09-12T10:09:27Z</time>
      </trkpt>
      <trkpt lat="47.88493" lon="6.81788">
        <ele>715</ele>
        <time>2022-09-12T10:09:28Z</time>
      </trkpt>
      <trkpt lat="47.88492" lon="6.81786">
        <ele>715</ele>
        <time>2022-09-12T10:09:29Z</time>
      </trkpt>
      <trkpt lat="47.88492" lon="6.81785">
        <ele>715</ele>
        <time>2022-09-12T10:09:30Z</time>
      </trkpt>
      <trkpt lat="47.88492" lon="6.81784">
        <ele>715</ele>
        <time>2022-09-12T10:09:31Z</time>
      </trkpt>
      <trkpt lat="47.88491" lon="6.81782">
        <ele>714</ele>
        <time>2022-09-12T10:09:32Z</time>
      </trkpt>
      <trkpt lat="47.88491" lon="6.81781">
        <ele>714</ele>
        <time>2022-09-12T10:09:33Z</time>
      </trkpt>
      <trkpt lat="47.88491" lon="6.8178">
        <ele>714</ele>
        <time>2022-09-12T10:09:34Z</time>
      </trkpt>
      <trkpt lat="47.8849" lon="6.81778">
        <ele>714</ele>
        <time>2022-09-12T10:09:35Z</time>
      </trkpt>
      <trkpt lat="47.8849" lon="6.81777">
        <ele>714</ele>
        <time>2022-09-12T10:09:36Z</time>
      </trkpt>
      <trkpt lat="47.88489" lon="6.81776">
        <ele>713</ele>
        <time>2022-09-12T10:09:37Z</time>
      </trkpt>
      <trkpt lat="47.88489" lon="6.81775">
        <ele>713</ele>
        <time>2022-09-12T10:09:38Z</time>
      </trkpt>
      <trkpt lat="47.88488" lon="6.81774">
        <ele>713</ele>
        <time>2022-09-12T10:09:39Z</time>
      </trkpt>
      <trkpt lat="47.88488" lon="6.81773">
        <ele>713</ele>
        <time>2022-09-12T10:09:40Z</time>
      </trkpt>
      <trkpt lat="47.88487" lon="6.81772">
        <ele>713</ele>
        <time>2022-09-12T10:09:41Z</time>
      </trkpt>
      <trkpt lat="47.88486" lon="6.81771">
        <ele>713</ele>
        <time>2022-09-12T10:09:42Z</time>
      </trkpt>
      <trkpt lat="47.88486" lon="6.81769">
        <ele>713</ele>
        <time>2022-09-12T10:09:43Z</time>
      </trkpt>
      <trkpt lat="47.88485" lon="6.81768">
        <ele>713</ele>
        <time>2022-09-12T10:09:44Z</time>
      </trkpt>
      <trkpt lat="47.88484" lon="6.81767">
        <ele>713</ele>
        <time>2022-09-12T10:09:45Z</time>
      </trkpt>
      <trkpt lat="47.88484" lon="6.81766">
        <ele>713</ele>
        <time>2022-09-12T10:09:46Z</time>
      </trkpt>
      <trkpt lat="47.88483" lon="6.81765">
        <ele>712</ele>
        <time>2022-09-12T10:09:47Z</time>
      </trkpt>
      <trkpt lat="47.88482" lon="6.81764">
        <ele>712</ele>
        <time>2022-09-12T10:09:48Z</time>
      </trkpt>
      <trkpt lat="47.88481" lon="6.81764">
        <ele>712</ele>
        <time>2022-09-12T10:09:49Z</time>
      </trkpt>
      <trkpt lat="47.88481" lon="6.81763">
        <ele>712</ele>
        <time>2022-09-12T10:09:50Z</time>
      </trkpt>
      <trkpt lat="47.8848" lon="6.81763">
        <ele>712</ele>
        <time>2022-09-12T10:09:51Z</time>
      </trkpt>
      <trkpt lat="47.88479" lon="6.81762">
        <ele>712</ele>
        <time>2022-09-12T10:09:52Z</time>
      </trkpt>
      <trkpt lat="47.88478" lon="6.81762">
        <ele>712</ele>
        <time>2022-09-12T10:09:53Z</time>
      </trkpt>
      <trkpt lat="47.88477" lon="6.81761">
        <ele>712</ele>
        <time>2022-09-12T10:09:54Z</time>
      </trkpt>
      <trkpt lat="47.88476" lon="6.8176">
        <ele>712</ele>
        <time>2022-09-12T10:09:55Z</time>
      </trkpt>
      <trkpt lat="47.88475" lon="6.8176">
        <ele>712</ele>
        <time>2022-09-12T10:09:56Z</time>
      </trkpt>
      <trkpt lat="47.88475" lon="6.81759">
        <ele>711</ele>
        <time>2022-09-12T10:09:57Z</time>
      </trkpt>
      <trkpt lat="47.88474" lon="6.81758">
        <ele>711</ele>
        <time>2022-09-12T10:09:58Z</time>
      </trkpt>
      <trkpt lat="47.88473" lon="6.81757">
        <ele>711</ele>
        <time>2022-09-12T10:09:59Z</time>
      </trkpt>
      <trkpt lat="47.88472" lon="6.81757">
        <ele>711</ele>
        <time>2022-09-12T10:10:00Z</time>
      </trkpt>
      <trkpt lat="47.88471" lon="6.81756">
        <ele>711</ele>
        <time>2022-09-12T10:10:01Z</time>
      </trkpt>
      <trkpt lat="47.88471" lon="6.81755">
        <ele>710</ele>
        <time>2022-09-12T10:10:02Z</time>
      </trkpt>
      <trkpt lat="47.8847" lon="6.81755">
        <ele>710</ele>
        <time>2022-09-12T10:10:03Z</time>
      </trkpt>
      <trkpt lat="47.88469" lon="6.81754">
        <ele>710</ele>
        <time>2022-09-12T10:10:04Z</time>
      </trkpt>
      <trkpt lat="47.88468" lon="6.81753">
        <ele>710</ele>
        <time>2022-09-12T10:10:05Z</time>
      </trkpt>
      <trkpt lat="47.88467" lon="6.81752">
        <ele>710</ele>
        <time>2022-09-12T10:10:06Z</time>
      </trkpt>
      <trkpt lat="47.88467" lon="6.81751">
        <ele>710</ele>
        <time>2022-09-12T10:10:07Z</time>
      </trkpt>
      <trkpt lat="47.88466" lon="6.81751">
        <ele>710</ele>
        <time>2022-09-12T10:10:08Z</time>
      </trkpt>
      <trkpt lat="47.88465" lon="6.8175">
        <ele>710</ele>
        <time>2022-09-12T10:10:09Z</time>
      </trkpt>
      <trkpt lat="47.88464" lon="6.81749">
        <ele>710</ele>
        <time>2022-09-12T10:10:10Z</time>
      </trkpt>
      <trkpt lat="47.88464" lon="6.81748">
        <ele>710</ele>
        <time>2022-09-12T10:10:11Z</time>
      </trkpt>
      <trkpt lat="47.88463" lon="6.81747">
        <ele>709</ele>
        <time>2022-09-12T10:10:12Z</time>
      </trkpt>
      <trkpt lat="47.88462" lon="6.81747">
        <ele>709</ele>
        <time>2022-09-12T10:10:13Z</time>
      </trkpt>
      <trkpt lat="47.88462" lon="6.81746">
        <ele>709</ele>
        <time>2022-09-12T10:10:14Z</time>
      </trkpt>
      <trkpt lat="47.88461" lon="6.81745">
        <ele>709</ele>
        <time>2022-09-12T10:10:15Z</time>
      </trkpt>
      <trkpt lat="47.8846" lon="6.81744">
        <ele>709</ele>
        <time>2022-09-12T10:10:16Z</time>
      </trkpt>
      <trkpt lat="47.8846" lon="6.81743">
        <ele>709</ele>
        <time>2022-09-12T10:10:17Z</time>
      </trkpt>
      <trkpt lat="47.88459" lon="6.81742">
        <ele>709</ele>
        <time>2022-09-12T10:10:18Z</time>
      </trkpt>
      <trkpt lat="47.88459" lon="6.81741">
        <ele>709</ele>
        <time>2022-09-12T10:10:19Z</time>
      </trkpt>
      <trkpt lat="47.88458" lon="6.8174">
        <ele>709</ele>
        <time>2022-09-12T10:10:20Z</time>
      </trkpt>
      <trkpt lat="47.88458" lon="6.81739">
        <ele>709</ele>
        <time>2022-09-12T10:10:21Z</time>
      </trkpt>
      <trkpt lat="47.88457" lon="6.81736">
        <ele>708</ele>
        <time>2022-09-12T10:10:49Z</time>
      </trkpt>
      <trkpt lat="47.88457" lon="6.81736">
        <ele>708</ele>
        <time>2022-09-12T10:10:50Z</time>
      </trkpt>
      <trkpt lat="47.88457" lon="6.81735">
        <ele>708</ele>
        <time>2022-09-12T10:10:51Z</time>
      </trkpt>
      <trkpt lat="47.88456" lon="6.81735">
        <ele>707</ele>
        <time>2022-09-12T10:10:52Z</time>
      </trkpt>
      <trkpt lat="47.88456" lon="6.81735">
        <ele>707</ele>
        <time>2022-09-12T10:10:53Z</time>
      </trkpt>
      <trkpt lat="47.88455" lon="6.81735">
        <ele>707</ele>
        <time>2022-09-12T10:10:54Z</time>
      </trkpt>
      <trkpt lat="47.88454" lon="6.81735">
        <ele>707</ele>
        <time>2022-09-12T10:10:55Z</time>
      </trkpt>
      <trkpt lat="47.88453" lon="6.81735">
        <ele>707</ele>
        <time>2022-09-12T10:10:56Z</time>
      </trkpt>
      <trkpt lat="47.88452" lon="6.81735">
        <ele>707</ele>
        <time>2022-09-12T10:10:57Z</time>
      </trkpt>
      <trkpt lat="47.88452" lon="6.81735">
        <ele>707</ele>
        <time>2022-09-12T10:10:58Z</time>
      </trkpt>
      <trkpt lat="47.88451" lon="6.81735">
        <ele>707</ele>
        <time>2022-09-12T10:10:59Z</time>
      </trkpt>
      <trkpt lat="47.8845" lon="6.81735">
        <ele>707</ele>
        <time>2022-09-12T10:11:00Z</time>
      </trkpt>
      <trkpt lat="47.88449" lon="6.81735">
        <ele>707</ele>
        <time>2022-09-12T10:11:01Z</time>
      </trkpt>
      <trkpt lat="47.88448" lon="6.81735">
        <ele>707</ele>
        <time>2022-09-12T10:11:02Z</time>
      </trkpt>
      <trkpt lat="47.88447" lon="6.81735">
        <ele>707</ele>
        <time>2022-09-12T10:11:03Z</time>
      </trkpt>
      <trkpt lat="47.88447" lon="6.81734">
        <ele>707</ele>
        <time>2022-09-12T10:11:04Z</time>
      </trkpt>
      <trkpt lat="47.88446" lon="6.81734">
        <ele>707</ele>
        <time>2022-09-12T10:11:05Z</time>
      </trkpt>
      <trkpt lat="47.88445" lon="6.81734">
        <ele>707</ele>
        <time>2022-09-12T10:11:06Z</time>
      </trkpt>
      <trkpt lat="47.88444" lon="6.81734">
        <ele>706</ele>
        <time>2022-09-12T10:11:07Z</time>
      </trkpt>
      <trkpt lat="47.88444" lon="6.81734">
        <ele>706</ele>
        <time>2022-09-12T10:11:08Z</time>
      </trkpt>
      <trkpt lat="47.88443" lon="6.81734">
        <ele>706</ele>
        <time>2022-09-12T10:11:09Z</time>
      </trkpt>
      <trkpt lat="47.88442" lon="6.81734">
        <ele>706</ele>
        <time>2022-09-12T10:11:10Z</time>
      </trkpt>
      <trkpt lat="47.88441" lon="6.81734">
        <ele>706</ele>
        <time>2022-09-12T10:11:11Z</time>
      </trkpt>
      <trkpt lat="47.8844" lon="6.81734">
        <ele>705</ele>
        <time>2022-09-12T10:11:12Z</time>
      </trkpt>
      <trkpt lat="47.88439" lon="6.81734">
        <ele>705</ele>
        <time>2022-09-12T10:11:13Z</time>
      </trkpt>
      <trkpt lat="47.88438" lon="6.81735">
        <ele>705</ele>
        <time>2022-09-12T10:11:14Z</time>
      </trkpt>
      <trkpt lat="47.88438" lon="6.81735">
        <ele>705</ele>
        <time>2022-09-12T10:11:15Z</time>
      </trkpt>
      <trkpt lat="47.88437" lon="6.81735">
        <ele>705</ele>
        <time>2022-09-12T10:11:16Z</time>
      </trkpt>
      <trkpt lat="47.88436" lon="6.81736">
        <ele>705</ele>
        <time>2022-09-12T10:11:17Z</time>
      </trkpt>
      <trkpt lat="47.88435" lon="6.81737">
        <ele>705</ele>
        <time>2022-09-12T10:11:18Z</time>
      </trkpt>
      <trkpt lat="47.88434" lon="6.81737">
        <ele>705</ele>
        <time>2022-09-12T10:11:19Z</time>
      </trkpt>
      <trkpt lat="47.88433" lon="6.81738">
        <ele>705</ele>
        <time>2022-09-12T10:11:20Z</time>
      </trkpt>
      <trkpt lat="47.88432" lon="6.81738">
        <ele>705</ele>
        <time>2022-09-12T10:11:21Z</time>
      </trkpt>
      <trkpt lat="47.88431" lon="6.81739">
        <ele>704</ele>
        <time>2022-09-12T10:11:22Z</time>
      </trkpt>
      <trkpt lat="47.8843" lon="6.8174">
        <ele>704</ele>
        <time>2022-09-12T10:11:23Z</time>
      </trkpt>
      <trkpt lat="47.88429" lon="6.8174">
        <ele>704</ele>
        <time>2022-09-12T10:11:24Z</time>
      </trkpt>
      <trkpt lat="47.88429" lon="6.81741">
        <ele>704</ele>
        <time>2022-09-12T10:11:25Z</time>
      </trkpt>
      <trkpt lat="47.88428" lon="6.81741">
        <ele>704</ele>
        <time>2022-09-12T10:11:26Z</time>
      </trkpt>
      <trkpt lat="47.88427" lon="6.81742">
        <ele>703</ele>
        <time>2022-09-12T10:11:27Z</time>
      </trkpt>
      <trkpt lat="47.88426" lon="6.81742">
        <ele>703</ele>
        <time>2022-09-12T10:11:28Z</time>
      </trkpt>
      <trkpt lat="47.88425" lon="6.81742">
        <ele>703</ele>
        <time>2022-09-12T10:11:29Z</time>
      </trkpt>
      <trkpt lat="47.88424" lon="6.81743">
        <ele>703</ele>
        <time>2022-09-12T10:11:30Z</time>
      </trkpt>
      <trkpt lat="47.88424" lon="6.81744">
        <ele>703</ele>
        <time>2022-09-12T10:11:31Z</time>
      </trkpt>
      <trkpt lat="47.88423" lon="6.81744">
        <ele>702</ele>
        <time>2022-09-12T10:11:32Z</time>
      </trkpt>
      <trkpt lat="47.88422" lon="6.81745">
        <ele>702</ele>
        <time>2022-09-12T10:11:33Z</time>
      </trkpt>
      <trkpt lat="47.88421" lon="6.81745">
        <ele>702</ele>
        <time>2022-09-12T10:11:34Z</time>
      </trkpt>
      <trkpt lat="47.8842" lon="6.81746">
        <ele>702</ele>
        <time>2022-09-12T10:11:35Z</time>
      </trkpt>
      <trkpt lat="47.8842" lon="6.81747">
        <ele>702</ele>
        <time>2022-09-12T10:11:36Z</time>
      </trkpt>
      <trkpt lat="47.88419" lon="6.81747">
        <ele>701</ele>
        <time>2022-09-12T10:11:37Z</time>
      </trkpt>
      <trkpt lat="47.88418" lon="6.81748">
        <ele>701</ele>
        <time>2022-09-12T10:11:38Z</time>
      </trkpt>
      <trkpt lat="47.88417" lon="6.81749">
        <ele>701</ele>
        <time>2022-09-12T10:11:39Z</time>
      </trkpt>
      <trkpt lat="47.88416" lon="6.81749">
        <ele>701</ele>
        <time>2022-09-12T10:11:40Z</time>
      </trkpt>
      <trkpt lat="47.88415" lon="6.8175">
        <ele>701</ele>
        <time>2022-09-12T10:11:41Z</time>
      </trkpt>
      <trkpt lat="47.88414" lon="6.8175">
        <ele>701</ele>
        <time>2022-09-12T10:11:42Z</time>
      </trkpt>
      <trkpt lat="47.88413" lon="6.81751">
        <ele>701</ele>
        <time>2022-09-12T10:11:43Z</time>
      </trkpt>
      <trkpt lat="47.88413" lon="6.81752">
        <ele>701</ele>
        <time>2022-09-12T10:11:44Z</time>
      </trkpt>
      <trkpt lat="47.88412" lon="6.81752">
        <ele>701</ele>
        <time>2022-09-12T10:11:45Z</time>
      </trkpt>
      <trkpt lat="47.88411" lon="6.81753">
        <ele>701</ele>
        <time>2022-09-12T10:11:46Z</time>
      </trkpt>
      <trkpt lat="47.8841" lon="6.81753">
        <ele>700</ele>
        <time>2022-09-12T10:11:47Z</time>
      </trkpt>
      <trkpt lat="47.88409" lon="6.81754">
        <ele>700</ele>
        <time>2022-09-12T10:11:48Z</time>
      </trkpt>
      <trkpt lat="47.88408" lon="6.81755">
        <ele>700</ele>
        <time>2022-09-12T10:11:49Z</time>
      </trkpt>
      <trkpt lat="47.88408" lon="6.81755">
        <ele>700</ele>
        <time>2022-09-12T10:11:50Z</time>
      </trkpt>
      <trkpt lat="47.88407" lon="6.81756">
        <ele>700</ele>
        <time>2022-09-12T10:11:51Z</time>
      </trkpt>
      <trkpt lat="47.88406" lon="6.81757">
        <ele>699</ele>
        <time>2022-09-12T10:11:52Z</time>
      </trkpt>
      <trkpt lat="47.88405" lon="6.81757">
        <ele>699</ele>
        <time>2022-09-12T10:11:53Z</time>
      </trkpt>
      <trkpt lat="47.88404" lon="6.81758">
        <ele>699</ele>
        <time>2022-09-12T10:11:54Z</time>
      </trkpt>
      <trkpt lat="47.88404" lon="6.81758">
        <ele>699</ele>
        <time>2022-09-12T10:11:55Z</time>
      </trkpt>
      <trkpt lat="47.88403" lon="6.81759">
        <ele>699</ele>
        <time>2022-09-12T10:11:56Z</time>
      </trkpt>
      <trkpt lat="47.88402" lon="6.81759">
        <ele>699</ele>
        <time>2022-09-12T10:11:57Z</time>
      </trkpt>
      <trkpt lat="47.88401" lon="6.8176">
        <ele>699</ele>
        <time>2022-09-12T10:11:58Z</time>
      </trkpt>
      <trkpt lat="47.884" lon="6.8176">
        <ele>699</ele>
        <time>2022-09-12T10:11:59Z</time>
      </trkpt>
      <trkpt lat="47.88399" lon="6.81761">
        <ele>699</ele>
        <time>2022-09-12T10:12:00Z</time>
      </trkpt>
      <trkpt lat="47.88398" lon="6.81761">
        <ele>699</ele>
        <time>2022-09-12T10:12:01Z</time>
      </trkpt>
      <trkpt lat="47.88397" lon="6.81762">
        <ele>698</ele>
        <time>2022-09-12T10:12:02Z</time>
      </trkpt>
      <trkpt lat="47.88397" lon="6.81762">
        <ele>698</ele>
        <time>2022-09-12T10:12:03Z</time>
      </trkpt>
      <trkpt lat="47.88396" lon="6.81763">
        <ele>698</ele>
        <time>2022-09-12T10:12:04Z</time>
      </trkpt>
      <trkpt lat="47.88395" lon="6.81763">
        <ele>698</ele>
        <time>2022-09-12T10:12:05Z</time>
      </trkpt>
      <trkpt lat="47.88394" lon="6.81763">
        <ele>698</ele>
        <time>2022-09-12T10:12:06Z</time>
      </trkpt>
      <trkpt lat="47.88393" lon="6.81763">
        <ele>698</ele>
        <time>2022-09-12T10:12:07Z</time>
      </trkpt>
      <trkpt lat="47.88392" lon="6.81763">
        <ele>698</ele>
        <time>2022-09-12T10:12:08Z</time>
      </trkpt>
      <trkpt lat="47.88391" lon="6.81763">
        <ele>698</ele>
        <time>2022-09-12T10:12:09Z</time>
      </trkpt>
      <trkpt lat="47.8839" lon="6.81763">
        <ele>698</ele>
        <time>2022-09-12T10:12:10Z</time>
      </trkpt>
      <trkpt lat="47.88389" lon="6.81763">
        <ele>698</ele>
        <time>2022-09-12T10:12:11Z</time>
      </trkpt>
      <trkpt lat="47.88388" lon="6.81763">
        <ele>697</ele>
        <time>2022-09-12T10:12:12Z</time>
      </trkpt>
      <trkpt lat="47.88387" lon="6.81763">
        <ele>697</ele>
        <time>2022-09-12T10:12:13Z</time>
      </trkpt>
      <trkpt lat="47.88386" lon="6.81762">
        <ele>697</ele>
        <time>2022-09-12T10:12:14Z</time>
      </trkpt>
      <trkpt lat="47.88385" lon="6.81762">
        <ele>697</ele>
        <time>2022-09-12T10:12:15Z</time>
      </trkpt>
      <trkpt lat="47.88384" lon="6.81761">
        <ele>697</ele>
        <time>2022-09-12T10:12:16Z</time>
      </trkpt>
      <trkpt lat="47.88383" lon="6.8176">
        <ele>697</ele>
        <time>2022-09-12T10:12:17Z</time>
      </trkpt>
      <trkpt lat="47.88382" lon="6.81759">
        <ele>697</ele>
        <time>2022-09-12T10:12:18Z</time>
      </trkpt>
      <trkpt lat="47.88381" lon="6.81759">
        <ele>697</ele>
        <time>2022-09-12T10:12:19Z</time>
      </trkpt>
      <trkpt lat="47.88381" lon="6.81758">
        <ele>697</ele>
        <time>2022-09-12T10:12:20Z</time>
      </trkpt>
      <trkpt lat="47.8838" lon="6.81757">
        <ele>697</ele>
        <time>2022-09-12T10:12:21Z</time>
      </trkpt>
      <trkpt lat="47.88379" lon="6.81756">
        <ele>696</ele>
        <time>2022-09-12T10:12:22Z</time>
      </trkpt>
      <trkpt lat="47.88378" lon="6.81754">
        <ele>696</ele>
        <time>2022-09-12T10:12:23Z</time>
      </trkpt>
      <trkpt lat="47.88378" lon="6.81754">
        <ele>696</ele>
        <time>2022-09-12T10:12:24Z</time>
      </trkpt>
      <trkpt lat="47.88377" lon="6.81753">
        <ele>696</ele>
        <time>2022-09-12T10:12:25Z</time>
      </trkpt>
      <trkpt lat="47.88376" lon="6.81752">
        <ele>696</ele>
        <time>2022-09-12T10:12:26Z</time>
      </trkpt>
      <trkpt lat="47.88375" lon="6.81751">
        <ele>696</ele>
        <time>2022-09-12T10:12:27Z</time>
      </trkpt>
      <trkpt lat="47.88374" lon="6.8175">
        <ele>696</ele>
        <time>2022-09-12T10:12:28Z</time>
      </trkpt>
      <trkpt lat="47.88373" lon="6.8175">
        <ele>696</ele>
        <time>2022-09-12T10:12:29Z</time>
      </trkpt>
      <trkpt lat="47.88372" lon="6.81749">
        <ele>696</ele>
        <time>2022-09-12T10:12:30Z</time>
      </trkpt>
      <trkpt lat="47.88371" lon="6.81749">
        <ele>697</ele>
        <time>2022-09-12T10:12:31Z</time>
      </trkpt>
      <trkpt lat="47.88371" lon="6.81748">
        <ele>696</ele>
        <time>2022-09-12T10:12:32Z</time>
      </trkpt>
      <trkpt lat="47.8837" lon="6.81747">
        <ele>696</ele>
        <time>2022-09-12T10:12:33Z</time>
      </trkpt>
      <trkpt lat="47.88369" lon="6.81746">
        <ele>696</ele>
        <time>2022-09-12T10:12:34Z</time>
      </trkpt>
      <trkpt lat="47.88368" lon="6.81745">
        <ele>696</ele>
        <time>2022-09-12T10:12:35Z</time>
      </trkpt>
      <trkpt lat="47.88368" lon="6.81744">
        <ele>696</ele>
        <time>2022-09-12T10:12:36Z</time>
      </trkpt>
      <trkpt lat="47.88367" lon="6.81743">
        <ele>695</ele>
        <time>2022-09-12T10:12:37Z</time>
      </trkpt>
      <trkpt lat="47.88366" lon="6.81742">
        <ele>695</ele>
        <time>2022-09-12T10:12:38Z</time>
      </trkpt>
      <trkpt lat="47.88365" lon="6.8174">
        <ele>695</ele>
        <time>2022-09-12T10:12:39Z</time>
      </trkpt>
      <trkpt lat="47.88364" lon="6.81739">
        <ele>695</ele>
        <time>2022-09-12T10:12:40Z</time>
      </trkpt>
      <trkpt lat="47.88363" lon="6.81738">
        <ele>695</ele>
        <time>2022-09-12T10:12:41Z</time>
      </trkpt>
      <trkpt lat="47.88363" lon="6.81737">
        <ele>694</ele>
        <time>2022-09-12T10:12:42Z</time>
      </trkpt>
      <trkpt lat="47.88362" lon="6.81736">
        <ele>694</ele>
        <time>2022-09-12T10:12:43Z</time>
      </trkpt>
      <trkpt lat="47.88361" lon="6.81735">
        <ele>694</ele>
        <time>2022-09-12T10:12:44Z</time>
      </trkpt>
      <trkpt lat="47.8836" lon="6.81734">
        <ele>694</ele>
        <time>2022-09-12T10:12:45Z</time>
      </trkpt>
      <trkpt lat="47.8836" lon="6.81733">
        <ele>694</ele>
        <time>2022-09-12T10:12:46Z</time>
      </trkpt>
      <trkpt lat="47.88359" lon="6.81732">
        <ele>694</ele>
        <time>2022-09-12T10:12:47Z</time>
      </trkpt>
      <trkpt lat="47.88358" lon="6.81731">
        <ele>694</ele>
        <time>2022-09-12T10:12:48Z</time>
      </trkpt>
      <trkpt lat="47.88357" lon="6.8173">
        <ele>694</ele>
        <time>2022-09-12T10:12:49Z</time>
      </trkpt>
      <trkpt lat="47.88357" lon="6.81729">
        <ele>694</ele>
        <time>2022-09-12T10:12:50Z</time>
      </trkpt>
      <trkpt lat="47.88356" lon="6.81728">
        <ele>694</ele>
        <time>2022-09-12T10:12:51Z</time>
      </trkpt>
      <trkpt lat="47.88355" lon="6.81727">
        <ele>694</ele>
        <time>2022-09-12T10:12:52Z</time>
      </trkpt>
      <trkpt lat="47.88354" lon="6.81726">
        <ele>694</ele>
        <time>2022-09-12T10:12:53Z</time>
      </trkpt>
      <trkpt lat="47.88354" lon="6.81725">
        <ele>694</ele>
        <time>2022-09-12T10:12:54Z</time>
      </trkpt>
      <trkpt lat="47.88353" lon="6.81724">
        <ele>694</ele>
        <time>2022-09-12T10:12:55Z</time>
      </trkpt>
      <trkpt lat="47.88352" lon="6.81723">
        <ele>694</ele>
        <time>2022-09-12T10:12:56Z</time>
      </trkpt>
      <trkpt lat="47.88351" lon="6.81723">
        <ele>693</ele>
        <time>2022-09-12T10:12:57Z</time>
      </trkpt>
      <trkpt lat="47.8835" lon="6.81722">
        <ele>693</ele>
        <time>2022-09-12T10:12:58Z</time>
      </trkpt>
      <trkpt lat="47.8835" lon="6.81721">
        <ele>693</ele>
        <time>2022-09-12T10:12:59Z</time>
      </trkpt>
      <trkpt lat="47.88349" lon="6.8172">
        <ele>693</ele>
        <time>2022-09-12T10:13:00Z</time>
      </trkpt>
      <trkpt lat="47.88348" lon="6.81719">
        <ele>693</ele>
        <time>2022-09-12T10:13:01Z</time>
      </trkpt>
      <trkpt lat="47.88347" lon="6.81718">
        <ele>693</ele>
        <time>2022-09-12T10:13:02Z</time>
      </trkpt>
      <trkpt lat="47.88347" lon="6.81717">
        <ele>693</ele>
        <time>2022-09-12T10:13:03Z</time>
      </trkpt>
      <trkpt lat="47.88346" lon="6.81716">
        <ele>693</ele>
        <time>2022-09-12T10:13:04Z</time>
      </trkpt>
      <trkpt lat="47.88345" lon="6.81715">
        <ele>693</ele>
        <time>2022-09-12T10:13:05Z</time>
      </trkpt>
      <trkpt lat="47.88344" lon="6.81714">
        <ele>693</ele>
        <time>2022-09-12T10:13:06Z</time>
      </trkpt>
      <trkpt lat="47.88344" lon="6.81714">
        <ele>693</ele>
        <time>2022-09-12T10:13:07Z</time>
      </trkpt>
      <trkpt lat="47.88343" lon="6.81713">
        <ele>693</ele>
        <time>2022-09-12T10:13:08Z</time>
      </trkpt>
      <trkpt lat="47.88342" lon="6.81712">
        <ele>693</ele>
        <time>2022-09-12T10:13:09Z</time>
      </trkpt>
      <trkpt lat="47.88341" lon="6.81711">
        <ele>693</ele>
        <time>2022-09-12T10:13:10Z</time>
      </trkpt>
      <trkpt lat="47.8834" lon="6.81711">
        <ele>693</ele>
        <time>2022-09-12T10:13:11Z</time>
      </trkpt>
      <trkpt lat="47.88339" lon="6.8171">
        <ele>692</ele>
        <time>2022-09-12T10:13:12Z</time>
      </trkpt>
      <trkpt lat="47.88339" lon="6.81709">
        <ele>692</ele>
        <time>2022-09-12T10:13:13Z</time>
      </trkpt>
      <trkpt lat="47.88338" lon="6.81709">
        <ele>692</ele>
        <time>2022-09-12T10:13:14Z</time>
      </trkpt>
      <trkpt lat="47.88337" lon="6.81708">
        <ele>692</ele>
        <time>2022-09-12T10:13:15Z</time>
      </trkpt>
      <trkpt lat="47.88336" lon="6.81707">
        <ele>692</ele>
        <time>2022-09-12T10:13:16Z</time>
      </trkpt>
      <trkpt lat="47.88335" lon="6.81706">
        <ele>692</ele>
        <time>2022-09-12T10:13:17Z</time>
      </trkpt>
      <trkpt lat="47.88334" lon="6.81706">
        <ele>692</ele>
        <time>2022-09-12T10:13:18Z</time>
      </trkpt>
      <trkpt lat="47.88334" lon="6.81705">
        <ele>692</ele>
        <time>2022-09-12T10:13:19Z</time>
      </trkpt>
      <trkpt lat="47.88333" lon="6.81704">
        <ele>692</ele>
        <time>2022-09-12T10:13:20Z</time>
      </trkpt>
      <trkpt lat="47.88332" lon="6.81703">
        <ele>692</ele>
        <time>2022-09-12T10:13:21Z</time>
      </trkpt>
      <trkpt lat="47.88331" lon="6.81703">
        <ele>691</ele>
        <time>2022-09-12T10:13:22Z</time>
      </trkpt>
      <trkpt lat="47.8833" lon="6.81702">
        <ele>691</ele>
        <time>2022-09-12T10:13:23Z</time>
      </trkpt>
      <trkpt lat="47.88329" lon="6.81702">
        <ele>690</ele>
        <time>2022-09-12T10:13:24Z</time>
      </trkpt>
      <trkpt lat="47.88328" lon="6.81701">
        <ele>690</ele>
        <time>2022-09-12T10:13:25Z</time>
      </trkpt>
      <trkpt lat="47.88327" lon="6.81701">
        <ele>690</ele>
        <time>2022-09-12T10:13:26Z</time>
      </trkpt>
      <trkpt lat="47.88326" lon="6.81701">
        <ele>690</ele>
        <time>2022-09-12T10:13:27Z</time>
      </trkpt>
      <trkpt lat="47.88325" lon="6.817">
        <ele>690</ele>
        <time>2022-09-12T10:13:28Z</time>
      </trkpt>
      <trkpt lat="47.88324" lon="6.817">
        <ele>690</ele>
        <time>2022-09-12T10:13:29Z</time>
      </trkpt>
      <trkpt lat="47.88324" lon="6.817">
        <ele>690</ele>
        <time>2022-09-12T10:13:30Z</time>
      </trkpt>
      <trkpt lat="47.88323" lon="6.817">
        <ele>690</ele>
        <time>2022-09-12T10:13:31Z</time>
      </trkpt>
      <trkpt lat="47.88322" lon="6.81699">
        <ele>689</ele>
        <time>2022-09-12T10:13:32Z</time>
      </trkpt>
      <trkpt lat="47.88321" lon="6.81699">
        <ele>689</ele>
        <time>2022-09-12T10:13:33Z</time>
      </trkpt>
      <trkpt lat="47.8832" lon="6.81699">
        <ele>689</ele>
        <time>2022-09-12T10:13:34Z</time>
      </trkpt>
      <trkpt lat="47.88319" lon="6.81699">
        <ele>689</ele>
        <time>2022-09-12T10:13:35Z</time>
      </trkpt>
      <trkpt lat="47.88318" lon="6.81698">
        <ele>689</ele>
        <time>2022-09-12T10:13:36Z</time>
      </trkpt>
      <trkpt lat="47.88318" lon="6.81698">
        <ele>689</ele>
        <time>2022-09-12T10:13:37Z</time>
      </trkpt>
      <trkpt lat="47.88317" lon="6.81698">
        <ele>689</ele>
        <time>2022-09-12T10:13:38Z</time>
      </trkpt>
      <trkpt lat="47.88316" lon="6.81698">
        <ele>689</ele>
        <time>2022-09-12T10:13:39Z</time>
      </trkpt>
      <trkpt lat="47.88315" lon="6.81698">
        <ele>689</ele>
        <time>2022-09-12T10:13:40Z</time>
      </trkpt>
      <trkpt lat="47.88314" lon="6.81698">
        <ele>689</ele>
        <time>2022-09-12T10:13:41Z</time>
      </trkpt>
      <trkpt lat="47.88313" lon="6.81698">
        <ele>689</ele>
        <time>2022-09-12T10:13:42Z</time>
      </trkpt>
      <trkpt lat="47.88312" lon="6.81699">
        <ele>689</ele>
        <time>2022-09-12T10:13:43Z</time>
      </trkpt>
      <trkpt lat="47.88311" lon="6.81699">
        <ele>689</ele>
        <time>2022-09-12T10:13:44Z</time>
      </trkpt>
      <trkpt lat="47.8831" lon="6.81699">
        <ele>689</ele>
        <time>2022-09-12T10:13:45Z</time>
      </trkpt>
      <trkpt lat="47.88309" lon="6.81698">
        <ele>689</ele>
        <time>2022-09-12T10:13:46Z</time>
      </trkpt>
      <trkpt lat="47.88308" lon="6.81698">
        <ele>688</ele>
        <time>2022-09-12T10:13:47Z</time>
      </trkpt>
      <trkpt lat="47.88307" lon="6.81698">
        <ele>688</ele>
        <time>2022-09-12T10:13:48Z</time>
      </trkpt>
      <trkpt lat="47.88306" lon="6.81699">
        <ele>688</ele>
        <time>2022-09-12T10:13:49Z</time>
      </trkpt>
      <trkpt lat="47.88306" lon="6.81699">
        <ele>688</ele>
        <time>2022-09-12T10:13:50Z</time>
      </trkpt>
      <trkpt lat="47.88305" lon="6.81699">
        <ele>688</ele>
        <time>2022-09-12T10:13:51Z</time>
      </trkpt>
      <trkpt lat="47.88304" lon="6.81699">
        <ele>687</ele>
        <time>2022-09-12T10:13:52Z</time>
      </trkpt>
      <trkpt lat="47.88303" lon="6.81699">
        <ele>687</ele>
        <time>2022-09-12T10:13:53Z</time>
      </trkpt>
      <trkpt lat="47.88302" lon="6.81699">
        <ele>687</ele>
        <time>2022-09-12T10:13:54Z</time>
      </trkpt>
      <trkpt lat="47.88301" lon="6.81699">
        <ele>687</ele>
        <time>2022-09-12T10:13:55Z</time>
      </trkpt>
      <trkpt lat="47.88301" lon="6.81699">
        <ele>687</ele>
        <time>2022-09-12T10:13:56Z</time>
      </trkpt>
      <trkpt lat="47.883" lon="6.81699">
        <ele>687</ele>
        <time>2022-09-12T10:13:57Z</time>
      </trkpt>
      <trkpt lat="47.88299" lon="6.81699">
        <ele>687</ele>
        <time>2022-09-12T10:13:58Z</time>
      </trkpt>
      <trkpt lat="47.88298" lon="6.817">
        <ele>687</ele>
        <time>2022-09-12T10:13:59Z</time>
      </trkpt>
      <trkpt lat="47.88297" lon="6.817">
        <ele>687</ele>
        <time>2022-09-12T10:14:00Z</time>
      </trkpt>
      <trkpt lat="47.88296" lon="6.817">
        <ele>687</ele>
        <time>2022-09-12T10:14:01Z</time>
      </trkpt>
      <trkpt lat="47.88295" lon="6.817">
        <ele>687</ele>
        <time>2022-09-12T10:14:02Z</time>
      </trkpt>
      <trkpt lat="47.88295" lon="6.81701">
        <ele>687</ele>
        <time>2022-09-12T10:14:03Z</time>
      </trkpt>
      <trkpt lat="47.88294" lon="6.81701">
        <ele>687</ele>
        <time>2022-09-12T10:14:04Z</time>
      </trkpt>
      <trkpt lat="47.88293" lon="6.81701">
        <ele>687</ele>
        <time>2022-09-12T10:14:05Z</time>
      </trkpt>
      <trkpt lat="47.88291" lon="6.817">
        <ele>687</ele>
        <time>2022-09-12T10:14:30Z</time>
      </trkpt>
      <trkpt lat="47.8829" lon="6.817">
        <ele>687</ele>
        <time>2022-09-12T10:14:31Z</time>
      </trkpt>
      <trkpt lat="47.8829" lon="6.81699">
        <ele>686</ele>
        <time>2022-09-12T10:14:32Z</time>
      </trkpt>
      <trkpt lat="47.88289" lon="6.81698">
        <ele>686</ele>
        <time>2022-09-12T10:14:33Z</time>
      </trkpt>
      <trkpt lat="47.88289" lon="6.81698">
        <ele>686</ele>
        <time>2022-09-12T10:14:34Z</time>
      </trkpt>
      <trkpt lat="47.88288" lon="6.81697">
        <ele>686</ele>
        <time>2022-09-12T10:14:35Z</time>
      </trkpt>
      <trkpt lat="47.88288" lon="6.81696">
        <ele>686</ele>
        <time>2022-09-12T10:14:36Z</time>
      </trkpt>
      <trkpt lat="47.88287" lon="6.81695">
        <ele>686</ele>
        <time>2022-09-12T10:14:37Z</time>
      </trkpt>
      <trkpt lat="47.88287" lon="6.81694">
        <ele>686</ele>
        <time>2022-09-12T10:14:38Z</time>
      </trkpt>
      <trkpt lat="47.88286" lon="6.81694">
        <ele>686</ele>
        <time>2022-09-12T10:14:39Z</time>
      </trkpt>
      <trkpt lat="47.88285" lon="6.81693">
        <ele>686</ele>
        <time>2022-09-12T10:14:40Z</time>
      </trkpt>
      <trkpt lat="47.88285" lon="6.81693">
        <ele>686</ele>
        <time>2022-09-12T10:14:41Z</time>
      </trkpt>
      <trkpt lat="47.88284" lon="6.81692">
        <ele>686</ele>
        <time>2022-09-12T10:14:42Z</time>
      </trkpt>
      <trkpt lat="47.88283" lon="6.81692">
        <ele>686</ele>
        <time>2022-09-12T10:14:43Z</time>
      </trkpt>
      <trkpt lat="47.88282" lon="6.81692">
        <ele>686</ele>
        <time>2022-09-12T10:14:44Z</time>
      </trkpt>
      <trkpt lat="47.88282" lon="6.81692">
        <ele>686</ele>
        <time>2022-09-12T10:14:45Z</time>
      </trkpt>
      <trkpt lat="47.88281" lon="6.81691">
        <ele>686</ele>
        <time>2022-09-12T10:14:46Z</time>
      </trkpt>
      <trkpt lat="47.88281" lon="6.81691">
        <ele>686</ele>
        <time>2022-09-12T10:14:47Z</time>
      </trkpt>
      <trkpt lat="47.88281" lon="6.81691">
        <ele>686</ele>
        <time>2022-09-12T10:14:48Z</time>
      </trkpt>
      <trkpt lat="47.8828" lon="6.81691">
        <ele>686</ele>
        <time>2022-09-12T10:14:49Z</time>
      </trkpt>
      <trkpt lat="47.88279" lon="6.81691">
        <ele>686</ele>
        <time>2022-09-12T10:14:50Z</time>
      </trkpt>
      <trkpt lat="47.88279" lon="6.81691">
        <ele>686</ele>
        <time>2022-09-12T10:14:51Z</time>
      </trkpt>
      <trkpt lat="47.88278" lon="6.81691">
        <ele>686</ele>
        <time>2022-09-12T10:14:52Z</time>
      </trkpt>
      <trkpt lat="47.88277" lon="6.81691">
        <ele>686</ele>
        <time>2022-09-12T10:14:53Z</time>
      </trkpt>
      <trkpt lat="47.88276" lon="6.81691">
        <ele>686</ele>
        <time>2022-09-12T10:14:54Z</time>
      </trkpt>
      <trkpt lat="47.88275" lon="6.81691">
        <ele>686</ele>
        <time>2022-09-12T10:14:55Z</time>
      </trkpt>
      <trkpt lat="47.88274" lon="6.81691">
        <ele>686</ele>
        <time>2022-09-12T10:14:56Z</time>
      </trkpt>
      <trkpt lat="47.88273" lon="6.81691">
        <ele>685</ele>
        <time>2022-09-12T10:14:57Z</time>
      </trkpt>
      <trkpt lat="47.88272" lon="6.81691">
        <ele>685</ele>
        <time>2022-09-12T10:14:58Z</time>
      </trkpt>
      <trkpt lat="47.8827" lon="6.81691">
        <ele>685</ele>
        <time>2022-09-12T10:14:59Z</time>
      </trkpt>
      <trkpt lat="47.88269" lon="6.81691">
        <ele>685</ele>
        <time>2022-09-12T10:15:00Z</time>
      </trkpt>
      <trkpt lat="47.88268" lon="6.81692">
        <ele>685</ele>
        <time>2022-09-12T10:15:01Z</time>
      </trkpt>
      <trkpt lat="47.88267" lon="6.81692">
        <ele>685</ele>
        <time>2022-09-12T10:15:02Z</time>
      </trkpt>
      <trkpt lat="47.88266" lon="6.81692">
        <ele>685</ele>
        <time>2022-09-12T10:15:03Z</time>
      </trkpt>
      <trkpt lat="47.88265" lon="6.81692">
        <ele>685</ele>
        <time>2022-09-12T10:15:04Z</time>
      </trkpt>
      <trkpt lat="47.88264" lon="6.81693">
        <ele>685</ele>
        <time>2022-09-12T10:15:05Z</time>
      </trkpt>
      <trkpt lat="47.88263" lon="6.81693">
        <ele>685</ele>
        <time>2022-09-12T10:15:06Z</time>
      </trkpt>
      <trkpt lat="47.88262" lon="6.81693">
        <ele>685</ele>
        <time>2022-09-12T10:15:07Z</time>
      </trkpt>
      <trkpt lat="47.88261" lon="6.81693">
        <ele>685</ele>
        <time>2022-09-12T10:15:08Z</time>
      </trkpt>
      <trkpt lat="47.8826" lon="6.81693">
        <ele>685</ele>
        <time>2022-09-12T10:15:09Z</time>
      </trkpt>
      <trkpt lat="47.88259" lon="6.81693">
        <ele>685</ele>
        <time>2022-09-12T10:15:10Z</time>
      </trkpt>
      <trkpt lat="47.88258" lon="6.81693">
        <ele>685</ele>
        <time>2022-09-12T10:15:11Z</time>
      </trkpt>
      <trkpt lat="47.88256" lon="6.81693">
        <ele>685</ele>
        <time>2022-09-12T10:15:12Z</time>
      </trkpt>
      <trkpt lat="47.88255" lon="6.81693">
        <ele>685</ele>
        <time>2022-09-12T10:15:13Z</time>
      </trkpt>
      <trkpt lat="47.88254" lon="6.81692">
        <ele>685</ele>
        <time>2022-09-12T10:15:14Z</time>
      </trkpt>
      <trkpt lat="47.88253" lon="6.81692">
        <ele>685</ele>
        <time>2022-09-12T10:15:15Z</time>
      </trkpt>
      <trkpt lat="47.88252" lon="6.81692">
        <ele>685</ele>
        <time>2022-09-12T10:15:16Z</time>
      </trkpt>
      <trkpt lat="47.88251" lon="6.81691">
        <ele>685</ele>
        <time>2022-09-12T10:15:17Z</time>
      </trkpt>
      <trkpt lat="47.8825" lon="6.81691">
        <ele>685</ele>
        <time>2022-09-12T10:15:18Z</time>
      </trkpt>
      <trkpt lat="47.88248" lon="6.8169">
        <ele>685</ele>
        <time>2022-09-12T10:15:19Z</time>
      </trkpt>
      <trkpt lat="47.88247" lon="6.8169">
        <ele>685</ele>
        <time>2022-09-12T10:15:20Z</time>
      </trkpt>
      <trkpt lat="47.88246" lon="6.81689">
        <ele>686</ele>
        <time>2022-09-12T10:15:21Z</time>
      </trkpt>
      <trkpt lat="47.88245" lon="6.81689">
        <ele>685</ele>
        <time>2022-09-12T10:15:22Z</time>
      </trkpt>
      <trkpt lat="47.88244" lon="6.81688">
        <ele>685</ele>
        <time>2022-09-12T10:15:23Z</time>
      </trkpt>
      <trkpt lat="47.88243" lon="6.81688">
        <ele>685</ele>
        <time>2022-09-12T10:15:24Z</time>
      </trkpt>
      <trkpt lat="47.88243" lon="6.81687">
        <ele>685</ele>
        <time>2022-09-12T10:15:25Z</time>
      </trkpt>
      <trkpt lat="47.88242" lon="6.81686">
        <ele>685</ele>
        <time>2022-09-12T10:15:26Z</time>
      </trkpt>
      <trkpt lat="47.88241" lon="6.81686">
        <ele>685</ele>
        <time>2022-09-12T10:15:27Z</time>
      </trkpt>
      <trkpt lat="47.8824" lon="6.81685">
        <ele>685</ele>
        <time>2022-09-12T10:15:28Z</time>
      </trkpt>
      <trkpt lat="47.88239" lon="6.81684">
        <ele>685</ele>
        <time>2022-09-12T10:15:29Z</time>
      </trkpt>
      <trkpt lat="47.88238" lon="6.81683">
        <ele>685</ele>
        <time>2022-09-12T10:15:30Z</time>
      </trkpt>
      <trkpt lat="47.88237" lon="6.81682">
        <ele>685</ele>
        <time>2022-09-12T10:15:31Z</time>
      </trkpt>
      <trkpt lat="47.88236" lon="6.81681">
        <ele>685</ele>
        <time>2022-09-12T10:15:32Z</time>
      </trkpt>
      <trkpt lat="47.88235" lon="6.81681">
        <ele>685</ele>
        <time>2022-09-12T10:15:33Z</time>
      </trkpt>
      <trkpt lat="47.88234" lon="6.8168">
        <ele>685</ele>
        <time>2022-09-12T10:15:34Z</time>
      </trkpt>
      <trkpt lat="47.88234" lon="6.81679">
        <ele>685</ele>
        <time>2022-09-12T10:15:35Z</time>
      </trkpt>
      <trkpt lat="47.88233" lon="6.81678">
        <ele>685</ele>
        <time>2022-09-12T10:15:36Z</time>
      </trkpt>
      <trkpt lat="47.88232" lon="6.81677">
        <ele>684</ele>
        <time>2022-09-12T10:15:37Z</time>
      </trkpt>
      <trkpt lat="47.88231" lon="6.81676">
        <ele>684</ele>
        <time>2022-09-12T10:15:38Z</time>
      </trkpt>
      <trkpt lat="47.88231" lon="6.81675">
        <ele>684</ele>
        <time>2022-09-12T10:15:39Z</time>
      </trkpt>
      <trkpt lat="47.8823" lon="6.81673">
        <ele>684</ele>
        <time>2022-09-12T10:15:40Z</time>
      </trkpt>
      <trkpt lat="47.88229" lon="6.81672">
        <ele>684</ele>
        <time>2022-09-12T10:15:41Z</time>
      </trkpt>
      <trkpt lat="47.88229" lon="6.81671">
        <ele>684</ele>
        <time>2022-09-12T10:15:42Z</time>
      </trkpt>
      <trkpt lat="47.88228" lon="6.8167">
        <ele>684</ele>
        <time>2022-09-12T10:15:43Z</time>
      </trkpt>
      <trkpt lat="47.88228" lon="6.81669">
        <ele>684</ele>
        <time>2022-09-12T10:15:44Z</time>
      </trkpt>
      <trkpt lat="47.88228" lon="6.81668">
        <ele>684</ele>
        <time>2022-09-12T10:15:45Z</time>
      </trkpt>
      <trkpt lat="47.88228" lon="6.81666">
        <ele>684</ele>
        <time>2022-09-12T10:15:46Z</time>
      </trkpt>
      <trkpt lat="47.88227" lon="6.81665">
        <ele>684</ele>
        <time>2022-09-12T10:15:47Z</time>
      </trkpt>
      <trkpt lat="47.88227" lon="6.81664">
        <ele>684</ele>
        <time>2022-09-12T10:15:48Z</time>
      </trkpt>
      <trkpt lat="47.88227" lon="6.81663">
        <ele>684</ele>
        <time>2022-09-12T10:15:49Z</time>
      </trkpt>
      <trkpt lat="47.88226" lon="6.81662">
        <ele>684</ele>
        <time>2022-09-12T10:15:50Z</time>
      </trkpt>
      <trkpt lat="47.88226" lon="6.8166">
        <ele>684</ele>
        <time>2022-09-12T10:15:51Z</time>
      </trkpt>
      <trkpt lat="47.88226" lon="6.81659">
        <ele>683</ele>
        <time>2022-09-12T10:15:52Z</time>
      </trkpt>
      <trkpt lat="47.88225" lon="6.81658">
        <ele>683</ele>
        <time>2022-09-12T10:15:53Z</time>
      </trkpt>
      <trkpt lat="47.88225" lon="6.81657">
        <ele>683</ele>
        <time>2022-09-12T10:15:54Z</time>
      </trkpt>
      <trkpt lat="47.88225" lon="6.81656">
        <ele>683</ele>
        <time>2022-09-12T10:15:55Z</time>
      </trkpt>
      <trkpt lat="47.88224" lon="6.81655">
        <ele>683</ele>
        <time>2022-09-12T10:15:56Z</time>
      </trkpt>
      <trkpt lat="47.88223" lon="6.81654">
        <ele>683</ele>
        <time>2022-09-12T10:15:57Z</time>
      </trkpt>
      <trkpt lat="47.88223" lon="6.81653">
        <ele>683</ele>
        <time>2022-09-12T10:15:58Z</time>
      </trkpt>
      <trkpt lat="47.88222" lon="6.81651">
        <ele>683</ele>
        <time>2022-09-12T10:15:59Z</time>
      </trkpt>
      <trkpt lat="47.88221" lon="6.8165">
        <ele>683</ele>
        <time>2022-09-12T10:16:00Z</time>
      </trkpt>
      <trkpt lat="47.8822" lon="6.81649">
        <ele>683</ele>
        <time>2022-09-12T10:16:01Z</time>
      </trkpt>
      <trkpt lat="47.8822" lon="6.81648">
        <ele>683</ele>
        <time>2022-09-12T10:16:02Z</time>
      </trkpt>
      <trkpt lat="47.88219" lon="6.81647">
        <ele>683</ele>
        <time>2022-09-12T10:16:03Z</time>
      </trkpt>
      <trkpt lat="47.88219" lon="6.81646">
        <ele>683</ele>
        <time>2022-09-12T10:16:04Z</time>
      </trkpt>
      <trkpt lat="47.88218" lon="6.81645">
        <ele>683</ele>
        <time>2022-09-12T10:16:05Z</time>
      </trkpt>
      <trkpt lat="47.88218" lon="6.81644">
        <ele>683</ele>
        <time>2022-09-12T10:16:06Z</time>
      </trkpt>
      <trkpt lat="47.88217" lon="6.81643">
        <ele>682</ele>
        <time>2022-09-12T10:16:07Z</time>
      </trkpt>
      <trkpt lat="47.88217" lon="6.81642">
        <ele>682</ele>
        <time>2022-09-12T10:16:08Z</time>
      </trkpt>
      <trkpt lat="47.88216" lon="6.8164">
        <ele>682</ele>
        <time>2022-09-12T10:16:09Z</time>
      </trkpt>
      <trkpt lat="47.88215" lon="6.81639">
        <ele>682</ele>
        <time>2022-09-12T10:16:10Z</time>
      </trkpt>
      <trkpt lat="47.88214" lon="6.81638">
        <ele>682</ele>
        <time>2022-09-12T10:16:11Z</time>
      </trkpt>
      <trkpt lat="47.88214" lon="6.81637">
        <ele>682</ele>
        <time>2022-09-12T10:16:12Z</time>
      </trkpt>
      <trkpt lat="47.88213" lon="6.81636">
        <ele>682</ele>
        <time>2022-09-12T10:16:13Z</time>
      </trkpt>
      <trkpt lat="47.88213" lon="6.81635">
        <ele>682</ele>
        <time>2022-09-12T10:16:14Z</time>
      </trkpt>
      <trkpt lat="47.88212" lon="6.81634">
        <ele>682</ele>
        <time>2022-09-12T10:16:15Z</time>
      </trkpt>
      <trkpt lat="47.88212" lon="6.81633">
        <ele>682</ele>
        <time>2022-09-12T10:16:16Z</time>
      </trkpt>
      <trkpt lat="47.88211" lon="6.81632">
        <ele>682</ele>
        <time>2022-09-12T10:16:17Z</time>
      </trkpt>
      <trkpt lat="47.88211" lon="6.81631">
        <ele>682</ele>
        <time>2022-09-12T10:16:18Z</time>
      </trkpt>
      <trkpt lat="47.8821" lon="6.8163">
        <ele>682</ele>
        <time>2022-09-12T10:16:19Z</time>
      </trkpt>
      <trkpt lat="47.88209" lon="6.81629">
        <ele>682</ele>
        <time>2022-09-12T10:16:20Z</time>
      </trkpt>
      <trkpt lat="47.88208" lon="6.81628">
        <ele>682</ele>
        <time>2022-09-12T10:16:21Z</time>
      </trkpt>
      <trkpt lat="47.88208" lon="6.81627">
        <ele>682</ele>
        <time>2022-09-12T10:16:22Z</time>
      </trkpt>
      <trkpt lat="47.88207" lon="6.81626">
        <ele>682</ele>
        <time>2022-09-12T10:16:23Z</time>
      </trkpt>
      <trkpt lat="47.88206" lon="6.81625">
        <ele>682</ele>
        <time>2022-09-12T10:16:24Z</time>
      </trkpt>
      <trkpt lat="47.88205" lon="6.81624">
        <ele>682</ele>
        <time>2022-09-12T10:16:25Z</time>
      </trkpt>
      <trkpt lat="47.88204" lon="6.81623">
        <ele>682</ele>
        <time>2022-09-12T10:16:26Z</time>
      </trkpt>
      <trkpt lat="47.88204" lon="6.81622">
        <ele>682</ele>
        <time>2022-09-12T10:16:27Z</time>
      </trkpt>
      <trkpt lat="47.88203" lon="6.81621">
        <ele>682</ele>
        <time>2022-09-12T10:16:28Z</time>
      </trkpt>
      <trkpt lat="47.88202" lon="6.8162">
        <ele>682</ele>
        <time>2022-09-12T10:16:29Z</time>
      </trkpt>
      <trkpt lat="47.88202" lon="6.81619">
        <ele>682</ele>
        <time>2022-09-12T10:16:30Z</time>
      </trkpt>
      <trkpt lat="47.88201" lon="6.81618">
        <ele>682</ele>
        <time>2022-09-12T10:16:31Z</time>
      </trkpt>
      <trkpt lat="47.882" lon="6.81617">
        <ele>681</ele>
        <time>2022-09-12T10:16:32Z</time>
      </trkpt>
      <trkpt lat="47.882" lon="6.81616">
        <ele>681</ele>
        <time>2022-09-12T10:16:33Z</time>
      </trkpt>
      <trkpt lat="47.88199" lon="6.81615">
        <ele>681</ele>
        <time>2022-09-12T10:16:34Z</time>
      </trkpt>
      <trkpt lat="47.88198" lon="6.81614">
        <ele>681</ele>
        <time>2022-09-12T10:16:35Z</time>
      </trkpt>
      <trkpt lat="47.88198" lon="6.81613">
        <ele>681</ele>
        <time>2022-09-12T10:16:36Z</time>
      </trkpt>
      <trkpt lat="47.88197" lon="6.81612">
        <ele>681</ele>
        <time>2022-09-12T10:16:37Z</time>
      </trkpt>
      <trkpt lat="47.88196" lon="6.81611">
        <ele>681</ele>
        <time>2022-09-12T10:16:38Z</time>
      </trkpt>
      <trkpt lat="47.88195" lon="6.8161">
        <ele>681</ele>
        <time>2022-09-12T10:16:39Z</time>
      </trkpt>
      <trkpt lat="47.88195" lon="6.81609">
        <ele>681</ele>
        <time>2022-09-12T10:16:40Z</time>
      </trkpt>
      <trkpt lat="47.88194" lon="6.81608">
        <ele>681</ele>
        <time>2022-09-12T10:16:41Z</time>
      </trkpt>
      <trkpt lat="47.88193" lon="6.81608">
        <ele>681</ele>
        <time>2022-09-12T10:16:42Z</time>
      </trkpt>
      <trkpt lat="47.88192" lon="6.81608">
        <ele>681</ele>
        <time>2022-09-12T10:16:43Z</time>
      </trkpt>
      <trkpt lat="47.88191" lon="6.81607">
        <ele>681</ele>
        <time>2022-09-12T10:16:44Z</time>
      </trkpt>
      <trkpt lat="47.8819" lon="6.81607">
        <ele>681</ele>
        <time>2022-09-12T10:16:45Z</time>
      </trkpt>
      <trkpt lat="47.88189" lon="6.81607">
        <ele>681</ele>
        <time>2022-09-12T10:16:46Z</time>
      </trkpt>
      <trkpt lat="47.88188" lon="6.81607">
        <ele>680</ele>
        <time>2022-09-12T10:16:47Z</time>
      </trkpt>
      <trkpt lat="47.88187" lon="6.81607">
        <ele>680</ele>
        <time>2022-09-12T10:16:48Z</time>
      </trkpt>
      <trkpt lat="47.88186" lon="6.81607">
        <ele>680</ele>
        <time>2022-09-12T10:16:49Z</time>
      </trkpt>
      <trkpt lat="47.88185" lon="6.81607">
        <ele>680</ele>
        <time>2022-09-12T10:16:50Z</time>
      </trkpt>
      <trkpt lat="47.88184" lon="6.81607">
        <ele>680</ele>
        <time>2022-09-12T10:16:51Z</time>
      </trkpt>
      <trkpt lat="47.88183" lon="6.81606">
        <ele>680</ele>
        <time>2022-09-12T10:16:52Z</time>
      </trkpt>
      <trkpt lat="47.88182" lon="6.81606">
        <ele>680</ele>
        <time>2022-09-12T10:16:53Z</time>
      </trkpt>
      <trkpt lat="47.88181" lon="6.81605">
        <ele>680</ele>
        <time>2022-09-12T10:16:54Z</time>
      </trkpt>
      <trkpt lat="47.8818" lon="6.81605">
        <ele>680</ele>
        <time>2022-09-12T10:16:55Z</time>
      </trkpt>
      <trkpt lat="47.88179" lon="6.81604">
        <ele>680</ele>
        <time>2022-09-12T10:16:56Z</time>
      </trkpt>
      <trkpt lat="47.88178" lon="6.81603">
        <ele>680</ele>
        <time>2022-09-12T10:16:57Z</time>
      </trkpt>
      <trkpt lat="47.88177" lon="6.81603">
        <ele>680</ele>
        <time>2022-09-12T10:16:58Z</time>
      </trkpt>
      <trkpt lat="47.88176" lon="6.81602">
        <ele>680</ele>
        <time>2022-09-12T10:16:59Z</time>
      </trkpt>
      <trkpt lat="47.88176" lon="6.81602">
        <ele>680</ele>
        <time>2022-09-12T10:17:00Z</time>
      </trkpt>
      <trkpt lat="47.88175" lon="6.81602">
        <ele>680</ele>
        <time>2022-09-12T10:17:01Z</time>
      </trkpt>
      <trkpt lat="47.88174" lon="6.81601">
        <ele>679</ele>
        <time>2022-09-12T10:17:02Z</time>
      </trkpt>
      <trkpt lat="47.88173" lon="6.81601">
        <ele>679</ele>
        <time>2022-09-12T10:17:03Z</time>
      </trkpt>
      <trkpt lat="47.88172" lon="6.81601">
        <ele>679</ele>
        <time>2022-09-12T10:17:04Z</time>
      </trkpt>
      <trkpt lat="47.88172" lon="6.81601">
        <ele>679</ele>
        <time>2022-09-12T10:17:05Z</time>
      </trkpt>
      <trkpt lat="47.88171" lon="6.81601">
        <ele>679</ele>
        <time>2022-09-12T10:17:06Z</time>
      </trkpt>
      <trkpt lat="47.8817" lon="6.81602">
        <ele>679</ele>
        <time>2022-09-12T10:17:07Z</time>
      </trkpt>
      <trkpt lat="47.8817" lon="6.81602">
        <ele>679</ele>
        <time>2022-09-12T10:17:08Z</time>
      </trkpt>
      <trkpt lat="47.88169" lon="6.81602">
        <ele>679</ele>
        <time>2022-09-12T10:17:09Z</time>
      </trkpt>
      <trkpt lat="47.88168" lon="6.81603">
        <ele>679</ele>
        <time>2022-09-12T10:17:10Z</time>
      </trkpt>
      <trkpt lat="47.88167" lon="6.81603">
        <ele>679</ele>
        <time>2022-09-12T10:17:11Z</time>
      </trkpt>
      <trkpt lat="47.88166" lon="6.81604">
        <ele>678</ele>
        <time>2022-09-12T10:17:12Z</time>
      </trkpt>
      <trkpt lat="47.88165" lon="6.81605">
        <ele>678</ele>
        <time>2022-09-12T10:17:13Z</time>
      </trkpt>
      <trkpt lat="47.88165" lon="6.81605">
        <ele>678</ele>
        <time>2022-09-12T10:17:14Z</time>
      </trkpt>
      <trkpt lat="47.88164" lon="6.81605">
        <ele>678</ele>
        <time>2022-09-12T10:17:15Z</time>
      </trkpt>
      <trkpt lat="47.88163" lon="6.81606">
        <ele>678</ele>
        <time>2022-09-12T10:17:16Z</time>
      </trkpt>
      <trkpt lat="47.88163" lon="6.81606">
        <ele>678</ele>
        <time>2022-09-12T10:17:17Z</time>
      </trkpt>
      <trkpt lat="47.88162" lon="6.81606">
        <ele>678</ele>
        <time>2022-09-12T10:17:18Z</time>
      </trkpt>
      <trkpt lat="47.88162" lon="6.81606">
        <ele>678</ele>
        <time>2022-09-12T10:17:19Z</time>
      </trkpt>
      <trkpt lat="47.88161" lon="6.81606">
        <ele>678</ele>
        <time>2022-09-12T10:17:20Z</time>
      </trkpt>
      <trkpt lat="47.8816" lon="6.81606">
        <ele>678</ele>
        <time>2022-09-12T10:17:21Z</time>
      </trkpt>
      <trkpt lat="47.8816" lon="6.81606">
        <ele>678</ele>
        <time>2022-09-12T10:17:22Z</time>
      </trkpt>
      <trkpt lat="47.88159" lon="6.81605">
        <ele>678</ele>
        <time>2022-09-12T10:17:23Z</time>
      </trkpt>
      <trkpt lat="47.88158" lon="6.81606">
        <ele>678</ele>
        <time>2022-09-12T10:17:24Z</time>
      </trkpt>
      <trkpt lat="47.88157" lon="6.81606">
        <ele>678</ele>
        <time>2022-09-12T10:17:25Z</time>
      </trkpt>
      <trkpt lat="47.88157" lon="6.81606">
        <ele>678</ele>
        <time>2022-09-12T10:17:26Z</time>
      </trkpt>
      <trkpt lat="47.88156" lon="6.81606">
        <ele>677</ele>
        <time>2022-09-12T10:17:27Z</time>
      </trkpt>
      <trkpt lat="47.88155" lon="6.81607">
        <ele>677</ele>
        <time>2022-09-12T10:17:28Z</time>
      </trkpt>
      <trkpt lat="47.88155" lon="6.81607">
        <ele>677</ele>
        <time>2022-09-12T10:17:29Z</time>
      </trkpt>
      <trkpt lat="47.88154" lon="6.81607">
        <ele>677</ele>
        <time>2022-09-12T10:17:30Z</time>
      </trkpt>
      <trkpt lat="47.88153" lon="6.81608">
        <ele>677</ele>
        <time>2022-09-12T10:17:31Z</time>
      </trkpt>
      <trkpt lat="47.88153" lon="6.81608">
        <ele>677</ele>
        <time>2022-09-12T10:17:32Z</time>
      </trkpt>
      <trkpt lat="47.88152" lon="6.81609">
        <ele>677</ele>
        <time>2022-09-12T10:17:33Z</time>
      </trkpt>
      <trkpt lat="47.88152" lon="6.81609">
        <ele>677</ele>
        <time>2022-09-12T10:17:34Z</time>
      </trkpt>
      <trkpt lat="47.88151" lon="6.81609">
        <ele>677</ele>
        <time>2022-09-12T10:17:35Z</time>
      </trkpt>
      <trkpt lat="47.8815" lon="6.8161">
        <ele>677</ele>
        <time>2022-09-12T10:17:36Z</time>
      </trkpt>
      <trkpt lat="47.8815" lon="6.8161">
        <ele>676</ele>
        <time>2022-09-12T10:17:37Z</time>
      </trkpt>
      <trkpt lat="47.88149" lon="6.81611">
        <ele>676</ele>
        <time>2022-09-12T10:17:38Z</time>
      </trkpt>
      <trkpt lat="47.88149" lon="6.81611">
        <ele>676</ele>
        <time>2022-09-12T10:17:39Z</time>
      </trkpt>
      <trkpt lat="47.88148" lon="6.81612">
        <ele>676</ele>
        <time>2022-09-12T10:17:40Z</time>
      </trkpt>
      <trkpt lat="47.88147" lon="6.81612">
        <ele>676</ele>
        <time>2022-09-12T10:17:41Z</time>
      </trkpt>
      <trkpt lat="47.88147" lon="6.81613">
        <ele>675</ele>
        <time>2022-09-12T10:17:42Z</time>
      </trkpt>
      <trkpt lat="47.88146" lon="6.81613">
        <ele>675</ele>
        <time>2022-09-12T10:17:43Z</time>
      </trkpt>
      <trkpt lat="47.88145" lon="6.81614">
        <ele>675</ele>
        <time>2022-09-12T10:17:44Z</time>
      </trkpt>
      <trkpt lat="47.88144" lon="6.81614">
        <ele>675</ele>
        <time>2022-09-12T10:17:45Z</time>
      </trkpt>
      <trkpt lat="47.88143" lon="6.81615">
        <ele>675</ele>
        <time>2022-09-12T10:17:46Z</time>
      </trkpt>
      <trkpt lat="47.88143" lon="6.81615">
        <ele>675</ele>
        <time>2022-09-12T10:17:47Z</time>
      </trkpt>
      <trkpt lat="47.88142" lon="6.81616">
        <ele>675</ele>
        <time>2022-09-12T10:17:48Z</time>
      </trkpt>
      <trkpt lat="47.88141" lon="6.81616">
        <ele>675</ele>
        <time>2022-09-12T10:17:49Z</time>
      </trkpt>
      <trkpt lat="47.8814" lon="6.81617">
        <ele>675</ele>
        <time>2022-09-12T10:17:50Z</time>
      </trkpt>
      <trkpt lat="47.8814" lon="6.81617">
        <ele>675</ele>
        <time>2022-09-12T10:17:51Z</time>
      </trkpt>
      <trkpt lat="47.88139" lon="6.81618">
        <ele>674</ele>
        <time>2022-09-12T10:17:52Z</time>
      </trkpt>
      <trkpt lat="47.88139" lon="6.81618">
        <ele>674</ele>
        <time>2022-09-12T10:17:53Z</time>
      </trkpt>
      <trkpt lat="47.88138" lon="6.81618">
        <ele>674</ele>
        <time>2022-09-12T10:17:54Z</time>
      </trkpt>
      <trkpt lat="47.88137" lon="6.81618">
        <ele>674</ele>
        <time>2022-09-12T10:17:55Z</time>
      </trkpt>
      <trkpt lat="47.88137" lon="6.81619">
        <ele>674</ele>
        <time>2022-09-12T10:17:56Z</time>
      </trkpt>
      <trkpt lat="47.88136" lon="6.81619">
        <ele>674</ele>
        <time>2022-09-12T10:17:57Z</time>
      </trkpt>
      <trkpt lat="47.88135" lon="6.81619">
        <ele>674</ele>
        <time>2022-09-12T10:17:58Z</time>
      </trkpt>
      <trkpt lat="47.88135" lon="6.81619">
        <ele>674</ele>
        <time>2022-09-12T10:17:59Z</time>
      </trkpt>
      <trkpt lat="47.88134" lon="6.8162">
        <ele>674</ele>
        <time>2022-09-12T10:18:00Z</time>
      </trkpt>
      <trkpt lat="47.88133" lon="6.8162">
        <ele>674</ele>
        <time>2022-09-12T10:18:01Z</time>
      </trkpt>
      <trkpt lat="47.88132" lon="6.81621">
        <ele>673</ele>
        <time>2022-09-12T10:18:02Z</time>
      </trkpt>
      <trkpt lat="47.88131" lon="6.81622">
        <ele>673</ele>
        <time>2022-09-12T10:18:03Z</time>
      </trkpt>
      <trkpt lat="47.8813" lon="6.81623">
        <ele>673</ele>
        <time>2022-09-12T10:18:04Z</time>
      </trkpt>
      <trkpt lat="47.88129" lon="6.81624">
        <ele>673</ele>
        <time>2022-09-12T10:18:05Z</time>
      </trkpt>
      <trkpt lat="47.88128" lon="6.81625">
        <ele>673</ele>
        <time>2022-09-12T10:18:06Z</time>
      </trkpt>
      <trkpt lat="47.88127" lon="6.81626">
        <ele>673</ele>
        <time>2022-09-12T10:18:07Z</time>
      </trkpt>
      <trkpt lat="47.88126" lon="6.81626">
        <ele>673</ele>
        <time>2022-09-12T10:18:08Z</time>
      </trkpt>
      <trkpt lat="47.88125" lon="6.81627">
        <ele>673</ele>
        <time>2022-09-12T10:18:09Z</time>
      </trkpt>
      <trkpt lat="47.88124" lon="6.81627">
        <ele>673</ele>
        <time>2022-09-12T10:18:10Z</time>
      </trkpt>
      <trkpt lat="47.88123" lon="6.81628">
        <ele>673</ele>
        <time>2022-09-12T10:18:11Z</time>
      </trkpt>
      <trkpt lat="47.88122" lon="6.81628">
        <ele>672</ele>
        <time>2022-09-12T10:18:12Z</time>
      </trkpt>
      <trkpt lat="47.88121" lon="6.81628">
        <ele>672</ele>
        <time>2022-09-12T10:18:13Z</time>
      </trkpt>
      <trkpt lat="47.8812" lon="6.81629">
        <ele>672</ele>
        <time>2022-09-12T10:18:14Z</time>
      </trkpt>
      <trkpt lat="47.88119" lon="6.81629">
        <ele>672</ele>
        <time>2022-09-12T10:18:15Z</time>
      </trkpt>
      <trkpt lat="47.88118" lon="6.8163">
        <ele>672</ele>
        <time>2022-09-12T10:18:16Z</time>
      </trkpt>
      <trkpt lat="47.88117" lon="6.8163">
        <ele>671</ele>
        <time>2022-09-12T10:18:17Z</time>
      </trkpt>
      <trkpt lat="47.88116" lon="6.81631">
        <ele>671</ele>
        <time>2022-09-12T10:18:18Z</time>
      </trkpt>
      <trkpt lat="47.88115" lon="6.81631">
        <ele>671</ele>
        <time>2022-09-12T10:18:19Z</time>
      </trkpt>
      <trkpt lat="47.88114" lon="6.81632">
        <ele>671</ele>
        <time>2022-09-12T10:18:20Z</time>
      </trkpt>
      <trkpt lat="47.88113" lon="6.81632">
        <ele>671</ele>
        <time>2022-09-12T10:18:21Z</time>
      </trkpt>
      <trkpt lat="47.88112" lon="6.81633">
        <ele>671</ele>
        <time>2022-09-12T10:18:22Z</time>
      </trkpt>
      <trkpt lat="47.88111" lon="6.81633">
        <ele>671</ele>
        <time>2022-09-12T10:18:23Z</time>
      </trkpt>
      <trkpt lat="47.8811" lon="6.81634">
        <ele>671</ele>
        <time>2022-09-12T10:18:24Z</time>
      </trkpt>
      <trkpt lat="47.8811" lon="6.81634">
        <ele>671</ele>
        <time>2022-09-12T10:18:25Z</time>
      </trkpt>
      <trkpt lat="47.88109" lon="6.81635">
        <ele>671</ele>
        <time>2022-09-12T10:18:26Z</time>
      </trkpt>
      <trkpt lat="47.88109" lon="6.81636">
        <ele>670</ele>
        <time>2022-09-12T10:18:27Z</time>
      </trkpt>
      <trkpt lat="47.88108" lon="6.81636">
        <ele>670</ele>
        <time>2022-09-12T10:18:28Z</time>
      </trkpt>
      <trkpt lat="47.88108" lon="6.81637">
        <ele>670</ele>
        <time>2022-09-12T10:18:29Z</time>
      </trkpt>
      <trkpt lat="47.88107" lon="6.81637">
        <ele>670</ele>
        <time>2022-09-12T10:18:30Z</time>
      </trkpt>
      <trkpt lat="47.88107" lon="6.81638">
        <ele>670</ele>
        <time>2022-09-12T10:18:31Z</time>
      </trkpt>
      <trkpt lat="47.88106" lon="6.81639">
        <ele>670</ele>
        <time>2022-09-12T10:18:32Z</time>
      </trkpt>
      <trkpt lat="47.88106" lon="6.8164">
        <ele>670</ele>
        <time>2022-09-12T10:18:33Z</time>
      </trkpt>
      <trkpt lat="47.88105" lon="6.8164">
        <ele>670</ele>
        <time>2022-09-12T10:18:34Z</time>
      </trkpt>
      <trkpt lat="47.88105" lon="6.81641">
        <ele>670</ele>
        <time>2022-09-12T10:18:35Z</time>
      </trkpt>
      <trkpt lat="47.88104" lon="6.81641">
        <ele>670</ele>
        <time>2022-09-12T10:18:36Z</time>
      </trkpt>
      <trkpt lat="47.88104" lon="6.81642">
        <ele>669</ele>
        <time>2022-09-12T10:18:37Z</time>
      </trkpt>
      <trkpt lat="47.88103" lon="6.81642">
        <ele>669</ele>
        <time>2022-09-12T10:18:38Z</time>
      </trkpt>
      <trkpt lat="47.88103" lon="6.81642">
        <ele>669</ele>
        <time>2022-09-12T10:18:39Z</time>
      </trkpt>
      <trkpt lat="47.88102" lon="6.81643">
        <ele>669</ele>
        <time>2022-09-12T10:18:40Z</time>
      </trkpt>
      <trkpt lat="47.88101" lon="6.81643">
        <ele>669</ele>
        <time>2022-09-12T10:18:41Z</time>
      </trkpt>
      <trkpt lat="47.881" lon="6.81644">
        <ele>669</ele>
        <time>2022-09-12T10:18:42Z</time>
      </trkpt>
      <trkpt lat="47.881" lon="6.81644">
        <ele>669</ele>
        <time>2022-09-12T10:18:43Z</time>
      </trkpt>
      <trkpt lat="47.88099" lon="6.81645">
        <ele>669</ele>
        <time>2022-09-12T10:18:44Z</time>
      </trkpt>
      <trkpt lat="47.88099" lon="6.81645">
        <ele>669</ele>
        <time>2022-09-12T10:18:45Z</time>
      </trkpt>
      <trkpt lat="47.88098" lon="6.81646">
        <ele>669</ele>
        <time>2022-09-12T10:18:46Z</time>
      </trkpt>
      <trkpt lat="47.88097" lon="6.81647">
        <ele>668</ele>
        <time>2022-09-12T10:18:47Z</time>
      </trkpt>
      <trkpt lat="47.88097" lon="6.81647">
        <ele>668</ele>
        <time>2022-09-12T10:18:48Z</time>
      </trkpt>
      <trkpt lat="47.88097" lon="6.81647">
        <ele>668</ele>
        <time>2022-09-12T10:18:49Z</time>
      </trkpt>
      <trkpt lat="47.88096" lon="6.81648">
        <ele>668</ele>
        <time>2022-09-12T10:18:50Z</time>
      </trkpt>
      <trkpt lat="47.88096" lon="6.81648">
        <ele>668</ele>
        <time>2022-09-12T10:18:51Z</time>
      </trkpt>
      <trkpt lat="47.88095" lon="6.81649">
        <ele>668</ele>
        <time>2022-09-12T10:18:52Z</time>
      </trkpt>
      <trkpt lat="47.88094" lon="6.81649">
        <ele>668</ele>
        <time>2022-09-12T10:18:53Z</time>
      </trkpt>
      <trkpt lat="47.88094" lon="6.8165">
        <ele>668</ele>
        <time>2022-09-12T10:18:54Z</time>
      </trkpt>
      <trkpt lat="47.88093" lon="6.81651">
        <ele>668</ele>
        <time>2022-09-12T10:18:55Z</time>
      </trkpt>
      <trkpt lat="47.88092" lon="6.81651">
        <ele>668</ele>
        <time>2022-09-12T10:18:56Z</time>
      </trkpt>
      <trkpt lat="47.88091" lon="6.81652">
        <ele>667</ele>
        <time>2022-09-12T10:18:57Z</time>
      </trkpt>
      <trkpt lat="47.88091" lon="6.81653">
        <ele>667</ele>
        <time>2022-09-12T10:18:58Z</time>
      </trkpt>
      <trkpt lat="47.8809" lon="6.81654">
        <ele>667</ele>
        <time>2022-09-12T10:18:59Z</time>
      </trkpt>
      <trkpt lat="47.88089" lon="6.81655">
        <ele>667</ele>
        <time>2022-09-12T10:19:00Z</time>
      </trkpt>
      <trkpt lat="47.88088" lon="6.81656">
        <ele>667</ele>
        <time>2022-09-12T10:19:01Z</time>
      </trkpt>
      <trkpt lat="47.88087" lon="6.81657">
        <ele>666</ele>
        <time>2022-09-12T10:19:02Z</time>
      </trkpt>
      <trkpt lat="47.88086" lon="6.81658">
        <ele>666</ele>
        <time>2022-09-12T10:19:03Z</time>
      </trkpt>
      <trkpt lat="47.88085" lon="6.81659">
        <ele>666</ele>
        <time>2022-09-12T10:19:04Z</time>
      </trkpt>
      <trkpt lat="47.88085" lon="6.8166">
        <ele>666</ele>
        <time>2022-09-12T10:19:05Z</time>
      </trkpt>
      <trkpt lat="47.88084" lon="6.81661">
        <ele>666</ele>
        <time>2022-09-12T10:19:06Z</time>
      </trkpt>
      <trkpt lat="47.88083" lon="6.81662">
        <ele>665</ele>
        <time>2022-09-12T10:19:07Z</time>
      </trkpt>
      <trkpt lat="47.88082" lon="6.81662">
        <ele>665</ele>
        <time>2022-09-12T10:19:08Z</time>
      </trkpt>
      <trkpt lat="47.88081" lon="6.81664">
        <ele>665</ele>
        <time>2022-09-12T10:19:09Z</time>
      </trkpt>
      <trkpt lat="47.8808" lon="6.81665">
        <ele>665</ele>
        <time>2022-09-12T10:19:10Z</time>
      </trkpt>
      <trkpt lat="47.88079" lon="6.81666">
        <ele>665</ele>
        <time>2022-09-12T10:19:11Z</time>
      </trkpt>
      <trkpt lat="47.88079" lon="6.81667">
        <ele>665</ele>
        <time>2022-09-12T10:19:12Z</time>
      </trkpt>
      <trkpt lat="47.88078" lon="6.81668">
        <ele>665</ele>
        <time>2022-09-12T10:19:13Z</time>
      </trkpt>
      <trkpt lat="47.88077" lon="6.81669">
        <ele>665</ele>
        <time>2022-09-12T10:19:14Z</time>
      </trkpt>
      <trkpt lat="47.88077" lon="6.8167">
        <ele>665</ele>
        <time>2022-09-12T10:19:15Z</time>
      </trkpt>
      <trkpt lat="47.88076" lon="6.8167">
        <ele>665</ele>
        <time>2022-09-12T10:19:16Z</time>
      </trkpt>
      <trkpt lat="47.88076" lon="6.81671">
        <ele>664</ele>
        <time>2022-09-12T10:19:17Z</time>
      </trkpt>
      <trkpt lat="47.88075" lon="6.81672">
        <ele>664</ele>
        <time>2022-09-12T10:19:18Z</time>
      </trkpt>
      <trkpt lat="47.88075" lon="6.81674">
        <ele>664</ele>
        <time>2022-09-12T10:19:19Z</time>
      </trkpt>
      <trkpt lat="47.88075" lon="6.81675">
        <ele>664</ele>
        <time>2022-09-12T10:19:20Z</time>
      </trkpt>
      <trkpt lat="47.88075" lon="6.81677">
        <ele>664</ele>
        <time>2022-09-12T10:19:21Z</time>
      </trkpt>
      <trkpt lat="47.88074" lon="6.81678">
        <ele>664</ele>
        <time>2022-09-12T10:19:22Z</time>
      </trkpt>
      <trkpt lat="47.88074" lon="6.8168">
        <ele>664</ele>
        <time>2022-09-12T10:19:23Z</time>
      </trkpt>
      <trkpt lat="47.88074" lon="6.81681">
        <ele>664</ele>
        <time>2022-09-12T10:19:24Z</time>
      </trkpt>
      <trkpt lat="47.88074" lon="6.81683">
        <ele>664</ele>
        <time>2022-09-12T10:19:25Z</time>
      </trkpt>
      <trkpt lat="47.88073" lon="6.81685">
        <ele>664</ele>
        <time>2022-09-12T10:19:26Z</time>
      </trkpt>
      <trkpt lat="47.88073" lon="6.81686">
        <ele>664</ele>
        <time>2022-09-12T10:19:27Z</time>
      </trkpt>
      <trkpt lat="47.88073" lon="6.81688">
        <ele>664</ele>
        <time>2022-09-12T10:19:28Z</time>
      </trkpt>
      <trkpt lat="47.88073" lon="6.81689">
        <ele>664</ele>
        <time>2022-09-12T10:19:29Z</time>
      </trkpt>
      <trkpt lat="47.88073" lon="6.81691">
        <ele>664</ele>
        <time>2022-09-12T10:19:30Z</time>
      </trkpt>
      <trkpt lat="47.88073" lon="6.81692">
        <ele>664</ele>
        <time>2022-09-12T10:19:31Z</time>
      </trkpt>
      <trkpt lat="47.88073" lon="6.81693">
        <ele>663</ele>
        <time>2022-09-12T10:19:32Z</time>
      </trkpt>
      <trkpt lat="47.88073" lon="6.81695">
        <ele>663</ele>
        <time>2022-09-12T10:19:33Z</time>
      </trkpt>
      <trkpt lat="47.88073" lon="6.81696">
        <ele>663</ele>
        <time>2022-09-12T10:19:34Z</time>
      </trkpt>
      <trkpt lat="47.88073" lon="6.81698">
        <ele>663</ele>
        <time>2022-09-12T10:19:35Z</time>
      </trkpt>
      <trkpt lat="47.88073" lon="6.81699">
        <ele>663</ele>
        <time>2022-09-12T10:19:36Z</time>
      </trkpt>
      <trkpt lat="47.88072" lon="6.817">
        <ele>663</ele>
        <time>2022-09-12T10:19:37Z</time>
      </trkpt>
      <trkpt lat="47.88072" lon="6.81701">
        <ele>663</ele>
        <time>2022-09-12T10:19:38Z</time>
      </trkpt>
      <trkpt lat="47.88072" lon="6.81703">
        <ele>663</ele>
        <time>2022-09-12T10:19:39Z</time>
      </trkpt>
      <trkpt lat="47.88072" lon="6.81704">
        <ele>663</ele>
        <time>2022-09-12T10:19:40Z</time>
      </trkpt>
      <trkpt lat="47.88071" lon="6.81705">
        <ele>663</ele>
        <time>2022-09-12T10:19:41Z</time>
      </trkpt>
      <trkpt lat="47.88071" lon="6.81706">
        <ele>663</ele>
        <time>2022-09-12T10:19:42Z</time>
      </trkpt>
      <trkpt lat="47.88071" lon="6.81706">
        <ele>663</ele>
        <time>2022-09-12T10:19:43Z</time>
      </trkpt>
      <trkpt lat="47.88071" lon="6.81707">
        <ele>663</ele>
        <time>2022-09-12T10:19:44Z</time>
      </trkpt>
      <trkpt lat="47.88071" lon="6.81707">
        <ele>663</ele>
        <time>2022-09-12T10:19:45Z</time>
      </trkpt>
      <trkpt lat="47.8807" lon="6.81708">
        <ele>663</ele>
        <time>2022-09-12T10:19:46Z</time>
      </trkpt>
      <trkpt lat="47.8807" lon="6.81708">
        <ele>663</ele>
        <time>2022-09-12T10:19:47Z</time>
      </trkpt>
      <trkpt lat="47.8807" lon="6.81709">
        <ele>663</ele>
        <time>2022-09-12T10:19:48Z</time>
      </trkpt>
      <trkpt lat="47.8807" lon="6.8171">
        <ele>663</ele>
        <time>2022-09-12T10:19:49Z</time>
      </trkpt>
      <trkpt lat="47.8807" lon="6.81711">
        <ele>663</ele>
        <time>2022-09-12T10:19:50Z</time>
      </trkpt>
      <trkpt lat="47.88069" lon="6.81712">
        <ele>663</ele>
        <time>2022-09-12T10:19:51Z</time>
      </trkpt>
      <trkpt lat="47.88069" lon="6.81714">
        <ele>663</ele>
        <time>2022-09-12T10:19:52Z</time>
      </trkpt>
      <trkpt lat="47.88069" lon="6.81715">
        <ele>663</ele>
        <time>2022-09-12T10:19:53Z</time>
      </trkpt>
      <trkpt lat="47.88068" lon="6.81717">
        <ele>663</ele>
        <time>2022-09-12T10:19:54Z</time>
      </trkpt>
      <trkpt lat="47.88068" lon="6.81719">
        <ele>663</ele>
        <time>2022-09-12T10:19:55Z</time>
      </trkpt>
      <trkpt lat="47.88067" lon="6.81721">
        <ele>663</ele>
        <time>2022-09-12T10:19:56Z</time>
      </trkpt>
      <trkpt lat="47.88066" lon="6.81723">
        <ele>663</ele>
        <time>2022-09-12T10:19:57Z</time>
      </trkpt>
      <trkpt lat="47.88066" lon="6.81725">
        <ele>663</ele>
        <time>2022-09-12T10:19:58Z</time>
      </trkpt>
      <trkpt lat="47.88065" lon="6.81728">
        <ele>663</ele>
        <time>2022-09-12T10:19:59Z</time>
      </trkpt>
      <trkpt lat="47.88064" lon="6.8173">
        <ele>663</ele>
        <time>2022-09-12T10:20:00Z</time>
      </trkpt>
      <trkpt lat="47.88063" lon="6.81732">
        <ele>663</ele>
        <time>2022-09-12T10:20:01Z</time>
      </trkpt>
      <trkpt lat="47.88062" lon="6.81735">
        <ele>663</ele>
        <time>2022-09-12T10:20:02Z</time>
      </trkpt>
      <trkpt lat="47.88061" lon="6.81737">
        <ele>663</ele>
        <time>2022-09-12T10:20:03Z</time>
      </trkpt>
      <trkpt lat="47.88061" lon="6.81739">
        <ele>663</ele>
        <time>2022-09-12T10:20:04Z</time>
      </trkpt>
      <trkpt lat="47.8806" lon="6.81741">
        <ele>663</ele>
        <time>2022-09-12T10:20:05Z</time>
      </trkpt>
      <trkpt lat="47.8806" lon="6.81742">
        <ele>663</ele>
        <time>2022-09-12T10:20:06Z</time>
      </trkpt>
      <trkpt lat="47.88059" lon="6.81744">
        <ele>663</ele>
        <time>2022-09-12T10:20:07Z</time>
      </trkpt>
      <trkpt lat="47.88059" lon="6.81746">
        <ele>663</ele>
        <time>2022-09-12T10:20:08Z</time>
      </trkpt>
      <trkpt lat="47.88058" lon="6.81747">
        <ele>663</ele>
        <time>2022-09-12T10:20:09Z</time>
      </trkpt>
      <trkpt lat="47.88057" lon="6.81748">
        <ele>663</ele>
        <time>2022-09-12T10:20:10Z</time>
      </trkpt>
      <trkpt lat="47.88057" lon="6.8175">
        <ele>663</ele>
        <time>2022-09-12T10:20:11Z</time>
      </trkpt>
      <trkpt lat="47.88056" lon="6.81751">
        <ele>663</ele>
        <time>2022-09-12T10:20:12Z</time>
      </trkpt>
      <trkpt lat="47.88055" lon="6.81752">
        <ele>663</ele>
        <time>2022-09-12T10:20:13Z</time>
      </trkpt>
      <trkpt lat="47.88054" lon="6.81754">
        <ele>663</ele>
        <time>2022-09-12T10:20:14Z</time>
      </trkpt>
      <trkpt lat="47.88053" lon="6.81755">
        <ele>663</ele>
        <time>2022-09-12T10:20:15Z</time>
      </trkpt>
      <trkpt lat="47.88053" lon="6.81756">
        <ele>663</ele>
        <time>2022-09-12T10:20:16Z</time>
      </trkpt>
      <trkpt lat="47.88052" lon="6.81757">
        <ele>663</ele>
        <time>2022-09-12T10:20:17Z</time>
      </trkpt>
      <trkpt lat="47.88052" lon="6.81758">
        <ele>663</ele>
        <time>2022-09-12T10:20:18Z</time>
      </trkpt>
      <trkpt lat="47.88051" lon="6.81758">
        <ele>663</ele>
        <time>2022-09-12T10:20:19Z</time>
      </trkpt>
      <trkpt lat="47.8805" lon="6.81759">
        <ele>663</ele>
        <time>2022-09-12T10:20:20Z</time>
      </trkpt>
      <trkpt lat="47.88048" lon="6.81759">
        <ele>663</ele>
        <time>2022-09-12T10:20:30Z</time>
      </trkpt>
      <trkpt lat="47.88048" lon="6.81759">
        <ele>663</ele>
        <time>2022-09-12T10:20:31Z</time>
      </trkpt>
      <trkpt lat="47.88048" lon="6.81758">
        <ele>663</ele>
        <time>2022-09-12T10:20:32Z</time>
      </trkpt>
      <trkpt lat="47.88047" lon="6.81757">
        <ele>663</ele>
        <time>2022-09-12T10:20:33Z</time>
      </trkpt>
      <trkpt lat="47.88047" lon="6.81757">
        <ele>663</ele>
        <time>2022-09-12T10:20:34Z</time>
      </trkpt>
      <trkpt lat="47.88046" lon="6.81756">
        <ele>663</ele>
        <time>2022-09-12T10:20:35Z</time>
      </trkpt>
      <trkpt lat="47.88045" lon="6.81755">
        <ele>663</ele>
        <time>2022-09-12T10:20:36Z</time>
      </trkpt>
      <trkpt lat="47.88045" lon="6.81753">
        <ele>663</ele>
        <time>2022-09-12T10:20:37Z</time>
      </trkpt>
      <trkpt lat="47.88044" lon="6.81752">
        <ele>663</ele>
        <time>2022-09-12T10:20:38Z</time>
      </trkpt>
      <trkpt lat="47.88043" lon="6.8175">
        <ele>663</ele>
        <time>2022-09-12T10:20:39Z</time>
      </trkpt>
      <trkpt lat="47.88042" lon="6.81749">
        <ele>663</ele>
        <time>2022-09-12T10:20:40Z</time>
      </trkpt>
      <trkpt lat="47.88041" lon="6.81748">
        <ele>664</ele>
        <time>2022-09-12T10:20:41Z</time>
      </trkpt>
      <trkpt lat="47.8804" lon="6.81747">
        <ele>664</ele>
        <time>2022-09-12T10:20:42Z</time>
      </trkpt>
      <trkpt lat="47.88039" lon="6.81745">
        <ele>664</ele>
        <time>2022-09-12T10:20:43Z</time>
      </trkpt>
      <trkpt lat="47.88038" lon="6.81744">
        <ele>664</ele>
        <time>2022-09-12T10:20:44Z</time>
      </trkpt>
      <trkpt lat="47.88038" lon="6.81743">
        <ele>664</ele>
        <time>2022-09-12T10:20:45Z</time>
      </trkpt>
      <trkpt lat="47.88037" lon="6.81741">
        <ele>664</ele>
        <time>2022-09-12T10:20:46Z</time>
      </trkpt>
      <trkpt lat="47.88037" lon="6.81739">
        <ele>664</ele>
        <time>2022-09-12T10:20:47Z</time>
      </trkpt>
      <trkpt lat="47.88036" lon="6.81738">
        <ele>664</ele>
        <time>2022-09-12T10:20:48Z</time>
      </trkpt>
      <trkpt lat="47.88036" lon="6.81736">
        <ele>664</ele>
        <time>2022-09-12T10:20:49Z</time>
      </trkpt>
      <trkpt lat="47.88036" lon="6.81735">
        <ele>664</ele>
        <time>2022-09-12T10:20:50Z</time>
      </trkpt>
      <trkpt lat="47.88035" lon="6.81733">
        <ele>664</ele>
        <time>2022-09-12T10:20:51Z</time>
      </trkpt>
      <trkpt lat="47.88035" lon="6.81732">
        <ele>664</ele>
        <time>2022-09-12T10:20:52Z</time>
      </trkpt>
      <trkpt lat="47.88035" lon="6.8173">
        <ele>664</ele>
        <time>2022-09-12T10:20:53Z</time>
      </trkpt>
      <trkpt lat="47.88035" lon="6.81728">
        <ele>664</ele>
        <time>2022-09-12T10:20:54Z</time>
      </trkpt>
      <trkpt lat="47.88034" lon="6.81726">
        <ele>664</ele>
        <time>2022-09-12T10:20:55Z</time>
      </trkpt>
      <trkpt lat="47.88034" lon="6.81725">
        <ele>665</ele>
        <time>2022-09-12T10:20:56Z</time>
      </trkpt>
      <trkpt lat="47.88034" lon="6.81723">
        <ele>665</ele>
        <time>2022-09-12T10:20:57Z</time>
      </trkpt>
      <trkpt lat="47.88034" lon="6.81721">
        <ele>665</ele>
        <time>2022-09-12T10:20:58Z</time>
      </trkpt>
      <trkpt lat="47.88033" lon="6.8172">
        <ele>665</ele>
        <time>2022-09-12T10:20:59Z</time>
      </trkpt>
      <trkpt lat="47.88033" lon="6.81718">
        <ele>665</ele>
        <time>2022-09-12T10:21:00Z</time>
      </trkpt>
      <trkpt lat="47.88033" lon="6.81717">
        <ele>665</ele>
        <time>2022-09-12T10:21:01Z</time>
      </trkpt>
      <trkpt lat="47.88033" lon="6.81715">
        <ele>665</ele>
        <time>2022-09-12T10:21:02Z</time>
      </trkpt>
      <trkpt lat="47.88033" lon="6.81714">
        <ele>665</ele>
        <time>2022-09-12T10:21:03Z</time>
      </trkpt>
      <trkpt lat="47.88032" lon="6.81712">
        <ele>665</ele>
        <time>2022-09-12T10:21:04Z</time>
      </trkpt>
      <trkpt lat="47.88032" lon="6.81711">
        <ele>665</ele>
        <time>2022-09-12T10:21:05Z</time>
      </trkpt>
      <trkpt lat="47.88032" lon="6.81709">
        <ele>665</ele>
        <time>2022-09-12T10:21:06Z</time>
      </trkpt>
      <trkpt lat="47.88032" lon="6.81708">
        <ele>665</ele>
        <time>2022-09-12T10:21:07Z</time>
      </trkpt>
      <trkpt lat="47.88032" lon="6.81706">
        <ele>665</ele>
        <time>2022-09-12T10:21:08Z</time>
      </trkpt>
      <trkpt lat="47.88031" lon="6.81705">
        <ele>665</ele>
        <time>2022-09-12T10:21:09Z</time>
      </trkpt>
      <trkpt lat="47.88031" lon="6.81704">
        <ele>665</ele>
        <time>2022-09-12T10:21:10Z</time>
      </trkpt>
      <trkpt lat="47.88031" lon="6.81702">
        <ele>666</ele>
        <time>2022-09-12T10:21:11Z</time>
      </trkpt>
      <trkpt lat="47.8803" lon="6.81701">
        <ele>666</ele>
        <time>2022-09-12T10:21:12Z</time>
      </trkpt>
      <trkpt lat="47.8803" lon="6.817">
        <ele>666</ele>
        <time>2022-09-12T10:21:13Z</time>
      </trkpt>
      <trkpt lat="47.8803" lon="6.81699">
        <ele>666</ele>
        <time>2022-09-12T10:21:14Z</time>
      </trkpt>
      <trkpt lat="47.88029" lon="6.81696">
        <ele>666</ele>
        <time>2022-09-12T10:22:09Z</time>
      </trkpt>
      <trkpt lat="47.88029" lon="6.81694">
        <ele>666</ele>
        <time>2022-09-12T10:22:10Z</time>
      </trkpt>
      <trkpt lat="47.88029" lon="6.81693">
        <ele>666</ele>
        <time>2022-09-12T10:22:11Z</time>
      </trkpt>
      <trkpt lat="47.88028" lon="6.81692">
        <ele>666</ele>
        <time>2022-09-12T10:22:12Z</time>
      </trkpt>
      <trkpt lat="47.88028" lon="6.81691">
        <ele>666</ele>
        <time>2022-09-12T10:22:13Z</time>
      </trkpt>
      <trkpt lat="47.88028" lon="6.8169">
        <ele>666</ele>
        <time>2022-09-12T10:22:14Z</time>
      </trkpt>
      <trkpt lat="47.88028" lon="6.81689">
        <ele>666</ele>
        <time>2022-09-12T10:22:15Z</time>
      </trkpt>
      <trkpt lat="47.88028" lon="6.81688">
        <ele>666</ele>
        <time>2022-09-12T10:22:16Z</time>
      </trkpt>
      <trkpt lat="47.88029" lon="6.81686">
        <ele>666</ele>
        <time>2022-09-12T10:22:17Z</time>
      </trkpt>
      <trkpt lat="47.88029" lon="6.81685">
        <ele>666</ele>
        <time>2022-09-12T10:22:18Z</time>
      </trkpt>
      <trkpt lat="47.88029" lon="6.81684">
        <ele>666</ele>
        <time>2022-09-12T10:22:19Z</time>
      </trkpt>
      <trkpt lat="47.88029" lon="6.81683">
        <ele>666</ele>
        <time>2022-09-12T10:22:20Z</time>
      </trkpt>
      <trkpt lat="47.88029" lon="6.81682">
        <ele>666</ele>
        <time>2022-09-12T10:22:21Z</time>
      </trkpt>
      <trkpt lat="47.8803" lon="6.81681">
        <ele>666</ele>
        <time>2022-09-12T10:22:22Z</time>
      </trkpt>
      <trkpt lat="47.8803" lon="6.8168">
        <ele>666</ele>
        <time>2022-09-12T10:22:23Z</time>
      </trkpt>
      <trkpt lat="47.8803" lon="6.81678">
        <ele>666</ele>
        <time>2022-09-12T10:22:24Z</time>
      </trkpt>
      <trkpt lat="47.8803" lon="6.81677">
        <ele>666</ele>
        <time>2022-09-12T10:22:25Z</time>
      </trkpt>
      <trkpt lat="47.8803" lon="6.81676">
        <ele>666</ele>
        <time>2022-09-12T10:22:26Z</time>
      </trkpt>
      <trkpt lat="47.88031" lon="6.81675">
        <ele>666</ele>
        <time>2022-09-12T10:22:27Z</time>
      </trkpt>
      <trkpt lat="47.88031" lon="6.81674">
        <ele>666</ele>
        <time>2022-09-12T10:22:28Z</time>
      </trkpt>
      <trkpt lat="47.88031" lon="6.81672">
        <ele>666</ele>
        <time>2022-09-12T10:22:29Z</time>
      </trkpt>
      <trkpt lat="47.88031" lon="6.81671">
        <ele>666</ele>
        <time>2022-09-12T10:22:30Z</time>
      </trkpt>
      <trkpt lat="47.88031" lon="6.8167">
        <ele>666</ele>
        <time>2022-09-12T10:22:31Z</time>
      </trkpt>
      <trkpt lat="47.88031" lon="6.81669">
        <ele>666</ele>
        <time>2022-09-12T10:22:32Z</time>
      </trkpt>
      <trkpt lat="47.88031" lon="6.81668">
        <ele>666</ele>
        <time>2022-09-12T10:22:33Z</time>
      </trkpt>
      <trkpt lat="47.88032" lon="6.81667">
        <ele>666</ele>
        <time>2022-09-12T10:22:34Z</time>
      </trkpt>
      <trkpt lat="47.88032" lon="6.81665">
        <ele>666</ele>
        <time>2022-09-12T10:22:35Z</time>
      </trkpt>
      <trkpt lat="47.88032" lon="6.81664">
        <ele>666</ele>
        <time>2022-09-12T10:22:36Z</time>
      </trkpt>
      <trkpt lat="47.88032" lon="6.81662">
        <ele>665</ele>
        <time>2022-09-12T10:22:37Z</time>
      </trkpt>
      <trkpt lat="47.88032" lon="6.8166">
        <ele>665</ele>
        <time>2022-09-12T10:22:38Z</time>
      </trkpt>
      <trkpt lat="47.88032" lon="6.81659">
        <ele>665</ele>
        <time>2022-09-12T10:22:39Z</time>
      </trkpt>
      <trkpt lat="47.88032" lon="6.81657">
        <ele>665</ele>
        <time>2022-09-12T10:22:45Z</time>
      </trkpt>
      <trkpt lat="47.88032" lon="6.81655">
        <ele>665</ele>
        <time>2022-09-12T10:22:46Z</time>
      </trkpt>
      <trkpt lat="47.88032" lon="6.81654">
        <ele>665</ele>
        <time>2022-09-12T10:22:47Z</time>
      </trkpt>
      <trkpt lat="47.88032" lon="6.81652">
        <ele>665</ele>
        <time>2022-09-12T10:22:48Z</time>
      </trkpt>
      <trkpt lat="47.88032" lon="6.81651">
        <ele>665</ele>
        <time>2022-09-12T10:22:49Z</time>
      </trkpt>
      <trkpt lat="47.88032" lon="6.81648">
        <ele>665</ele>
        <time>2022-09-12T10:22:50Z</time>
      </trkpt>
      <trkpt lat="47.88032" lon="6.81646">
        <ele>665</ele>
        <time>2022-09-12T10:22:51Z</time>
      </trkpt>
      <trkpt lat="47.88032" lon="6.81644">
        <ele>665</ele>
        <time>2022-09-12T10:22:52Z</time>
      </trkpt>
      <trkpt lat="47.88032" lon="6.81641">
        <ele>665</ele>
        <time>2022-09-12T10:22:53Z</time>
      </trkpt>
      <trkpt lat="47.88032" lon="6.81639">
        <ele>665</ele>
        <time>2022-09-12T10:22:54Z</time>
      </trkpt>
      <trkpt lat="47.88032" lon="6.81636">
        <ele>665</ele>
        <time>2022-09-12T10:22:55Z</time>
      </trkpt>
      <trkpt lat="47.88032" lon="6.81634">
        <ele>665</ele>
        <time>2022-09-12T10:22:56Z</time>
      </trkpt>
      <trkpt lat="47.88032" lon="6.81632">
        <ele>665</ele>
        <time>2022-09-12T10:22:57Z</time>
      </trkpt>
      <trkpt lat="47.88032" lon="6.81631">
        <ele>665</ele>
        <time>2022-09-12T10:22:58Z</time>
      </trkpt>
      <trkpt lat="47.88032" lon="6.8163">
        <ele>665</ele>
        <time>2022-09-12T10:22:59Z</time>
      </trkpt>
      <trkpt lat="47.88032" lon="6.81629">
        <ele>665</ele>
        <time>2022-09-12T10:23:00Z</time>
      </trkpt>
      <trkpt lat="47.88032" lon="6.81627">
        <ele>665</ele>
        <time>2022-09-12T10:23:01Z</time>
      </trkpt>
      <trkpt lat="47.88032" lon="6.81626">
        <ele>665</ele>
        <time>2022-09-12T10:23:02Z</time>
      </trkpt>
      <trkpt lat="47.88032" lon="6.81625">
        <ele>665</ele>
        <time>2022-09-12T10:23:03Z</time>
      </trkpt>
      <trkpt lat="47.88032" lon="6.81623">
        <ele>665</ele>
        <time>2022-09-12T10:23:04Z</time>
      </trkpt>
      <trkpt lat="47.88032" lon="6.81621">
        <ele>665</ele>
        <time>2022-09-12T10:23:05Z</time>
      </trkpt>
      <trkpt lat="47.88032" lon="6.8162">
        <ele>665</ele>
        <time>2022-09-12T10:23:06Z</time>
      </trkpt>
      <trkpt lat="47.88032" lon="6.81618">
        <ele>664</ele>
        <time>2022-09-12T10:23:07Z</time>
      </trkpt>
      <trkpt lat="47.88032" lon="6.81616">
        <ele>664</ele>
        <time>2022-09-12T10:23:08Z</time>
      </trkpt>
      <trkpt lat="47.88032" lon="6.81615">
        <ele>664</ele>
        <time>2022-09-12T10:23:09Z</time>
      </trkpt>
      <trkpt lat="47.88032" lon="6.81613">
        <ele>664</ele>
        <time>2022-09-12T10:23:10Z</time>
      </trkpt>
      <trkpt lat="47.88032" lon="6.81612">
        <ele>664</ele>
        <time>2022-09-12T10:23:11Z</time>
      </trkpt>
      <trkpt lat="47.88032" lon="6.81612">
        <ele>664</ele>
        <time>2022-09-12T10:23:12Z</time>
      </trkpt>
      <trkpt lat="47.88032" lon="6.8161">
        <ele>664</ele>
        <time>2022-09-12T10:23:13Z</time>
      </trkpt>
      <trkpt lat="47.88032" lon="6.81609">
        <ele>664</ele>
        <time>2022-09-12T10:23:14Z</time>
      </trkpt>
      <trkpt lat="47.88032" lon="6.81608">
        <ele>664</ele>
        <time>2022-09-12T10:23:15Z</time>
      </trkpt>
      <trkpt lat="47.88032" lon="6.81606">
        <ele>664</ele>
        <time>2022-09-12T10:23:16Z</time>
      </trkpt>
      <trkpt lat="47.88032" lon="6.81605">
        <ele>664</ele>
        <time>2022-09-12T10:23:17Z</time>
      </trkpt>
      <trkpt lat="47.88032" lon="6.81603">
        <ele>664</ele>
        <time>2022-09-12T10:23:18Z</time>
      </trkpt>
      <trkpt lat="47.88032" lon="6.81602">
        <ele>664</ele>
        <time>2022-09-12T10:23:19Z</time>
      </trkpt>
      <trkpt lat="47.88032" lon="6.81601">
        <ele>664</ele>
        <time>2022-09-12T10:23:20Z</time>
      </trkpt>
      <trkpt lat="47.88032" lon="6.81599">
        <ele>664</ele>
        <time>2022-09-12T10:23:21Z</time>
      </trkpt>
      <trkpt lat="47.88032" lon="6.81597">
        <ele>664</ele>
        <time>2022-09-12T10:23:22Z</time>
      </trkpt>
      <trkpt lat="47.88032" lon="6.81595">
        <ele>664</ele>
        <time>2022-09-12T10:23:23Z</time>
      </trkpt>
      <trkpt lat="47.88032" lon="6.81593">
        <ele>664</ele>
        <time>2022-09-12T10:23:24Z</time>
      </trkpt>
      <trkpt lat="47.88032" lon="6.81592">
        <ele>664</ele>
        <time>2022-09-12T10:23:25Z</time>
      </trkpt>
      <trkpt lat="47.88032" lon="6.8159">
        <ele>664</ele>
        <time>2022-09-12T10:23:26Z</time>
      </trkpt>
      <trkpt lat="47.88032" lon="6.81588">
        <ele>664</ele>
        <time>2022-09-12T10:23:27Z</time>
      </trkpt>
      <trkpt lat="47.88032" lon="6.81586">
        <ele>664</ele>
        <time>2022-09-12T10:23:28Z</time>
      </trkpt>
      <trkpt lat="47.88032" lon="6.81584">
        <ele>664</ele>
        <time>2022-09-12T10:23:29Z</time>
      </trkpt>
      <trkpt lat="47.88031" lon="6.81582">
        <ele>664</ele>
        <time>2022-09-12T10:23:30Z</time>
      </trkpt>
      <trkpt lat="47.88031" lon="6.81581">
        <ele>664</ele>
        <time>2022-09-12T10:23:31Z</time>
      </trkpt>
      <trkpt lat="47.88031" lon="6.81579">
        <ele>664</ele>
        <time>2022-09-12T10:23:32Z</time>
      </trkpt>
      <trkpt lat="47.88032" lon="6.81578">
        <ele>664</ele>
        <time>2022-09-12T10:23:33Z</time>
      </trkpt>
      <trkpt lat="47.88032" lon="6.81576">
        <ele>664</ele>
        <time>2022-09-12T10:23:34Z</time>
      </trkpt>
      <trkpt lat="47.88032" lon="6.81575">
        <ele>664</ele>
        <time>2022-09-12T10:23:35Z</time>
      </trkpt>
      <trkpt lat="47.88032" lon="6.81574">
        <ele>664</ele>
        <time>2022-09-12T10:23:36Z</time>
      </trkpt>
      <trkpt lat="47.88033" lon="6.81572">
        <ele>664</ele>
        <time>2022-09-12T10:23:37Z</time>
      </trkpt>
      <trkpt lat="47.88033" lon="6.81571">
        <ele>664</ele>
        <time>2022-09-12T10:23:38Z</time>
      </trkpt>
      <trkpt lat="47.88034" lon="6.81569">
        <ele>664</ele>
        <time>2022-09-12T10:23:39Z</time>
      </trkpt>
      <trkpt lat="47.88034" lon="6.81568">
        <ele>664</ele>
        <time>2022-09-12T10:23:40Z</time>
      </trkpt>
      <trkpt lat="47.88034" lon="6.81566">
        <ele>664</ele>
        <time>2022-09-12T10:23:41Z</time>
      </trkpt>
      <trkpt lat="47.88034" lon="6.81564">
        <ele>664</ele>
        <time>2022-09-12T10:23:42Z</time>
      </trkpt>
      <trkpt lat="47.88034" lon="6.81562">
        <ele>664</ele>
        <time>2022-09-12T10:23:43Z</time>
      </trkpt>
      <trkpt lat="47.88034" lon="6.8156">
        <ele>664</ele>
        <time>2022-09-12T10:23:44Z</time>
      </trkpt>
      <trkpt lat="47.88035" lon="6.81559">
        <ele>664</ele>
        <time>2022-09-12T10:23:45Z</time>
      </trkpt>
      <trkpt lat="47.88035" lon="6.81557">
        <ele>664</ele>
        <time>2022-09-12T10:23:46Z</time>
      </trkpt>
      <trkpt lat="47.88035" lon="6.81555">
        <ele>664</ele>
        <time>2022-09-12T10:23:47Z</time>
      </trkpt>
      <trkpt lat="47.88036" lon="6.81554">
        <ele>664</ele>
        <time>2022-09-12T10:23:48Z</time>
      </trkpt>
      <trkpt lat="47.88036" lon="6.81553">
        <ele>664</ele>
        <time>2022-09-12T10:23:49Z</time>
      </trkpt>
      <trkpt lat="47.88037" lon="6.81551">
        <ele>664</ele>
        <time>2022-09-12T10:23:50Z</time>
      </trkpt>
      <trkpt lat="47.88037" lon="6.8155">
        <ele>664</ele>
        <time>2022-09-12T10:23:51Z</time>
      </trkpt>
      <trkpt lat="47.88038" lon="6.81549">
        <ele>664</ele>
        <time>2022-09-12T10:23:52Z</time>
      </trkpt>
      <trkpt lat="47.88038" lon="6.81547">
        <ele>664</ele>
        <time>2022-09-12T10:23:53Z</time>
      </trkpt>
      <trkpt lat="47.88039" lon="6.81546">
        <ele>664</ele>
        <time>2022-09-12T10:23:54Z</time>
      </trkpt>
      <trkpt lat="47.88039" lon="6.81544">
        <ele>664</ele>
        <time>2022-09-12T10:23:55Z</time>
      </trkpt>
      <trkpt lat="47.88039" lon="6.81542">
        <ele>664</ele>
        <time>2022-09-12T10:23:56Z</time>
      </trkpt>
      <trkpt lat="47.88039" lon="6.8154">
        <ele>664</ele>
        <time>2022-09-12T10:23:57Z</time>
      </trkpt>
      <trkpt lat="47.8804" lon="6.81538">
        <ele>664</ele>
        <time>2022-09-12T10:23:58Z</time>
      </trkpt>
      <trkpt lat="47.8804" lon="6.81537">
        <ele>664</ele>
        <time>2022-09-12T10:23:59Z</time>
      </trkpt>
      <trkpt lat="47.88041" lon="6.81535">
        <ele>664</ele>
        <time>2022-09-12T10:24:00Z</time>
      </trkpt>
      <trkpt lat="47.88041" lon="6.81533">
        <ele>664</ele>
        <time>2022-09-12T10:24:01Z</time>
      </trkpt>
      <trkpt lat="47.88041" lon="6.81532">
        <ele>663</ele>
        <time>2022-09-12T10:24:02Z</time>
      </trkpt>
      <trkpt lat="47.88041" lon="6.81531">
        <ele>663</ele>
        <time>2022-09-12T10:24:03Z</time>
      </trkpt>
      <trkpt lat="47.88041" lon="6.8153">
        <ele>663</ele>
        <time>2022-09-12T10:24:04Z</time>
      </trkpt>
      <trkpt lat="47.88041" lon="6.81528">
        <ele>663</ele>
        <time>2022-09-12T10:24:05Z</time>
      </trkpt>
      <trkpt lat="47.88041" lon="6.81527">
        <ele>663</ele>
        <time>2022-09-12T10:24:06Z</time>
      </trkpt>
      <trkpt lat="47.88041" lon="6.81526">
        <ele>663</ele>
        <time>2022-09-12T10:24:07Z</time>
      </trkpt>
      <trkpt lat="47.88041" lon="6.81525">
        <ele>663</ele>
        <time>2022-09-12T10:24:08Z</time>
      </trkpt>
      <trkpt lat="47.88041" lon="6.81523">
        <ele>663</ele>
        <time>2022-09-12T10:24:09Z</time>
      </trkpt>
      <trkpt lat="47.88041" lon="6.81522">
        <ele>663</ele>
        <time>2022-09-12T10:24:10Z</time>
      </trkpt>
      <trkpt lat="47.88041" lon="6.81521">
        <ele>663</ele>
        <time>2022-09-12T10:24:11Z</time>
      </trkpt>
      <trkpt lat="47.88041" lon="6.81519">
        <ele>663</ele>
        <time>2022-09-12T10:24:12Z</time>
      </trkpt>
      <trkpt lat="47.88042" lon="6.81518">
        <ele>663</ele>
        <time>2022-09-12T10:24:13Z</time>
      </trkpt>
      <trkpt lat="47.88042" lon="6.81517">
        <ele>663</ele>
        <time>2022-09-12T10:24:14Z</time>
      </trkpt>
      <trkpt lat="47.88043" lon="6.81516">
        <ele>663</ele>
        <time>2022-09-12T10:24:15Z</time>
      </trkpt>
      <trkpt lat="47.88044" lon="6.81514">
        <ele>663</ele>
        <time>2022-09-12T10:24:16Z</time>
      </trkpt>
      <trkpt lat="47.88044" lon="6.81513">
        <ele>663</ele>
        <time>2022-09-12T10:24:17Z</time>
      </trkpt>
      <trkpt lat="47.88045" lon="6.81512">
        <ele>663</ele>
        <time>2022-09-12T10:24:18Z</time>
      </trkpt>
      <trkpt lat="47.88046" lon="6.8151">
        <ele>663</ele>
        <time>2022-09-12T10:24:19Z</time>
      </trkpt>
      <trkpt lat="47.88047" lon="6.81509">
        <ele>663</ele>
        <time>2022-09-12T10:24:20Z</time>
      </trkpt>
      <trkpt lat="47.88047" lon="6.81508">
        <ele>663</ele>
        <time>2022-09-12T10:24:21Z</time>
      </trkpt>
      <trkpt lat="47.88048" lon="6.81507">
        <ele>663</ele>
        <time>2022-09-12T10:24:22Z</time>
      </trkpt>
      <trkpt lat="47.88048" lon="6.81505">
        <ele>663</ele>
        <time>2022-09-12T10:24:23Z</time>
      </trkpt>
      <trkpt lat="47.88049" lon="6.81504">
        <ele>663</ele>
        <time>2022-09-12T10:24:24Z</time>
      </trkpt>
      <trkpt lat="47.88049" lon="6.81502">
        <ele>663</ele>
        <time>2022-09-12T10:24:25Z</time>
      </trkpt>
      <trkpt lat="47.8805" lon="6.81501">
        <ele>663</ele>
        <time>2022-09-12T10:24:26Z</time>
      </trkpt>
      <trkpt lat="47.8805" lon="6.815">
        <ele>663</ele>
        <time>2022-09-12T10:24:27Z</time>
      </trkpt>
      <trkpt lat="47.88051" lon="6.81499">
        <ele>663</ele>
        <time>2022-09-12T10:24:28Z</time>
      </trkpt>
      <trkpt lat="47.88051" lon="6.81497">
        <ele>663</ele>
        <time>2022-09-12T10:24:29Z</time>
      </trkpt>
      <trkpt lat="47.88051" lon="6.81496">
        <ele>663</ele>
        <time>2022-09-12T10:24:30Z</time>
      </trkpt>
      <trkpt lat="47.88052" lon="6.81494">
        <ele>663</ele>
        <time>2022-09-12T10:24:31Z</time>
      </trkpt>
      <trkpt lat="47.88052" lon="6.81493">
        <ele>663</ele>
        <time>2022-09-12T10:24:32Z</time>
      </trkpt>
      <trkpt lat="47.88053" lon="6.81491">
        <ele>663</ele>
        <time>2022-09-12T10:24:33Z</time>
      </trkpt>
      <trkpt lat="47.88053" lon="6.81489">
        <ele>663</ele>
        <time>2022-09-12T10:24:34Z</time>
      </trkpt>
      <trkpt lat="47.88054" lon="6.81486">
        <ele>663</ele>
        <time>2022-09-12T10:24:35Z</time>
      </trkpt>
      <trkpt lat="47.88054" lon="6.81484">
        <ele>663</ele>
        <time>2022-09-12T10:24:36Z</time>
      </trkpt>
      <trkpt lat="47.88055" lon="6.81482">
        <ele>662</ele>
        <time>2022-09-12T10:24:37Z</time>
      </trkpt>
      <trkpt lat="47.88055" lon="6.8148">
        <ele>662</ele>
        <time>2022-09-12T10:24:38Z</time>
      </trkpt>
      <trkpt lat="47.88055" lon="6.81478">
        <ele>662</ele>
        <time>2022-09-12T10:24:39Z</time>
      </trkpt>
      <trkpt lat="47.88056" lon="6.81476">
        <ele>662</ele>
        <time>2022-09-12T10:24:40Z</time>
      </trkpt>
      <trkpt lat="47.88056" lon="6.81474">
        <ele>662</ele>
        <time>2022-09-12T10:24:41Z</time>
      </trkpt>
      <trkpt lat="47.88056" lon="6.81472">
        <ele>662</ele>
        <time>2022-09-12T10:24:42Z</time>
      </trkpt>
      <trkpt lat="47.88056" lon="6.81471">
        <ele>662</ele>
        <time>2022-09-12T10:24:43Z</time>
      </trkpt>
      <trkpt lat="47.88056" lon="6.81469">
        <ele>662</ele>
        <time>2022-09-12T10:24:44Z</time>
      </trkpt>
      <trkpt lat="47.88056" lon="6.81468">
        <ele>662</ele>
        <time>2022-09-12T10:24:45Z</time>
      </trkpt>
      <trkpt lat="47.88056" lon="6.81467">
        <ele>662</ele>
        <time>2022-09-12T10:24:46Z</time>
      </trkpt>
      <trkpt lat="47.88056" lon="6.81466">
        <ele>662</ele>
        <time>2022-09-12T10:24:47Z</time>
      </trkpt>
      <trkpt lat="47.88056" lon="6.81465">
        <ele>662</ele>
        <time>2022-09-12T10:24:48Z</time>
      </trkpt>
      <trkpt lat="47.88056" lon="6.81463">
        <ele>662</ele>
        <time>2022-09-12T10:24:49Z</time>
      </trkpt>
      <trkpt lat="47.88056" lon="6.81462">
        <ele>662</ele>
        <time>2022-09-12T10:24:50Z</time>
      </trkpt>
      <trkpt lat="47.88056" lon="6.81461">
        <ele>662</ele>
        <time>2022-09-12T10:24:51Z</time>
      </trkpt>
      <trkpt lat="47.88057" lon="6.81459">
        <ele>662</ele>
        <time>2022-09-12T10:24:52Z</time>
      </trkpt>
      <trkpt lat="47.88057" lon="6.81458">
        <ele>662</ele>
        <time>2022-09-12T10:24:53Z</time>
      </trkpt>
      <trkpt lat="47.88058" lon="6.81457">
        <ele>662</ele>
        <time>2022-09-12T10:24:54Z</time>
      </trkpt>
      <trkpt lat="47.88059" lon="6.81456">
        <ele>662</ele>
        <time>2022-09-12T10:24:55Z</time>
      </trkpt>
      <trkpt lat="47.88061" lon="6.81455">
        <ele>662</ele>
        <time>2022-09-12T10:24:56Z</time>
      </trkpt>
      <trkpt lat="47.88062" lon="6.81454">
        <ele>661</ele>
        <time>2022-09-12T10:24:57Z</time>
      </trkpt>
      <trkpt lat="47.88063" lon="6.81452">
        <ele>661</ele>
        <time>2022-09-12T10:24:58Z</time>
      </trkpt>
      <trkpt lat="47.88063" lon="6.8145">
        <ele>661</ele>
        <time>2022-09-12T10:24:59Z</time>
      </trkpt>
      <trkpt lat="47.88064" lon="6.81448">
        <ele>661</ele>
        <time>2022-09-12T10:25:00Z</time>
      </trkpt>
      <trkpt lat="47.88064" lon="6.81447">
        <ele>661</ele>
        <time>2022-09-12T10:25:01Z</time>
      </trkpt>
      <trkpt lat="47.88065" lon="6.81445">
        <ele>661</ele>
        <time>2022-09-12T10:25:02Z</time>
      </trkpt>
      <trkpt lat="47.88066" lon="6.81444">
        <ele>661</ele>
        <time>2022-09-12T10:25:03Z</time>
      </trkpt>
      <trkpt lat="47.88067" lon="6.81443">
        <ele>661</ele>
        <time>2022-09-12T10:25:04Z</time>
      </trkpt>
      <trkpt lat="47.88068" lon="6.81442">
        <ele>661</ele>
        <time>2022-09-12T10:25:05Z</time>
      </trkpt>
      <trkpt lat="47.88069" lon="6.81441">
        <ele>661</ele>
        <time>2022-09-12T10:25:06Z</time>
      </trkpt>
      <trkpt lat="47.88069" lon="6.8144">
        <ele>661</ele>
        <time>2022-09-12T10:25:07Z</time>
      </trkpt>
      <trkpt lat="47.8807" lon="6.81438">
        <ele>661</ele>
        <time>2022-09-12T10:25:08Z</time>
      </trkpt>
      <trkpt lat="47.8807" lon="6.81437">
        <ele>661</ele>
        <time>2022-09-12T10:25:09Z</time>
      </trkpt>
      <trkpt lat="47.88071" lon="6.81436">
        <ele>661</ele>
        <time>2022-09-12T10:25:10Z</time>
      </trkpt>
      <trkpt lat="47.88072" lon="6.81435">
        <ele>662</ele>
        <time>2022-09-12T10:25:11Z</time>
      </trkpt>
      <trkpt lat="47.88072" lon="6.81434">
        <ele>662</ele>
        <time>2022-09-12T10:25:12Z</time>
      </trkpt>
      <trkpt lat="47.88073" lon="6.81434">
        <ele>662</ele>
        <time>2022-09-12T10:25:13Z</time>
      </trkpt>
      <trkpt lat="47.88073" lon="6.81433">
        <ele>662</ele>
        <time>2022-09-12T10:25:14Z</time>
      </trkpt>
      <trkpt lat="47.88074" lon="6.81432">
        <ele>662</ele>
        <time>2022-09-12T10:25:15Z</time>
      </trkpt>
      <trkpt lat="47.88074" lon="6.81432">
        <ele>662</ele>
        <time>2022-09-12T10:25:16Z</time>
      </trkpt>
      <trkpt lat="47.88075" lon="6.81431">
        <ele>662</ele>
        <time>2022-09-12T10:25:17Z</time>
      </trkpt>
      <trkpt lat="47.88075" lon="6.81431">
        <ele>662</ele>
        <time>2022-09-12T10:25:18Z</time>
      </trkpt>
      <trkpt lat="47.88076" lon="6.8143">
        <ele>662</ele>
        <time>2022-09-12T10:25:19Z</time>
      </trkpt>
      <trkpt lat="47.88076" lon="6.81429">
        <ele>662</ele>
        <time>2022-09-12T10:25:20Z</time>
      </trkpt>
      <trkpt lat="47.88077" lon="6.81429">
        <ele>662</ele>
        <time>2022-09-12T10:25:21Z</time>
      </trkpt>
      <trkpt lat="47.88077" lon="6.81428">
        <ele>662</ele>
        <time>2022-09-12T10:25:22Z</time>
      </trkpt>
      <trkpt lat="47.88078" lon="6.81427">
        <ele>662</ele>
        <time>2022-09-12T10:25:23Z</time>
      </trkpt>
      <trkpt lat="47.88079" lon="6.81426">
        <ele>662</ele>
        <time>2022-09-12T10:25:24Z</time>
      </trkpt>
      <trkpt lat="47.88079" lon="6.81425">
        <ele>662</ele>
        <time>2022-09-12T10:25:25Z</time>
      </trkpt>
      <trkpt lat="47.8808" lon="6.81423">
        <ele>662</ele>
        <time>2022-09-12T10:25:26Z</time>
      </trkpt>
      <trkpt lat="47.8808" lon="6.81422">
        <ele>662</ele>
        <time>2022-09-12T10:25:27Z</time>
      </trkpt>
      <trkpt lat="47.88081" lon="6.81421">
        <ele>662</ele>
        <time>2022-09-12T10:25:28Z</time>
      </trkpt>
      <trkpt lat="47.88082" lon="6.8142">
        <ele>662</ele>
        <time>2022-09-12T10:25:29Z</time>
      </trkpt>
      <trkpt lat="47.88083" lon="6.81419">
        <ele>662</ele>
        <time>2022-09-12T10:25:30Z</time>
      </trkpt>
      <trkpt lat="47.88083" lon="6.81419">
        <ele>663</ele>
        <time>2022-09-12T10:25:31Z</time>
      </trkpt>
      <trkpt lat="47.88084" lon="6.81418">
        <ele>663</ele>
        <time>2022-09-12T10:25:32Z</time>
      </trkpt>
      <trkpt lat="47.88085" lon="6.81417">
        <ele>663</ele>
        <time>2022-09-12T10:25:33Z</time>
      </trkpt>
      <trkpt lat="47.88085" lon="6.81415">
        <ele>663</ele>
        <time>2022-09-12T10:25:34Z</time>
      </trkpt>
      <trkpt lat="47.88085" lon="6.81414">
        <ele>663</ele>
        <time>2022-09-12T10:25:35Z</time>
      </trkpt>
      <trkpt lat="47.88086" lon="6.81413">
        <ele>663</ele>
        <time>2022-09-12T10:25:36Z</time>
      </trkpt>
      <trkpt lat="47.88086" lon="6.81412">
        <ele>663</ele>
        <time>2022-09-12T10:25:37Z</time>
      </trkpt>
      <trkpt lat="47.88087" lon="6.81409">
        <ele>663</ele>
        <time>2022-09-12T10:25:38Z</time>
      </trkpt>
      <trkpt lat="47.88087" lon="6.81407">
        <ele>663</ele>
        <time>2022-09-12T10:25:39Z</time>
      </trkpt>
    </trkseg>
  </trk>
</gpx>